<?xml version='1.0' encoding='UTF-8'?><gpx version="1.1" creator="JPX - https://github.com/jenetics/jpx" xmlns="http://www.topografix.com/GPX/1/1"><trk><trkseg><trkpt lat="14.55827030924189" lon="120.99506881917422"><ele>9.0</ele><time>2026-03-28T09:03:22.018Z</time></trkpt><trkpt lat="14.558100499412449" lon="120.99503601847177"><ele>9.0</ele><time>2026-03-28T09:03:23.018Z</time></trkpt><trkpt lat="14.558193054995087" lon="120.9957429115856"><ele>9.0</ele><time>2026-03-28T09:07:22.022Z</time></trkpt><trkpt lat="14.558220427541936" lon="120.9958172897623"><ele>9.0</ele><time>2026-03-28T09:07:24.023Z</time></trkpt><trkpt lat="14.558134713615988" lon="120.99594199177409"><ele>9.0</ele><time>2026-03-28T09:07:26.002Z</time></trkpt><trkpt lat="14.558139760003186" lon="120.99602686808423"><ele>9.0</ele><time>2026-03-28T09:07:28.002Z</time></trkpt><trkpt lat="14.55815295065657" lon="120.99609669083473"><ele>9.0</ele><time>2026-03-28T09:07:31.002Z</time></trkpt><trkpt lat="14.558186618232085" lon="120.99616225165937"><ele>9.0</ele><time>2026-03-28T09:07:36.001Z</time></trkpt><trkpt lat="14.558336364723822" lon="120.99617550155533"><ele>9.0</ele><time>2026-03-28T09:07:52.001Z</time></trkpt><trkpt lat="14.558407664462012" lon="120.99616864424668"><ele>9.0</ele><time>2026-03-28T09:07:53.001Z</time></trkpt><trkpt lat="14.558537638026646" lon="120.99617326192119"><ele>9.0</ele><time>2026-03-28T09:07:55.001Z</time></trkpt><trkpt lat="14.558610051828307" lon="120.9961771744548"><ele>9.0</ele><time>2026-03-28T09:07:56.001Z</time></trkpt><trkpt lat="14.558679752740204" lon="120.99615338256305"><ele>9.0</ele><time>2026-03-28T09:07:57.001Z</time></trkpt><trkpt lat="14.558759982843101" lon="120.99613608372924"><ele>9.0</ele><time>2026-03-28T09:07:58.001Z</time></trkpt><trkpt lat="14.558837793625282" lon="120.9961287937198"><ele>9.0</ele><time>2026-03-28T09:07:59.001Z</time></trkpt><trkpt lat="14.558909117320471" lon="120.99611566491333"><ele>9.0</ele><time>2026-03-28T09:08:00.001Z</time></trkpt><trkpt lat="14.558984803158525" lon="120.99609831381326"><ele>9.0</ele><time>2026-03-28T09:08:01.001Z</time></trkpt><trkpt lat="14.559064003843407" lon="120.99609088170311"><ele>9.0</ele><time>2026-03-28T09:08:02.001Z</time></trkpt><trkpt lat="14.559138668743614" lon="120.99608455028671"><ele>9.0</ele><time>2026-03-28T09:08:03.001Z</time></trkpt><trkpt lat="14.559222064005585" lon="120.99606224880073"><ele>9.0</ele><time>2026-03-28T09:08:04.001Z</time></trkpt><trkpt lat="14.559305082197614" lon="120.99603914968863"><ele>9.0</ele><time>2026-03-28T09:08:05.001Z</time></trkpt><trkpt lat="14.559380718885814" lon="120.99599345943696"><ele>9.0</ele><time>2026-03-28T09:08:06.001Z</time></trkpt><trkpt lat="14.559456021975267" lon="120.99597250833766"><ele>9.0</ele><time>2026-03-28T09:08:07.001Z</time></trkpt><trkpt lat="14.559531312722601" lon="120.99595370248299"><ele>9.0</ele><time>2026-03-28T09:08:08.001Z</time></trkpt><trkpt lat="14.559605619159617" lon="120.99593757374112"><ele>9.0</ele><time>2026-03-28T09:08:09.001Z</time></trkpt><trkpt lat="14.559673059513692" lon="120.99592168632374"><ele>9.0</ele><time>2026-03-28T09:08:10.001Z</time></trkpt><trkpt lat="14.55973979283199" lon="120.99590682578497"><ele>8.833333333333334</ele><time>2026-03-28T09:08:11.001Z</time></trkpt><trkpt lat="14.559804581946858" lon="120.99589142495704"><ele>8.666666666666666</ele><time>2026-03-28T09:08:12.001Z</time></trkpt><trkpt lat="14.559869131201905" lon="120.99587948411873"><ele>8.5</ele><time>2026-03-28T09:08:13.001Z</time></trkpt><trkpt lat="14.559930192229949" lon="120.99586073855097"><ele>8.333333333333332</ele><time>2026-03-28T09:08:14.001Z</time></trkpt><trkpt lat="14.560052288674349" lon="120.99583361273105"><ele>8.166666666666666</ele><time>2026-03-28T09:08:16.001Z</time></trkpt><trkpt lat="14.560164986802834" lon="120.99580814858103"><ele>8.0</ele><time>2026-03-28T09:08:18.001Z</time></trkpt><trkpt lat="14.560276306245129" lon="120.99577865913606"><ele>7.800000000000001</ele><time>2026-03-28T09:08:20.001Z</time></trkpt><trkpt lat="14.560352677009421" lon="120.99575819401515"><ele>7.6000000000000005</ele><time>2026-03-28T09:08:21.001Z</time></trkpt><trkpt lat="14.560463752755705" lon="120.99572938909816"><ele>7.3999999999999995</ele><time>2026-03-28T09:08:23.001Z</time></trkpt><trkpt lat="14.560581543172372" lon="120.99569970649989"><ele>7.199999999999999</ele><time>2026-03-28T09:08:25.001Z</time></trkpt><trkpt lat="14.560694247785168" lon="120.99567085998461"><ele>7.0</ele><time>2026-03-28T09:08:27.001Z</time></trkpt><trkpt lat="14.56082441884529" lon="120.99564127986825"><ele>7.0</ele><time>2026-03-28T09:08:29.001Z</time></trkpt><trkpt lat="14.560888645903875" lon="120.995629211532"><ele>7.0</ele><time>2026-03-28T09:08:30.001Z</time></trkpt><trkpt lat="14.560958981104017" lon="120.99561202318615"><ele>7.0</ele><time>2026-03-28T09:08:31.001Z</time></trkpt><trkpt lat="14.561024293387794" lon="120.99560147930823"><ele>7.0</ele><time>2026-03-28T09:08:32.001Z</time></trkpt><trkpt lat="14.561087442258364" lon="120.99559299665503"><ele>7.0</ele><time>2026-03-28T09:08:33.001Z</time></trkpt><trkpt lat="14.561150481782253" lon="120.99558080670069"><ele>7.0</ele><time>2026-03-28T09:08:34.001Z</time></trkpt><trkpt lat="14.56121284048616" lon="120.99556263352228"><ele>7.0</ele><time>2026-03-28T09:08:35.001Z</time></trkpt><trkpt lat="14.561320531593188" lon="120.99550135146045"><ele>7.3999999999999995</ele><time>2026-03-28T09:08:37.001Z</time></trkpt><trkpt lat="14.561393663246234" lon="120.99551404580731"><ele>7.799999999999999</ele><time>2026-03-28T09:08:38.001Z</time></trkpt><trkpt lat="14.561476284707476" lon="120.99549763630087"><ele>8.2</ele><time>2026-03-28T09:08:40.001Z</time></trkpt><trkpt lat="14.5615553137986" lon="120.99547789406986"><ele>8.6</ele><time>2026-03-28T09:08:43.001Z</time></trkpt><trkpt lat="14.561694139484501" lon="120.9954459429556"><ele>9.0</ele><time>2026-03-28T09:09:02.001Z</time></trkpt><trkpt lat="14.561780283772944" lon="120.99542735252895"><ele>9.0</ele><time>2026-03-28T09:09:04.001Z</time></trkpt><trkpt lat="14.56186248880168" lon="120.99540676256952"><ele>9.0</ele><time>2026-03-28T09:09:06.001Z</time></trkpt><trkpt lat="14.561935466863517" lon="120.99538778894703"><ele>9.0</ele><time>2026-03-28T09:09:08.001Z</time></trkpt><trkpt lat="14.562014997878931" lon="120.9953665986423"><ele>9.0</ele><time>2026-03-28T09:09:11.001Z</time></trkpt><trkpt lat="14.562105396825137" lon="120.99534346137713"><ele>9.0</ele><time>2026-03-28T09:09:14.001Z</time></trkpt><trkpt lat="14.562168543964562" lon="120.99532833279207"><ele>9.0</ele><time>2026-03-28T09:09:16.002Z</time></trkpt><trkpt lat="14.562240945144216" lon="120.99530982855131"><ele>9.2</ele><time>2026-03-28T09:09:19.002Z</time></trkpt><trkpt lat="14.562302306830668" lon="120.9952934862285"><ele>9.4</ele><time>2026-03-28T09:09:23.002Z</time></trkpt><trkpt lat="14.562380908747505" lon="120.99527360582795"><ele>9.6</ele><time>2026-03-28T09:09:28.002Z</time></trkpt><trkpt lat="14.562493668596746" lon="120.99527727048012"><ele>9.8</ele><time>2026-03-28T09:10:37Z</time></trkpt><trkpt lat="14.562561399680861" lon="120.9952693702304"><ele>10.0</ele><time>2026-03-28T09:10:39Z</time></trkpt><trkpt lat="14.562694012738364" lon="120.9953590831557"><ele>10.0</ele><time>2026-03-28T09:10:42.001Z</time></trkpt><trkpt lat="14.562748096026208" lon="120.99539421250536"><ele>10.0</ele><time>2026-03-28T09:10:44.001Z</time></trkpt><trkpt lat="14.562798055334987" lon="120.99547480493256"><ele>10.0</ele><time>2026-03-28T09:10:47.001Z</time></trkpt><trkpt lat="14.562814403974704" lon="120.99557264732628"><ele>10.0</ele><time>2026-03-28T09:10:49.001Z</time></trkpt><trkpt lat="14.562853672856324" lon="120.99566989522336"><ele>10.0</ele><time>2026-03-28T09:10:51.001Z</time></trkpt><trkpt lat="14.562893382194705" lon="120.99577273375216"><ele>9.833333333333334</ele><time>2026-03-28T09:10:53.001Z</time></trkpt><trkpt lat="14.56292533305296" lon="120.99585248131794"><ele>9.666666666666668</ele><time>2026-03-28T09:10:55.001Z</time></trkpt><trkpt lat="14.562985059673341" lon="120.9959466464962"><ele>9.5</ele><time>2026-03-28T09:11:01.001Z</time></trkpt><trkpt lat="14.563021348381767" lon="120.99601545672198"><ele>9.333333333333334</ele><time>2026-03-28T09:11:03.001Z</time></trkpt><trkpt lat="14.56305330901608" lon="120.99608393005538"><ele>9.166666666666666</ele><time>2026-03-28T09:11:05.001Z</time></trkpt><trkpt lat="14.563087296265444" lon="120.99616440495555"><ele>9.0</ele><time>2026-03-28T09:11:07.001Z</time></trkpt><trkpt lat="14.563124253046428" lon="120.99623824315337"><ele>9.0</ele><time>2026-03-28T09:11:09.001Z</time></trkpt><trkpt lat="14.563152994510961" lon="120.99630957474223"><ele>9.0</ele><time>2026-03-28T09:11:13.001Z</time></trkpt><trkpt lat="14.563177976521645" lon="120.99637015882591"><ele>9.0</ele><time>2026-03-28T09:11:15.001Z</time></trkpt><trkpt lat="14.563214383802265" lon="120.996455483695"><ele>9.0</ele><time>2026-03-28T09:11:17.001Z</time></trkpt><trkpt lat="14.563247065489884" lon="120.99656020204381"><ele>9.0</ele><time>2026-03-28T09:11:19.001Z</time></trkpt><trkpt lat="14.563292147112326" lon="120.99666801213759"><ele>9.0</ele><time>2026-03-28T09:11:21.001Z</time></trkpt><trkpt lat="14.563318299526737" lon="120.99672964343264"><ele>8.666666666666666</ele><time>2026-03-28T09:11:22.001Z</time></trkpt><trkpt lat="14.563344574621556" lon="120.99679069955776"><ele>8.333333333333334</ele><time>2026-03-28T09:11:23.001Z</time></trkpt><trkpt lat="14.563394983798315" lon="120.99690012406955"><ele>8.0</ele><time>2026-03-28T09:11:25.001Z</time></trkpt><trkpt lat="14.563424228571353" lon="120.99696780263402"><ele>7.666666666666667</ele><time>2026-03-28T09:11:26.001Z</time></trkpt><trkpt lat="14.563451082422928" lon="120.99703241504203"><ele>7.333333333333334</ele><time>2026-03-28T09:11:27.001Z</time></trkpt><trkpt lat="14.563476643369931" lon="120.99709686041568"><ele>7.0</ele><time>2026-03-28T09:11:28.001Z</time></trkpt><trkpt lat="14.56350446931314" lon="120.99716691347369"><ele>7.0</ele><time>2026-03-28T09:11:29.001Z</time></trkpt><trkpt lat="14.563563567535514" lon="120.99727401572898"><ele>6.999999999999999</ele><time>2026-03-28T09:11:31.001Z</time></trkpt><trkpt lat="14.563610008433633" lon="120.99737314052393"><ele>6.999999999999999</ele><time>2026-03-28T09:11:33.001Z</time></trkpt><trkpt lat="14.56365672533028" lon="120.99744292085413"><ele>7.0</ele><time>2026-03-28T09:12:11Z</time></trkpt><trkpt lat="14.563679571977124" lon="120.99750368594772"><ele>7.0</ele><time>2026-03-28T09:12:15Z</time></trkpt><trkpt lat="14.563709091752" lon="120.99758937304483"><ele>7.0</ele><time>2026-03-28T09:12:17Z</time></trkpt><trkpt lat="14.563751859766162" lon="120.99769061670628"><ele>7.0</ele><time>2026-03-28T09:12:19Z</time></trkpt><trkpt lat="14.563797948465135" lon="120.99779991869514"><ele>7.0</ele><time>2026-03-28T09:12:21Z</time></trkpt><trkpt lat="14.563840146414867" lon="120.99791205964145"><ele>7.0</ele><time>2026-03-28T09:12:23Z</time></trkpt><trkpt lat="14.563888568291704" lon="120.99802214971449"><ele>7.0</ele><time>2026-03-28T09:12:25Z</time></trkpt><trkpt lat="14.563941811382945" lon="120.99812649982401"><ele>6.999999999999999</ele><time>2026-03-28T09:12:27Z</time></trkpt><trkpt lat="14.563991667273655" lon="120.99819114520865"><ele>6.999999999999999</ele><time>2026-03-28T09:12:29Z</time></trkpt><trkpt lat="14.564016591832212" lon="120.99826056957204"><ele>7.0</ele><time>2026-03-28T09:12:32Z</time></trkpt><trkpt lat="14.56390856013809" lon="120.99831602337694"><ele>7.0</ele><time>2026-03-28T09:12:33Z</time></trkpt><trkpt lat="14.563835257394974" lon="120.99833893424662"><ele>7.000000000000001</ele><time>2026-03-28T09:12:35Z</time></trkpt><trkpt lat="14.563732256606757" lon="120.99835652828743"><ele>7.0</ele><time>2026-03-28T09:12:37Z</time></trkpt><trkpt lat="14.563670385235808" lon="120.99837795926493"><ele>7.0</ele><time>2026-03-28T09:12:38Z</time></trkpt><trkpt lat="14.563597601059204" lon="120.99839898503731"><ele>7.0</ele><time>2026-03-28T09:12:39Z</time></trkpt><trkpt lat="14.563524327229594" lon="120.99841962906416"><ele>7.000000000000001</ele><time>2026-03-28T09:12:40Z</time></trkpt><trkpt lat="14.563401281782964" lon="120.99845267290145"><ele>7.0</ele><time>2026-03-28T09:12:42Z</time></trkpt><trkpt lat="14.563339022799113" lon="120.99846951037753"><ele>7.0</ele><time>2026-03-28T09:12:43Z</time></trkpt><trkpt lat="14.563198607564287" lon="120.99850921118892"><ele>6.999999999999999</ele><time>2026-03-28T09:12:45Z</time></trkpt><trkpt lat="14.563121581741644" lon="120.99853078562239"><ele>6.999999999999999</ele><time>2026-03-28T09:12:46Z</time></trkpt><trkpt lat="14.56304611028781" lon="120.9985549781728"><ele>7.0</ele><time>2026-03-28T09:12:47Z</time></trkpt><trkpt lat="14.562960862843354" lon="120.99858159615113"><ele>7.0</ele><time>2026-03-28T09:12:48Z</time></trkpt><trkpt lat="14.56287273461793" lon="120.9986093779174"><ele>7.3999999999999995</ele><time>2026-03-28T09:12:49Z</time></trkpt><trkpt lat="14.562779763473081" lon="120.9986318193296"><ele>7.799999999999999</ele><time>2026-03-28T09:12:50Z</time></trkpt><trkpt lat="14.562693992014838" lon="120.9986601338692"><ele>8.2</ele><time>2026-03-28T09:12:51Z</time></trkpt><trkpt lat="14.562608885590896" lon="120.99869251093433"><ele>8.6</ele><time>2026-03-28T09:12:52Z</time></trkpt><trkpt lat="14.562543440867186" lon="120.99871898905714"><ele>9.0</ele><time>2026-03-28T09:12:53Z</time></trkpt><trkpt lat="14.562424651556642" lon="120.99877316332437"><ele>9.0</ele><time>2026-03-28T09:12:55Z</time></trkpt><trkpt lat="14.562366004272969" lon="120.99879912008812"><ele>9.0</ele><time>2026-03-28T09:12:56Z</time></trkpt><trkpt lat="14.562280124700802" lon="120.99883886284297"><ele>9.0</ele><time>2026-03-28T09:12:58Z</time></trkpt><trkpt lat="14.56219371047498" lon="120.99888389112014"><ele>9.0</ele><time>2026-03-28T09:13:00Z</time></trkpt><trkpt lat="14.56212086385115" lon="120.99892019484498"><ele>9.0</ele><time>2026-03-28T09:13:02Z</time></trkpt><trkpt lat="14.562061770674266" lon="120.9989482474145"><ele>9.0</ele><time>2026-03-28T09:13:04Z</time></trkpt><trkpt lat="14.561994560985218" lon="120.99898897211425"><ele>8.833333333333334</ele><time>2026-03-28T09:13:08Z</time></trkpt><trkpt lat="14.561984391862639" lon="120.99905881567514"><ele>8.666666666666666</ele><time>2026-03-28T09:13:11Z</time></trkpt><trkpt lat="14.562029020471025" lon="120.99911174974733"><ele>8.5</ele><time>2026-03-28T09:13:12Z</time></trkpt><trkpt lat="14.562113916454622" lon="120.99918731820713"><ele>8.333333333333332</ele><time>2026-03-28T09:13:14Z</time></trkpt><trkpt lat="14.5621835290097" lon="120.99923262101464"><ele>8.166666666666666</ele><time>2026-03-28T09:13:15Z</time></trkpt><trkpt lat="14.562246376885435" lon="120.9992909528652"><ele>8.0</ele><time>2026-03-28T09:13:16Z</time></trkpt><trkpt lat="14.562289580378783" lon="120.99937693738036"><ele>8.0</ele><time>2026-03-28T09:13:17Z</time></trkpt><trkpt lat="14.562350117027679" lon="120.99945487345211"><ele>8.0</ele><time>2026-03-28T09:13:18Z</time></trkpt><trkpt lat="14.562427164324596" lon="120.99953215028275"><ele>8.0</ele><time>2026-03-28T09:13:19Z</time></trkpt><trkpt lat="14.56249609036781" lon="120.99959781330558"><ele>8.0</ele><time>2026-03-28T09:13:20Z</time></trkpt><trkpt lat="14.562560220006699" lon="120.99965708265542"><ele>8.0</ele><time>2026-03-28T09:13:21Z</time></trkpt><trkpt lat="14.56261489861255" lon="120.99971099770579"><ele>8.0</ele><time>2026-03-28T09:13:22Z</time></trkpt><trkpt lat="14.562666425980348" lon="120.9997634324993"><ele>8.0</ele><time>2026-03-28T09:13:23Z</time></trkpt><trkpt lat="14.56275701045592" lon="120.99985653767426"><ele>8.0</ele><time>2026-03-28T09:13:25Z</time></trkpt><trkpt lat="14.562802162020574" lon="120.99990283421992"><ele>8.0</ele><time>2026-03-28T09:13:26Z</time></trkpt><trkpt lat="14.562890280879982" lon="120.99999669968123"><ele>8.0</ele><time>2026-03-28T09:13:28Z</time></trkpt><trkpt lat="14.562936259595341" lon="121.00004195374018"><ele>7.833333333333333</ele><time>2026-03-28T09:13:29Z</time></trkpt><trkpt lat="14.56298396200154" lon="121.00009120584093"><ele>7.666666666666666</ele><time>2026-03-28T09:13:30Z</time></trkpt><trkpt lat="14.563032172616735" lon="121.00014034227516"><ele>7.5</ele><time>2026-03-28T09:13:31Z</time></trkpt><trkpt lat="14.563084471227125" lon="121.00019312981436"><ele>7.333333333333334</ele><time>2026-03-28T09:13:32Z</time></trkpt><trkpt lat="14.563126147316106" lon="121.00024342948592"><ele>7.166666666666667</ele><time>2026-03-28T09:13:33Z</time></trkpt><trkpt lat="14.563191143971839" lon="121.00030889031603"><ele>7.0</ele><time>2026-03-28T09:13:34Z</time></trkpt><trkpt lat="14.563269100067684" lon="121.00037518194878"><ele>7.0</ele><time>2026-03-28T09:13:35Z</time></trkpt><trkpt lat="14.563324411942355" lon="121.00043606981333"><ele>7.0</ele><time>2026-03-28T09:13:36Z</time></trkpt><trkpt lat="14.563413103284358" lon="121.0005262017162"><ele>7.0</ele><time>2026-03-28T09:13:38Z</time></trkpt><trkpt lat="14.563517809807218" lon="121.00062997325281"><ele>7.0</ele><time>2026-03-28T09:13:39Z</time></trkpt><trkpt lat="14.563607386234263" lon="121.00072967810893"><ele>7.000000000000001</ele><time>2026-03-28T09:13:41Z</time></trkpt><trkpt lat="14.56365449826501" lon="121.00077952924126"><ele>7.0</ele><time>2026-03-28T09:13:42Z</time></trkpt><trkpt lat="14.563704918093142" lon="121.00083079600877"><ele>7.0</ele><time>2026-03-28T09:13:43Z</time></trkpt><trkpt lat="14.563784140927782" lon="121.00090687316661"><ele>7.0</ele><time>2026-03-28T09:13:45Z</time></trkpt><trkpt lat="14.563837907709154" lon="121.00094921840729"><ele>7.000000000000001</ele><time>2026-03-28T09:13:51Z</time></trkpt><trkpt lat="14.563909269262368" lon="121.00101431157174"><ele>7.0</ele><time>2026-03-28T09:13:54Z</time></trkpt><trkpt lat="14.563985062046786" lon="121.0010904419531"><ele>7.166666666666667</ele><time>2026-03-28T09:13:56Z</time></trkpt><trkpt lat="14.564087667311071" lon="121.00118222150535"><ele>7.333333333333334</ele><time>2026-03-28T09:13:58Z</time></trkpt><trkpt lat="14.56413594035939" lon="121.00123394458797"><ele>7.5</ele><time>2026-03-28T09:13:59Z</time></trkpt><trkpt lat="14.564191240640072" lon="121.00128802506927"><ele>7.666666666666666</ele><time>2026-03-28T09:14:00Z</time></trkpt><trkpt lat="14.564240688630175" lon="121.00133865985714"><ele>7.833333333333333</ele><time>2026-03-28T09:14:01Z</time></trkpt><trkpt lat="14.564302951628486" lon="121.00139651593526"><ele>8.0</ele><time>2026-03-28T09:14:02Z</time></trkpt><trkpt lat="14.564355747484875" lon="121.00145593149466"><ele>7.999999999999999</ele><time>2026-03-28T09:14:03Z</time></trkpt><trkpt lat="14.56442113184821" lon="121.00151996617649"><ele>8.0</ele><time>2026-03-28T09:14:04Z</time></trkpt><trkpt lat="14.564487755048972" lon="121.00158016046618"><ele>8.0</ele><time>2026-03-28T09:14:05Z</time></trkpt><trkpt lat="14.564550599411158" lon="121.00165384762528"><ele>8.0</ele><time>2026-03-28T09:14:06Z</time></trkpt><trkpt lat="14.564602537487879" lon="121.00171074498361"><ele>7.999999999999999</ele><time>2026-03-28T09:14:07Z</time></trkpt><trkpt lat="14.564651328557444" lon="121.0017712420415"><ele>8.0</ele><time>2026-03-28T09:14:08Z</time></trkpt><trkpt lat="14.564704773813771" lon="121.0018155159811"><ele>7.6000000000000005</ele><time>2026-03-28T09:14:09Z</time></trkpt><trkpt lat="14.564752478538251" lon="121.00185910658563"><ele>7.200000000000001</ele><time>2026-03-28T09:14:10Z</time></trkpt><trkpt lat="14.564842114517553" lon="121.00196393335655"><ele>6.8</ele><time>2026-03-28T09:14:12Z</time></trkpt><trkpt lat="14.564880260717507" lon="121.00202047778613"><ele>6.4</ele><time>2026-03-28T09:14:13Z</time></trkpt><trkpt lat="14.564966747955845" lon="121.00209113469425"><ele>6.0</ele><time>2026-03-28T09:14:15Z</time></trkpt><trkpt lat="14.56504202468865" lon="121.00217067061848"><ele>6.0</ele><time>2026-03-28T09:14:17Z</time></trkpt><trkpt lat="14.565114437569743" lon="121.00225547448277"><ele>6.0</ele><time>2026-03-28T09:14:19Z</time></trkpt><trkpt lat="14.565201201300106" lon="121.00230058058806"><ele>6.0</ele><time>2026-03-28T09:14:21Z</time></trkpt><trkpt lat="14.565249728266798" lon="121.0023456130715"><ele>6.0</ele><time>2026-03-28T09:14:23Z</time></trkpt><trkpt lat="14.565312969377853" lon="121.0023964061367"><ele>6.0</ele><time>2026-03-28T09:14:28Z</time></trkpt><trkpt lat="14.565363772172347" lon="121.00245184747729"><ele>6.0</ele><time>2026-03-28T09:15:04Z</time></trkpt><trkpt lat="14.565413221453676" lon="121.00249433897336"><ele>6.333333333333333</ele><time>2026-03-28T09:15:07Z</time></trkpt><trkpt lat="14.565475554677606" lon="121.00255078527917"><ele>6.666666666666666</ele><time>2026-03-28T09:15:10Z</time></trkpt><trkpt lat="14.565533580529353" lon="121.00260295634223"><ele>7.0</ele><time>2026-03-28T09:15:12Z</time></trkpt><trkpt lat="14.565573065937022" lon="121.00267152299516"><ele>7.333333333333333</ele><time>2026-03-28T09:15:16Z</time></trkpt><trkpt lat="14.565623687924578" lon="121.00273149933649"><ele>7.666666666666666</ele><time>2026-03-28T09:15:20Z</time></trkpt><trkpt lat="14.565669586802189" lon="121.00278675004378"><ele>8.0</ele><time>2026-03-28T09:15:22Z</time></trkpt><trkpt lat="14.565741886790606" lon="121.00283806769315"><ele>7.999999999999999</ele><time>2026-03-28T09:15:26Z</time></trkpt><trkpt lat="14.565793515834502" lon="121.00288539060054"><ele>8.0</ele><time>2026-03-28T09:15:28Z</time></trkpt><trkpt lat="14.56577929245559" lon="121.00295135324853"><ele>8.0</ele><time>2026-03-28T09:15:30Z</time></trkpt><trkpt lat="14.565779675095559" lon="121.00303599266996"><ele>8.0</ele><time>2026-03-28T09:15:33Z</time></trkpt><trkpt lat="14.565740079517376" lon="121.0030959531091"><ele>7.999999999999999</ele><time>2026-03-28T09:15:35Z</time></trkpt><trkpt lat="14.56568586416818" lon="121.0031738297721"><ele>8.0</ele><time>2026-03-28T09:15:37Z</time></trkpt><trkpt lat="14.56560141388467" lon="121.00327085794936"><ele>8.0</ele><time>2026-03-28T09:15:39Z</time></trkpt><trkpt lat="14.565542545650326" lon="121.00330794798977"><ele>8.0</ele><time>2026-03-28T09:15:40Z</time></trkpt><trkpt lat="14.565483606584229" lon="121.00334480237194"><ele>8.0</ele><time>2026-03-28T09:15:41Z</time></trkpt><trkpt lat="14.56541001131131" lon="121.00337228883089"><ele>8.0</ele><time>2026-03-28T09:15:45Z</time></trkpt><trkpt lat="14.55861453899607" lon="121.00675916310493"><ele>8.25</ele><time>2026-03-28T09:16:41Z</time></trkpt><trkpt lat="14.558485743126623" lon="121.00684869724388"><ele>8.5</ele><time>2026-03-28T09:16:42Z</time></trkpt><trkpt lat="14.558448486370803" lon="121.00693651670441"><ele>8.75</ele><time>2026-03-28T09:16:43Z</time></trkpt><trkpt lat="14.558346839656462" lon="121.00700284225896"><ele>9.0</ele><time>2026-03-28T09:16:44Z</time></trkpt><trkpt lat="14.558198669228329" lon="121.00707963871554"><ele>9.0</ele><time>2026-03-28T09:16:45Z</time></trkpt><trkpt lat="14.558077645825605" lon="121.00712702520798"><ele>9.0</ele><time>2026-03-28T09:16:49Z</time></trkpt><trkpt lat="14.55797388972356" lon="121.00712858167867"><ele>9.0</ele><time>2026-03-28T09:16:50Z</time></trkpt><trkpt lat="14.557760203340788" lon="121.00716950455228"><ele>8.666666666666666</ele><time>2026-03-28T09:16:54Z</time></trkpt><trkpt lat="14.557732479921485" lon="121.00730466452563"><ele>8.333333333333332</ele><time>2026-03-28T09:16:55Z</time></trkpt><trkpt lat="14.557733375492854" lon="121.00758978588411"><ele>8.0</ele><time>2026-03-28T09:16:56Z</time></trkpt><trkpt lat="14.55766288787547" lon="121.00763363943335"><ele>7.800000000000001</ele><time>2026-03-28T09:16:57Z</time></trkpt><trkpt lat="14.557605114481884" lon="121.00766676291384"><ele>7.6000000000000005</ele><time>2026-03-28T09:16:58Z</time></trkpt><trkpt lat="14.557474936646726" lon="121.00768366662969"><ele>7.3999999999999995</ele><time>2026-03-28T09:16:59Z</time></trkpt><trkpt lat="14.557430013558175" lon="121.0077742877428"><ele>7.199999999999999</ele><time>2026-03-28T09:17:00Z</time></trkpt><trkpt lat="14.557323415660589" lon="121.00778077610178"><ele>7.0</ele><time>2026-03-28T09:17:01Z</time></trkpt><trkpt lat="14.557179447418395" lon="121.00782370908108"><ele>7.0</ele><time>2026-03-28T09:17:02Z</time></trkpt><trkpt lat="14.557112480726346" lon="121.00786003306061"><ele>7.0</ele><time>2026-03-28T09:17:03Z</time></trkpt><trkpt lat="14.557036680160312" lon="121.0079004607493"><ele>7.0</ele><time>2026-03-28T09:17:04Z</time></trkpt><trkpt lat="14.556887662894473" lon="121.00782351217855"><ele>7.0</ele><time>2026-03-28T09:17:05Z</time></trkpt><trkpt lat="14.556867499098482" lon="121.008001289524"><ele>6.6</ele><time>2026-03-28T09:17:06Z</time></trkpt><trkpt lat="14.556726403843186" lon="121.00801074591249"><ele>6.199999999999999</ele><time>2026-03-28T09:17:07Z</time></trkpt><trkpt lat="14.556640550365895" lon="121.00805614609862"><ele>5.8</ele><time>2026-03-28T09:17:08Z</time></trkpt><trkpt lat="14.556560675638924" lon="121.00811030383028"><ele>5.4</ele><time>2026-03-28T09:17:09Z</time></trkpt><trkpt lat="14.556480069930783" lon="121.00816552008746"><ele>5.0</ele><time>2026-03-28T09:17:10Z</time></trkpt><trkpt lat="14.556391751331505" lon="121.00821566178365"><ele>5.0</ele><time>2026-03-28T09:17:11Z</time></trkpt><trkpt lat="14.556288382515685" lon="121.0081517638533"><ele>5.0</ele><time>2026-03-28T09:17:12Z</time></trkpt><trkpt lat="14.5562683946399" lon="121.00831188322448"><ele>5.0</ele><time>2026-03-28T09:17:13Z</time></trkpt><trkpt lat="14.556169514244045" lon="121.00832826341357"><ele>5.0</ele><time>2026-03-28T09:17:14Z</time></trkpt><trkpt lat="14.556073377977759" lon="121.00838015627268"><ele>5.5</ele><time>2026-03-28T09:17:15Z</time></trkpt><trkpt lat="14.55600223330714" lon="121.00842830031108"><ele>6.0</ele><time>2026-03-28T09:17:16Z</time></trkpt><trkpt lat="14.555908074041055" lon="121.00845698761539"><ele>6.5</ele><time>2026-03-28T09:17:17Z</time></trkpt><trkpt lat="14.555831447927892" lon="121.00849765709069"><ele>7.0</ele><time>2026-03-28T09:17:18Z</time></trkpt><trkpt lat="14.555735350342749" lon="121.0084822544507"><ele>7.499999999999999</ele><time>2026-03-28T09:17:19Z</time></trkpt><trkpt lat="14.55566283929096" lon="121.00851689652573"><ele>8.0</ele><time>2026-03-28T09:17:20Z</time></trkpt><trkpt lat="14.555573936619998" lon="121.00854594855718"><ele>7.999999999999999</ele><time>2026-03-28T09:17:21Z</time></trkpt><trkpt lat="14.555493741545899" lon="121.00857853076486"><ele>8.0</ele><time>2026-03-28T09:17:22Z</time></trkpt><trkpt lat="14.555416914450744" lon="121.00861628491313"><ele>8.0</ele><time>2026-03-28T09:17:23Z</time></trkpt><trkpt lat="14.555339951362537" lon="121.00865397071964"><ele>8.0</ele><time>2026-03-28T09:17:24Z</time></trkpt><trkpt lat="14.555260871009805" lon="121.00869307185177"><ele>7.999999999999999</ele><time>2026-03-28T09:17:25Z</time></trkpt><trkpt lat="14.555180141264712" lon="121.008733530399"><ele>8.0</ele><time>2026-03-28T09:17:26Z</time></trkpt><trkpt lat="14.555098740229454" lon="121.00877300079466"><ele>7.4</ele><time>2026-03-28T09:17:27Z</time></trkpt><trkpt lat="14.555006839692856" lon="121.00881366027913"><ele>6.800000000000001</ele><time>2026-03-28T09:17:28Z</time></trkpt><trkpt lat="14.554920499797229" lon="121.0088557271785"><ele>6.2</ele><time>2026-03-28T09:17:29Z</time></trkpt><trkpt lat="14.554839223546807" lon="121.00889714021721"><ele>5.6</ele><time>2026-03-28T09:17:30Z</time></trkpt><trkpt lat="14.554719352916125" lon="121.0089531561772"><ele>5.0</ele><time>2026-03-28T09:17:31Z</time></trkpt><trkpt lat="14.554630919113459" lon="121.00899745229462"><ele>5.333333333333334</ele><time>2026-03-28T09:17:32Z</time></trkpt><trkpt lat="14.554534525392977" lon="121.00904512307874"><ele>5.666666666666667</ele><time>2026-03-28T09:17:33Z</time></trkpt><trkpt lat="14.55444739217715" lon="121.00908919152347"><ele>6.0</ele><time>2026-03-28T09:17:34Z</time></trkpt><trkpt lat="14.55437625141002" lon="121.00913722388817"><ele>6.333333333333334</ele><time>2026-03-28T09:17:35Z</time></trkpt><trkpt lat="14.554305881887931" lon="121.0091704944728"><ele>6.666666666666667</ele><time>2026-03-28T09:17:36Z</time></trkpt><trkpt lat="14.554248675415081" lon="121.00919829370078"><ele>7.0</ele><time>2026-03-28T09:17:37Z</time></trkpt><trkpt lat="14.554132407001077" lon="121.00925614063684"><ele>7.0</ele><time>2026-03-28T09:17:39Z</time></trkpt><trkpt lat="14.553761287716984" lon="121.00951606837127"><ele>7.0</ele><time>2026-03-28T09:17:41.024Z</time></trkpt><trkpt lat="14.54181900714947" lon="121.01597892131751"><ele>8.333333333333334</ele><time>2026-03-28T09:22:05Z</time></trkpt><trkpt lat="14.54171695243623" lon="121.01602690979959"><ele>9.666666666666666</ele><time>2026-03-28T09:22:06Z</time></trkpt><trkpt lat="14.54145465805835" lon="121.01619941035558"><ele>11.0</ele><time>2026-03-28T09:22:07Z</time></trkpt><trkpt lat="14.541403852372717" lon="121.01613151963119"><ele>11.0</ele><time>2026-03-28T09:22:08Z</time></trkpt><trkpt lat="14.541276815845045" lon="121.01618291270469"><ele>11.0</ele><time>2026-03-28T09:22:09Z</time></trkpt><trkpt lat="14.54117169164433" lon="121.01621583432437"><ele>11.0</ele><time>2026-03-28T09:22:10Z</time></trkpt><trkpt lat="14.54107694588747" lon="121.01625358354555"><ele>11.0</ele><time>2026-03-28T09:22:11Z</time></trkpt><trkpt lat="14.540980027740034" lon="121.01628281694352"><ele>11.0</ele><time>2026-03-28T09:22:12Z</time></trkpt><trkpt lat="14.540888873030491" lon="121.016318225238"><ele>11.200000000000001</ele><time>2026-03-28T09:22:13Z</time></trkpt><trkpt lat="14.540780185011824" lon="121.01634525901456"><ele>11.4</ele><time>2026-03-28T09:22:14Z</time></trkpt><trkpt lat="14.540696811975623" lon="121.01637990056547"><ele>11.6</ele><time>2026-03-28T09:22:15Z</time></trkpt><trkpt lat="14.54061466324621" lon="121.01640776007254"><ele>11.8</ele><time>2026-03-28T09:22:16Z</time></trkpt><trkpt lat="14.540505510664245" lon="121.0164915111791"><ele>12.0</ele><time>2026-03-28T09:22:18Z</time></trkpt><trkpt lat="14.540424389688614" lon="121.01651896549821"><ele>12.0</ele><time>2026-03-28T09:22:19Z</time></trkpt><trkpt lat="14.54034251379206" lon="121.01655749924647"><ele>12.0</ele><time>2026-03-28T09:22:20Z</time></trkpt><trkpt lat="14.540264964309934" lon="121.01659495060942"><ele>12.0</ele><time>2026-03-28T09:22:21Z</time></trkpt><trkpt lat="14.54018694512991" lon="121.01663169970902"><ele>12.0</ele><time>2026-03-28T09:22:22.015Z</time></trkpt><trkpt lat="14.540110119376266" lon="121.01666848146418"><ele>12.0</ele><time>2026-03-28T09:22:23.017Z</time></trkpt><trkpt lat="14.540034732613904" lon="121.0167047298008"><ele>12.0</ele><time>2026-03-28T09:22:24Z</time></trkpt><trkpt lat="14.539933986401419" lon="121.01677229881791"><ele>11.8</ele><time>2026-03-28T09:22:25Z</time></trkpt><trkpt lat="14.539850539476026" lon="121.01683394491081"><ele>11.6</ele><time>2026-03-28T09:22:26Z</time></trkpt><trkpt lat="14.539793781766841" lon="121.01689104770286"><ele>11.4</ele><time>2026-03-28T09:22:27Z</time></trkpt><trkpt lat="14.539722884368397" lon="121.01693805193155"><ele>11.200000000000001</ele><time>2026-03-28T09:22:28Z</time></trkpt><trkpt lat="14.539657027191781" lon="121.01694860592482"><ele>11.0</ele><time>2026-03-28T09:22:29Z</time></trkpt><trkpt lat="14.53955720115274" lon="121.01703875504688"><ele>11.333333333333332</ele><time>2026-03-28T09:22:31Z</time></trkpt><trkpt lat="14.539503667711108" lon="121.01709175715385"><ele>11.666666666666666</ele><time>2026-03-28T09:22:32Z</time></trkpt><trkpt lat="14.539437958077547" lon="121.01713331038249"><ele>12.0</ele><time>2026-03-28T09:22:33Z</time></trkpt><trkpt lat="14.539384513468178" lon="121.01718098401146"><ele>12.333333333333332</ele><time>2026-03-28T09:22:34Z</time></trkpt><trkpt lat="14.539313462017292" lon="121.01722483679067"><ele>12.666666666666666</ele><time>2026-03-28T09:22:35Z</time></trkpt><trkpt lat="14.53926670895417" lon="121.01729417454035"><ele>13.0</ele><time>2026-03-28T09:22:36Z</time></trkpt><trkpt lat="14.539219023557706" lon="121.01733885174171"><ele>13.0</ele><time>2026-03-28T09:22:37Z</time></trkpt><trkpt lat="14.539168873603643" lon="121.01738635162853"><ele>13.0</ele><time>2026-03-28T09:22:38Z</time></trkpt><trkpt lat="14.539078827817939" lon="121.01744992673923"><ele>13.0</ele><time>2026-03-28T09:22:40Z</time></trkpt><trkpt lat="14.539029744626948" lon="121.01749099984724"><ele>13.0</ele><time>2026-03-28T09:22:41Z</time></trkpt><trkpt lat="14.538939662753265" lon="121.01755771898236"><ele>13.0</ele><time>2026-03-28T09:22:43Z</time></trkpt><trkpt lat="14.538830675387018" lon="121.01762727236408"><ele>12.600000000000001</ele><time>2026-03-28T09:22:45Z</time></trkpt><trkpt lat="14.538745308208279" lon="121.01768108448908"><ele>12.200000000000001</ele><time>2026-03-28T09:22:46Z</time></trkpt><trkpt lat="14.538667515440979" lon="121.01771662138121"><ele>11.8</ele><time>2026-03-28T09:22:47Z</time></trkpt><trkpt lat="14.538575235559005" lon="121.01773388430175"><ele>11.4</ele><time>2026-03-28T09:22:48Z</time></trkpt><trkpt lat="14.538494322211218" lon="121.0177707806295"><ele>11.0</ele><time>2026-03-28T09:22:49Z</time></trkpt><trkpt lat="14.53840431482416" lon="121.0178181196758"><ele>11.0</ele><time>2026-03-28T09:22:50Z</time></trkpt><trkpt lat="14.538329157133902" lon="121.01786274982783"><ele>11.0</ele><time>2026-03-28T09:22:51Z</time></trkpt><trkpt lat="14.538223593458676" lon="121.01790079088146"><ele>11.0</ele><time>2026-03-28T09:22:52Z</time></trkpt><trkpt lat="14.53813283820141" lon="121.01797064056228"><ele>11.0</ele><time>2026-03-28T09:22:53Z</time></trkpt><trkpt lat="14.53802663699441" lon="121.01802193103127"><ele>11.0</ele><time>2026-03-28T09:22:54Z</time></trkpt><trkpt lat="14.537920519070864" lon="121.01809342466414"><ele>10.25</ele><time>2026-03-28T09:22:55Z</time></trkpt><trkpt lat="14.537807462194454" lon="121.01817327786263"><ele>9.5</ele><time>2026-03-28T09:22:56Z</time></trkpt><trkpt lat="14.537718657974803" lon="121.0182245638752"><ele>8.75</ele><time>2026-03-28T09:22:57Z</time></trkpt><trkpt lat="14.53762333714508" lon="121.01825652050806"><ele>8.0</ele><time>2026-03-28T09:22:58Z</time></trkpt><trkpt lat="14.53751666876445" lon="121.0183138622936"><ele>8.600000000000001</ele><time>2026-03-28T09:22:59Z</time></trkpt><trkpt lat="14.537413163683743" lon="121.01837091009692"><ele>9.200000000000001</ele><time>2026-03-28T09:23:00Z</time></trkpt><trkpt lat="14.537320441320944" lon="121.01841976953585"><ele>9.8</ele><time>2026-03-28T09:23:01Z</time></trkpt><trkpt lat="14.53722028358986" lon="121.01847033083887"><ele>10.4</ele><time>2026-03-28T09:23:02Z</time></trkpt><trkpt lat="14.537126908746776" lon="121.01851158683546"><ele>11.0</ele><time>2026-03-28T09:23:03Z</time></trkpt><trkpt lat="14.5370287453307" lon="121.01856785193891"><ele>11.0</ele><time>2026-03-28T09:23:04Z</time></trkpt><trkpt lat="14.536924120037163" lon="121.01862557391706"><ele>11.0</ele><time>2026-03-28T09:23:05Z</time></trkpt><trkpt lat="14.536813822115736" lon="121.01867807155759"><ele>11.0</ele><time>2026-03-28T09:23:06Z</time></trkpt><trkpt lat="14.536704532683771" lon="121.01874628804633"><ele>11.0</ele><time>2026-03-28T09:23:07Z</time></trkpt><trkpt lat="14.536602652609963" lon="121.01880310075275"><ele>11.0</ele><time>2026-03-28T09:23:08Z</time></trkpt><trkpt lat="14.53650152853867" lon="121.01886864730021"><ele>11.0</ele><time>2026-03-28T09:23:09Z</time></trkpt><trkpt lat="14.536399649894292" lon="121.01895559465667"><ele>11.0</ele><time>2026-03-28T09:23:10Z</time></trkpt><trkpt lat="14.536290415042846" lon="121.01904744638205"><ele>11.0</ele><time>2026-03-28T09:23:11Z</time></trkpt><trkpt lat="14.536182417046989" lon="121.01916267099436"><ele>12.0</ele><time>2026-03-28T09:23:12Z</time></trkpt><trkpt lat="14.536082540580429" lon="121.0192640993031"><ele>13.0</ele><time>2026-03-28T09:23:13Z</time></trkpt><trkpt lat="14.53593535207631" lon="121.01934972672183"><ele>14.0</ele><time>2026-03-28T09:23:14Z</time></trkpt><trkpt lat="14.535818435761644" lon="121.01943020130174"><ele>15.0</ele><time>2026-03-28T09:23:15Z</time></trkpt><trkpt lat="14.535697416216225" lon="121.01951344494819"><ele>15.0</ele><time>2026-03-28T09:23:16Z</time></trkpt><trkpt lat="14.535586483473697" lon="121.0195915637886"><ele>15.0</ele><time>2026-03-28T09:23:17Z</time></trkpt><trkpt lat="14.53547608685295" lon="121.01966901085932"><ele>15.0</ele><time>2026-03-28T09:23:18Z</time></trkpt><trkpt lat="14.535367032545933" lon="121.01974539585984"><ele>15.0</ele><time>2026-03-28T09:23:19Z</time></trkpt><trkpt lat="14.535258867288608" lon="121.01982367095884"><ele>14.5</ele><time>2026-03-28T09:23:20Z</time></trkpt><trkpt lat="14.535152208083991" lon="121.01990155146889"><ele>14.0</ele><time>2026-03-28T09:23:21Z</time></trkpt><trkpt lat="14.535045971079368" lon="121.01997908503223"><ele>13.5</ele><time>2026-03-28T09:23:22Z</time></trkpt><trkpt lat="14.534937786771017" lon="121.02005654824565"><ele>13.0</ele><time>2026-03-28T09:23:23Z</time></trkpt><trkpt lat="14.534826384563019" lon="121.02013594012018"><ele>13.0</ele><time>2026-03-28T09:23:24Z</time></trkpt><trkpt lat="14.534719892552545" lon="121.02021024582425"><ele>13.0</ele><time>2026-03-28T09:23:25Z</time></trkpt><trkpt lat="14.534617387468916" lon="121.02028830363054"><ele>13.0</ele><time>2026-03-28T09:23:26Z</time></trkpt><trkpt lat="14.534512689192184" lon="121.02036636117198"><ele>13.0</ele><time>2026-03-28T09:23:27Z</time></trkpt><trkpt lat="14.53440811308652" lon="121.0204435796323"><ele>14.0</ele><time>2026-03-28T09:23:28Z</time></trkpt><trkpt lat="14.534305125841806" lon="121.02050997038849"><ele>15.0</ele><time>2026-03-28T09:23:29Z</time></trkpt><trkpt lat="14.534197206768447" lon="121.02059190722709"><ele>16.0</ele><time>2026-03-28T09:23:30Z</time></trkpt><trkpt lat="14.533425518359158" lon="121.0203676591237"><ele>16.25</ele><time>2026-03-28T09:23:31Z</time></trkpt><trkpt lat="14.533259229165703" lon="121.02046176591202"><ele>16.5</ele><time>2026-03-28T09:23:32Z</time></trkpt><trkpt lat="14.533123837071248" lon="121.02053007289874"><ele>16.75</ele><time>2026-03-28T09:23:33Z</time></trkpt><trkpt lat="14.5330423281895" lon="121.02055588774076"><ele>17.0</ele><time>2026-03-28T09:23:34Z</time></trkpt><trkpt lat="14.532923844455036" lon="121.02061221622371"><ele>15.5</ele><time>2026-03-28T09:23:35Z</time></trkpt><trkpt lat="14.532795799062344" lon="121.02067308996666"><ele>14.0</ele><time>2026-03-28T09:23:36.017Z</time></trkpt><trkpt lat="14.526135292849062" lon="121.02444875065332"><ele>10.5</ele><time>2026-03-28T09:24:33Z</time></trkpt><trkpt lat="14.526014483178566" lon="121.02450833964797"><ele>7.0</ele><time>2026-03-28T09:24:34Z</time></trkpt><trkpt lat="14.525674951651702" lon="121.02468782041154"><ele>7.0</ele><time>2026-03-28T09:24:35Z</time></trkpt><trkpt lat="14.525563124486093" lon="121.02476401947023"><ele>7.0</ele><time>2026-03-28T09:24:36Z</time></trkpt><trkpt lat="14.525446896843976" lon="121.02483606365604"><ele>7.0</ele><time>2026-03-28T09:24:37Z</time></trkpt><trkpt lat="14.525306909604348" lon="121.0249042762724"><ele>7.0</ele><time>2026-03-28T09:24:38Z</time></trkpt><trkpt lat="14.525169746225455" lon="121.02498247828808"><ele>8.333333333333334</ele><time>2026-03-28T09:24:39Z</time></trkpt><trkpt lat="14.525041036016566" lon="121.02505717150986"><ele>9.666666666666666</ele><time>2026-03-28T09:24:40Z</time></trkpt><trkpt lat="14.52490998724327" lon="121.02511995330266"><ele>11.0</ele><time>2026-03-28T09:24:41Z</time></trkpt><trkpt lat="14.524763591470428" lon="121.02520575547501"><ele>11.0</ele><time>2026-03-28T09:24:42Z</time></trkpt><trkpt lat="14.52465464618089" lon="121.02526078385166"><ele>11.0</ele><time>2026-03-28T09:24:43Z</time></trkpt><trkpt lat="14.524505648509287" lon="121.02535742370615"><ele>11.0</ele><time>2026-03-28T09:24:44Z</time></trkpt><trkpt lat="14.524370550581944" lon="121.02542346863073"><ele>11.0</ele><time>2026-03-28T09:24:45Z</time></trkpt><trkpt lat="14.524223154691246" lon="121.02551508382861"><ele>12.333333333333332</ele><time>2026-03-28T09:24:46Z</time></trkpt><trkpt lat="14.524084098752807" lon="121.02559622405506"><ele>13.666666666666666</ele><time>2026-03-28T09:24:47Z</time></trkpt><trkpt lat="14.523945587515033" lon="121.02567552971199"><ele>15.0</ele><time>2026-03-28T09:24:48Z</time></trkpt><trkpt lat="14.523805248108753" lon="121.0257539948385"><ele>15.333333333333332</ele><time>2026-03-28T09:24:49Z</time></trkpt><trkpt lat="14.523637747793284" lon="121.0258744223971"><ele>15.666666666666666</ele><time>2026-03-28T09:24:50Z</time></trkpt><trkpt lat="14.523486850724362" lon="121.02596123637117"><ele>16.0</ele><time>2026-03-28T09:24:51Z</time></trkpt><trkpt lat="14.52332437481734" lon="121.0260169782986"><ele>16.0</ele><time>2026-03-28T09:24:52Z</time></trkpt><trkpt lat="14.523163632045918" lon="121.02608588579203"><ele>16.0</ele><time>2026-03-28T09:24:53Z</time></trkpt><trkpt lat="14.52301759747557" lon="121.02615349404314"><ele>16.0</ele><time>2026-03-28T09:24:54Z</time></trkpt><trkpt lat="14.522861616230633" lon="121.02621522575137"><ele>15.333333333333332</ele><time>2026-03-28T09:24:55Z</time></trkpt><trkpt lat="14.522687184908492" lon="121.02627626392491"><ele>14.666666666666668</ele><time>2026-03-28T09:24:56Z</time></trkpt><trkpt lat="14.522532054090478" lon="121.02635473814591"><ele>14.0</ele><time>2026-03-28T09:24:57Z</time></trkpt><trkpt lat="14.52235909499721" lon="121.02641456904708"><ele>14.0</ele><time>2026-03-28T09:24:58Z</time></trkpt><trkpt lat="14.5221552662479" lon="121.02648695387529"><ele>14.0</ele><time>2026-03-28T09:24:59Z</time></trkpt><trkpt lat="14.521979403909771" lon="121.02656175931075"><ele>14.0</ele><time>2026-03-28T09:25:00Z</time></trkpt><trkpt lat="14.521807243026506" lon="121.02662494708554"><ele>14.666666666666668</ele><time>2026-03-28T09:25:01Z</time></trkpt><trkpt lat="14.521642701092281" lon="121.02668233078856"><ele>15.333333333333332</ele><time>2026-03-28T09:25:02Z</time></trkpt><trkpt lat="14.521468657097676" lon="121.02674804084654"><ele>16.0</ele><time>2026-03-28T09:25:03Z</time></trkpt><trkpt lat="14.521301203853195" lon="121.0268120155825"><ele>16.0</ele><time>2026-03-28T09:25:04Z</time></trkpt><trkpt lat="14.521127320286007" lon="121.02687818314637"><ele>16.0</ele><time>2026-03-28T09:25:05Z</time></trkpt><trkpt lat="14.52095769359351" lon="121.02694907600434"><ele>16.0</ele><time>2026-03-28T09:25:06Z</time></trkpt><trkpt lat="14.520788592934998" lon="121.0270275325845"><ele>16.0</ele><time>2026-03-28T09:25:07Z</time></trkpt><trkpt lat="14.520635405355518" lon="121.02710349923619"><ele>16.0</ele><time>2026-03-28T09:25:08Z</time></trkpt><trkpt lat="14.520471691989073" lon="121.02719042471118"><ele>16.0</ele><time>2026-03-28T09:25:09Z</time></trkpt><trkpt lat="14.520314205746782" lon="121.02727104464553"><ele>16.0</ele><time>2026-03-28T09:25:10Z</time></trkpt><trkpt lat="14.520152562333381" lon="121.02735779197141"><ele>16.0</ele><time>2026-03-28T09:25:11Z</time></trkpt><trkpt lat="14.5199904422509" lon="121.027437894905"><ele>16.0</ele><time>2026-03-28T09:25:12Z</time></trkpt><trkpt lat="14.519834553728396" lon="121.0275229528003"><ele>16.333333333333332</ele><time>2026-03-28T09:25:13Z</time></trkpt><trkpt lat="14.51967686967265" lon="121.02759967579044"><ele>16.666666666666668</ele><time>2026-03-28T09:25:14Z</time></trkpt><trkpt lat="14.519518622204691" lon="121.02768209189436"><ele>17.0</ele><time>2026-03-28T09:25:15Z</time></trkpt><trkpt lat="14.519363694630647" lon="121.02776732017199"><ele>17.0</ele><time>2026-03-28T09:25:16Z</time></trkpt><trkpt lat="14.51921017547609" lon="121.02784937109439"><ele>17.0</ele><time>2026-03-28T09:25:17Z</time></trkpt><trkpt lat="14.519053043209944" lon="121.02793268394149"><ele>17.0</ele><time>2026-03-28T09:25:18Z</time></trkpt><trkpt lat="14.518902015696636" lon="121.02801609991478"><ele>17.0</ele><time>2026-03-28T09:25:19Z</time></trkpt><trkpt lat="14.518754477836781" lon="121.02809628169852"><ele>17.0</ele><time>2026-03-28T09:25:20Z</time></trkpt><trkpt lat="14.518609675246996" lon="121.02817789984341"><ele>17.0</ele><time>2026-03-28T09:25:21Z</time></trkpt><trkpt lat="14.518460550313414" lon="121.02825987854601"><ele>18.333333333333336</ele><time>2026-03-28T09:25:22Z</time></trkpt><trkpt lat="14.51833142561708" lon="121.02833475278209"><ele>19.666666666666668</ele><time>2026-03-28T09:25:23Z</time></trkpt><trkpt lat="14.518199446797082" lon="121.02842045057253"><ele>21.0</ele><time>2026-03-28T09:25:24Z</time></trkpt><trkpt lat="14.518070870690618" lon="121.02851369240615"><ele>21.0</ele><time>2026-03-28T09:25:25Z</time></trkpt><trkpt lat="14.517942137386886" lon="121.02861021963143"><ele>21.0</ele><time>2026-03-28T09:25:26Z</time></trkpt><trkpt lat="14.517820339637955" lon="121.02870391712237"><ele>21.0</ele><time>2026-03-28T09:25:27Z</time></trkpt><trkpt lat="14.517694980289873" lon="121.0287948167943"><ele>21.666666666666668</ele><time>2026-03-28T09:25:28Z</time></trkpt><trkpt lat="14.517570956682366" lon="121.02888546638626"><ele>22.333333333333336</ele><time>2026-03-28T09:25:29Z</time></trkpt><trkpt lat="14.517449238078829" lon="121.02898436794571"><ele>23.0</ele><time>2026-03-28T09:25:30Z</time></trkpt><trkpt lat="14.51733026752749" lon="121.029077404065"><ele>22.5</ele><time>2026-03-28T09:25:31Z</time></trkpt><trkpt lat="14.517206381304028" lon="121.02916616970782"><ele>22.0</ele><time>2026-03-28T09:25:32Z</time></trkpt><trkpt lat="14.517091020251796" lon="121.02924409186471"><ele>21.5</ele><time>2026-03-28T09:25:33Z</time></trkpt><trkpt lat="14.516970065307735" lon="121.02933657772027"><ele>21.0</ele><time>2026-03-28T09:25:34Z</time></trkpt><trkpt lat="14.516858012417025" lon="121.02942652938945"><ele>22.0</ele><time>2026-03-28T09:25:35Z</time></trkpt><trkpt lat="14.5167415155334" lon="121.02950210884433"><ele>23.0</ele><time>2026-03-28T09:25:36Z</time></trkpt><trkpt lat="14.516629320481364" lon="121.02958945588946"><ele>24.0</ele><time>2026-03-28T09:25:37Z</time></trkpt><trkpt lat="14.516511973656343" lon="121.0296733211078"><ele>25.0</ele><time>2026-03-28T09:25:38Z</time></trkpt><trkpt lat="14.516382539166333" lon="121.02975336681143"><ele>25.0</ele><time>2026-03-28T09:25:39Z</time></trkpt><trkpt lat="14.51626325655551" lon="121.02983363971853"><ele>25.0</ele><time>2026-03-28T09:25:40Z</time></trkpt><trkpt lat="14.516136352403374" lon="121.02989423515415"><ele>25.0</ele><time>2026-03-28T09:25:41Z</time></trkpt><trkpt lat="14.51601190669377" lon="121.02995804632546"><ele>25.0</ele><time>2026-03-28T09:25:42Z</time></trkpt><trkpt lat="14.515897371556116" lon="121.03003011324512"><ele>24.0</ele><time>2026-03-28T09:25:43Z</time></trkpt><trkpt lat="14.515781018903748" lon="121.03009062552941"><ele>23.0</ele><time>2026-03-28T09:25:44Z</time></trkpt><trkpt lat="14.51566151178686" lon="121.03015221451699"><ele>22.0</ele><time>2026-03-28T09:25:45Z</time></trkpt><trkpt lat="14.515543563732374" lon="121.03021119817922"><ele>21.0</ele><time>2026-03-28T09:25:46Z</time></trkpt><trkpt lat="14.515424082159745" lon="121.03027366939565"><ele>21.75</ele><time>2026-03-28T09:25:47Z</time></trkpt><trkpt lat="14.515313965712446" lon="121.03033098718019"><ele>22.5</ele><time>2026-03-28T09:25:48Z</time></trkpt><trkpt lat="14.515199239806439" lon="121.0303904141779"><ele>23.25</ele><time>2026-03-28T09:25:49Z</time></trkpt><trkpt lat="14.515090935277119" lon="121.03044893438064"><ele>24.0</ele><time>2026-03-28T09:25:50Z</time></trkpt><trkpt lat="14.514975888223017" lon="121.03050781405864"><ele>24.0</ele><time>2026-03-28T09:25:51Z</time></trkpt><trkpt lat="14.51487128866926" lon="121.03056167179025"><ele>24.0</ele><time>2026-03-28T09:25:52Z</time></trkpt><trkpt lat="14.514759330022699" lon="121.03061998712936"><ele>24.0</ele><time>2026-03-28T09:25:53Z</time></trkpt><trkpt lat="14.514659043922622" lon="121.03067545013184"><ele>24.0</ele><time>2026-03-28T09:25:54Z</time></trkpt><trkpt lat="14.514551762752081" lon="121.03073376075449"><ele>24.0</ele><time>2026-03-28T09:25:55Z</time></trkpt><trkpt lat="14.514440101297367" lon="121.03079537476205"><ele>24.0</ele><time>2026-03-28T09:25:56Z</time></trkpt><trkpt lat="14.514328017154664" lon="121.03085445659109"><ele>24.0</ele><time>2026-03-28T09:25:57Z</time></trkpt><trkpt lat="14.51421150125175" lon="121.03091708159366"><ele>24.0</ele><time>2026-03-28T09:25:58Z</time></trkpt><trkpt lat="14.51409804116819" lon="121.03097828717256"><ele>24.0</ele><time>2026-03-28T09:25:59Z</time></trkpt><trkpt lat="14.513991222822371" lon="121.03103622418219"><ele>24.0</ele><time>2026-03-28T09:26:00Z</time></trkpt><trkpt lat="14.513884644944666" lon="121.03109164756194"><ele>24.0</ele><time>2026-03-28T09:26:01Z</time></trkpt><trkpt lat="14.513784161504162" lon="121.03114748631117"><ele>24.0</ele><time>2026-03-28T09:26:02Z</time></trkpt><trkpt lat="14.51368746265975" lon="121.03119877116055"><ele>23.666666666666668</ele><time>2026-03-28T09:26:03Z</time></trkpt><trkpt lat="14.513601743366499" lon="121.03124297133454"><ele>23.333333333333332</ele><time>2026-03-28T09:26:04Z</time></trkpt><trkpt lat="14.513527482845069" lon="121.03128295859624"><ele>23.0</ele><time>2026-03-28T09:26:05Z</time></trkpt><trkpt lat="14.513460081502464" lon="121.03132136607037"><ele>22.666666666666664</ele><time>2026-03-28T09:26:06Z</time></trkpt><trkpt lat="14.513370609211169" lon="121.03136853971908"><ele>22.333333333333332</ele><time>2026-03-28T09:26:08Z</time></trkpt><trkpt lat="14.513289762337495" lon="121.03141358800825"><ele>22.0</ele><time>2026-03-28T09:26:10Z</time></trkpt><trkpt lat="14.513216918207515" lon="121.03144940997"><ele>22.0</ele><time>2026-03-28T09:26:12Z</time></trkpt><trkpt lat="14.513152108057064" lon="121.03148210900365"><ele>22.0</ele><time>2026-03-28T09:26:15Z</time></trkpt><trkpt lat="14.513091429477598" lon="121.03152158896492"><ele>22.0</ele><time>2026-03-28T09:26:29Z</time></trkpt><trkpt lat="14.513025672576848" lon="121.0315593764344"><ele>22.0</ele><time>2026-03-28T09:26:32Z</time></trkpt><trkpt lat="14.512954531733898" lon="121.0315961959209"><ele>22.0</ele><time>2026-03-28T09:26:34Z</time></trkpt><trkpt lat="14.512860694767205" lon="121.03164551392798"><ele>22.0</ele><time>2026-03-28T09:26:36Z</time></trkpt><trkpt lat="14.512804492573656" lon="121.03167845952969"><ele>22.5</ele><time>2026-03-28T09:26:37Z</time></trkpt><trkpt lat="14.512739042540845" lon="121.03171528673413"><ele>23.0</ele><time>2026-03-28T09:26:38Z</time></trkpt><trkpt lat="14.512661986433207" lon="121.03173415270524"><ele>23.5</ele><time>2026-03-28T09:26:39Z</time></trkpt><trkpt lat="14.51258265839763" lon="121.03177646807592"><ele>24.0</ele><time>2026-03-28T09:26:40Z</time></trkpt><trkpt lat="14.512510937794476" lon="121.0318212997484"><ele>24.500000000000004</ele><time>2026-03-28T09:26:41Z</time></trkpt><trkpt lat="14.512416230297536" lon="121.03189096947067"><ele>25.0</ele><time>2026-03-28T09:26:42Z</time></trkpt><trkpt lat="14.512323006263856" lon="121.031954345344"><ele>25.0</ele><time>2026-03-28T09:26:43Z</time></trkpt><trkpt lat="14.512242606985637" lon="121.03199031652075"><ele>25.0</ele><time>2026-03-28T09:26:44Z</time></trkpt><trkpt lat="14.512145909399498" lon="121.03205297808708"><ele>25.0</ele><time>2026-03-28T09:26:45Z</time></trkpt><trkpt lat="14.512044253118136" lon="121.0321045680916"><ele>25.0</ele><time>2026-03-28T09:26:46Z</time></trkpt><trkpt lat="14.511941013200254" lon="121.03215448083678"><ele>25.0</ele><time>2026-03-28T09:26:47Z</time></trkpt><trkpt lat="14.511829153499049" lon="121.03220975028248"><ele>24.75</ele><time>2026-03-28T09:26:48Z</time></trkpt><trkpt lat="14.511712863069773" lon="121.03227106890792"><ele>24.5</ele><time>2026-03-28T09:26:49Z</time></trkpt><trkpt lat="14.511595449497495" lon="121.03233090986978"><ele>24.25</ele><time>2026-03-28T09:26:50Z</time></trkpt><trkpt lat="14.511473409193975" lon="121.032397192153"><ele>24.0</ele><time>2026-03-28T09:26:51Z</time></trkpt><trkpt lat="14.511350197625491" lon="121.03246548217459"><ele>24.75</ele><time>2026-03-28T09:26:52Z</time></trkpt><trkpt lat="14.511227755841663" lon="121.03253514937093"><ele>25.5</ele><time>2026-03-28T09:26:53Z</time></trkpt><trkpt lat="14.51110568753358" lon="121.03260035940518"><ele>26.25</ele><time>2026-03-28T09:26:54Z</time></trkpt><trkpt lat="14.510975684169786" lon="121.03267867736119"><ele>27.0</ele><time>2026-03-28T09:26:55Z</time></trkpt><trkpt lat="14.51084026374047" lon="121.03274852595854"><ele>27.0</ele><time>2026-03-28T09:26:56Z</time></trkpt><trkpt lat="14.510708567141933" lon="121.03282603184238"><ele>27.0</ele><time>2026-03-28T09:26:57Z</time></trkpt><trkpt lat="14.510584205861218" lon="121.03289235292189"><ele>27.0</ele><time>2026-03-28T09:26:58Z</time></trkpt><trkpt lat="14.510468800362267" lon="121.03294918644117"><ele>27.0</ele><time>2026-03-28T09:26:59Z</time></trkpt><trkpt lat="14.510352921492867" lon="121.03300670065626"><ele>26.5</ele><time>2026-03-28T09:27:00Z</time></trkpt><trkpt lat="14.510220859368811" lon="121.03307271259823"><ele>26.0</ele><time>2026-03-28T09:27:01Z</time></trkpt><trkpt lat="14.510091548687015" lon="121.03313399502112"><ele>25.5</ele><time>2026-03-28T09:27:02Z</time></trkpt><trkpt lat="14.509949449940425" lon="121.03320759551156"><ele>25.0</ele><time>2026-03-28T09:27:03Z</time></trkpt><trkpt lat="14.509798300657172" lon="121.03329081586692"><ele>24.333333333333336</ele><time>2026-03-28T09:27:04Z</time></trkpt><trkpt lat="14.509655215787303" lon="121.03336934133219"><ele>23.666666666666668</ele><time>2026-03-28T09:27:05Z</time></trkpt><trkpt lat="14.509481778921394" lon="121.03347035801328"><ele>23.0</ele><time>2026-03-28T09:27:06Z</time></trkpt><trkpt lat="14.50930199319506" lon="121.03357108653414"><ele>22.666666666666668</ele><time>2026-03-28T09:27:07Z</time></trkpt><trkpt lat="14.509141962030387" lon="121.03366311957737"><ele>22.333333333333332</ele><time>2026-03-28T09:27:08Z</time></trkpt><trkpt lat="14.508972799059881" lon="121.03375952203348"><ele>22.0</ele><time>2026-03-28T09:27:09Z</time></trkpt><trkpt lat="14.508802530918683" lon="121.03385507190902"><ele>21.666666666666664</ele><time>2026-03-28T09:27:10Z</time></trkpt><trkpt lat="14.508634108035091" lon="121.03394772337387"><ele>21.333333333333332</ele><time>2026-03-28T09:27:11Z</time></trkpt><trkpt lat="14.508464832428595" lon="121.03404069149938"><ele>21.0</ele><time>2026-03-28T09:27:12Z</time></trkpt><trkpt lat="14.50829916781071" lon="121.03412825833006"><ele>20.333333333333332</ele><time>2026-03-28T09:27:13Z</time></trkpt><trkpt lat="14.508135884853177" lon="121.03421674951274"><ele>19.666666666666664</ele><time>2026-03-28T09:27:14Z</time></trkpt><trkpt lat="14.507970704322052" lon="121.03430618121808"><ele>19.0</ele><time>2026-03-28T09:27:15Z</time></trkpt><trkpt lat="14.507807329816936" lon="121.03439471361988"><ele>18.666666666666664</ele><time>2026-03-28T09:27:16Z</time></trkpt><trkpt lat="14.50763857831551" lon="121.03448259287077"><ele>18.333333333333332</ele><time>2026-03-28T09:27:17Z</time></trkpt><trkpt lat="14.507475926154898" lon="121.03456972760074"><ele>18.0</ele><time>2026-03-28T09:27:18Z</time></trkpt><trkpt lat="14.507305833572419" lon="121.03465522926864"><ele>18.0</ele><time>2026-03-28T09:27:19Z</time></trkpt><trkpt lat="14.507136132225918" lon="121.03473790075472"><ele>18.0</ele><time>2026-03-28T09:27:20Z</time></trkpt><trkpt lat="14.50696699956988" lon="121.03482996499476"><ele>18.0</ele><time>2026-03-28T09:27:21Z</time></trkpt><trkpt lat="14.506795218766216" lon="121.03491733680731"><ele>18.333333333333332</ele><time>2026-03-28T09:27:22Z</time></trkpt><trkpt lat="14.50662660094059" lon="121.03500857409728"><ele>18.666666666666664</ele><time>2026-03-28T09:27:23Z</time></trkpt><trkpt lat="14.506463533009237" lon="121.03509307216378"><ele>19.0</ele><time>2026-03-28T09:27:24Z</time></trkpt><trkpt lat="14.50629357728166" lon="121.03517436507079"><ele>17.666666666666664</ele><time>2026-03-28T09:27:25Z</time></trkpt><trkpt lat="14.506136101707646" lon="121.0352609533527"><ele>16.333333333333332</ele><time>2026-03-28T09:27:26Z</time></trkpt><trkpt lat="14.505978556507587" lon="121.0353456248055"><ele>15.0</ele><time>2026-03-28T09:27:27Z</time></trkpt><trkpt lat="14.50581958783473" lon="121.03543147046499"><ele>15.0</ele><time>2026-03-28T09:27:28Z</time></trkpt><trkpt lat="14.50566190187666" lon="121.03551656485011"><ele>15.0</ele><time>2026-03-28T09:27:29Z</time></trkpt><trkpt lat="14.505500975014634" lon="121.03560287926835"><ele>15.0</ele><time>2026-03-28T09:27:30Z</time></trkpt><trkpt lat="14.505340267149268" lon="121.03568651563617"><ele>15.0</ele><time>2026-03-28T09:27:31Z</time></trkpt><trkpt lat="14.505185137038007" lon="121.03576763569335"><ele>15.0</ele><time>2026-03-28T09:27:32Z</time></trkpt><trkpt lat="14.505033173621822" lon="121.03584503879364"><ele>15.0</ele><time>2026-03-28T09:27:33Z</time></trkpt><trkpt lat="14.5048784504854" lon="121.035926208608"><ele>16.333333333333332</ele><time>2026-03-28T09:27:34Z</time></trkpt><trkpt lat="14.504724564613932" lon="121.03600661116091"><ele>17.666666666666664</ele><time>2026-03-28T09:27:35Z</time></trkpt><trkpt lat="14.504565310358016" lon="121.0360857188196"><ele>19.0</ele><time>2026-03-28T09:27:36Z</time></trkpt><trkpt lat="14.504412385600247" lon="121.03616493626069"><ele>19.666666666666664</ele><time>2026-03-28T09:27:37Z</time></trkpt><trkpt lat="14.504253173099505" lon="121.03624705496752"><ele>20.333333333333332</ele><time>2026-03-28T09:27:38Z</time></trkpt><trkpt lat="14.504095024554449" lon="121.03632752914184"><ele>21.0</ele><time>2026-03-28T09:27:39Z</time></trkpt><trkpt lat="14.503938847226513" lon="121.03640755071281"><ele>21.0</ele><time>2026-03-28T09:27:40Z</time></trkpt><trkpt lat="14.503775355306173" lon="121.03649145726219"><ele>21.0</ele><time>2026-03-28T09:27:41Z</time></trkpt><trkpt lat="14.503639153099265" lon="121.03657297925264"><ele>21.0</ele><time>2026-03-28T09:27:42Z</time></trkpt><trkpt lat="14.503501228822573" lon="121.03664438615755"><ele>21.666666666666668</ele><time>2026-03-28T09:27:43Z</time></trkpt><trkpt lat="14.503357036682472" lon="121.03673414220266"><ele>22.333333333333336</ele><time>2026-03-28T09:27:44Z</time></trkpt><trkpt lat="14.503212677121455" lon="121.03681940763207"><ele>23.0</ele><time>2026-03-28T09:27:45Z</time></trkpt><trkpt lat="14.503050922746269" lon="121.03692449747595"><ele>22.666666666666668</ele><time>2026-03-28T09:27:46Z</time></trkpt><trkpt lat="14.50285370413598" lon="121.03702240707081"><ele>22.333333333333332</ele><time>2026-03-28T09:27:47Z</time></trkpt><trkpt lat="14.502693865450516" lon="121.03709695080667"><ele>22.0</ele><time>2026-03-28T09:27:48Z</time></trkpt><trkpt lat="14.502533435844153" lon="121.03718705895423"><ele>22.0</ele><time>2026-03-28T09:27:49Z</time></trkpt><trkpt lat="14.502378617277886" lon="121.03727862464665"><ele>22.0</ele><time>2026-03-28T09:27:50Z</time></trkpt><trkpt lat="14.502224551370233" lon="121.03737208954928"><ele>22.0</ele><time>2026-03-28T09:27:51Z</time></trkpt><trkpt lat="14.502062579902816" lon="121.03745052521555"><ele>23.0</ele><time>2026-03-28T09:27:52Z</time></trkpt><trkpt lat="14.501907592702977" lon="121.03753324041267"><ele>24.0</ele><time>2026-03-28T09:27:53Z</time></trkpt><trkpt lat="14.501761403448274" lon="121.03762933822442"><ele>25.0</ele><time>2026-03-28T09:27:54Z</time></trkpt><trkpt lat="14.501591828253305" lon="121.03770736003726"><ele>25.0</ele><time>2026-03-28T09:27:55Z</time></trkpt><trkpt lat="14.501440451947401" lon="121.03778926258607"><ele>25.0</ele><time>2026-03-28T09:27:56Z</time></trkpt><trkpt lat="14.50129072994639" lon="121.03788181639749"><ele>25.0</ele><time>2026-03-28T09:27:57Z</time></trkpt><trkpt lat="14.501131687783973" lon="121.03797048403466"><ele>24.666666666666668</ele><time>2026-03-28T09:27:58Z</time></trkpt><trkpt lat="14.500968575964595" lon="121.03805955358835"><ele>24.333333333333336</ele><time>2026-03-28T09:27:59Z</time></trkpt><trkpt lat="14.50080659288711" lon="121.03815016777797"><ele>24.0</ele><time>2026-03-28T09:28:00Z</time></trkpt><trkpt lat="14.500636855030681" lon="121.03824952525815"><ele>24.666666666666664</ele><time>2026-03-28T09:28:01Z</time></trkpt><trkpt lat="14.500476676641496" lon="121.03834058413918"><ele>25.333333333333332</ele><time>2026-03-28T09:28:02Z</time></trkpt><trkpt lat="14.50032269259764" lon="121.0384216750287"><ele>26.0</ele><time>2026-03-28T09:28:03Z</time></trkpt><trkpt lat="14.500149912416441" lon="121.03851771100474"><ele>26.0</ele><time>2026-03-28T09:28:04Z</time></trkpt><trkpt lat="14.499966185904041" lon="121.0386310595728"><ele>26.0</ele><time>2026-03-28T09:28:05Z</time></trkpt><trkpt lat="14.499834469409166" lon="121.03868699098724"><ele>26.0</ele><time>2026-03-28T09:28:06Z</time></trkpt><trkpt lat="14.499673815993905" lon="121.03877658146753"><ele>26.0</ele><time>2026-03-28T09:28:07Z</time></trkpt><trkpt lat="14.499519867735065" lon="121.03881862752662"><ele>26.0</ele><time>2026-03-28T09:28:08Z</time></trkpt><trkpt lat="14.499373213307097" lon="121.03893036574338"><ele>26.0</ele><time>2026-03-28T09:28:09Z</time></trkpt><trkpt lat="14.499192792827158" lon="121.03905857927695"><ele>26.0</ele><time>2026-03-28T09:28:10Z</time></trkpt><trkpt lat="14.499058060461442" lon="121.03913157279368"><ele>26.0</ele><time>2026-03-28T09:28:11Z</time></trkpt><trkpt lat="14.498898330060271" lon="121.03921810945573"><ele>26.0</ele><time>2026-03-28T09:28:12Z</time></trkpt><trkpt lat="14.498723986073722" lon="121.03931256326506"><ele>27.666666666666664</ele><time>2026-03-28T09:28:13Z</time></trkpt><trkpt lat="14.498575677470418" lon="121.03939291196342"><ele>29.333333333333336</ele><time>2026-03-28T09:28:14Z</time></trkpt><trkpt lat="14.498426688923823" lon="121.03947341059401"><ele>31.0</ele><time>2026-03-28T09:28:15Z</time></trkpt><trkpt lat="14.498283106347879" lon="121.03955092030574"><ele>31.0</ele><time>2026-03-28T09:28:16Z</time></trkpt><trkpt lat="14.498142596588629" lon="121.03962677125074"><ele>31.0</ele><time>2026-03-28T09:28:17Z</time></trkpt><trkpt lat="14.497994007873668" lon="121.0397069834006"><ele>31.0</ele><time>2026-03-28T09:28:18Z</time></trkpt><trkpt lat="14.497845172502336" lon="121.03978732872493"><ele>31.333333333333336</ele><time>2026-03-28T09:28:19Z</time></trkpt><trkpt lat="14.49765527408744" lon="121.0398898409284"><ele>31.666666666666664</ele><time>2026-03-28T09:28:20Z</time></trkpt><trkpt lat="14.497506557800918" lon="121.03996164983215"><ele>32.0</ele><time>2026-03-28T09:28:21Z</time></trkpt><trkpt lat="14.497371859110567" lon="121.0400430902794"><ele>32.0</ele><time>2026-03-28T09:28:22Z</time></trkpt><trkpt lat="14.497178790422582" lon="121.0400071775234"><ele>32.0</ele><time>2026-03-28T09:28:23Z</time></trkpt><trkpt lat="14.497018942154142" lon="121.04007869464216"><ele>32.0</ele><time>2026-03-28T09:28:24Z</time></trkpt><trkpt lat="14.496860818875485" lon="121.04016489977258"><ele>30.333333333333332</ele><time>2026-03-28T09:28:25Z</time></trkpt><trkpt lat="14.496708335053356" lon="121.04024803041459"><ele>28.666666666666664</ele><time>2026-03-28T09:28:26Z</time></trkpt><trkpt lat="14.496577771405244" lon="121.04033697713653"><ele>27.0</ele><time>2026-03-28T09:28:27Z</time></trkpt><trkpt lat="14.495998142448258" lon="121.04079032658395"><ele>27.666666666666664</ele><time>2026-03-28T09:28:31Z</time></trkpt><trkpt lat="14.4958447421243" lon="121.04087362917603"><ele>28.333333333333332</ele><time>2026-03-28T09:28:32Z</time></trkpt><trkpt lat="14.49570943950364" lon="121.04094711121543"><ele>29.0</ele><time>2026-03-28T09:28:33Z</time></trkpt><trkpt lat="14.495559910987108" lon="121.0410278266373"><ele>28.0</ele><time>2026-03-28T09:28:34Z</time></trkpt><trkpt lat="14.495348768097474" lon="121.04114180146176"><ele>27.0</ele><time>2026-03-28T09:28:35Z</time></trkpt><trkpt lat="14.495245828589693" lon="121.04119736813408"><ele>26.0</ele><time>2026-03-28T09:28:36Z</time></trkpt><trkpt lat="14.495106719684848" lon="121.04127245905312"><ele>26.0</ele><time>2026-03-28T09:28:37Z</time></trkpt><trkpt lat="14.494965262357894" lon="121.0413488176467"><ele>26.0</ele><time>2026-03-28T09:28:38Z</time></trkpt><trkpt lat="14.494831156714147" lon="121.0414212078121"><ele>26.0</ele><time>2026-03-28T09:28:39Z</time></trkpt><trkpt lat="14.494720922993608" lon="121.04151545065467"><ele>26.0</ele><time>2026-03-28T09:28:40Z</time></trkpt><trkpt lat="14.49459678240369" lon="121.04161964371153"><ele>26.0</ele><time>2026-03-28T09:28:41Z</time></trkpt><trkpt lat="14.494449316819788" lon="121.0416703041177"><ele>26.0</ele><time>2026-03-28T09:28:42Z</time></trkpt><trkpt lat="14.494312754908881" lon="121.04156043295805"><ele>25.75</ele><time>2026-03-28T09:28:43Z</time></trkpt><trkpt lat="14.494177564931961" lon="121.04161340609937"><ele>25.5</ele><time>2026-03-28T09:28:44Z</time></trkpt><trkpt lat="14.494056301340928" lon="121.041684698668"><ele>25.25</ele><time>2026-03-28T09:28:45Z</time></trkpt><trkpt lat="14.49392165156936" lon="121.0417577560388"><ele>25.0</ele><time>2026-03-28T09:28:46Z</time></trkpt><trkpt lat="14.49375947142194" lon="121.0418452535142"><ele>26.0</ele><time>2026-03-28T09:28:47Z</time></trkpt><trkpt lat="14.493609821676278" lon="121.04192599072643"><ele>27.0</ele><time>2026-03-28T09:28:48Z</time></trkpt><trkpt lat="14.49347106116872" lon="121.04200085312075"><ele>28.0</ele><time>2026-03-28T09:28:49Z</time></trkpt><trkpt lat="14.493332557143903" lon="121.04207557714999"><ele>28.0</ele><time>2026-03-28T09:28:50Z</time></trkpt><trkpt lat="14.49319416410203" lon="121.0421502412895"><ele>28.0</ele><time>2026-03-28T09:28:51Z</time></trkpt><trkpt lat="14.493055063027287" lon="121.04222531096084"><ele>28.0</ele><time>2026-03-28T09:28:52.009Z</time></trkpt><trkpt lat="14.488231195150398" lon="121.04467495355851"><ele>29.333333333333336</ele><time>2026-03-28T09:29:29Z</time></trkpt><trkpt lat="14.48807664204808" lon="121.04472307259677"><ele>30.666666666666664</ele><time>2026-03-28T09:29:30Z</time></trkpt><trkpt lat="14.487883995056995" lon="121.04478952239937"><ele>32.0</ele><time>2026-03-28T09:29:31Z</time></trkpt><trkpt lat="14.487719079364009" lon="121.04483572482532"><ele>32.0</ele><time>2026-03-28T09:29:32Z</time></trkpt><trkpt lat="14.487552199852953" lon="121.04485602532586"><ele>32.0</ele><time>2026-03-28T09:29:33Z</time></trkpt><trkpt lat="14.487395250515796" lon="121.04487700000344"><ele>32.0</ele><time>2026-03-28T09:29:34Z</time></trkpt><trkpt lat="14.487192208893834" lon="121.04492829348472"><ele>32.0</ele><time>2026-03-28T09:29:35Z</time></trkpt><trkpt lat="14.487010733205368" lon="121.04494787877603"><ele>32.0</ele><time>2026-03-28T09:29:36Z</time></trkpt><trkpt lat="14.486817865142655" lon="121.04495705508035"><ele>32.0</ele><time>2026-03-28T09:29:37Z</time></trkpt><trkpt lat="14.486642135864553" lon="121.04498679741735"><ele>32.666666666666664</ele><time>2026-03-28T09:29:38Z</time></trkpt><trkpt lat="14.486467289405196" lon="121.04501621786649"><ele>33.333333333333336</ele><time>2026-03-28T09:29:39Z</time></trkpt><trkpt lat="14.486310170066012" lon="121.04507081272372"><ele>34.0</ele><time>2026-03-28T09:29:40Z</time></trkpt><trkpt lat="14.486148729358455" lon="121.04506752101703"><ele>34.25</ele><time>2026-03-28T09:29:41Z</time></trkpt><trkpt lat="14.48599167721337" lon="121.04509191919077"><ele>34.5</ele><time>2026-03-28T09:29:42Z</time></trkpt><trkpt lat="14.485816746886082" lon="121.0451537990842"><ele>34.75</ele><time>2026-03-28T09:29:43Z</time></trkpt><trkpt lat="14.485749317414323" lon="121.04516974665493"><ele>35.0</ele><time>2026-03-28T09:29:44Z</time></trkpt><trkpt lat="14.485624511308332" lon="121.04516536087387"><ele>35.0</ele><time>2026-03-28T09:29:45Z</time></trkpt><trkpt lat="14.485482589577787" lon="121.0451675496416"><ele>35.0</ele><time>2026-03-28T09:29:46Z</time></trkpt><trkpt lat="14.485355801055144" lon="121.0451991708354"><ele>35.0</ele><time>2026-03-28T09:29:47Z</time></trkpt><trkpt lat="14.485240464919025" lon="121.04520668994799"><ele>35.0</ele><time>2026-03-28T09:29:48Z</time></trkpt><trkpt lat="14.48512152267286" lon="121.04524250007367"><ele>34.0</ele><time>2026-03-28T09:29:49Z</time></trkpt><trkpt lat="14.484997536744915" lon="121.0452554533769"><ele>33.0</ele><time>2026-03-28T09:29:50Z</time></trkpt><trkpt lat="14.484869075227458" lon="121.0452679697647"><ele>32.0</ele><time>2026-03-28T09:29:51.02Z</time></trkpt><trkpt lat="14.480788065134064" lon="121.04547014471241"><ele>33.0</ele><time>2026-03-28T09:30:23Z</time></trkpt><trkpt lat="14.480411214767472" lon="121.04520963516183"><ele>33.0</ele><time>2026-03-28T09:30:24Z</time></trkpt><trkpt lat="14.480269269829508" lon="121.0452033740777"><ele>33.0</ele><time>2026-03-28T09:30:25Z</time></trkpt><trkpt lat="14.480150619470246" lon="121.04521821041759"><ele>33.0</ele><time>2026-03-28T09:30:26Z</time></trkpt><trkpt lat="14.479968085793866" lon="121.04520365354915"><ele>33.0</ele><time>2026-03-28T09:30:27Z</time></trkpt><trkpt lat="14.480168506484198" lon="121.04513333392511"><ele>33.0</ele><time>2026-03-28T09:30:28Z</time></trkpt><trkpt lat="14.480015097944422" lon="121.04514285940606"><ele>33.0</ele><time>2026-03-28T09:30:29Z</time></trkpt><trkpt lat="14.479811006471726" lon="121.04514439714188"><ele>33.0</ele><time>2026-03-28T09:30:30Z</time></trkpt><trkpt lat="14.479647582670935" lon="121.0451434436581"><ele>33.5</ele><time>2026-03-28T09:30:31Z</time></trkpt><trkpt lat="14.479529944547528" lon="121.04513355458622"><ele>34.0</ele><time>2026-03-28T09:30:32Z</time></trkpt><trkpt lat="14.479382980953845" lon="121.0451102929245"><ele>34.5</ele><time>2026-03-28T09:30:33Z</time></trkpt><trkpt lat="14.479241572255637" lon="121.04511935516494"><ele>35.0</ele><time>2026-03-28T09:30:34Z</time></trkpt><trkpt lat="14.479102249825836" lon="121.04511051538393"><ele>35.0</ele><time>2026-03-28T09:30:35Z</time></trkpt><trkpt lat="14.478952071287344" lon="121.04512145479985"><ele>35.0</ele><time>2026-03-28T09:30:36Z</time></trkpt><trkpt lat="14.47881110787505" lon="121.04509661861562"><ele>35.0</ele><time>2026-03-28T09:30:37Z</time></trkpt><trkpt lat="14.478653257261975" lon="121.04509744411665"><ele>35.0</ele><time>2026-03-28T09:30:38Z</time></trkpt><trkpt lat="14.478509980108104" lon="121.04509800351829"><ele>35.0</ele><time>2026-03-28T09:30:39Z</time></trkpt><trkpt lat="14.478372577772031" lon="121.0451001238927"><ele>35.0</ele><time>2026-03-28T09:30:40Z</time></trkpt><trkpt lat="14.478228391022913" lon="121.04509934711334"><ele>35.0</ele><time>2026-03-28T09:30:41Z</time></trkpt><trkpt lat="14.4780900285082" lon="121.04510461371505"><ele>35.0</ele><time>2026-03-28T09:30:42Z</time></trkpt><trkpt lat="14.47796697887789" lon="121.04510842335223"><ele>35.0</ele><time>2026-03-28T09:30:43Z</time></trkpt><trkpt lat="14.477830637324352" lon="121.04510399418865"><ele>35.0</ele><time>2026-03-28T09:30:44Z</time></trkpt><trkpt lat="14.47770792798829" lon="121.04513590703186"><ele>35.0</ele><time>2026-03-28T09:30:45Z</time></trkpt><trkpt lat="14.47754619304189" lon="121.04511561627336"><ele>35.33333333333333</ele><time>2026-03-28T09:30:46Z</time></trkpt><trkpt lat="14.47739445969693" lon="121.04510195352174"><ele>35.666666666666664</ele><time>2026-03-28T09:30:47Z</time></trkpt><trkpt lat="14.477251166882258" lon="121.0450985149509"><ele>36.0</ele><time>2026-03-28T09:30:48Z</time></trkpt><trkpt lat="14.477061814427376" lon="121.04508166271614"><ele>36.0</ele><time>2026-03-28T09:30:49Z</time></trkpt><trkpt lat="14.476922102253065" lon="121.0450860345059"><ele>36.0</ele><time>2026-03-28T09:30:50Z</time></trkpt><trkpt lat="14.476789370202733" lon="121.04508735341157"><ele>36.0</ele><time>2026-03-28T09:30:51Z</time></trkpt><trkpt lat="14.476654037377902" lon="121.04510682262087"><ele>36.0</ele><time>2026-03-28T09:30:52Z</time></trkpt><trkpt lat="14.476519771687256" lon="121.04511468348996"><ele>36.0</ele><time>2026-03-28T09:30:53Z</time></trkpt><trkpt lat="14.476329829034004" lon="121.04511052623245"><ele>36.0</ele><time>2026-03-28T09:30:54Z</time></trkpt><trkpt lat="14.47620448400127" lon="121.04511244938503"><ele>36.0</ele><time>2026-03-28T09:30:55Z</time></trkpt><trkpt lat="14.476092395576636" lon="121.04511745813987"><ele>36.0</ele><time>2026-03-28T09:30:56Z</time></trkpt><trkpt lat="14.47595395536221" lon="121.04511830202688"><ele>36.333333333333336</ele><time>2026-03-28T09:30:57Z</time></trkpt><trkpt lat="14.475793572277347" lon="121.04513874465516"><ele>36.66666666666667</ele><time>2026-03-28T09:30:58Z</time></trkpt><trkpt lat="14.475641733834566" lon="121.04513689678485"><ele>37.0</ele><time>2026-03-28T09:30:59Z</time></trkpt><trkpt lat="14.475493749530933" lon="121.04513558129392"><ele>36.66666666666667</ele><time>2026-03-28T09:31:00Z</time></trkpt><trkpt lat="14.47532517670749" lon="121.0451524990366"><ele>36.333333333333336</ele><time>2026-03-28T09:31:01Z</time></trkpt><trkpt lat="14.475174460406638" lon="121.04515516913261"><ele>36.0</ele><time>2026-03-28T09:31:02Z</time></trkpt><trkpt lat="14.475025540026811" lon="121.04514913416875"><ele>36.0</ele><time>2026-03-28T09:31:03Z</time></trkpt><trkpt lat="14.474881439472211" lon="121.04515785679114"><ele>36.0</ele><time>2026-03-28T09:31:04Z</time></trkpt><trkpt lat="14.474726025080571" lon="121.04517071621197"><ele>36.0</ele><time>2026-03-28T09:31:05Z</time></trkpt><trkpt lat="14.474560666301794" lon="121.04519575053257"><ele>35.666666666666664</ele><time>2026-03-28T09:31:06Z</time></trkpt><trkpt lat="14.474399407952252" lon="121.0452085653558"><ele>35.33333333333333</ele><time>2026-03-28T09:31:07Z</time></trkpt><trkpt lat="14.474228558709964" lon="121.0452284100605"><ele>35.0</ele><time>2026-03-28T09:31:08Z</time></trkpt><trkpt lat="14.47408529159544" lon="121.04524129437348"><ele>35.0</ele><time>2026-03-28T09:31:09Z</time></trkpt><trkpt lat="14.473930257820927" lon="121.04526308288517"><ele>35.0</ele><time>2026-03-28T09:31:10Z</time></trkpt><trkpt lat="14.473769366328256" lon="121.04528162378776"><ele>35.0</ele><time>2026-03-28T09:31:11Z</time></trkpt><trkpt lat="14.473620328042035" lon="121.04529403217252"><ele>34.0</ele><time>2026-03-28T09:31:12Z</time></trkpt><trkpt lat="14.47345497879546" lon="121.04532511437317"><ele>33.0</ele><time>2026-03-28T09:31:13Z</time></trkpt><trkpt lat="14.473292347522387" lon="121.0453313765092"><ele>32.0</ele><time>2026-03-28T09:31:14Z</time></trkpt><trkpt lat="14.473154204323613" lon="121.04531511220088"><ele>32.0</ele><time>2026-03-28T09:31:15Z</time></trkpt><trkpt lat="14.472996246188906" lon="121.04532380018205"><ele>32.0</ele><time>2026-03-28T09:31:16Z</time></trkpt><trkpt lat="14.472845724993226" lon="121.04533940111438"><ele>32.0</ele><time>2026-03-28T09:31:17Z</time></trkpt><trkpt lat="14.472690275950738" lon="121.04536257288026"><ele>31.0</ele><time>2026-03-28T09:31:18Z</time></trkpt><trkpt lat="14.472521879021894" lon="121.04536752239548"><ele>30.0</ele><time>2026-03-28T09:31:19Z</time></trkpt><trkpt lat="14.472385515418434" lon="121.04534051454192"><ele>29.0</ele><time>2026-03-28T09:31:20Z</time></trkpt><trkpt lat="14.472212045231158" lon="121.04536885558909"><ele>29.25</ele><time>2026-03-28T09:31:21Z</time></trkpt><trkpt lat="14.472098503104291" lon="121.04531849954925"><ele>29.5</ele><time>2026-03-28T09:31:22Z</time></trkpt><trkpt lat="14.471952785092213" lon="121.04532236089815"><ele>29.75</ele><time>2026-03-28T09:31:23Z</time></trkpt><trkpt lat="14.471801058322315" lon="121.04535693368871"><ele>30.0</ele><time>2026-03-28T09:31:24Z</time></trkpt><trkpt lat="14.471651768169282" lon="121.04537750089374"><ele>30.0</ele><time>2026-03-28T09:31:25Z</time></trkpt><trkpt lat="14.471513642403002" lon="121.04539953457636"><ele>30.0</ele><time>2026-03-28T09:31:26Z</time></trkpt><trkpt lat="14.471366901939634" lon="121.04541759155174"><ele>30.0</ele><time>2026-03-28T09:31:27Z</time></trkpt><trkpt lat="14.471220451213604" lon="121.04543644795471"><ele>30.0</ele><time>2026-03-28T09:31:28Z</time></trkpt><trkpt lat="14.471087620418151" lon="121.04546191089587"><ele>30.25</ele><time>2026-03-28T09:31:29Z</time></trkpt><trkpt lat="14.470951143098215" lon="121.04547660948755"><ele>30.5</ele><time>2026-03-28T09:31:30Z</time></trkpt><trkpt lat="14.470820261828745" lon="121.04549790906285"><ele>30.75</ele><time>2026-03-28T09:31:31Z</time></trkpt><trkpt lat="14.470692982475814" lon="121.04548782142636"><ele>31.0</ele><time>2026-03-28T09:31:32Z</time></trkpt><trkpt lat="14.47056075763578" lon="121.04550775976492"><ele>31.0</ele><time>2026-03-28T09:31:33Z</time></trkpt><trkpt lat="14.470423316103645" lon="121.0455262041868"><ele>31.0</ele><time>2026-03-28T09:31:34Z</time></trkpt><trkpt lat="14.470267925854131" lon="121.04530896433917"><ele>31.0</ele><time>2026-03-28T09:31:35Z</time></trkpt><trkpt lat="14.470154608065565" lon="121.04520806021786"><ele>31.0</ele><time>2026-03-28T09:31:36Z</time></trkpt><trkpt lat="14.470040782931157" lon="121.04522443289201"><ele>31.0</ele><time>2026-03-28T09:31:37Z</time></trkpt><trkpt lat="14.469915554297158" lon="121.04520015529512"><ele>31.0</ele><time>2026-03-28T09:31:38Z</time></trkpt><trkpt lat="14.469799707472644" lon="121.0452004060924"><ele>31.0</ele><time>2026-03-28T09:31:39Z</time></trkpt><trkpt lat="14.46967542062218" lon="121.04520320576043"><ele>31.25</ele><time>2026-03-28T09:31:40Z</time></trkpt><trkpt lat="14.4695296798418" lon="121.04522155782017"><ele>31.5</ele><time>2026-03-28T09:31:41Z</time></trkpt><trkpt lat="14.469402278557327" lon="121.04521026324863"><ele>31.75</ele><time>2026-03-28T09:31:42Z</time></trkpt><trkpt lat="14.469269747386528" lon="121.04517727536883"><ele>32.0</ele><time>2026-03-28T09:31:43Z</time></trkpt><trkpt lat="14.469143844785044" lon="121.04519450436624"><ele>32.0</ele><time>2026-03-28T09:31:44Z</time></trkpt><trkpt lat="14.469017450664312" lon="121.04521278886128"><ele>32.0</ele><time>2026-03-28T09:31:45Z</time></trkpt><trkpt lat="14.468880808493777" lon="121.04521213866754"><ele>32.0</ele><time>2026-03-28T09:31:46Z</time></trkpt><trkpt lat="14.468773506958577" lon="121.04518863261491"><ele>32.0</ele><time>2026-03-28T09:31:47Z</time></trkpt><trkpt lat="14.468631636329091" lon="121.04520433374783"><ele>32.25</ele><time>2026-03-28T09:31:48Z</time></trkpt><trkpt lat="14.468473938719677" lon="121.04521886754132"><ele>32.5</ele><time>2026-03-28T09:31:49Z</time></trkpt><trkpt lat="14.468347592669394" lon="121.04521333302503"><ele>32.75</ele><time>2026-03-28T09:31:50Z</time></trkpt><trkpt lat="14.46825074212699" lon="121.0451845040717"><ele>33.0</ele><time>2026-03-28T09:31:51Z</time></trkpt><trkpt lat="14.46814137705472" lon="121.04518995824081"><ele>33.0</ele><time>2026-03-28T09:31:52Z</time></trkpt><trkpt lat="14.46800824786684" lon="121.04519321535243"><ele>33.0</ele><time>2026-03-28T09:31:53Z</time></trkpt><trkpt lat="14.467882545204468" lon="121.04520215045798"><ele>33.0</ele><time>2026-03-28T09:31:54Z</time></trkpt><trkpt lat="14.467760481454986" lon="121.04520844121065"><ele>33.0</ele><time>2026-03-28T09:31:55Z</time></trkpt><trkpt lat="14.46763416872767" lon="121.04521538546854"><ele>34.0</ele><time>2026-03-28T09:31:56Z</time></trkpt><trkpt lat="14.467444303164507" lon="121.0452254469774"><ele>35.0</ele><time>2026-03-28T09:31:57Z</time></trkpt><trkpt lat="14.467301340480759" lon="121.04516410215496"><ele>36.0</ele><time>2026-03-28T09:31:58Z</time></trkpt><trkpt lat="14.467122539357334" lon="121.0451631526626"><ele>36.5</ele><time>2026-03-28T09:31:59Z</time></trkpt><trkpt lat="14.466960164479067" lon="121.04516196058685"><ele>37.0</ele><time>2026-03-28T09:32:00Z</time></trkpt><trkpt lat="14.46684426694057" lon="121.0451586746552"><ele>37.5</ele><time>2026-03-28T09:32:01Z</time></trkpt><trkpt lat="14.466719550000427" lon="121.0451555458099"><ele>38.0</ele><time>2026-03-28T09:32:02Z</time></trkpt><trkpt lat="14.46658703850085" lon="121.04515291970525"><ele>38.0</ele><time>2026-03-28T09:32:03Z</time></trkpt><trkpt lat="14.466458333608085" lon="121.04515166900362"><ele>38.0</ele><time>2026-03-28T09:32:04Z</time></trkpt><trkpt lat="14.466322015012112" lon="121.04515090572909"><ele>38.0</ele><time>2026-03-28T09:32:05Z</time></trkpt><trkpt lat="14.466192869682873" lon="121.04514784594406"><ele>38.0</ele><time>2026-03-28T09:32:06Z</time></trkpt><trkpt lat="14.466042372177766" lon="121.04513376586624"><ele>38.0</ele><time>2026-03-28T09:32:07Z</time></trkpt><trkpt lat="14.465921953361585" lon="121.04513322086237"><ele>38.0</ele><time>2026-03-28T09:32:08Z</time></trkpt><trkpt lat="14.465744628980788" lon="121.04515207146052"><ele>38.0</ele><time>2026-03-28T09:32:09Z</time></trkpt><trkpt lat="14.46556379714158" lon="121.04514723227865"><ele>38.0</ele><time>2026-03-28T09:32:10Z</time></trkpt><trkpt lat="14.465382907373579" lon="121.04516834142252"><ele>38.0</ele><time>2026-03-28T09:32:11Z</time></trkpt><trkpt lat="14.46523391950218" lon="121.0451708840515"><ele>38.0</ele><time>2026-03-28T09:32:12Z</time></trkpt><trkpt lat="14.465106245554177" lon="121.04517050903132"><ele>38.0</ele><time>2026-03-28T09:32:13Z</time></trkpt><trkpt lat="14.464977692406569" lon="121.04516397028658"><ele>38.0</ele><time>2026-03-28T09:32:14Z</time></trkpt><trkpt lat="14.464822217634708" lon="121.04517516783065"><ele>38.0</ele><time>2026-03-28T09:32:15Z</time></trkpt><trkpt lat="14.464683694719351" lon="121.04516305954539"><ele>38.0</ele><time>2026-03-28T09:32:16Z</time></trkpt><trkpt lat="14.464552273767561" lon="121.04515774210644"><ele>38.0</ele><time>2026-03-28T09:32:17Z</time></trkpt><trkpt lat="14.46441996436421" lon="121.04518152866392"><ele>38.0</ele><time>2026-03-28T09:32:18Z</time></trkpt><trkpt lat="14.464258611041311" lon="121.04518281744991"><ele>38.0</ele><time>2026-03-28T09:32:19Z</time></trkpt><trkpt lat="14.464133241902005" lon="121.04518689521979"><ele>38.0</ele><time>2026-03-28T09:32:20Z</time></trkpt><trkpt lat="14.463998141541968" lon="121.04517113203396"><ele>38.0</ele><time>2026-03-28T09:32:21Z</time></trkpt><trkpt lat="14.463866079765513" lon="121.04516420878849"><ele>38.0</ele><time>2026-03-28T09:32:22Z</time></trkpt><trkpt lat="14.463721584379387" lon="121.04516540212029"><ele>38.0</ele><time>2026-03-28T09:32:23Z</time></trkpt><trkpt lat="14.463588999679127" lon="121.04516646493636"><ele>38.0</ele><time>2026-03-28T09:32:24Z</time></trkpt><trkpt lat="14.463460149657262" lon="121.0451745386777"><ele>37.33333333333333</ele><time>2026-03-28T09:32:25Z</time></trkpt><trkpt lat="14.46328065947611" lon="121.04522553983492"><ele>36.666666666666664</ele><time>2026-03-28T09:32:26Z</time></trkpt><trkpt lat="14.463129766388311" lon="121.0452414588703"><ele>36.0</ele><time>2026-03-28T09:32:27Z</time></trkpt><trkpt lat="14.4629943695887" lon="121.04525614941721"><ele>36.25</ele><time>2026-03-28T09:32:28Z</time></trkpt><trkpt lat="14.46284523606385" lon="121.04525438737677"><ele>36.5</ele><time>2026-03-28T09:32:29Z</time></trkpt><trkpt lat="14.46270045884802" lon="121.04525543524915"><ele>36.75</ele><time>2026-03-28T09:32:30Z</time></trkpt><trkpt lat="14.462550409851701" lon="121.04525674717175"><ele>37.0</ele><time>2026-03-28T09:32:31Z</time></trkpt><trkpt lat="14.46239897423038" lon="121.04525807122266"><ele>37.0</ele><time>2026-03-28T09:32:32Z</time></trkpt><trkpt lat="14.462237408957403" lon="121.04525948383888"><ele>37.0</ele><time>2026-03-28T09:32:33Z</time></trkpt><trkpt lat="14.462107823642928" lon="121.04526061683947"><ele>37.0</ele><time>2026-03-28T09:32:34Z</time></trkpt><trkpt lat="14.461961341887342" lon="121.045261897576"><ele>37.0</ele><time>2026-03-28T09:32:35Z</time></trkpt><trkpt lat="14.46181878451089" lon="121.0452631439962"><ele>37.333333333333336</ele><time>2026-03-28T09:32:36Z</time></trkpt><trkpt lat="14.46165885884071" lon="121.04526454227732"><ele>37.666666666666664</ele><time>2026-03-28T09:32:37Z</time></trkpt><trkpt lat="14.461495991313242" lon="121.04526596474135"><ele>38.0</ele><time>2026-03-28T09:32:38Z</time></trkpt><trkpt lat="14.461360142357877" lon="121.04526715250996"><ele>38.5</ele><time>2026-03-28T09:32:39Z</time></trkpt><trkpt lat="14.461222773277584" lon="121.04526835357487"><ele>39.0</ele><time>2026-03-28T09:32:40Z</time></trkpt><trkpt lat="14.46108753112758" lon="121.04520864082374"><ele>39.5</ele><time>2026-03-28T09:32:41Z</time></trkpt><trkpt lat="14.460956459994721" lon="121.04520910468688"><ele>40.0</ele><time>2026-03-28T09:32:42Z</time></trkpt><trkpt lat="14.460841801847241" lon="121.04521205954843"><ele>40.0</ele><time>2026-03-28T09:32:43Z</time></trkpt><trkpt lat="14.46071426628274" lon="121.0452179647209"><ele>40.0</ele><time>2026-03-28T09:32:44Z</time></trkpt><trkpt lat="14.460579072815435" lon="121.04522538627845"><ele>40.0</ele><time>2026-03-28T09:32:45Z</time></trkpt><trkpt lat="14.460450905477218" lon="121.04523421301323"><ele>40.0</ele><time>2026-03-28T09:32:46Z</time></trkpt><trkpt lat="14.460308282583492" lon="121.0452433189581"><ele>40.5</ele><time>2026-03-28T09:32:47Z</time></trkpt><trkpt lat="14.460149426667035" lon="121.0452565755773"><ele>41.0</ele><time>2026-03-28T09:32:48Z</time></trkpt><trkpt lat="14.460019395922316" lon="121.04526688705594"><ele>41.5</ele><time>2026-03-28T09:32:49Z</time></trkpt><trkpt lat="14.459891412538685" lon="121.04527813959379"><ele>42.0</ele><time>2026-03-28T09:32:50Z</time></trkpt><trkpt lat="14.459755120780615" lon="121.04529096131269"><ele>42.0</ele><time>2026-03-28T09:32:51Z</time></trkpt><trkpt lat="14.459625651744895" lon="121.04530039825381"><ele>42.0</ele><time>2026-03-28T09:32:52Z</time></trkpt><trkpt lat="14.459502069789576" lon="121.04523193634952"><ele>42.0</ele><time>2026-03-28T09:32:53Z</time></trkpt><trkpt lat="14.459384689573568" lon="121.04523834118551"><ele>42.0</ele><time>2026-03-28T09:32:54Z</time></trkpt><trkpt lat="14.459287051731213" lon="121.04524484808117"><ele>42.0</ele><time>2026-03-28T09:32:55Z</time></trkpt><trkpt lat="14.459114771499337" lon="121.04525586795184"><ele>42.0</ele><time>2026-03-28T09:32:56Z</time></trkpt><trkpt lat="14.458990625231081" lon="121.04526632142004"><ele>42.0</ele><time>2026-03-28T09:32:57Z</time></trkpt><trkpt lat="14.45885957704453" lon="121.04527658976443"><ele>42.0</ele><time>2026-03-28T09:32:58Z</time></trkpt><trkpt lat="14.458738484739733" lon="121.04528686623057"><ele>41.75</ele><time>2026-03-28T09:32:59Z</time></trkpt><trkpt lat="14.458612313154026" lon="121.0452982761923"><ele>41.5</ele><time>2026-03-28T09:33:00Z</time></trkpt><trkpt lat="14.458531393730015" lon="121.04523675179448"><ele>41.25</ele><time>2026-03-28T09:33:01Z</time></trkpt><trkpt lat="14.458417976390017" lon="121.04524009089879"><ele>41.0</ele><time>2026-03-28T09:33:02Z</time></trkpt><trkpt lat="14.458302792518982" lon="121.04524543470522"><ele>41.0</ele><time>2026-03-28T09:33:03Z</time></trkpt><trkpt lat="14.458185869534223" lon="121.04525434506435"><ele>41.0</ele><time>2026-03-28T09:33:04Z</time></trkpt><trkpt lat="14.458069176586275" lon="121.04526451261333"><ele>41.0</ele><time>2026-03-28T09:33:05Z</time></trkpt><trkpt lat="14.457951914946902" lon="121.04527579877312"><ele>41.0</ele><time>2026-03-28T09:33:06Z</time></trkpt><trkpt lat="14.457814162576565" lon="121.0452879889699"><ele>39.0</ele><time>2026-03-28T09:33:07Z</time></trkpt><trkpt lat="14.457516430372648" lon="121.0452437084724"><ele>37.0</ele><time>2026-03-28T09:33:08Z</time></trkpt><trkpt lat="14.457322713678899" lon="121.04524631786535"><ele>37.0</ele><time>2026-03-28T09:33:09Z</time></trkpt><trkpt lat="14.457133567360053" lon="121.04525251444473"><ele>37.0</ele><time>2026-03-28T09:33:10Z</time></trkpt><trkpt lat="14.456964168259955" lon="121.0452586054262"><ele>37.0</ele><time>2026-03-28T09:33:11Z</time></trkpt><trkpt lat="14.45678255547269" lon="121.0452660087607"><ele>36.66666666666667</ele><time>2026-03-28T09:33:12Z</time></trkpt><trkpt lat="14.45661936262432" lon="121.045274448415"><ele>36.333333333333336</ele><time>2026-03-28T09:33:13Z</time></trkpt><trkpt lat="14.45645923124734" lon="121.04527615271972"><ele>36.0</ele><time>2026-03-28T09:33:14Z</time></trkpt><trkpt lat="14.456282376048513" lon="121.0452885560605"><ele>36.5</ele><time>2026-03-28T09:33:15Z</time></trkpt><trkpt lat="14.456144814495865" lon="121.0452754080421"><ele>37.0</ele><time>2026-03-28T09:33:16Z</time></trkpt><trkpt lat="14.45598151005232" lon="121.0452425873596"><ele>37.5</ele><time>2026-03-28T09:33:17Z</time></trkpt><trkpt lat="14.455843563969601" lon="121.04524243277173"><ele>38.0</ele><time>2026-03-28T09:33:18Z</time></trkpt><trkpt lat="14.455715999955022" lon="121.0452382137189"><ele>38.0</ele><time>2026-03-28T09:33:19Z</time></trkpt><trkpt lat="14.455609627927233" lon="121.04523086679214"><ele>38.0</ele><time>2026-03-28T09:33:20Z</time></trkpt><trkpt lat="14.455502498795337" lon="121.04521595837853"><ele>38.0</ele><time>2026-03-28T09:33:21Z</time></trkpt><trkpt lat="14.455402433999803" lon="121.04519559249778"><ele>38.0</ele><time>2026-03-28T09:33:22Z</time></trkpt><trkpt lat="14.455306487845728" lon="121.04518503181842"><ele>38.0</ele><time>2026-03-28T09:33:23Z</time></trkpt><trkpt lat="14.455222154386956" lon="121.04517561363407"><ele>36.8</ele><time>2026-03-28T09:33:24Z</time></trkpt><trkpt lat="14.455127853887966" lon="121.04515472799793"><ele>35.599999999999994</ele><time>2026-03-28T09:33:25Z</time></trkpt><trkpt lat="14.45504357337429" lon="121.04517111694942"><ele>34.400000000000006</ele><time>2026-03-28T09:33:26Z</time></trkpt><trkpt lat="14.454961947142941" lon="121.04516753292776"><ele>33.2</ele><time>2026-03-28T09:33:27Z</time></trkpt><trkpt lat="14.454890607846181" lon="121.04516161445223"><ele>32.0</ele><time>2026-03-28T09:33:28Z</time></trkpt><trkpt lat="14.4547607200571" lon="121.04514344092158"><ele>31.999999999999996</ele><time>2026-03-28T09:33:30Z</time></trkpt><trkpt lat="14.454680446339644" lon="121.04510133239336"><ele>32.0</ele><time>2026-03-28T09:33:32Z</time></trkpt><trkpt lat="14.454625518042068" lon="121.04505795231361"><ele>32.0</ele><time>2026-03-28T09:33:35Z</time></trkpt><trkpt lat="14.454556468032871" lon="121.04503277310181"><ele>32.0</ele><time>2026-03-28T09:33:37Z</time></trkpt><trkpt lat="14.454455222298808" lon="121.04495551181985"><ele>31.999999999999996</ele><time>2026-03-28T09:33:39Z</time></trkpt><trkpt lat="14.454391863363371" lon="121.04493703677818"><ele>32.0</ele><time>2026-03-28T09:33:40Z</time></trkpt><trkpt lat="14.454299962274945" lon="121.04491860907383"><ele>31.833333333333332</ele><time>2026-03-28T09:33:41Z</time></trkpt><trkpt lat="14.454231618276385" lon="121.0448916439087"><ele>31.666666666666664</ele><time>2026-03-28T09:33:42Z</time></trkpt><trkpt lat="14.454153821992623" lon="121.04486373661305"><ele>31.5</ele><time>2026-03-28T09:33:43Z</time></trkpt><trkpt lat="14.454039183903927" lon="121.04485491684856"><ele>31.333333333333336</ele><time>2026-03-28T09:33:45Z</time></trkpt><trkpt lat="14.453973734899364" lon="121.04484708252049"><ele>31.166666666666668</ele><time>2026-03-28T09:33:46Z</time></trkpt><trkpt lat="14.453898643308063" lon="121.0448441983149"><ele>31.0</ele><time>2026-03-28T09:33:48Z</time></trkpt><trkpt lat="14.45380531056502" lon="121.04500028910606"><ele>29.666666666666668</ele><time>2026-03-28T09:33:51Z</time></trkpt><trkpt lat="14.453786556736244" lon="121.04507379001038"><ele>28.333333333333336</ele><time>2026-03-28T09:33:52Z</time></trkpt><trkpt lat="14.453758324483786" lon="121.0451499534429"><ele>27.0</ele><time>2026-03-28T09:33:53Z</time></trkpt><trkpt lat="14.453734788971014" lon="121.04523687427306"><ele>25.666666666666668</ele><time>2026-03-28T09:33:54Z</time></trkpt><trkpt lat="14.453714821178144" lon="121.04531727665832"><ele>24.333333333333336</ele><time>2026-03-28T09:33:55Z</time></trkpt><trkpt lat="14.453690926337082" lon="121.04540167540848"><ele>23.0</ele><time>2026-03-28T09:33:56Z</time></trkpt><trkpt lat="14.453665472865703" lon="121.04547951799096"><ele>23.0</ele><time>2026-03-28T09:33:57Z</time></trkpt><trkpt lat="14.453645513039847" lon="121.04554861595317"><ele>23.0</ele><time>2026-03-28T09:33:58Z</time></trkpt><trkpt lat="14.453611332872596" lon="121.04565189442452"><ele>23.0</ele><time>2026-03-28T09:34:00Z</time></trkpt><trkpt lat="14.45357136183785" lon="121.04576136106449"><ele>23.0</ele><time>2026-03-28T09:34:02Z</time></trkpt><trkpt lat="14.453537790910579" lon="121.04583608808566"><ele>23.0</ele><time>2026-03-28T09:34:04Z</time></trkpt><trkpt lat="14.453520841377658" lon="121.04590042881053"><ele>23.0</ele><time>2026-03-28T09:34:07Z</time></trkpt><trkpt lat="14.453502411604635" lon="121.0459636375735"><ele>23.0</ele><time>2026-03-28T09:34:13Z</time></trkpt><trkpt lat="14.45339191476195" lon="121.0459261808757"><ele>23.0</ele><time>2026-03-28T09:34:16Z</time></trkpt><trkpt lat="14.453317220400459" lon="121.0459168336482"><ele>23.0</ele><time>2026-03-28T09:34:22Z</time></trkpt><trkpt lat="14.453254678897526" lon="121.04588815726629"><ele>23.0</ele><time>2026-03-28T09:34:26Z</time></trkpt><trkpt lat="14.45318472500896" lon="121.04584661898804"><ele>23.0</ele><time>2026-03-28T09:34:30Z</time></trkpt><trkpt lat="14.453120383792164" lon="121.0458028951228"><ele>23.0</ele><time>2026-03-28T09:34:33Z</time></trkpt><trkpt lat="14.45305344995911" lon="121.04576379407293"><ele>23.0</ele><time>2026-03-28T09:34:35Z</time></trkpt><trkpt lat="14.452980675243934" lon="121.04572196113266"><ele>23.0</ele><time>2026-03-28T09:34:37Z</time></trkpt><trkpt lat="14.452898907791786" lon="121.04568061009252"><ele>23.0</ele><time>2026-03-28T09:34:39Z</time></trkpt><trkpt lat="14.45280664666173" lon="121.04564787034371"><ele>23.0</ele><time>2026-03-28T09:34:41Z</time></trkpt><trkpt lat="14.452715919649412" lon="121.04563165069241"><ele>23.0</ele><time>2026-03-28T09:34:43Z</time></trkpt><trkpt lat="14.452614911110082" lon="121.04559437731015"><ele>22.2</ele><time>2026-03-28T09:34:45Z</time></trkpt><trkpt lat="14.45249137661837" lon="121.04555852799561"><ele>21.4</ele><time>2026-03-28T09:34:47Z</time></trkpt><trkpt lat="14.45242197408175" lon="121.045544277829"><ele>20.599999999999998</ele><time>2026-03-28T09:34:48Z</time></trkpt><trkpt lat="14.45234082942119" lon="121.04552424819394"><ele>19.799999999999997</ele><time>2026-03-28T09:34:49Z</time></trkpt><trkpt lat="14.452246982494907" lon="121.04550528208496"><ele>19.0</ele><time>2026-03-28T09:34:50Z</time></trkpt><trkpt lat="14.452156685963853" lon="121.04549706621269"><ele>17.8</ele><time>2026-03-28T09:34:51Z</time></trkpt><trkpt lat="14.452061691513169" lon="121.04548067693179"><ele>16.599999999999998</ele><time>2026-03-28T09:34:52Z</time></trkpt><trkpt lat="14.451965066138968" lon="121.04547344822097"><ele>15.4</ele><time>2026-03-28T09:34:53Z</time></trkpt><trkpt lat="14.451869924522715" lon="121.04546684173224"><ele>14.2</ele><time>2026-03-28T09:34:54Z</time></trkpt><trkpt lat="14.45177659760219" lon="121.04546642488347"><ele>13.0</ele><time>2026-03-28T09:34:55Z</time></trkpt><trkpt lat="14.451689605928914" lon="121.04546390818999"><ele>12.999999999999998</ele><time>2026-03-28T09:34:56Z</time></trkpt><trkpt lat="14.451602750130768" lon="121.04545932111446"><ele>13.0</ele><time>2026-03-28T09:34:57Z</time></trkpt><trkpt lat="14.451510273070795" lon="121.04545563264813"><ele>13.0</ele><time>2026-03-28T09:34:58Z</time></trkpt><trkpt lat="14.451423307981642" lon="121.0454586199231"><ele>13.0</ele><time>2026-03-28T09:34:59Z</time></trkpt><trkpt lat="14.451335937343366" lon="121.04545618454219"><ele>12.999999999999998</ele><time>2026-03-28T09:35:00Z</time></trkpt><trkpt lat="14.45125272916515" lon="121.04545200658843"><ele>13.0</ele><time>2026-03-28T09:35:01Z</time></trkpt><trkpt lat="14.45116962400443" lon="121.04545336909287"><ele>14.166666666666666</ele><time>2026-03-28T09:35:02Z</time></trkpt><trkpt lat="14.451085265243924" lon="121.04545471734477"><ele>15.333333333333332</ele><time>2026-03-28T09:35:03Z</time></trkpt><trkpt lat="14.451010671160818" lon="121.04544086116731"><ele>16.5</ele><time>2026-03-28T09:35:04Z</time></trkpt><trkpt lat="14.450937958351506" lon="121.04543089121944"><ele>17.666666666666668</ele><time>2026-03-28T09:35:05Z</time></trkpt><trkpt lat="14.450861416650023" lon="121.04542648477631"><ele>18.833333333333336</ele><time>2026-03-28T09:35:06Z</time></trkpt><trkpt lat="14.450791535473007" lon="121.04542849127165"><ele>20.0</ele><time>2026-03-28T09:35:07Z</time></trkpt><trkpt lat="14.450718198529714" lon="121.0454191900937"><ele>20.0</ele><time>2026-03-28T09:35:08Z</time></trkpt><trkpt lat="14.45064473476811" lon="121.04541782054726"><ele>20.0</ele><time>2026-03-28T09:35:09Z</time></trkpt><trkpt lat="14.45056246531683" lon="121.04542357924119"><ele>20.0</ele><time>2026-03-28T09:35:10Z</time></trkpt><trkpt lat="14.450478594513752" lon="121.04542455284572"><ele>20.0</ele><time>2026-03-28T09:35:11Z</time></trkpt><trkpt lat="14.450400148243112" lon="121.04541799146014"><ele>20.0</ele><time>2026-03-28T09:35:12Z</time></trkpt><trkpt lat="14.450326094188382" lon="121.04542448572846"><ele>20.0</ele><time>2026-03-28T09:35:13Z</time></trkpt><trkpt lat="14.4502511390809" lon="121.04542009906034"><ele>19.833333333333336</ele><time>2026-03-28T09:35:14Z</time></trkpt><trkpt lat="14.450170775902398" lon="121.04541555923204"><ele>19.666666666666668</ele><time>2026-03-28T09:35:15Z</time></trkpt><trkpt lat="14.450096312751056" lon="121.0454095530064"><ele>19.5</ele><time>2026-03-28T09:35:16Z</time></trkpt><trkpt lat="14.450017480436237" lon="121.04540362423431"><ele>19.333333333333332</ele><time>2026-03-28T09:35:17Z</time></trkpt><trkpt lat="14.4499362278264" lon="121.04540711951063"><ele>19.166666666666664</ele><time>2026-03-28T09:35:18Z</time></trkpt><trkpt lat="14.449856368045214" lon="121.04539725490118"><ele>19.0</ele><time>2026-03-28T09:35:19Z</time></trkpt><trkpt lat="14.449775490906172" lon="121.04538245211799"><ele>19.0</ele><time>2026-03-28T09:35:20Z</time></trkpt><trkpt lat="14.449693060007435" lon="121.04538768008979"><ele>19.0</ele><time>2026-03-28T09:35:21Z</time></trkpt><trkpt lat="14.449613020802126" lon="121.04538169802383"><ele>19.0</ele><time>2026-03-28T09:35:22Z</time></trkpt><trkpt lat="14.449539885347114" lon="121.04538153155265"><ele>19.0</ele><time>2026-03-28T09:35:23Z</time></trkpt><trkpt lat="14.449454906269775" lon="121.04538074755109"><ele>19.0</ele><time>2026-03-28T09:35:24Z</time></trkpt><trkpt lat="14.449370310243527" lon="121.04540898911802"><ele>19.0</ele><time>2026-03-28T09:35:25Z</time></trkpt><trkpt lat="14.449284063477972" lon="121.04540859475284"><ele>18.666666666666664</ele><time>2026-03-28T09:35:26Z</time></trkpt><trkpt lat="14.44921439666333" lon="121.04540707235137"><ele>18.333333333333332</ele><time>2026-03-28T09:35:27Z</time></trkpt><trkpt lat="14.449111211716133" lon="121.04540674523068"><ele>18.0</ele><time>2026-03-28T09:35:29Z</time></trkpt><trkpt lat="14.4490395861398" lon="121.04540861267827"><ele>17.666666666666668</ele><time>2026-03-28T09:35:31Z</time></trkpt><trkpt lat="14.448939367628904" lon="121.04541090393938"><ele>17.333333333333336</ele><time>2026-03-28T09:35:34Z</time></trkpt><trkpt lat="14.44885192470922" lon="121.0454118084237"><ele>17.0</ele><time>2026-03-28T09:35:36Z</time></trkpt><trkpt lat="14.448773638880601" lon="121.04541101097787"><ele>16.5</ele><time>2026-03-28T09:35:38Z</time></trkpt><trkpt lat="14.448700886684593" lon="121.04540741079639"><ele>16.0</ele><time>2026-03-28T09:35:40Z</time></trkpt><trkpt lat="14.448618781409643" lon="121.0454065823734"><ele>15.5</ele><time>2026-03-28T09:35:42Z</time></trkpt><trkpt lat="14.448533330860387" lon="121.04540654810165"><ele>15.0</ele><time>2026-03-28T09:35:44Z</time></trkpt><trkpt lat="14.448432697988205" lon="121.04541257152457"><ele>14.500000000000002</ele><time>2026-03-28T09:35:46Z</time></trkpt><trkpt lat="14.448342498470314" lon="121.04541448431632"><ele>14.0</ele><time>2026-03-28T09:35:48Z</time></trkpt><trkpt lat="14.44823850605295" lon="121.04540745597336"><ele>14.0</ele><time>2026-03-28T09:35:50Z</time></trkpt><trkpt lat="14.448135417912232" lon="121.0454155253042"><ele>13.999999999999998</ele><time>2026-03-28T09:35:52Z</time></trkpt><trkpt lat="14.448072208364726" lon="121.04543022442932"><ele>13.999999999999998</ele><time>2026-03-28T09:35:53Z</time></trkpt><trkpt lat="14.447952709016178" lon="121.04542908376911"><ele>14.0</ele><time>2026-03-28T09:35:55Z</time></trkpt><trkpt lat="14.44788811937002" lon="121.04542802825337"><ele>14.0</ele><time>2026-03-28T09:35:56Z</time></trkpt><trkpt lat="14.447764932704574" lon="121.04543390189004"><ele>14.166666666666668</ele><time>2026-03-28T09:35:58Z</time></trkpt><trkpt lat="14.447637323941997" lon="121.04542978225184"><ele>14.333333333333334</ele><time>2026-03-28T09:36:00Z</time></trkpt><trkpt lat="14.44757033211907" lon="121.04542474906685"><ele>14.5</ele><time>2026-03-28T09:36:01Z</time></trkpt><trkpt lat="14.44749879643276" lon="121.04542128586264"><ele>14.666666666666668</ele><time>2026-03-28T09:36:02Z</time></trkpt><trkpt lat="14.44742926218911" lon="121.04541534197045"><ele>14.833333333333334</ele><time>2026-03-28T09:36:03Z</time></trkpt><trkpt lat="14.447359233128358" lon="121.04541455756755"><ele>15.0</ele><time>2026-03-28T09:36:04Z</time></trkpt><trkpt lat="14.447293272921868" lon="121.04541593956482"><ele>15.0</ele><time>2026-03-28T09:36:05Z</time></trkpt><trkpt lat="14.447221841981774" lon="121.0454132724939"><ele>15.0</ele><time>2026-03-28T09:36:06Z</time></trkpt><trkpt lat="14.447141938703503" lon="121.04541731925133"><ele>15.0</ele><time>2026-03-28T09:36:07Z</time></trkpt><trkpt lat="14.447058016488969" lon="121.04543436488831"><ele>15.0</ele><time>2026-03-28T09:36:08Z</time></trkpt><trkpt lat="14.44698097581055" lon="121.04543370332016"><ele>15.0</ele><time>2026-03-28T09:36:09Z</time></trkpt><trkpt lat="14.446903023355103" lon="121.04542776348156"><ele>15.0</ele><time>2026-03-28T09:36:10Z</time></trkpt><trkpt lat="14.44682715029849" lon="121.04541836177177"><ele>15.4</ele><time>2026-03-28T09:36:11Z</time></trkpt><trkpt lat="14.446757726982948" lon="121.04541566991816"><ele>15.8</ele><time>2026-03-28T09:36:12Z</time></trkpt><trkpt lat="14.446628297431259" lon="121.04541239172391"><ele>16.2</ele><time>2026-03-28T09:36:14Z</time></trkpt><trkpt lat="14.44651375105853" lon="121.04541197269911"><ele>16.6</ele><time>2026-03-28T09:36:16Z</time></trkpt><trkpt lat="14.446399227093995" lon="121.04541382060827"><ele>17.0</ele><time>2026-03-28T09:36:18Z</time></trkpt><trkpt lat="14.446300368091887" lon="121.04541448201574"><ele>17.166666666666668</ele><time>2026-03-28T09:36:20Z</time></trkpt><trkpt lat="14.44618150733649" lon="121.04541688191483"><ele>17.333333333333336</ele><time>2026-03-28T09:36:22Z</time></trkpt><trkpt lat="14.446101109512853" lon="121.04542080368549"><ele>17.5</ele><time>2026-03-28T09:36:24Z</time></trkpt><trkpt lat="14.446037597419942" lon="121.04542553457885"><ele>17.666666666666668</ele><time>2026-03-28T09:36:29Z</time></trkpt><trkpt lat="14.445961943814495" lon="121.04543317619918"><ele>17.833333333333332</ele><time>2026-03-28T09:36:35Z</time></trkpt><trkpt lat="14.445868529903432" lon="121.0454297984629"><ele>18.0</ele><time>2026-03-28T09:36:39Z</time></trkpt><trkpt lat="14.445800378630471" lon="121.0454399682612"><ele>18.0</ele><time>2026-03-28T09:36:41Z</time></trkpt><trkpt lat="14.44571164400918" lon="121.04544489941293"><ele>18.0</ele><time>2026-03-28T09:36:43Z</time></trkpt><trkpt lat="14.445613545302603" lon="121.045438191007"><ele>18.0</ele><time>2026-03-28T09:36:45Z</time></trkpt><trkpt lat="14.44549484022049" lon="121.04543970905867"><ele>18.0</ele><time>2026-03-28T09:36:47Z</time></trkpt><trkpt lat="14.445427901577146" lon="121.04544150573228"><ele>18.0</ele><time>2026-03-28T09:36:48Z</time></trkpt><trkpt lat="14.4453606090143" lon="121.04544262162113"><ele>18.0</ele><time>2026-03-28T09:36:49Z</time></trkpt><trkpt lat="14.445239300654592" lon="121.0454245396237"><ele>17.6</ele><time>2026-03-28T09:36:51Z</time></trkpt><trkpt lat="14.445120335341775" lon="121.0454299468674"><ele>17.200000000000003</ele><time>2026-03-28T09:36:53Z</time></trkpt><trkpt lat="14.445017062318888" lon="121.04544013881835"><ele>16.8</ele><time>2026-03-28T09:36:55Z</time></trkpt><trkpt lat="14.444941061897733" lon="121.04544879838583"><ele>16.400000000000002</ele><time>2026-03-28T09:36:57Z</time></trkpt><trkpt lat="14.444853393113709" lon="121.04546044469362"><ele>16.0</ele><time>2026-03-28T09:37:01Z</time></trkpt><trkpt lat="14.44476764830132" lon="121.04548176312417"><ele>16.0</ele><time>2026-03-28T09:37:03Z</time></trkpt><trkpt lat="14.44477330262301" lon="121.04569124002218"><ele>16.0</ele><time>2026-03-28T09:37:09Z</time></trkpt><trkpt lat="14.444765708517048" lon="121.04581151355276"><ele>16.0</ele><time>2026-03-28T09:37:11Z</time></trkpt><trkpt lat="14.444762125336556" lon="121.04594727894079"><ele>15.600000000000001</ele><time>2026-03-28T09:37:13Z</time></trkpt><trkpt lat="14.44475970085648" lon="121.04602651025803"><ele>15.200000000000001</ele><time>2026-03-28T09:37:14Z</time></trkpt><trkpt lat="14.44477440314801" lon="121.04615652411894"><ele>14.799999999999999</ele><time>2026-03-28T09:37:16Z</time></trkpt><trkpt lat="14.444753148068104" lon="121.04628460516588"><ele>14.399999999999999</ele><time>2026-03-28T09:37:18Z</time></trkpt><trkpt lat="14.444749625818513" lon="121.04634979317252"><ele>14.0</ele><time>2026-03-28T09:37:19Z</time></trkpt><trkpt lat="14.44474927526865" lon="121.04642126231872"><ele>14.000000000000002</ele><time>2026-03-28T09:37:20Z</time></trkpt><trkpt lat="14.444753535755446" lon="121.04649866525507"><ele>14.0</ele><time>2026-03-28T09:37:21Z</time></trkpt><trkpt lat="14.444752879470387" lon="121.0465710334972"><ele>14.0</ele><time>2026-03-28T09:37:22Z</time></trkpt><trkpt lat="14.4447507545177" lon="121.04664938343002"><ele>14.0</ele><time>2026-03-28T09:37:23Z</time></trkpt><trkpt lat="14.444752743417" lon="121.04673441011533"><ele>14.000000000000002</ele><time>2026-03-28T09:37:24Z</time></trkpt><trkpt lat="14.444752473619312" lon="121.04680951297951"><ele>14.0</ele><time>2026-03-28T09:37:25Z</time></trkpt><trkpt lat="14.444752605803883" lon="121.04689432220728"><ele>13.666666666666668</ele><time>2026-03-28T09:37:26Z</time></trkpt><trkpt lat="14.444753342074128" lon="121.04696509889995"><ele>13.333333333333334</ele><time>2026-03-28T09:37:27Z</time></trkpt><trkpt lat="14.444755171019402" lon="121.04710334118538"><ele>13.0</ele><time>2026-03-28T09:37:29Z</time></trkpt><trkpt lat="14.444762783764519" lon="121.04720412651696"><ele>12.666666666666668</ele><time>2026-03-28T09:37:31Z</time></trkpt><trkpt lat="14.444785554330693" lon="121.04726852572593"><ele>12.333333333333334</ele><time>2026-03-28T09:37:33Z</time></trkpt><trkpt lat="14.444781264552669" lon="121.04733393574614"><ele>12.0</ele><time>2026-03-28T09:37:37Z</time></trkpt><trkpt lat="14.444916551366898" lon="121.04737390779343"><ele>12.0</ele><time>2026-03-28T09:37:45Z</time></trkpt><trkpt lat="14.444997717336195" lon="121.0473745832622"><ele>12.0</ele><time>2026-03-28T09:38:05Z</time></trkpt><trkpt lat="14.445128005395116" lon="121.04736005037174"><ele>12.0</ele><time>2026-03-28T09:38:17Z</time></trkpt><trkpt lat="14.445169209596399" lon="121.04730957580723"><ele>12.0</ele><time>2026-03-28T09:38:25Z</time></trkpt><trkpt lat="14.445195192398355" lon="121.04722917242793"><ele>12.0</ele><time>2026-03-28T09:38:32Z</time></trkpt><trkpt lat="14.445217845258458" lon="121.0471590747008"><ele>12.0</ele><time>2026-03-28T09:38:35Z</time></trkpt><trkpt lat="14.44521706678573" lon="121.04706547832065"><ele>12.0</ele><time>2026-03-28T09:38:38Z</time></trkpt><trkpt lat="14.445216262786207" lon="121.04696881412583"><ele>12.0</ele><time>2026-03-28T09:38:41Z</time></trkpt><trkpt lat="14.445215343010712" lon="121.04687247092166"><ele>12.0</ele><time>2026-03-28T09:38:44Z</time></trkpt><trkpt lat="14.44521471878726" lon="121.04680387838009"><ele>12.0</ele><time>2026-03-28T09:38:46Z</time></trkpt><trkpt lat="14.445211328257567" lon="121.04670199683898"><ele>12.0</ele><time>2026-03-28T09:38:48Z</time></trkpt><trkpt lat="14.445204399247107" lon="121.04662638472485"><ele>12.0</ele><time>2026-03-28T09:38:50Z</time></trkpt><trkpt lat="14.445210005295943" lon="121.04654930978714"><ele>12.285714285714285</ele><time>2026-03-28T09:38:52Z</time></trkpt><trkpt lat="14.445207881649948" lon="121.04648380202876"><ele>12.571428571428571</ele><time>2026-03-28T09:38:54Z</time></trkpt><trkpt lat="14.445208448790854" lon="121.0464137927503"><ele>12.857142857142858</ele><time>2026-03-28T09:38:56Z</time></trkpt><trkpt lat="14.445208492708234" lon="121.04634516990753"><ele>13.142857142857142</ele><time>2026-03-28T09:38:58Z</time></trkpt><trkpt lat="14.445207786045884" lon="121.04626340339152"><ele>13.428571428571429</ele><time>2026-03-28T09:39:00Z</time></trkpt><trkpt lat="14.445212853539513" lon="121.04618413271794"><ele>13.714285714285714</ele><time>2026-03-28T09:39:02Z</time></trkpt><trkpt lat="14.445219346375954" lon="121.04608556102251"><ele>14.0</ele><time>2026-03-28T09:39:06Z</time></trkpt><trkpt lat="14.445225555565962" lon="121.04601404912727"><ele>14.0</ele><time>2026-03-28T09:39:09Z</time></trkpt><trkpt lat="14.445045614622414" lon="121.04596417561031"><ele>13.999999999999998</ele><time>2026-03-28T09:39:17Z</time></trkpt><trkpt lat="14.444964772333316" lon="121.04597294449717"><ele>13.999999999999998</ele><time>2026-03-28T09:39:19Z</time></trkpt><trkpt lat="14.444895282182713" lon="121.04595377781101"><ele>14.0</ele><time>2026-03-28T09:39:22Z</time></trkpt><trkpt lat="14.44488848982696" lon="121.04587421939466"><ele>14.0</ele><time>2026-03-28T09:39:26Z</time></trkpt><trkpt lat="14.445203458746741" lon="121.0459444130226"><ele>14.0</ele><time>2026-03-28T09:47:52.02Z</time></trkpt><trkpt lat="14.445020608690148" lon="121.04598955619629"><ele>14.0</ele><time>2026-03-28T09:48:21.018Z</time></trkpt><trkpt lat="14.44494346430886" lon="121.04623198320313"><ele>14.0</ele><time>2026-03-28T09:48:32Z</time></trkpt><trkpt lat="14.445054200123998" lon="121.04592814146284"><ele>14.0</ele><time>2026-03-28T09:48:52.999Z</time></trkpt><trkpt lat="14.44489505592167" lon="121.04587606863068"><ele>13.999999999999998</ele><time>2026-03-28T10:16:00.002Z</time></trkpt><trkpt lat="14.444938183309207" lon="121.04592933901185"><ele>13.999999999999998</ele><time>2026-03-28T10:16:13Z</time></trkpt><trkpt lat="14.44502038996876" lon="121.0459521063377"><ele>14.0</ele><time>2026-03-28T10:16:17Z</time></trkpt><trkpt lat="14.44508091656839" lon="121.04598161901893"><ele>14.0</ele><time>2026-03-28T10:16:19Z</time></trkpt><trkpt lat="14.445285956492231" lon="121.04600973215733"><ele>14.0</ele><time>2026-03-28T10:16:28Z</time></trkpt><trkpt lat="14.445358284324666" lon="121.04599189012097"><ele>14.0</ele><time>2026-03-28T10:16:30Z</time></trkpt><trkpt lat="14.445427925502972" lon="121.04598038957933"><ele>14.0</ele><time>2026-03-28T10:16:34Z</time></trkpt><trkpt lat="14.44549668202061" lon="121.0459687323068"><ele>14.0</ele><time>2026-03-28T10:16:36Z</time></trkpt><trkpt lat="14.445569622981354" lon="121.04594989734065"><ele>14.0</ele><time>2026-03-28T10:16:38Z</time></trkpt><trkpt lat="14.445638177525447" lon="121.04594178947106"><ele>14.0</ele><time>2026-03-28T10:16:40Z</time></trkpt><trkpt lat="14.445704469494487" lon="121.04590234077183"><ele>14.0</ele><time>2026-03-28T10:16:42Z</time></trkpt><trkpt lat="14.445732369604107" lon="121.04581782718077"><ele>14.666666666666668</ele><time>2026-03-28T10:16:45Z</time></trkpt><trkpt lat="14.445735067609087" lon="121.04573921015998"><ele>15.333333333333334</ele><time>2026-03-28T10:16:49Z</time></trkpt><trkpt lat="14.445725640669055" lon="121.0456506674852"><ele>16.0</ele><time>2026-03-28T10:16:53Z</time></trkpt><trkpt lat="14.44570619067533" lon="121.0455842153958"><ele>16.666666666666668</ele><time>2026-03-28T10:16:56Z</time></trkpt><trkpt lat="14.445752461224687" lon="121.0455252732365"><ele>17.333333333333332</ele><time>2026-03-28T10:17:01Z</time></trkpt><trkpt lat="14.445853076789994" lon="121.04550430502243"><ele>18.0</ele><time>2026-03-28T10:17:04Z</time></trkpt><trkpt lat="14.44594976280863" lon="121.04552110342098"><ele>18.0</ele><time>2026-03-28T10:17:06Z</time></trkpt><trkpt lat="14.446027508298053" lon="121.04551275658591"><ele>18.0</ele><time>2026-03-28T10:17:08Z</time></trkpt><trkpt lat="14.446098631885977" lon="121.04552740327874"><ele>18.0</ele><time>2026-03-28T10:17:10Z</time></trkpt><trkpt lat="14.446173926387598" lon="121.04552366892251"><ele>18.0</ele><time>2026-03-28T10:17:13Z</time></trkpt><trkpt lat="14.446241506091907" lon="121.0455221295686"><ele>18.0</ele><time>2026-03-28T10:17:19Z</time></trkpt><trkpt lat="14.446313016593656" lon="121.04551696862252"><ele>18.0</ele><time>2026-03-28T10:17:22Z</time></trkpt><trkpt lat="14.446408865620318" lon="121.04551121367807"><ele>17.833333333333332</ele><time>2026-03-28T10:17:25Z</time></trkpt><trkpt lat="14.44649453216463" lon="121.04550065148314"><ele>17.666666666666668</ele><time>2026-03-28T10:17:27Z</time></trkpt><trkpt lat="14.446569159430943" lon="121.04549393902383"><ele>17.5</ele><time>2026-03-28T10:17:29Z</time></trkpt><trkpt lat="14.446656713379745" lon="121.04549872091528"><ele>17.333333333333336</ele><time>2026-03-28T10:17:31Z</time></trkpt><trkpt lat="14.446761777825882" lon="121.0455042284522"><ele>17.166666666666668</ele><time>2026-03-28T10:17:33Z</time></trkpt><trkpt lat="14.446835925193593" lon="121.04551169550199"><ele>17.0</ele><time>2026-03-28T10:17:35Z</time></trkpt><trkpt lat="14.446928043640252" lon="121.0455032067506"><ele>17.0</ele><time>2026-03-28T10:17:37Z</time></trkpt><trkpt lat="14.447020487445903" lon="121.04549745615793"><ele>17.0</ele><time>2026-03-28T10:17:39Z</time></trkpt><trkpt lat="14.447121795663874" lon="121.0454915659099"><ele>17.0</ele><time>2026-03-28T10:17:41Z</time></trkpt><trkpt lat="14.447224703560563" lon="121.04549180147202"><ele>17.0</ele><time>2026-03-28T10:17:43Z</time></trkpt><trkpt lat="14.447343437680997" lon="121.0454943698997"><ele>17.0</ele><time>2026-03-28T10:17:45Z</time></trkpt><trkpt lat="14.447408748216606" lon="121.04549798566072"><ele>16.666666666666668</ele><time>2026-03-28T10:17:46Z</time></trkpt><trkpt lat="14.447473451954753" lon="121.04549378541958"><ele>16.333333333333336</ele><time>2026-03-28T10:17:47Z</time></trkpt><trkpt lat="14.44760066686077" lon="121.04550039099925"><ele>16.0</ele><time>2026-03-28T10:17:49Z</time></trkpt><trkpt lat="14.447666120046582" lon="121.04550006951193"><ele>15.666666666666668</ele><time>2026-03-28T10:17:50Z</time></trkpt><trkpt lat="14.447739376546176" lon="121.04549800753031"><ele>15.333333333333334</ele><time>2026-03-28T10:17:51Z</time></trkpt><trkpt lat="14.447805144689706" lon="121.04549774690982"><ele>15.0</ele><time>2026-03-28T10:17:52Z</time></trkpt><trkpt lat="14.447872472464566" lon="121.04550093415585"><ele>15.0</ele><time>2026-03-28T10:17:53Z</time></trkpt><trkpt lat="14.44793545947644" lon="121.04549941378868"><ele>15.0</ele><time>2026-03-28T10:17:54Z</time></trkpt><trkpt lat="14.448044618910508" lon="121.04549943191323"><ele>15.0</ele><time>2026-03-28T10:17:56Z</time></trkpt><trkpt lat="14.448147483454612" lon="121.0454987845578"><ele>15.0</ele><time>2026-03-28T10:17:58Z</time></trkpt><trkpt lat="14.44826083358056" lon="121.04548958857376"><ele>15.0</ele><time>2026-03-28T10:18:00Z</time></trkpt><trkpt lat="14.448383442709298" lon="121.04548370930611"><ele>14.8</ele><time>2026-03-28T10:18:02Z</time></trkpt><trkpt lat="14.448508489601874" lon="121.04548560344284"><ele>14.6</ele><time>2026-03-28T10:18:04Z</time></trkpt><trkpt lat="14.448634218832522" lon="121.04548273438165"><ele>14.399999999999999</ele><time>2026-03-28T10:18:06Z</time></trkpt><trkpt lat="14.448754442963345" lon="121.04548420024672"><ele>14.2</ele><time>2026-03-28T10:18:08Z</time></trkpt><trkpt lat="14.448817386453452" lon="121.04548734837778"><ele>14.0</ele><time>2026-03-28T10:18:09Z</time></trkpt><trkpt lat="14.448889320685817" lon="121.04548196922129"><ele>14.500000000000002</ele><time>2026-03-28T10:18:10Z</time></trkpt><trkpt lat="14.448960804068212" lon="121.04548340086698"><ele>15.0</ele><time>2026-03-28T10:18:11Z</time></trkpt><trkpt lat="14.449038327759256" lon="121.04548556392783"><ele>15.5</ele><time>2026-03-28T10:18:12Z</time></trkpt><trkpt lat="14.449118704224018" lon="121.04547997258966"><ele>16.0</ele><time>2026-03-28T10:18:13Z</time></trkpt><trkpt lat="14.449196598394847" lon="121.04548273947"><ele>16.5</ele><time>2026-03-28T10:18:14Z</time></trkpt><trkpt lat="14.449282517513545" lon="121.04548549489175"><ele>17.0</ele><time>2026-03-28T10:18:15Z</time></trkpt><trkpt lat="14.449371278926902" lon="121.0454861034202"><ele>17.0</ele><time>2026-03-28T10:18:16Z</time></trkpt><trkpt lat="14.449454659323012" lon="121.04548345100966"><ele>17.0</ele><time>2026-03-28T10:18:17Z</time></trkpt><trkpt lat="14.449533238906652" lon="121.04548558901823"><ele>17.0</ele><time>2026-03-28T10:18:18Z</time></trkpt><trkpt lat="14.449612338046753" lon="121.04548715568937"><ele>17.0</ele><time>2026-03-28T10:18:19Z</time></trkpt><trkpt lat="14.44968556944991" lon="121.04548841374411"><ele>17.0</ele><time>2026-03-28T10:18:20Z</time></trkpt><trkpt lat="14.44975300252779" lon="121.04549199635429"><ele>17.0</ele><time>2026-03-28T10:18:21Z</time></trkpt><trkpt lat="14.449822973691674" lon="121.0454910042589"><ele>17.4</ele><time>2026-03-28T10:18:22Z</time></trkpt><trkpt lat="14.449889594313657" lon="121.04549600920608"><ele>17.799999999999997</ele><time>2026-03-28T10:18:23Z</time></trkpt><trkpt lat="14.449955712829741" lon="121.04545797461095"><ele>18.2</ele><time>2026-03-28T10:18:24Z</time></trkpt><trkpt lat="14.450067353953163" lon="121.04550955315896"><ele>18.599999999999998</ele><time>2026-03-28T10:18:26Z</time></trkpt><trkpt lat="14.450172034116328" lon="121.04549722304455"><ele>19.0</ele><time>2026-03-28T10:18:28Z</time></trkpt><trkpt lat="14.450286693650666" lon="121.04549345048251"><ele>19.0</ele><time>2026-03-28T10:18:30Z</time></trkpt><trkpt lat="14.450411946628357" lon="121.04549544979601"><ele>19.0</ele><time>2026-03-28T10:18:32Z</time></trkpt><trkpt lat="14.450484126698766" lon="121.04548979361725"><ele>19.0</ele><time>2026-03-28T10:18:33Z</time></trkpt><trkpt lat="14.450554138507657" lon="121.04548676450429"><ele>19.0</ele><time>2026-03-28T10:18:34Z</time></trkpt><trkpt lat="14.450625231412412" lon="121.04548817250252"><ele>19.0</ele><time>2026-03-28T10:18:35Z</time></trkpt><trkpt lat="14.450699133860807" lon="121.04548824790281"><ele>19.0</ele><time>2026-03-28T10:18:36Z</time></trkpt><trkpt lat="14.45077352424061" lon="121.04548383326403"><ele>19.142857142857142</ele><time>2026-03-28T10:18:37Z</time></trkpt><trkpt lat="14.450848908180955" lon="121.04547860681556"><ele>19.28571428571429</ele><time>2026-03-28T10:18:38Z</time></trkpt><trkpt lat="14.450921674559613" lon="121.04547627359302"><ele>19.42857142857143</ele><time>2026-03-28T10:18:39Z</time></trkpt><trkpt lat="14.450994317352512" lon="121.04547826046029"><ele>19.57142857142857</ele><time>2026-03-28T10:18:40Z</time></trkpt><trkpt lat="14.451067444437463" lon="121.04547534343263"><ele>19.714285714285715</ele><time>2026-03-28T10:18:41Z</time></trkpt><trkpt lat="14.451136750039664" lon="121.04547757999744"><ele>19.857142857142858</ele><time>2026-03-28T10:18:42Z</time></trkpt><trkpt lat="14.451214147283112" lon="121.04547223199636"><ele>20.0</ele><time>2026-03-28T10:18:43Z</time></trkpt><trkpt lat="14.451287105873275" lon="121.04547483799745"><ele>18.833333333333336</ele><time>2026-03-28T10:18:44Z</time></trkpt><trkpt lat="14.451361679078563" lon="121.04550234038018"><ele>17.666666666666668</ele><time>2026-03-28T10:18:45Z</time></trkpt><trkpt lat="14.451434557305094" lon="121.04547514384616"><ele>16.5</ele><time>2026-03-28T10:18:46Z</time></trkpt><trkpt lat="14.451511475312154" lon="121.04547449720967"><ele>15.333333333333332</ele><time>2026-03-28T10:18:47Z</time></trkpt><trkpt lat="14.4515848945319" lon="121.04547215836887"><ele>14.166666666666666</ele><time>2026-03-28T10:18:48Z</time></trkpt><trkpt lat="14.451656766642628" lon="121.04547674607876"><ele>13.0</ele><time>2026-03-28T10:18:49Z</time></trkpt><trkpt lat="14.451733268573445" lon="121.04550129183934"><ele>12.999999999999998</ele><time>2026-03-28T10:18:50Z</time></trkpt><trkpt lat="14.451806065352379" lon="121.04548098155874"><ele>13.0</ele><time>2026-03-28T10:18:51Z</time></trkpt><trkpt lat="14.451882949068233" lon="121.04548271026857"><ele>13.0</ele><time>2026-03-28T10:18:52Z</time></trkpt><trkpt lat="14.451963098080832" lon="121.0454873472314"><ele>13.0</ele><time>2026-03-28T10:18:53Z</time></trkpt><trkpt lat="14.45204465505914" lon="121.0454946477549"><ele>12.999999999999998</ele><time>2026-03-28T10:18:54Z</time></trkpt><trkpt lat="14.45212447443976" lon="121.04550529388436"><ele>13.0</ele><time>2026-03-28T10:18:55Z</time></trkpt><trkpt lat="14.452203625510903" lon="121.04551745707141"><ele>13.999999999999998</ele><time>2026-03-28T10:18:56Z</time></trkpt><trkpt lat="14.452288350110923" lon="121.04552994954199"><ele>15.0</ele><time>2026-03-28T10:18:57Z</time></trkpt><trkpt lat="14.452367152679303" lon="121.045545012568"><ele>16.0</ele><time>2026-03-28T10:18:58Z</time></trkpt><trkpt lat="14.452449070724537" lon="121.04556160917389"><ele>17.0</ele><time>2026-03-28T10:18:59Z</time></trkpt><trkpt lat="14.452519479136024" lon="121.04558338179477"><ele>18.0</ele><time>2026-03-28T10:19:00Z</time></trkpt><trkpt lat="14.452586740967655" lon="121.04559493814573"><ele>19.0</ele><time>2026-03-28T10:19:01Z</time></trkpt><trkpt lat="14.452699465733627" lon="121.04562743207069"><ele>19.0</ele><time>2026-03-28T10:19:03Z</time></trkpt><trkpt lat="14.452791864370564" lon="121.04566253385504"><ele>19.0</ele><time>2026-03-28T10:19:05Z</time></trkpt><trkpt lat="14.452861354967615" lon="121.04568367623357"><ele>19.0</ele><time>2026-03-28T10:19:07Z</time></trkpt><trkpt lat="14.452930415039377" lon="121.04569772235031"><ele>19.0</ele><time>2026-03-28T10:19:09Z</time></trkpt><trkpt lat="14.452995393362695" lon="121.04571878984098"><ele>19.0</ele><time>2026-03-28T10:19:11Z</time></trkpt><trkpt lat="14.4530681726256" lon="121.04576803175881"><ele>19.0</ele><time>2026-03-28T10:19:13Z</time></trkpt><trkpt lat="14.453148103550461" lon="121.04582164679739"><ele>19.71428571428571</ele><time>2026-03-28T10:19:15Z</time></trkpt><trkpt lat="14.453216319307424" lon="121.04586391005677"><ele>20.42857142857143</ele><time>2026-03-28T10:19:17Z</time></trkpt><trkpt lat="14.453273172292143" lon="121.04589608038917"><ele>21.142857142857142</ele><time>2026-03-28T10:19:19Z</time></trkpt><trkpt lat="14.453331318214204" lon="121.0459225362717"><ele>21.857142857142854</ele><time>2026-03-28T10:19:21Z</time></trkpt><trkpt lat="14.45339795876969" lon="121.04594896330197"><ele>22.57142857142857</ele><time>2026-03-28T10:19:24Z</time></trkpt><trkpt lat="14.453463490599264" lon="121.04598763807007"><ele>23.285714285714285</ele><time>2026-03-28T10:19:40Z</time></trkpt><trkpt lat="14.453526559182675" lon="121.04599827402758"><ele>24.0</ele><time>2026-03-28T10:19:44Z</time></trkpt><trkpt lat="14.453589473675235" lon="121.04597849168455"><ele>24.0</ele><time>2026-03-28T10:19:49Z</time></trkpt><trkpt lat="14.453632093768437" lon="121.04591753206007"><ele>24.0</ele><time>2026-03-28T10:19:56Z</time></trkpt><trkpt lat="14.453660114712028" lon="121.04599334921895"><ele>24.0</ele><time>2026-03-28T10:19:58Z</time></trkpt><trkpt lat="14.45369144818242" lon="121.04577854414161"><ele>24.0</ele><time>2026-03-28T10:20:00Z</time></trkpt><trkpt lat="14.453703873829655" lon="121.04570304653203"><ele>24.0</ele><time>2026-03-28T10:20:02Z</time></trkpt><trkpt lat="14.45372668847218" lon="121.04560856613078"><ele>23.799999999999997</ele><time>2026-03-28T10:20:04Z</time></trkpt><trkpt lat="14.453750858968597" lon="121.04550093580083"><ele>23.599999999999998</ele><time>2026-03-28T10:20:06Z</time></trkpt><trkpt lat="14.453784473905493" lon="121.04538029260014"><ele>23.4</ele><time>2026-03-28T10:20:08Z</time></trkpt><trkpt lat="14.453812387824563" lon="121.04526771323842"><ele>23.2</ele><time>2026-03-28T10:20:10Z</time></trkpt><trkpt lat="14.453833934549117" lon="121.04517759547593"><ele>23.0</ele><time>2026-03-28T10:20:12Z</time></trkpt><trkpt lat="14.453851270149396" lon="121.04510132238606"><ele>23.571428571428573</ele><time>2026-03-28T10:20:14Z</time></trkpt><trkpt lat="14.453874901582525" lon="121.04503693899314"><ele>24.142857142857142</ele><time>2026-03-28T10:20:17Z</time></trkpt><trkpt lat="14.453899976976203" lon="121.04496715593997"><ele>24.714285714285715</ele><time>2026-03-28T10:20:21Z</time></trkpt><trkpt lat="14.453932216181547" lon="121.04490638392515"><ele>25.285714285714285</ele><time>2026-03-28T10:20:23Z</time></trkpt><trkpt lat="14.453950722998064" lon="121.04483275718755"><ele>25.857142857142854</ele><time>2026-03-28T10:20:27Z</time></trkpt><trkpt lat="14.45395899919977" lon="121.04475968150668"><ele>26.428571428571427</ele><time>2026-03-28T10:20:38Z</time></trkpt><trkpt lat="14.453992854166001" lon="121.04468672928229"><ele>27.0</ele><time>2026-03-28T10:20:42Z</time></trkpt><trkpt lat="14.454020837799158" lon="121.04461166270961"><ele>27.8</ele><time>2026-03-28T10:20:44Z</time></trkpt><trkpt lat="14.454045716813525" lon="121.04453923838035"><ele>28.6</ele><time>2026-03-28T10:20:46Z</time></trkpt><trkpt lat="14.454076995845547" lon="121.04444883098823"><ele>29.400000000000002</ele><time>2026-03-28T10:20:48Z</time></trkpt><trkpt lat="14.454115656452933" lon="121.04433690294086"><ele>30.200000000000003</ele><time>2026-03-28T10:20:50Z</time></trkpt><trkpt lat="14.454157085136565" lon="121.04422079307744"><ele>31.0</ele><time>2026-03-28T10:20:52Z</time></trkpt><trkpt lat="14.454177151998659" lon="121.04415917381672"><ele>31.500000000000004</ele><time>2026-03-28T10:20:53Z</time></trkpt><trkpt lat="14.454197763945901" lon="121.04409724472264"><ele>32.0</ele><time>2026-03-28T10:20:54Z</time></trkpt><trkpt lat="14.454220217036395" lon="121.04402978385636"><ele>32.5</ele><time>2026-03-28T10:20:55Z</time></trkpt><trkpt lat="14.454255759994664" lon="121.04389417908689"><ele>33.0</ele><time>2026-03-28T10:20:57Z</time></trkpt><trkpt lat="14.45429281297609" lon="121.04382318899724"><ele>33.5</ele><time>2026-03-28T10:20:58Z</time></trkpt><trkpt lat="14.454313390842383" lon="121.04375846187155"><ele>34.0</ele><time>2026-03-28T10:20:59Z</time></trkpt><trkpt lat="14.454335429117094" lon="121.04369615460499"><ele>34.0</ele><time>2026-03-28T10:21:00Z</time></trkpt><trkpt lat="14.454366258987957" lon="121.04361462361676"><ele>34.0</ele><time>2026-03-28T10:21:01Z</time></trkpt><trkpt lat="14.45439086939545" lon="121.04354426613243"><ele>34.0</ele><time>2026-03-28T10:21:02Z</time></trkpt><trkpt lat="14.454412650615895" lon="121.04347301926721"><ele>34.0</ele><time>2026-03-28T10:21:03Z</time></trkpt><trkpt lat="14.454438042367888" lon="121.04339749540047"><ele>34.0</ele><time>2026-03-28T10:21:04Z</time></trkpt><trkpt lat="14.45446117499362" lon="121.04332895375721"><ele>34.0</ele><time>2026-03-28T10:21:05Z</time></trkpt><trkpt lat="14.454483987108807" lon="121.04325782796002"><ele>34.4</ele><time>2026-03-28T10:21:06Z</time></trkpt><trkpt lat="14.45451671340109" lon="121.0431986104921"><ele>34.8</ele><time>2026-03-28T10:21:07Z</time></trkpt><trkpt lat="14.454556147362386" lon="121.04308275273826"><ele>35.2</ele><time>2026-03-28T10:21:09Z</time></trkpt><trkpt lat="14.454596651664106" lon="121.0429649803559"><ele>35.6</ele><time>2026-03-28T10:21:11Z</time></trkpt><trkpt lat="14.454623645043762" lon="121.04285694626624"><ele>36.0</ele><time>2026-03-28T10:21:13Z</time></trkpt><trkpt lat="14.45464630134769" lon="121.04279237175105"><ele>36.00000000000001</ele><time>2026-03-28T10:21:14Z</time></trkpt><trkpt lat="14.45467050945811" lon="121.04272522697035"><ele>36.0</ele><time>2026-03-28T10:21:15Z</time></trkpt><trkpt lat="14.45469747237581" lon="121.0426547081372"><ele>36.0</ele><time>2026-03-28T10:21:16Z</time></trkpt><trkpt lat="14.454727800414858" lon="121.04258532332679"><ele>36.0</ele><time>2026-03-28T10:21:17Z</time></trkpt><trkpt lat="14.45473796705041" lon="121.04251021376302"><ele>36.0</ele><time>2026-03-28T10:21:18Z</time></trkpt><trkpt lat="14.454761650361368" lon="121.04244269618403"><ele>36.00000000000001</ele><time>2026-03-28T10:21:19Z</time></trkpt><trkpt lat="14.45478440950485" lon="121.04236585809443"><ele>36.0</ele><time>2026-03-28T10:21:20Z</time></trkpt><trkpt lat="14.45480836193141" lon="121.04228124360874"><ele>36.166666666666664</ele><time>2026-03-28T10:21:21Z</time></trkpt><trkpt lat="14.454836502517168" lon="121.04218361738025"><ele>36.333333333333336</ele><time>2026-03-28T10:21:22Z</time></trkpt><trkpt lat="14.45487152290138" lon="121.04209980540443"><ele>36.5</ele><time>2026-03-28T10:21:23Z</time></trkpt><trkpt lat="14.454872200672403" lon="121.04202014795297"><ele>36.66666666666667</ele><time>2026-03-28T10:21:24Z</time></trkpt><trkpt lat="14.454898403421303" lon="121.0419341322805"><ele>36.833333333333336</ele><time>2026-03-28T10:21:25Z</time></trkpt><trkpt lat="14.454924542014794" lon="121.04184172116241"><ele>37.0</ele><time>2026-03-28T10:21:26Z</time></trkpt><trkpt lat="14.454951364760618" lon="121.04176069560584"><ele>37.0</ele><time>2026-03-28T10:21:27Z</time></trkpt><trkpt lat="14.454978593796945" lon="121.04168400239607"><ele>37.0</ele><time>2026-03-28T10:21:28Z</time></trkpt><trkpt lat="14.454988467334733" lon="121.04161116001639"><ele>37.0</ele><time>2026-03-28T10:21:29Z</time></trkpt><trkpt lat="14.455003012792185" lon="121.04153415207129"><ele>37.0</ele><time>2026-03-28T10:21:30Z</time></trkpt><trkpt lat="14.455031190500709" lon="121.04140782114469"><ele>37.0</ele><time>2026-03-28T10:21:32Z</time></trkpt><trkpt lat="14.45504075079469" lon="121.04134335886893"><ele>37.0</ele><time>2026-03-28T10:21:33Z</time></trkpt><trkpt lat="14.455063608398406" lon="121.04127616519115"><ele>37.142857142857146</ele><time>2026-03-28T10:21:34Z</time></trkpt><trkpt lat="14.455083783944607" lon="121.04120607882774"><ele>37.285714285714285</ele><time>2026-03-28T10:21:35Z</time></trkpt><trkpt lat="14.455101189639104" lon="121.04113639323555"><ele>37.42857142857143</ele><time>2026-03-28T10:21:36Z</time></trkpt><trkpt lat="14.455114415735977" lon="121.0410581958199"><ele>37.57142857142857</ele><time>2026-03-28T10:21:37Z</time></trkpt><trkpt lat="14.455128789004444" lon="121.04097993549243"><ele>37.714285714285715</ele><time>2026-03-28T10:21:38Z</time></trkpt><trkpt lat="14.45514683840024" lon="121.04090822685366"><ele>37.857142857142854</ele><time>2026-03-28T10:21:39Z</time></trkpt><trkpt lat="14.455162726965792" lon="121.04083064840775"><ele>38.0</ele><time>2026-03-28T10:21:40Z</time></trkpt><trkpt lat="14.455183654734839" lon="121.04074451821222"><ele>38.0</ele><time>2026-03-28T10:21:41Z</time></trkpt><trkpt lat="14.4551987069702" lon="121.04066509205117"><ele>38.0</ele><time>2026-03-28T10:21:42Z</time></trkpt><trkpt lat="14.455216694095482" lon="121.04057555736911"><ele>38.0</ele><time>2026-03-28T10:21:43Z</time></trkpt><trkpt lat="14.455238723410467" lon="121.04050068767901"><ele>38.0</ele><time>2026-03-28T10:21:44Z</time></trkpt><trkpt lat="14.455261988631088" lon="121.0404093793707"><ele>38.0</ele><time>2026-03-28T10:21:45Z</time></trkpt><trkpt lat="14.4552724739993" lon="121.04029847594806"><ele>38.0</ele><time>2026-03-28T10:21:46Z</time></trkpt><trkpt lat="14.455300222721506" lon="121.04018828430132"><ele>38.0</ele><time>2026-03-28T10:21:47Z</time></trkpt><trkpt lat="14.45532809023358" lon="121.04008902921383"><ele>38.0</ele><time>2026-03-28T10:21:48Z</time></trkpt><trkpt lat="14.455349452001009" lon="121.03998802926495"><ele>38.0</ele><time>2026-03-28T10:21:49Z</time></trkpt><trkpt lat="14.455374945246893" lon="121.0398898591056"><ele>38.0</ele><time>2026-03-28T10:21:50Z</time></trkpt><trkpt lat="14.45540600204244" lon="121.0397896418736"><ele>38.0</ele><time>2026-03-28T10:21:51Z</time></trkpt><trkpt lat="14.455425583260787" lon="121.03968560756653"><ele>38.0</ele><time>2026-03-28T10:21:52Z</time></trkpt><trkpt lat="14.455448266373665" lon="121.0395822299208"><ele>38.0</ele><time>2026-03-28T10:21:53Z</time></trkpt><trkpt lat="14.45548226461614" lon="121.03947589820079"><ele>38.0</ele><time>2026-03-28T10:21:54Z</time></trkpt><trkpt lat="14.45551914918725" lon="121.03938047834532"><ele>38.0</ele><time>2026-03-28T10:21:55Z</time></trkpt><trkpt lat="14.455544353190488" lon="121.03927790674555"><ele>38.0</ele><time>2026-03-28T10:21:56Z</time></trkpt><trkpt lat="14.455566974878622" lon="121.03917677996873"><ele>37.666666666666664</ele><time>2026-03-28T10:21:57Z</time></trkpt><trkpt lat="14.455595251829358" lon="121.03907761143499"><ele>37.33333333333333</ele><time>2026-03-28T10:21:58Z</time></trkpt><trkpt lat="14.455618729212084" lon="121.03898344176523"><ele>37.0</ele><time>2026-03-28T10:21:59Z</time></trkpt><trkpt lat="14.455641367921446" lon="121.03889033948322"><ele>36.666666666666664</ele><time>2026-03-28T10:22:00Z</time></trkpt><trkpt lat="14.45566328551789" lon="121.03881368018646"><ele>36.333333333333336</ele><time>2026-03-28T10:22:01Z</time></trkpt><trkpt lat="14.455684882075785" lon="121.03874852529677"><ele>36.0</ele><time>2026-03-28T10:22:02Z</time></trkpt><trkpt lat="14.455700842319793" lon="121.03867389072332"><ele>36.0</ele><time>2026-03-28T10:22:04Z</time></trkpt><trkpt lat="14.455680414846018" lon="121.0386123306332"><ele>36.0</ele><time>2026-03-28T10:22:15Z</time></trkpt><trkpt lat="14.455666311060822" lon="121.03871185529806"><ele>36.0</ele><time>2026-03-28T10:22:23Z</time></trkpt><trkpt lat="14.455640201705739" lon="121.03882344968613"><ele>36.0</ele><time>2026-03-28T10:22:25Z</time></trkpt><trkpt lat="14.455566286463444" lon="121.03893801413068"><ele>36.0</ele><time>2026-03-28T10:22:26Z</time></trkpt><trkpt lat="14.45554566631693" lon="121.03901905387374"><ele>36.0</ele><time>2026-03-28T10:22:27Z</time></trkpt><trkpt lat="14.455518814004142" lon="121.03911881722136"><ele>36.0</ele><time>2026-03-28T10:22:28Z</time></trkpt><trkpt lat="14.45549246149952" lon="121.03921672399572"><ele>36.0</ele><time>2026-03-28T10:22:29Z</time></trkpt><trkpt lat="14.4554713720385" lon="121.03931749337596"><ele>36.0</ele><time>2026-03-28T10:22:30Z</time></trkpt><trkpt lat="14.455449345451228" lon="121.0394139578373"><ele>36.0</ele><time>2026-03-28T10:22:31Z</time></trkpt><trkpt lat="14.455425586319205" lon="121.03951111389613"><ele>37.8</ele><time>2026-03-28T10:22:32Z</time></trkpt><trkpt lat="14.455383761183347" lon="121.03958913128376"><ele>39.6</ele><time>2026-03-28T10:22:33Z</time></trkpt><trkpt lat="14.455362357037137" lon="121.03968698052329"><ele>41.4</ele><time>2026-03-28T10:22:34Z</time></trkpt><trkpt lat="14.455336596173506" lon="121.0397867344186"><ele>43.2</ele><time>2026-03-28T10:22:35Z</time></trkpt><trkpt lat="14.455312081911904" lon="121.0398898145928"><ele>45.0</ele><time>2026-03-28T10:22:36Z</time></trkpt><trkpt lat="14.45528936739204" lon="121.0399654172063"><ele>43.833333333333336</ele><time>2026-03-28T10:22:37Z</time></trkpt><trkpt lat="14.455272904146321" lon="121.04004557945393"><ele>42.666666666666664</ele><time>2026-03-28T10:22:38Z</time></trkpt><trkpt lat="14.455255238958264" lon="121.04012977022629"><ele>41.5</ele><time>2026-03-28T10:22:39Z</time></trkpt><trkpt lat="14.455233244849333" lon="121.0402045367487"><ele>40.33333333333333</ele><time>2026-03-28T10:22:40Z</time></trkpt><trkpt lat="14.45521429775956" lon="121.04027996918772"><ele>39.166666666666664</ele><time>2026-03-28T10:22:41Z</time></trkpt><trkpt lat="14.455197508287036" lon="121.04036683762094"><ele>38.0</ele><time>2026-03-28T10:22:42Z</time></trkpt><trkpt lat="14.455169257011544" lon="121.04044327122831"><ele>38.0</ele><time>2026-03-28T10:22:43Z</time></trkpt><trkpt lat="14.455145269085437" lon="121.04053926138083"><ele>38.0</ele><time>2026-03-28T10:22:44Z</time></trkpt><trkpt lat="14.455128470218845" lon="121.0406346296272"><ele>38.0</ele><time>2026-03-28T10:22:45Z</time></trkpt><trkpt lat="14.45510716302455" lon="121.04073071795973"><ele>38.0</ele><time>2026-03-28T10:22:46Z</time></trkpt><trkpt lat="14.455086907661922" lon="121.04082204026261"><ele>38.0</ele><time>2026-03-28T10:22:47Z</time></trkpt><trkpt lat="14.455073196675473" lon="121.04090363884785"><ele>38.0</ele><time>2026-03-28T10:22:48Z</time></trkpt><trkpt lat="14.45505642005783" lon="121.04100340654264"><ele>38.0</ele><time>2026-03-28T10:22:49Z</time></trkpt><trkpt lat="14.455019179453561" lon="121.04111591858296"><ele>38.0</ele><time>2026-03-28T10:22:50Z</time></trkpt><trkpt lat="14.454987130453988" lon="121.04121527841039"><ele>38.0</ele><time>2026-03-28T10:22:51Z</time></trkpt><trkpt lat="14.454956227178673" lon="121.04132482688478"><ele>38.0</ele><time>2026-03-28T10:22:52Z</time></trkpt><trkpt lat="14.454927281631354" lon="121.04143926703779"><ele>38.0</ele><time>2026-03-28T10:22:53Z</time></trkpt><trkpt lat="14.454898782280981" lon="121.04154167129595"><ele>38.0</ele><time>2026-03-28T10:22:54Z</time></trkpt><trkpt lat="14.454864835868012" lon="121.04165382917188"><ele>38.0</ele><time>2026-03-28T10:22:55Z</time></trkpt><trkpt lat="14.454822211846842" lon="121.04175786471725"><ele>38.0</ele><time>2026-03-28T10:22:56Z</time></trkpt><trkpt lat="14.454780060608503" lon="121.04185712616166"><ele>38.0</ele><time>2026-03-28T10:22:57Z</time></trkpt><trkpt lat="14.45474660799605" lon="121.04196263722967"><ele>37.8</ele><time>2026-03-28T10:22:58Z</time></trkpt><trkpt lat="14.454728081996302" lon="121.04207863829399"><ele>37.599999999999994</ele><time>2026-03-28T10:22:59Z</time></trkpt><trkpt lat="14.454699030450405" lon="121.0421814221541"><ele>37.400000000000006</ele><time>2026-03-28T10:23:00Z</time></trkpt><trkpt lat="14.454659182530845" lon="121.04228947602074"><ele>37.2</ele><time>2026-03-28T10:23:01Z</time></trkpt><trkpt lat="14.454629246153324" lon="121.04237708011182"><ele>37.0</ele><time>2026-03-28T10:23:02Z</time></trkpt><trkpt lat="14.454591073969965" lon="121.04248021783214"><ele>37.4</ele><time>2026-03-28T10:23:03Z</time></trkpt><trkpt lat="14.454564808577052" lon="121.04258535449681"><ele>37.800000000000004</ele><time>2026-03-28T10:23:04Z</time></trkpt><trkpt lat="14.454539114233588" lon="121.04269381202937"><ele>38.2</ele><time>2026-03-28T10:23:05Z</time></trkpt><trkpt lat="14.454511796426761" lon="121.04279625157082"><ele>38.6</ele><time>2026-03-28T10:23:06Z</time></trkpt><trkpt lat="14.45449377504666" lon="121.0428900447516"><ele>39.0</ele><time>2026-03-28T10:23:07Z</time></trkpt><trkpt lat="14.454486871647957" lon="121.0429862325653"><ele>39.0</ele><time>2026-03-28T10:23:08Z</time></trkpt><trkpt lat="14.454490841810166" lon="121.0430865639245"><ele>39.0</ele><time>2026-03-28T10:23:09Z</time></trkpt><trkpt lat="14.454511502261132" lon="121.04319182546145"><ele>39.0</ele><time>2026-03-28T10:23:10Z</time></trkpt><trkpt lat="14.454527801206998" lon="121.04329341930104"><ele>39.0</ele><time>2026-03-28T10:23:11Z</time></trkpt><trkpt lat="14.454571656372972" lon="121.04336984142644"><ele>39.0</ele><time>2026-03-28T10:23:12Z</time></trkpt><trkpt lat="14.454608808200966" lon="121.04345000820587"><ele>38.4</ele><time>2026-03-28T10:23:13Z</time></trkpt><trkpt lat="14.454643406039551" lon="121.04352458270286"><ele>37.8</ele><time>2026-03-28T10:23:14Z</time></trkpt><trkpt lat="14.454684953741332" lon="121.04363946799266"><ele>37.2</ele><time>2026-03-28T10:23:16Z</time></trkpt><trkpt lat="14.454706715219722" lon="121.04374315197035"><ele>36.6</ele><time>2026-03-28T10:23:18Z</time></trkpt><trkpt lat="14.454748120842535" lon="121.04382865240308"><ele>36.0</ele><time>2026-03-28T10:23:20Z</time></trkpt><trkpt lat="14.454753342739671" lon="121.04390797545854"><ele>36.0</ele><time>2026-03-28T10:23:22Z</time></trkpt><trkpt lat="14.4547758570848" lon="121.04398395775017"><ele>36.0</ele><time>2026-03-28T10:23:25Z</time></trkpt><trkpt lat="14.454800365785784" lon="121.04406992840964"><ele>36.0</ele><time>2026-03-28T10:23:28Z</time></trkpt><trkpt lat="14.454826702679018" lon="121.04416060093101"><ele>36.0</ele><time>2026-03-28T10:23:30Z</time></trkpt><trkpt lat="14.45485704735175" lon="121.04424959106714"><ele>36.0</ele><time>2026-03-28T10:23:32Z</time></trkpt><trkpt lat="14.454899205361723" lon="121.04433754221536"><ele>36.0</ele><time>2026-03-28T10:23:34Z</time></trkpt><trkpt lat="14.454924473652014" lon="121.04443749909596"><ele>35.333333333333336</ele><time>2026-03-28T10:23:36Z</time></trkpt><trkpt lat="14.454950729119828" lon="121.04450665124087"><ele>34.666666666666664</ele><time>2026-03-28T10:23:37Z</time></trkpt><trkpt lat="14.454985462458975" lon="121.0445744463318"><ele>34.0</ele><time>2026-03-28T10:23:38Z</time></trkpt><trkpt lat="14.455023916319789" lon="121.04465121513488"><ele>33.33333333333333</ele><time>2026-03-28T10:23:39Z</time></trkpt><trkpt lat="14.455052067623427" lon="121.04473954667472"><ele>32.666666666666664</ele><time>2026-03-28T10:23:40Z</time></trkpt><trkpt lat="14.455087271199433" lon="121.04482219295821"><ele>32.0</ele><time>2026-03-28T10:23:41Z</time></trkpt><trkpt lat="14.455124978115013" lon="121.04491154891828"><ele>32.0</ele><time>2026-03-28T10:23:42Z</time></trkpt><trkpt lat="14.455156627348856" lon="121.04501197290541"><ele>32.0</ele><time>2026-03-28T10:23:43Z</time></trkpt><trkpt lat="14.455195110258183" lon="121.04509758734686"><ele>32.0</ele><time>2026-03-28T10:23:44Z</time></trkpt><trkpt lat="14.455240388958783" lon="121.04518881191376"><ele>32.0</ele><time>2026-03-28T10:23:45Z</time></trkpt><trkpt lat="14.455282666574648" lon="121.045275039904"><ele>32.0</ele><time>2026-03-28T10:23:46Z</time></trkpt><trkpt lat="14.45533612342443" lon="121.04535542782949"><ele>32.0</ele><time>2026-03-28T10:23:47Z</time></trkpt><trkpt lat="14.45540625613671" lon="121.04542580267405"><ele>32.0</ele><time>2026-03-28T10:23:48Z</time></trkpt><trkpt lat="14.455483006172345" lon="121.04548285856916"><ele>32.0</ele><time>2026-03-28T10:23:49Z</time></trkpt><trkpt lat="14.45557876627517" lon="121.04552847896981"><ele>32.0</ele><time>2026-03-28T10:23:50Z</time></trkpt><trkpt lat="14.45565548624672" lon="121.0455362059036"><ele>32.0</ele><time>2026-03-28T10:23:51Z</time></trkpt><trkpt lat="14.455749726979375" lon="121.04552535255536"><ele>33.2</ele><time>2026-03-28T10:23:52Z</time></trkpt><trkpt lat="14.455860041359896" lon="121.0455374519773"><ele>34.400000000000006</ele><time>2026-03-28T10:23:53Z</time></trkpt><trkpt lat="14.455966208511793" lon="121.0455245766328"><ele>35.599999999999994</ele><time>2026-03-28T10:23:54Z</time></trkpt><trkpt lat="14.456070997253686" lon="121.0455196882188"><ele>36.8</ele><time>2026-03-28T10:23:55Z</time></trkpt><trkpt lat="14.4561728583867" lon="121.04551827328515"><ele>38.0</ele><time>2026-03-28T10:23:56Z</time></trkpt><trkpt lat="14.456278339071016" lon="121.04550589454428"><ele>37.6</ele><time>2026-03-28T10:23:57Z</time></trkpt><trkpt lat="14.45638900578632" lon="121.04550349490086"><ele>37.199999999999996</ele><time>2026-03-28T10:23:58Z</time></trkpt><trkpt lat="14.45650421937245" lon="121.04549856541541"><ele>36.8</ele><time>2026-03-28T10:23:59Z</time></trkpt><trkpt lat="14.456617295430705" lon="121.04549668157016"><ele>36.4</ele><time>2026-03-28T10:24:00Z</time></trkpt><trkpt lat="14.456716351161317" lon="121.04549283898368"><ele>36.0</ele><time>2026-03-28T10:24:01Z</time></trkpt><trkpt lat="14.456818259152506" lon="121.04548721083032"><ele>36.0</ele><time>2026-03-28T10:24:02Z</time></trkpt><trkpt lat="14.45692354749814" lon="121.0454894679056"><ele>36.0</ele><time>2026-03-28T10:24:03Z</time></trkpt><trkpt lat="14.45701186535856" lon="121.04548679680848"><ele>36.0</ele><time>2026-03-28T10:24:04Z</time></trkpt><trkpt lat="14.457095270227724" lon="121.04548113233965"><ele>36.0</ele><time>2026-03-28T10:24:05Z</time></trkpt><trkpt lat="14.45719277258278" lon="121.04547904922805"><ele>36.0</ele><time>2026-03-28T10:24:06Z</time></trkpt><trkpt lat="14.457288958805265" lon="121.04547444596511"><ele>36.2</ele><time>2026-03-28T10:24:07Z</time></trkpt><trkpt lat="14.45738623604347" lon="121.0454740025127"><ele>36.400000000000006</ele><time>2026-03-28T10:24:08Z</time></trkpt><trkpt lat="14.45748194331242" lon="121.04547394362079"><ele>36.6</ele><time>2026-03-28T10:24:09Z</time></trkpt><trkpt lat="14.457581762927285" lon="121.04548091963005"><ele>36.800000000000004</ele><time>2026-03-28T10:24:10Z</time></trkpt><trkpt lat="14.457667410359166" lon="121.04548441954456"><ele>37.0</ele><time>2026-03-28T10:24:11Z</time></trkpt><trkpt lat="14.457752592945162" lon="121.04547544454417"><ele>37.0</ele><time>2026-03-28T10:24:12Z</time></trkpt><trkpt lat="14.457830253815638" lon="121.0454697295124"><ele>37.0</ele><time>2026-03-28T10:24:13Z</time></trkpt><trkpt lat="14.457913749633342" lon="121.0454684778022"><ele>37.0</ele><time>2026-03-28T10:24:14Z</time></trkpt><trkpt lat="14.458000630703745" lon="121.04546849230333"><ele>37.0</ele><time>2026-03-28T10:24:15Z</time></trkpt><trkpt lat="14.458098829447867" lon="121.04546406220254"><ele>37.0</ele><time>2026-03-28T10:24:16Z</time></trkpt><trkpt lat="14.458201028100298" lon="121.04545844252422"><ele>37.0</ele><time>2026-03-28T10:24:17Z</time></trkpt><trkpt lat="14.45830730404649" lon="121.04545427067016"><ele>38.0</ele><time>2026-03-28T10:24:18Z</time></trkpt><trkpt lat="14.458418737893426" lon="121.04544832479966"><ele>39.0</ele><time>2026-03-28T10:24:19Z</time></trkpt><trkpt lat="14.458536693024303" lon="121.04544323693499"><ele>40.0</ele><time>2026-03-28T10:24:20Z</time></trkpt><trkpt lat="14.458655054922422" lon="121.04544124743633"><ele>41.0</ele><time>2026-03-28T10:24:21Z</time></trkpt><trkpt lat="14.458784910472906" lon="121.04544084442479"><ele>41.25</ele><time>2026-03-28T10:24:22Z</time></trkpt><trkpt lat="14.458899710784566" lon="121.04540190152628"><ele>41.5</ele><time>2026-03-28T10:24:23Z</time></trkpt><trkpt lat="14.459050268178226" lon="121.04538980185374"><ele>41.75</ele><time>2026-03-28T10:24:24Z</time></trkpt><trkpt lat="14.459188382140013" lon="121.04538812645391"><ele>42.0</ele><time>2026-03-28T10:24:25Z</time></trkpt><trkpt lat="14.459327908153949" lon="121.04538643247464"><ele>42.0</ele><time>2026-03-28T10:24:26Z</time></trkpt><trkpt lat="14.459474965838005" lon="121.04538481480742"><ele>42.0</ele><time>2026-03-28T10:24:27Z</time></trkpt><trkpt lat="14.459625914680242" lon="121.04538315450368"><ele>42.0</ele><time>2026-03-28T10:24:28Z</time></trkpt><trkpt lat="14.459778293624693" lon="121.04538147847356"><ele>42.0</ele><time>2026-03-28T10:24:29Z</time></trkpt><trkpt lat="14.459938318442575" lon="121.04537971835241"><ele>42.0</ele><time>2026-03-28T10:24:30Z</time></trkpt><trkpt lat="14.46010150537217" lon="121.04537792344502"><ele>42.0</ele><time>2026-03-28T10:24:31Z</time></trkpt><trkpt lat="14.46026241706853" lon="121.04537615356548"><ele>42.0</ele><time>2026-03-28T10:24:32Z</time></trkpt><trkpt lat="14.460427932884775" lon="121.04537437537385"><ele>42.0</ele><time>2026-03-28T10:24:33Z</time></trkpt><trkpt lat="14.460597723715432" lon="121.04538276552647"><ele>42.0</ele><time>2026-03-28T10:24:34Z</time></trkpt><trkpt lat="14.460773428683932" lon="121.0453758917559"><ele>41.333333333333336</ele><time>2026-03-28T10:24:35Z</time></trkpt><trkpt lat="14.460948180347891" lon="121.0453725502841"><ele>40.66666666666667</ele><time>2026-03-28T10:24:36Z</time></trkpt><trkpt lat="14.46113065213048" lon="121.04536948591704"><ele>40.0</ele><time>2026-03-28T10:24:37Z</time></trkpt><trkpt lat="14.46131494793981" lon="121.04536752815451"><ele>39.333333333333336</ele><time>2026-03-28T10:24:38Z</time></trkpt><trkpt lat="14.461504515980323" lon="121.04536385887242"><ele>38.666666666666664</ele><time>2026-03-28T10:24:39Z</time></trkpt><trkpt lat="14.461692408415798" lon="121.04536135803255"><ele>38.0</ele><time>2026-03-28T10:24:40Z</time></trkpt><trkpt lat="14.461886869877043" lon="121.04536135126835"><ele>38.0</ele><time>2026-03-28T10:24:41Z</time></trkpt><trkpt lat="14.462076089436271" lon="121.04535840435699"><ele>38.0</ele><time>2026-03-28T10:24:42Z</time></trkpt><trkpt lat="14.462271346537985" lon="121.04535565920835"><ele>38.0</ele><time>2026-03-28T10:24:43Z</time></trkpt><trkpt lat="14.462467524265023" lon="121.04535579023997"><ele>37.666666666666664</ele><time>2026-03-28T10:24:44Z</time></trkpt><trkpt lat="14.462665330353706" lon="121.04535564138894"><ele>37.333333333333336</ele><time>2026-03-28T10:24:45Z</time></trkpt><trkpt lat="14.462858227871124" lon="121.04535562406603"><ele>37.0</ele><time>2026-03-28T10:24:46Z</time></trkpt><trkpt lat="14.463049486435144" lon="121.04535429814584"><ele>36.66666666666667</ele><time>2026-03-28T10:24:47Z</time></trkpt><trkpt lat="14.463242056535707" lon="121.04535341066423"><ele>36.333333333333336</ele><time>2026-03-28T10:24:48Z</time></trkpt><trkpt lat="14.46343446321721" lon="121.04535259181486"><ele>36.0</ele><time>2026-03-28T10:24:49Z</time></trkpt><trkpt lat="14.463626365226453" lon="121.04535340398598"><ele>36.666666666666664</ele><time>2026-03-28T10:24:50Z</time></trkpt><trkpt lat="14.463822694894846" lon="121.04535599202181"><ele>37.33333333333333</ele><time>2026-03-28T10:24:51Z</time></trkpt><trkpt lat="14.46401959507615" lon="121.0453557403681"><ele>38.0</ele><time>2026-03-28T10:24:52Z</time></trkpt><trkpt lat="14.464220391855502" lon="121.04535265656065"><ele>38.0</ele><time>2026-03-28T10:24:53Z</time></trkpt><trkpt lat="14.464425073182412" lon="121.0453496203158"><ele>38.0</ele><time>2026-03-28T10:24:54Z</time></trkpt><trkpt lat="14.4646237872069" lon="121.0453432104139"><ele>38.0</ele><time>2026-03-28T10:24:55Z</time></trkpt><trkpt lat="14.464836271518292" lon="121.0453393064267"><ele>38.0</ele><time>2026-03-28T10:24:56Z</time></trkpt><trkpt lat="14.465044178384373" lon="121.04534353345878"><ele>38.0</ele><time>2026-03-28T10:24:57Z</time></trkpt><trkpt lat="14.465247556801566" lon="121.04534369807635"><ele>38.0</ele><time>2026-03-28T10:24:58Z</time></trkpt><trkpt lat="14.465454424202983" lon="121.04533776839963"><ele>38.0</ele><time>2026-03-28T10:24:59Z</time></trkpt><trkpt lat="14.465670799768404" lon="121.04533301374472"><ele>38.0</ele><time>2026-03-28T10:25:00Z</time></trkpt><trkpt lat="14.465895344326624" lon="121.04532613870585"><ele>38.0</ele><time>2026-03-28T10:25:01Z</time></trkpt><trkpt lat="14.466120132616592" lon="121.04532370316277"><ele>38.0</ele><time>2026-03-28T10:25:02Z</time></trkpt><trkpt lat="14.466339961195834" lon="121.0453219444997"><ele>38.0</ele><time>2026-03-28T10:25:03Z</time></trkpt><trkpt lat="14.46655525796205" lon="121.04532136583916"><ele>38.0</ele><time>2026-03-28T10:25:04Z</time></trkpt><trkpt lat="14.466771786837763" lon="121.04532125695502"><ele>38.0</ele><time>2026-03-28T10:25:05Z</time></trkpt><trkpt lat="14.46699719032374" lon="121.04533041993473"><ele>38.0</ele><time>2026-03-28T10:25:06Z</time></trkpt><trkpt lat="14.467221998311718" lon="121.04533712541378"><ele>37.0</ele><time>2026-03-28T10:25:07Z</time></trkpt><trkpt lat="14.467448463887244" lon="121.04534714540257"><ele>36.0</ele><time>2026-03-28T10:25:08Z</time></trkpt><trkpt lat="14.467674577073417" lon="121.04535022863416"><ele>36.0</ele><time>2026-03-28T10:25:09Z</time></trkpt><trkpt lat="14.467893571802504" lon="121.04534667072751"><ele>36.0</ele><time>2026-03-28T10:25:10Z</time></trkpt><trkpt lat="14.468115964785333" lon="121.04534755609727"><ele>36.0</ele><time>2026-03-28T10:25:11Z</time></trkpt><trkpt lat="14.4683444821628" lon="121.04534589189134"><ele>35.0</ele><time>2026-03-28T10:25:12Z</time></trkpt><trkpt lat="14.468562130770412" lon="121.04534665185297"><ele>34.0</ele><time>2026-03-28T10:25:13Z</time></trkpt><trkpt lat="14.468776937220067" lon="121.04534735650361"><ele>33.0</ele><time>2026-03-28T10:25:14Z</time></trkpt><trkpt lat="14.468984348635823" lon="121.04534536409612"><ele>32.666666666666664</ele><time>2026-03-28T10:25:15Z</time></trkpt><trkpt lat="14.469205104283317" lon="121.04534604779012"><ele>32.33333333333333</ele><time>2026-03-28T10:25:16Z</time></trkpt><trkpt lat="14.469430432977909" lon="121.04534184699575"><ele>32.0</ele><time>2026-03-28T10:25:17Z</time></trkpt><trkpt lat="14.469648408841639" lon="121.04532562311854"><ele>31.666666666666664</ele><time>2026-03-28T10:25:18Z</time></trkpt><trkpt lat="14.469869865066316" lon="121.04532358026022"><ele>31.333333333333336</ele><time>2026-03-28T10:25:19Z</time></trkpt><trkpt lat="14.470091959980946" lon="121.0453384694436"><ele>31.0</ele><time>2026-03-28T10:25:20Z</time></trkpt><trkpt lat="14.47030829268587" lon="121.04531953592624"><ele>31.0</ele><time>2026-03-28T10:25:21Z</time></trkpt><trkpt lat="14.470526689094841" lon="121.04531929401591"><ele>31.0</ele><time>2026-03-28T10:25:22Z</time></trkpt><trkpt lat="14.47074348816501" lon="121.04531914392791"><ele>31.0</ele><time>2026-03-28T10:25:23Z</time></trkpt><trkpt lat="14.470956159220673" lon="121.0453189966822"><ele>31.0</ele><time>2026-03-28T10:25:24Z</time></trkpt><trkpt lat="14.47116654029834" lon="121.04531885102459"><ele>31.0</ele><time>2026-03-28T10:25:25Z</time></trkpt><trkpt lat="14.471373294070164" lon="121.04533360377367"><ele>31.0</ele><time>2026-03-28T10:25:26Z</time></trkpt><trkpt lat="14.471573172594661" lon="121.04532966895067"><ele>30.666666666666668</ele><time>2026-03-28T10:25:27Z</time></trkpt><trkpt lat="14.471775981420338" lon="121.04532703506113"><ele>30.333333333333336</ele><time>2026-03-28T10:25:28Z</time></trkpt><trkpt lat="14.471976156634982" lon="121.04532884366836"><ele>30.0</ele><time>2026-03-28T10:25:29Z</time></trkpt><trkpt lat="14.472170554852267" lon="121.04532738421932"><ele>29.666666666666664</ele><time>2026-03-28T10:25:30Z</time></trkpt><trkpt lat="14.472361469480415" lon="121.04532552613465"><ele>29.333333333333332</ele><time>2026-03-28T10:25:31Z</time></trkpt><trkpt lat="14.472557555211779" lon="121.04532428760757"><ele>29.0</ele><time>2026-03-28T10:25:32Z</time></trkpt><trkpt lat="14.472755202226477" lon="121.04532341906551"><ele>30.0</ele><time>2026-03-28T10:25:33Z</time></trkpt><trkpt lat="14.472952578909041" lon="121.04532230702337"><ele>31.0</ele><time>2026-03-28T10:25:34Z</time></trkpt><trkpt lat="14.473150001994567" lon="121.04532180908416"><ele>32.0</ele><time>2026-03-28T10:25:35Z</time></trkpt><trkpt lat="14.473351028153186" lon="121.04532399217425"><ele>32.0</ele><time>2026-03-28T10:25:36Z</time></trkpt><trkpt lat="14.47355677102769" lon="121.0453228907195"><ele>32.0</ele><time>2026-03-28T10:25:37Z</time></trkpt><trkpt lat="14.473758729434484" lon="121.04532046356182"><ele>32.0</ele><time>2026-03-28T10:25:38Z</time></trkpt><trkpt lat="14.473960653339445" lon="121.04532123026374"><ele>33.0</ele><time>2026-03-28T10:25:39Z</time></trkpt><trkpt lat="14.474169572508028" lon="121.04532062502291"><ele>34.0</ele><time>2026-03-28T10:25:40Z</time></trkpt><trkpt lat="14.474375789222693" lon="121.04531765047388"><ele>35.0</ele><time>2026-03-28T10:25:41Z</time></trkpt><trkpt lat="14.474577035020454" lon="121.04531488135193"><ele>35.33333333333333</ele><time>2026-03-28T10:25:42Z</time></trkpt><trkpt lat="14.474777129895074" lon="121.04531318774282"><ele>35.666666666666664</ele><time>2026-03-28T10:25:43Z</time></trkpt><trkpt lat="14.47497848884313" lon="121.0453098203588"><ele>36.0</ele><time>2026-03-28T10:25:44Z</time></trkpt><trkpt lat="14.475184527506869" lon="121.04530947416534"><ele>36.0</ele><time>2026-03-28T10:25:45Z</time></trkpt><trkpt lat="14.475392949486174" lon="121.0453063047985"><ele>36.0</ele><time>2026-03-28T10:25:46Z</time></trkpt><trkpt lat="14.475603759119815" lon="121.0453073386624"><ele>36.0</ele><time>2026-03-28T10:25:47Z</time></trkpt><trkpt lat="14.475813446412273" lon="121.04530626613337"><ele>36.0</ele><time>2026-03-28T10:25:48Z</time></trkpt><trkpt lat="14.476026730688108" lon="121.04530760070894"><ele>36.0</ele><time>2026-03-28T10:25:49Z</time></trkpt><trkpt lat="14.47624260124265" lon="121.04530584576136"><ele>36.0</ele><time>2026-03-28T10:25:50Z</time></trkpt><trkpt lat="14.476458020166772" lon="121.04530616684502"><ele>36.0</ele><time>2026-03-28T10:25:51Z</time></trkpt><trkpt lat="14.476670608770698" lon="121.04530701543291"><ele>36.0</ele><time>2026-03-28T10:25:52Z</time></trkpt><trkpt lat="14.476884239754055" lon="121.04530481626466"><ele>36.0</ele><time>2026-03-28T10:25:53Z</time></trkpt><trkpt lat="14.477096460912323" lon="121.04530377062162"><ele>35.0</ele><time>2026-03-28T10:25:54Z</time></trkpt><trkpt lat="14.477308404731252" lon="121.04530211559666"><ele>34.0</ele><time>2026-03-28T10:25:55Z</time></trkpt><trkpt lat="14.477522922330703" lon="121.04530159112001"><ele>33.0</ele><time>2026-03-28T10:25:56Z</time></trkpt><trkpt lat="14.477737540683226" lon="121.0453004102835"><ele>33.666666666666664</ele><time>2026-03-28T10:25:57Z</time></trkpt><trkpt lat="14.477950806489467" lon="121.04529906318965"><ele>34.33333333333333</ele><time>2026-03-28T10:25:58Z</time></trkpt><trkpt lat="14.478162257110085" lon="121.04529704443446"><ele>35.0</ele><time>2026-03-28T10:25:59Z</time></trkpt><trkpt lat="14.478372575671184" lon="121.04529475737633"><ele>35.0</ele><time>2026-03-28T10:26:00Z</time></trkpt><trkpt lat="14.478579143174452" lon="121.04529207519506"><ele>35.0</ele><time>2026-03-28T10:26:01Z</time></trkpt><trkpt lat="14.478778215047914" lon="121.04529259460749"><ele>35.0</ele><time>2026-03-28T10:26:02Z</time></trkpt><trkpt lat="14.47896579292343" lon="121.04529384579133"><ele>35.0</ele><time>2026-03-28T10:26:03Z</time></trkpt><trkpt lat="14.47913305931863" lon="121.04529287305074"><ele>35.0</ele><time>2026-03-28T10:26:04Z</time></trkpt><trkpt lat="14.47931358609513" lon="121.04529234119201"><ele>35.0</ele><time>2026-03-28T10:26:05Z</time></trkpt><trkpt lat="14.479495452374445" lon="121.04529153256574"><ele>34.33333333333333</ele><time>2026-03-28T10:26:06Z</time></trkpt><trkpt lat="14.479667459233404" lon="121.04529106414643"><ele>33.666666666666664</ele><time>2026-03-28T10:26:07Z</time></trkpt><trkpt lat="14.479841843763147" lon="121.04529022102491"><ele>33.0</ele><time>2026-03-28T10:26:08Z</time></trkpt><trkpt lat="14.480008118503306" lon="121.04528906679857"><ele>33.0</ele><time>2026-03-28T10:26:09Z</time></trkpt><trkpt lat="14.48018307080711" lon="121.04529079392846"><ele>33.0</ele><time>2026-03-28T10:26:10Z</time></trkpt><trkpt lat="14.480351644956192" lon="121.04528973055896"><ele>33.0</ele><time>2026-03-28T10:26:11Z</time></trkpt><trkpt lat="14.480515553647441" lon="121.04529140959566"><ele>32.666666666666664</ele><time>2026-03-28T10:26:12Z</time></trkpt><trkpt lat="14.480676993338149" lon="121.04529208030357"><ele>32.33333333333333</ele><time>2026-03-28T10:26:13Z</time></trkpt><trkpt lat="14.480844862552804" lon="121.04529234000535"><ele>32.0</ele><time>2026-03-28T10:26:14Z</time></trkpt><trkpt lat="14.48100882366874" lon="121.04529112104068"><ele>32.0</ele><time>2026-03-28T10:26:15Z</time></trkpt><trkpt lat="14.481173221732124" lon="121.04528996387272"><ele>32.0</ele><time>2026-03-28T10:26:16Z</time></trkpt><trkpt lat="14.481340604569496" lon="121.04528827736729"><ele>32.0</ele><time>2026-03-28T10:26:17Z</time></trkpt><trkpt lat="14.481504193473757" lon="121.04528549723364"><ele>32.33333333333333</ele><time>2026-03-28T10:26:18Z</time></trkpt><trkpt lat="14.481674164248204" lon="121.04528391118401"><ele>32.666666666666664</ele><time>2026-03-28T10:26:19Z</time></trkpt><trkpt lat="14.48184420000739" lon="121.04528288212639"><ele>33.0</ele><time>2026-03-28T10:26:20Z</time></trkpt><trkpt lat="14.482012576684724" lon="121.04528121854837"><ele>33.0</ele><time>2026-03-28T10:26:21Z</time></trkpt><trkpt lat="14.4821827600582" lon="121.0452828435166"><ele>33.0</ele><time>2026-03-28T10:26:22Z</time></trkpt><trkpt lat="14.482357214661805" lon="121.04528156773114"><ele>33.0</ele><time>2026-03-28T10:26:23Z</time></trkpt><trkpt lat="14.482535134294835" lon="121.04528148214209"><ele>33.0</ele><time>2026-03-28T10:26:24Z</time></trkpt><trkpt lat="14.482711688205509" lon="121.04528131589029"><ele>33.0</ele><time>2026-03-28T10:26:25Z</time></trkpt><trkpt lat="14.482890731943876" lon="121.04528088770056"><ele>33.0</ele><time>2026-03-28T10:26:26Z</time></trkpt><trkpt lat="14.48306823753944" lon="121.04528165451828"><ele>32.666666666666664</ele><time>2026-03-28T10:26:27Z</time></trkpt><trkpt lat="14.483243878765999" lon="121.0452802798413"><ele>32.33333333333333</ele><time>2026-03-28T10:26:28Z</time></trkpt><trkpt lat="14.483421244258034" lon="121.04527986372355"><ele>32.0</ele><time>2026-03-28T10:26:29Z</time></trkpt><trkpt lat="14.483606542121368" lon="121.04527913845001"><ele>31.666666666666664</ele><time>2026-03-28T10:26:30Z</time></trkpt><trkpt lat="14.483786846425998" lon="121.04527816734866"><ele>31.333333333333336</ele><time>2026-03-28T10:26:31Z</time></trkpt><trkpt lat="14.483971514102837" lon="121.04527509579209"><ele>31.0</ele><time>2026-03-28T10:26:32Z</time></trkpt><trkpt lat="14.484151922146522" lon="121.04527585579706"><ele>31.0</ele><time>2026-03-28T10:26:33Z</time></trkpt><trkpt lat="14.484334563165312" lon="121.04527493707693"><ele>31.0</ele><time>2026-03-28T10:26:34Z</time></trkpt><trkpt lat="14.484509435271596" lon="121.04527257299836"><ele>31.0</ele><time>2026-03-28T10:26:35Z</time></trkpt><trkpt lat="14.484688321866695" lon="121.0452690769641"><ele>30.666666666666668</ele><time>2026-03-28T10:26:36Z</time></trkpt><trkpt lat="14.48486638824261" lon="121.04526825112484"><ele>30.333333333333336</ele><time>2026-03-28T10:26:37Z</time></trkpt><trkpt lat="14.485039599137762" lon="121.04526806819676"><ele>30.0</ele><time>2026-03-28T10:26:38Z</time></trkpt><trkpt lat="14.485207229504176" lon="121.04526137789259"><ele>30.0</ele><time>2026-03-28T10:26:39Z</time></trkpt><trkpt lat="14.485374909856207" lon="121.04525388645055"><ele>30.0</ele><time>2026-03-28T10:26:40Z</time></trkpt><trkpt lat="14.485542676897579" lon="121.0452410317133"><ele>30.0</ele><time>2026-03-28T10:26:41Z</time></trkpt><trkpt lat="14.485708546029112" lon="121.04522287994124"><ele>31.666666666666664</ele><time>2026-03-28T10:26:42Z</time></trkpt><trkpt lat="14.485882618867677" lon="121.04520823094296"><ele>33.33333333333333</ele><time>2026-03-28T10:26:43Z</time></trkpt><trkpt lat="14.486051715613847" lon="121.04519099962026"><ele>35.0</ele><time>2026-03-28T10:26:44Z</time></trkpt><trkpt lat="14.48621898139245" lon="121.04517248955707"><ele>34.666666666666664</ele><time>2026-03-28T10:26:45Z</time></trkpt><trkpt lat="14.486385529524489" lon="121.04515057408491"><ele>34.333333333333336</ele><time>2026-03-28T10:26:46Z</time></trkpt><trkpt lat="14.486555047656932" lon="121.04512849468674"><ele>34.0</ele><time>2026-03-28T10:26:47Z</time></trkpt><trkpt lat="14.486715653214317" lon="121.04510377743247"><ele>34.0</ele><time>2026-03-28T10:26:48Z</time></trkpt><trkpt lat="14.486870058415464" lon="121.04507948762122"><ele>34.0</ele><time>2026-03-28T10:26:49Z</time></trkpt><trkpt lat="14.4870206113153" lon="121.04505363419773"><ele>34.0</ele><time>2026-03-28T10:26:50Z</time></trkpt><trkpt lat="14.48716476355194" lon="121.04502946005911"><ele>34.25</ele><time>2026-03-28T10:26:51Z</time></trkpt><trkpt lat="14.487305283347313" lon="121.04499906826003"><ele>34.5</ele><time>2026-03-28T10:26:52Z</time></trkpt><trkpt lat="14.487440859781726" lon="121.04497211276869"><ele>34.75</ele><time>2026-03-28T10:26:53Z</time></trkpt><trkpt lat="14.48757739176616" lon="121.04494722689029"><ele>35.0</ele><time>2026-03-28T10:26:54Z</time></trkpt><trkpt lat="14.487703715735961" lon="121.04490894656713"><ele>35.0</ele><time>2026-03-28T10:26:55Z</time></trkpt><trkpt lat="14.487842568660499" lon="121.04487172085743"><ele>35.0</ele><time>2026-03-28T10:26:56Z</time></trkpt><trkpt lat="14.48797996675378" lon="121.04483744278804"><ele>35.0</ele><time>2026-03-28T10:26:57Z</time></trkpt><trkpt lat="14.488112779266286" lon="121.04480070690435"><ele>35.0</ele><time>2026-03-28T10:26:58Z</time></trkpt><trkpt lat="14.488246094290155" lon="121.04477116482407"><ele>35.0</ele><time>2026-03-28T10:26:59Z</time></trkpt><trkpt lat="14.488378145928426" lon="121.0447343823795"><ele>35.0</ele><time>2026-03-28T10:27:00Z</time></trkpt><trkpt lat="14.488514819185658" lon="121.04468981058703"><ele>35.0</ele><time>2026-03-28T10:27:01Z</time></trkpt><trkpt lat="14.488646820831713" lon="121.04464745511143"><ele>35.0</ele><time>2026-03-28T10:27:02Z</time></trkpt><trkpt lat="14.488782551378433" lon="121.0446102022895"><ele>33.5</ele><time>2026-03-28T10:27:03Z</time></trkpt><trkpt lat="14.48891726289261" lon="121.04456020428448"><ele>32.0</ele><time>2026-03-28T10:27:04Z</time></trkpt><trkpt lat="14.489055276979313" lon="121.04450763415628"><ele>30.5</ele><time>2026-03-28T10:27:05Z</time></trkpt><trkpt lat="14.489192589440021" lon="121.04446148728788"><ele>29.0</ele><time>2026-03-28T10:27:06Z</time></trkpt><trkpt lat="14.489329081296214" lon="121.0443995900194"><ele>29.0</ele><time>2026-03-28T10:27:07Z</time></trkpt><trkpt lat="14.489471095271588" lon="121.04433361037097"><ele>29.0</ele><time>2026-03-28T10:27:08Z</time></trkpt><trkpt lat="14.489615037624505" lon="121.0442776719171"><ele>29.0</ele><time>2026-03-28T10:27:09Z</time></trkpt><trkpt lat="14.489750619276968" lon="121.04421664067583"><ele>30.666666666666664</ele><time>2026-03-28T10:27:10Z</time></trkpt><trkpt lat="14.489886180305543" lon="121.04415178385857"><ele>32.333333333333336</ele><time>2026-03-28T10:27:11Z</time></trkpt><trkpt lat="14.490024462873357" lon="121.04408328638169"><ele>34.0</ele><time>2026-03-28T10:27:12Z</time></trkpt><trkpt lat="14.490162911274744" lon="121.04402038202034"><ele>34.0</ele><time>2026-03-28T10:27:13Z</time></trkpt><trkpt lat="14.490302028673378" lon="121.04395259367382"><ele>34.0</ele><time>2026-03-28T10:27:14Z</time></trkpt><trkpt lat="14.490444856484224" lon="121.04388583739292"><ele>34.0</ele><time>2026-03-28T10:27:15Z</time></trkpt><trkpt lat="14.490585911154621" lon="121.04380399423412"><ele>34.5</ele><time>2026-03-28T10:27:16Z</time></trkpt><trkpt lat="14.490718026437992" lon="121.04373624735759"><ele>35.0</ele><time>2026-03-28T10:27:17Z</time></trkpt><trkpt lat="14.490853860670828" lon="121.04366374059171"><ele>35.5</ele><time>2026-03-28T10:27:18Z</time></trkpt><trkpt lat="14.490980657567835" lon="121.04359535222834"><ele>36.0</ele><time>2026-03-28T10:27:19Z</time></trkpt><trkpt lat="14.49111630723033" lon="121.04352264651104"><ele>36.0</ele><time>2026-03-28T10:27:20Z</time></trkpt><trkpt lat="14.491252884196234" lon="121.04344481678532"><ele>36.0</ele><time>2026-03-28T10:27:21Z</time></trkpt><trkpt lat="14.491389141565254" lon="121.04336839612141"><ele>36.0</ele><time>2026-03-28T10:27:22Z</time></trkpt><trkpt lat="14.491529364460828" lon="121.04328814834957"><ele>36.666666666666664</ele><time>2026-03-28T10:27:23Z</time></trkpt><trkpt lat="14.491664986961045" lon="121.04320553485118"><ele>37.33333333333333</ele><time>2026-03-28T10:27:24Z</time></trkpt><trkpt lat="14.491810988832077" lon="121.0431260961646"><ele>38.0</ele><time>2026-03-28T10:27:25Z</time></trkpt><trkpt lat="14.491974126399441" lon="121.04304158870285"><ele>37.666666666666664</ele><time>2026-03-28T10:27:26Z</time></trkpt><trkpt lat="14.492129792051713" lon="121.04294858044584"><ele>37.333333333333336</ele><time>2026-03-28T10:27:27Z</time></trkpt><trkpt lat="14.492287038534327" lon="121.04286297756592"><ele>37.0</ele><time>2026-03-28T10:27:28Z</time></trkpt><trkpt lat="14.49244697815088" lon="121.04278245754567"><ele>37.0</ele><time>2026-03-28T10:27:29Z</time></trkpt><trkpt lat="14.492602920242819" lon="121.04269729511441"><ele>37.0</ele><time>2026-03-28T10:27:30Z</time></trkpt><trkpt lat="14.492759537808642" lon="121.04261337748422"><ele>37.0</ele><time>2026-03-28T10:27:31Z</time></trkpt><trkpt lat="14.492907872279078" lon="121.04253594751913"><ele>34.0</ele><time>2026-03-28T10:27:32Z</time></trkpt><trkpt lat="14.493066734083683" lon="121.04244649088017"><ele>31.0</ele><time>2026-03-28T10:27:33Z</time></trkpt><trkpt lat="14.4932235620463" lon="121.04235582696529"><ele>28.0</ele><time>2026-03-28T10:27:34Z</time></trkpt><trkpt lat="14.493382786327354" lon="121.04226880911745"><ele>28.0</ele><time>2026-03-28T10:27:35Z</time></trkpt><trkpt lat="14.493544447301392" lon="121.04217993336233"><ele>28.0</ele><time>2026-03-28T10:27:36Z</time></trkpt><trkpt lat="14.493704865486272" lon="121.04209390454409"><ele>28.0</ele><time>2026-03-28T10:27:37Z</time></trkpt><trkpt lat="14.493866086273258" lon="121.04202132837347"><ele>27.666666666666668</ele><time>2026-03-28T10:27:38Z</time></trkpt><trkpt lat="14.494013772663985" lon="121.04193700801564"><ele>27.333333333333336</ele><time>2026-03-28T10:27:39Z</time></trkpt><trkpt lat="14.494170795108849" lon="121.041851201367"><ele>27.0</ele><time>2026-03-28T10:27:40Z</time></trkpt><trkpt lat="14.494329391772954" lon="121.04176512331566"><ele>27.0</ele><time>2026-03-28T10:27:41Z</time></trkpt><trkpt lat="14.49448368285973" lon="121.04168239886091"><ele>27.0</ele><time>2026-03-28T10:27:42Z</time></trkpt><trkpt lat="14.494639200280767" lon="121.04160254715312"><ele>27.0</ele><time>2026-03-28T10:27:43Z</time></trkpt><trkpt lat="14.494795280324617" lon="121.0415059115473"><ele>26.666666666666664</ele><time>2026-03-28T10:27:44Z</time></trkpt><trkpt lat="14.494954523893787" lon="121.04141828279076"><ele>26.333333333333332</ele><time>2026-03-28T10:27:45Z</time></trkpt><trkpt lat="14.495105454467506" lon="121.04132930616088"><ele>26.0</ele><time>2026-03-28T10:27:46Z</time></trkpt><trkpt lat="14.49526365467064" lon="121.04124787876299"><ele>26.0</ele><time>2026-03-28T10:27:47Z</time></trkpt><trkpt lat="14.495418372554655" lon="121.04116035973594"><ele>26.0</ele><time>2026-03-28T10:27:48Z</time></trkpt><trkpt lat="14.495574341903561" lon="121.0410758253888"><ele>26.0</ele><time>2026-03-28T10:27:49Z</time></trkpt><trkpt lat="14.49572830315602" lon="121.0409904973944"><ele>26.0</ele><time>2026-03-28T10:27:50Z</time></trkpt><trkpt lat="14.495887314442797" lon="121.04090713727045"><ele>26.0</ele><time>2026-03-28T10:27:51Z</time></trkpt><trkpt lat="14.496042270129392" lon="121.04082978221534"><ele>26.0</ele><time>2026-03-28T10:27:52Z</time></trkpt><trkpt lat="14.496197334292733" lon="121.04075268591308"><ele>26.333333333333332</ele><time>2026-03-28T10:27:53Z</time></trkpt><trkpt lat="14.496361739589098" lon="121.04066610349354"><ele>26.666666666666664</ele><time>2026-03-28T10:27:54Z</time></trkpt><trkpt lat="14.496507579494903" lon="121.04058635300518"><ele>27.0</ele><time>2026-03-28T10:27:55Z</time></trkpt><trkpt lat="14.496658712309243" lon="121.04050466830275"><ele>27.0</ele><time>2026-03-28T10:27:56Z</time></trkpt><trkpt lat="14.496807212961802" lon="121.04042259646643"><ele>27.0</ele><time>2026-03-28T10:27:57Z</time></trkpt><trkpt lat="14.496959817140374" lon="121.04033906422195"><ele>27.0</ele><time>2026-03-28T10:27:58Z</time></trkpt><trkpt lat="14.497106126311314" lon="121.04025757181925"><ele>28.666666666666664</ele><time>2026-03-28T10:27:59Z</time></trkpt><trkpt lat="14.497256792067953" lon="121.04017467726767"><ele>30.333333333333332</ele><time>2026-03-28T10:28:00Z</time></trkpt><trkpt lat="14.497426513140024" lon="121.04007751798267"><ele>32.0</ele><time>2026-03-28T10:28:01Z</time></trkpt><trkpt lat="14.497578473706103" lon="121.03999820862467"><ele>32.0</ele><time>2026-03-28T10:28:02Z</time></trkpt><trkpt lat="14.497732667249162" lon="121.03991325400827"><ele>32.0</ele><time>2026-03-28T10:28:03Z</time></trkpt><trkpt lat="14.4978868794536" lon="121.0398303001808"><ele>32.0</ele><time>2026-03-28T10:28:04Z</time></trkpt><trkpt lat="14.498045089802412" lon="121.03974376772751"><ele>31.666666666666664</ele><time>2026-03-28T10:28:05Z</time></trkpt><trkpt lat="14.498204652822574" lon="121.03965725488983"><ele>31.333333333333336</ele><time>2026-03-28T10:28:06Z</time></trkpt><trkpt lat="14.498364855433884" lon="121.03956930628587"><ele>31.0</ele><time>2026-03-28T10:28:07Z</time></trkpt><trkpt lat="14.498522535000314" lon="121.03948697869566"><ele>31.0</ele><time>2026-03-28T10:28:08Z</time></trkpt><trkpt lat="14.498677145848722" lon="121.03940466079294"><ele>31.0</ele><time>2026-03-28T10:28:09Z</time></trkpt><trkpt lat="14.498834482236724" lon="121.03931963885998"><ele>31.0</ele><time>2026-03-28T10:28:10Z</time></trkpt><trkpt lat="14.498995644985653" lon="121.03923512105568"><ele>30.0</ele><time>2026-03-28T10:28:11Z</time></trkpt><trkpt lat="14.499156482042375" lon="121.03914751451654"><ele>29.0</ele><time>2026-03-28T10:28:12Z</time></trkpt><trkpt lat="14.499320876341265" lon="121.03906221876429"><ele>28.0</ele><time>2026-03-28T10:28:13Z</time></trkpt><trkpt lat="14.499492896475726" lon="121.03897068765238"><ele>27.333333333333336</ele><time>2026-03-28T10:28:14Z</time></trkpt><trkpt lat="14.499660365147422" lon="121.03888148015157"><ele>26.666666666666664</ele><time>2026-03-28T10:28:15Z</time></trkpt><trkpt lat="14.499824147258675" lon="121.03879296669083"><ele>26.0</ele><time>2026-03-28T10:28:16Z</time></trkpt><trkpt lat="14.499992794230328" lon="121.03869771176937"><ele>26.0</ele><time>2026-03-28T10:28:17Z</time></trkpt><trkpt lat="14.500158324296587" lon="121.03860979611365"><ele>26.0</ele><time>2026-03-28T10:28:18Z</time></trkpt><trkpt lat="14.500322170986639" lon="121.03852071294172"><ele>26.0</ele><time>2026-03-28T10:28:19Z</time></trkpt><trkpt lat="14.500485118314323" lon="121.03843108742554"><ele>26.333333333333332</ele><time>2026-03-28T10:28:20Z</time></trkpt><trkpt lat="14.500646856047068" lon="121.0383421884798"><ele>26.666666666666664</ele><time>2026-03-28T10:28:21Z</time></trkpt><trkpt lat="14.500810641292118" lon="121.03824967653416"><ele>27.0</ele><time>2026-03-28T10:28:22Z</time></trkpt><trkpt lat="14.500974548165694" lon="121.03816309989452"><ele>26.333333333333336</ele><time>2026-03-28T10:28:23Z</time></trkpt><trkpt lat="14.501133014824184" lon="121.03807770304056"><ele>25.666666666666668</ele><time>2026-03-28T10:28:24Z</time></trkpt><trkpt lat="14.501291541618004" lon="121.03799405444428"><ele>25.0</ele><time>2026-03-28T10:28:25Z</time></trkpt><trkpt lat="14.501447933697529" lon="121.03790959982358"><ele>25.0</ele><time>2026-03-28T10:28:26Z</time></trkpt><trkpt lat="14.501603869613119" lon="121.03782621526054"><ele>25.0</ele><time>2026-03-28T10:28:27Z</time></trkpt><trkpt lat="14.50176579264215" lon="121.03773963979398"><ele>25.0</ele><time>2026-03-28T10:28:28Z</time></trkpt><trkpt lat="14.501926864252614" lon="121.03765208433326"><ele>24.666666666666668</ele><time>2026-03-28T10:28:29Z</time></trkpt><trkpt lat="14.50208766100969" lon="121.03756658997098"><ele>24.333333333333336</ele><time>2026-03-28T10:28:30Z</time></trkpt><trkpt lat="14.502250205149732" lon="121.0374797489071"><ele>24.0</ele><time>2026-03-28T10:28:31Z</time></trkpt><trkpt lat="14.502418240300898" lon="121.03738934852926"><ele>23.333333333333332</ele><time>2026-03-28T10:28:32Z</time></trkpt><trkpt lat="14.502581772281598" lon="121.0373023067676"><ele>22.666666666666664</ele><time>2026-03-28T10:28:33Z</time></trkpt><trkpt lat="14.502745014036348" lon="121.03721325879606"><ele>22.0</ele><time>2026-03-28T10:28:34Z</time></trkpt><trkpt lat="14.502911313211841" lon="121.03711998326828"><ele>22.333333333333332</ele><time>2026-03-28T10:28:35Z</time></trkpt><trkpt lat="14.503074251018472" lon="121.03703276659884"><ele>22.666666666666668</ele><time>2026-03-28T10:28:36Z</time></trkpt><trkpt lat="14.503238985507425" lon="121.03694381463377"><ele>23.0</ele><time>2026-03-28T10:28:37Z</time></trkpt><trkpt lat="14.503409221901872" lon="121.03685093286573"><ele>23.0</ele><time>2026-03-28T10:28:38Z</time></trkpt><trkpt lat="14.503573077336956" lon="121.03676474068679"><ele>23.0</ele><time>2026-03-28T10:28:39Z</time></trkpt><trkpt lat="14.503741338169121" lon="121.03667269570427"><ele>23.0</ele><time>2026-03-28T10:28:40Z</time></trkpt><trkpt lat="14.503909047859368" lon="121.03658123659723"><ele>22.333333333333336</ele><time>2026-03-28T10:28:41Z</time></trkpt><trkpt lat="14.504076640622818" lon="121.03649242925484"><ele>21.666666666666668</ele><time>2026-03-28T10:28:42Z</time></trkpt><trkpt lat="14.504246581348848" lon="121.03640276309326"><ele>21.0</ele><time>2026-03-28T10:28:43Z</time></trkpt><trkpt lat="14.504416886060215" lon="121.036312572473"><ele>20.333333333333332</ele><time>2026-03-28T10:28:44Z</time></trkpt><trkpt lat="14.50458887134618" lon="121.03622077503692"><ele>19.666666666666664</ele><time>2026-03-28T10:28:45Z</time></trkpt><trkpt lat="14.504764137517789" lon="121.03612647295611"><ele>19.0</ele><time>2026-03-28T10:28:46Z</time></trkpt><trkpt lat="14.504939244202872" lon="121.03603214634876"><ele>19.0</ele><time>2026-03-28T10:28:47Z</time></trkpt><trkpt lat="14.50511936045546" lon="121.03594025251469"><ele>19.0</ele><time>2026-03-28T10:28:48Z</time></trkpt><trkpt lat="14.505290022989444" lon="121.03585091903658"><ele>19.0</ele><time>2026-03-28T10:28:49Z</time></trkpt><trkpt lat="14.505462183696576" lon="121.03576655269502"><ele>17.666666666666664</ele><time>2026-03-28T10:28:50Z</time></trkpt><trkpt lat="14.505634755215084" lon="121.03568615605971"><ele>16.333333333333332</ele><time>2026-03-28T10:28:51Z</time></trkpt><trkpt lat="14.505814306092827" lon="121.03560694471095"><ele>15.0</ele><time>2026-03-28T10:28:52Z</time></trkpt><trkpt lat="14.505992461385986" lon="121.03553129715051"><ele>15.0</ele><time>2026-03-28T10:28:53Z</time></trkpt><trkpt lat="14.506168547676173" lon="121.03546105946535"><ele>15.0</ele><time>2026-03-28T10:28:54Z</time></trkpt><trkpt lat="14.50634991512392" lon="121.03539132027565"><ele>15.0</ele><time>2026-03-28T10:28:55Z</time></trkpt><trkpt lat="14.506528835809288" lon="121.03532568523966"><ele>16.333333333333332</ele><time>2026-03-28T10:28:56Z</time></trkpt><trkpt lat="14.50670650479535" lon="121.03525891168741"><ele>17.666666666666664</ele><time>2026-03-28T10:28:57Z</time></trkpt><trkpt lat="14.506876787462772" lon="121.03520117450104"><ele>19.0</ele><time>2026-03-28T10:28:58Z</time></trkpt><trkpt lat="14.507045550203001" lon="121.0351438235908"><ele>19.666666666666664</ele><time>2026-03-28T10:28:59Z</time></trkpt><trkpt lat="14.507205445944477" lon="121.03509445305869"><ele>20.333333333333332</ele><time>2026-03-28T10:29:00Z</time></trkpt><trkpt lat="14.50736016709055" lon="121.03504679659717"><ele>21.0</ele><time>2026-03-28T10:29:01Z</time></trkpt><trkpt lat="14.507510240150852" lon="121.03500039142428"><ele>20.333333333333332</ele><time>2026-03-28T10:29:02Z</time></trkpt><trkpt lat="14.507662109398876" lon="121.03495203218942"><ele>19.666666666666664</ele><time>2026-03-28T10:29:03Z</time></trkpt><trkpt lat="14.507802033479745" lon="121.0349072690073"><ele>19.0</ele><time>2026-03-28T10:29:04Z</time></trkpt><trkpt lat="14.507940650815183" lon="121.0348622810595"><ele>19.0</ele><time>2026-03-28T10:29:05Z</time></trkpt><trkpt lat="14.508073227796551" lon="121.03482031884987"><ele>19.0</ele><time>2026-03-28T10:29:06Z</time></trkpt><trkpt lat="14.508198466136944" lon="121.03477907018382"><ele>19.0</ele><time>2026-03-28T10:29:07Z</time></trkpt><trkpt lat="14.508317522546356" lon="121.03474425889665"><ele>19.0</ele><time>2026-03-28T10:29:08Z</time></trkpt><trkpt lat="14.508435035140653" lon="121.03470908086257"><ele>19.0</ele><time>2026-03-28T10:29:09Z</time></trkpt><trkpt lat="14.508550021147917" lon="121.03466709826864"><ele>19.0</ele><time>2026-03-28T10:29:10Z</time></trkpt><trkpt lat="14.508663314111368" lon="121.0346249695073"><ele>19.0</ele><time>2026-03-28T10:29:11Z</time></trkpt><trkpt lat="14.508775145052649" lon="121.03458173919259"><ele>19.0</ele><time>2026-03-28T10:29:12Z</time></trkpt><trkpt lat="14.508894811372047" lon="121.0345347968561"><ele>20.5</ele><time>2026-03-28T10:29:13Z</time></trkpt><trkpt lat="14.509012287097217" lon="121.03448975263319"><ele>22.0</ele><time>2026-03-28T10:29:14Z</time></trkpt><trkpt lat="14.509141249993654" lon="121.03443473015817"><ele>23.5</ele><time>2026-03-28T10:29:15Z</time></trkpt><trkpt lat="14.509261979256937" lon="121.03438013932407"><ele>25.0</ele><time>2026-03-28T10:29:16Z</time></trkpt><trkpt lat="14.509390908829072" lon="121.03432210074905"><ele>25.0</ele><time>2026-03-28T10:29:17Z</time></trkpt><trkpt lat="14.509522268053507" lon="121.03425934680183"><ele>25.0</ele><time>2026-03-28T10:29:18Z</time></trkpt><trkpt lat="14.509650132219576" lon="121.03419739947056"><ele>25.0</ele><time>2026-03-28T10:29:19Z</time></trkpt><trkpt lat="14.509780177659286" lon="121.03413482021791"><ele>25.0</ele><time>2026-03-28T10:29:20Z</time></trkpt><trkpt lat="14.509911451578276" lon="121.03406918276751"><ele>24.5</ele><time>2026-03-28T10:29:21Z</time></trkpt><trkpt lat="14.510045302415568" lon="121.03400054630828"><ele>24.0</ele><time>2026-03-28T10:29:22Z</time></trkpt><trkpt lat="14.510171972455426" lon="121.03393302403411"><ele>23.5</ele><time>2026-03-28T10:29:23Z</time></trkpt><trkpt lat="14.510302180624354" lon="121.03386194195109"><ele>23.0</ele><time>2026-03-28T10:29:24Z</time></trkpt><trkpt lat="14.510432341108055" lon="121.03379182774084"><ele>24.0</ele><time>2026-03-28T10:29:25Z</time></trkpt><trkpt lat="14.510567464624623" lon="121.03372094815234"><ele>25.0</ele><time>2026-03-28T10:29:26Z</time></trkpt><trkpt lat="14.510695124772365" lon="121.03365104685948"><ele>26.0</ele><time>2026-03-28T10:29:27Z</time></trkpt><trkpt lat="14.51082124840419" lon="121.03357963596378"><ele>27.0</ele><time>2026-03-28T10:29:28Z</time></trkpt><trkpt lat="14.510945127878381" lon="121.03351163804591"><ele>27.0</ele><time>2026-03-28T10:29:29Z</time></trkpt><trkpt lat="14.511069475279376" lon="121.03344417188336"><ele>27.0</ele><time>2026-03-28T10:29:30Z</time></trkpt><trkpt lat="14.511194098410854" lon="121.03338095109311"><ele>27.0</ele><time>2026-03-28T10:29:31Z</time></trkpt><trkpt lat="14.511317815182585" lon="121.03331580613013"><ele>27.0</ele><time>2026-03-28T10:29:32Z</time></trkpt><trkpt lat="14.511439379240912" lon="121.033252453048"><ele>27.0</ele><time>2026-03-28T10:29:33Z</time></trkpt><trkpt lat="14.51156058736056" lon="121.03318970741927"><ele>27.0</ele><time>2026-03-28T10:29:34Z</time></trkpt><trkpt lat="14.511682922874893" lon="121.03312373132879"><ele>27.0</ele><time>2026-03-28T10:29:35Z</time></trkpt><trkpt lat="14.511811965477053" lon="121.03305064133848"><ele>27.0</ele><time>2026-03-28T10:29:36Z</time></trkpt><trkpt lat="14.511939231417053" lon="121.03298067427714"><ele>27.0</ele><time>2026-03-28T10:29:37Z</time></trkpt><trkpt lat="14.512066128765426" lon="121.0329099927502"><ele>27.0</ele><time>2026-03-28T10:29:38Z</time></trkpt><trkpt lat="14.512191915411954" lon="121.03284086144495"><ele>27.0</ele><time>2026-03-28T10:29:39Z</time></trkpt><trkpt lat="14.512317530515444" lon="121.032771435665"><ele>27.0</ele><time>2026-03-28T10:29:40Z</time></trkpt><trkpt lat="14.512442769439744" lon="121.03270088218228"><ele>27.0</ele><time>2026-03-28T10:29:41Z</time></trkpt><trkpt lat="14.512567746565791" lon="121.03262884905595"><ele>27.0</ele><time>2026-03-28T10:29:42Z</time></trkpt><trkpt lat="14.512688733758507" lon="121.03255773574084"><ele>27.0</ele><time>2026-03-28T10:29:43Z</time></trkpt><trkpt lat="14.51281152443563" lon="121.03248994743271"><ele>27.0</ele><time>2026-03-28T10:29:44Z</time></trkpt><trkpt lat="14.512926520480493" lon="121.0324179931788"><ele>26.25</ele><time>2026-03-28T10:29:45Z</time></trkpt><trkpt lat="14.513040682462806" lon="121.0323502571887"><ele>25.5</ele><time>2026-03-28T10:29:46Z</time></trkpt><trkpt lat="14.513154279494698" lon="121.03228034424833"><ele>24.75</ele><time>2026-03-28T10:29:47Z</time></trkpt><trkpt lat="14.513265622736771" lon="121.03221291843569"><ele>24.0</ele><time>2026-03-28T10:29:48Z</time></trkpt><trkpt lat="14.513368665262995" lon="121.03214893786817"><ele>24.0</ele><time>2026-03-28T10:29:49Z</time></trkpt><trkpt lat="14.51348140712833" lon="121.03207961729758"><ele>24.0</ele><time>2026-03-28T10:29:50Z</time></trkpt><trkpt lat="14.513590645481608" lon="121.03200781670034"><ele>24.0</ele><time>2026-03-28T10:29:51Z</time></trkpt><trkpt lat="14.513706692665595" lon="121.03193340469691"><ele>24.0</ele><time>2026-03-28T10:29:52Z</time></trkpt><trkpt lat="14.51382514860344" lon="121.03185742268164"><ele>24.0</ele><time>2026-03-28T10:29:53Z</time></trkpt><trkpt lat="14.513937990503795" lon="121.03178524046974"><ele>24.0</ele><time>2026-03-28T10:29:54Z</time></trkpt><trkpt lat="14.51405220584316" lon="121.03171097488438"><ele>24.0</ele><time>2026-03-28T10:29:55Z</time></trkpt><trkpt lat="14.514176288557781" lon="121.03163541272188"><ele>24.0</ele><time>2026-03-28T10:29:56Z</time></trkpt><trkpt lat="14.514297198857932" lon="121.03156432717178"><ele>24.0</ele><time>2026-03-28T10:29:57Z</time></trkpt><trkpt lat="14.514420218691923" lon="121.03149796808349"><ele>24.0</ele><time>2026-03-28T10:29:58Z</time></trkpt><trkpt lat="14.514551028295566" lon="121.03142095469755"><ele>24.0</ele><time>2026-03-28T10:29:59Z</time></trkpt><trkpt lat="14.514688521519355" lon="121.03134039002929"><ele>24.0</ele><time>2026-03-28T10:30:00Z</time></trkpt><trkpt lat="14.5148286354108" lon="121.03126478319804"><ele>24.0</ele><time>2026-03-28T10:30:01Z</time></trkpt><trkpt lat="14.514970575884862" lon="121.03118534589245"><ele>24.0</ele><time>2026-03-28T10:30:02Z</time></trkpt><trkpt lat="14.515115913376402" lon="121.03111027570932"><ele>24.0</ele><time>2026-03-28T10:30:03Z</time></trkpt><trkpt lat="14.51526337594891" lon="121.03102871372273"><ele>23.0</ele><time>2026-03-28T10:30:04Z</time></trkpt><trkpt lat="14.515420342514195" lon="121.03094209277316"><ele>22.0</ele><time>2026-03-28T10:30:05Z</time></trkpt><trkpt lat="14.515569549563114" lon="121.03086255767981"><ele>21.0</ele><time>2026-03-28T10:30:06Z</time></trkpt><trkpt lat="14.515722279871706" lon="121.03078144485704"><ele>21.0</ele><time>2026-03-28T10:30:07Z</time></trkpt><trkpt lat="14.515872944150884" lon="121.03069417707161"><ele>21.0</ele><time>2026-03-28T10:30:08Z</time></trkpt><trkpt lat="14.516030130641715" lon="121.03060949485254"><ele>21.0</ele><time>2026-03-28T10:30:09Z</time></trkpt><trkpt lat="14.516193030544365" lon="121.03052208839851"><ele>21.666666666666668</ele><time>2026-03-28T10:30:10Z</time></trkpt><trkpt lat="14.516345118707381" lon="121.03043874382745"><ele>22.333333333333336</ele><time>2026-03-28T10:30:11Z</time></trkpt><trkpt lat="14.516499491084037" lon="121.03035797583765"><ele>23.0</ele><time>2026-03-28T10:30:12Z</time></trkpt><trkpt lat="14.516657479793112" lon="121.03027323376197"><ele>23.0</ele><time>2026-03-28T10:30:13Z</time></trkpt><trkpt lat="14.516817255873661" lon="121.03018577203716"><ele>23.0</ele><time>2026-03-28T10:30:14Z</time></trkpt><trkpt lat="14.516978940328203" lon="121.03009987034697"><ele>23.0</ele><time>2026-03-28T10:30:15Z</time></trkpt><trkpt lat="14.517134584983946" lon="121.03001262092545"><ele>22.333333333333336</ele><time>2026-03-28T10:30:16Z</time></trkpt><trkpt lat="14.517287087772134" lon="121.02993389400379"><ele>21.666666666666668</ele><time>2026-03-28T10:30:17Z</time></trkpt><trkpt lat="14.51746182851737" lon="121.02983671653051"><ele>21.0</ele><time>2026-03-28T10:30:18Z</time></trkpt><trkpt lat="14.517633181168643" lon="121.02974275618135"><ele>21.0</ele><time>2026-03-28T10:30:19Z</time></trkpt><trkpt lat="14.517798895668292" lon="121.02965187869486"><ele>21.0</ele><time>2026-03-28T10:30:20Z</time></trkpt><trkpt lat="14.517971949452617" lon="121.02956011149594"><ele>21.0</ele><time>2026-03-28T10:30:21Z</time></trkpt><trkpt lat="14.518148424640673" lon="121.02946426546795"><ele>20.333333333333332</ele><time>2026-03-28T10:30:22Z</time></trkpt><trkpt lat="14.518326041858412" lon="121.0293707489475"><ele>19.666666666666664</ele><time>2026-03-28T10:30:23Z</time></trkpt><trkpt lat="14.518508096039142" lon="121.02927679734408"><ele>19.0</ele><time>2026-03-28T10:30:24Z</time></trkpt><trkpt lat="14.518693083950538" lon="121.02917882110346"><ele>19.0</ele><time>2026-03-28T10:30:25Z</time></trkpt><trkpt lat="14.518879163647412" lon="121.02907992596973"><ele>19.0</ele><time>2026-03-28T10:30:26Z</time></trkpt><trkpt lat="14.51906418537189" lon="121.02897963217882"><ele>19.0</ele><time>2026-03-28T10:30:27Z</time></trkpt><trkpt lat="14.519249402999039" lon="121.02888417316987"><ele>19.0</ele><time>2026-03-28T10:30:28Z</time></trkpt><trkpt lat="14.51943529267307" lon="121.02878487541041"><ele>19.0</ele><time>2026-03-28T10:30:29Z</time></trkpt><trkpt lat="14.519613474874943" lon="121.02869187381347"><ele>19.0</ele><time>2026-03-28T10:30:30Z</time></trkpt><trkpt lat="14.519792410730084" lon="121.02859946079343"><ele>18.666666666666664</ele><time>2026-03-28T10:30:31Z</time></trkpt><trkpt lat="14.519965588306848" lon="121.02851031012379"><ele>18.333333333333332</ele><time>2026-03-28T10:30:32Z</time></trkpt><trkpt lat="14.52013456202949" lon="121.028420594043"><ele>18.0</ele><time>2026-03-28T10:30:33Z</time></trkpt><trkpt lat="14.520300704741928" lon="121.02833380752385"><ele>17.333333333333332</ele><time>2026-03-28T10:30:34Z</time></trkpt><trkpt lat="14.520461923207334" lon="121.028250644006"><ele>16.666666666666664</ele><time>2026-03-28T10:30:35Z</time></trkpt><trkpt lat="14.52061666825724" lon="121.02816595979009"><ele>16.0</ele><time>2026-03-28T10:30:36Z</time></trkpt><trkpt lat="14.520772540209032" lon="121.02808240771942"><ele>16.0</ele><time>2026-03-28T10:30:37Z</time></trkpt><trkpt lat="14.520917052181868" lon="121.02800465687108"><ele>16.0</ele><time>2026-03-28T10:30:38Z</time></trkpt><trkpt lat="14.521065751218527" lon="121.02792552297697"><ele>16.0</ele><time>2026-03-28T10:30:39Z</time></trkpt><trkpt lat="14.521209775389023" lon="121.0278456748202"><ele>16.333333333333332</ele><time>2026-03-28T10:30:40Z</time></trkpt><trkpt lat="14.521343095894878" lon="121.02777601038638"><ele>16.666666666666668</ele><time>2026-03-28T10:30:41Z</time></trkpt><trkpt lat="14.521481469383176" lon="121.02770155797204"><ele>17.0</ele><time>2026-03-28T10:30:42Z</time></trkpt><trkpt lat="14.521615781149414" lon="121.02763153125285"><ele>17.0</ele><time>2026-03-28T10:30:43Z</time></trkpt><trkpt lat="14.521756985662238" lon="121.02755448932592"><ele>17.0</ele><time>2026-03-28T10:30:44Z</time></trkpt><trkpt lat="14.521895508215708" lon="121.02748160939151"><ele>17.0</ele><time>2026-03-28T10:30:45Z</time></trkpt><trkpt lat="14.522033580486227" lon="121.02740634222066"><ele>17.0</ele><time>2026-03-28T10:30:46Z</time></trkpt><trkpt lat="14.52216773922691" lon="121.02733184664751"><ele>17.0</ele><time>2026-03-28T10:30:47Z</time></trkpt><trkpt lat="14.52229863126895" lon="121.0272608967271"><ele>17.0</ele><time>2026-03-28T10:30:48Z</time></trkpt><trkpt lat="14.52242960450454" lon="121.02718833934007"><ele>17.0</ele><time>2026-03-28T10:30:49Z</time></trkpt><trkpt lat="14.522569656022947" lon="121.02711508697814"><ele>17.0</ele><time>2026-03-28T10:30:50Z</time></trkpt><trkpt lat="14.522705674610473" lon="121.027040079705"><ele>17.0</ele><time>2026-03-28T10:30:51Z</time></trkpt><trkpt lat="14.522829744511235" lon="121.0269712979575"><ele>17.0</ele><time>2026-03-28T10:30:52Z</time></trkpt><trkpt lat="14.522954746300094" lon="121.02690757662343"><ele>17.0</ele><time>2026-03-28T10:30:53Z</time></trkpt><trkpt lat="14.523078480368373" lon="121.02684240383206"><ele>16.75</ele><time>2026-03-28T10:30:54Z</time></trkpt><trkpt lat="14.523203941764722" lon="121.02677349490509"><ele>16.5</ele><time>2026-03-28T10:30:55Z</time></trkpt><trkpt lat="14.523330872031021" lon="121.0267069893374"><ele>16.25</ele><time>2026-03-28T10:30:56Z</time></trkpt><trkpt lat="14.523454855276077" lon="121.02663089936487"><ele>16.0</ele><time>2026-03-28T10:30:57Z</time></trkpt><trkpt lat="14.523580516836947" lon="121.02655542102882"><ele>16.0</ele><time>2026-03-28T10:30:58Z</time></trkpt><trkpt lat="14.523704498016789" lon="121.02648065692851"><ele>16.0</ele><time>2026-03-28T10:30:59Z</time></trkpt><trkpt lat="14.523824263255243" lon="121.02640931372605"><ele>16.0</ele><time>2026-03-28T10:31:00Z</time></trkpt><trkpt lat="14.523942253622913" lon="121.0263348455404"><ele>16.0</ele><time>2026-03-28T10:31:01Z</time></trkpt><trkpt lat="14.524059042028785" lon="121.02627224310791"><ele>16.25</ele><time>2026-03-28T10:31:02Z</time></trkpt><trkpt lat="14.524188241380378" lon="121.026203936215"><ele>16.5</ele><time>2026-03-28T10:31:03Z</time></trkpt><trkpt lat="14.524308810151586" lon="121.02612678063694"><ele>16.75</ele><time>2026-03-28T10:31:04Z</time></trkpt><trkpt lat="14.524428484029698" lon="121.02605015173114"><ele>17.0</ele><time>2026-03-28T10:31:05Z</time></trkpt><trkpt lat="14.524555696588159" lon="121.02596769752992"><ele>16.0</ele><time>2026-03-28T10:31:06Z</time></trkpt><trkpt lat="14.524679914414849" lon="121.0258822913037"><ele>15.0</ele><time>2026-03-28T10:31:07Z</time></trkpt><trkpt lat="14.524803422198243" lon="121.02580147432239"><ele>14.0</ele><time>2026-03-28T10:31:08Z</time></trkpt><trkpt lat="14.524927586247186" lon="121.02571135669358"><ele>13.0</ele><time>2026-03-28T10:31:09Z</time></trkpt><trkpt lat="14.525060269297423" lon="121.02561991201352"><ele>12.333333333333332</ele><time>2026-03-28T10:31:10Z</time></trkpt><trkpt lat="14.525182418094056" lon="121.02553109290224"><ele>11.666666666666666</ele><time>2026-03-28T10:31:11Z</time></trkpt><trkpt lat="14.5253160148989" lon="121.02543454002792"><ele>11.0</ele><time>2026-03-28T10:31:12Z</time></trkpt><trkpt lat="14.52544375431494" lon="121.02533949544207"><ele>10.666666666666666</ele><time>2026-03-28T10:31:13Z</time></trkpt><trkpt lat="14.525571065643181" lon="121.02524054980982"><ele>10.333333333333334</ele><time>2026-03-28T10:31:14Z</time></trkpt><trkpt lat="14.525700127935018" lon="121.02514016509897"><ele>10.0</ele><time>2026-03-28T10:31:15Z</time></trkpt><trkpt lat="14.525833043826413" lon="121.02503765308319"><ele>10.666666666666668</ele><time>2026-03-28T10:31:16Z</time></trkpt><trkpt lat="14.5259662984777" lon="121.02493045001941"><ele>11.333333333333334</ele><time>2026-03-28T10:31:17Z</time></trkpt><trkpt lat="14.52609768586843" lon="121.02482797590262"><ele>12.0</ele><time>2026-03-28T10:31:18Z</time></trkpt><trkpt lat="14.52624230503816" lon="121.0247210322499"><ele>12.0</ele><time>2026-03-28T10:31:19Z</time></trkpt><trkpt lat="14.526390024139312" lon="121.02461617049731"><ele>12.0</ele><time>2026-03-28T10:31:20Z</time></trkpt><trkpt lat="14.526536754207942" lon="121.02451150489253"><ele>12.0</ele><time>2026-03-28T10:31:21Z</time></trkpt><trkpt lat="14.526687529655742" lon="121.02440567276054"><ele>12.0</ele><time>2026-03-28T10:31:22Z</time></trkpt><trkpt lat="14.526835945916142" lon="121.02430276163986"><ele>12.0</ele><time>2026-03-28T10:31:23Z</time></trkpt><trkpt lat="14.526985068321077" lon="121.02420119627149"><ele>12.0</ele><time>2026-03-28T10:31:24Z</time></trkpt><trkpt lat="14.527132175496718" lon="121.02410417553749"><ele>11.666666666666666</ele><time>2026-03-28T10:31:25Z</time></trkpt><trkpt lat="14.527282314949577" lon="121.02401160588985"><ele>11.333333333333332</ele><time>2026-03-28T10:31:26Z</time></trkpt><trkpt lat="14.527434205148696" lon="121.02391835619177"><ele>11.0</ele><time>2026-03-28T10:31:27Z</time></trkpt><trkpt lat="14.527591205392111" lon="121.02382586786479"><ele>11.0</ele><time>2026-03-28T10:31:28Z</time></trkpt><trkpt lat="14.527738772634992" lon="121.02374228818174"><ele>11.0</ele><time>2026-03-28T10:31:29Z</time></trkpt><trkpt lat="14.527900414383964" lon="121.02365453879828"><ele>11.0</ele><time>2026-03-28T10:31:30Z</time></trkpt><trkpt lat="14.528056989422156" lon="121.0235663768982"><ele>10.666666666666666</ele><time>2026-03-28T10:31:31Z</time></trkpt><trkpt lat="14.528223901568063" lon="121.02347664831804"><ele>10.333333333333334</ele><time>2026-03-28T10:31:32Z</time></trkpt><trkpt lat="14.528393193056594" lon="121.02338344829234"><ele>10.0</ele><time>2026-03-28T10:31:33Z</time></trkpt><trkpt lat="14.528560979051086" lon="121.02329915417232"><ele>10.0</ele><time>2026-03-28T10:31:34Z</time></trkpt><trkpt lat="14.528730491783392" lon="121.02321175865194"><ele>10.0</ele><time>2026-03-28T10:31:35Z</time></trkpt><trkpt lat="14.528900685201807" lon="121.0231175562194"><ele>10.0</ele><time>2026-03-28T10:31:36Z</time></trkpt><trkpt lat="14.529073004975203" lon="121.0230239508243"><ele>10.0</ele><time>2026-03-28T10:31:37Z</time></trkpt><trkpt lat="14.529240825806653" lon="121.02293261746067"><ele>10.0</ele><time>2026-03-28T10:31:38Z</time></trkpt><trkpt lat="14.52941288195353" lon="121.02284132233105"><ele>10.0</ele><time>2026-03-28T10:31:39Z</time></trkpt><trkpt lat="14.529582006305688" lon="121.02274999192797"><ele>10.333333333333334</ele><time>2026-03-28T10:31:40Z</time></trkpt><trkpt lat="14.529752343614208" lon="121.0226570151277"><ele>10.666666666666666</ele><time>2026-03-28T10:31:41Z</time></trkpt><trkpt lat="14.529931675858075" lon="121.02256103152905"><ele>11.0</ele><time>2026-03-28T10:31:42Z</time></trkpt><trkpt lat="14.530103876995254" lon="121.02246971532769"><ele>10.333333333333332</ele><time>2026-03-28T10:31:43Z</time></trkpt><trkpt lat="14.530281508709356" lon="121.02237344900692"><ele>9.666666666666666</ele><time>2026-03-28T10:31:44Z</time></trkpt><trkpt lat="14.530451401533886" lon="121.02228710757302"><ele>9.0</ele><time>2026-03-28T10:31:45Z</time></trkpt><trkpt lat="14.530626289270504" lon="121.02218777371705"><ele>9.0</ele><time>2026-03-28T10:31:46Z</time></trkpt><trkpt lat="14.53079856311724" lon="121.02209521726094"><ele>9.0</ele><time>2026-03-28T10:31:47Z</time></trkpt><trkpt lat="14.53097336616215" lon="121.02199899617356"><ele>9.0</ele><time>2026-03-28T10:31:48Z</time></trkpt><trkpt lat="14.531153872714976" lon="121.02190253111448"><ele>8.666666666666666</ele><time>2026-03-28T10:31:49Z</time></trkpt><trkpt lat="14.53132624777923" lon="121.02181018181548"><ele>8.333333333333332</ele><time>2026-03-28T10:31:50Z</time></trkpt><trkpt lat="14.531502168978065" lon="121.02171932385355"><ele>8.0</ele><time>2026-03-28T10:31:51Z</time></trkpt><trkpt lat="14.531682154679194" lon="121.02162171900719"><ele>8.0</ele><time>2026-03-28T10:31:52Z</time></trkpt><trkpt lat="14.531855993297732" lon="121.0215308333397"><ele>8.0</ele><time>2026-03-28T10:31:53Z</time></trkpt><trkpt lat="14.532028006760644" lon="121.02143246104363"><ele>8.0</ele><time>2026-03-28T10:31:54Z</time></trkpt><trkpt lat="14.532204316673422" lon="121.0213372855174"><ele>9.333333333333332</ele><time>2026-03-28T10:31:55Z</time></trkpt><trkpt lat="14.532381867920861" lon="121.02124135241436"><ele>10.666666666666666</ele><time>2026-03-28T10:31:56Z</time></trkpt><trkpt lat="14.53255553240115" lon="121.0211438076446"><ele>12.0</ele><time>2026-03-28T10:31:57Z</time></trkpt><trkpt lat="14.53272782676716" lon="121.02105027139872"><ele>13.666666666666668</ele><time>2026-03-28T10:31:58Z</time></trkpt><trkpt lat="14.53289841716384" lon="121.02095912918352"><ele>15.333333333333334</ele><time>2026-03-28T10:31:59Z</time></trkpt><trkpt lat="14.533065668142688" lon="121.02086971896787"><ele>17.0</ele><time>2026-03-28T10:32:00Z</time></trkpt><trkpt lat="14.533226618543322" lon="121.02078246870505"><ele>17.0</ele><time>2026-03-28T10:32:01Z</time></trkpt><trkpt lat="14.53339143747758" lon="121.0206888153688"><ele>17.0</ele><time>2026-03-28T10:32:02Z</time></trkpt><trkpt lat="14.533561873137185" lon="121.02059782852503"><ele>17.0</ele><time>2026-03-28T10:32:03Z</time></trkpt><trkpt lat="14.533726816634974" lon="121.02050559235957"><ele>16.666666666666668</ele><time>2026-03-28T10:32:04Z</time></trkpt><trkpt lat="14.533897419065463" lon="121.0204155643679"><ele>16.333333333333332</ele><time>2026-03-28T10:32:05Z</time></trkpt><trkpt lat="14.534074182231112" lon="121.0203251356825"><ele>16.0</ele><time>2026-03-28T10:32:06Z</time></trkpt><trkpt lat="14.534244212204088" lon="121.02023531769517"><ele>16.0</ele><time>2026-03-28T10:32:07Z</time></trkpt><trkpt lat="14.534406515353393" lon="121.02014977670655"><ele>16.0</ele><time>2026-03-28T10:32:08Z</time></trkpt><trkpt lat="14.534562685059253" lon="121.02006685838823"><ele>16.0</ele><time>2026-03-28T10:32:09Z</time></trkpt><trkpt lat="14.534728371789093" lon="121.01997462804495"><ele>15.0</ele><time>2026-03-28T10:32:10Z</time></trkpt><trkpt lat="14.53488968940506" lon="121.0198881789185"><ele>14.0</ele><time>2026-03-28T10:32:11Z</time></trkpt><trkpt lat="14.535054016923347" lon="121.01980062085417"><ele>13.0</ele><time>2026-03-28T10:32:12Z</time></trkpt><trkpt lat="14.535228075404124" lon="121.01970666052354"><ele>13.666666666666666</ele><time>2026-03-28T10:32:13Z</time></trkpt><trkpt lat="14.535394369535705" lon="121.01961794676868"><ele>14.333333333333332</ele><time>2026-03-28T10:32:14Z</time></trkpt><trkpt lat="14.53556327303962" lon="121.01952881929233"><ele>15.0</ele><time>2026-03-28T10:32:15Z</time></trkpt><trkpt lat="14.53573318684214" lon="121.01945305033841"><ele>15.0</ele><time>2026-03-28T10:32:16Z</time></trkpt><trkpt lat="14.535907663693216" lon="121.01936148581201"><ele>15.0</ele><time>2026-03-28T10:32:17Z</time></trkpt><trkpt lat="14.536080100889464" lon="121.01926871878669"><ele>15.0</ele><time>2026-03-28T10:32:18Z</time></trkpt><trkpt lat="14.536246281364718" lon="121.01917739085644"><ele>13.666666666666666</ele><time>2026-03-28T10:32:19Z</time></trkpt><trkpt lat="14.53641160860167" lon="121.01908521624502"><ele>12.333333333333332</ele><time>2026-03-28T10:32:20Z</time></trkpt><trkpt lat="14.536593858237893" lon="121.01897743458574"><ele>11.0</ele><time>2026-03-28T10:32:21Z</time></trkpt><trkpt lat="14.536757677753286" lon="121.018889588657"><ele>11.0</ele><time>2026-03-28T10:32:22Z</time></trkpt><trkpt lat="14.536914259688073" lon="121.01880467022146"><ele>11.0</ele><time>2026-03-28T10:32:23Z</time></trkpt><trkpt lat="14.537058060464762" lon="121.01872936373215"><ele>11.0</ele><time>2026-03-28T10:32:24Z</time></trkpt><trkpt lat="14.53721282992193" lon="121.0186459808956"><ele>11.0</ele><time>2026-03-28T10:32:25Z</time></trkpt><trkpt lat="14.537369655555556" lon="121.01855918378426"><ele>11.0</ele><time>2026-03-28T10:32:26Z</time></trkpt><trkpt lat="14.537521337282497" lon="121.01847250966703"><ele>11.0</ele><time>2026-03-28T10:32:27Z</time></trkpt><trkpt lat="14.537676591102285" lon="121.01838167028806"><ele>11.0</ele><time>2026-03-28T10:32:28Z</time></trkpt><trkpt lat="14.537828423183019" lon="121.0182983452633"><ele>11.0</ele><time>2026-03-28T10:32:29Z</time></trkpt><trkpt lat="14.537986800309088" lon="121.01821073766195"><ele>11.0</ele><time>2026-03-28T10:32:30Z</time></trkpt><trkpt lat="14.538151094224279" lon="121.018118307557"><ele>11.0</ele><time>2026-03-28T10:32:31Z</time></trkpt><trkpt lat="14.538309254226263" lon="121.01803251968185"><ele>11.0</ele><time>2026-03-28T10:32:32Z</time></trkpt><trkpt lat="14.53845600352287" lon="121.01795240124221"><ele>11.0</ele><time>2026-03-28T10:32:33Z</time></trkpt><trkpt lat="14.53860807335931" lon="121.01786307622362"><ele>10.666666666666666</ele><time>2026-03-28T10:32:34Z</time></trkpt><trkpt lat="14.538761916028156" lon="121.0177793003939"><ele>10.333333333333334</ele><time>2026-03-28T10:32:35Z</time></trkpt><trkpt lat="14.538916648578063" lon="121.01768877356753"><ele>10.0</ele><time>2026-03-28T10:32:36Z</time></trkpt><trkpt lat="14.539063774195585" lon="121.01760733635196"><ele>10.0</ele><time>2026-03-28T10:32:37Z</time></trkpt><trkpt lat="14.53921496524572" lon="121.01752237831889"><ele>10.0</ele><time>2026-03-28T10:32:38Z</time></trkpt><trkpt lat="14.539377825024056" lon="121.01742532751423"><ele>10.0</ele><time>2026-03-28T10:32:39Z</time></trkpt><trkpt lat="14.539532273876157" lon="121.01734171820426"><ele>10.333333333333334</ele><time>2026-03-28T10:32:40Z</time></trkpt><trkpt lat="14.539693806375421" lon="121.0172511072968"><ele>10.666666666666666</ele><time>2026-03-28T10:32:41Z</time></trkpt><trkpt lat="14.539852013582927" lon="121.01716899060732"><ele>11.0</ele><time>2026-03-28T10:32:42Z</time></trkpt><trkpt lat="14.540008799262624" lon="121.01708245678711"><ele>11.0</ele><time>2026-03-28T10:32:43Z</time></trkpt><trkpt lat="14.540171222456621" lon="121.01699430111339"><ele>11.0</ele><time>2026-03-28T10:32:44Z</time></trkpt><trkpt lat="14.540332611018849" lon="121.01690947184302"><ele>11.0</ele><time>2026-03-28T10:32:45Z</time></trkpt><trkpt lat="14.540493427278628" lon="121.01682638879383"><ele>11.333333333333332</ele><time>2026-03-28T10:32:46Z</time></trkpt><trkpt lat="14.54065291548816" lon="121.01674572942373"><ele>11.666666666666666</ele><time>2026-03-28T10:32:47Z</time></trkpt><trkpt lat="14.540810798792453" lon="121.0166607322221"><ele>12.0</ele><time>2026-03-28T10:32:48Z</time></trkpt><trkpt lat="14.540976635312719" lon="121.0165737948316"><ele>12.0</ele><time>2026-03-28T10:32:49Z</time></trkpt><trkpt lat="14.541140211358059" lon="121.0164862156249"><ele>12.0</ele><time>2026-03-28T10:32:50Z</time></trkpt><trkpt lat="14.541303917798974" lon="121.0164029507323"><ele>12.0</ele><time>2026-03-28T10:32:51Z</time></trkpt><trkpt lat="14.541464820016866" lon="121.01631717877989"><ele>11.666666666666666</ele><time>2026-03-28T10:32:52Z</time></trkpt><trkpt lat="14.541620236826365" lon="121.01623769676966"><ele>11.333333333333332</ele><time>2026-03-28T10:32:53Z</time></trkpt><trkpt lat="14.541781680763032" lon="121.01615507922489"><ele>11.0</ele><time>2026-03-28T10:32:54Z</time></trkpt><trkpt lat="14.541948680881863" lon="121.0160684143878"><ele>10.333333333333332</ele><time>2026-03-28T10:32:55Z</time></trkpt><trkpt lat="14.542114081565693" lon="121.01597877144214"><ele>9.666666666666666</ele><time>2026-03-28T10:32:56Z</time></trkpt><trkpt lat="14.542272988280573" lon="121.0158997699884"><ele>9.0</ele><time>2026-03-28T10:32:57Z</time></trkpt><trkpt lat="14.542431052046517" lon="121.01582139719201"><ele>10.0</ele><time>2026-03-28T10:32:58Z</time></trkpt><trkpt lat="14.542596568773924" lon="121.0157357895079"><ele>11.0</ele><time>2026-03-28T10:32:59Z</time></trkpt><trkpt lat="14.542758045414073" lon="121.01565349829711"><ele>12.0</ele><time>2026-03-28T10:33:00Z</time></trkpt><trkpt lat="14.542917926978603" lon="121.01556855741947"><ele>12.0</ele><time>2026-03-28T10:33:01Z</time></trkpt><trkpt lat="14.543090378229556" lon="121.01547132152412"><ele>12.0</ele><time>2026-03-28T10:33:02Z</time></trkpt><trkpt lat="14.543254635254454" lon="121.01538699050555"><ele>12.0</ele><time>2026-03-28T10:33:03Z</time></trkpt><trkpt lat="14.543422494048418" lon="121.01530021137418"><ele>12.0</ele><time>2026-03-28T10:33:04Z</time></trkpt><trkpt lat="14.543584966362907" lon="121.0152179242197"><ele>12.0</ele><time>2026-03-28T10:33:05Z</time></trkpt><trkpt lat="14.543750192862769" lon="121.01513296184565"><ele>12.0</ele><time>2026-03-28T10:33:06Z</time></trkpt><trkpt lat="14.543909227493211" lon="121.01504829493189"><ele>12.0</ele><time>2026-03-28T10:33:07Z</time></trkpt><trkpt lat="14.544066675135234" lon="121.01496908726669"><ele>12.0</ele><time>2026-03-28T10:33:08Z</time></trkpt><trkpt lat="14.544224843716773" lon="121.01487631045046"><ele>12.0</ele><time>2026-03-28T10:33:09Z</time></trkpt><trkpt lat="14.54437018494023" lon="121.01479712278126"><ele>12.0</ele><time>2026-03-28T10:33:10Z</time></trkpt><trkpt lat="14.544534298925276" lon="121.01470777577056"><ele>12.0</ele><time>2026-03-28T10:33:11Z</time></trkpt><trkpt lat="14.544692380637963" lon="121.01462355878391"><ele>12.0</ele><time>2026-03-28T10:33:12Z</time></trkpt><trkpt lat="14.544844557202442" lon="121.01453882221794"><ele>12.0</ele><time>2026-03-28T10:33:13Z</time></trkpt><trkpt lat="14.544996951999948" lon="121.01445879911427"><ele>12.0</ele><time>2026-03-28T10:33:14Z</time></trkpt><trkpt lat="14.545146161881624" lon="121.01437896164383"><ele>12.0</ele><time>2026-03-28T10:33:15Z</time></trkpt><trkpt lat="14.545305505368269" lon="121.0142954363269"><ele>11.333333333333334</ele><time>2026-03-28T10:33:16Z</time></trkpt><trkpt lat="14.545458215276902" lon="121.01421759646641"><ele>10.666666666666668</ele><time>2026-03-28T10:33:17Z</time></trkpt><trkpt lat="14.545611983294" lon="121.01413583723213"><ele>10.0</ele><time>2026-03-28T10:33:18Z</time></trkpt><trkpt lat="14.545760935317647" lon="121.01405225176612"><ele>10.0</ele><time>2026-03-28T10:33:19Z</time></trkpt><trkpt lat="14.545915129006962" lon="121.01396932280849"><ele>10.0</ele><time>2026-03-28T10:33:20Z</time></trkpt><trkpt lat="14.546073207277571" lon="121.0138812007281"><ele>10.0</ele><time>2026-03-28T10:33:21Z</time></trkpt><trkpt lat="14.546228245880567" lon="121.01379405965308"><ele>11.0</ele><time>2026-03-28T10:33:22Z</time></trkpt><trkpt lat="14.546383827898726" lon="121.01371139644576"><ele>12.0</ele><time>2026-03-28T10:33:23Z</time></trkpt><trkpt lat="14.546546726846033" lon="121.01363443265629"><ele>13.0</ele><time>2026-03-28T10:33:24Z</time></trkpt><trkpt lat="14.546702972619276" lon="121.01355538781813"><ele>13.0</ele><time>2026-03-28T10:33:25Z</time></trkpt><trkpt lat="14.546858241002333" lon="121.01346606767014"><ele>13.0</ele><time>2026-03-28T10:33:26Z</time></trkpt><trkpt lat="14.547008680583433" lon="121.01337628252597"><ele>13.0</ele><time>2026-03-28T10:33:27Z</time></trkpt><trkpt lat="14.547163815694393" lon="121.0132920736151"><ele>11.666666666666666</ele><time>2026-03-28T10:33:28Z</time></trkpt><trkpt lat="14.547325086887422" lon="121.01320606117582"><ele>10.333333333333332</ele><time>2026-03-28T10:33:29Z</time></trkpt><trkpt lat="14.547484748589511" lon="121.01311663785243"><ele>9.0</ele><time>2026-03-28T10:33:30Z</time></trkpt><trkpt lat="14.54764383965491" lon="121.01302190465597"><ele>9.0</ele><time>2026-03-28T10:33:31Z</time></trkpt><trkpt lat="14.547808535293429" lon="121.01293016398287"><ele>9.0</ele><time>2026-03-28T10:33:32Z</time></trkpt><trkpt lat="14.547968918780219" lon="121.01284176655282"><ele>9.0</ele><time>2026-03-28T10:33:33Z</time></trkpt><trkpt lat="14.548134974743508" lon="121.01275803854323"><ele>8.666666666666666</ele><time>2026-03-28T10:33:34Z</time></trkpt><trkpt lat="14.54829618010599" lon="121.0126722108518"><ele>8.333333333333332</ele><time>2026-03-28T10:33:35Z</time></trkpt><trkpt lat="14.548456213221371" lon="121.0125905046811"><ele>8.0</ele><time>2026-03-28T10:33:36Z</time></trkpt><trkpt lat="14.548614994283957" lon="121.01250669168003"><ele>8.666666666666666</ele><time>2026-03-28T10:33:37Z</time></trkpt><trkpt lat="14.548772878867506" lon="121.01242164087641"><ele>9.333333333333334</ele><time>2026-03-28T10:33:38Z</time></trkpt><trkpt lat="14.548933685806597" lon="121.01233463856862"><ele>10.0</ele><time>2026-03-28T10:33:39Z</time></trkpt><trkpt lat="14.54908779023225" lon="121.01225024560958"><ele>10.0</ele><time>2026-03-28T10:33:40Z</time></trkpt><trkpt lat="14.54924706398564" lon="121.01216132086917"><ele>10.0</ele><time>2026-03-28T10:33:41Z</time></trkpt><trkpt lat="14.54939638558522" lon="121.01207821218178"><ele>10.0</ele><time>2026-03-28T10:33:42Z</time></trkpt><trkpt lat="14.54954780395787" lon="121.01199842994862"><ele>10.333333333333334</ele><time>2026-03-28T10:33:43Z</time></trkpt><trkpt lat="14.54970074514582" lon="121.01191244069459"><ele>10.666666666666666</ele><time>2026-03-28T10:33:44Z</time></trkpt><trkpt lat="14.549853859957576" lon="121.01183021803205"><ele>11.0</ele><time>2026-03-28T10:33:45Z</time></trkpt><trkpt lat="14.550009558601273" lon="121.011746282654"><ele>10.333333333333332</ele><time>2026-03-28T10:33:46Z</time></trkpt><trkpt lat="14.550176784138628" lon="121.0116519259629"><ele>9.666666666666666</ele><time>2026-03-28T10:33:47Z</time></trkpt><trkpt lat="14.550335388968378" lon="121.01156741650787"><ele>9.0</ele><time>2026-03-28T10:33:48Z</time></trkpt><trkpt lat="14.550494463524057" lon="121.0114843650565"><ele>9.0</ele><time>2026-03-28T10:33:49Z</time></trkpt><trkpt lat="14.550639158046641" lon="121.011409306889"><ele>9.0</ele><time>2026-03-28T10:33:50Z</time></trkpt><trkpt lat="14.550793457394912" lon="121.01132278200605"><ele>9.0</ele><time>2026-03-28T10:33:51Z</time></trkpt><trkpt lat="14.550943727175804" lon="121.01124158230712"><ele>9.0</ele><time>2026-03-28T10:33:52Z</time></trkpt><trkpt lat="14.551097679373608" lon="121.011156174648"><ele>9.0</ele><time>2026-03-28T10:33:53Z</time></trkpt><trkpt lat="14.551244443642442" lon="121.01107824412479"><ele>9.0</ele><time>2026-03-28T10:33:54Z</time></trkpt><trkpt lat="14.551387886872062" lon="121.01100428946671"><ele>8.666666666666666</ele><time>2026-03-28T10:33:55Z</time></trkpt><trkpt lat="14.551532482764099" lon="121.01092225717424"><ele>8.333333333333332</ele><time>2026-03-28T10:33:56Z</time></trkpt><trkpt lat="14.551674130304608" lon="121.01084678056121"><ele>8.0</ele><time>2026-03-28T10:33:57Z</time></trkpt><trkpt lat="14.551819049461038" lon="121.01076722723283"><ele>8.0</ele><time>2026-03-28T10:33:58Z</time></trkpt><trkpt lat="14.55196242551348" lon="121.01068744010452"><ele>8.0</ele><time>2026-03-28T10:33:59Z</time></trkpt><trkpt lat="14.55210893184917" lon="121.01060617269619"><ele>8.0</ele><time>2026-03-28T10:34:00Z</time></trkpt><trkpt lat="14.55225683434175" lon="121.0105272808855"><ele>7.666666666666666</ele><time>2026-03-28T10:34:01Z</time></trkpt><trkpt lat="14.552408966354392" lon="121.01044267020768"><ele>7.333333333333334</ele><time>2026-03-28T10:34:02Z</time></trkpt><trkpt lat="14.552561966748849" lon="121.01036005931648"><ele>7.0</ele><time>2026-03-28T10:34:03Z</time></trkpt><trkpt lat="14.552710861639852" lon="121.01028354341018"><ele>7.0</ele><time>2026-03-28T10:34:04Z</time></trkpt><trkpt lat="14.552883922498077" lon="121.0101901864303"><ele>7.0</ele><time>2026-03-28T10:34:05Z</time></trkpt><trkpt lat="14.55303908831974" lon="121.01010852985738"><ele>7.0</ele><time>2026-03-28T10:34:06Z</time></trkpt><trkpt lat="14.553196853120623" lon="121.01002187177033"><ele>7.0</ele><time>2026-03-28T10:34:07Z</time></trkpt><trkpt lat="14.55335542769672" lon="121.00993791169736"><ele>7.0</ele><time>2026-03-28T10:34:08Z</time></trkpt><trkpt lat="14.553512230849469" lon="121.00985292371361"><ele>7.0</ele><time>2026-03-28T10:34:09Z</time></trkpt><trkpt lat="14.553665688175899" lon="121.00977049816866"><ele>7.0</ele><time>2026-03-28T10:34:10Z</time></trkpt><trkpt lat="14.553819585558829" lon="121.00968683898347"><ele>7.0</ele><time>2026-03-28T10:34:11Z</time></trkpt><trkpt lat="14.55397248167472" lon="121.0096065112502"><ele>7.0</ele><time>2026-03-28T10:34:12Z</time></trkpt><trkpt lat="14.554137830085551" lon="121.00951411079416"><ele>7.0</ele><time>2026-03-28T10:34:13Z</time></trkpt><trkpt lat="14.554299273062133" lon="121.00942431808141"><ele>7.0</ele><time>2026-03-28T10:34:14Z</time></trkpt><trkpt lat="14.554461781219779" lon="121.00933780599284"><ele>7.0</ele><time>2026-03-28T10:34:15Z</time></trkpt><trkpt lat="14.55462573969611" lon="121.00925013443693"><ele>6.333333333333334</ele><time>2026-03-28T10:34:16Z</time></trkpt><trkpt lat="14.554789885737963" lon="121.00916409403727"><ele>5.666666666666667</ele><time>2026-03-28T10:34:17Z</time></trkpt><trkpt lat="14.554950679985986" lon="121.00907865558797"><ele>5.0</ele><time>2026-03-28T10:34:18Z</time></trkpt><trkpt lat="14.55511304121767" lon="121.00899353833056"><ele>5.0</ele><time>2026-03-28T10:34:19Z</time></trkpt><trkpt lat="14.555283707635892" lon="121.00890608058099"><ele>5.0</ele><time>2026-03-28T10:34:20Z</time></trkpt><trkpt lat="14.555438837997007" lon="121.00881925673596"><ele>5.0</ele><time>2026-03-28T10:34:21Z</time></trkpt><trkpt lat="14.555601661316512" lon="121.00873271956104"><ele>6.0</ele><time>2026-03-28T10:34:22Z</time></trkpt><trkpt lat="14.555763754056429" lon="121.00864899775576"><ele>7.0</ele><time>2026-03-28T10:34:23Z</time></trkpt><trkpt lat="14.555918456713904" lon="121.00856324624775"><ele>8.0</ele><time>2026-03-28T10:34:24Z</time></trkpt><trkpt lat="14.556075486297615" lon="121.00847414155687"><ele>7.333333333333333</ele><time>2026-03-28T10:34:25Z</time></trkpt><trkpt lat="14.556229168783908" lon="121.00838976856215"><ele>6.666666666666666</ele><time>2026-03-28T10:34:26Z</time></trkpt><trkpt lat="14.55638160014765" lon="121.00830517674673"><ele>6.0</ele><time>2026-03-28T10:34:27Z</time></trkpt><trkpt lat="14.556536071801613" lon="121.00822216482436"><ele>5.666666666666667</ele><time>2026-03-28T10:34:28Z</time></trkpt><trkpt lat="14.556687973859516" lon="121.00814158166695"><ele>5.333333333333334</ele><time>2026-03-28T10:34:29Z</time></trkpt><trkpt lat="14.556836998992798" lon="121.00806348607583"><ele>5.0</ele><time>2026-03-28T10:34:30Z</time></trkpt><trkpt lat="14.556992045397266" lon="121.00798109273603"><ele>5.666666666666667</ele><time>2026-03-28T10:34:31Z</time></trkpt><trkpt lat="14.557147504881149" lon="121.00789590286323"><ele>6.333333333333334</ele><time>2026-03-28T10:34:32Z</time></trkpt><trkpt lat="14.557298062551922" lon="121.00780594381047"><ele>7.0</ele><time>2026-03-28T10:34:33Z</time></trkpt><trkpt lat="14.557448620226161" lon="121.00773070940677"><ele>7.0</ele><time>2026-03-28T10:34:34Z</time></trkpt><trkpt lat="14.557594814415147" lon="121.00764702837783"><ele>7.0</ele><time>2026-03-28T10:34:35Z</time></trkpt><trkpt lat="14.557755429901968" lon="121.00756042294753"><ele>7.0</ele><time>2026-03-28T10:34:36Z</time></trkpt><trkpt lat="14.557904027363898" lon="121.00747739116576"><ele>7.666666666666667</ele><time>2026-03-28T10:34:37Z</time></trkpt><trkpt lat="14.558061614633244" lon="121.00739240609019"><ele>8.333333333333334</ele><time>2026-03-28T10:34:38Z</time></trkpt><trkpt lat="14.558222969699434" lon="121.00730260514119"><ele>9.0</ele><time>2026-03-28T10:34:39Z</time></trkpt><trkpt lat="14.558388656053495" lon="121.0072136567205"><ele>9.0</ele><time>2026-03-28T10:34:40Z</time></trkpt><trkpt lat="14.558555601510289" lon="121.00712015066195"><ele>9.0</ele><time>2026-03-28T10:34:41Z</time></trkpt><trkpt lat="14.558724185037903" lon="121.00702800338905"><ele>9.0</ele><time>2026-03-28T10:34:42Z</time></trkpt><trkpt lat="14.558891511088607" lon="121.006934414232"><ele>8.333333333333334</ele><time>2026-03-28T10:34:43Z</time></trkpt><trkpt lat="14.55906812618055" lon="121.00683753897735"><ele>7.666666666666667</ele><time>2026-03-28T10:34:44Z</time></trkpt><trkpt lat="14.559250833157844" lon="121.00673930638376"><ele>7.0</ele><time>2026-03-28T10:34:45Z</time></trkpt><trkpt lat="14.55942430015776" lon="121.00664117617657"><ele>6.666666666666667</ele><time>2026-03-28T10:34:46Z</time></trkpt><trkpt lat="14.55960428347658" lon="121.0065410007763"><ele>6.333333333333334</ele><time>2026-03-28T10:34:47Z</time></trkpt><trkpt lat="14.559787784436617" lon="121.00644181452485"><ele>6.0</ele><time>2026-03-28T10:34:48Z</time></trkpt><trkpt lat="14.559970875427227" lon="121.00634128589651"><ele>6.0</ele><time>2026-03-28T10:34:49Z</time></trkpt><trkpt lat="14.560156047956076" lon="121.0062409086015"><ele>6.0</ele><time>2026-03-28T10:34:50Z</time></trkpt><trkpt lat="14.5603301715262" lon="121.0061518591"><ele>6.0</ele><time>2026-03-28T10:34:51Z</time></trkpt><trkpt lat="14.560509192329302" lon="121.00605529727447"><ele>6.333333333333334</ele><time>2026-03-28T10:34:52Z</time></trkpt><trkpt lat="14.56069106299214" lon="121.00595966728636"><ele>6.666666666666667</ele><time>2026-03-28T10:34:53Z</time></trkpt><trkpt lat="14.560869320579052" lon="121.00586661299967"><ele>7.0</ele><time>2026-03-28T10:34:54Z</time></trkpt><trkpt lat="14.561048482740354" lon="121.00576867420044"><ele>6.666666666666667</ele><time>2026-03-28T10:34:55Z</time></trkpt><trkpt lat="14.56122833965619" lon="121.00566874445656"><ele>6.333333333333334</ele><time>2026-03-28T10:34:56Z</time></trkpt><trkpt lat="14.561402290488157" lon="121.00557151077233"><ele>6.0</ele><time>2026-03-28T10:34:57Z</time></trkpt><trkpt lat="14.56157731957416" lon="121.00547824162929"><ele>6.0</ele><time>2026-03-28T10:34:58Z</time></trkpt><trkpt lat="14.561746210432034" lon="121.00538679401825"><ele>6.0</ele><time>2026-03-28T10:34:59Z</time></trkpt><trkpt lat="14.561919144694228" lon="121.00529347222191"><ele>6.0</ele><time>2026-03-28T10:35:00Z</time></trkpt><trkpt lat="14.56209082873607" lon="121.00519993937878"><ele>5.666666666666667</ele><time>2026-03-28T10:35:01Z</time></trkpt><trkpt lat="14.562258577293107" lon="121.00510935704045"><ele>5.333333333333334</ele><time>2026-03-28T10:35:02Z</time></trkpt><trkpt lat="14.562420012019725" lon="121.00502256686401"><ele>5.0</ele><time>2026-03-28T10:35:03Z</time></trkpt><trkpt lat="14.56258033032509" lon="121.00493542215777"><ele>5.0</ele><time>2026-03-28T10:35:04Z</time></trkpt><trkpt lat="14.562738791296665" lon="121.00485090427932"><ele>5.0</ele><time>2026-03-28T10:35:05Z</time></trkpt><trkpt lat="14.562893591237552" lon="121.00476058518491"><ele>5.0</ele><time>2026-03-28T10:35:06Z</time></trkpt><trkpt lat="14.563055317126333" lon="121.00468410726563"><ele>5.666666666666667</ele><time>2026-03-28T10:35:07Z</time></trkpt><trkpt lat="14.563209735353388" lon="121.00460382488224"><ele>6.333333333333334</ele><time>2026-03-28T10:35:08Z</time></trkpt><trkpt lat="14.563371551255432" lon="121.00452343654845"><ele>7.0</ele><time>2026-03-28T10:35:09Z</time></trkpt><trkpt lat="14.563530677552716" lon="121.00444529355403"><ele>7.0</ele><time>2026-03-28T10:35:10Z</time></trkpt><trkpt lat="14.56369030530178" lon="121.00436625524047"><ele>7.0</ele><time>2026-03-28T10:35:11Z</time></trkpt><trkpt lat="14.563849630697852" lon="121.0042874147161"><ele>7.0</ele><time>2026-03-28T10:35:12Z</time></trkpt><trkpt lat="14.56400918949385" lon="121.00420703661243"><ele>6.666666666666667</ele><time>2026-03-28T10:35:13Z</time></trkpt><trkpt lat="14.564172792101717" lon="121.00412255669345"><ele>6.333333333333334</ele><time>2026-03-28T10:35:14Z</time></trkpt><trkpt lat="14.564325188376538" lon="121.00404994427784"><ele>6.0</ele><time>2026-03-28T10:35:15Z</time></trkpt><trkpt lat="14.564489767438278" lon="121.00396413636028"><ele>6.0</ele><time>2026-03-28T10:35:16Z</time></trkpt><trkpt lat="14.564651247908524" lon="121.0038783647399"><ele>6.0</ele><time>2026-03-28T10:35:17Z</time></trkpt><trkpt lat="14.564814352121203" lon="121.00378542286559"><ele>6.0</ele><time>2026-03-28T10:35:18Z</time></trkpt><trkpt lat="14.564975442133115" lon="121.00369681142908"><ele>6.0</ele><time>2026-03-28T10:35:19Z</time></trkpt><trkpt lat="14.565154256551631" lon="121.00360509544423"><ele>6.0</ele><time>2026-03-28T10:35:20Z</time></trkpt><trkpt lat="14.565309092773502" lon="121.0035180632214"><ele>6.0</ele><time>2026-03-28T10:35:21Z</time></trkpt><trkpt lat="14.565478994477475" lon="121.00342591986202"><ele>5.666666666666667</ele><time>2026-03-28T10:35:22Z</time></trkpt><trkpt lat="14.565649181355559" lon="121.00333120738249"><ele>5.333333333333334</ele><time>2026-03-28T10:35:23Z</time></trkpt><trkpt lat="14.565823217749346" lon="121.00323782054075"><ele>5.0</ele><time>2026-03-28T10:35:24Z</time></trkpt><trkpt lat="14.56599466802587" lon="121.0031409547534"><ele>5.0</ele><time>2026-03-28T10:35:25Z</time></trkpt><trkpt lat="14.566168900566714" lon="121.0030425231474"><ele>5.0</ele><time>2026-03-28T10:35:26Z</time></trkpt><trkpt lat="14.5663371433143" lon="121.00294519769315"><ele>5.0</ele><time>2026-03-28T10:35:27Z</time></trkpt><trkpt lat="14.5665015755764" lon="121.00285418002903"><ele>5.0</ele><time>2026-03-28T10:35:28Z</time></trkpt><trkpt lat="14.5666769686503" lon="121.00275870645058"><ele>5.0</ele><time>2026-03-28T10:35:29Z</time></trkpt><trkpt lat="14.566845681444992" lon="121.00265701436402"><ele>5.0</ele><time>2026-03-28T10:35:30Z</time></trkpt><trkpt lat="14.567023879030183" lon="121.0025560074664"><ele>6.0</ele><time>2026-03-28T10:35:31Z</time></trkpt><trkpt lat="14.567198030901276" lon="121.0024523931201"><ele>7.0</ele><time>2026-03-28T10:35:32Z</time></trkpt><trkpt lat="14.567373983725364" lon="121.0023494350518"><ele>8.0</ele><time>2026-03-28T10:35:33Z</time></trkpt><trkpt lat="14.567542953223613" lon="121.0022436641663"><ele>8.0</ele><time>2026-03-28T10:35:34Z</time></trkpt><trkpt lat="14.567712468301778" lon="121.00213954016196"><ele>8.0</ele><time>2026-03-28T10:35:35Z</time></trkpt><trkpt lat="14.567875887277168" lon="121.00204218805028"><ele>8.0</ele><time>2026-03-28T10:35:36Z</time></trkpt><trkpt lat="14.568050087382073" lon="121.00194041915883"><ele>8.333333333333332</ele><time>2026-03-28T10:35:37Z</time></trkpt><trkpt lat="14.568215839436276" lon="121.00184578452554"><ele>8.666666666666666</ele><time>2026-03-28T10:35:38Z</time></trkpt><trkpt lat="14.56838282904406" lon="121.00174982098783"><ele>9.0</ele><time>2026-03-28T10:35:39Z</time></trkpt><trkpt lat="14.56855015857029" lon="121.00165483626462"><ele>8.333333333333334</ele><time>2026-03-28T10:35:40Z</time></trkpt><trkpt lat="14.568718784001616" lon="121.00156376536415"><ele>7.666666666666667</ele><time>2026-03-28T10:35:41Z</time></trkpt><trkpt lat="14.568888073511939" lon="121.00147641318162"><ele>7.0</ele><time>2026-03-28T10:35:42Z</time></trkpt><trkpt lat="14.569054929066619" lon="121.00138745045103"><ele>7.0</ele><time>2026-03-28T10:35:43Z</time></trkpt><trkpt lat="14.5692220040059" lon="121.00129454458822"><ele>7.0</ele><time>2026-03-28T10:35:44Z</time></trkpt><trkpt lat="14.569391551896256" lon="121.0012059374626"><ele>7.0</ele><time>2026-03-28T10:35:45Z</time></trkpt><trkpt lat="14.569561077967924" lon="121.00110718207091"><ele>8.0</ele><time>2026-03-28T10:35:46Z</time></trkpt><trkpt lat="14.569707923294299" lon="121.00102733251646"><ele>9.0</ele><time>2026-03-28T10:35:47Z</time></trkpt><trkpt lat="14.569871223062066" lon="121.00094305188061"><ele>10.0</ele><time>2026-03-28T10:35:48Z</time></trkpt><trkpt lat="14.570037493120173" lon="121.00085618350623"><ele>9.333333333333334</ele><time>2026-03-28T10:35:49Z</time></trkpt><trkpt lat="14.570203980177679" lon="121.00076963822798"><ele>8.666666666666666</ele><time>2026-03-28T10:35:50Z</time></trkpt><trkpt lat="14.570372155293663" lon="121.00068062535534"><ele>8.0</ele><time>2026-03-28T10:35:51Z</time></trkpt><trkpt lat="14.570540013881494" lon="121.00059113232443"><ele>7.0</ele><time>2026-03-28T10:35:52Z</time></trkpt><trkpt lat="14.570710685252369" lon="121.00049766806832"><ele>6.0</ele><time>2026-03-28T10:35:53Z</time></trkpt><trkpt lat="14.570876296402751" lon="121.00040340152559"><ele>5.0</ele><time>2026-03-28T10:35:54Z</time></trkpt><trkpt lat="14.571047654296526" lon="121.00030943345834"><ele>5.333333333333334</ele><time>2026-03-28T10:35:55Z</time></trkpt><trkpt lat="14.571222832520148" lon="121.00021331678626"><ele>5.666666666666667</ele><time>2026-03-28T10:35:56Z</time></trkpt><trkpt lat="14.571395472076915" lon="121.00012090750693"><ele>6.0</ele><time>2026-03-28T10:35:57Z</time></trkpt><trkpt lat="14.571567469177502" lon="121.00002911834943"><ele>6.0</ele><time>2026-03-28T10:35:58Z</time></trkpt><trkpt lat="14.571738620238266" lon="120.99993631623344"><ele>6.0</ele><time>2026-03-28T10:35:59Z</time></trkpt><trkpt lat="14.571904688201336" lon="120.99984693219517"><ele>6.0</ele><time>2026-03-28T10:36:00Z</time></trkpt><trkpt lat="14.572070743012965" lon="120.99975450799816"><ele>6.333333333333334</ele><time>2026-03-28T10:36:01Z</time></trkpt><trkpt lat="14.572234590342644" lon="120.99966289562968"><ele>6.666666666666667</ele><time>2026-03-28T10:36:02Z</time></trkpt><trkpt lat="14.572404160337081" lon="120.9995736631145"><ele>7.0</ele><time>2026-03-28T10:36:03Z</time></trkpt><trkpt lat="14.57256343232613" lon="120.9994885656766"><ele>7.0</ele><time>2026-03-28T10:36:04Z</time></trkpt><trkpt lat="14.572720337098392" lon="120.99940291890839"><ele>7.0</ele><time>2026-03-28T10:36:05Z</time></trkpt><trkpt lat="14.572876637110014" lon="120.99931845582734"><ele>7.0</ele><time>2026-03-28T10:36:06Z</time></trkpt><trkpt lat="14.573029053109652" lon="120.99923413998756"><ele>7.0</ele><time>2026-03-28T10:36:07Z</time></trkpt><trkpt lat="14.573174287564788" lon="120.99915604373133"><ele>7.0</ele><time>2026-03-28T10:36:08Z</time></trkpt><trkpt lat="14.573324253084863" lon="120.99908092957902"><ele>7.0</ele><time>2026-03-28T10:36:09Z</time></trkpt><trkpt lat="14.573482068792064" lon="120.99899751540241"><ele>7.0</ele><time>2026-03-28T10:36:10Z</time></trkpt><trkpt lat="14.573633764377547" lon="120.9989154863293"><ele>7.0</ele><time>2026-03-28T10:36:11Z</time></trkpt><trkpt lat="14.573781722730095" lon="120.9988368196221"><ele>7.0</ele><time>2026-03-28T10:36:12Z</time></trkpt><trkpt lat="14.573935434599006" lon="120.9987618637488"><ele>6.666666666666667</ele><time>2026-03-28T10:36:13Z</time></trkpt><trkpt lat="14.5740866608876" lon="120.9986840201316"><ele>6.333333333333334</ele><time>2026-03-28T10:36:14Z</time></trkpt><trkpt lat="14.574238945379793" lon="120.99860160261083"><ele>6.0</ele><time>2026-03-28T10:36:15Z</time></trkpt><trkpt lat="14.574392263506398" lon="120.99852042974042"><ele>6.0</ele><time>2026-03-28T10:36:16Z</time></trkpt><trkpt lat="14.574536538654431" lon="120.99843793080295"><ele>6.0</ele><time>2026-03-28T10:36:17Z</time></trkpt><trkpt lat="14.574680794196476" lon="120.9983587504989"><ele>6.0</ele><time>2026-03-28T10:36:18Z</time></trkpt><trkpt lat="14.574830085616087" lon="120.998280358896"><ele>6.0</ele><time>2026-03-28T10:36:19Z</time></trkpt><trkpt lat="14.574975103471452" lon="120.99820332136169"><ele>6.0</ele><time>2026-03-28T10:36:20Z</time></trkpt><trkpt lat="14.575117231663437" lon="120.99813014289384"><ele>6.0</ele><time>2026-03-28T10:36:21Z</time></trkpt><trkpt lat="14.575260110062272" lon="120.99805487345499"><ele>5.75</ele><time>2026-03-28T10:36:22Z</time></trkpt><trkpt lat="14.575384986628308" lon="120.99798786770135"><ele>5.5</ele><time>2026-03-28T10:36:23Z</time></trkpt><trkpt lat="14.57550685335236" lon="120.99791978457976"><ele>5.25</ele><time>2026-03-28T10:36:24Z</time></trkpt><trkpt lat="14.575616965926297" lon="120.99785776539223"><ele>5.0</ele><time>2026-03-28T10:36:25Z</time></trkpt><trkpt lat="14.575716201701153" lon="120.99780800759251"><ele>5.0</ele><time>2026-03-28T10:36:26Z</time></trkpt><trkpt lat="14.575814818469786" lon="120.9977578444152"><ele>5.0</ele><time>2026-03-28T10:36:27Z</time></trkpt><trkpt lat="14.575919083247754" lon="120.99771241678357"><ele>5.0</ele><time>2026-03-28T10:36:28Z</time></trkpt><trkpt lat="14.576023111719364" lon="120.99767040021268"><ele>5.0</ele><time>2026-03-28T10:36:29Z</time></trkpt><trkpt lat="14.576127608770204" lon="120.99762809405439"><ele>5.0</ele><time>2026-03-28T10:36:30Z</time></trkpt><trkpt lat="14.57624102145867" lon="120.99759260622675"><ele>5.0</ele><time>2026-03-28T10:36:31Z</time></trkpt><trkpt lat="14.576355738154481" lon="120.9975621540297"><ele>5.0</ele><time>2026-03-28T10:36:32Z</time></trkpt><trkpt lat="14.57647969116514" lon="120.99753575092468"><ele>5.0</ele><time>2026-03-28T10:36:33Z</time></trkpt><trkpt lat="14.57660526263986" lon="120.99752039384974"><ele>5.0</ele><time>2026-03-28T10:36:34Z</time></trkpt><trkpt lat="14.576730858108379" lon="120.99751297858758"><ele>5.0</ele><time>2026-03-28T10:36:35Z</time></trkpt><trkpt lat="14.576866366349531" lon="120.9975090876968"><ele>5.0</ele><time>2026-03-28T10:36:36Z</time></trkpt><trkpt lat="14.577000894325366" lon="120.99751603587524"><ele>5.0</ele><time>2026-03-28T10:36:37Z</time></trkpt><trkpt lat="14.577137178122664" lon="120.99753308789926"><ele>5.0</ele><time>2026-03-28T10:36:38Z</time></trkpt><trkpt lat="14.577278511044195" lon="120.99755888620729"><ele>6.25</ele><time>2026-03-28T10:36:39Z</time></trkpt><trkpt lat="14.57741689641698" lon="120.99759274323215"><ele>7.5</ele><time>2026-03-28T10:36:40Z</time></trkpt><trkpt lat="14.577555456494318" lon="120.99764244226495"><ele>8.75</ele><time>2026-03-28T10:36:41Z</time></trkpt><trkpt lat="14.577700288775935" lon="120.99769562742424"><ele>10.0</ele><time>2026-03-28T10:36:42Z</time></trkpt><trkpt lat="14.577839212747278" lon="120.99776083371938"><ele>8.666666666666668</ele><time>2026-03-28T10:36:43Z</time></trkpt><trkpt lat="14.577976828796526" lon="120.99783968821023"><ele>7.333333333333334</ele><time>2026-03-28T10:36:44Z</time></trkpt><trkpt lat="14.578109349375914" lon="120.99792611600381"><ele>6.0</ele><time>2026-03-28T10:36:45Z</time></trkpt><trkpt lat="14.5782398125029" lon="120.99801758188232"><ele>6.0</ele><time>2026-03-28T10:36:46Z</time></trkpt><trkpt lat="14.578369555972717" lon="120.99811401561394"><ele>6.0</ele><time>2026-03-28T10:36:47Z</time></trkpt><trkpt lat="14.578496725249941" lon="120.99821484587548"><ele>6.0</ele><time>2026-03-28T10:36:48Z</time></trkpt><trkpt lat="14.57862725982464" lon="120.99831950768731"><ele>6.0</ele><time>2026-03-28T10:36:49Z</time></trkpt><trkpt lat="14.578761635152913" lon="120.99842197943319"><ele>6.0</ele><time>2026-03-28T10:36:50Z</time></trkpt><trkpt lat="14.578893164529937" lon="120.99852668352894"><ele>6.0</ele><time>2026-03-28T10:36:51Z</time></trkpt><trkpt lat="14.579025115818867" lon="120.99863109750052"><ele>6.0</ele><time>2026-03-28T10:36:52Z</time></trkpt><trkpt lat="14.579158360426694" lon="120.99873369812644"><ele>6.0</ele><time>2026-03-28T10:36:53Z</time></trkpt><trkpt lat="14.579291497938263" lon="120.99884033958453"><ele>6.0</ele><time>2026-03-28T10:36:54Z</time></trkpt><trkpt lat="14.57942288534896" lon="120.99894460241059"><ele>6.666666666666666</ele><time>2026-03-28T10:36:55Z</time></trkpt><trkpt lat="14.579550862018259" lon="120.99904817549987"><ele>7.333333333333333</ele><time>2026-03-28T10:36:56Z</time></trkpt><trkpt lat="14.57967891823714" lon="120.99914993854505"><ele>8.0</ele><time>2026-03-28T10:36:57Z</time></trkpt><trkpt lat="14.57980053615101" lon="120.99925005406955"><ele>8.666666666666666</ele><time>2026-03-28T10:36:58Z</time></trkpt><trkpt lat="14.57991952048393" lon="120.99935094686208"><ele>9.333333333333334</ele><time>2026-03-28T10:36:59Z</time></trkpt><trkpt lat="14.580040739509235" lon="120.99944942893404"><ele>10.0</ele><time>2026-03-28T10:37:00Z</time></trkpt><trkpt lat="14.580157511701213" lon="120.99954497470664"><ele>10.0</ele><time>2026-03-28T10:37:01Z</time></trkpt><trkpt lat="14.580272934086494" lon="120.9996375308218"><ele>10.0</ele><time>2026-03-28T10:37:02Z</time></trkpt><trkpt lat="14.58038972319395" lon="120.99973035774671"><ele>10.0</ele><time>2026-03-28T10:37:03Z</time></trkpt><trkpt lat="14.580501341544274" lon="120.99982050696498"><ele>10.0</ele><time>2026-03-28T10:37:04Z</time></trkpt><trkpt lat="14.580613605573948" lon="120.99990759320382"><ele>9.5</ele><time>2026-03-28T10:37:05Z</time></trkpt><trkpt lat="14.58072318505405" lon="120.99999638596462"><ele>9.0</ele><time>2026-03-28T10:37:06Z</time></trkpt><trkpt lat="14.580830910764776" lon="121.00008300627921"><ele>8.5</ele><time>2026-03-28T10:37:07Z</time></trkpt><trkpt lat="14.580940521782038" lon="121.00017196067905"><ele>8.0</ele><time>2026-03-28T10:37:08Z</time></trkpt><trkpt lat="14.581044865304422" lon="121.00025799959778"><ele>8.0</ele><time>2026-03-28T10:37:09Z</time></trkpt><trkpt lat="14.581144130705445" lon="121.00034323770146"><ele>8.0</ele><time>2026-03-28T10:37:10Z</time></trkpt><trkpt lat="14.581244345762805" lon="121.00042865134907"><ele>8.0</ele><time>2026-03-28T10:37:11Z</time></trkpt><trkpt lat="14.581340054156264" lon="121.00051032887303"><ele>8.0</ele><time>2026-03-28T10:37:12Z</time></trkpt><trkpt lat="14.581440142297332" lon="121.00060104181568"><ele>8.0</ele><time>2026-03-28T10:37:13Z</time></trkpt><trkpt lat="14.58153989887332" lon="121.00068714163308"><ele>8.0</ele><time>2026-03-28T10:37:14Z</time></trkpt><trkpt lat="14.581637847614887" lon="121.0007709023343"><ele>8.0</ele><time>2026-03-28T10:37:15Z</time></trkpt><trkpt lat="14.581739911514724" lon="121.00085497824196"><ele>8.0</ele><time>2026-03-28T10:37:16Z</time></trkpt><trkpt lat="14.581843129314061" lon="121.0009396922212"><ele>8.25</ele><time>2026-03-28T10:37:17Z</time></trkpt><trkpt lat="14.581942166476342" lon="121.00102388461501"><ele>8.5</ele><time>2026-03-28T10:37:18Z</time></trkpt><trkpt lat="14.582040590380075" lon="121.0011112178572"><ele>8.75</ele><time>2026-03-28T10:37:19Z</time></trkpt><trkpt lat="14.582141123656044" lon="121.00120172842709"><ele>9.0</ele><time>2026-03-28T10:37:20Z</time></trkpt><trkpt lat="14.58224087735527" lon="121.00129662501992"><ele>9.0</ele><time>2026-03-28T10:37:21Z</time></trkpt><trkpt lat="14.582341048434479" lon="121.00139515003546"><ele>9.0</ele><time>2026-03-28T10:37:22Z</time></trkpt><trkpt lat="14.58244219007709" lon="121.0014949771578"><ele>9.0</ele><time>2026-03-28T10:37:23Z</time></trkpt><trkpt lat="14.582549009461452" lon="121.00159802329661"><ele>9.0</ele><time>2026-03-28T10:37:24Z</time></trkpt><trkpt lat="14.582657207984091" lon="121.00170174633213"><ele>8.666666666666666</ele><time>2026-03-28T10:37:25Z</time></trkpt><trkpt lat="14.582765659378571" lon="121.00180999276985"><ele>8.333333333333332</ele><time>2026-03-28T10:37:26Z</time></trkpt><trkpt lat="14.582873637735053" lon="121.00191791114246"><ele>8.0</ele><time>2026-03-28T10:37:27Z</time></trkpt><trkpt lat="14.582999126535341" lon="121.00200871244755"><ele>8.0</ele><time>2026-03-28T10:37:28Z</time></trkpt><trkpt lat="14.58310288812165" lon="121.00214543424111"><ele>8.0</ele><time>2026-03-28T10:37:29Z</time></trkpt><trkpt lat="14.583223580423342" lon="121.0022625598983"><ele>8.0</ele><time>2026-03-28T10:37:30Z</time></trkpt><trkpt lat="14.583343428218752" lon="121.00237732557358"><ele>8.0</ele><time>2026-03-28T10:37:31Z</time></trkpt><trkpt lat="14.583460829485679" lon="121.00248952610497"><ele>8.0</ele><time>2026-03-28T10:37:32Z</time></trkpt><trkpt lat="14.58358283421965" lon="121.00260640363447"><ele>8.0</ele><time>2026-03-28T10:37:33Z</time></trkpt><trkpt lat="14.583707120718302" lon="121.00272326425664"><ele>7.666666666666666</ele><time>2026-03-28T10:37:34Z</time></trkpt><trkpt lat="14.583817237992161" lon="121.0028291838586"><ele>7.333333333333334</ele><time>2026-03-28T10:37:35Z</time></trkpt><trkpt lat="14.583944932770406" lon="121.00294529259897"><ele>7.0</ele><time>2026-03-28T10:37:36Z</time></trkpt><trkpt lat="14.584068748191864" lon="121.00305735488772"><ele>7.0</ele><time>2026-03-28T10:37:37Z</time></trkpt><trkpt lat="14.584186503144453" lon="121.0031650722304"><ele>7.0</ele><time>2026-03-28T10:37:38Z</time></trkpt><trkpt lat="14.584312725787761" lon="121.00327968426504"><ele>7.0</ele><time>2026-03-28T10:37:39Z</time></trkpt><trkpt lat="14.584437684186463" lon="121.00339213452429"><ele>6.666666666666667</ele><time>2026-03-28T10:37:40Z</time></trkpt><trkpt lat="14.584577546109976" lon="121.00350803803931"><ele>6.333333333333334</ele><time>2026-03-28T10:37:41Z</time></trkpt><trkpt lat="14.584688921135237" lon="121.00361116513453"><ele>6.0</ele><time>2026-03-28T10:37:42Z</time></trkpt><trkpt lat="14.58480869752821" lon="121.00372091701377"><ele>6.0</ele><time>2026-03-28T10:37:43Z</time></trkpt><trkpt lat="14.584930215597536" lon="121.00382996638531"><ele>6.0</ele><time>2026-03-28T10:37:44Z</time></trkpt><trkpt lat="14.585046994929803" lon="121.00394284173764"><ele>6.0</ele><time>2026-03-28T10:37:45Z</time></trkpt><trkpt lat="14.585168576978257" lon="121.00404952721402"><ele>6.0</ele><time>2026-03-28T10:37:46Z</time></trkpt><trkpt lat="14.585341183480727" lon="121.00421378899352"><ele>6.0</ele><time>2026-03-28T10:37:47Z</time></trkpt><trkpt lat="14.58551402793027" lon="121.00434201878163"><ele>6.0</ele><time>2026-03-28T10:37:48Z</time></trkpt><trkpt lat="14.58567129021081" lon="121.00449192461845"><ele>6.0</ele><time>2026-03-28T10:37:49Z</time></trkpt><trkpt lat="14.585803857878005" lon="121.00462685760047"><ele>6.0</ele><time>2026-03-28T10:37:50Z</time></trkpt><trkpt lat="14.585933644505452" lon="121.00473484844619"><ele>6.0</ele><time>2026-03-28T10:37:51Z</time></trkpt><trkpt lat="14.586082833988945" lon="121.00485562031639"><ele>5.666666666666667</ele><time>2026-03-28T10:37:52Z</time></trkpt><trkpt lat="14.58621891859274" lon="121.00497078617016"><ele>5.333333333333334</ele><time>2026-03-28T10:37:53Z</time></trkpt><trkpt lat="14.586352563845201" lon="121.00508839668575"><ele>5.0</ele><time>2026-03-28T10:37:54Z</time></trkpt><trkpt lat="14.586483163147552" lon="121.00519848237556"><ele>5.666666666666667</ele><time>2026-03-28T10:37:55Z</time></trkpt><trkpt lat="14.586623462479798" lon="121.00532664351803"><ele>6.333333333333334</ele><time>2026-03-28T10:37:56Z</time></trkpt><trkpt lat="14.586745334151027" lon="121.00543156392436"><ele>7.0</ele><time>2026-03-28T10:37:57Z</time></trkpt><trkpt lat="14.586895700005922" lon="121.00556061640499"><ele>7.0</ele><time>2026-03-28T10:37:58Z</time></trkpt><trkpt lat="14.587017191648773" lon="121.00567842288301"><ele>7.0</ele><time>2026-03-28T10:37:59Z</time></trkpt><trkpt lat="14.58714172439485" lon="121.00579773670262"><ele>7.0</ele><time>2026-03-28T10:38:00Z</time></trkpt><trkpt lat="14.5872553122899" lon="121.00592152356414"><ele>7.0</ele><time>2026-03-28T10:38:01Z</time></trkpt><trkpt lat="14.587370927327559" lon="121.0060641224617"><ele>7.0</ele><time>2026-03-28T10:38:02Z</time></trkpt><trkpt lat="14.587465730456364" lon="121.0061904063955"><ele>7.0</ele><time>2026-03-28T10:38:03Z</time></trkpt><trkpt lat="14.587547637859691" lon="121.00630490821067"><ele>7.0</ele><time>2026-03-28T10:38:04Z</time></trkpt><trkpt lat="14.587631142347352" lon="121.00644025457231"><ele>7.0</ele><time>2026-03-28T10:38:05Z</time></trkpt><trkpt lat="14.58772543196784" lon="121.00655516207671"><ele>7.0</ele><time>2026-03-28T10:38:06Z</time></trkpt><trkpt lat="14.58782181046148" lon="121.00667668881229"><ele>7.25</ele><time>2026-03-28T10:38:07Z</time></trkpt><trkpt lat="14.587915983122727" lon="121.00679090295847"><ele>7.5</ele><time>2026-03-28T10:38:08Z</time></trkpt><trkpt lat="14.587999377632388" lon="121.00690929007773"><ele>7.75</ele><time>2026-03-28T10:38:09Z</time></trkpt><trkpt lat="14.588097298108444" lon="121.0070170706838"><ele>8.0</ele><time>2026-03-28T10:38:10Z</time></trkpt><trkpt lat="14.588210800894283" lon="121.00713206440152"><ele>8.0</ele><time>2026-03-28T10:38:11Z</time></trkpt><trkpt lat="14.588326019479696" lon="121.00725090727241"><ele>8.0</ele><time>2026-03-28T10:38:12Z</time></trkpt><trkpt lat="14.588442795173423" lon="121.00735049796745"><ele>8.0</ele><time>2026-03-28T10:38:13Z</time></trkpt><trkpt lat="14.58856732944686" lon="121.00745370727624"><ele>7.0</ele><time>2026-03-28T10:38:14Z</time></trkpt><trkpt lat="14.58868667566147" lon="121.00755032397512"><ele>6.0</ele><time>2026-03-28T10:38:15Z</time></trkpt><trkpt lat="14.58881281122574" lon="121.00766336295635"><ele>5.0</ele><time>2026-03-28T10:38:16Z</time></trkpt><trkpt lat="14.588915946402025" lon="121.00778442574892"><ele>5.0</ele><time>2026-03-28T10:38:17Z</time></trkpt><trkpt lat="14.589040386517595" lon="121.00790232578973"><ele>5.0</ele><time>2026-03-28T10:38:18Z</time></trkpt><trkpt lat="14.589141009054334" lon="121.00799705863218"><ele>5.0</ele><time>2026-03-28T10:38:19Z</time></trkpt><trkpt lat="14.589318327928646" lon="121.00821910098189"><ele>5.0</ele><time>2026-03-28T10:38:20Z</time></trkpt><trkpt lat="14.589421685220492" lon="121.0083211190901"><ele>5.0</ele><time>2026-03-28T10:38:21Z</time></trkpt><trkpt lat="14.58949120612431" lon="121.00840452844571"><ele>5.0</ele><time>2026-03-28T10:38:22Z</time></trkpt><trkpt lat="14.589571590773302" lon="121.00851786780824"><ele>5.0</ele><time>2026-03-28T10:38:23Z</time></trkpt><trkpt lat="14.589635637348668" lon="121.00864105422706"><ele>5.5</ele><time>2026-03-28T10:38:24Z</time></trkpt><trkpt lat="14.589709521491049" lon="121.0087316459504"><ele>6.0</ele><time>2026-03-28T10:38:25Z</time></trkpt><trkpt lat="14.589736011584106" lon="121.00890821450051"><ele>6.5</ele><time>2026-03-28T10:38:26Z</time></trkpt><trkpt lat="14.589739569921491" lon="121.00902815968489"><ele>7.0</ele><time>2026-03-28T10:38:27Z</time></trkpt><trkpt lat="14.589761819473447" lon="121.00918817802054"><ele>7.0</ele><time>2026-03-28T10:38:28Z</time></trkpt><trkpt lat="14.589760288876969" lon="121.0093397372823"><ele>7.0</ele><time>2026-03-28T10:38:29Z</time></trkpt><trkpt lat="14.5897276913339" lon="121.00947381856072"><ele>7.0</ele><time>2026-03-28T10:38:30Z</time></trkpt><trkpt lat="14.58966767466787" lon="121.0095763227954"><ele>7.0</ele><time>2026-03-28T10:38:31Z</time></trkpt><trkpt lat="14.589608260613396" lon="121.00971662989227"><ele>7.0</ele><time>2026-03-28T10:38:32Z</time></trkpt><trkpt lat="14.58957272278923" lon="121.00984985827235"><ele>7.0</ele><time>2026-03-28T10:38:33Z</time></trkpt><trkpt lat="14.589526115196273" lon="121.00997496251534"><ele>7.0</ele><time>2026-03-28T10:38:34Z</time></trkpt><trkpt lat="14.58949092419339" lon="121.0101217325694"><ele>7.0</ele><time>2026-03-28T10:38:35Z</time></trkpt><trkpt lat="14.589448707490686" lon="121.0102789063811"><ele>7.0</ele><time>2026-03-28T10:38:36Z</time></trkpt><trkpt lat="14.589406546270185" lon="121.01041934353198"><ele>7.0</ele><time>2026-03-28T10:38:37Z</time></trkpt><trkpt lat="14.589365573183024" lon="121.01055800554737"><ele>7.0</ele><time>2026-03-28T10:38:38Z</time></trkpt><trkpt lat="14.589326815814914" lon="121.0106952920328"><ele>7.0</ele><time>2026-03-28T10:38:39Z</time></trkpt><trkpt lat="14.58928820359372" lon="121.01082564983926"><ele>6.5</ele><time>2026-03-28T10:38:40Z</time></trkpt><trkpt lat="14.58925291824037" lon="121.01096741542129"><ele>6.0</ele><time>2026-03-28T10:38:41Z</time></trkpt><trkpt lat="14.58922532117893" lon="121.01111737521673"><ele>5.5</ele><time>2026-03-28T10:38:42Z</time></trkpt><trkpt lat="14.589208237369576" lon="121.01125884850704"><ele>5.0</ele><time>2026-03-28T10:38:43Z</time></trkpt><trkpt lat="14.589203520627168" lon="121.011390508775"><ele>5.0</ele><time>2026-03-28T10:38:44Z</time></trkpt><trkpt lat="14.589204610590645" lon="121.01153881954785"><ele>5.0</ele><time>2026-03-28T10:38:45Z</time></trkpt><trkpt lat="14.589219175507234" lon="121.01167569740294"><ele>5.0</ele><time>2026-03-28T10:38:46Z</time></trkpt><trkpt lat="14.589237252944505" lon="121.01182202788105"><ele>5.0</ele><time>2026-03-28T10:38:47Z</time></trkpt><trkpt lat="14.589271222038642" lon="121.0119586760233"><ele>4.75</ele><time>2026-03-28T10:38:48Z</time></trkpt><trkpt lat="14.589308711162193" lon="121.01209698687235"><ele>4.5</ele><time>2026-03-28T10:38:49Z</time></trkpt><trkpt lat="14.589354288498273" lon="121.01222704085554"><ele>4.25</ele><time>2026-03-28T10:38:50Z</time></trkpt><trkpt lat="14.58940781112624" lon="121.01235516850583"><ele>4.0</ele><time>2026-03-28T10:38:51Z</time></trkpt><trkpt lat="14.589466253598466" lon="121.01247165331309"><ele>4.0</ele><time>2026-03-28T10:38:52Z</time></trkpt><trkpt lat="14.589529864690482" lon="121.01258588046063"><ele>4.0</ele><time>2026-03-28T10:38:53Z</time></trkpt><trkpt lat="14.589600883074727" lon="121.01270675323943"><ele>4.0</ele><time>2026-03-28T10:38:54Z</time></trkpt><trkpt lat="14.589654196700236" lon="121.01283128823212"><ele>4.0</ele><time>2026-03-28T10:38:55Z</time></trkpt><trkpt lat="14.589716996231935" lon="121.01294668112556"><ele>4.0</ele><time>2026-03-28T10:38:56Z</time></trkpt><trkpt lat="14.589778937231117" lon="121.01306428896915"><ele>4.0</ele><time>2026-03-28T10:38:57Z</time></trkpt><trkpt lat="14.589826404337678" lon="121.01318261668145"><ele>4.0</ele><time>2026-03-28T10:38:58Z</time></trkpt><trkpt lat="14.589867319422936" lon="121.01331027909649"><ele>4.0</ele><time>2026-03-28T10:38:59Z</time></trkpt><trkpt lat="14.589893029624553" lon="121.0134361990689"><ele>3.5</ele><time>2026-03-28T10:39:00Z</time></trkpt><trkpt lat="14.58989997113222" lon="121.01356651302837"><ele>3.0</ele><time>2026-03-28T10:39:01Z</time></trkpt><trkpt lat="14.589891587502997" lon="121.01369522272766"><ele>2.5</ele><time>2026-03-28T10:39:02Z</time></trkpt><trkpt lat="14.58987370534608" lon="121.01383583685434"><ele>2.0</ele><time>2026-03-28T10:39:03Z</time></trkpt><trkpt lat="14.589835903234734" lon="121.01397358225746"><ele>2.0</ele><time>2026-03-28T10:39:04Z</time></trkpt><trkpt lat="14.58978515070658" lon="121.01410275469674"><ele>2.0</ele><time>2026-03-28T10:39:05Z</time></trkpt><trkpt lat="14.589714729931243" lon="121.01422559356004"><ele>2.0</ele><time>2026-03-28T10:39:06Z</time></trkpt><trkpt lat="14.589635028126938" lon="121.01434036019188"><ele>2.0</ele><time>2026-03-28T10:39:07Z</time></trkpt><trkpt lat="14.589540544171287" lon="121.01444009371006"><ele>2.75</ele><time>2026-03-28T10:39:08Z</time></trkpt><trkpt lat="14.58943267195438" lon="121.01453177415159"><ele>3.5</ele><time>2026-03-28T10:39:09Z</time></trkpt><trkpt lat="14.589326584360096" lon="121.01462166025438"><ele>4.25</ele><time>2026-03-28T10:39:10Z</time></trkpt><trkpt lat="14.58921703577226" lon="121.01472362379529"><ele>5.0</ele><time>2026-03-28T10:39:11Z</time></trkpt><trkpt lat="14.589108232204866" lon="121.01482658020794"><ele>5.0</ele><time>2026-03-28T10:39:12Z</time></trkpt><trkpt lat="14.58900461909093" lon="121.01493642311121"><ele>5.0</ele><time>2026-03-28T10:39:13Z</time></trkpt><trkpt lat="14.58890233032362" lon="121.01504989160412"><ele>5.0</ele><time>2026-03-28T10:39:14Z</time></trkpt><trkpt lat="14.588808923012177" lon="121.01518147653516"><ele>5.333333333333334</ele><time>2026-03-28T10:39:15Z</time></trkpt><trkpt lat="14.58872377607548" lon="121.01531961944646"><ele>5.666666666666667</ele><time>2026-03-28T10:39:16Z</time></trkpt><trkpt lat="14.58864899497634" lon="121.01546630047477"><ele>6.0</ele><time>2026-03-28T10:39:17Z</time></trkpt><trkpt lat="14.588586329813971" lon="121.01562501814543"><ele>6.0</ele><time>2026-03-28T10:39:18Z</time></trkpt><trkpt lat="14.588534956725807" lon="121.01578566256819"><ele>6.0</ele><time>2026-03-28T10:39:19Z</time></trkpt><trkpt lat="14.588494491430348" lon="121.01595054882111"><ele>6.0</ele><time>2026-03-28T10:39:20Z</time></trkpt><trkpt lat="14.588464777563981" lon="121.01611589045645"><ele>6.333333333333334</ele><time>2026-03-28T10:39:21Z</time></trkpt><trkpt lat="14.588451580279683" lon="121.01628082381588"><ele>6.666666666666667</ele><time>2026-03-28T10:39:22Z</time></trkpt><trkpt lat="14.588445186098381" lon="121.0164485112635"><ele>7.0</ele><time>2026-03-28T10:39:23Z</time></trkpt><trkpt lat="14.588440735038407" lon="121.0166183068399"><ele>4.0</ele><time>2026-03-28T10:39:24Z</time></trkpt><trkpt lat="14.588439484039203" lon="121.01679764563274"><ele>1.0000000000000002</ele><time>2026-03-28T10:39:25Z</time></trkpt><trkpt lat="14.588444902218278" lon="121.01697728715423"><ele>-2.0</ele><time>2026-03-28T10:39:26Z</time></trkpt><trkpt lat="14.588452708524413" lon="121.01715342461043"><ele>-2.0</ele><time>2026-03-28T10:39:27Z</time></trkpt><trkpt lat="14.588465633335515" lon="121.01733139609934"><ele>-2.0</ele><time>2026-03-28T10:39:28Z</time></trkpt><trkpt lat="14.588479559915125" lon="121.01751069175366"><ele>-2.0</ele><time>2026-03-28T10:39:29Z</time></trkpt><trkpt lat="14.58850201586354" lon="121.01769359005581"><ele>-0.6666666666666666</ele><time>2026-03-28T10:39:30Z</time></trkpt><trkpt lat="14.588521675347334" lon="121.01787958866572"><ele>0.6666666666666666</ele><time>2026-03-28T10:39:31Z</time></trkpt><trkpt lat="14.588549044875512" lon="121.01806583960371"><ele>2.0</ele><time>2026-03-28T10:39:32Z</time></trkpt><trkpt lat="14.588581946411313" lon="121.01825364016169"><ele>3.0</ele><time>2026-03-28T10:39:33Z</time></trkpt><trkpt lat="14.588618654123605" lon="121.01844092034118"><ele>4.0</ele><time>2026-03-28T10:39:34Z</time></trkpt><trkpt lat="14.588656123112013" lon="121.01863365051327"><ele>5.0</ele><time>2026-03-28T10:39:35Z</time></trkpt><trkpt lat="14.588696796958484" lon="121.0188272535126"><ele>5.0</ele><time>2026-03-28T10:39:36Z</time></trkpt><trkpt lat="14.588742635337205" lon="121.0190270336544"><ele>5.0</ele><time>2026-03-28T10:39:37Z</time></trkpt><trkpt lat="14.588792536102329" lon="121.0192246741197"><ele>5.0</ele><time>2026-03-28T10:39:38Z</time></trkpt><trkpt lat="14.588846996292562" lon="121.01942122151239"><ele>5.0</ele><time>2026-03-28T10:39:39Z</time></trkpt><trkpt lat="14.588905011800584" lon="121.01961637986061"><ele>5.0</ele><time>2026-03-28T10:39:40Z</time></trkpt><trkpt lat="14.588966028757362" lon="121.01980826534886"><ele>5.0</ele><time>2026-03-28T10:39:41Z</time></trkpt><trkpt lat="14.589033404982668" lon="121.02000184823031"><ele>5.0</ele><time>2026-03-28T10:39:42Z</time></trkpt><trkpt lat="14.589104205965796" lon="121.02019403213887"><ele>5.0</ele><time>2026-03-28T10:39:43Z</time></trkpt><trkpt lat="14.589177232667252" lon="121.02037795749514"><ele>5.0</ele><time>2026-03-28T10:39:44Z</time></trkpt><trkpt lat="14.589254041692715" lon="121.02056125660947"><ele>5.0</ele><time>2026-03-28T10:39:45Z</time></trkpt><trkpt lat="14.589333133098712" lon="121.02073992628067"><ele>5.0</ele><time>2026-03-28T10:39:46Z</time></trkpt><trkpt lat="14.589412677484678" lon="121.02093395018584"><ele>5.0</ele><time>2026-03-28T10:39:47Z</time></trkpt><trkpt lat="14.589491490682423" lon="121.02111295088585"><ele>4.666666666666667</ele><time>2026-03-28T10:39:48Z</time></trkpt><trkpt lat="14.589577398274855" lon="121.02129146065286"><ele>4.333333333333333</ele><time>2026-03-28T10:39:49Z</time></trkpt><trkpt lat="14.589661165671583" lon="121.02145760489906"><ele>4.0</ele><time>2026-03-28T10:39:50Z</time></trkpt><trkpt lat="14.58974707371134" lon="121.02162130085719"><ele>4.0</ele><time>2026-03-28T10:39:51Z</time></trkpt><trkpt lat="14.589837219584293" lon="121.02177597765248"><ele>4.0</ele><time>2026-03-28T10:39:52Z</time></trkpt><trkpt lat="14.589937330269553" lon="121.02194886104004"><ele>4.0</ele><time>2026-03-28T10:39:53Z</time></trkpt><trkpt lat="14.590038569934219" lon="121.02211652784936"><ele>4.0</ele><time>2026-03-28T10:39:54Z</time></trkpt><trkpt lat="14.590149062119629" lon="121.02228722581525"><ele>4.0</ele><time>2026-03-28T10:39:55Z</time></trkpt><trkpt lat="14.590260088952427" lon="121.02244803775277"><ele>4.0</ele><time>2026-03-28T10:39:56Z</time></trkpt><trkpt lat="14.590391497225399" lon="121.02262793755196"><ele>4.0</ele><time>2026-03-28T10:39:57Z</time></trkpt><trkpt lat="14.590514014135717" lon="121.02278449302024"><ele>4.0</ele><time>2026-03-28T10:39:58Z</time></trkpt><trkpt lat="14.590642994799843" lon="121.02294356472821"><ele>4.0</ele><time>2026-03-28T10:39:59Z</time></trkpt><trkpt lat="14.590777436396829" lon="121.0231024184699"><ele>4.0</ele><time>2026-03-28T10:40:00Z</time></trkpt><trkpt lat="14.5909084056132" lon="121.02324640593912"><ele>4.0</ele><time>2026-03-28T10:40:01Z</time></trkpt><trkpt lat="14.591048999385599" lon="121.02338157785991"><ele>4.0</ele><time>2026-03-28T10:40:02Z</time></trkpt><trkpt lat="14.59118925701932" lon="121.02352387284544"><ele>3.6666666666666665</ele><time>2026-03-28T10:40:03Z</time></trkpt><trkpt lat="14.59133043269571" lon="121.02366828914525"><ele>3.333333333333333</ele><time>2026-03-28T10:40:04Z</time></trkpt><trkpt lat="14.591460139656329" lon="121.0238149214006"><ele>3.0</ele><time>2026-03-28T10:40:05Z</time></trkpt><trkpt lat="14.59158788853852" lon="121.02396768781774"><ele>3.0</ele><time>2026-03-28T10:40:06Z</time></trkpt><trkpt lat="14.591705120189165" lon="121.02411781326157"><ele>3.0</ele><time>2026-03-28T10:40:07Z</time></trkpt><trkpt lat="14.591823779293176" lon="121.02427277296113"><ele>3.0</ele><time>2026-03-28T10:40:08Z</time></trkpt><trkpt lat="14.591929871985327" lon="121.02443261131701"><ele>3.666666666666667</ele><time>2026-03-28T10:40:09Z</time></trkpt><trkpt lat="14.592037923098205" lon="121.02459382748597"><ele>4.333333333333334</ele><time>2026-03-28T10:40:10Z</time></trkpt><trkpt lat="14.592145411385049" lon="121.0247577359723"><ele>5.0</ele><time>2026-03-28T10:40:11Z</time></trkpt><trkpt lat="14.592252413123937" lon="121.02491776200364"><ele>6.0</ele><time>2026-03-28T10:40:12Z</time></trkpt><trkpt lat="14.592357296062028" lon="121.02507228864084"><ele>7.0</ele><time>2026-03-28T10:40:13Z</time></trkpt><trkpt lat="14.592465933378824" lon="121.02522461220914"><ele>8.0</ele><time>2026-03-28T10:40:14Z</time></trkpt><trkpt lat="14.592590535677926" lon="121.02536529421347"><ele>8.0</ele><time>2026-03-28T10:40:15Z</time></trkpt><trkpt lat="14.592728079336583" lon="121.02549168254752"><ele>8.0</ele><time>2026-03-28T10:40:16Z</time></trkpt><trkpt lat="14.592883705999592" lon="121.02560183721118"><ele>8.0</ele><time>2026-03-28T10:40:17Z</time></trkpt><trkpt lat="14.593028616738632" lon="121.02570727437475"><ele>7.0</ele><time>2026-03-28T10:40:18Z</time></trkpt><trkpt lat="14.593184628086645" lon="121.02579769445633"><ele>6.0</ele><time>2026-03-28T10:40:19Z</time></trkpt><trkpt lat="14.593349676793695" lon="121.02587668259696"><ele>5.0</ele><time>2026-03-28T10:40:20Z</time></trkpt><trkpt lat="14.593518885002725" lon="121.02593971626267"><ele>4.333333333333334</ele><time>2026-03-28T10:40:21Z</time></trkpt><trkpt lat="14.593685716251521" lon="121.02598805561092"><ele>3.666666666666667</ele><time>2026-03-28T10:40:22Z</time></trkpt><trkpt lat="14.593851039342534" lon="121.02602996009112"><ele>3.0</ele><time>2026-03-28T10:40:23Z</time></trkpt><trkpt lat="14.594019471994713" lon="121.02605273017423"><ele>3.0</ele><time>2026-03-28T10:40:24Z</time></trkpt><trkpt lat="14.594184463296097" lon="121.02606539909736"><ele>3.0</ele><time>2026-03-28T10:40:25Z</time></trkpt><trkpt lat="14.594355667851444" lon="121.02606070527247"><ele>3.0</ele><time>2026-03-28T10:40:26Z</time></trkpt><trkpt lat="14.594528667210081" lon="121.02605256705368"><ele>3.0</ele><time>2026-03-28T10:40:27Z</time></trkpt><trkpt lat="14.5946932605114" lon="121.02602995043549"><ele>3.0</ele><time>2026-03-28T10:40:28Z</time></trkpt><trkpt lat="14.59485599137331" lon="121.02599521731416"><ele>3.0</ele><time>2026-03-28T10:40:29Z</time></trkpt><trkpt lat="14.595024355399447" lon="121.0259403385061"><ele>3.0</ele><time>2026-03-28T10:40:30Z</time></trkpt><trkpt lat="14.595191019518495" lon="121.0258744931196"><ele>3.0</ele><time>2026-03-28T10:40:31Z</time></trkpt><trkpt lat="14.595354830998247" lon="121.02579627377887"><ele>3.0</ele><time>2026-03-28T10:40:32Z</time></trkpt><trkpt lat="14.595521424453489" lon="121.02571175523977"><ele>4.0</ele><time>2026-03-28T10:40:33Z</time></trkpt><trkpt lat="14.595688626027805" lon="121.02562373834175"><ele>5.0</ele><time>2026-03-28T10:40:34Z</time></trkpt><trkpt lat="14.595856650124883" lon="121.02554444344969"><ele>6.0</ele><time>2026-03-28T10:40:35Z</time></trkpt><trkpt lat="14.596028024199283" lon="121.02546358179646"><ele>5.333333333333333</ele><time>2026-03-28T10:40:36Z</time></trkpt><trkpt lat="14.596206091550952" lon="121.02537594196201"><ele>4.666666666666666</ele><time>2026-03-28T10:40:37Z</time></trkpt><trkpt lat="14.596385609190818" lon="121.02528641772842"><ele>4.0</ele><time>2026-03-28T10:40:38Z</time></trkpt><trkpt lat="14.596572859641231" lon="121.02519651217013"><ele>4.0</ele><time>2026-03-28T10:40:39Z</time></trkpt><trkpt lat="14.596753805479468" lon="121.02511086736152"><ele>4.0</ele><time>2026-03-28T10:40:40Z</time></trkpt><trkpt lat="14.596934933392577" lon="121.02502340136701"><ele>4.0</ele><time>2026-03-28T10:40:41Z</time></trkpt><trkpt lat="14.597119773874105" lon="121.02493066803488"><ele>4.0</ele><time>2026-03-28T10:40:42Z</time></trkpt><trkpt lat="14.597293466455389" lon="121.02483130963779"><ele>4.0</ele><time>2026-03-28T10:40:43Z</time></trkpt><trkpt lat="14.59746535787421" lon="121.02473071839306"><ele>4.0</ele><time>2026-03-28T10:40:44Z</time></trkpt><trkpt lat="14.597635795549975" lon="121.02462521526517"><ele>4.0</ele><time>2026-03-28T10:40:45Z</time></trkpt><trkpt lat="14.597805246158565" lon="121.02452611916628"><ele>4.0</ele><time>2026-03-28T10:40:46Z</time></trkpt><trkpt lat="14.5979721857659" lon="121.02442389701389"><ele>4.0</ele><time>2026-03-28T10:40:47Z</time></trkpt><trkpt lat="14.598144099324236" lon="121.02431584661393"><ele>4.666666666666666</ele><time>2026-03-28T10:40:48Z</time></trkpt><trkpt lat="14.598308397867365" lon="121.02421021350759"><ele>5.333333333333333</ele><time>2026-03-28T10:40:49Z</time></trkpt><trkpt lat="14.598476418054359" lon="121.02410760554032"><ele>6.0</ele><time>2026-03-28T10:40:50Z</time></trkpt><trkpt lat="14.598642681766162" lon="121.02400633164766"><ele>6.333333333333334</ele><time>2026-03-28T10:40:51Z</time></trkpt><trkpt lat="14.598802670426128" lon="121.02390526038621"><ele>6.666666666666667</ele><time>2026-03-28T10:40:52Z</time></trkpt><trkpt lat="14.598960815260865" lon="121.02380368972807"><ele>7.0</ele><time>2026-03-28T10:40:53Z</time></trkpt><trkpt lat="14.599119770737646" lon="121.02370391374251"><ele>7.0</ele><time>2026-03-28T10:40:54Z</time></trkpt><trkpt lat="14.599273620677275" lon="121.02360365428203"><ele>7.0</ele><time>2026-03-28T10:40:55Z</time></trkpt><trkpt lat="14.599416913180233" lon="121.02349244598824"><ele>7.0</ele><time>2026-03-28T10:40:56Z</time></trkpt><trkpt lat="14.599547749640843" lon="121.02336295344443"><ele>7.666666666666667</ele><time>2026-03-28T10:40:57Z</time></trkpt><trkpt lat="14.599655892882724" lon="121.02322147868057"><ele>8.333333333333334</ele><time>2026-03-28T10:40:58Z</time></trkpt><trkpt lat="14.599753368248903" lon="121.02307856820127"><ele>9.0</ele><time>2026-03-28T10:40:59Z</time></trkpt><trkpt lat="14.59983798369253" lon="121.02292787819367"><ele>9.0</ele><time>2026-03-28T10:41:00Z</time></trkpt><trkpt lat="14.59992813813864" lon="121.02278319230544"><ele>9.0</ele><time>2026-03-28T10:41:01Z</time></trkpt><trkpt lat="14.600006915390077" lon="121.0226359863418"><ele>9.0</ele><time>2026-03-28T10:41:02Z</time></trkpt><trkpt lat="14.600100324586144" lon="121.02249365033647"><ele>9.0</ele><time>2026-03-28T10:41:03Z</time></trkpt><trkpt lat="14.600191017899615" lon="121.02235654879047"><ele>9.0</ele><time>2026-03-28T10:41:04Z</time></trkpt><trkpt lat="14.600283609919247" lon="121.02220477153423"><ele>9.0</ele><time>2026-03-28T10:41:05Z</time></trkpt><trkpt lat="14.600373545663983" lon="121.02205310325391"><ele>8.333333333333334</ele><time>2026-03-28T10:41:06Z</time></trkpt><trkpt lat="14.600465883490802" lon="121.02190331551527"><ele>7.666666666666667</ele><time>2026-03-28T10:41:07Z</time></trkpt><trkpt lat="14.60055977944448" lon="121.02175572646073"><ele>7.0</ele><time>2026-03-28T10:41:08Z</time></trkpt><trkpt lat="14.600653562224814" lon="121.02159604277391"><ele>7.0</ele><time>2026-03-28T10:41:09Z</time></trkpt><trkpt lat="14.600749868664785" lon="121.02144834363848"><ele>7.0</ele><time>2026-03-28T10:41:10Z</time></trkpt><trkpt lat="14.600841012124418" lon="121.02129620198733"><ele>7.0</ele><time>2026-03-28T10:41:11Z</time></trkpt><trkpt lat="14.600932761439124" lon="121.02114857531004"><ele>7.0</ele><time>2026-03-28T10:41:12Z</time></trkpt><trkpt lat="14.601019750552641" lon="121.02101599404905"><ele>7.0</ele><time>2026-03-28T10:41:13Z</time></trkpt><trkpt lat="14.601100428574975" lon="121.0208831672368"><ele>7.0</ele><time>2026-03-28T10:41:14Z</time></trkpt><trkpt lat="14.601202568250034" lon="121.02075040825153"><ele>5.666666666666667</ele><time>2026-03-28T10:41:15Z</time></trkpt><trkpt lat="14.601290169993305" lon="121.0206130311042"><ele>4.333333333333334</ele><time>2026-03-28T10:41:16Z</time></trkpt><trkpt lat="14.601374642855175" lon="121.02048056065661"><ele>3.0</ele><time>2026-03-28T10:41:17Z</time></trkpt><trkpt lat="14.601463245801538" lon="121.0203416134089"><ele>3.0</ele><time>2026-03-28T10:41:18Z</time></trkpt><trkpt lat="14.601537888783648" lon="121.020224558216"><ele>3.0</ele><time>2026-03-28T10:41:19Z</time></trkpt><trkpt lat="14.601604831587407" lon="121.02011950094689"><ele>3.0</ele><time>2026-03-28T10:41:20Z</time></trkpt><trkpt lat="14.601669553328463" lon="121.02002494567235"><ele>3.0</ele><time>2026-03-28T10:41:21Z</time></trkpt><trkpt lat="14.601727719931155" lon="121.01993255908287"><ele>3.75</ele><time>2026-03-28T10:41:22Z</time></trkpt><trkpt lat="14.60181447484578" lon="121.0198520680873"><ele>4.5</ele><time>2026-03-28T10:41:23Z</time></trkpt><trkpt lat="14.601906913994096" lon="121.01978485432271"><ele>5.25</ele><time>2026-03-28T10:41:24Z</time></trkpt><trkpt lat="14.602009106846435" lon="121.01972940366348"><ele>6.0</ele><time>2026-03-28T10:41:25Z</time></trkpt><trkpt lat="14.602111994505602" lon="121.01968420939602"><ele>6.0</ele><time>2026-03-28T10:41:26Z</time></trkpt><trkpt lat="14.602228117852793" lon="121.01964183369608"><ele>6.0</ele><time>2026-03-28T10:41:27Z</time></trkpt><trkpt lat="14.602337984561508" lon="121.01961687296983"><ele>6.0</ele><time>2026-03-28T10:41:28Z</time></trkpt><trkpt lat="14.602460010051356" lon="121.01959934489668"><ele>6.0</ele><time>2026-03-28T10:41:29Z</time></trkpt><trkpt lat="14.602586669681838" lon="121.01959532910068"><ele>6.0</ele><time>2026-03-28T10:41:30Z</time></trkpt><trkpt lat="14.602704788025175" lon="121.01960722537348"><ele>6.0</ele><time>2026-03-28T10:41:31Z</time></trkpt><trkpt lat="14.602833381639885" lon="121.01962820542738"><ele>6.0</ele><time>2026-03-28T10:41:32Z</time></trkpt><trkpt lat="14.602961321424056" lon="121.01965701282732"><ele>6.0</ele><time>2026-03-28T10:41:33Z</time></trkpt><trkpt lat="14.603086034412488" lon="121.0196964043087"><ele>6.5</ele><time>2026-03-28T10:41:34Z</time></trkpt><trkpt lat="14.603208850482872" lon="121.01974348836848"><ele>7.0</ele><time>2026-03-28T10:41:35Z</time></trkpt><trkpt lat="14.603337811473496" lon="121.01978925215467"><ele>7.5</ele><time>2026-03-28T10:41:36Z</time></trkpt><trkpt lat="14.603471465916748" lon="121.01982917823211"><ele>8.0</ele><time>2026-03-28T10:41:37Z</time></trkpt><trkpt lat="14.603602125870431" lon="121.01986356378625"><ele>10.5</ele><time>2026-03-28T10:41:38Z</time></trkpt><trkpt lat="14.603726693689588" lon="121.01989113137687"><ele>13.0</ele><time>2026-03-28T10:41:39Z</time></trkpt><trkpt lat="14.603847978071208" lon="121.01990915732858"><ele>15.5</ele><time>2026-03-28T10:41:40Z</time></trkpt><trkpt lat="14.603964756238678" lon="121.01991500353205"><ele>18.0</ele><time>2026-03-28T10:41:41Z</time></trkpt><trkpt lat="14.604082871093278" lon="121.0199102653449"><ele>18.0</ele><time>2026-03-28T10:41:42Z</time></trkpt><trkpt lat="14.60419739583554" lon="121.01989705408378"><ele>18.0</ele><time>2026-03-28T10:41:43Z</time></trkpt><trkpt lat="14.604306107601436" lon="121.01987017337859"><ele>18.0</ele><time>2026-03-28T10:41:44Z</time></trkpt><trkpt lat="14.604410944772098" lon="121.01982838011052"><ele>18.0</ele><time>2026-03-28T10:41:45Z</time></trkpt><trkpt lat="14.604516563573164" lon="121.01977876155316"><ele>16.0</ele><time>2026-03-28T10:41:46Z</time></trkpt><trkpt lat="14.604617395883388" lon="121.01971644792329"><ele>14.0</ele><time>2026-03-28T10:41:47Z</time></trkpt><trkpt lat="14.60471115015661" lon="121.01964464296813"><ele>12.0</ele><time>2026-03-28T10:41:48Z</time></trkpt><trkpt lat="14.604802756525237" lon="121.01956309572358"><ele>10.0</ele><time>2026-03-28T10:41:49Z</time></trkpt><trkpt lat="14.604892937545348" lon="121.01947521997262"><ele>10.0</ele><time>2026-03-28T10:41:50Z</time></trkpt><trkpt lat="14.605005891628696" lon="121.01940913426209"><ele>10.0</ele><time>2026-03-28T10:41:51Z</time></trkpt><trkpt lat="14.605117368483432" lon="121.01932365751006"><ele>10.0</ele><time>2026-03-28T10:41:52Z</time></trkpt><trkpt lat="14.605230149989028" lon="121.01922618760204"><ele>10.0</ele><time>2026-03-28T10:41:53Z</time></trkpt><trkpt lat="14.60534300714176" lon="121.01912459997192"><ele>10.333333333333334</ele><time>2026-03-28T10:41:54Z</time></trkpt><trkpt lat="14.605457745585364" lon="121.01901511850808"><ele>10.666666666666666</ele><time>2026-03-28T10:41:55Z</time></trkpt><trkpt lat="14.605567022575485" lon="121.01891065828367"><ele>11.0</ele><time>2026-03-28T10:41:56Z</time></trkpt><trkpt lat="14.605674308514981" lon="121.01880575660822"><ele>11.0</ele><time>2026-03-28T10:41:57Z</time></trkpt><trkpt lat="14.605777019506773" lon="121.01870025940875"><ele>11.0</ele><time>2026-03-28T10:41:58Z</time></trkpt><trkpt lat="14.605886708350136" lon="121.01859390387098"><ele>11.0</ele><time>2026-03-28T10:41:59Z</time></trkpt><trkpt lat="14.605997729308093" lon="121.0184846654262"><ele>11.0</ele><time>2026-03-28T10:42:00Z</time></trkpt><trkpt lat="14.606116135411002" lon="121.01837134942592"><ele>11.333333333333332</ele><time>2026-03-28T10:42:01Z</time></trkpt><trkpt lat="14.606248746880969" lon="121.01825701928827"><ele>11.666666666666666</ele><time>2026-03-28T10:42:02Z</time></trkpt><trkpt lat="14.606377712796881" lon="121.01813911324001"><ele>12.0</ele><time>2026-03-28T10:42:03Z</time></trkpt><trkpt lat="14.606507021130062" lon="121.01802243799568"><ele>12.0</ele><time>2026-03-28T10:42:04Z</time></trkpt><trkpt lat="14.606626407486308" lon="121.01789736795214"><ele>12.0</ele><time>2026-03-28T10:42:05Z</time></trkpt><trkpt lat="14.606776397851089" lon="121.01779216184883"><ele>12.0</ele><time>2026-03-28T10:42:06Z</time></trkpt><trkpt lat="14.60689759783566" lon="121.01767244896745"><ele>12.0</ele><time>2026-03-28T10:42:07Z</time></trkpt><trkpt lat="14.607047690543903" lon="121.01758195106252"><ele>12.0</ele><time>2026-03-28T10:42:08Z</time></trkpt><trkpt lat="14.607206697646053" lon="121.0175099131675"><ele>12.0</ele><time>2026-03-28T10:42:09Z</time></trkpt><trkpt lat="14.60735950097773" lon="121.0174227917632"><ele>12.0</ele><time>2026-03-28T10:42:10Z</time></trkpt><trkpt lat="14.607520929409228" lon="121.01736041272663"><ele>12.0</ele><time>2026-03-28T10:42:11Z</time></trkpt><trkpt lat="14.607679939546664" lon="121.0173122291256"><ele>12.0</ele><time>2026-03-28T10:42:12Z</time></trkpt><trkpt lat="14.607844250740692" lon="121.0172633133361"><ele>10.666666666666666</ele><time>2026-03-28T10:42:13Z</time></trkpt><trkpt lat="14.608011846818487" lon="121.01723152580907"><ele>9.333333333333332</ele><time>2026-03-28T10:42:14Z</time></trkpt><trkpt lat="14.608191204491318" lon="121.01719311947706"><ele>8.0</ele><time>2026-03-28T10:42:15Z</time></trkpt><trkpt lat="14.608381195180032" lon="121.01716013100045"><ele>8.0</ele><time>2026-03-28T10:42:16Z</time></trkpt><trkpt lat="14.608559281830038" lon="121.01713815054927"><ele>8.0</ele><time>2026-03-28T10:42:17Z</time></trkpt><trkpt lat="14.608745346354405" lon="121.01712470497408"><ele>8.0</ele><time>2026-03-28T10:42:18Z</time></trkpt><trkpt lat="14.608933142635673" lon="121.01710976898148"><ele>8.0</ele><time>2026-03-28T10:42:19Z</time></trkpt><trkpt lat="14.609117831808248" lon="121.01709994443542"><ele>8.0</ele><time>2026-03-28T10:42:20Z</time></trkpt><trkpt lat="14.609307806124214" lon="121.01709958110038"><ele>8.0</ele><time>2026-03-28T10:42:21Z</time></trkpt><trkpt lat="14.609498840877665" lon="121.01708739758784"><ele>8.0</ele><time>2026-03-28T10:42:22Z</time></trkpt><trkpt lat="14.609694606257502" lon="121.01707239400017"><ele>8.0</ele><time>2026-03-28T10:42:23Z</time></trkpt><trkpt lat="14.60989128255507" lon="121.0170620553362"><ele>8.0</ele><time>2026-03-28T10:42:24Z</time></trkpt><trkpt lat="14.610083702556224" lon="121.01705026487888"><ele>8.0</ele><time>2026-03-28T10:42:25Z</time></trkpt><trkpt lat="14.610277969482139" lon="121.01703839129891"><ele>8.0</ele><time>2026-03-28T10:42:26Z</time></trkpt><trkpt lat="14.61047367747123" lon="121.01702808684391"><ele>8.0</ele><time>2026-03-28T10:42:27Z</time></trkpt><trkpt lat="14.610668771535783" lon="121.01701767533157"><ele>8.0</ele><time>2026-03-28T10:42:28Z</time></trkpt><trkpt lat="14.610855301086202" lon="121.01701057523185"><ele>8.0</ele><time>2026-03-28T10:42:29Z</time></trkpt><trkpt lat="14.611048109781047" lon="121.01700445225477"><ele>8.0</ele><time>2026-03-28T10:42:30Z</time></trkpt><trkpt lat="14.611235096738598" lon="121.0169940806115"><ele>8.0</ele><time>2026-03-28T10:42:31Z</time></trkpt><trkpt lat="14.611419454896875" lon="121.01698317037507"><ele>8.0</ele><time>2026-03-28T10:42:32Z</time></trkpt><trkpt lat="14.61159224831795" lon="121.01696981676874"><ele>8.0</ele><time>2026-03-28T10:42:33Z</time></trkpt><trkpt lat="14.611743497197985" lon="121.01695725859747"><ele>8.0</ele><time>2026-03-28T10:42:34Z</time></trkpt><trkpt lat="14.611875050216248" lon="121.01694851644368"><ele>8.0</ele><time>2026-03-28T10:42:35Z</time></trkpt><trkpt lat="14.611999514784154" lon="121.01694305501678"><ele>8.0</ele><time>2026-03-28T10:42:36Z</time></trkpt><trkpt lat="14.6121297926309" lon="121.01693979034526"><ele>8.0</ele><time>2026-03-28T10:42:37Z</time></trkpt><trkpt lat="14.612264375133652" lon="121.01693790610253"><ele>7.75</ele><time>2026-03-28T10:42:38Z</time></trkpt><trkpt lat="14.612400592164779" lon="121.016934451857"><ele>7.5</ele><time>2026-03-28T10:42:39Z</time></trkpt><trkpt lat="14.612535883825498" lon="121.01693092039024"><ele>7.25</ele><time>2026-03-28T10:42:40Z</time></trkpt><trkpt lat="14.612673180860208" lon="121.0169254966076"><ele>7.0</ele><time>2026-03-28T10:42:41Z</time></trkpt><trkpt lat="14.61281400608773" lon="121.01692148561591"><ele>8.25</ele><time>2026-03-28T10:42:42Z</time></trkpt><trkpt lat="14.612957114182649" lon="121.01691846792517"><ele>9.5</ele><time>2026-03-28T10:42:43Z</time></trkpt><trkpt lat="14.613103601230089" lon="121.01691317073437"><ele>10.75</ele><time>2026-03-28T10:42:44Z</time></trkpt><trkpt lat="14.613252423858665" lon="121.01691187981665"><ele>12.0</ele><time>2026-03-28T10:42:45Z</time></trkpt><trkpt lat="14.613402973948403" lon="121.01690713867167"><ele>12.0</ele><time>2026-03-28T10:42:46Z</time></trkpt><trkpt lat="14.613556991696523" lon="121.0169020058256"><ele>12.0</ele><time>2026-03-28T10:42:47Z</time></trkpt><trkpt lat="14.613711026515972" lon="121.01689513084524"><ele>12.0</ele><time>2026-03-28T10:42:48Z</time></trkpt><trkpt lat="14.613865058544336" lon="121.01688926838217"><ele>11.0</ele><time>2026-03-28T10:42:49Z</time></trkpt><trkpt lat="14.614027809709114" lon="121.016879526956"><ele>10.0</ele><time>2026-03-28T10:42:50Z</time></trkpt><trkpt lat="14.614192760801885" lon="121.01686979978548"><ele>9.0</ele><time>2026-03-28T10:42:51Z</time></trkpt><trkpt lat="14.614347886501575" lon="121.01686208032554"><ele>10.0</ele><time>2026-03-28T10:42:52Z</time></trkpt><trkpt lat="14.614502389581506" lon="121.01685050263231"><ele>11.0</ele><time>2026-03-28T10:42:53Z</time></trkpt><trkpt lat="14.614663940742279" lon="121.01683704067796"><ele>12.0</ele><time>2026-03-28T10:42:54Z</time></trkpt><trkpt lat="14.61481610909613" lon="121.01682750689363"><ele>12.0</ele><time>2026-03-28T10:42:55Z</time></trkpt><trkpt lat="14.61497025022733" lon="121.01680797515483"><ele>12.0</ele><time>2026-03-28T10:42:56Z</time></trkpt><trkpt lat="14.61511966572384" lon="121.01678703427818"><ele>12.0</ele><time>2026-03-28T10:42:57Z</time></trkpt><trkpt lat="14.615279551554268" lon="121.01674918932628"><ele>12.333333333333332</ele><time>2026-03-28T10:42:58Z</time></trkpt><trkpt lat="14.615430186520092" lon="121.01671262207707"><ele>12.666666666666666</ele><time>2026-03-28T10:42:59Z</time></trkpt><trkpt lat="14.615578952918694" lon="121.01666683351016"><ele>13.0</ele><time>2026-03-28T10:43:00Z</time></trkpt><trkpt lat="14.615733229892786" lon="121.01661264254298"><ele>13.0</ele><time>2026-03-28T10:43:01Z</time></trkpt><trkpt lat="14.615881988065226" lon="121.0165453274643"><ele>13.0</ele><time>2026-03-28T10:43:02Z</time></trkpt><trkpt lat="14.61603194388277" lon="121.01647073418305"><ele>13.0</ele><time>2026-03-28T10:43:03Z</time></trkpt><trkpt lat="14.616176314153972" lon="121.01639357181111"><ele>12.0</ele><time>2026-03-28T10:43:04Z</time></trkpt><trkpt lat="14.6163214221531" lon="121.01630731426786"><ele>11.0</ele><time>2026-03-28T10:43:05Z</time></trkpt><trkpt lat="14.616462869429808" lon="121.01621532582388"><ele>10.0</ele><time>2026-03-28T10:43:06Z</time></trkpt><trkpt lat="14.61660202785926" lon="121.01612027964033"><ele>10.0</ele><time>2026-03-28T10:43:07Z</time></trkpt><trkpt lat="14.616736357113998" lon="121.01602272883451"><ele>10.0</ele><time>2026-03-28T10:43:08Z</time></trkpt><trkpt lat="14.616874882406291" lon="121.01592964656969"><ele>10.0</ele><time>2026-03-28T10:43:09Z</time></trkpt><trkpt lat="14.617014935154101" lon="121.01583379044409"><ele>10.666666666666668</ele><time>2026-03-28T10:43:10Z</time></trkpt><trkpt lat="14.6171554135974" lon="121.01573735208856"><ele>11.333333333333334</ele><time>2026-03-28T10:43:11Z</time></trkpt><trkpt lat="14.61729597601033" lon="121.0156407069423"><ele>12.0</ele><time>2026-03-28T10:43:12Z</time></trkpt><trkpt lat="14.617429682786705" lon="121.01554836497192"><ele>12.0</ele><time>2026-03-28T10:43:13Z</time></trkpt><trkpt lat="14.617567163999384" lon="121.01545554192906"><ele>12.0</ele><time>2026-03-28T10:43:14Z</time></trkpt><trkpt lat="14.617707383831666" lon="121.01536860850098"><ele>12.0</ele><time>2026-03-28T10:43:15Z</time></trkpt><trkpt lat="14.617849300875234" lon="121.01528385315332"><ele>11.666666666666666</ele><time>2026-03-28T10:43:16Z</time></trkpt><trkpt lat="14.617997942451852" lon="121.01520621120405"><ele>11.333333333333332</ele><time>2026-03-28T10:43:17Z</time></trkpt><trkpt lat="14.618147177194583" lon="121.01513446351856"><ele>11.0</ele><time>2026-03-28T10:43:18Z</time></trkpt><trkpt lat="14.61830137409734" lon="121.01507691032549"><ele>11.0</ele><time>2026-03-28T10:43:19Z</time></trkpt><trkpt lat="14.618461812268505" lon="121.01502843849286"><ele>11.0</ele><time>2026-03-28T10:43:20Z</time></trkpt><trkpt lat="14.61862654815889" lon="121.01498565815037"><ele>11.0</ele><time>2026-03-28T10:43:21Z</time></trkpt><trkpt lat="14.618800256213696" lon="121.01495367981099"><ele>11.0</ele><time>2026-03-28T10:43:22Z</time></trkpt><trkpt lat="14.61897546960947" lon="121.01493428527873"><ele>11.0</ele><time>2026-03-28T10:43:23Z</time></trkpt><trkpt lat="14.619149604109811" lon="121.0149285500691"><ele>11.0</ele><time>2026-03-28T10:43:24Z</time></trkpt><trkpt lat="14.619325303629019" lon="121.01493218775887"><ele>10.333333333333332</ele><time>2026-03-28T10:43:25Z</time></trkpt><trkpt lat="14.619508112751776" lon="121.0149440481527"><ele>9.666666666666666</ele><time>2026-03-28T10:43:26Z</time></trkpt><trkpt lat="14.619693199017103" lon="121.01495717730589"><ele>9.0</ele><time>2026-03-28T10:43:27Z</time></trkpt><trkpt lat="14.619878344021483" lon="121.01497672789677"><ele>8.666666666666666</ele><time>2026-03-28T10:43:28Z</time></trkpt><trkpt lat="14.620067721688011" lon="121.01499911500433"><ele>8.333333333333332</ele><time>2026-03-28T10:43:29Z</time></trkpt><trkpt lat="14.620265353114203" lon="121.01501713066644"><ele>8.0</ele><time>2026-03-28T10:43:30Z</time></trkpt><trkpt lat="14.620458763800718" lon="121.01503638544123"><ele>8.0</ele><time>2026-03-28T10:43:31Z</time></trkpt><trkpt lat="14.620655243555639" lon="121.01505659139961"><ele>8.0</ele><time>2026-03-28T10:43:32Z</time></trkpt><trkpt lat="14.620854089968674" lon="121.01507791527591"><ele>8.0</ele><time>2026-03-28T10:43:33Z</time></trkpt><trkpt lat="14.621054119567335" lon="121.01509725732943"><ele>8.333333333333332</ele><time>2026-03-28T10:43:34Z</time></trkpt><trkpt lat="14.621247415851073" lon="121.01511183336503"><ele>8.666666666666666</ele><time>2026-03-28T10:43:35Z</time></trkpt><trkpt lat="14.621446805222062" lon="121.01513461258837"><ele>9.0</ele><time>2026-03-28T10:43:36Z</time></trkpt><trkpt lat="14.62164517247019" lon="121.01516130571665"><ele>9.0</ele><time>2026-03-28T10:43:37Z</time></trkpt><trkpt lat="14.62184182525136" lon="121.01518473751287"><ele>9.0</ele><time>2026-03-28T10:43:38Z</time></trkpt><trkpt lat="14.622043519463187" lon="121.01521051665286"><ele>9.0</ele><time>2026-03-28T10:43:39Z</time></trkpt><trkpt lat="14.6222387712284" lon="121.01523883802696"><ele>9.0</ele><time>2026-03-28T10:43:40Z</time></trkpt><trkpt lat="14.622434442262385" lon="121.01526131744617"><ele>9.0</ele><time>2026-03-28T10:43:41Z</time></trkpt><trkpt lat="14.622635838245783" lon="121.01528562146083"><ele>9.0</ele><time>2026-03-28T10:43:42Z</time></trkpt><trkpt lat="14.622829323461193" lon="121.01531066783258"><ele>9.0</ele><time>2026-03-28T10:43:43Z</time></trkpt><trkpt lat="14.623018167378598" lon="121.01533814648509"><ele>9.0</ele><time>2026-03-28T10:43:44Z</time></trkpt><trkpt lat="14.623210621280203" lon="121.0153593514165"><ele>9.0</ele><time>2026-03-28T10:43:45Z</time></trkpt><trkpt lat="14.623398483914329" lon="121.01538697523252"><ele>9.0</ele><time>2026-03-28T10:43:46Z</time></trkpt><trkpt lat="14.623587368676285" lon="121.0154034477705"><ele>9.0</ele><time>2026-03-28T10:43:47Z</time></trkpt><trkpt lat="14.623777670300278" lon="121.01542966714368"><ele>9.0</ele><time>2026-03-28T10:43:48Z</time></trkpt><trkpt lat="14.623964010073854" lon="121.0154503134342"><ele>9.666666666666666</ele><time>2026-03-28T10:43:49Z</time></trkpt><trkpt lat="14.624143820649367" lon="121.01547416065291"><ele>10.333333333333332</ele><time>2026-03-28T10:43:50Z</time></trkpt><trkpt lat="14.624325017537911" lon="121.01549635919005"><ele>11.0</ele><time>2026-03-28T10:43:51Z</time></trkpt><trkpt lat="14.624504341314218" lon="121.0155229292132"><ele>11.666666666666666</ele><time>2026-03-28T10:43:52Z</time></trkpt><trkpt lat="14.624679386341503" lon="121.01554056632875"><ele>12.333333333333332</ele><time>2026-03-28T10:43:53Z</time></trkpt><trkpt lat="14.624854622315631" lon="121.01555946819991"><ele>13.0</ele><time>2026-03-28T10:43:54Z</time></trkpt><trkpt lat="14.625031061345831" lon="121.01557217234578"><ele>13.0</ele><time>2026-03-28T10:43:55Z</time></trkpt><trkpt lat="14.625203682964976" lon="121.01557329032798"><ele>13.0</ele><time>2026-03-28T10:43:56Z</time></trkpt><trkpt lat="14.625373035237088" lon="121.0155650309976"><ele>13.0</ele><time>2026-03-28T10:43:57Z</time></trkpt><trkpt lat="14.62554644308304" lon="121.01553994284208"><ele>13.333333333333332</ele><time>2026-03-28T10:43:58Z</time></trkpt><trkpt lat="14.625716550489992" lon="121.01550481455735"><ele>13.666666666666668</ele><time>2026-03-28T10:43:59Z</time></trkpt><trkpt lat="14.62588894037002" lon="121.01545588946827"><ele>14.0</ele><time>2026-03-28T10:44:00Z</time></trkpt><trkpt lat="14.626055758450812" lon="121.01538870734491"><ele>14.333333333333334</ele><time>2026-03-28T10:44:01Z</time></trkpt><trkpt lat="14.626215901912786" lon="121.01530304452724"><ele>14.666666666666668</ele><time>2026-03-28T10:44:02Z</time></trkpt><trkpt lat="14.626368394429404" lon="121.01520919594742"><ele>15.0</ele><time>2026-03-28T10:44:03Z</time></trkpt><trkpt lat="14.62651690003541" lon="121.01510805913468"><ele>15.0</ele><time>2026-03-28T10:44:04Z</time></trkpt><trkpt lat="14.626663069243653" lon="121.01499941884408"><ele>15.0</ele><time>2026-03-28T10:44:05Z</time></trkpt><trkpt lat="14.626803388584978" lon="121.01486775171104"><ele>15.0</ele><time>2026-03-28T10:44:06Z</time></trkpt><trkpt lat="14.62695247502215" lon="121.01473748377911"><ele>15.333333333333332</ele><time>2026-03-28T10:44:07Z</time></trkpt><trkpt lat="14.627097004535168" lon="121.01460463736345"><ele>15.666666666666666</ele><time>2026-03-28T10:44:08Z</time></trkpt><trkpt lat="14.627242961855679" lon="121.0144646841668"><ele>16.0</ele><time>2026-03-28T10:44:09Z</time></trkpt><trkpt lat="14.627385910608178" lon="121.01431933976087"><ele>16.0</ele><time>2026-03-28T10:44:10Z</time></trkpt><trkpt lat="14.627537586246273" lon="121.01417023051565"><ele>16.0</ele><time>2026-03-28T10:44:11Z</time></trkpt><trkpt lat="14.627697377070271" lon="121.01401533105053"><ele>16.0</ele><time>2026-03-28T10:44:12Z</time></trkpt><trkpt lat="14.627850991720667" lon="121.01386061398608"><ele>15.333333333333332</ele><time>2026-03-28T10:44:13Z</time></trkpt><trkpt lat="14.627999893198346" lon="121.01371409309115"><ele>14.666666666666668</ele><time>2026-03-28T10:44:14Z</time></trkpt><trkpt lat="14.628157225311078" lon="121.01356508860238"><ele>14.0</ele><time>2026-03-28T10:44:15Z</time></trkpt><trkpt lat="14.628315914124208" lon="121.01341129975174"><ele>14.0</ele><time>2026-03-28T10:44:16Z</time></trkpt><trkpt lat="14.628484513799052" lon="121.01326516918664"><ele>14.0</ele><time>2026-03-28T10:44:17Z</time></trkpt><trkpt lat="14.628633662917231" lon="121.01311786918498"><ele>14.0</ele><time>2026-03-28T10:44:18Z</time></trkpt><trkpt lat="14.628792616715828" lon="121.01296670532571"><ele>13.0</ele><time>2026-03-28T10:44:19Z</time></trkpt><trkpt lat="14.628941334696579" lon="121.01281722426597"><ele>12.0</ele><time>2026-03-28T10:44:20Z</time></trkpt><trkpt lat="14.629092210084037" lon="121.01267284546935"><ele>11.0</ele><time>2026-03-28T10:44:21Z</time></trkpt><trkpt lat="14.629239524170265" lon="121.01252969232053"><ele>11.666666666666666</ele><time>2026-03-28T10:44:22Z</time></trkpt><trkpt lat="14.629384031044967" lon="121.01239834912938"><ele>12.333333333333332</ele><time>2026-03-28T10:44:23Z</time></trkpt><trkpt lat="14.629536915487481" lon="121.01227505075234"><ele>13.0</ele><time>2026-03-28T10:44:24Z</time></trkpt><trkpt lat="14.629688961026664" lon="121.01214567832989"><ele>13.0</ele><time>2026-03-28T10:44:25Z</time></trkpt><trkpt lat="14.629841003584652" lon="121.01201058142857"><ele>13.0</ele><time>2026-03-28T10:44:26Z</time></trkpt><trkpt lat="14.629984245649101" lon="121.01188403531894"><ele>13.0</ele><time>2026-03-28T10:44:27Z</time></trkpt><trkpt lat="14.630127823473229" lon="121.01175131595217"><ele>13.333333333333332</ele><time>2026-03-28T10:44:28Z</time></trkpt><trkpt lat="14.630266102227012" lon="121.01160873000437"><ele>13.666666666666668</ele><time>2026-03-28T10:44:29Z</time></trkpt><trkpt lat="14.630387878486342" lon="121.01145716305054"><ele>14.0</ele><time>2026-03-28T10:44:30Z</time></trkpt><trkpt lat="14.630522599603369" lon="121.01130977839095"><ele>13.0</ele><time>2026-03-28T10:44:31Z</time></trkpt><trkpt lat="14.630633223485399" lon="121.01115640508159"><ele>12.0</ele><time>2026-03-28T10:44:32Z</time></trkpt><trkpt lat="14.630741343450334" lon="121.0110100589362"><ele>11.0</ele><time>2026-03-28T10:44:33Z</time></trkpt><trkpt lat="14.630849504180565" lon="121.01086596721059"><ele>11.0</ele><time>2026-03-28T10:44:34Z</time></trkpt><trkpt lat="14.630954157391391" lon="121.01072963213007"><ele>11.0</ele><time>2026-03-28T10:44:35Z</time></trkpt><trkpt lat="14.631060999782342" lon="121.01059999447477"><ele>11.0</ele><time>2026-03-28T10:44:36Z</time></trkpt><trkpt lat="14.63116555147202" lon="121.01047851247755"><ele>11.0</ele><time>2026-03-28T10:44:37Z</time></trkpt><trkpt lat="14.63126608562072" lon="121.01036476611951"><ele>11.0</ele><time>2026-03-28T10:44:38Z</time></trkpt><trkpt lat="14.631367555132082" lon="121.01025455613664"><ele>11.0</ele><time>2026-03-28T10:44:39Z</time></trkpt><trkpt lat="14.631471351710987" lon="121.01014502553748"><ele>11.0</ele><time>2026-03-28T10:44:40Z</time></trkpt><trkpt lat="14.631571441033415" lon="121.01004290684112"><ele>11.25</ele><time>2026-03-28T10:44:41Z</time></trkpt><trkpt lat="14.631678738603277" lon="121.00993929053323"><ele>11.5</ele><time>2026-03-28T10:44:42Z</time></trkpt><trkpt lat="14.63178638196591" lon="121.00984163666192"><ele>11.75</ele><time>2026-03-28T10:44:43Z</time></trkpt><trkpt lat="14.631898009232119" lon="121.00974354495845"><ele>12.0</ele><time>2026-03-28T10:44:44Z</time></trkpt><trkpt lat="14.632015394866974" lon="121.00965264278379"><ele>11.0</ele><time>2026-03-28T10:44:45Z</time></trkpt><trkpt lat="14.632131076191587" lon="121.00957397735516"><ele>10.0</ele><time>2026-03-28T10:44:46Z</time></trkpt><trkpt lat="14.63226061660925" lon="121.00949638590507"><ele>9.0</ele><time>2026-03-28T10:44:47Z</time></trkpt><trkpt lat="14.632405094195475" lon="121.0094243554598"><ele>8.0</ele><time>2026-03-28T10:44:48Z</time></trkpt><trkpt lat="14.63254802971771" lon="121.00934654610734"><ele>8.0</ele><time>2026-03-28T10:44:49Z</time></trkpt><trkpt lat="14.632698977955084" lon="121.00928441636007"><ele>8.0</ele><time>2026-03-28T10:44:50Z</time></trkpt><trkpt lat="14.632853956557469" lon="121.00922985153699"><ele>8.0</ele><time>2026-03-28T10:44:51Z</time></trkpt><trkpt lat="14.63301134965588" lon="121.00919262349855"><ele>9.666666666666666</ele><time>2026-03-28T10:44:52Z</time></trkpt><trkpt lat="14.633185706384495" lon="121.00915252982664"><ele>11.333333333333332</ele><time>2026-03-28T10:44:53Z</time></trkpt><trkpt lat="14.633363297350243" lon="121.00912130694505"><ele>13.0</ele><time>2026-03-28T10:44:54Z</time></trkpt><trkpt lat="14.633541106059752" lon="121.00909847353307"><ele>12.666666666666666</ele><time>2026-03-28T10:44:55Z</time></trkpt><trkpt lat="14.633717554758691" lon="121.00907870367833"><ele>12.333333333333332</ele><time>2026-03-28T10:44:56Z</time></trkpt><trkpt lat="14.63390135108811" lon="121.00906266046094"><ele>12.0</ele><time>2026-03-28T10:44:57Z</time></trkpt><trkpt lat="14.63408429566741" lon="121.00904667426362"><ele>12.0</ele><time>2026-03-28T10:44:58Z</time></trkpt><trkpt lat="14.634276717219619" lon="121.00902539696513"><ele>12.0</ele><time>2026-03-28T10:44:59Z</time></trkpt><trkpt lat="14.634468264379676" lon="121.00900952237957"><ele>12.0</ele><time>2026-03-28T10:45:00Z</time></trkpt><trkpt lat="14.634657010566768" lon="121.00899404228147"><ele>12.0</ele><time>2026-03-28T10:45:01Z</time></trkpt><trkpt lat="14.634840307771288" lon="121.00897199214221"><ele>12.0</ele><time>2026-03-28T10:45:02Z</time></trkpt><trkpt lat="14.635026188064819" lon="121.00895834962444"><ele>12.0</ele><time>2026-03-28T10:45:03Z</time></trkpt><trkpt lat="14.635207722690033" lon="121.00894242918015"><ele>11.666666666666666</ele><time>2026-03-28T10:45:04Z</time></trkpt><trkpt lat="14.6353881635189" lon="121.00892873973007"><ele>11.333333333333332</ele><time>2026-03-28T10:45:05Z</time></trkpt><trkpt lat="14.635564532360679" lon="121.00890914860439"><ele>11.0</ele><time>2026-03-28T10:45:06Z</time></trkpt><trkpt lat="14.635746563589214" lon="121.00890260937796"><ele>11.0</ele><time>2026-03-28T10:45:07Z</time></trkpt><trkpt lat="14.635920767319194" lon="121.00889148273647"><ele>11.0</ele><time>2026-03-28T10:45:08Z</time></trkpt><trkpt lat="14.636093278252556" lon="121.00888078431613"><ele>11.0</ele><time>2026-03-28T10:45:09Z</time></trkpt><trkpt lat="14.636268197444833" lon="121.0088577337809"><ele>12.333333333333332</ele><time>2026-03-28T10:45:10Z</time></trkpt><trkpt lat="14.636437869407775" lon="121.00883048692789"><ele>13.666666666666666</ele><time>2026-03-28T10:45:11Z</time></trkpt><trkpt lat="14.636608751911634" lon="121.00880713471419"><ele>15.0</ele><time>2026-03-28T10:45:12Z</time></trkpt><trkpt lat="14.636779356489908" lon="121.00877213215985"><ele>15.0</ele><time>2026-03-28T10:45:13Z</time></trkpt><trkpt lat="14.636945783338557" lon="121.00873188789558"><ele>15.0</ele><time>2026-03-28T10:45:14Z</time></trkpt><trkpt lat="14.637111761072894" lon="121.0086767043712"><ele>15.0</ele><time>2026-03-28T10:45:15Z</time></trkpt><trkpt lat="14.63725650655941" lon="121.00861643497142"><ele>14.0</ele><time>2026-03-28T10:45:16Z</time></trkpt><trkpt lat="14.637397067341304" lon="121.00855752465809"><ele>13.0</ele><time>2026-03-28T10:45:17Z</time></trkpt><trkpt lat="14.63752544612534" lon="121.00849411558487"><ele>12.0</ele><time>2026-03-28T10:45:18Z</time></trkpt><trkpt lat="14.637643806959137" lon="121.00842630711664"><ele>11.0</ele><time>2026-03-28T10:45:19Z</time></trkpt><trkpt lat="14.637754952850516" lon="121.00835552733749"><ele>11.4</ele><time>2026-03-28T10:45:20Z</time></trkpt><trkpt lat="14.637853956429995" lon="121.00828229257152"><ele>11.8</ele><time>2026-03-28T10:45:21Z</time></trkpt><trkpt lat="14.637939017266412" lon="121.008209676577"><ele>12.200000000000001</ele><time>2026-03-28T10:45:22Z</time></trkpt><trkpt lat="14.638008548932325" lon="121.00814202767256"><ele>12.600000000000001</ele><time>2026-03-28T10:45:23Z</time></trkpt><trkpt lat="14.638064947645663" lon="121.00808265149345"><ele>13.0</ele><time>2026-03-28T10:45:24Z</time></trkpt><trkpt lat="14.638122375261853" lon="121.00801985584786"><ele>12.999999999999998</ele><time>2026-03-28T10:45:25Z</time></trkpt><trkpt lat="14.638172455737642" lon="121.00795316427535"><ele>13.0</ele><time>2026-03-28T10:45:26Z</time></trkpt><trkpt lat="14.638220580388518" lon="121.00789091203319"><ele>13.0</ele><time>2026-03-28T10:45:27Z</time></trkpt><trkpt lat="14.638273350557496" lon="121.00782773319807"><ele>13.0</ele><time>2026-03-28T10:45:28Z</time></trkpt><trkpt lat="14.638326764089229" lon="121.00776034675744"><ele>12.999999999999998</ele><time>2026-03-28T10:45:29Z</time></trkpt><trkpt lat="14.638374697452381" lon="121.00769664953934"><ele>13.0</ele><time>2026-03-28T10:45:30Z</time></trkpt><trkpt lat="14.638422032268693" lon="121.00763187626772"><ele>12.999999999999998</ele><time>2026-03-28T10:45:31Z</time></trkpt><trkpt lat="14.638470983979865" lon="121.00756772911755"><ele>13.0</ele><time>2026-03-28T10:45:32Z</time></trkpt><trkpt lat="14.638523559515834" lon="121.00750081104438"><ele>13.0</ele><time>2026-03-28T10:45:33Z</time></trkpt><trkpt lat="14.638571750361045" lon="121.00743322464528"><ele>13.0</ele><time>2026-03-28T10:45:34Z</time></trkpt><trkpt lat="14.63861210163321" lon="121.00737965533543"><ele>12.999999999999998</ele><time>2026-03-28T10:45:35Z</time></trkpt><trkpt lat="14.638673290045407" lon="121.00730012546727"><ele>13.0</ele><time>2026-03-28T10:45:37Z</time></trkpt><trkpt lat="14.638727968890471" lon="121.00724886751964"><ele>13.0</ele><time>2026-03-28T10:45:39Z</time></trkpt><trkpt lat="14.638790643624851" lon="121.00716839895009"><ele>13.0</ele><time>2026-03-28T10:45:42Z</time></trkpt><trkpt lat="14.638859312356821" lon="121.00710371083183"><ele>13.0</ele><time>2026-03-28T10:45:45Z</time></trkpt><trkpt lat="14.638910872584985" lon="121.00704759656378"><ele>13.0</ele><time>2026-03-28T10:45:47Z</time></trkpt><trkpt lat="14.638985395400267" lon="121.00698845965053"><ele>13.0</ele><time>2026-03-28T10:45:49Z</time></trkpt><trkpt lat="14.639068349406482" lon="121.00691121433415"><ele>13.0</ele><time>2026-03-28T10:45:51Z</time></trkpt><trkpt lat="14.639177894536571" lon="121.00682788982677"><ele>13.0</ele><time>2026-03-28T10:45:53Z</time></trkpt><trkpt lat="14.63923883648864" lon="121.00678138953302"><ele>13.0</ele><time>2026-03-28T10:45:54Z</time></trkpt><trkpt lat="14.63930082614113" lon="121.00673451008048"><ele>13.0</ele><time>2026-03-28T10:45:55Z</time></trkpt><trkpt lat="14.639365329935057" lon="121.00668593748343"><ele>13.0</ele><time>2026-03-28T10:45:56Z</time></trkpt><trkpt lat="14.639432272780319" lon="121.00663626348074"><ele>12.999999999999998</ele><time>2026-03-28T10:45:57Z</time></trkpt><trkpt lat="14.639493841549383" lon="121.00659210446729"><ele>13.0</ele><time>2026-03-28T10:45:58Z</time></trkpt><trkpt lat="14.639559460422621" lon="121.00655240606893"><ele>13.0</ele><time>2026-03-28T10:45:59Z</time></trkpt><trkpt lat="14.639626356468407" lon="121.00651454442342"><ele>13.0</ele><time>2026-03-28T10:46:00Z</time></trkpt><trkpt lat="14.639691086903566" lon="121.00648278044852"><ele>12.999999999999998</ele><time>2026-03-28T10:46:01Z</time></trkpt><trkpt lat="14.639760695377129" lon="121.00644950832191"><ele>13.0</ele><time>2026-03-28T10:46:02Z</time></trkpt><trkpt lat="14.639833764474313" lon="121.00641597151662"><ele>12.999999999999998</ele><time>2026-03-28T10:46:03Z</time></trkpt><trkpt lat="14.63990923578396" lon="121.00638683946099"><ele>13.0</ele><time>2026-03-28T10:46:04Z</time></trkpt><trkpt lat="14.639989535908429" lon="121.00635731950835"><ele>13.0</ele><time>2026-03-28T10:46:05Z</time></trkpt><trkpt lat="14.640064136897815" lon="121.0063340776096"><ele>13.0</ele><time>2026-03-28T10:46:06Z</time></trkpt><trkpt lat="14.640140843998363" lon="121.00630658518499"><ele>12.999999999999998</ele><time>2026-03-28T10:46:07Z</time></trkpt><trkpt lat="14.640218403884797" lon="121.00627879740958"><ele>13.0</ele><time>2026-03-28T10:46:08Z</time></trkpt><trkpt lat="14.640293197078309" lon="121.0062529813063"><ele>12.999999999999998</ele><time>2026-03-28T10:46:09Z</time></trkpt><trkpt lat="14.64036413234621" lon="121.00622695185503"><ele>13.0</ele><time>2026-03-28T10:46:10Z</time></trkpt><trkpt lat="14.640431982034448" lon="121.00620412286112"><ele>13.0</ele><time>2026-03-28T10:46:11Z</time></trkpt><trkpt lat="14.640503944688708" lon="121.00617951749211"><ele>13.0</ele><time>2026-03-28T10:46:12Z</time></trkpt><trkpt lat="14.64056709073318" lon="121.00615818905678"><ele>12.999999999999998</ele><time>2026-03-28T10:46:13Z</time></trkpt><trkpt lat="14.640628955440611" lon="121.00613799171909"><ele>13.0</ele><time>2026-03-28T10:46:14Z</time></trkpt><trkpt lat="14.640748845192581" lon="121.00610267310584"><ele>12.999999999999998</ele><time>2026-03-28T10:46:16Z</time></trkpt><trkpt lat="14.64083159388641" lon="121.00608004846313"><ele>13.0</ele><time>2026-03-28T10:46:17Z</time></trkpt><trkpt lat="14.640898454105184" lon="121.00606226034047"><ele>13.0</ele><time>2026-03-28T10:46:18Z</time></trkpt><trkpt lat="14.640968399268163" lon="121.00604417021516"><ele>13.0</ele><time>2026-03-28T10:46:19Z</time></trkpt><trkpt lat="14.641068978940481" lon="121.00601736555863"><ele>12.999999999999998</ele><time>2026-03-28T10:46:21Z</time></trkpt><trkpt lat="14.641152602910179" lon="121.00599719227199"><ele>13.0</ele><time>2026-03-28T10:46:23Z</time></trkpt><trkpt lat="14.641218222288394" lon="121.00597505294539"><ele>12.499999999999998</ele><time>2026-03-28T10:46:26Z</time></trkpt><trkpt lat="14.641257969100687" lon="121.00603671575963"><ele>12.0</ele><time>2026-03-28T10:46:39Z</time></trkpt><trkpt lat="14.641311513823226" lon="121.00608250511374"><ele>11.5</ele><time>2026-03-28T10:47:06Z</time></trkpt><trkpt lat="14.641402567926384" lon="121.00608482241215"><ele>11.0</ele><time>2026-03-28T10:47:46Z</time></trkpt><trkpt lat="14.641484069069211" lon="121.00605998240711"><ele>10.5</ele><time>2026-03-28T10:48:14Z</time></trkpt><trkpt lat="14.641510036597584" lon="121.00599040135145"><ele>10.0</ele><time>2026-03-28T10:48:28Z</time></trkpt><trkpt lat="14.641500044480885" lon="121.00605594151607"><ele>10.0</ele><time>2026-03-28T10:48:53Z</time></trkpt><trkpt lat="14.641506322672454" lon="121.00616270687524"><ele>10.0</ele><time>2026-03-28T10:48:54Z</time></trkpt><trkpt lat="14.641690979304512" lon="121.00611369931823"><ele>10.0</ele><time>2026-03-28T10:49:06Z</time></trkpt><trkpt lat="14.641746428170077" lon="121.0060776558238"><ele>10.0</ele><time>2026-03-28T10:49:07Z</time></trkpt><trkpt lat="14.641847093870595" lon="121.00606941669628"><ele>10.0</ele><time>2026-03-28T10:49:08Z</time></trkpt><trkpt lat="14.642011851433734" lon="121.00605204610794"><ele>10.0</ele><time>2026-03-28T10:49:11Z</time></trkpt><trkpt lat="14.64215372978555" lon="121.00594490512312"><ele>10.0</ele><time>2026-03-28T10:49:12Z</time></trkpt><trkpt lat="14.64239408535987" lon="121.00581672538489"><ele>10.0</ele><time>2026-03-28T10:49:15Z</time></trkpt><trkpt lat="14.642568011255111" lon="121.00585294183037"><ele>10.0</ele><time>2026-03-28T10:49:17Z</time></trkpt><trkpt lat="14.642714126875449" lon="121.00583102806164"><ele>10.0</ele><time>2026-03-28T10:49:19Z</time></trkpt><trkpt lat="14.642855905072803" lon="121.0058538861446"><ele>10.6</ele><time>2026-03-28T10:49:21Z</time></trkpt><trkpt lat="14.642968166572537" lon="121.00586383403119"><ele>11.2</ele><time>2026-03-28T10:49:22Z</time></trkpt><trkpt lat="14.643069339200604" lon="121.00589255120508"><ele>11.8</ele><time>2026-03-28T10:49:23Z</time></trkpt><trkpt lat="14.643192464922622" lon="121.00592014060874"><ele>12.4</ele><time>2026-03-28T10:49:24Z</time></trkpt><trkpt lat="14.643291475905164" lon="121.00593740365714"><ele>13.0</ele><time>2026-03-28T10:49:25Z</time></trkpt><trkpt lat="14.643394719426787" lon="121.00594260929243"><ele>13.0</ele><time>2026-03-28T10:49:26Z</time></trkpt><trkpt lat="14.643509941224492" lon="121.00595178970015"><ele>13.0</ele><time>2026-03-28T10:49:27Z</time></trkpt><trkpt lat="14.643642064521059" lon="121.00595886823255"><ele>13.0</ele><time>2026-03-28T10:49:28Z</time></trkpt><trkpt lat="14.643749785006156" lon="121.00593905615796"><ele>13.0</ele><time>2026-03-28T10:49:29Z</time></trkpt><trkpt lat="14.643868743619251" lon="121.00591646428846"><ele>13.75</ele><time>2026-03-28T10:49:30Z</time></trkpt><trkpt lat="14.643990974823144" lon="121.00588073680431"><ele>14.5</ele><time>2026-03-28T10:49:31Z</time></trkpt><trkpt lat="14.64410927625001" lon="121.005835960872"><ele>15.25</ele><time>2026-03-28T10:49:32Z</time></trkpt><trkpt lat="14.644230229186189" lon="121.00577791670894"><ele>16.0</ele><time>2026-03-28T10:49:33Z</time></trkpt><trkpt lat="14.644346709028309" lon="121.00570757543836"><ele>16.25</ele><time>2026-03-28T10:49:34Z</time></trkpt><trkpt lat="14.644455157958435" lon="121.00562490009622"><ele>16.5</ele><time>2026-03-28T10:49:35Z</time></trkpt><trkpt lat="14.644557261596423" lon="121.00553105829044"><ele>16.75</ele><time>2026-03-28T10:49:36Z</time></trkpt><trkpt lat="14.64465416764353" lon="121.00542722393513"><ele>17.0</ele><time>2026-03-28T10:49:37Z</time></trkpt><trkpt lat="14.644739002496882" lon="121.00530486343213"><ele>17.0</ele><time>2026-03-28T10:49:38Z</time></trkpt><trkpt lat="14.644807861633607" lon="121.00517653157064"><ele>17.0</ele><time>2026-03-28T10:49:39Z</time></trkpt><trkpt lat="14.644864949229975" lon="121.00503755517373"><ele>17.0</ele><time>2026-03-28T10:49:40Z</time></trkpt><trkpt lat="14.644914929629776" lon="121.00489250072542"><ele>17.0</ele><time>2026-03-28T10:49:41Z</time></trkpt><trkpt lat="14.6449496433262" lon="121.00474158628398"><ele>17.0</ele><time>2026-03-28T10:49:42Z</time></trkpt><trkpt lat="14.644973010648393" lon="121.0045848560299"><ele>17.0</ele><time>2026-03-28T10:49:43Z</time></trkpt><trkpt lat="14.644986607717012" lon="121.00442343224964"><ele>17.0</ele><time>2026-03-28T10:49:44Z</time></trkpt><trkpt lat="14.64498615842177" lon="121.00426596848959"><ele>17.666666666666668</ele><time>2026-03-28T10:49:45Z</time></trkpt><trkpt lat="14.644977979798144" lon="121.00410265714589"><ele>18.333333333333332</ele><time>2026-03-28T10:49:46Z</time></trkpt><trkpt lat="14.644961604061823" lon="121.00394558347007"><ele>19.0</ele><time>2026-03-28T10:49:47Z</time></trkpt><trkpt lat="14.644937747481777" lon="121.00378888102341"><ele>19.0</ele><time>2026-03-28T10:49:48Z</time></trkpt><trkpt lat="14.64491048365255" lon="121.00363235685728"><ele>19.0</ele><time>2026-03-28T10:49:49Z</time></trkpt><trkpt lat="14.6448823474011" lon="121.00347315327167"><ele>19.0</ele><time>2026-03-28T10:49:50Z</time></trkpt><trkpt lat="14.644852012114162" lon="121.00331709009453"><ele>19.25</ele><time>2026-03-28T10:49:51Z</time></trkpt><trkpt lat="14.644822468010156" lon="121.00316570423007"><ele>19.5</ele><time>2026-03-28T10:49:52Z</time></trkpt><trkpt lat="14.644794898435922" lon="121.00301349961924"><ele>19.75</ele><time>2026-03-28T10:49:53Z</time></trkpt><trkpt lat="14.64476548933506" lon="121.00286809306702"><ele>20.0</ele><time>2026-03-28T10:49:54Z</time></trkpt><trkpt lat="14.64474156674561" lon="121.00272245328584"><ele>20.0</ele><time>2026-03-28T10:49:55Z</time></trkpt><trkpt lat="14.644716072299207" lon="121.00258201574638"><ele>20.0</ele><time>2026-03-28T10:49:56Z</time></trkpt><trkpt lat="14.644691999144776" lon="121.0024344113329"><ele>20.0</ele><time>2026-03-28T10:49:57Z</time></trkpt><trkpt lat="14.644663170002545" lon="121.00229375446968"><ele>20.0</ele><time>2026-03-28T10:49:58Z</time></trkpt><trkpt lat="14.644637060486094" lon="121.00213676453255"><ele>19.0</ele><time>2026-03-28T10:49:59Z</time></trkpt><trkpt lat="14.644613656355808" lon="121.0019833865535"><ele>18.0</ele><time>2026-03-28T10:50:00Z</time></trkpt><trkpt lat="14.644587451967155" lon="121.0018296121047"><ele>17.0</ele><time>2026-03-28T10:50:01Z</time></trkpt><trkpt lat="14.644563113885003" lon="121.00167181984582"><ele>17.333333333333336</ele><time>2026-03-28T10:50:02Z</time></trkpt><trkpt lat="14.644537785172815" lon="121.00151488764203"><ele>17.666666666666668</ele><time>2026-03-28T10:50:03Z</time></trkpt><trkpt lat="14.644511766619043" lon="121.00135333864792"><ele>18.0</ele><time>2026-03-28T10:50:04Z</time></trkpt><trkpt lat="14.644486064111053" lon="121.00119398642788"><ele>18.0</ele><time>2026-03-28T10:50:05Z</time></trkpt><trkpt lat="14.644461224909634" lon="121.00102715419634"><ele>18.0</ele><time>2026-03-28T10:50:06Z</time></trkpt><trkpt lat="14.644436216910087" lon="121.00085473420631"><ele>18.0</ele><time>2026-03-28T10:50:07Z</time></trkpt><trkpt lat="14.64440621025317" lon="121.00068729446448"><ele>18.0</ele><time>2026-03-28T10:50:08Z</time></trkpt><trkpt lat="14.644383793680486" lon="121.00051425859726"><ele>18.0</ele><time>2026-03-28T10:50:09Z</time></trkpt><trkpt lat="14.644351774422207" lon="121.00034473736895"><ele>18.0</ele><time>2026-03-28T10:50:10Z</time></trkpt><trkpt lat="14.644321129867514" lon="121.00017893340862"><ele>18.0</ele><time>2026-03-28T10:50:11Z</time></trkpt><trkpt lat="14.644288146567508" lon="121.00002396532541"><ele>18.0</ele><time>2026-03-28T10:50:12Z</time></trkpt><trkpt lat="14.644260256857836" lon="120.99984760374758"><ele>18.0</ele><time>2026-03-28T10:50:13Z</time></trkpt><trkpt lat="14.64423467836552" lon="120.99968048151204"><ele>18.0</ele><time>2026-03-28T10:50:14Z</time></trkpt><trkpt lat="14.6442072874947" lon="120.99952752775961"><ele>18.0</ele><time>2026-03-28T10:50:15Z</time></trkpt><trkpt lat="14.644184379196636" lon="120.9993746762766"><ele>18.0</ele><time>2026-03-28T10:50:16Z</time></trkpt><trkpt lat="14.64416378276767" lon="120.99921802930714"><ele>18.0</ele><time>2026-03-28T10:50:17Z</time></trkpt><trkpt lat="14.64414204509482" lon="120.9990624611433"><ele>18.0</ele><time>2026-03-28T10:50:18Z</time></trkpt><trkpt lat="14.644124298975166" lon="120.9989020658879"><ele>18.0</ele><time>2026-03-28T10:50:19Z</time></trkpt><trkpt lat="14.644090683505473" lon="120.99875153265356"><ele>18.0</ele><time>2026-03-28T10:50:20Z</time></trkpt><trkpt lat="14.64407249102328" lon="120.99859368456747"><ele>18.0</ele><time>2026-03-28T10:50:21Z</time></trkpt><trkpt lat="14.644080537980287" lon="120.99844180703664"><ele>18.0</ele><time>2026-03-28T10:50:22Z</time></trkpt><trkpt lat="14.644072902912844" lon="120.99828744161513"><ele>18.75</ele><time>2026-03-28T10:50:23Z</time></trkpt><trkpt lat="14.64406691488133" lon="120.99813913828268"><ele>19.5</ele><time>2026-03-28T10:50:24Z</time></trkpt><trkpt lat="14.644059778667254" lon="120.9979904701846"><ele>20.25</ele><time>2026-03-28T10:50:25Z</time></trkpt><trkpt lat="14.644051595506603" lon="120.99784418971608"><ele>21.0</ele><time>2026-03-28T10:50:26Z</time></trkpt><trkpt lat="14.644041214140193" lon="120.99768726288927"><ele>21.0</ele><time>2026-03-28T10:50:27Z</time></trkpt><trkpt lat="14.644029628519993" lon="120.997525564675"><ele>21.0</ele><time>2026-03-28T10:50:28Z</time></trkpt><trkpt lat="14.644016310427242" lon="120.9973573763253"><ele>21.0</ele><time>2026-03-28T10:50:29Z</time></trkpt><trkpt lat="14.644010511599468" lon="120.99718329333267"><ele>21.333333333333332</ele><time>2026-03-28T10:50:30Z</time></trkpt><trkpt lat="14.644005134731282" lon="120.99700691209776"><ele>21.666666666666664</ele><time>2026-03-28T10:50:31Z</time></trkpt><trkpt lat="14.64399957100871" lon="120.99682583535532"><ele>22.0</ele><time>2026-03-28T10:50:32Z</time></trkpt><trkpt lat="14.643993178160219" lon="120.99664842756717"><ele>23.0</ele><time>2026-03-28T10:50:33Z</time></trkpt><trkpt lat="14.643987501915245" lon="120.99647029490413"><ele>24.0</ele><time>2026-03-28T10:50:34Z</time></trkpt><trkpt lat="14.643984218420647" lon="120.99629114043543"><ele>25.0</ele><time>2026-03-28T10:50:35Z</time></trkpt><trkpt lat="14.64398135269103" lon="120.99611927286654"><ele>25.0</ele><time>2026-03-28T10:50:36Z</time></trkpt><trkpt lat="14.64398428351218" lon="120.99595101275713"><ele>25.0</ele><time>2026-03-28T10:50:37Z</time></trkpt><trkpt lat="14.643995961080334" lon="120.99578768027727"><ele>25.0</ele><time>2026-03-28T10:50:38Z</time></trkpt><trkpt lat="14.64401788672713" lon="120.99562631815837"><ele>24.666666666666668</ele><time>2026-03-28T10:50:39Z</time></trkpt><trkpt lat="14.644057648241445" lon="120.99546887543409"><ele>24.333333333333336</ele><time>2026-03-28T10:50:40Z</time></trkpt><trkpt lat="14.644117007925773" lon="120.99532828020399"><ele>24.0</ele><time>2026-03-28T10:50:41Z</time></trkpt><trkpt lat="14.644180142881584" lon="120.9951921350376"><ele>24.0</ele><time>2026-03-28T10:50:42Z</time></trkpt><trkpt lat="14.644255007144347" lon="120.99504984033459"><ele>24.0</ele><time>2026-03-28T10:50:43Z</time></trkpt><trkpt lat="14.644363627825294" lon="120.99493402821113"><ele>24.0</ele><time>2026-03-28T10:50:44Z</time></trkpt><trkpt lat="14.644494534353766" lon="120.99481886676092"><ele>23.0</ele><time>2026-03-28T10:50:45Z</time></trkpt><trkpt lat="14.64462817488716" lon="120.99472944202965"><ele>22.0</ele><time>2026-03-28T10:50:46Z</time></trkpt><trkpt lat="14.6447784900622" lon="120.99467301801467"><ele>21.0</ele><time>2026-03-28T10:50:47Z</time></trkpt><trkpt lat="14.644920474397765" lon="120.99462241287921"><ele>21.0</ele><time>2026-03-28T10:50:48Z</time></trkpt><trkpt lat="14.645076310717016" lon="120.99457578364303"><ele>21.0</ele><time>2026-03-28T10:50:49Z</time></trkpt><trkpt lat="14.645229048084971" lon="120.99455301942896"><ele>21.0</ele><time>2026-03-28T10:50:50Z</time></trkpt><trkpt lat="14.645383706465763" lon="120.99455731668677"><ele>21.666666666666668</ele><time>2026-03-28T10:50:51Z</time></trkpt><trkpt lat="14.645537077109056" lon="120.99458324096697"><ele>22.333333333333336</ele><time>2026-03-28T10:50:52Z</time></trkpt><trkpt lat="14.645687001803621" lon="120.99461970491829"><ele>23.0</ele><time>2026-03-28T10:50:53Z</time></trkpt><trkpt lat="14.645838049450155" lon="120.99466487718671"><ele>23.0</ele><time>2026-03-28T10:50:54Z</time></trkpt><trkpt lat="14.645985081591988" lon="120.99472361610876"><ele>23.0</ele><time>2026-03-28T10:50:55Z</time></trkpt><trkpt lat="14.646131874566242" lon="120.99478986940613"><ele>23.0</ele><time>2026-03-28T10:50:56Z</time></trkpt><trkpt lat="14.646277080415917" lon="120.99485520159121"><ele>23.0</ele><time>2026-03-28T10:50:57Z</time></trkpt><trkpt lat="14.646431543177297" lon="120.9949230013494"><ele>23.0</ele><time>2026-03-28T10:50:58Z</time></trkpt><trkpt lat="14.646585131156158" lon="120.99499151686848"><ele>23.0</ele><time>2026-03-28T10:50:59Z</time></trkpt><trkpt lat="14.646746540203683" lon="120.99506028524394"><ele>23.0</ele><time>2026-03-28T10:51:00Z</time></trkpt><trkpt lat="14.646909603569236" lon="120.99513138423295"><ele>23.0</ele><time>2026-03-28T10:51:01Z</time></trkpt><trkpt lat="14.6470789564494" lon="120.99519827889162"><ele>23.0</ele><time>2026-03-28T10:51:02Z</time></trkpt><trkpt lat="14.647245953475167" lon="120.9952701021669"><ele>23.0</ele><time>2026-03-28T10:51:03Z</time></trkpt><trkpt lat="14.64741796637743" lon="120.99533681404372"><ele>23.0</ele><time>2026-03-28T10:51:04Z</time></trkpt><trkpt lat="14.647587136168765" lon="120.99540006781714"><ele>23.0</ele><time>2026-03-28T10:51:05Z</time></trkpt><trkpt lat="14.647749905153749" lon="120.99547774439274"><ele>23.666666666666668</ele><time>2026-03-28T10:51:06Z</time></trkpt><trkpt lat="14.647917521875037" lon="120.99554418297878"><ele>24.333333333333336</ele><time>2026-03-28T10:51:07Z</time></trkpt><trkpt lat="14.648090655720704" lon="120.99561497588773"><ele>25.0</ele><time>2026-03-28T10:51:08Z</time></trkpt><trkpt lat="14.648260276086825" lon="120.99568693770505"><ele>25.0</ele><time>2026-03-28T10:51:09Z</time></trkpt><trkpt lat="14.648421662588738" lon="120.99575777080345"><ele>25.0</ele><time>2026-03-28T10:51:10Z</time></trkpt><trkpt lat="14.648585129854263" lon="120.99582527393515"><ele>25.0</ele><time>2026-03-28T10:51:11Z</time></trkpt><trkpt lat="14.648746830162148" lon="120.99589573915853"><ele>25.0</ele><time>2026-03-28T10:51:12Z</time></trkpt><trkpt lat="14.648903562470256" lon="120.99596050378196"><ele>25.0</ele><time>2026-03-28T10:51:13Z</time></trkpt><trkpt lat="14.649061226303377" lon="120.99602753948581"><ele>25.0</ele><time>2026-03-28T10:51:14Z</time></trkpt><trkpt lat="14.649218472853644" lon="120.99609421262579"><ele>25.0</ele><time>2026-03-28T10:51:15Z</time></trkpt><trkpt lat="14.64937598060734" lon="120.9961615918844"><ele>25.0</ele><time>2026-03-28T10:51:16Z</time></trkpt><trkpt lat="14.649535133749689" lon="120.9962243521372"><ele>25.0</ele><time>2026-03-28T10:51:17Z</time></trkpt><trkpt lat="14.649687583939398" lon="120.99629000137097"><ele>25.0</ele><time>2026-03-28T10:51:18Z</time></trkpt><trkpt lat="14.649834729465987" lon="120.99635415168301"><ele>25.0</ele><time>2026-03-28T10:51:19Z</time></trkpt><trkpt lat="14.649982228532371" lon="120.99641957913504"><ele>25.0</ele><time>2026-03-28T10:51:20Z</time></trkpt><trkpt lat="14.650135387826692" lon="120.99647500489384"><ele>25.0</ele><time>2026-03-28T10:51:21Z</time></trkpt><trkpt lat="14.650282359021455" lon="120.99653571988641"><ele>25.0</ele><time>2026-03-28T10:51:22Z</time></trkpt><trkpt lat="14.650427964578117" lon="120.99659785495034"><ele>25.0</ele><time>2026-03-28T10:51:23Z</time></trkpt><trkpt lat="14.65057445868155" lon="120.99665866797521"><ele>25.25</ele><time>2026-03-28T10:51:24Z</time></trkpt><trkpt lat="14.650710152843496" lon="120.99672174974947"><ele>25.5</ele><time>2026-03-28T10:51:25Z</time></trkpt><trkpt lat="14.650840822404042" lon="120.99678087121379"><ele>25.75</ele><time>2026-03-28T10:51:26Z</time></trkpt><trkpt lat="14.650971152175146" lon="120.99683626528962"><ele>26.0</ele><time>2026-03-28T10:51:27Z</time></trkpt><trkpt lat="14.651101629337395" lon="120.99689103864115"><ele>26.5</ele><time>2026-03-28T10:51:28Z</time></trkpt><trkpt lat="14.651233731554997" lon="120.99694888671107"><ele>27.0</ele><time>2026-03-28T10:51:29Z</time></trkpt><trkpt lat="14.651360151372057" lon="120.99700125887975"><ele>27.5</ele><time>2026-03-28T10:51:30Z</time></trkpt><trkpt lat="14.651486856757833" lon="120.99705595302396"><ele>28.0</ele><time>2026-03-28T10:51:31Z</time></trkpt><trkpt lat="14.651607044560619" lon="120.99711670259123"><ele>28.0</ele><time>2026-03-28T10:51:32Z</time></trkpt><trkpt lat="14.651735451094293" lon="120.99717825453018"><ele>28.0</ele><time>2026-03-28T10:51:33Z</time></trkpt><trkpt lat="14.651865532668825" lon="120.99723837818404"><ele>28.0</ele><time>2026-03-28T10:51:34Z</time></trkpt><trkpt lat="14.651998974703359" lon="120.99729736677874"><ele>28.0</ele><time>2026-03-28T10:51:35Z</time></trkpt><trkpt lat="14.652134370667616" lon="120.99735861205133"><ele>27.0</ele><time>2026-03-28T10:51:36Z</time></trkpt><trkpt lat="14.652278897752625" lon="120.99742155596857"><ele>26.0</ele><time>2026-03-28T10:51:37Z</time></trkpt><trkpt lat="14.652425581281761" lon="120.99748898319812"><ele>25.0</ele><time>2026-03-28T10:51:38Z</time></trkpt><trkpt lat="14.65257478006352" lon="120.99756057780799"><ele>24.666666666666668</ele><time>2026-03-28T10:51:39Z</time></trkpt><trkpt lat="14.652726952725207" lon="120.99763699973693"><ele>24.333333333333336</ele><time>2026-03-28T10:51:40Z</time></trkpt><trkpt lat="14.652878749354699" lon="120.99771752484466"><ele>24.0</ele><time>2026-03-28T10:51:41Z</time></trkpt><trkpt lat="14.653033674553054" lon="120.9978008896394"><ele>24.0</ele><time>2026-03-28T10:51:42Z</time></trkpt><trkpt lat="14.65318822936751" lon="120.99788641666387"><ele>24.0</ele><time>2026-03-28T10:51:43Z</time></trkpt><trkpt lat="14.65334592167755" lon="120.99797620187705"><ele>24.0</ele><time>2026-03-28T10:51:44Z</time></trkpt><trkpt lat="14.653505151899065" lon="120.99806183063775"><ele>24.0</ele><time>2026-03-28T10:51:45Z</time></trkpt><trkpt lat="14.653662702301384" lon="120.99815667320485"><ele>24.0</ele><time>2026-03-28T10:51:46Z</time></trkpt><trkpt lat="14.65382030554221" lon="120.9982516856473"><ele>24.0</ele><time>2026-03-28T10:51:47Z</time></trkpt><trkpt lat="14.653978956031363" lon="120.99834381719634"><ele>24.0</ele><time>2026-03-28T10:51:48Z</time></trkpt><trkpt lat="14.654137455127199" lon="120.99844002039063"><ele>24.0</ele><time>2026-03-28T10:51:49Z</time></trkpt><trkpt lat="14.654294527762232" lon="120.99854129786992"><ele>24.0</ele><time>2026-03-28T10:51:50Z</time></trkpt><trkpt lat="14.654450040046537" lon="120.99864087342823"><ele>24.333333333333336</ele><time>2026-03-28T10:51:51Z</time></trkpt><trkpt lat="14.654600340909758" lon="120.99874119861204"><ele>24.666666666666668</ele><time>2026-03-28T10:51:52Z</time></trkpt><trkpt lat="14.654751236761005" lon="120.99884529223117"><ele>25.0</ele><time>2026-03-28T10:51:53Z</time></trkpt><trkpt lat="14.654901356823038" lon="120.99895716426384"><ele>25.0</ele><time>2026-03-28T10:51:54Z</time></trkpt><trkpt lat="14.655052717656545" lon="120.99906637835049"><ele>25.0</ele><time>2026-03-28T10:51:55Z</time></trkpt><trkpt lat="14.655204244714918" lon="120.99917698130547"><ele>25.0</ele><time>2026-03-28T10:51:56Z</time></trkpt><trkpt lat="14.655349156608258" lon="120.99928825101468"><ele>25.333333333333336</ele><time>2026-03-28T10:51:57Z</time></trkpt><trkpt lat="14.655485860317063" lon="120.99939011465383"><ele>25.666666666666664</ele><time>2026-03-28T10:51:58Z</time></trkpt><trkpt lat="14.655624566959816" lon="120.9994971968472"><ele>26.0</ele><time>2026-03-28T10:51:59Z</time></trkpt><trkpt lat="14.655756890121927" lon="120.99960001347047"><ele>26.0</ele><time>2026-03-28T10:52:00Z</time></trkpt><trkpt lat="14.655883097545345" lon="120.99970022617336"><ele>26.0</ele><time>2026-03-28T10:52:01Z</time></trkpt><trkpt lat="14.65600807636686" lon="120.99979418715708"><ele>26.0</ele><time>2026-03-28T10:52:02Z</time></trkpt><trkpt lat="14.656127991919297" lon="120.99988507770745"><ele>25.5</ele><time>2026-03-28T10:52:03Z</time></trkpt><trkpt lat="14.656250357431809" lon="120.99996728383057"><ele>25.0</ele><time>2026-03-28T10:52:04Z</time></trkpt><trkpt lat="14.656378733647816" lon="121.00004680753317"><ele>24.5</ele><time>2026-03-28T10:52:05Z</time></trkpt><trkpt lat="14.656504039425084" lon="121.00010865043082"><ele>24.0</ele><time>2026-03-28T10:52:06Z</time></trkpt><trkpt lat="14.656634288687478" lon="121.00016364266159"><ele>24.0</ele><time>2026-03-28T10:52:07Z</time></trkpt><trkpt lat="14.656752608658982" lon="121.00019690034706"><ele>24.0</ele><time>2026-03-28T10:52:08Z</time></trkpt><trkpt lat="14.656877704812953" lon="121.00021977112996"><ele>24.0</ele><time>2026-03-28T10:52:09Z</time></trkpt><trkpt lat="14.657004981709145" lon="121.00023565254895"><ele>24.0</ele><time>2026-03-28T10:52:10Z</time></trkpt><trkpt lat="14.657135100858486" lon="121.0002462702163"><ele>22.75</ele><time>2026-03-28T10:52:11Z</time></trkpt><trkpt lat="14.657269545007813" lon="121.00024974086294"><ele>21.5</ele><time>2026-03-28T10:52:12Z</time></trkpt><trkpt lat="14.657412507626791" lon="121.00025053567335"><ele>20.25</ele><time>2026-03-28T10:52:13Z</time></trkpt><trkpt lat="14.65755687017488" lon="121.00024993009399"><ele>19.0</ele><time>2026-03-28T10:52:14Z</time></trkpt><trkpt lat="14.657705104856563" lon="121.00024749045984"><ele>19.0</ele><time>2026-03-28T10:52:15Z</time></trkpt><trkpt lat="14.657848953400903" lon="121.00024629880758"><ele>19.0</ele><time>2026-03-28T10:52:16Z</time></trkpt><trkpt lat="14.657999322400117" lon="121.00024637811237"><ele>19.0</ele><time>2026-03-28T10:52:17Z</time></trkpt><trkpt lat="14.6581491415374" lon="121.00024669541028"><ele>19.0</ele><time>2026-03-28T10:52:18Z</time></trkpt><trkpt lat="14.658300464944809" lon="121.00024765975031"><ele>19.0</ele><time>2026-03-28T10:52:19Z</time></trkpt><trkpt lat="14.658453304884429" lon="121.00023749958127"><ele>19.0</ele><time>2026-03-28T10:52:20Z</time></trkpt><trkpt lat="14.658599493320212" lon="121.00023695345111"><ele>19.0</ele><time>2026-03-28T10:52:21Z</time></trkpt><trkpt lat="14.658751624427593" lon="121.00023816829282"><ele>19.666666666666664</ele><time>2026-03-28T10:52:22Z</time></trkpt><trkpt lat="14.658904419205443" lon="121.00022786653975"><ele>20.333333333333332</ele><time>2026-03-28T10:52:23Z</time></trkpt><trkpt lat="14.659062100346349" lon="121.00023319362272"><ele>21.0</ele><time>2026-03-28T10:52:24Z</time></trkpt><trkpt lat="14.659217030287389" lon="121.00023551005084"><ele>21.0</ele><time>2026-03-28T10:52:25Z</time></trkpt><trkpt lat="14.65938067137142" lon="121.00024116872964"><ele>21.0</ele><time>2026-03-28T10:52:26Z</time></trkpt><trkpt lat="14.659553608929432" lon="121.00024548115083"><ele>21.0</ele><time>2026-03-28T10:52:27Z</time></trkpt><trkpt lat="14.65972943866729" lon="121.00024927647597"><ele>20.666666666666668</ele><time>2026-03-28T10:52:28Z</time></trkpt><trkpt lat="14.659905143081668" lon="121.0002506593386"><ele>20.333333333333336</ele><time>2026-03-28T10:52:29Z</time></trkpt><trkpt lat="14.660086946155404" lon="121.00025594904031"><ele>20.0</ele><time>2026-03-28T10:52:30Z</time></trkpt><trkpt lat="14.660274635267953" lon="121.000260027543"><ele>20.666666666666668</ele><time>2026-03-28T10:52:31Z</time></trkpt><trkpt lat="14.660463550600543" lon="121.00026159330402"><ele>21.333333333333332</ele><time>2026-03-28T10:52:32Z</time></trkpt><trkpt lat="14.660661246743501" lon="121.00027554835903"><ele>22.0</ele><time>2026-03-28T10:52:33Z</time></trkpt><trkpt lat="14.66086023126686" lon="121.0002797863802"><ele>22.0</ele><time>2026-03-28T10:52:34Z</time></trkpt><trkpt lat="14.661059706872829" lon="121.00027602120632"><ele>22.0</ele><time>2026-03-28T10:52:35Z</time></trkpt><trkpt lat="14.66125553063626" lon="121.00027606759346"><ele>22.0</ele><time>2026-03-28T10:52:36Z</time></trkpt><trkpt lat="14.661453791418506" lon="121.00027500659402"><ele>22.0</ele><time>2026-03-28T10:52:37Z</time></trkpt><trkpt lat="14.661649252702773" lon="121.00027896804256"><ele>22.0</ele><time>2026-03-28T10:52:38Z</time></trkpt><trkpt lat="14.661841635715282" lon="121.00028217351452"><ele>22.0</ele><time>2026-03-28T10:52:39Z</time></trkpt><trkpt lat="14.662035112767075" lon="121.00028879800061"><ele>22.666666666666664</ele><time>2026-03-28T10:52:40Z</time></trkpt><trkpt lat="14.662225873493258" lon="121.00029714175903"><ele>23.333333333333332</ele><time>2026-03-28T10:52:41Z</time></trkpt><trkpt lat="14.66241911941826" lon="121.00030443770612"><ele>24.0</ele><time>2026-03-28T10:52:42Z</time></trkpt><trkpt lat="14.662618836389358" lon="121.0003066140159"><ele>24.666666666666664</ele><time>2026-03-28T10:52:43Z</time></trkpt><trkpt lat="14.662823176882283" lon="121.00031447600675"><ele>25.333333333333332</ele><time>2026-03-28T10:52:44Z</time></trkpt><trkpt lat="14.663027962449728" lon="121.00032097888514"><ele>26.0</ele><time>2026-03-28T10:52:45Z</time></trkpt><trkpt lat="14.663231809507392" lon="121.0003226899864"><ele>26.0</ele><time>2026-03-28T10:52:46Z</time></trkpt><trkpt lat="14.663434708699745" lon="121.00032631693657"><ele>26.0</ele><time>2026-03-28T10:52:47Z</time></trkpt><trkpt lat="14.663640853726932" lon="121.000333379316"><ele>26.0</ele><time>2026-03-28T10:52:48Z</time></trkpt><trkpt lat="14.663839351770095" lon="121.00033711549348"><ele>25.333333333333332</ele><time>2026-03-28T10:52:49Z</time></trkpt><trkpt lat="14.664040881405134" lon="121.00034002503274"><ele>24.666666666666664</ele><time>2026-03-28T10:52:50Z</time></trkpt><trkpt lat="14.664237906002716" lon="121.00034362915268"><ele>24.0</ele><time>2026-03-28T10:52:51Z</time></trkpt><trkpt lat="14.664434471250686" lon="121.0003479478773"><ele>25.0</ele><time>2026-03-28T10:52:52Z</time></trkpt><trkpt lat="14.664626341941037" lon="121.00035069060591"><ele>26.0</ele><time>2026-03-28T10:52:53Z</time></trkpt><trkpt lat="14.66481239644018" lon="121.00035197213005"><ele>27.0</ele><time>2026-03-28T10:52:54Z</time></trkpt><trkpt lat="14.664994976260768" lon="121.00035574602474"><ele>27.0</ele><time>2026-03-28T10:52:55Z</time></trkpt><trkpt lat="14.665174461447677" lon="121.00035850604436"><ele>27.0</ele><time>2026-03-28T10:52:56Z</time></trkpt><trkpt lat="14.665354554445747" lon="121.00036191670121"><ele>27.0</ele><time>2026-03-28T10:52:57Z</time></trkpt><trkpt lat="14.665530419830167" lon="121.00036536512623"><ele>27.666666666666664</ele><time>2026-03-28T10:52:58Z</time></trkpt><trkpt lat="14.665707782793827" lon="121.00036808816358"><ele>28.333333333333332</ele><time>2026-03-28T10:52:59Z</time></trkpt><trkpt lat="14.665883927054711" lon="121.00037275195892"><ele>29.0</ele><time>2026-03-28T10:53:00Z</time></trkpt><trkpt lat="14.666065711670658" lon="121.00037604793663"><ele>29.0</ele><time>2026-03-28T10:53:01Z</time></trkpt><trkpt lat="14.666245070673435" lon="121.00037682166108"><ele>29.0</ele><time>2026-03-28T10:53:02Z</time></trkpt><trkpt lat="14.666419784895131" lon="121.00038286630199"><ele>29.0</ele><time>2026-03-28T10:53:03Z</time></trkpt><trkpt lat="14.666602897978468" lon="121.00038158975805"><ele>29.0</ele><time>2026-03-28T10:53:04Z</time></trkpt><trkpt lat="14.666780009916652" lon="121.00038409631485"><ele>29.0</ele><time>2026-03-28T10:53:05Z</time></trkpt><trkpt lat="14.666962832379284" lon="121.00038493926279"><ele>29.0</ele><time>2026-03-28T10:53:06Z</time></trkpt><trkpt lat="14.667140718967685" lon="121.00038920415776"><ele>28.666666666666664</ele><time>2026-03-28T10:53:07Z</time></trkpt><trkpt lat="14.667322039038618" lon="121.00039894283167"><ele>28.333333333333336</ele><time>2026-03-28T10:53:08Z</time></trkpt><trkpt lat="14.66750201837712" lon="121.00040378172892"><ele>28.0</ele><time>2026-03-28T10:53:09Z</time></trkpt><trkpt lat="14.6676818341321" lon="121.00041017342804"><ele>28.666666666666668</ele><time>2026-03-28T10:53:10Z</time></trkpt><trkpt lat="14.667861172833005" lon="121.00041364739631"><ele>29.333333333333336</ele><time>2026-03-28T10:53:11Z</time></trkpt><trkpt lat="14.668028565603317" lon="121.00042469929899"><ele>30.0</ele><time>2026-03-28T10:53:12Z</time></trkpt><trkpt lat="14.668193271670477" lon="121.00043090300217"><ele>30.0</ele><time>2026-03-28T10:53:13Z</time></trkpt><trkpt lat="14.668357090007152" lon="121.00044219042347"><ele>30.0</ele><time>2026-03-28T10:53:14Z</time></trkpt><trkpt lat="14.668524029141174" lon="121.00044490160062"><ele>30.0</ele><time>2026-03-28T10:53:15Z</time></trkpt><trkpt lat="14.668690703019971" lon="121.00044787325726"><ele>29.666666666666664</ele><time>2026-03-28T10:53:16Z</time></trkpt><trkpt lat="14.668859813315304" lon="121.0004531436093"><ele>29.333333333333332</ele><time>2026-03-28T10:53:17Z</time></trkpt><trkpt lat="14.669029691137897" lon="121.0004636247197"><ele>29.0</ele><time>2026-03-28T10:53:18Z</time></trkpt><trkpt lat="14.66920106207327" lon="121.00047539026633"><ele>29.0</ele><time>2026-03-28T10:53:19Z</time></trkpt><trkpt lat="14.66936967527747" lon="121.0004878822893"><ele>29.0</ele><time>2026-03-28T10:53:20Z</time></trkpt><trkpt lat="14.6695384924077" lon="121.00050614711273"><ele>29.0</ele><time>2026-03-28T10:53:21Z</time></trkpt><trkpt lat="14.669696920447144" lon="121.00052503573808"><ele>29.0</ele><time>2026-03-28T10:53:22Z</time></trkpt><trkpt lat="14.669852517026207" lon="121.00053817912736"><ele>29.0</ele><time>2026-03-28T10:53:23Z</time></trkpt><trkpt lat="14.670001023988123" lon="121.00055898434468"><ele>29.0</ele><time>2026-03-28T10:53:24Z</time></trkpt><trkpt lat="14.670144084804116" lon="121.00057097071185"><ele>29.0</ele><time>2026-03-28T10:53:25Z</time></trkpt><trkpt lat="14.670285952761434" lon="121.00058269880783"><ele>29.75</ele><time>2026-03-28T10:53:26Z</time></trkpt><trkpt lat="14.670426213669625" lon="121.00059289191283"><ele>30.5</ele><time>2026-03-28T10:53:27Z</time></trkpt><trkpt lat="14.670565259957794" lon="121.00060194771282"><ele>31.25</ele><time>2026-03-28T10:53:28Z</time></trkpt><trkpt lat="14.670705161902195" lon="121.00061489902198"><ele>32.0</ele><time>2026-03-28T10:53:29Z</time></trkpt><trkpt lat="14.670836736472953" lon="121.00062510642725"><ele>32.0</ele><time>2026-03-28T10:53:30Z</time></trkpt><trkpt lat="14.670964296481198" lon="121.00062984818702"><ele>32.0</ele><time>2026-03-28T10:53:31Z</time></trkpt><trkpt lat="14.67109316104995" lon="121.00063061085703"><ele>32.0</ele><time>2026-03-28T10:53:32Z</time></trkpt><trkpt lat="14.67122338278269" lon="121.00063715630552"><ele>32.0</ele><time>2026-03-28T10:53:33Z</time></trkpt><trkpt lat="14.6713548245728" lon="121.00064362716037"><ele>33.25</ele><time>2026-03-28T10:53:34Z</time></trkpt><trkpt lat="14.671487504593225" lon="121.00065076671203"><ele>34.5</ele><time>2026-03-28T10:53:35Z</time></trkpt><trkpt lat="14.671615936991854" lon="121.00066628246945"><ele>35.75</ele><time>2026-03-28T10:53:36Z</time></trkpt><trkpt lat="14.671739667851568" lon="121.00067143931983"><ele>37.0</ele><time>2026-03-28T10:53:37Z</time></trkpt><trkpt lat="14.671859789213416" lon="121.000677267617"><ele>36.0</ele><time>2026-03-28T10:53:38Z</time></trkpt><trkpt lat="14.671980642794193" lon="121.00068273976143"><ele>35.0</ele><time>2026-03-28T10:53:39Z</time></trkpt><trkpt lat="14.672101993687612" lon="121.000687275824"><ele>34.0</ele><time>2026-03-28T10:53:40Z</time></trkpt><trkpt lat="14.672218716664462" lon="121.00069084466065"><ele>33.0</ele><time>2026-03-28T10:53:41Z</time></trkpt><trkpt lat="14.672335393517171" lon="121.00069258499707"><ele>33.0</ele><time>2026-03-28T10:53:42Z</time></trkpt><trkpt lat="14.672451473155224" lon="121.00069161760518"><ele>33.0</ele><time>2026-03-28T10:53:43Z</time></trkpt><trkpt lat="14.672562206586766" lon="121.00068860711548"><ele>33.0</ele><time>2026-03-28T10:53:44Z</time></trkpt><trkpt lat="14.672678265007914" lon="121.00068688593119"><ele>33.0</ele><time>2026-03-28T10:53:45Z</time></trkpt><trkpt lat="14.6727899544629" lon="121.00068271557488"><ele>32.6</ele><time>2026-03-28T10:53:46Z</time></trkpt><trkpt lat="14.672897720619059" lon="121.00068005347927"><ele>32.199999999999996</ele><time>2026-03-28T10:53:47Z</time></trkpt><trkpt lat="14.672986573762708" lon="121.0006791205096"><ele>31.8</ele><time>2026-03-28T10:53:48Z</time></trkpt><trkpt lat="14.67311708792006" lon="121.00067549972499"><ele>31.4</ele><time>2026-03-28T10:53:49Z</time></trkpt><trkpt lat="14.673238183946768" lon="121.00067757946039"><ele>31.0</ele><time>2026-03-28T10:53:50Z</time></trkpt><trkpt lat="14.673361363255303" lon="121.00067632292877"><ele>31.0</ele><time>2026-03-28T10:53:51Z</time></trkpt><trkpt lat="14.673480588905386" lon="121.00067223154238"><ele>31.0</ele><time>2026-03-28T10:53:52Z</time></trkpt><trkpt lat="14.673601004185985" lon="121.00066589257587"><ele>31.0</ele><time>2026-03-28T10:53:53Z</time></trkpt><trkpt lat="14.673721488884125" lon="121.00065526617176"><ele>31.0</ele><time>2026-03-28T10:53:54Z</time></trkpt><trkpt lat="14.673844934408923" lon="121.00064077071839"><ele>29.5</ele><time>2026-03-28T10:53:55Z</time></trkpt><trkpt lat="14.673963246853951" lon="121.00062557104883"><ele>28.0</ele><time>2026-03-28T10:53:56Z</time></trkpt><trkpt lat="14.67408568476527" lon="121.0006094326185"><ele>26.5</ele><time>2026-03-28T10:53:57Z</time></trkpt><trkpt lat="14.674212787121336" lon="121.00058710725493"><ele>25.0</ele><time>2026-03-28T10:53:58Z</time></trkpt><trkpt lat="14.67434292886486" lon="121.00057009020544"><ele>23.75</ele><time>2026-03-28T10:53:59Z</time></trkpt><trkpt lat="14.674474583518604" lon="121.00055656909804"><ele>22.5</ele><time>2026-03-28T10:54:00Z</time></trkpt><trkpt lat="14.6746033873691" lon="121.00055688178753"><ele>21.25</ele><time>2026-03-28T10:54:01Z</time></trkpt><trkpt lat="14.674724443653066" lon="121.000556056072"><ele>20.0</ele><time>2026-03-28T10:54:02Z</time></trkpt><trkpt lat="14.674857717671163" lon="121.00055539634037"><ele>20.0</ele><time>2026-03-28T10:54:03Z</time></trkpt><trkpt lat="14.674996126753806" lon="121.00055824222936"><ele>20.0</ele><time>2026-03-28T10:54:04Z</time></trkpt><trkpt lat="14.67513324455364" lon="121.0005628160591"><ele>20.0</ele><time>2026-03-28T10:54:05Z</time></trkpt><trkpt lat="14.67528003185828" lon="121.0005720626285"><ele>20.0</ele><time>2026-03-28T10:54:06Z</time></trkpt><trkpt lat="14.675413816691067" lon="121.00056980134748"><ele>18.5</ele><time>2026-03-28T10:54:07Z</time></trkpt><trkpt lat="14.675550784470602" lon="121.00058060716016"><ele>17.0</ele><time>2026-03-28T10:54:08Z</time></trkpt><trkpt lat="14.675681894698243" lon="121.00058533377077"><ele>15.5</ele><time>2026-03-28T10:54:09Z</time></trkpt><trkpt lat="14.675808368995078" lon="121.00058138393278"><ele>14.0</ele><time>2026-03-28T10:54:10Z</time></trkpt><trkpt lat="14.675945525342279" lon="121.0005697081954"><ele>14.0</ele><time>2026-03-28T10:54:11Z</time></trkpt><trkpt lat="14.676078248398277" lon="121.00054870040721"><ele>14.0</ele><time>2026-03-28T10:54:12Z</time></trkpt><trkpt lat="14.676221454181691" lon="121.00053270008448"><ele>14.0</ele><time>2026-03-28T10:54:13Z</time></trkpt><trkpt lat="14.67635307079166" lon="121.00052245674031"><ele>14.0</ele><time>2026-03-28T10:54:14Z</time></trkpt><trkpt lat="14.676488608972477" lon="121.00049428303548"><ele>14.5</ele><time>2026-03-28T10:54:15Z</time></trkpt><trkpt lat="14.676626296167335" lon="121.00046483278484"><ele>15.0</ele><time>2026-03-28T10:54:16Z</time></trkpt><trkpt lat="14.676767810898015" lon="121.00043556440306"><ele>15.5</ele><time>2026-03-28T10:54:17Z</time></trkpt><trkpt lat="14.67691325626214" lon="121.00040605339177"><ele>16.0</ele><time>2026-03-28T10:54:18Z</time></trkpt><trkpt lat="14.67705835358632" lon="121.00037610708141"><ele>16.0</ele><time>2026-03-28T10:54:19Z</time></trkpt><trkpt lat="14.677210308292661" lon="121.00034590972884"><ele>16.0</ele><time>2026-03-28T10:54:20Z</time></trkpt><trkpt lat="14.677353835140574" lon="121.00031927483481"><ele>16.0</ele><time>2026-03-28T10:54:21Z</time></trkpt><trkpt lat="14.677490500787298" lon="121.0003028402079"><ele>16.0</ele><time>2026-03-28T10:54:22Z</time></trkpt><trkpt lat="14.677619566769742" lon="121.00029223198494"><ele>16.0</ele><time>2026-03-28T10:54:23Z</time></trkpt><trkpt lat="14.677743493407256" lon="121.0002797037439"><ele>16.0</ele><time>2026-03-28T10:54:24Z</time></trkpt><trkpt lat="14.677860684069408" lon="121.00027149848404"><ele>16.0</ele><time>2026-03-28T10:54:25Z</time></trkpt><trkpt lat="14.677968832078179" lon="121.00026086385648"><ele>16.0</ele><time>2026-03-28T10:54:26Z</time></trkpt><trkpt lat="14.678073396188884" lon="121.00026620752716"><ele>15.999999999999998</ele><time>2026-03-28T10:54:27Z</time></trkpt><trkpt lat="14.678167406000796" lon="121.00025375864584"><ele>16.0</ele><time>2026-03-28T10:54:28Z</time></trkpt><trkpt lat="14.678241142899648" lon="121.00024480196687"><ele>16.0</ele><time>2026-03-28T10:54:29Z</time></trkpt><trkpt lat="14.678317448418653" lon="121.00023955901956"><ele>16.0</ele><time>2026-03-28T10:54:30Z</time></trkpt><trkpt lat="14.678385761597406" lon="121.00023733494619"><ele>15.999999999999998</ele><time>2026-03-28T10:54:31Z</time></trkpt><trkpt lat="14.678475532637496" lon="121.00024103386494"><ele>16.0</ele><time>2026-03-28T10:54:33Z</time></trkpt><trkpt lat="14.678567254936452" lon="121.00024475796825"><ele>16.5</ele><time>2026-03-28T10:54:36Z</time></trkpt><trkpt lat="14.678659898266467" lon="121.00024661584952"><ele>17.0</ele><time>2026-03-28T10:54:39Z</time></trkpt><trkpt lat="14.678739918199408" lon="121.00024371189743"><ele>17.5</ele><time>2026-03-28T10:54:41Z</time></trkpt><trkpt lat="14.678930448919129" lon="121.00024399462272"><ele>18.0</ele><time>2026-03-28T10:54:46Z</time></trkpt><trkpt lat="14.679012314992622" lon="121.0002743843313"><ele>18.0</ele><time>2026-03-28T10:54:49Z</time></trkpt><trkpt lat="14.678936628069764" lon="121.00025169434478"><ele>18.0</ele><time>2026-03-28T10:54:57Z</time></trkpt><trkpt lat="14.679012593216047" lon="121.00027624782244"><ele>18.0</ele><time>2026-03-28T10:54:59Z</time></trkpt><trkpt lat="14.679141640468096" lon="121.00030388358608"><ele>18.0</ele><time>2026-03-28T10:55:01Z</time></trkpt><trkpt lat="14.679207669153135" lon="121.0003235154123"><ele>18.0</ele><time>2026-03-28T10:55:02Z</time></trkpt><trkpt lat="14.6792764284351" lon="121.00034811172767"><ele>18.0</ele><time>2026-03-28T10:55:03Z</time></trkpt><trkpt lat="14.679343946148363" lon="121.00037738878751"><ele>18.000000000000004</ele><time>2026-03-28T10:55:04Z</time></trkpt><trkpt lat="14.679403851502514" lon="121.0004168474438"><ele>18.0</ele><time>2026-03-28T10:55:05Z</time></trkpt><trkpt lat="14.679466381508272" lon="121.00046627472406"><ele>18.0</ele><time>2026-03-28T10:55:06Z</time></trkpt><trkpt lat="14.679526746613796" lon="121.00049113697935"><ele>18.0</ele><time>2026-03-28T10:55:07Z</time></trkpt><trkpt lat="14.679591522196343" lon="121.00051206064167"><ele>18.0</ele><time>2026-03-28T10:55:08Z</time></trkpt><trkpt lat="14.679655763615598" lon="121.00053078202052"><ele>18.000000000000004</ele><time>2026-03-28T10:55:09Z</time></trkpt><trkpt lat="14.67971804294185" lon="121.00055516854623"><ele>18.0</ele><time>2026-03-28T10:55:10Z</time></trkpt><trkpt lat="14.679797201119435" lon="121.00057906749475"><ele>17.2</ele><time>2026-03-28T10:55:11Z</time></trkpt><trkpt lat="14.679872486223063" lon="121.00060396702895"><ele>16.4</ele><time>2026-03-28T10:55:12Z</time></trkpt><trkpt lat="14.679955111325183" lon="121.00062941089955"><ele>15.599999999999998</ele><time>2026-03-28T10:55:13Z</time></trkpt><trkpt lat="14.680042357653393" lon="121.00067539721019"><ele>14.799999999999999</ele><time>2026-03-28T10:55:14Z</time></trkpt><trkpt lat="14.680132835142528" lon="121.00070369558262"><ele>14.0</ele><time>2026-03-28T10:55:15Z</time></trkpt><trkpt lat="14.680245847230951" lon="121.00066778945104"><ele>12.75</ele><time>2026-03-28T10:55:16Z</time></trkpt><trkpt lat="14.680355459841852" lon="121.00067928190741"><ele>11.5</ele><time>2026-03-28T10:55:17Z</time></trkpt><trkpt lat="14.6804820942382" lon="121.0006828097406"><ele>10.25</ele><time>2026-03-28T10:55:18Z</time></trkpt><trkpt lat="14.680613818719259" lon="121.00068985330506"><ele>9.0</ele><time>2026-03-28T10:55:19Z</time></trkpt><trkpt lat="14.680754227984234" lon="121.00069816960928"><ele>9.0</ele><time>2026-03-28T10:55:20Z</time></trkpt><trkpt lat="14.680904212132608" lon="121.00070481889313"><ele>9.0</ele><time>2026-03-28T10:55:21Z</time></trkpt><trkpt lat="14.681050336082459" lon="121.00071195313508"><ele>9.0</ele><time>2026-03-28T10:55:22Z</time></trkpt><trkpt lat="14.681195478848453" lon="121.00071816250889"><ele>9.0</ele><time>2026-03-28T10:55:23Z</time></trkpt><trkpt lat="14.681349038350781" lon="121.00072610295982"><ele>9.0</ele><time>2026-03-28T10:55:24Z</time></trkpt><trkpt lat="14.681508574159862" lon="121.0007348776229"><ele>9.0</ele><time>2026-03-28T10:55:25Z</time></trkpt><trkpt lat="14.68166918975561" lon="121.00074348783988"><ele>9.0</ele><time>2026-03-28T10:55:26Z</time></trkpt><trkpt lat="14.681838918004127" lon="121.00075493813607"><ele>10.333333333333332</ele><time>2026-03-28T10:55:27Z</time></trkpt><trkpt lat="14.682006901068004" lon="121.00076390368787"><ele>11.666666666666666</ele><time>2026-03-28T10:55:28Z</time></trkpt><trkpt lat="14.68217905133171" lon="121.00077240422779"><ele>13.0</ele><time>2026-03-28T10:55:29Z</time></trkpt><trkpt lat="14.682360215571702" lon="121.0007757545324"><ele>13.0</ele><time>2026-03-28T10:55:30Z</time></trkpt><trkpt lat="14.682542711896783" lon="121.00077836165777"><ele>13.0</ele><time>2026-03-28T10:55:31Z</time></trkpt><trkpt lat="14.68273014472439" lon="121.00078196046613"><ele>13.0</ele><time>2026-03-28T10:55:32Z</time></trkpt><trkpt lat="14.68291482049314" lon="121.0007855082101"><ele>13.0</ele><time>2026-03-28T10:55:33Z</time></trkpt><trkpt lat="14.683106401476294" lon="121.00078728173027"><ele>13.0</ele><time>2026-03-28T10:55:34Z</time></trkpt><trkpt lat="14.683301201185337" lon="121.00078791328916"><ele>13.0</ele><time>2026-03-28T10:55:35Z</time></trkpt><trkpt lat="14.68350870955913" lon="121.00079428654021"><ele>12.0</ele><time>2026-03-28T10:55:36Z</time></trkpt><trkpt lat="14.683706664694677" lon="121.00079859125248"><ele>11.0</ele><time>2026-03-28T10:55:37Z</time></trkpt><trkpt lat="14.683893957167003" lon="121.00080097341531"><ele>10.0</ele><time>2026-03-28T10:55:38Z</time></trkpt><trkpt lat="14.684095688743854" lon="121.00079441921534"><ele>10.0</ele><time>2026-03-28T10:55:39Z</time></trkpt><trkpt lat="14.684298480161976" lon="121.00079579033753"><ele>10.0</ele><time>2026-03-28T10:55:40Z</time></trkpt><trkpt lat="14.684501772657303" lon="121.00079610400536"><ele>10.0</ele><time>2026-03-28T10:55:41Z</time></trkpt><trkpt lat="14.684707329416824" lon="121.00079787837701"><ele>10.0</ele><time>2026-03-28T10:55:42Z</time></trkpt><trkpt lat="14.684916129546757" lon="121.0008015040878"><ele>10.0</ele><time>2026-03-28T10:55:43Z</time></trkpt><trkpt lat="14.685130498197573" lon="121.0008027265699"><ele>10.0</ele><time>2026-03-28T10:55:44Z</time></trkpt><trkpt lat="14.685348539345192" lon="121.00080730278388"><ele>12.0</ele><time>2026-03-28T10:55:45Z</time></trkpt><trkpt lat="14.685563292905787" lon="121.00081056248752"><ele>14.0</ele><time>2026-03-28T10:55:46Z</time></trkpt><trkpt lat="14.685780345225345" lon="121.00081493551855"><ele>16.0</ele><time>2026-03-28T10:55:47Z</time></trkpt><trkpt lat="14.6859979790914" lon="121.0008167874944"><ele>15.333333333333332</ele><time>2026-03-28T10:55:48Z</time></trkpt><trkpt lat="14.686210386015906" lon="121.00082122698508"><ele>14.666666666666668</ele><time>2026-03-28T10:55:49Z</time></trkpt><trkpt lat="14.686417904199809" lon="121.00082527622271"><ele>14.0</ele><time>2026-03-28T10:55:50Z</time></trkpt><trkpt lat="14.686622990733627" lon="121.00082780286189"><ele>14.0</ele><time>2026-03-28T10:55:51Z</time></trkpt><trkpt lat="14.686832440504379" lon="121.00083411747936"><ele>14.0</ele><time>2026-03-28T10:55:52Z</time></trkpt><trkpt lat="14.68703617072464" lon="121.0008384242746"><ele>14.0</ele><time>2026-03-28T10:55:53Z</time></trkpt><trkpt lat="14.687238430477205" lon="121.00084012954376"><ele>14.0</ele><time>2026-03-28T10:55:54Z</time></trkpt><trkpt lat="14.687425715560972" lon="121.00084296633216"><ele>14.0</ele><time>2026-03-28T10:55:55Z</time></trkpt><trkpt lat="14.687610705488117" lon="121.00084498170129"><ele>14.0</ele><time>2026-03-28T10:55:56Z</time></trkpt><trkpt lat="14.687799979454331" lon="121.0008495468558"><ele>17.0</ele><time>2026-03-28T10:55:57Z</time></trkpt><trkpt lat="14.687985037117343" lon="121.00085510536567"><ele>20.0</ele><time>2026-03-28T10:55:58Z</time></trkpt><trkpt lat="14.688166966929986" lon="121.00085825291701"><ele>23.0</ele><time>2026-03-28T10:55:59Z</time></trkpt><trkpt lat="14.68834928070409" lon="121.00086504291552"><ele>23.0</ele><time>2026-03-28T10:56:00Z</time></trkpt><trkpt lat="14.68852444223789" lon="121.00087425169485"><ele>23.0</ele><time>2026-03-28T10:56:01Z</time></trkpt><trkpt lat="14.688705408335675" lon="121.0008797717352"><ele>23.0</ele><time>2026-03-28T10:56:02Z</time></trkpt><trkpt lat="14.688887133865396" lon="121.00088308140809"><ele>23.333333333333336</ele><time>2026-03-28T10:56:03Z</time></trkpt><trkpt lat="14.689066270656946" lon="121.00088730303743"><ele>23.666666666666668</ele><time>2026-03-28T10:56:04Z</time></trkpt><trkpt lat="14.6892471388981" lon="121.00089594551059"><ele>24.0</ele><time>2026-03-28T10:56:05Z</time></trkpt><trkpt lat="14.68942609094836" lon="121.00090026949759"><ele>24.0</ele><time>2026-03-28T10:56:06Z</time></trkpt><trkpt lat="14.68960743316125" lon="121.00090554123214"><ele>24.0</ele><time>2026-03-28T10:56:07Z</time></trkpt><trkpt lat="14.689791789489885" lon="121.00090742919394"><ele>24.0</ele><time>2026-03-28T10:56:08Z</time></trkpt><trkpt lat="14.689978475808298" lon="121.00090702563443"><ele>24.0</ele><time>2026-03-28T10:56:09Z</time></trkpt><trkpt lat="14.690168918023566" lon="121.00090580986277"><ele>24.0</ele><time>2026-03-28T10:56:10Z</time></trkpt><trkpt lat="14.690359368249831" lon="121.00089997530397"><ele>24.0</ele><time>2026-03-28T10:56:11Z</time></trkpt><trkpt lat="14.690555436389973" lon="121.00088908273962"><ele>24.333333333333336</ele><time>2026-03-28T10:56:12Z</time></trkpt><trkpt lat="14.690753761419492" lon="121.00087611106223"><ele>24.666666666666668</ele><time>2026-03-28T10:56:13Z</time></trkpt><trkpt lat="14.69095534138916" lon="121.00085900102087"><ele>25.0</ele><time>2026-03-28T10:56:14Z</time></trkpt><trkpt lat="14.69116113113074" lon="121.00083728574381"><ele>24.333333333333336</ele><time>2026-03-28T10:56:15Z</time></trkpt><trkpt lat="14.691363489147687" lon="121.00081286175661"><ele>23.666666666666668</ele><time>2026-03-28T10:56:16Z</time></trkpt><trkpt lat="14.691570534121958" lon="121.00078708733102"><ele>23.0</ele><time>2026-03-28T10:56:17Z</time></trkpt><trkpt lat="14.691779038679012" lon="121.00075805305558"><ele>22.666666666666668</ele><time>2026-03-28T10:56:18Z</time></trkpt><trkpt lat="14.691991855625075" lon="121.00072912851101"><ele>22.333333333333332</ele><time>2026-03-28T10:56:19Z</time></trkpt><trkpt lat="14.692205562674085" lon="121.00069486816294"><ele>22.0</ele><time>2026-03-28T10:56:20Z</time></trkpt><trkpt lat="14.692422371547213" lon="121.0006565007807"><ele>22.0</ele><time>2026-03-28T10:56:21Z</time></trkpt><trkpt lat="14.69263679634965" lon="121.00061821337874"><ele>22.0</ele><time>2026-03-28T10:56:22Z</time></trkpt><trkpt lat="14.692850572640905" lon="121.00057381593032"><ele>22.0</ele><time>2026-03-28T10:56:23Z</time></trkpt><trkpt lat="14.69306519098771" lon="121.00052892016906"><ele>21.666666666666664</ele><time>2026-03-28T10:56:24Z</time></trkpt><trkpt lat="14.693281093316504" lon="121.00047683046054"><ele>21.333333333333332</ele><time>2026-03-28T10:56:25Z</time></trkpt><trkpt lat="14.693498914781781" lon="121.00042200604898"><ele>21.0</ele><time>2026-03-28T10:56:26Z</time></trkpt><trkpt lat="14.693720202978856" lon="121.00036464989121"><ele>18.0</ele><time>2026-03-28T10:56:27Z</time></trkpt><trkpt lat="14.6939397700698" lon="121.00030268129159"><ele>15.0</ele><time>2026-03-28T10:56:28Z</time></trkpt><trkpt lat="14.694157097681446" lon="121.000236605578"><ele>15.0</ele><time>2026-03-28T10:56:29Z</time></trkpt><trkpt lat="14.694384914340802" lon="121.00018110072487"><ele>15.0</ele><time>2026-03-28T10:56:30Z</time></trkpt><trkpt lat="14.69460448999722" lon="121.00010832391163"><ele>17.0</ele><time>2026-03-28T10:56:31Z</time></trkpt><trkpt lat="14.694819596774423" lon="121.00002848557128"><ele>19.0</ele><time>2026-03-28T10:56:32Z</time></trkpt><trkpt lat="14.695036380720806" lon="120.99994834084382"><ele>19.0</ele><time>2026-03-28T10:56:33Z</time></trkpt><trkpt lat="14.695253507037375" lon="120.9998622723418"><ele>19.0</ele><time>2026-03-28T10:56:34Z</time></trkpt><trkpt lat="14.695460640424763" lon="120.99977621721558"><ele>20.0</ele><time>2026-03-28T10:56:35Z</time></trkpt><trkpt lat="14.69566223069335" lon="120.99969207738049"><ele>21.0</ele><time>2026-03-28T10:56:36Z</time></trkpt><trkpt lat="14.69586474039647" lon="120.9996001351309"><ele>22.0</ele><time>2026-03-28T10:56:37Z</time></trkpt><trkpt lat="14.696064283807209" lon="120.99951072793658"><ele>22.0</ele><time>2026-03-28T10:56:38Z</time></trkpt><trkpt lat="14.696260943122683" lon="120.99941909652597"><ele>22.0</ele><time>2026-03-28T10:56:39Z</time></trkpt><trkpt lat="14.696455558845825" lon="120.99932047707294"><ele>22.0</ele><time>2026-03-28T10:56:40Z</time></trkpt><trkpt lat="14.69665249355048" lon="120.99922113609762"><ele>21.333333333333332</ele><time>2026-03-28T10:56:41Z</time></trkpt><trkpt lat="14.696853428841978" lon="120.99912103536435"><ele>20.666666666666668</ele><time>2026-03-28T10:56:42Z</time></trkpt><trkpt lat="14.69705118082685" lon="120.99901813673061"><ele>20.0</ele><time>2026-03-28T10:56:43Z</time></trkpt><trkpt lat="14.697247256573975" lon="120.99891191916305"><ele>20.0</ele><time>2026-03-28T10:56:44Z</time></trkpt><trkpt lat="14.697443110512593" lon="120.99880820946662"><ele>20.0</ele><time>2026-03-28T10:56:45Z</time></trkpt><trkpt lat="14.697637573495712" lon="120.99870614346317"><ele>20.0</ele><time>2026-03-28T10:56:46Z</time></trkpt><trkpt lat="14.697828382638738" lon="120.99860509129427"><ele>19.666666666666668</ele><time>2026-03-28T10:56:47Z</time></trkpt><trkpt lat="14.698018430358145" lon="120.99850678529987"><ele>19.333333333333332</ele><time>2026-03-28T10:56:48Z</time></trkpt><trkpt lat="14.698207165185805" lon="120.99840655198716"><ele>19.0</ele><time>2026-03-28T10:56:49Z</time></trkpt><trkpt lat="14.698393142450858" lon="120.99830865949087"><ele>19.333333333333332</ele><time>2026-03-28T10:56:50Z</time></trkpt><trkpt lat="14.698573114698316" lon="120.99821403129474"><ele>19.666666666666668</ele><time>2026-03-28T10:56:51Z</time></trkpt><trkpt lat="14.698752597260658" lon="120.99811914691608"><ele>20.0</ele><time>2026-03-28T10:56:52Z</time></trkpt><trkpt lat="14.69892636570713" lon="120.99802705376142"><ele>20.0</ele><time>2026-03-28T10:56:53Z</time></trkpt><trkpt lat="14.699100001077934" lon="120.99793566583239"><ele>20.0</ele><time>2026-03-28T10:56:54Z</time></trkpt><trkpt lat="14.699267525137584" lon="120.99784531022253"><ele>20.0</ele><time>2026-03-28T10:56:55Z</time></trkpt><trkpt lat="14.699433699801384" lon="120.99776042386817"><ele>20.666666666666668</ele><time>2026-03-28T10:56:56Z</time></trkpt><trkpt lat="14.699599485366216" lon="120.99767024839491"><ele>21.333333333333332</ele><time>2026-03-28T10:56:57Z</time></trkpt><trkpt lat="14.699766681948836" lon="120.99758268849018"><ele>22.0</ele><time>2026-03-28T10:56:58Z</time></trkpt><trkpt lat="14.699931927955733" lon="120.99749720241661"><ele>22.0</ele><time>2026-03-28T10:56:59Z</time></trkpt><trkpt lat="14.70009637948987" lon="120.99741109957878"><ele>22.0</ele><time>2026-03-28T10:57:00Z</time></trkpt><trkpt lat="14.700256006651138" lon="120.99732041130386"><ele>22.0</ele><time>2026-03-28T10:57:01Z</time></trkpt><trkpt lat="14.700414318512788" lon="120.99723226172716"><ele>22.0</ele><time>2026-03-28T10:57:02Z</time></trkpt><trkpt lat="14.700579211529726" lon="120.9971438734377"><ele>22.0</ele><time>2026-03-28T10:57:03Z</time></trkpt><trkpt lat="14.700743175774226" lon="120.99705109272188"><ele>22.0</ele><time>2026-03-28T10:57:04Z</time></trkpt><trkpt lat="14.70090505302965" lon="120.99696035774477"><ele>22.0</ele><time>2026-03-28T10:57:05Z</time></trkpt><trkpt lat="14.701072575129048" lon="120.996868707228"><ele>22.0</ele><time>2026-03-28T10:57:06Z</time></trkpt><trkpt lat="14.701243079048265" lon="120.99677701334623"><ele>22.0</ele><time>2026-03-28T10:57:07Z</time></trkpt><trkpt lat="14.701413428700311" lon="120.99668034274353"><ele>21.333333333333332</ele><time>2026-03-28T10:57:08Z</time></trkpt><trkpt lat="14.701585659734995" lon="120.99658483269678"><ele>20.666666666666668</ele><time>2026-03-28T10:57:09Z</time></trkpt><trkpt lat="14.701761044058163" lon="120.99649102024034"><ele>20.0</ele><time>2026-03-28T10:57:10Z</time></trkpt><trkpt lat="14.701931203132334" lon="120.99639782299364"><ele>20.0</ele><time>2026-03-28T10:57:11Z</time></trkpt><trkpt lat="14.702092928296658" lon="120.99630690605963"><ele>20.0</ele><time>2026-03-28T10:57:12Z</time></trkpt><trkpt lat="14.702247847126662" lon="120.99622586203957"><ele>20.0</ele><time>2026-03-28T10:57:13Z</time></trkpt><trkpt lat="14.702396862710875" lon="120.99614636152073"><ele>20.0</ele><time>2026-03-28T10:57:14Z</time></trkpt><trkpt lat="14.702548528994313" lon="120.99606455857925"><ele>20.0</ele><time>2026-03-28T10:57:15Z</time></trkpt><trkpt lat="14.702697302990005" lon="120.99598918928092"><ele>20.0</ele><time>2026-03-28T10:57:16Z</time></trkpt><trkpt lat="14.70283440867125" lon="120.9959156561792"><ele>19.666666666666668</ele><time>2026-03-28T10:57:17Z</time></trkpt><trkpt lat="14.702970597658393" lon="120.99584490070859"><ele>19.333333333333332</ele><time>2026-03-28T10:57:18Z</time></trkpt><trkpt lat="14.703104294347746" lon="120.99577289780909"><ele>19.0</ele><time>2026-03-28T10:57:19Z</time></trkpt><trkpt lat="14.703239494920409" lon="120.99569945745381"><ele>19.0</ele><time>2026-03-28T10:57:20Z</time></trkpt><trkpt lat="14.703369943742935" lon="120.99562704580535"><ele>19.0</ele><time>2026-03-28T10:57:21Z</time></trkpt><trkpt lat="14.703499912533676" lon="120.99555551383452"><ele>19.0</ele><time>2026-03-28T10:57:22Z</time></trkpt><trkpt lat="14.703626444649892" lon="120.99548042439105"><ele>19.0</ele><time>2026-03-28T10:57:23Z</time></trkpt><trkpt lat="14.703761874860183" lon="120.99540867282356"><ele>19.0</ele><time>2026-03-28T10:57:24Z</time></trkpt><trkpt lat="14.70388928365541" lon="120.99533981235359"><ele>19.0</ele><time>2026-03-28T10:57:25Z</time></trkpt><trkpt lat="14.704015590155013" lon="120.9952702324523"><ele>19.0</ele><time>2026-03-28T10:57:26Z</time></trkpt><trkpt lat="14.704140063134192" lon="120.99520269943854"><ele>19.0</ele><time>2026-03-28T10:57:27Z</time></trkpt><trkpt lat="14.704267422784175" lon="120.99513434743417"><ele>19.0</ele><time>2026-03-28T10:57:28Z</time></trkpt><trkpt lat="14.70439537513266" lon="120.99506697739001"><ele>19.0</ele><time>2026-03-28T10:57:29Z</time></trkpt><trkpt lat="14.704521797015449" lon="120.99499951505165"><ele>19.0</ele><time>2026-03-28T10:57:30Z</time></trkpt><trkpt lat="14.704653330203314" lon="120.99492910199915"><ele>19.0</ele><time>2026-03-28T10:57:31Z</time></trkpt><trkpt lat="14.70478331805671" lon="120.9948530830574"><ele>18.75</ele><time>2026-03-28T10:57:32Z</time></trkpt><trkpt lat="14.704904204548471" lon="120.99478438456589"><ele>18.5</ele><time>2026-03-28T10:57:33Z</time></trkpt><trkpt lat="14.705042824413718" lon="120.9947092939545"><ele>18.25</ele><time>2026-03-28T10:57:34Z</time></trkpt><trkpt lat="14.705178484640836" lon="120.99463973053868"><ele>18.0</ele><time>2026-03-28T10:57:35Z</time></trkpt><trkpt lat="14.705316598703702" lon="120.99456753406332"><ele>17.0</ele><time>2026-03-28T10:57:36Z</time></trkpt><trkpt lat="14.70545626945391" lon="120.99449297821735"><ele>16.0</ele><time>2026-03-28T10:57:37Z</time></trkpt><trkpt lat="14.70560036681594" lon="120.99441331023596"><ele>15.0</ele><time>2026-03-28T10:57:38Z</time></trkpt><trkpt lat="14.705748712005963" lon="120.99433319705736"><ele>15.0</ele><time>2026-03-28T10:57:39Z</time></trkpt><trkpt lat="14.705902018217577" lon="120.9942495119125"><ele>15.0</ele><time>2026-03-28T10:57:40Z</time></trkpt><trkpt lat="14.706064177155723" lon="120.99416788902965"><ele>15.0</ele><time>2026-03-28T10:57:41Z</time></trkpt><trkpt lat="14.706221497148665" lon="120.9940840821997"><ele>15.0</ele><time>2026-03-28T10:57:42Z</time></trkpt><trkpt lat="14.706376572592006" lon="120.99399864885484"><ele>15.0</ele><time>2026-03-28T10:57:43Z</time></trkpt><trkpt lat="14.706528794221535" lon="120.99391674645429"><ele>15.0</ele><time>2026-03-28T10:57:44Z</time></trkpt><trkpt lat="14.70667877301722" lon="120.99383650242689"><ele>15.0</ele><time>2026-03-28T10:57:45Z</time></trkpt><trkpt lat="14.706827394968512" lon="120.99375512415972"><ele>15.0</ele><time>2026-03-28T10:57:46Z</time></trkpt><trkpt lat="14.706970895050892" lon="120.99367674604092"><ele>15.0</ele><time>2026-03-28T10:57:47Z</time></trkpt><trkpt lat="14.707113732886409" lon="120.99359550466764"><ele>15.333333333333332</ele><time>2026-03-28T10:57:48Z</time></trkpt><trkpt lat="14.707256338984468" lon="120.99351870208388"><ele>15.666666666666666</ele><time>2026-03-28T10:57:49Z</time></trkpt><trkpt lat="14.707397762972427" lon="120.99344465008946"><ele>16.0</ele><time>2026-03-28T10:57:50Z</time></trkpt><trkpt lat="14.707538043543895" lon="120.99336806534217"><ele>15.333333333333332</ele><time>2026-03-28T10:57:51Z</time></trkpt><trkpt lat="14.707674095939424" lon="120.99329711000082"><ele>14.666666666666668</ele><time>2026-03-28T10:57:52Z</time></trkpt><trkpt lat="14.70781613741011" lon="120.99321438902467"><ele>14.0</ele><time>2026-03-28T10:57:53Z</time></trkpt><trkpt lat="14.707950374989798" lon="120.99313928814243"><ele>15.75</ele><time>2026-03-28T10:57:54Z</time></trkpt><trkpt lat="14.708081919978822" lon="120.9930672884044"><ele>17.5</ele><time>2026-03-28T10:57:55Z</time></trkpt><trkpt lat="14.708213528634566" lon="120.99299929246585"><ele>19.25</ele><time>2026-03-28T10:57:56Z</time></trkpt><trkpt lat="14.708348303030524" lon="120.99292847662453"><ele>21.0</ele><time>2026-03-28T10:57:57Z</time></trkpt><trkpt lat="14.708491582471346" lon="120.99284298955573"><ele>21.666666666666668</ele><time>2026-03-28T10:57:58Z</time></trkpt><trkpt lat="14.708631186694175" lon="120.99276688783632"><ele>22.333333333333336</ele><time>2026-03-28T10:57:59Z</time></trkpt><trkpt lat="14.708772624056703" lon="120.99268922228492"><ele>23.0</ele><time>2026-03-28T10:58:00Z</time></trkpt><trkpt lat="14.708910971475204" lon="120.99262557163046"><ele>23.0</ele><time>2026-03-28T10:58:01Z</time></trkpt><trkpt lat="14.70905097802452" lon="120.99254525070526"><ele>23.0</ele><time>2026-03-28T10:58:02Z</time></trkpt><trkpt lat="14.709191428080821" lon="120.99246956163624"><ele>23.0</ele><time>2026-03-28T10:58:03Z</time></trkpt><trkpt lat="14.709328331479346" lon="120.9923982638696"><ele>21.5</ele><time>2026-03-28T10:58:04Z</time></trkpt><trkpt lat="14.709453198903434" lon="120.99233010151512"><ele>20.0</ele><time>2026-03-28T10:58:05Z</time></trkpt><trkpt lat="14.709572328673461" lon="120.99226246271562"><ele>18.5</ele><time>2026-03-28T10:58:06Z</time></trkpt><trkpt lat="14.709706907011036" lon="120.99218877215962"><ele>17.0</ele><time>2026-03-28T10:58:07Z</time></trkpt><trkpt lat="14.709841324117935" lon="120.99211667734212"><ele>17.0</ele><time>2026-03-28T10:58:08Z</time></trkpt><trkpt lat="14.709974025128805" lon="120.9920479734729"><ele>17.0</ele><time>2026-03-28T10:58:09Z</time></trkpt><trkpt lat="14.71010093992555" lon="120.99198046151085"><ele>17.0</ele><time>2026-03-28T10:58:10Z</time></trkpt><trkpt lat="14.710234240728157" lon="120.99191371800293"><ele>17.0</ele><time>2026-03-28T10:58:11Z</time></trkpt><trkpt lat="14.710367924013031" lon="120.99183423435672"><ele>17.75</ele><time>2026-03-28T10:58:12Z</time></trkpt><trkpt lat="14.710494355178836" lon="120.99176201707793"><ele>18.5</ele><time>2026-03-28T10:58:13Z</time></trkpt><trkpt lat="14.710616927411165" lon="120.99169969755165"><ele>19.25</ele><time>2026-03-28T10:58:14Z</time></trkpt><trkpt lat="14.710740857188107" lon="120.99163500254562"><ele>20.0</ele><time>2026-03-28T10:58:15Z</time></trkpt><trkpt lat="14.710865258508385" lon="120.99156416277084"><ele>20.5</ele><time>2026-03-28T10:58:16Z</time></trkpt><trkpt lat="14.710992771943129" lon="120.99149216633752"><ele>21.0</ele><time>2026-03-28T10:58:17Z</time></trkpt><trkpt lat="14.711119935160276" lon="120.99142718161657"><ele>21.5</ele><time>2026-03-28T10:58:18Z</time></trkpt><trkpt lat="14.711246827850578" lon="120.99136268339333"><ele>22.0</ele><time>2026-03-28T10:58:19Z</time></trkpt><trkpt lat="14.711379512105914" lon="120.9912961299385"><ele>22.0</ele><time>2026-03-28T10:58:20Z</time></trkpt><trkpt lat="14.71151109948408" lon="120.99122644890649"><ele>22.0</ele><time>2026-03-28T10:58:21Z</time></trkpt><trkpt lat="14.711644482878663" lon="120.99114971494367"><ele>22.0</ele><time>2026-03-28T10:58:22Z</time></trkpt><trkpt lat="14.711778806313259" lon="120.99107464829396"><ele>22.333333333333332</ele><time>2026-03-28T10:58:23Z</time></trkpt><trkpt lat="14.711913739685793" lon="120.99100018627297"><ele>22.666666666666668</ele><time>2026-03-28T10:58:24Z</time></trkpt><trkpt lat="14.712052939457106" lon="120.99092310333413"><ele>23.0</ele><time>2026-03-28T10:58:25Z</time></trkpt><trkpt lat="14.712194237105008" lon="120.99085112847258"><ele>23.666666666666668</ele><time>2026-03-28T10:58:26Z</time></trkpt><trkpt lat="14.712335401395103" lon="120.99077448357829"><ele>24.333333333333336</ele><time>2026-03-28T10:58:27Z</time></trkpt><trkpt lat="14.712481637665368" lon="120.99070139865019"><ele>25.0</ele><time>2026-03-28T10:58:28Z</time></trkpt><trkpt lat="14.712627051522734" lon="120.99062551342328"><ele>24.666666666666668</ele><time>2026-03-28T10:58:29Z</time></trkpt><trkpt lat="14.71277132204141" lon="120.99054723713043"><ele>24.333333333333336</ele><time>2026-03-28T10:58:30Z</time></trkpt><trkpt lat="14.712912019160337" lon="120.99047326437123"><ele>24.0</ele><time>2026-03-28T10:58:31Z</time></trkpt><trkpt lat="14.713051431810303" lon="120.99040018632985"><ele>24.0</ele><time>2026-03-28T10:58:32Z</time></trkpt><trkpt lat="14.713187673134977" lon="120.99033084209883"><ele>24.0</ele><time>2026-03-28T10:58:33Z</time></trkpt><trkpt lat="14.713323455891791" lon="120.99025743381824"><ele>24.0</ele><time>2026-03-28T10:58:34Z</time></trkpt><trkpt lat="14.713453562649427" lon="120.99018952721777"><ele>24.0</ele><time>2026-03-28T10:58:35Z</time></trkpt><trkpt lat="14.713581046277762" lon="120.99012150291291"><ele>24.0</ele><time>2026-03-28T10:58:36Z</time></trkpt><trkpt lat="14.713708950182687" lon="120.99005783363693"><ele>24.0</ele><time>2026-03-28T10:58:37Z</time></trkpt><trkpt lat="14.713833792727204" lon="120.98998999845658"><ele>24.0</ele><time>2026-03-28T10:58:38Z</time></trkpt><trkpt lat="14.713965197642619" lon="120.9899280597527"><ele>23.75</ele><time>2026-03-28T10:58:39Z</time></trkpt><trkpt lat="14.714091776744718" lon="120.98986449877339"><ele>23.5</ele><time>2026-03-28T10:58:40Z</time></trkpt><trkpt lat="14.714207742358292" lon="120.98979161353975"><ele>23.25</ele><time>2026-03-28T10:58:41Z</time></trkpt><trkpt lat="14.714337113423923" lon="120.98972448737297"><ele>23.0</ele><time>2026-03-28T10:58:42Z</time></trkpt><trkpt lat="14.714462696800082" lon="120.98965616771514"><ele>23.0</ele><time>2026-03-28T10:58:43Z</time></trkpt><trkpt lat="14.714593745750967" lon="120.98958857634483"><ele>23.0</ele><time>2026-03-28T10:58:44Z</time></trkpt><trkpt lat="14.714726871934879" lon="120.98951797282604"><ele>23.0</ele><time>2026-03-28T10:58:45Z</time></trkpt><trkpt lat="14.714853700008705" lon="120.98944336655434"><ele>23.0</ele><time>2026-03-28T10:58:46Z</time></trkpt><trkpt lat="14.714988337815944" lon="120.98937129898404"><ele>23.0</ele><time>2026-03-28T10:58:47Z</time></trkpt><trkpt lat="14.715124625337324" lon="120.98929805727624"><ele>23.0</ele><time>2026-03-28T10:58:48Z</time></trkpt><trkpt lat="14.715264542638119" lon="120.98921840637271"><ele>23.0</ele><time>2026-03-28T10:58:49Z</time></trkpt><trkpt lat="14.71539661877708" lon="120.98914511322063"><ele>24.0</ele><time>2026-03-28T10:58:50Z</time></trkpt><trkpt lat="14.715531516094458" lon="120.98907502511423"><ele>25.0</ele><time>2026-03-28T10:58:51Z</time></trkpt><trkpt lat="14.715661412006575" lon="120.98900141965437"><ele>26.0</ele><time>2026-03-28T10:58:52Z</time></trkpt><trkpt lat="14.715788494959703" lon="120.98893275641178"><ele>27.0</ele><time>2026-03-28T10:58:53Z</time></trkpt><trkpt lat="14.715910830132035" lon="120.98886450937687"><ele>27.0</ele><time>2026-03-28T10:58:54Z</time></trkpt><trkpt lat="14.716020033133328" lon="120.98880930561721"><ele>27.0</ele><time>2026-03-28T10:58:55Z</time></trkpt><trkpt lat="14.716132306365157" lon="120.98875185859085"><ele>27.0</ele><time>2026-03-28T10:58:56Z</time></trkpt><trkpt lat="14.716248422591006" lon="120.98868812996663"><ele>27.0</ele><time>2026-03-28T10:58:57Z</time></trkpt><trkpt lat="14.716369020434668" lon="120.98863182372844"><ele>28.0</ele><time>2026-03-28T10:58:58Z</time></trkpt><trkpt lat="14.716488628346461" lon="120.98857860233551"><ele>29.0</ele><time>2026-03-28T10:58:59Z</time></trkpt><trkpt lat="14.716611828251981" lon="120.98850818839813"><ele>30.0</ele><time>2026-03-28T10:59:00Z</time></trkpt><trkpt lat="14.716740314167566" lon="120.98843627659399"><ele>31.0</ele><time>2026-03-28T10:59:01Z</time></trkpt><trkpt lat="14.71687694521168" lon="120.9883655597667"><ele>30.333333333333336</ele><time>2026-03-28T10:59:02Z</time></trkpt><trkpt lat="14.717013835567727" lon="120.98829072794005"><ele>29.666666666666664</ele><time>2026-03-28T10:59:03Z</time></trkpt><trkpt lat="14.717151488385136" lon="120.98821803002264"><ele>29.0</ele><time>2026-03-28T10:59:04Z</time></trkpt><trkpt lat="14.717285960828299" lon="120.98813943130006"><ele>29.0</ele><time>2026-03-28T10:59:05Z</time></trkpt><trkpt lat="14.717422176309768" lon="120.9880676129312"><ele>29.0</ele><time>2026-03-28T10:59:06Z</time></trkpt><trkpt lat="14.717555977013118" lon="120.98799308967818"><ele>29.0</ele><time>2026-03-28T10:59:07Z</time></trkpt><trkpt lat="14.71768423678882" lon="120.98791559187103"><ele>28.0</ele><time>2026-03-28T10:59:08Z</time></trkpt><trkpt lat="14.717821405280842" lon="120.98784355275542"><ele>27.0</ele><time>2026-03-28T10:59:09Z</time></trkpt><trkpt lat="14.717961274584065" lon="120.98776799004419"><ele>26.0</ele><time>2026-03-28T10:59:10Z</time></trkpt><trkpt lat="14.718105408289784" lon="120.98769167912553"><ele>26.0</ele><time>2026-03-28T10:59:11Z</time></trkpt><trkpt lat="14.718254909056329" lon="120.98761159502119"><ele>26.0</ele><time>2026-03-28T10:59:12Z</time></trkpt><trkpt lat="14.718400578945282" lon="120.98752987363639"><ele>26.0</ele><time>2026-03-28T10:59:13Z</time></trkpt><trkpt lat="14.718547097828083" lon="120.98745029527666"><ele>24.0</ele><time>2026-03-28T10:59:14Z</time></trkpt><trkpt lat="14.718698655659038" lon="120.98737029739519"><ele>22.0</ele><time>2026-03-28T10:59:15Z</time></trkpt><trkpt lat="14.718852486636113" lon="120.9872887180306"><ele>20.0</ele><time>2026-03-28T10:59:16Z</time></trkpt><trkpt lat="14.719004589375604" lon="120.98720645769421"><ele>20.0</ele><time>2026-03-28T10:59:17Z</time></trkpt><trkpt lat="14.719163639634477" lon="120.9871248524055"><ele>20.0</ele><time>2026-03-28T10:59:18Z</time></trkpt><trkpt lat="14.719324850982487" lon="120.98703589853866"><ele>20.0</ele><time>2026-03-28T10:59:19Z</time></trkpt><trkpt lat="14.719494541618797" lon="120.98694887713792"><ele>19.666666666666668</ele><time>2026-03-28T10:59:20Z</time></trkpt><trkpt lat="14.719666565237707" lon="120.98685561280097"><ele>19.333333333333332</ele><time>2026-03-28T10:59:21Z</time></trkpt><trkpt lat="14.719837809879767" lon="120.98677175153885"><ele>19.0</ele><time>2026-03-28T10:59:22Z</time></trkpt><trkpt lat="14.720009190570863" lon="120.9866811966489"><ele>17.666666666666664</ele><time>2026-03-28T10:59:23Z</time></trkpt><trkpt lat="14.720181534216321" lon="120.98658918733267"><ele>16.333333333333332</ele><time>2026-03-28T10:59:24Z</time></trkpt><trkpt lat="14.720352796691566" lon="120.9864979472484"><ele>15.0</ele><time>2026-03-28T10:59:25Z</time></trkpt><trkpt lat="14.72052146788681" lon="120.98640658859932"><ele>15.0</ele><time>2026-03-28T10:59:26Z</time></trkpt><trkpt lat="14.720684661067255" lon="120.98632303355953"><ele>15.0</ele><time>2026-03-28T10:59:27Z</time></trkpt><trkpt lat="14.720842122313561" lon="120.98623690286448"><ele>15.0</ele><time>2026-03-28T10:59:28Z</time></trkpt><trkpt lat="14.720995101587683" lon="120.98615456363949"><ele>16.0</ele><time>2026-03-28T10:59:29Z</time></trkpt><trkpt lat="14.7211454012488" lon="120.9860751629573"><ele>17.0</ele><time>2026-03-28T10:59:30Z</time></trkpt><trkpt lat="14.721297450184897" lon="120.98599639584512"><ele>18.0</ele><time>2026-03-28T10:59:31Z</time></trkpt><trkpt lat="14.721446682319819" lon="120.98591756988033"><ele>18.333333333333332</ele><time>2026-03-28T10:59:32Z</time></trkpt><trkpt lat="14.721592191254492" lon="120.98584027793292"><ele>18.666666666666664</ele><time>2026-03-28T10:59:33Z</time></trkpt><trkpt lat="14.721736558795829" lon="120.98575926630156"><ele>19.0</ele><time>2026-03-28T10:59:34Z</time></trkpt><trkpt lat="14.721878260543125" lon="120.9856821830124"><ele>19.0</ele><time>2026-03-28T10:59:35Z</time></trkpt><trkpt lat="14.722021549595993" lon="120.98560564169541"><ele>19.0</ele><time>2026-03-28T10:59:36Z</time></trkpt><trkpt lat="14.722160873931605" lon="120.9855302938575"><ele>19.0</ele><time>2026-03-28T10:59:37Z</time></trkpt><trkpt lat="14.722300257789124" lon="120.98546053266512"><ele>19.0</ele><time>2026-03-28T10:59:38Z</time></trkpt><trkpt lat="14.72243936656006" lon="120.9853849652654"><ele>19.0</ele><time>2026-03-28T10:59:39Z</time></trkpt><trkpt lat="14.722577342895807" lon="120.98531131585041"><ele>19.0</ele><time>2026-03-28T10:59:40Z</time></trkpt><trkpt lat="14.722717844793433" lon="120.98523789085965"><ele>19.666666666666664</ele><time>2026-03-28T10:59:41Z</time></trkpt><trkpt lat="14.722855548375293" lon="120.98516408871126"><ele>20.333333333333332</ele><time>2026-03-28T10:59:42Z</time></trkpt><trkpt lat="14.72299048292078" lon="120.98508490475069"><ele>21.0</ele><time>2026-03-28T10:59:43Z</time></trkpt><trkpt lat="14.723133298400528" lon="120.98500653155939"><ele>19.666666666666668</ele><time>2026-03-28T10:59:44Z</time></trkpt><trkpt lat="14.723277450875727" lon="120.98492762358799"><ele>18.333333333333336</ele><time>2026-03-28T10:59:45Z</time></trkpt><trkpt lat="14.723426438123015" lon="120.9848507467289"><ele>17.0</ele><time>2026-03-28T10:59:46Z</time></trkpt><trkpt lat="14.72357774390724" lon="120.98477052378142"><ele>16.333333333333336</ele><time>2026-03-28T10:59:47Z</time></trkpt><trkpt lat="14.723722370445737" lon="120.98469336950657"><ele>15.666666666666668</ele><time>2026-03-28T10:59:48Z</time></trkpt><trkpt lat="14.723869324620614" lon="120.98461266150652"><ele>15.0</ele><time>2026-03-28T10:59:49Z</time></trkpt><trkpt lat="14.724016011329756" lon="120.98453420690245"><ele>15.0</ele><time>2026-03-28T10:59:50Z</time></trkpt><trkpt lat="14.724163674950168" lon="120.98445535871187"><ele>15.0</ele><time>2026-03-28T10:59:51Z</time></trkpt><trkpt lat="14.72431097640707" lon="120.98437310661389"><ele>15.0</ele><time>2026-03-28T10:59:52Z</time></trkpt><trkpt lat="14.724457592784491" lon="120.98429242513926"><ele>14.666666666666668</ele><time>2026-03-28T10:59:53Z</time></trkpt><trkpt lat="14.724604119061008" lon="120.98421353401953"><ele>14.333333333333334</ele><time>2026-03-28T10:59:54Z</time></trkpt><trkpt lat="14.724754471164799" lon="120.98413177978617"><ele>14.0</ele><time>2026-03-28T10:59:55Z</time></trkpt><trkpt lat="14.724905241650335" lon="120.98405230550706"><ele>14.0</ele><time>2026-03-28T10:59:56Z</time></trkpt><trkpt lat="14.725058877205827" lon="120.98397134484487"><ele>14.0</ele><time>2026-03-28T10:59:57Z</time></trkpt><trkpt lat="14.725217176192375" lon="120.98388479110315"><ele>14.0</ele><time>2026-03-28T10:59:58Z</time></trkpt><trkpt lat="14.725365290121562" lon="120.98380985863527"><ele>13.666666666666668</ele><time>2026-03-28T10:59:59Z</time></trkpt><trkpt lat="14.725510709930177" lon="120.98372887678286"><ele>13.333333333333332</ele><time>2026-03-28T11:00:00Z</time></trkpt><trkpt lat="14.725652708157769" lon="120.98365146259646"><ele>13.0</ele><time>2026-03-28T11:00:01Z</time></trkpt><trkpt lat="14.725792277930298" lon="120.98357401837787"><ele>13.0</ele><time>2026-03-28T11:00:02Z</time></trkpt><trkpt lat="14.725933542884556" lon="120.98349796787326"><ele>13.0</ele><time>2026-03-28T11:00:03Z</time></trkpt><trkpt lat="14.726070341455513" lon="120.98342295060385"><ele>13.0</ele><time>2026-03-28T11:00:04Z</time></trkpt><trkpt lat="14.726206846228436" lon="120.98335094241051"><ele>13.0</ele><time>2026-03-28T11:00:05Z</time></trkpt><trkpt lat="14.726339099863427" lon="120.98327772714896"><ele>13.0</ele><time>2026-03-28T11:00:06Z</time></trkpt><trkpt lat="14.726466077522762" lon="120.98320139287738"><ele>13.0</ele><time>2026-03-28T11:00:07Z</time></trkpt><trkpt lat="14.726594413557617" lon="120.98313420387922"><ele>13.0</ele><time>2026-03-28T11:00:08Z</time></trkpt><trkpt lat="14.726725083600076" lon="120.98306536230601"><ele>13.0</ele><time>2026-03-28T11:00:09Z</time></trkpt><trkpt lat="14.726856465198873" lon="120.98299463658928"><ele>13.0</ele><time>2026-03-28T11:00:10Z</time></trkpt><trkpt lat="14.726986120220882" lon="120.9829256251323"><ele>13.0</ele><time>2026-03-28T11:00:11Z</time></trkpt><trkpt lat="14.72711708547518" lon="120.98284828539111"><ele>13.0</ele><time>2026-03-28T11:00:12Z</time></trkpt><trkpt lat="14.727240736090101" lon="120.98277656521537"><ele>12.75</ele><time>2026-03-28T11:00:13Z</time></trkpt><trkpt lat="14.727375626531368" lon="120.98271130582401"><ele>12.5</ele><time>2026-03-28T11:00:14Z</time></trkpt><trkpt lat="14.72750859281907" lon="120.98263889585873"><ele>12.25</ele><time>2026-03-28T11:00:15Z</time></trkpt><trkpt lat="14.727635887653404" lon="120.9825690678553"><ele>12.0</ele><time>2026-03-28T11:00:16Z</time></trkpt><trkpt lat="14.727766294352215" lon="120.98249822378065"><ele>12.5</ele><time>2026-03-28T11:00:17Z</time></trkpt><trkpt lat="14.727894846371843" lon="120.98242807344575"><ele>13.0</ele><time>2026-03-28T11:00:18Z</time></trkpt><trkpt lat="14.728029156557415" lon="120.9823570413503"><ele>13.5</ele><time>2026-03-28T11:00:19Z</time></trkpt><trkpt lat="14.728163665329307" lon="120.98228786584384"><ele>14.0</ele><time>2026-03-28T11:00:20Z</time></trkpt><trkpt lat="14.72829980505798" lon="120.98221224080015"><ele>14.0</ele><time>2026-03-28T11:00:21Z</time></trkpt><trkpt lat="14.728438243806103" lon="120.98213753206673"><ele>14.0</ele><time>2026-03-28T11:00:22Z</time></trkpt><trkpt lat="14.72858050595396" lon="120.98206522090214"><ele>14.0</ele><time>2026-03-28T11:00:23Z</time></trkpt><trkpt lat="14.728714576673013" lon="120.98199441617764"><ele>13.75</ele><time>2026-03-28T11:00:24Z</time></trkpt><trkpt lat="14.728845290220523" lon="120.98192032590053"><ele>13.5</ele><time>2026-03-28T11:00:25Z</time></trkpt><trkpt lat="14.728977903141333" lon="120.98184674075165"><ele>13.25</ele><time>2026-03-28T11:00:26Z</time></trkpt><trkpt lat="14.729109604619012" lon="120.98177434439906"><ele>13.0</ele><time>2026-03-28T11:00:27Z</time></trkpt><trkpt lat="14.729239347493667" lon="120.98170012304139"><ele>13.0</ele><time>2026-03-28T11:00:28Z</time></trkpt><trkpt lat="14.729378204320517" lon="120.98162593386003"><ele>13.0</ele><time>2026-03-28T11:00:29Z</time></trkpt><trkpt lat="14.729508844074052" lon="120.98155618743381"><ele>13.0</ele><time>2026-03-28T11:00:30Z</time></trkpt><trkpt lat="14.72963799786707" lon="120.98148091912103"><ele>13.0</ele><time>2026-03-28T11:00:31Z</time></trkpt><trkpt lat="14.729768016516896" lon="120.9814111345846"><ele>13.0</ele><time>2026-03-28T11:00:32Z</time></trkpt><trkpt lat="14.729893324622088" lon="120.9813398677596"><ele>13.0</ele><time>2026-03-28T11:00:33Z</time></trkpt><trkpt lat="14.730022752731195" lon="120.98127039517179"><ele>13.0</ele><time>2026-03-28T11:00:34Z</time></trkpt><trkpt lat="14.730150645130418" lon="120.98120352594322"><ele>13.0</ele><time>2026-03-28T11:00:35Z</time></trkpt><trkpt lat="14.73028058519644" lon="120.98113421029437"><ele>13.0</ele><time>2026-03-28T11:00:36Z</time></trkpt><trkpt lat="14.730412326385188" lon="120.98106279762779"><ele>13.0</ele><time>2026-03-28T11:00:37Z</time></trkpt><trkpt lat="14.730545315816064" lon="120.98099096847653"><ele>13.0</ele><time>2026-03-28T11:00:38Z</time></trkpt><trkpt lat="14.73067919901382" lon="120.98091622310972"><ele>13.0</ele><time>2026-03-28T11:00:39Z</time></trkpt><trkpt lat="14.730809240210323" lon="120.98085038828421"><ele>13.0</ele><time>2026-03-28T11:00:40Z</time></trkpt><trkpt lat="14.730939638204992" lon="120.9807812375773"><ele>13.0</ele><time>2026-03-28T11:00:41Z</time></trkpt><trkpt lat="14.73107347892681" lon="120.98070825904122"><ele>13.0</ele><time>2026-03-28T11:00:42Z</time></trkpt><trkpt lat="14.731208250555385" lon="120.98063521780863"><ele>12.666666666666666</ele><time>2026-03-28T11:00:43Z</time></trkpt><trkpt lat="14.731342775762913" lon="120.98056553091226"><ele>12.333333333333332</ele><time>2026-03-28T11:00:44Z</time></trkpt><trkpt lat="14.73148278058585" lon="120.98049323871597"><ele>12.0</ele><time>2026-03-28T11:00:45Z</time></trkpt><trkpt lat="14.731623855510056" lon="120.98041909937031"><ele>12.0</ele><time>2026-03-28T11:00:46Z</time></trkpt><trkpt lat="14.731767741151028" lon="120.98034351518388"><ele>12.0</ele><time>2026-03-28T11:00:47Z</time></trkpt><trkpt lat="14.731911527750114" lon="120.98026352208558"><ele>12.0</ele><time>2026-03-28T11:00:48Z</time></trkpt><trkpt lat="14.732056313296003" lon="120.98018352834504"><ele>13.333333333333332</ele><time>2026-03-28T11:00:49Z</time></trkpt><trkpt lat="14.732202083451869" lon="120.9801084193875"><ele>14.666666666666666</ele><time>2026-03-28T11:00:50Z</time></trkpt><trkpt lat="14.732350449428036" lon="120.98002911968864"><ele>16.0</ele><time>2026-03-28T11:00:51Z</time></trkpt><trkpt lat="14.732496193087258" lon="120.97994758107085"><ele>16.0</ele><time>2026-03-28T11:00:52Z</time></trkpt><trkpt lat="14.732642907835682" lon="120.97986832991053"><ele>16.0</ele><time>2026-03-28T11:00:53Z</time></trkpt><trkpt lat="14.732787975258873" lon="120.97978826368227"><ele>16.0</ele><time>2026-03-28T11:00:54Z</time></trkpt><trkpt lat="14.73293445996617" lon="120.9797057008263"><ele>15.666666666666666</ele><time>2026-03-28T11:00:55Z</time></trkpt><trkpt lat="14.733084800748436" lon="120.97962419064064"><ele>15.333333333333332</ele><time>2026-03-28T11:00:56Z</time></trkpt><trkpt lat="14.73323929702333" lon="120.97953491297595"><ele>15.0</ele><time>2026-03-28T11:00:57Z</time></trkpt><trkpt lat="14.733384204357483" lon="120.97945771861154"><ele>15.0</ele><time>2026-03-28T11:00:58Z</time></trkpt><trkpt lat="14.73353493542777" lon="120.97937652657401"><ele>15.0</ele><time>2026-03-28T11:00:59Z</time></trkpt><trkpt lat="14.73368822312771" lon="120.97929026143566"><ele>15.0</ele><time>2026-03-28T11:01:00Z</time></trkpt><trkpt lat="14.733843368279748" lon="120.97920462392958"><ele>14.666666666666668</ele><time>2026-03-28T11:01:01Z</time></trkpt><trkpt lat="14.734000755393955" lon="120.97912152443743"><ele>14.333333333333334</ele><time>2026-03-28T11:01:02Z</time></trkpt><trkpt lat="14.734158720198145" lon="120.97903159995639"><ele>14.0</ele><time>2026-03-28T11:01:03Z</time></trkpt><trkpt lat="14.734309749469839" lon="120.97895317034994"><ele>13.666666666666668</ele><time>2026-03-28T11:01:04Z</time></trkpt><trkpt lat="14.734468846296421" lon="120.97886895464258"><ele>13.333333333333332</ele><time>2026-03-28T11:01:05Z</time></trkpt><trkpt lat="14.734636246191497" lon="120.97878324373139"><ele>13.0</ele><time>2026-03-28T11:01:06Z</time></trkpt><trkpt lat="14.734793295125254" lon="120.97870496769272"><ele>13.0</ele><time>2026-03-28T11:01:07Z</time></trkpt><trkpt lat="14.734962837830748" lon="120.97861566377446"><ele>13.0</ele><time>2026-03-28T11:01:08Z</time></trkpt><trkpt lat="14.735133688745446" lon="120.97852605752108"><ele>13.0</ele><time>2026-03-28T11:01:09Z</time></trkpt><trkpt lat="14.735302931299474" lon="120.97843349053096"><ele>12.666666666666666</ele><time>2026-03-28T11:01:10Z</time></trkpt><trkpt lat="14.735475864896845" lon="120.97833961863806"><ele>12.333333333333332</ele><time>2026-03-28T11:01:11Z</time></trkpt><trkpt lat="14.735646579709762" lon="120.97824846089405"><ele>12.0</ele><time>2026-03-28T11:01:12Z</time></trkpt><trkpt lat="14.735819420883704" lon="120.97815785952014"><ele>12.0</ele><time>2026-03-28T11:01:13Z</time></trkpt><trkpt lat="14.735986615060098" lon="120.9780636244537"><ele>12.0</ele><time>2026-03-28T11:01:14Z</time></trkpt><trkpt lat="14.736150688262336" lon="120.97796611305478"><ele>12.0</ele><time>2026-03-28T11:01:15Z</time></trkpt><trkpt lat="14.736316731129383" lon="120.97787080987436"><ele>12.0</ele><time>2026-03-28T11:01:16Z</time></trkpt><trkpt lat="14.736482770383429" lon="120.9777776013712"><ele>12.0</ele><time>2026-03-28T11:01:17Z</time></trkpt><trkpt lat="14.736648795285655" lon="120.9776837168395"><ele>12.0</ele><time>2026-03-28T11:01:18Z</time></trkpt><trkpt lat="14.736815351742546" lon="120.97758956127504"><ele>10.666666666666666</ele><time>2026-03-28T11:01:19Z</time></trkpt><trkpt lat="14.736982287786326" lon="120.97749907942557"><ele>9.333333333333332</ele><time>2026-03-28T11:01:20Z</time></trkpt><trkpt lat="14.73714254764478" lon="120.97740993678576"><ele>8.0</ele><time>2026-03-28T11:01:21Z</time></trkpt><trkpt lat="14.737305905953939" lon="120.97732209570121"><ele>8.0</ele><time>2026-03-28T11:01:22Z</time></trkpt><trkpt lat="14.737471267074442" lon="120.97723559158034"><ele>8.0</ele><time>2026-03-28T11:01:23Z</time></trkpt><trkpt lat="14.737636413255238" lon="120.97714924795068"><ele>8.0</ele><time>2026-03-28T11:01:24Z</time></trkpt><trkpt lat="14.737798754477478" lon="120.9770635258085"><ele>7.333333333333333</ele><time>2026-03-28T11:01:25Z</time></trkpt><trkpt lat="14.737960358007872" lon="120.97697789908305"><ele>6.666666666666666</ele><time>2026-03-28T11:01:26Z</time></trkpt><trkpt lat="14.738116070099332" lon="120.97689368440365"><ele>6.0</ele><time>2026-03-28T11:01:27Z</time></trkpt><trkpt lat="14.738270104354655" lon="120.97681206313887"><ele>6.0</ele><time>2026-03-28T11:01:28Z</time></trkpt><trkpt lat="14.73842129485613" lon="120.97672773183061"><ele>6.0</ele><time>2026-03-28T11:01:29Z</time></trkpt><trkpt lat="14.738572461732607" lon="120.97664319134182"><ele>6.0</ele><time>2026-03-28T11:01:30Z</time></trkpt><trkpt lat="14.738723034068306" lon="120.97656397953224"><ele>5.666666666666667</ele><time>2026-03-28T11:01:31Z</time></trkpt><trkpt lat="14.738877091821468" lon="120.97648469561594"><ele>5.333333333333334</ele><time>2026-03-28T11:01:32Z</time></trkpt><trkpt lat="14.739028153159504" lon="120.97640433638209"><ele>5.0</ele><time>2026-03-28T11:01:33Z</time></trkpt><trkpt lat="14.739177664193715" lon="120.97632405051765"><ele>5.0</ele><time>2026-03-28T11:01:34Z</time></trkpt><trkpt lat="14.739317545873806" lon="120.97624317487058"><ele>5.0</ele><time>2026-03-28T11:01:35Z</time></trkpt><trkpt lat="14.739457878815603" lon="120.97616709115385"><ele>5.0</ele><time>2026-03-28T11:01:36Z</time></trkpt><trkpt lat="14.739595832660555" lon="120.97609572102297"><ele>4.666666666666667</ele><time>2026-03-28T11:01:37Z</time></trkpt><trkpt lat="14.739731803669212" lon="120.97602308543881"><ele>4.333333333333333</ele><time>2026-03-28T11:01:38Z</time></trkpt><trkpt lat="14.739867781072983" lon="120.97595103867404"><ele>4.0</ele><time>2026-03-28T11:01:39Z</time></trkpt><trkpt lat="14.740005995593208" lon="120.97587641332345"><ele>4.75</ele><time>2026-03-28T11:01:40Z</time></trkpt><trkpt lat="14.74013746711405" lon="120.97581256665751"><ele>5.5</ele><time>2026-03-28T11:01:41Z</time></trkpt><trkpt lat="14.740267163027983" lon="120.97574299172899"><ele>6.25</ele><time>2026-03-28T11:01:42Z</time></trkpt><trkpt lat="14.740399065829683" lon="120.97566691664237"><ele>7.0</ele><time>2026-03-28T11:01:43Z</time></trkpt><trkpt lat="14.7405282015514" lon="120.97559082506476"><ele>7.0</ele><time>2026-03-28T11:01:44Z</time></trkpt><trkpt lat="14.740658649163262" lon="120.97552108066111"><ele>7.0</ele><time>2026-03-28T11:01:45Z</time></trkpt><trkpt lat="14.740787639481672" lon="120.97544883718086"><ele>7.0</ele><time>2026-03-28T11:01:46Z</time></trkpt><trkpt lat="14.740920881402767" lon="120.97537797863156"><ele>7.0</ele><time>2026-03-28T11:01:47Z</time></trkpt><trkpt lat="14.741051429697476" lon="120.97530738943126"><ele>6.75</ele><time>2026-03-28T11:01:48Z</time></trkpt><trkpt lat="14.741178955666154" lon="120.97525002067059"><ele>6.5</ele><time>2026-03-28T11:01:49Z</time></trkpt><trkpt lat="14.74130634882205" lon="120.97517742408748"><ele>6.25</ele><time>2026-03-28T11:01:50Z</time></trkpt><trkpt lat="14.741441742655368" lon="120.97510360949863"><ele>6.0</ele><time>2026-03-28T11:01:51Z</time></trkpt><trkpt lat="14.741578021002816" lon="120.97503354141608"><ele>6.0</ele><time>2026-03-28T11:01:52Z</time></trkpt><trkpt lat="14.741712323908375" lon="120.97495961942711"><ele>6.0</ele><time>2026-03-28T11:01:53Z</time></trkpt><trkpt lat="14.741847288350053" lon="120.9748878278507"><ele>6.0</ele><time>2026-03-28T11:01:54Z</time></trkpt><trkpt lat="14.741977351772281" lon="120.97482042479591"><ele>6.0</ele><time>2026-03-28T11:01:55Z</time></trkpt><trkpt lat="14.742105513011163" lon="120.97474841569908"><ele>6.25</ele><time>2026-03-28T11:01:56Z</time></trkpt><trkpt lat="14.742233996949508" lon="120.97468229056163"><ele>6.5</ele><time>2026-03-28T11:01:57Z</time></trkpt><trkpt lat="14.742358110770159" lon="120.97461148988516"><ele>6.75</ele><time>2026-03-28T11:01:58Z</time></trkpt><trkpt lat="14.742484301450899" lon="120.97454515318174"><ele>7.0</ele><time>2026-03-28T11:01:59Z</time></trkpt><trkpt lat="14.742606596931545" lon="120.97447700982272"><ele>6.5</ele><time>2026-03-28T11:02:00Z</time></trkpt><trkpt lat="14.742722798940136" lon="120.97441149406527"><ele>6.0</ele><time>2026-03-28T11:02:01Z</time></trkpt><trkpt lat="14.742839176621692" lon="120.97435293232125"><ele>5.5</ele><time>2026-03-28T11:02:02Z</time></trkpt><trkpt lat="14.742959687320386" lon="120.9742957044301"><ele>5.0</ele><time>2026-03-28T11:02:03Z</time></trkpt><trkpt lat="14.743074392580029" lon="120.97423496947945"><ele>5.5</ele><time>2026-03-28T11:02:04Z</time></trkpt><trkpt lat="14.743189079943672" lon="120.97417367059137"><ele>6.0</ele><time>2026-03-28T11:02:05Z</time></trkpt><trkpt lat="14.74330073251034" lon="120.97410974670207"><ele>6.5</ele><time>2026-03-28T11:02:06Z</time></trkpt><trkpt lat="14.743412217514075" lon="120.97405076668697"><ele>7.0</ele><time>2026-03-28T11:02:07Z</time></trkpt><trkpt lat="14.743535705776951" lon="120.9739883009418"><ele>7.25</ele><time>2026-03-28T11:02:08Z</time></trkpt><trkpt lat="14.7436605587345" lon="120.97392742457501"><ele>7.5</ele><time>2026-03-28T11:02:09Z</time></trkpt><trkpt lat="14.743792742880343" lon="120.97386557844801"><ele>7.75</ele><time>2026-03-28T11:02:10Z</time></trkpt><trkpt lat="14.743925560464984" lon="120.97379939082965"><ele>8.0</ele><time>2026-03-28T11:02:11Z</time></trkpt><trkpt lat="14.744055751431953" lon="120.97372570094558"><ele>8.0</ele><time>2026-03-28T11:02:12Z</time></trkpt><trkpt lat="14.744182705295849" lon="120.97365161332175"><ele>8.0</ele><time>2026-03-28T11:02:13Z</time></trkpt><trkpt lat="14.744312686056912" lon="120.97358713444153"><ele>8.0</ele><time>2026-03-28T11:02:14Z</time></trkpt><trkpt lat="14.744441254625093" lon="120.97352407052269"><ele>8.0</ele><time>2026-03-28T11:02:15Z</time></trkpt><trkpt lat="14.744571739738355" lon="120.97345278312945"><ele>8.333333333333332</ele><time>2026-03-28T11:02:16Z</time></trkpt><trkpt lat="14.744708001609318" lon="120.97338469257738"><ele>8.666666666666666</ele><time>2026-03-28T11:02:17Z</time></trkpt><trkpt lat="14.744842152104166" lon="120.9733147960259"><ele>9.0</ele><time>2026-03-28T11:02:18Z</time></trkpt><trkpt lat="14.744977764838493" lon="120.9732419364385"><ele>9.666666666666666</ele><time>2026-03-28T11:02:19Z</time></trkpt><trkpt lat="14.74511418951482" lon="120.97316971716882"><ele>10.333333333333332</ele><time>2026-03-28T11:02:20Z</time></trkpt><trkpt lat="14.745251808220688" lon="120.97309321464621"><ele>11.0</ele><time>2026-03-28T11:02:21Z</time></trkpt><trkpt lat="14.74538858885241" lon="120.97301813180322"><ele>12.0</ele><time>2026-03-28T11:02:22Z</time></trkpt><trkpt lat="14.745521961354752" lon="120.97294402034898"><ele>13.0</ele><time>2026-03-28T11:02:23Z</time></trkpt><trkpt lat="14.745656736240154" lon="120.9728697870092"><ele>14.0</ele><time>2026-03-28T11:02:24Z</time></trkpt><trkpt lat="14.745794175036645" lon="120.97279837508826"><ele>14.0</ele><time>2026-03-28T11:02:25Z</time></trkpt><trkpt lat="14.745929522087767" lon="120.97272469772743"><ele>14.0</ele><time>2026-03-28T11:02:26Z</time></trkpt><trkpt lat="14.746067557013731" lon="120.97265110106682"><ele>14.0</ele><time>2026-03-28T11:02:27Z</time></trkpt><trkpt lat="14.746200955940207" lon="120.97257908119083"><ele>14.0</ele><time>2026-03-28T11:02:28Z</time></trkpt><trkpt lat="14.746332405828147" lon="120.97250162505792"><ele>14.0</ele><time>2026-03-28T11:02:29Z</time></trkpt><trkpt lat="14.746462809797183" lon="120.97242771491909"><ele>14.0</ele><time>2026-03-28T11:02:30Z</time></trkpt><trkpt lat="14.746588411980431" lon="120.9723548393123"><ele>14.0</ele><time>2026-03-28T11:02:31Z</time></trkpt><trkpt lat="14.746714223793012" lon="120.97228156761537"><ele>14.0</ele><time>2026-03-28T11:02:32Z</time></trkpt><trkpt lat="14.746841646284171" lon="120.97221456249001"><ele>14.0</ele><time>2026-03-28T11:02:33Z</time></trkpt><trkpt lat="14.746966646083258" lon="120.97214875553021"><ele>14.0</ele><time>2026-03-28T11:02:34Z</time></trkpt><trkpt lat="14.747089885262673" lon="120.97208191104522"><ele>14.0</ele><time>2026-03-28T11:02:35Z</time></trkpt><trkpt lat="14.747212060144129" lon="120.9720189952804"><ele>14.5</ele><time>2026-03-28T11:02:36Z</time></trkpt><trkpt lat="14.747328972133984" lon="120.97195832066436"><ele>15.0</ele><time>2026-03-28T11:02:37Z</time></trkpt><trkpt lat="14.747443393833066" lon="120.97189389522461"><ele>15.5</ele><time>2026-03-28T11:02:38Z</time></trkpt><trkpt lat="14.747552880679843" lon="120.97183434670094"><ele>16.0</ele><time>2026-03-28T11:02:39Z</time></trkpt><trkpt lat="14.747660779043224" lon="120.97177379854794"><ele>16.5</ele><time>2026-03-28T11:02:40Z</time></trkpt><trkpt lat="14.74776771229483" lon="120.97171718419608"><ele>17.0</ele><time>2026-03-28T11:02:41Z</time></trkpt><trkpt lat="14.747870135950388" lon="120.97165782841958"><ele>17.5</ele><time>2026-03-28T11:02:42Z</time></trkpt><trkpt lat="14.74797158408729" lon="120.97160468088394"><ele>18.0</ele><time>2026-03-28T11:02:43Z</time></trkpt><trkpt lat="14.748078668143798" lon="120.97154562546308"><ele>18.0</ele><time>2026-03-28T11:02:44Z</time></trkpt><trkpt lat="14.748189834621078" lon="120.9714894283079"><ele>18.0</ele><time>2026-03-28T11:02:45Z</time></trkpt><trkpt lat="14.748304532423832" lon="120.97143022108452"><ele>18.0</ele><time>2026-03-28T11:02:46Z</time></trkpt><trkpt lat="14.748415170476054" lon="120.97137121639629"><ele>18.0</ele><time>2026-03-28T11:02:47Z</time></trkpt><trkpt lat="14.748521301635648" lon="120.97130816974558"><ele>18.4</ele><time>2026-03-28T11:02:48Z</time></trkpt><trkpt lat="14.748621106981945" lon="120.97124644080922"><ele>18.8</ele><time>2026-03-28T11:02:49Z</time></trkpt><trkpt lat="14.748719227340766" lon="120.9711891885915"><ele>19.2</ele><time>2026-03-28T11:02:50Z</time></trkpt><trkpt lat="14.74881562123485" lon="120.9711382332586"><ele>19.6</ele><time>2026-03-28T11:02:51Z</time></trkpt><trkpt lat="14.748913316520044" lon="120.97109376271368"><ele>20.0</ele><time>2026-03-28T11:02:52Z</time></trkpt><trkpt lat="14.749010152264086" lon="120.9710422548637"><ele>20.0</ele><time>2026-03-28T11:02:53Z</time></trkpt><trkpt lat="14.749104670282044" lon="120.97099373869231"><ele>20.0</ele><time>2026-03-28T11:02:54Z</time></trkpt><trkpt lat="14.749196798549576" lon="120.97095177489808"><ele>20.0</ele><time>2026-03-28T11:02:55Z</time></trkpt><trkpt lat="14.74928899206914" lon="120.97090110420973"><ele>20.0</ele><time>2026-03-28T11:02:56Z</time></trkpt><trkpt lat="14.749381856566078" lon="120.97084791762826"><ele>20.0</ele><time>2026-03-28T11:02:57Z</time></trkpt><trkpt lat="14.749482614323721" lon="120.97079920549095"><ele>18.75</ele><time>2026-03-28T11:02:58Z</time></trkpt><trkpt lat="14.749584601380207" lon="120.97074452995155"><ele>17.5</ele><time>2026-03-28T11:02:59Z</time></trkpt><trkpt lat="14.749686795004846" lon="120.97069114697317"><ele>16.25</ele><time>2026-03-28T11:03:00Z</time></trkpt><trkpt lat="14.749791856522522" lon="120.97063654526671"><ele>15.0</ele><time>2026-03-28T11:03:01Z</time></trkpt><trkpt lat="14.7498962427599" lon="120.9705790954194"><ele>15.0</ele><time>2026-03-28T11:03:02Z</time></trkpt><trkpt lat="14.750007019147105" lon="120.9705236718682"><ele>15.0</ele><time>2026-03-28T11:03:03Z</time></trkpt><trkpt lat="14.750117412298408" lon="120.97045943206965"><ele>15.0</ele><time>2026-03-28T11:03:04Z</time></trkpt><trkpt lat="14.750239141085078" lon="120.97039428269665"><ele>15.0</ele><time>2026-03-28T11:03:05Z</time></trkpt><trkpt lat="14.750364703447865" lon="120.97031802175938"><ele>14.0</ele><time>2026-03-28T11:03:06Z</time></trkpt><trkpt lat="14.750486099329944" lon="120.97024178646633"><ele>13.0</ele><time>2026-03-28T11:03:07Z</time></trkpt><trkpt lat="14.750622561963288" lon="120.97016235470468"><ele>12.0</ele><time>2026-03-28T11:03:08Z</time></trkpt><trkpt lat="14.750760247459509" lon="120.97008428899927"><ele>11.333333333333334</ele><time>2026-03-28T11:03:09Z</time></trkpt><trkpt lat="14.7508981413503" lon="120.97000755540839"><ele>10.666666666666668</ele><time>2026-03-28T11:03:10Z</time></trkpt><trkpt lat="14.75104388057704" lon="120.96991985068685"><ele>10.0</ele><time>2026-03-28T11:03:11Z</time></trkpt><trkpt lat="14.751183485001274" lon="120.96983992855056"><ele>10.0</ele><time>2026-03-28T11:03:12Z</time></trkpt><trkpt lat="14.751329117699463" lon="120.96975574438038"><ele>10.0</ele><time>2026-03-28T11:03:13Z</time></trkpt><trkpt lat="14.751468133574228" lon="120.96967823825116"><ele>10.0</ele><time>2026-03-28T11:03:14Z</time></trkpt><trkpt lat="14.75161426399377" lon="120.96960264323681"><ele>10.0</ele><time>2026-03-28T11:03:15Z</time></trkpt><trkpt lat="14.751756432800056" lon="120.96952705771808"><ele>10.0</ele><time>2026-03-28T11:03:16Z</time></trkpt><trkpt lat="14.751897907671797" lon="120.96945710740339"><ele>10.0</ele><time>2026-03-28T11:03:17Z</time></trkpt><trkpt lat="14.752034732648427" lon="120.96938419176028"><ele>10.333333333333334</ele><time>2026-03-28T11:03:18Z</time></trkpt><trkpt lat="14.752174067441773" lon="120.96930643111725"><ele>10.666666666666666</ele><time>2026-03-28T11:03:19Z</time></trkpt><trkpt lat="14.752309527632702" lon="120.96923082319047"><ele>11.0</ele><time>2026-03-28T11:03:20Z</time></trkpt><trkpt lat="14.752444157027947" lon="120.96915736194161"><ele>11.333333333333332</ele><time>2026-03-28T11:03:21Z</time></trkpt><trkpt lat="14.752584847348407" lon="120.96908256719614"><ele>11.666666666666666</ele><time>2026-03-28T11:03:22Z</time></trkpt><trkpt lat="14.752727390690227" lon="120.96900790935781"><ele>12.0</ele><time>2026-03-28T11:03:23Z</time></trkpt><trkpt lat="14.75286996787915" lon="120.96893402645793"><ele>11.0</ele><time>2026-03-28T11:03:24Z</time></trkpt><trkpt lat="14.753015193757069" lon="120.96885182267593"><ele>10.0</ele><time>2026-03-28T11:03:25Z</time></trkpt><trkpt lat="14.753155356839075" lon="120.96877599387054"><ele>9.0</ele><time>2026-03-28T11:03:26Z</time></trkpt><trkpt lat="14.753295255617047" lon="120.96871078617136"><ele>9.0</ele><time>2026-03-28T11:03:27Z</time></trkpt><trkpt lat="14.753436059826097" lon="120.96863635452151"><ele>9.0</ele><time>2026-03-28T11:03:28Z</time></trkpt><trkpt lat="14.753571388183659" lon="120.96855936980748"><ele>9.0</ele><time>2026-03-28T11:03:29Z</time></trkpt><trkpt lat="14.753711475742168" lon="120.96848279816595"><ele>9.0</ele><time>2026-03-28T11:03:30Z</time></trkpt><trkpt lat="14.753842935901973" lon="120.96841207410475"><ele>9.0</ele><time>2026-03-28T11:03:31Z</time></trkpt><trkpt lat="14.75397426702782" lon="120.96833684559883"><ele>9.0</ele><time>2026-03-28T11:03:32Z</time></trkpt><trkpt lat="14.754110381677252" lon="120.96826118544044"><ele>9.25</ele><time>2026-03-28T11:03:33Z</time></trkpt><trkpt lat="14.754240709310615" lon="120.96818810195307"><ele>9.5</ele><time>2026-03-28T11:03:34Z</time></trkpt><trkpt lat="14.754372748158389" lon="120.96811727418233"><ele>9.75</ele><time>2026-03-28T11:03:35Z</time></trkpt><trkpt lat="14.754502883730764" lon="120.96804505071803"><ele>10.0</ele><time>2026-03-28T11:03:36Z</time></trkpt><trkpt lat="14.7546378980279" lon="120.96797537205525"><ele>10.0</ele><time>2026-03-28T11:03:37Z</time></trkpt><trkpt lat="14.754771627556057" lon="120.967907300652"><ele>10.0</ele><time>2026-03-28T11:03:38Z</time></trkpt><trkpt lat="14.754905186685702" lon="120.9678343271279"><ele>10.0</ele><time>2026-03-28T11:03:39Z</time></trkpt><trkpt lat="14.755043022947422" lon="120.96775891093424"><ele>10.0</ele><time>2026-03-28T11:03:40Z</time></trkpt><trkpt lat="14.75518084880869" lon="120.96768603734121"><ele>10.0</ele><time>2026-03-28T11:03:41Z</time></trkpt><trkpt lat="14.7553226862863" lon="120.96760865896677"><ele>10.0</ele><time>2026-03-28T11:03:42Z</time></trkpt><trkpt lat="14.755460710449928" lon="120.96753184223894"><ele>9.666666666666668</ele><time>2026-03-28T11:03:43Z</time></trkpt><trkpt lat="14.755605133747553" lon="120.9674530999282"><ele>9.333333333333334</ele><time>2026-03-28T11:03:44Z</time></trkpt><trkpt lat="14.75574748524246" lon="120.96737487009135"><ele>9.0</ele><time>2026-03-28T11:03:45Z</time></trkpt><trkpt lat="14.755887042800797" lon="120.96729662156807"><ele>9.0</ele><time>2026-03-28T11:03:46Z</time></trkpt><trkpt lat="14.756027318700008" lon="120.96721979111632"><ele>9.0</ele><time>2026-03-28T11:03:47Z</time></trkpt><trkpt lat="14.756162262366287" lon="120.9671425614178"><ele>9.0</ele><time>2026-03-28T11:03:48Z</time></trkpt><trkpt lat="14.756294285889586" lon="120.9670673269215"><ele>10.333333333333332</ele><time>2026-03-28T11:03:49Z</time></trkpt><trkpt lat="14.75642983899182" lon="120.96699742846711"><ele>11.666666666666666</ele><time>2026-03-28T11:03:50Z</time></trkpt><trkpt lat="14.756568965269244" lon="120.96692712412514"><ele>13.0</ele><time>2026-03-28T11:03:51Z</time></trkpt><trkpt lat="14.75670303666794" lon="120.96685625033852"><ele>13.0</ele><time>2026-03-28T11:03:52Z</time></trkpt><trkpt lat="14.756841251087119" lon="120.96678626210411"><ele>13.0</ele><time>2026-03-28T11:03:53Z</time></trkpt><trkpt lat="14.756981245160253" lon="120.96671164012551"><ele>13.0</ele><time>2026-03-28T11:03:54Z</time></trkpt><trkpt lat="14.75712267762059" lon="120.9666373359159"><ele>12.333333333333332</ele><time>2026-03-28T11:03:55Z</time></trkpt><trkpt lat="14.757262804770619" lon="120.9665615294403"><ele>11.666666666666666</ele><time>2026-03-28T11:03:56Z</time></trkpt><trkpt lat="14.757407377516504" lon="120.96648418898891"><ele>11.0</ele><time>2026-03-28T11:03:57Z</time></trkpt><trkpt lat="14.757550414954727" lon="120.96640631464997"><ele>11.0</ele><time>2026-03-28T11:03:58Z</time></trkpt><trkpt lat="14.757694466985324" lon="120.96632822431344"><ele>11.0</ele><time>2026-03-28T11:03:59Z</time></trkpt><trkpt lat="14.757839391592906" lon="120.96624920416234"><ele>11.0</ele><time>2026-03-28T11:04:00Z</time></trkpt><trkpt lat="14.757988540888618" lon="120.96617486259458"><ele>11.0</ele><time>2026-03-28T11:04:01Z</time></trkpt><trkpt lat="14.75813270946953" lon="120.96609226785064"><ele>11.0</ele><time>2026-03-28T11:04:02Z</time></trkpt><trkpt lat="14.758281102820153" lon="120.96600901579703"><ele>11.0</ele><time>2026-03-28T11:04:03Z</time></trkpt><trkpt lat="14.758428177888764" lon="120.96592837146592"><ele>11.666666666666666</ele><time>2026-03-28T11:04:04Z</time></trkpt><trkpt lat="14.758576127706595" lon="120.96584711398174"><ele>12.333333333333332</ele><time>2026-03-28T11:04:05Z</time></trkpt><trkpt lat="14.758723253754349" lon="120.96576979313438"><ele>13.0</ele><time>2026-03-28T11:04:06Z</time></trkpt><trkpt lat="14.758869190387747" lon="120.96569269231566"><ele>13.0</ele><time>2026-03-28T11:04:07Z</time></trkpt><trkpt lat="14.759013239489656" lon="120.96561824896092"><ele>13.0</ele><time>2026-03-28T11:04:08Z</time></trkpt><trkpt lat="14.759156789806715" lon="120.96554079812725"><ele>13.0</ele><time>2026-03-28T11:04:09Z</time></trkpt><trkpt lat="14.759303692054358" lon="120.96546377174333"><ele>13.0</ele><time>2026-03-28T11:04:10Z</time></trkpt><trkpt lat="14.759451855149976" lon="120.9653895507744"><ele>13.0</ele><time>2026-03-28T11:04:11Z</time></trkpt><trkpt lat="14.759604109598305" lon="120.96531457551178"><ele>13.0</ele><time>2026-03-28T11:04:12Z</time></trkpt><trkpt lat="14.759755585384152" lon="120.96523556551995"><ele>13.0</ele><time>2026-03-28T11:04:13Z</time></trkpt><trkpt lat="14.75991160999034" lon="120.96515634873124"><ele>13.0</ele><time>2026-03-28T11:04:14Z</time></trkpt><trkpt lat="14.760064509995042" lon="120.96507580019292"><ele>13.0</ele><time>2026-03-28T11:04:15Z</time></trkpt><trkpt lat="14.760223988684874" lon="120.96499236631881"><ele>15.0</ele><time>2026-03-28T11:04:16Z</time></trkpt><trkpt lat="14.760384445621403" lon="120.96490596828843"><ele>17.0</ele><time>2026-03-28T11:04:17Z</time></trkpt><trkpt lat="14.760546548224221" lon="120.9648219802862"><ele>19.0</ele><time>2026-03-28T11:04:18Z</time></trkpt><trkpt lat="14.760710694266365" lon="120.96473632168014"><ele>19.0</ele><time>2026-03-28T11:04:19Z</time></trkpt><trkpt lat="14.760870358216383" lon="120.9646495429017"><ele>19.0</ele><time>2026-03-28T11:04:20Z</time></trkpt><trkpt lat="14.761032372541209" lon="120.96456585289054"><ele>19.0</ele><time>2026-03-28T11:04:21Z</time></trkpt><trkpt lat="14.761199896061061" lon="120.96447683743123"><ele>18.666666666666664</ele><time>2026-03-28T11:04:22Z</time></trkpt><trkpt lat="14.76135893203848" lon="120.96438904679151"><ele>18.333333333333332</ele><time>2026-03-28T11:04:23Z</time></trkpt><trkpt lat="14.761518892912834" lon="120.9643025359864"><ele>18.0</ele><time>2026-03-28T11:04:24Z</time></trkpt><trkpt lat="14.761674693236644" lon="120.96422019138953"><ele>17.666666666666668</ele><time>2026-03-28T11:04:25Z</time></trkpt><trkpt lat="14.761825753747583" lon="120.96414588101177"><ele>17.333333333333336</ele><time>2026-03-28T11:04:26Z</time></trkpt><trkpt lat="14.761969631241765" lon="120.96407536753576"><ele>17.0</ele><time>2026-03-28T11:04:27Z</time></trkpt><trkpt lat="14.762104305206968" lon="120.9640108409024"><ele>16.25</ele><time>2026-03-28T11:04:28Z</time></trkpt><trkpt lat="14.762231092570428" lon="120.96394564148073"><ele>15.5</ele><time>2026-03-28T11:04:29Z</time></trkpt><trkpt lat="14.76234511635078" lon="120.9638926416065"><ele>14.75</ele><time>2026-03-28T11:04:30Z</time></trkpt><trkpt lat="14.762449422447087" lon="120.96383882650036"><ele>14.0</ele><time>2026-03-28T11:04:31Z</time></trkpt><trkpt lat="14.762548909803344" lon="120.96378986097051"><ele>14.000000000000002</ele><time>2026-03-28T11:04:32Z</time></trkpt><trkpt lat="14.762640341610634" lon="120.96374960375682"><ele>14.0</ele><time>2026-03-28T11:04:33Z</time></trkpt><trkpt lat="14.762718290022235" lon="120.96371518360795"><ele>14.0</ele><time>2026-03-28T11:04:34Z</time></trkpt><trkpt lat="14.762783075052733" lon="120.96368803814288"><ele>14.0</ele><time>2026-03-28T11:04:35Z</time></trkpt><trkpt lat="14.762884744464126" lon="120.96365055205523"><ele>14.000000000000002</ele><time>2026-03-28T11:04:37Z</time></trkpt><trkpt lat="14.762963270819553" lon="120.96363387745346"><ele>14.0</ele><time>2026-03-28T11:04:39Z</time></trkpt><trkpt lat="14.76304052624195" lon="120.963633816873"><ele>14.333333333333334</ele><time>2026-03-28T11:04:42Z</time></trkpt><trkpt lat="14.76308146776836" lon="120.96368483647402"><ele>14.666666666666668</ele><time>2026-03-28T11:04:44Z</time></trkpt><trkpt lat="14.763113176082346" lon="120.96374410553258"><ele>15.0</ele><time>2026-03-28T11:04:46Z</time></trkpt><trkpt lat="14.763140966504816" lon="120.96383191589459"><ele>15.333333333333332</ele><time>2026-03-28T11:04:49Z</time></trkpt><trkpt lat="14.763242537120362" lon="120.96388432501104"><ele>15.666666666666666</ele><time>2026-03-28T11:04:52Z</time></trkpt><trkpt lat="14.763295448382534" lon="120.96383852271715"><ele>16.0</ele><time>2026-03-28T11:04:54Z</time></trkpt><trkpt lat="14.763351970657117" lon="120.96380240397129"><ele>16.0</ele><time>2026-03-28T11:05:00Z</time></trkpt><trkpt lat="14.763458703377257" lon="120.96388409823643"><ele>16.0</ele><time>2026-03-28T11:05:02Z</time></trkpt><trkpt lat="14.763435616973185" lon="120.9637370436112"><ele>16.0</ele><time>2026-03-28T11:11:50Z</time></trkpt><trkpt lat="14.763460499615249" lon="120.96380925303365"><ele>16.0</ele><time>2026-03-28T11:12:33Z</time></trkpt><trkpt lat="14.763532093916195" lon="120.96382668507039"><ele>16.0</ele><time>2026-03-28T11:12:37Z</time></trkpt><trkpt lat="14.763613326972939" lon="120.9637992436597"><ele>15.999999999999998</ele><time>2026-03-28T11:12:40Z</time></trkpt><trkpt lat="14.763674605686166" lon="120.96376884884832"><ele>16.0</ele><time>2026-03-28T11:12:42Z</time></trkpt><trkpt lat="14.763736285854504" lon="120.96374519569778"><ele>16.0</ele><time>2026-03-28T11:12:44Z</time></trkpt><trkpt lat="14.763806183960458" lon="120.9636957530795"><ele>16.0</ele><time>2026-03-28T11:12:47Z</time></trkpt><trkpt lat="14.763835750990198" lon="120.96359753562605"><ele>15.999999999999998</ele><time>2026-03-28T11:12:50Z</time></trkpt><trkpt lat="14.76387610042206" lon="120.96351854265275"><ele>16.0</ele><time>2026-03-28T11:12:53Z</time></trkpt><trkpt lat="14.763856500203076" lon="120.96343423929625"><ele>16.0</ele><time>2026-03-28T11:12:57Z</time></trkpt><trkpt lat="14.763856015683205" lon="120.96335690377514"><ele>16.0</ele><time>2026-03-28T11:13:00Z</time></trkpt><trkpt lat="14.7638554299508" lon="120.96327860265541"><ele>16.0</ele><time>2026-03-28T11:13:04Z</time></trkpt><trkpt lat="14.763941617370604" lon="120.96322926665734"><ele>16.0</ele><time>2026-03-28T11:13:07Z</time></trkpt><trkpt lat="14.764045016977585" lon="120.96317566436124"><ele>16.0</ele><time>2026-03-28T11:13:09Z</time></trkpt><trkpt lat="14.764139116371535" lon="120.96312556182194"><ele>16.0</ele><time>2026-03-28T11:13:11Z</time></trkpt><trkpt lat="14.764230183947424" lon="120.96307707354673"><ele>16.0</ele><time>2026-03-28T11:13:13Z</time></trkpt><trkpt lat="14.764322130880029" lon="120.96302825344259"><ele>16.0</ele><time>2026-03-28T11:13:15Z</time></trkpt><trkpt lat="14.764433496343209" lon="120.96296918515921"><ele>16.0</ele><time>2026-03-28T11:13:17Z</time></trkpt><trkpt lat="14.764551051014344" lon="120.96290465055927"><ele>15.0</ele><time>2026-03-28T11:13:19Z</time></trkpt><trkpt lat="14.76465404998309" lon="120.96285201165435"><ele>14.000000000000002</ele><time>2026-03-28T11:13:21Z</time></trkpt><trkpt lat="14.764752526182422" lon="120.96280055883499"><ele>13.0</ele><time>2026-03-28T11:13:23Z</time></trkpt><trkpt lat="14.764838011317286" lon="120.96275564730577"><ele>12.0</ele><time>2026-03-28T11:13:25Z</time></trkpt><trkpt lat="14.76491128983917" lon="120.96270791425945"><ele>11.0</ele><time>2026-03-28T11:13:27Z</time></trkpt><trkpt lat="14.76499708986389" lon="120.96265705273692"><ele>11.0</ele><time>2026-03-28T11:13:29Z</time></trkpt><trkpt lat="14.765110900519732" lon="120.96261381990426"><ele>11.0</ele><time>2026-03-28T11:13:31Z</time></trkpt><trkpt lat="14.765168732468878" lon="120.96258194001125"><ele>11.0</ele><time>2026-03-28T11:13:32Z</time></trkpt><trkpt lat="14.765229589407602" lon="120.96254818507353"><ele>11.0</ele><time>2026-03-28T11:13:33Z</time></trkpt><trkpt lat="14.76529265420212" lon="120.96251297215075"><ele>11.0</ele><time>2026-03-28T11:13:34Z</time></trkpt><trkpt lat="14.765360520020266" lon="120.96247920739575"><ele>11.0</ele><time>2026-03-28T11:13:35Z</time></trkpt><trkpt lat="14.765435432936382" lon="120.9624418947602"><ele>11.0</ele><time>2026-03-28T11:13:36Z</time></trkpt><trkpt lat="14.765505024474498" lon="120.9624090593557"><ele>11.0</ele><time>2026-03-28T11:13:37Z</time></trkpt><trkpt lat="14.765571531510616" lon="120.96237234575855"><ele>11.0</ele><time>2026-03-28T11:13:38Z</time></trkpt><trkpt lat="14.765638909629356" lon="120.96233583229389"><ele>11.0</ele><time>2026-03-28T11:13:39Z</time></trkpt><trkpt lat="14.765703692638782" lon="120.9623002854418"><ele>11.0</ele><time>2026-03-28T11:13:40Z</time></trkpt><trkpt lat="14.765764071494557" lon="120.96226426369728"><ele>11.0</ele><time>2026-03-28T11:13:41Z</time></trkpt><trkpt lat="14.765825167902273" lon="120.96222673372779"><ele>11.0</ele><time>2026-03-28T11:13:42Z</time></trkpt><trkpt lat="14.765880926591308" lon="120.96219529570676"><ele>11.0</ele><time>2026-03-28T11:13:43Z</time></trkpt><trkpt lat="14.765986050939084" lon="120.96213164401573"><ele>11.0</ele><time>2026-03-28T11:13:45Z</time></trkpt><trkpt lat="14.766035142162817" lon="120.96208991255602"><ele>11.0</ele><time>2026-03-28T11:13:46Z</time></trkpt><trkpt lat="14.766112556600067" lon="120.96198390219875"><ele>11.0</ele><time>2026-03-28T11:13:48Z</time></trkpt><trkpt lat="14.76615138640611" lon="120.96192879580475"><ele>11.0</ele><time>2026-03-28T11:13:49Z</time></trkpt><trkpt lat="14.766199266118962" lon="120.96186656974905"><ele>10.833333333333332</ele><time>2026-03-28T11:13:50Z</time></trkpt><trkpt lat="14.766254025945255" lon="120.96181005051686"><ele>10.666666666666666</ele><time>2026-03-28T11:13:51Z</time></trkpt><trkpt lat="14.766319842530741" lon="120.96176116979353"><ele>10.5</ele><time>2026-03-28T11:13:52Z</time></trkpt><trkpt lat="14.766396940027589" lon="120.96171395147111"><ele>10.333333333333334</ele><time>2026-03-28T11:13:53Z</time></trkpt><trkpt lat="14.766469517989247" lon="120.96164859663392"><ele>10.166666666666668</ele><time>2026-03-28T11:13:54Z</time></trkpt><trkpt lat="14.766555224281124" lon="120.96160538398502"><ele>10.0</ele><time>2026-03-28T11:13:55Z</time></trkpt><trkpt lat="14.766645873719582" lon="120.96155743304824"><ele>10.0</ele><time>2026-03-28T11:13:56Z</time></trkpt><trkpt lat="14.766747466303405" lon="120.9615073254163"><ele>10.0</ele><time>2026-03-28T11:13:57Z</time></trkpt><trkpt lat="14.76684347213956" lon="120.96145279008657"><ele>10.0</ele><time>2026-03-28T11:13:58Z</time></trkpt><trkpt lat="14.76693499378247" lon="120.96139074271848"><ele>10.0</ele><time>2026-03-28T11:13:59Z</time></trkpt><trkpt lat="14.767045584732182" lon="120.96133000108858"><ele>10.5</ele><time>2026-03-28T11:14:00Z</time></trkpt><trkpt lat="14.767152775019285" lon="120.96127030091759"><ele>11.0</ele><time>2026-03-28T11:14:01Z</time></trkpt><trkpt lat="14.767264932568121" lon="120.96120420834853"><ele>11.5</ele><time>2026-03-28T11:14:02Z</time></trkpt><trkpt lat="14.767377021259932" lon="120.96114197240975"><ele>12.0</ele><time>2026-03-28T11:14:03Z</time></trkpt><trkpt lat="14.767489277463316" lon="120.96108024843552"><ele>12.0</ele><time>2026-03-28T11:14:04Z</time></trkpt><trkpt lat="14.767603714498131" lon="120.96101736269807"><ele>12.0</ele><time>2026-03-28T11:14:05Z</time></trkpt><trkpt lat="14.767718955041058" lon="120.96095365140494"><ele>12.0</ele><time>2026-03-28T11:14:06Z</time></trkpt><trkpt lat="14.767833540830704" lon="120.96089079875638"><ele>12.0</ele><time>2026-03-28T11:14:07Z</time></trkpt><trkpt lat="14.767943657100131" lon="120.96082791312999"><ele>11.5</ele><time>2026-03-28T11:14:08Z</time></trkpt><trkpt lat="14.76806792702395" lon="120.96076047226997"><ele>11.0</ele><time>2026-03-28T11:14:09Z</time></trkpt><trkpt lat="14.76818784433809" lon="120.96069080017696"><ele>10.5</ele><time>2026-03-28T11:14:10Z</time></trkpt><trkpt lat="14.768311013099545" lon="120.96061701755995"><ele>10.0</ele><time>2026-03-28T11:14:11Z</time></trkpt><trkpt lat="14.768440021530637" lon="120.9605430875252"><ele>10.0</ele><time>2026-03-28T11:14:12Z</time></trkpt><trkpt lat="14.76857301901134" lon="120.96047112659326"><ele>10.0</ele><time>2026-03-28T11:14:13Z</time></trkpt><trkpt lat="14.76870687871815" lon="120.96039787564649"><ele>10.0</ele><time>2026-03-28T11:14:14Z</time></trkpt><trkpt lat="14.768842082711423" lon="120.96032370055443"><ele>10.0</ele><time>2026-03-28T11:14:15Z</time></trkpt><trkpt lat="14.768979051388717" lon="120.9602486911285"><ele>10.0</ele><time>2026-03-28T11:14:16Z</time></trkpt><trkpt lat="14.769118785751761" lon="120.96017142310458"><ele>10.0</ele><time>2026-03-28T11:14:17Z</time></trkpt><trkpt lat="14.769259603126821" lon="120.96009337103546"><ele>9.666666666666668</ele><time>2026-03-28T11:14:18Z</time></trkpt><trkpt lat="14.769402129337847" lon="120.96001432989546"><ele>9.333333333333334</ele><time>2026-03-28T11:14:19Z</time></trkpt><trkpt lat="14.769544421759006" lon="120.95993714917533"><ele>9.0</ele><time>2026-03-28T11:14:20Z</time></trkpt><trkpt lat="14.769690003922705" lon="120.95986310839537"><ele>9.0</ele><time>2026-03-28T11:14:21Z</time></trkpt><trkpt lat="14.769846030518917" lon="120.95978539634162"><ele>9.0</ele><time>2026-03-28T11:14:22Z</time></trkpt><trkpt lat="14.769987516850287" lon="120.95970952810534"><ele>9.0</ele><time>2026-03-28T11:14:23Z</time></trkpt><trkpt lat="14.770137899966771" lon="120.95962780397716"><ele>9.333333333333334</ele><time>2026-03-28T11:14:24Z</time></trkpt><trkpt lat="14.770285974204212" lon="120.95954205599266"><ele>9.666666666666668</ele><time>2026-03-28T11:14:25Z</time></trkpt><trkpt lat="14.770431005335887" lon="120.95946162258929"><ele>10.0</ele><time>2026-03-28T11:14:26Z</time></trkpt><trkpt lat="14.770575981957789" lon="120.95938018953608"><ele>10.0</ele><time>2026-03-28T11:14:27Z</time></trkpt><trkpt lat="14.770722812730604" lon="120.95930097557992"><ele>10.0</ele><time>2026-03-28T11:14:28Z</time></trkpt><trkpt lat="14.77086419387836" lon="120.95922136594228"><ele>10.0</ele><time>2026-03-28T11:14:29Z</time></trkpt><trkpt lat="14.771006527108412" lon="120.9591414214299"><ele>10.333333333333334</ele><time>2026-03-28T11:14:30Z</time></trkpt><trkpt lat="14.771147600261832" lon="120.95907036370627"><ele>10.666666666666666</ele><time>2026-03-28T11:14:31Z</time></trkpt><trkpt lat="14.771288192445681" lon="120.95899406577058"><ele>11.0</ele><time>2026-03-28T11:14:32Z</time></trkpt><trkpt lat="14.77142509284595" lon="120.9589212333458"><ele>11.0</ele><time>2026-03-28T11:14:33Z</time></trkpt><trkpt lat="14.771561314773994" lon="120.9588462521618"><ele>11.0</ele><time>2026-03-28T11:14:34Z</time></trkpt><trkpt lat="14.771700274632886" lon="120.95877359302494"><ele>11.0</ele><time>2026-03-28T11:14:35Z</time></trkpt><trkpt lat="14.77183333552629" lon="120.9586977952806"><ele>11.0</ele><time>2026-03-28T11:14:36Z</time></trkpt><trkpt lat="14.771961737902219" lon="120.95862429168787"><ele>11.0</ele><time>2026-03-28T11:14:37Z</time></trkpt><trkpt lat="14.772093892729787" lon="120.95855322050446"><ele>11.0</ele><time>2026-03-28T11:14:38Z</time></trkpt><trkpt lat="14.77222211139762" lon="120.95848650804521"><ele>11.0</ele><time>2026-03-28T11:14:39Z</time></trkpt><trkpt lat="14.772348583740257" lon="120.95842282838369"><ele>11.0</ele><time>2026-03-28T11:14:40Z</time></trkpt><trkpt lat="14.772470741307194" lon="120.95835625003299"><ele>11.0</ele><time>2026-03-28T11:14:41Z</time></trkpt><trkpt lat="14.772593636637868" lon="120.9582895625492"><ele>11.0</ele><time>2026-03-28T11:14:42Z</time></trkpt><trkpt lat="14.772711380062164" lon="120.95822183322655"><ele>11.0</ele><time>2026-03-28T11:14:43Z</time></trkpt><trkpt lat="14.772837493271643" lon="120.95815569760909"><ele>10.75</ele><time>2026-03-28T11:14:44Z</time></trkpt><trkpt lat="14.772961088500974" lon="120.9580892848343"><ele>10.5</ele><time>2026-03-28T11:14:45Z</time></trkpt><trkpt lat="14.77308976696667" lon="120.95801684337613"><ele>10.25</ele><time>2026-03-28T11:14:46Z</time></trkpt><trkpt lat="14.773214683905087" lon="120.95794763989568"><ele>10.0</ele><time>2026-03-28T11:14:47Z</time></trkpt><trkpt lat="14.77333857657114" lon="120.95787444029665"><ele>10.0</ele><time>2026-03-28T11:14:48Z</time></trkpt><trkpt lat="14.773469787607944" lon="120.95780249566432"><ele>10.0</ele><time>2026-03-28T11:14:49Z</time></trkpt><trkpt lat="14.773604351104277" lon="120.95772884898345"><ele>10.0</ele><time>2026-03-28T11:14:50Z</time></trkpt><trkpt lat="14.773743265763178" lon="120.95765736839056"><ele>10.333333333333334</ele><time>2026-03-28T11:14:51Z</time></trkpt><trkpt lat="14.773883705683037" lon="120.9575830908862"><ele>10.666666666666666</ele><time>2026-03-28T11:14:52Z</time></trkpt><trkpt lat="14.77402654608326" lon="120.957506895282"><ele>11.0</ele><time>2026-03-28T11:14:53Z</time></trkpt><trkpt lat="14.7741693805164" lon="120.95743143253387"><ele>11.333333333333332</ele><time>2026-03-28T11:14:54Z</time></trkpt><trkpt lat="14.774309855390866" lon="120.95735663098705"><ele>11.666666666666666</ele><time>2026-03-28T11:14:55Z</time></trkpt><trkpt lat="14.774459607981067" lon="120.95728122655144"><ele>12.0</ele><time>2026-03-28T11:14:56Z</time></trkpt><trkpt lat="14.774607480131975" lon="120.95720394753249"><ele>12.0</ele><time>2026-03-28T11:14:57Z</time></trkpt><trkpt lat="14.774754458996766" lon="120.9571259863611"><ele>12.0</ele><time>2026-03-28T11:14:58Z</time></trkpt><trkpt lat="14.77490233481629" lon="120.95704952237735"><ele>12.0</ele><time>2026-03-28T11:14:59Z</time></trkpt><trkpt lat="14.77505230893725" lon="120.95696776154621"><ele>11.333333333333334</ele><time>2026-03-28T11:15:00Z</time></trkpt><trkpt lat="14.775199993972965" lon="120.95688900471514"><ele>10.666666666666668</ele><time>2026-03-28T11:15:01Z</time></trkpt><trkpt lat="14.775347964632607" lon="120.95680979576593"><ele>10.0</ele><time>2026-03-28T11:15:02Z</time></trkpt><trkpt lat="14.77549630533663" lon="120.95672935965453"><ele>10.0</ele><time>2026-03-28T11:15:03Z</time></trkpt><trkpt lat="14.775646713052982" lon="120.95664493434649"><ele>10.0</ele><time>2026-03-28T11:15:04Z</time></trkpt><trkpt lat="14.77580208796984" lon="120.95656475411957"><ele>10.0</ele><time>2026-03-28T11:15:05Z</time></trkpt><trkpt lat="14.775959293221895" lon="120.95647986324728"><ele>9.0</ele><time>2026-03-28T11:15:06Z</time></trkpt><trkpt lat="14.776116003722198" lon="120.95639425288934"><ele>8.0</ele><time>2026-03-28T11:15:07Z</time></trkpt><trkpt lat="14.776272851597302" lon="120.9563100708182"><ele>7.0</ele><time>2026-03-28T11:15:08Z</time></trkpt><trkpt lat="14.776425665478335" lon="120.95622749658997"><ele>7.0</ele><time>2026-03-28T11:15:09Z</time></trkpt><trkpt lat="14.776585773598086" lon="120.95614358441102"><ele>7.0</ele><time>2026-03-28T11:15:10Z</time></trkpt><trkpt lat="14.776735824117134" lon="120.95606224924441"><ele>7.0</ele><time>2026-03-28T11:15:11Z</time></trkpt><trkpt lat="14.77688580640079" lon="120.95598026469055"><ele>7.666666666666667</ele><time>2026-03-28T11:15:12Z</time></trkpt><trkpt lat="14.777030447630969" lon="120.95590355908885"><ele>8.333333333333334</ele><time>2026-03-28T11:15:13Z</time></trkpt><trkpt lat="14.77717696415834" lon="120.95582557445414"><ele>9.0</ele><time>2026-03-28T11:15:14Z</time></trkpt><trkpt lat="14.777328538902776" lon="120.95574480320343"><ele>9.0</ele><time>2026-03-28T11:15:15Z</time></trkpt><trkpt lat="14.77747435157361" lon="120.95566351451536"><ele>9.0</ele><time>2026-03-28T11:15:16Z</time></trkpt><trkpt lat="14.777626705131926" lon="120.95558192742884"><ele>9.0</ele><time>2026-03-28T11:15:17Z</time></trkpt><trkpt lat="14.777781136012676" lon="120.95550029818412"><ele>9.0</ele><time>2026-03-28T11:15:18Z</time></trkpt><trkpt lat="14.777934063106969" lon="120.95541811358301"><ele>9.0</ele><time>2026-03-28T11:15:19Z</time></trkpt><trkpt lat="14.778092102469033" lon="120.9553372379009"><ele>9.0</ele><time>2026-03-28T11:15:20Z</time></trkpt><trkpt lat="14.778251497802804" lon="120.95525629445548"><ele>9.0</ele><time>2026-03-28T11:15:21Z</time></trkpt><trkpt lat="14.778413780550945" lon="120.95517182768997"><ele>9.0</ele><time>2026-03-28T11:15:22Z</time></trkpt><trkpt lat="14.778578181100196" lon="120.95508765648628"><ele>9.0</ele><time>2026-03-28T11:15:23Z</time></trkpt><trkpt lat="14.778742205068404" lon="120.95500297213964"><ele>9.0</ele><time>2026-03-28T11:15:24Z</time></trkpt><trkpt lat="14.778910880458659" lon="120.95491303937862"><ele>9.0</ele><time>2026-03-28T11:15:25Z</time></trkpt><trkpt lat="14.77907559012866" lon="120.95482239545197"><ele>9.0</ele><time>2026-03-28T11:15:26Z</time></trkpt><trkpt lat="14.77924231994859" lon="120.95473325524205"><ele>8.666666666666666</ele><time>2026-03-28T11:15:27Z</time></trkpt><trkpt lat="14.779409468927128" lon="120.95464603889134"><ele>8.333333333333332</ele><time>2026-03-28T11:15:28Z</time></trkpt><trkpt lat="14.779571643646642" lon="120.95455716702853"><ele>8.0</ele><time>2026-03-28T11:15:29Z</time></trkpt><trkpt lat="14.77973279621925" lon="120.95447063628276"><ele>8.0</ele><time>2026-03-28T11:15:30Z</time></trkpt><trkpt lat="14.7798938523222" lon="120.9543840072912"><ele>8.0</ele><time>2026-03-28T11:15:31Z</time></trkpt><trkpt lat="14.780052312577352" lon="120.95429800235515"><ele>8.0</ele><time>2026-03-28T11:15:32Z</time></trkpt><trkpt lat="14.780210948896865" lon="120.95420807134867"><ele>9.0</ele><time>2026-03-28T11:15:33Z</time></trkpt><trkpt lat="14.780367377342602" lon="120.95412168111064"><ele>10.0</ele><time>2026-03-28T11:15:34Z</time></trkpt><trkpt lat="14.780525020718857" lon="120.95403675900374"><ele>11.0</ele><time>2026-03-28T11:15:35Z</time></trkpt><trkpt lat="14.780683158992755" lon="120.9539536582642"><ele>11.0</ele><time>2026-03-28T11:15:36Z</time></trkpt><trkpt lat="14.780845968017811" lon="120.95386849114655"><ele>11.0</ele><time>2026-03-28T11:15:37Z</time></trkpt><trkpt lat="14.781011249346946" lon="120.95377881974063"><ele>11.0</ele><time>2026-03-28T11:15:38Z</time></trkpt><trkpt lat="14.781173262796127" lon="120.9536956162921"><ele>12.0</ele><time>2026-03-28T11:15:39Z</time></trkpt><trkpt lat="14.781342038423118" lon="120.95360808303946"><ele>13.0</ele><time>2026-03-28T11:15:40Z</time></trkpt><trkpt lat="14.78151738255851" lon="120.95351648243106"><ele>14.0</ele><time>2026-03-28T11:15:41Z</time></trkpt><trkpt lat="14.781688615293106" lon="120.95342172092263"><ele>14.666666666666668</ele><time>2026-03-28T11:15:42Z</time></trkpt><trkpt lat="14.781856309227303" lon="120.95333113000088"><ele>15.333333333333332</ele><time>2026-03-28T11:15:43Z</time></trkpt><trkpt lat="14.782024639079841" lon="120.9532363000047"><ele>16.0</ele><time>2026-03-28T11:15:44Z</time></trkpt><trkpt lat="14.782191281412288" lon="120.95314742877692"><ele>16.0</ele><time>2026-03-28T11:15:45Z</time></trkpt><trkpt lat="14.782357183012314" lon="120.95305699168398"><ele>16.0</ele><time>2026-03-28T11:15:46Z</time></trkpt><trkpt lat="14.782523453751482" lon="120.9529650945617"><ele>16.0</ele><time>2026-03-28T11:15:47Z</time></trkpt><trkpt lat="14.782681780220877" lon="120.95287509101766"><ele>16.0</ele><time>2026-03-28T11:15:48Z</time></trkpt><trkpt lat="14.782838415845955" lon="120.9527867273864"><ele>16.0</ele><time>2026-03-28T11:15:49Z</time></trkpt><trkpt lat="14.782992110586889" lon="120.95269873511704"><ele>16.0</ele><time>2026-03-28T11:15:50Z</time></trkpt><trkpt lat="14.783143041657269" lon="120.95261486219835"><ele>15.666666666666666</ele><time>2026-03-28T11:15:51Z</time></trkpt><trkpt lat="14.783293834778899" lon="120.9525334246114"><ele>15.333333333333332</ele><time>2026-03-28T11:15:52Z</time></trkpt><trkpt lat="14.78344275500797" lon="120.95245459364844"><ele>15.0</ele><time>2026-03-28T11:15:53Z</time></trkpt><trkpt lat="14.783591230849003" lon="120.95237641077186"><ele>14.666666666666668</ele><time>2026-03-28T11:15:54Z</time></trkpt><trkpt lat="14.783737061125782" lon="120.95229728675325"><ele>14.333333333333334</ele><time>2026-03-28T11:15:55Z</time></trkpt><trkpt lat="14.78387933359596" lon="120.95221740953639"><ele>14.0</ele><time>2026-03-28T11:15:56Z</time></trkpt><trkpt lat="14.784027502522331" lon="120.95213858090464"><ele>14.0</ele><time>2026-03-28T11:15:57Z</time></trkpt><trkpt lat="14.784174799924788" lon="120.95206201490964"><ele>14.0</ele><time>2026-03-28T11:15:58Z</time></trkpt><trkpt lat="14.784322628008514" lon="120.95198024130383"><ele>14.0</ele><time>2026-03-28T11:15:59Z</time></trkpt><trkpt lat="14.784471574715427" lon="120.95189468143627"><ele>14.0</ele><time>2026-03-28T11:16:00Z</time></trkpt><trkpt lat="14.784620171435627" lon="120.95180811399251"><ele>14.0</ele><time>2026-03-28T11:16:01Z</time></trkpt><trkpt lat="14.784771013773891" lon="120.95172176963588"><ele>14.0</ele><time>2026-03-28T11:16:02Z</time></trkpt><trkpt lat="14.78492768455512" lon="120.95163095932256"><ele>14.0</ele><time>2026-03-28T11:16:03Z</time></trkpt><trkpt lat="14.785087878769797" lon="120.95154555960438"><ele>14.0</ele><time>2026-03-28T11:16:04Z</time></trkpt><trkpt lat="14.785251011775692" lon="120.9514559130953"><ele>14.0</ele><time>2026-03-28T11:16:05Z</time></trkpt><trkpt lat="14.785413321420126" lon="120.95136374192201"><ele>14.666666666666668</ele><time>2026-03-28T11:16:06Z</time></trkpt><trkpt lat="14.78558516592147" lon="120.95127121845466"><ele>15.333333333333332</ele><time>2026-03-28T11:16:07Z</time></trkpt><trkpt lat="14.785758159231806" lon="120.95117807233724"><ele>16.0</ele><time>2026-03-28T11:16:08Z</time></trkpt><trkpt lat="14.785933854828693" lon="120.9510836077976"><ele>16.0</ele><time>2026-03-28T11:16:09Z</time></trkpt><trkpt lat="14.78611626073691" lon="120.95098701971541"><ele>16.0</ele><time>2026-03-28T11:16:10Z</time></trkpt><trkpt lat="14.786287613603346" lon="120.95089551557831"><ele>16.0</ele><time>2026-03-28T11:16:11Z</time></trkpt><trkpt lat="14.78645439715333" lon="120.95080725110847"><ele>15.666666666666666</ele><time>2026-03-28T11:16:12Z</time></trkpt><trkpt lat="14.786620630270896" lon="120.95071520200256"><ele>15.333333333333332</ele><time>2026-03-28T11:16:13Z</time></trkpt><trkpt lat="14.786782008644932" lon="120.9506288077615"><ele>15.0</ele><time>2026-03-28T11:16:14Z</time></trkpt><trkpt lat="14.786941598171893" lon="120.95054187395397"><ele>14.666666666666668</ele><time>2026-03-28T11:16:15Z</time></trkpt><trkpt lat="14.787101009188001" lon="120.95045778275895"><ele>14.333333333333334</ele><time>2026-03-28T11:16:16Z</time></trkpt><trkpt lat="14.787258479639544" lon="120.95037497164783"><ele>14.0</ele><time>2026-03-28T11:16:17Z</time></trkpt><trkpt lat="14.787415711277587" lon="120.95028699105137"><ele>14.0</ele><time>2026-03-28T11:16:18Z</time></trkpt><trkpt lat="14.787572606250265" lon="120.95020041537373"><ele>14.0</ele><time>2026-03-28T11:16:19Z</time></trkpt><trkpt lat="14.787732680513532" lon="120.95011133370015"><ele>14.0</ele><time>2026-03-28T11:16:20Z</time></trkpt><trkpt lat="14.787897150693365" lon="120.95002413623621"><ele>14.333333333333334</ele><time>2026-03-28T11:16:21Z</time></trkpt><trkpt lat="14.788064932915677" lon="120.94993314824889"><ele>14.666666666666668</ele><time>2026-03-28T11:16:22Z</time></trkpt><trkpt lat="14.78823426651965" lon="120.9498396069595"><ele>15.0</ele><time>2026-03-28T11:16:23Z</time></trkpt><trkpt lat="14.788406829062728" lon="120.94974620183056"><ele>13.666666666666666</ele><time>2026-03-28T11:16:24Z</time></trkpt><trkpt lat="14.788580613416148" lon="120.94965321227208"><ele>12.333333333333332</ele><time>2026-03-28T11:16:25Z</time></trkpt><trkpt lat="14.788751388116323" lon="120.9495606236444"><ele>11.0</ele><time>2026-03-28T11:16:26Z</time></trkpt><trkpt lat="14.788924254800426" lon="120.949468312145"><ele>11.0</ele><time>2026-03-28T11:16:27Z</time></trkpt><trkpt lat="14.789102812380074" lon="120.94937546023255"><ele>11.0</ele><time>2026-03-28T11:16:28Z</time></trkpt><trkpt lat="14.789277816700118" lon="120.94928523930852"><ele>11.0</ele><time>2026-03-28T11:16:29Z</time></trkpt><trkpt lat="14.789450584979258" lon="120.94919287158574"><ele>10.666666666666666</ele><time>2026-03-28T11:16:30Z</time></trkpt><trkpt lat="14.789621528964208" lon="120.94910103797915"><ele>10.333333333333334</ele><time>2026-03-28T11:16:31Z</time></trkpt><trkpt lat="14.78979309134945" lon="120.94900779435335"><ele>10.0</ele><time>2026-03-28T11:16:32Z</time></trkpt><trkpt lat="14.789965814641775" lon="120.94891432768216"><ele>10.0</ele><time>2026-03-28T11:16:33Z</time></trkpt><trkpt lat="14.79013885667057" lon="120.94881917341739"><ele>10.0</ele><time>2026-03-28T11:16:34Z</time></trkpt><trkpt lat="14.790316184873296" lon="120.94872282813384"><ele>10.0</ele><time>2026-03-28T11:16:35Z</time></trkpt><trkpt lat="14.790497233576607" lon="120.948624894855"><ele>10.0</ele><time>2026-03-28T11:16:36Z</time></trkpt><trkpt lat="14.790667472609583" lon="120.94852448548946"><ele>10.0</ele><time>2026-03-28T11:16:37Z</time></trkpt><trkpt lat="14.790841995710048" lon="120.94842803079813"><ele>10.0</ele><time>2026-03-28T11:16:38Z</time></trkpt><trkpt lat="14.79101531797411" lon="120.94833397301645"><ele>10.0</ele><time>2026-03-28T11:16:39Z</time></trkpt><trkpt lat="14.791190543423559" lon="120.94823887333746"><ele>10.0</ele><time>2026-03-28T11:16:40Z</time></trkpt><trkpt lat="14.791367957447862" lon="120.94814396968371"><ele>10.0</ele><time>2026-03-28T11:16:41Z</time></trkpt><trkpt lat="14.791544684510882" lon="120.94804923254807"><ele>10.0</ele><time>2026-03-28T11:16:42Z</time></trkpt><trkpt lat="14.791726346247751" lon="120.94795103816945"><ele>10.0</ele><time>2026-03-28T11:16:43Z</time></trkpt><trkpt lat="14.791907450695579" lon="120.94784909121134"><ele>10.0</ele><time>2026-03-28T11:16:44Z</time></trkpt><trkpt lat="14.792091339566353" lon="120.94774708844068"><ele>9.333333333333334</ele><time>2026-03-28T11:16:45Z</time></trkpt><trkpt lat="14.792272812266289" lon="120.94764781658908"><ele>8.666666666666666</ele><time>2026-03-28T11:16:46Z</time></trkpt><trkpt lat="14.792450061952465" lon="120.94754992941435"><ele>8.0</ele><time>2026-03-28T11:16:47Z</time></trkpt><trkpt lat="14.792630868897833" lon="120.94745266963862"><ele>7.333333333333333</ele><time>2026-03-28T11:16:48Z</time></trkpt><trkpt lat="14.792810426157459" lon="120.94735791967231"><ele>6.666666666666666</ele><time>2026-03-28T11:16:49Z</time></trkpt><trkpt lat="14.792986427783786" lon="120.94726046711902"><ele>6.0</ele><time>2026-03-28T11:16:50Z</time></trkpt><trkpt lat="14.793165125553205" lon="120.94716319738762"><ele>6.0</ele><time>2026-03-28T11:16:51Z</time></trkpt><trkpt lat="14.793328435959737" lon="120.94707701396284"><ele>6.0</ele><time>2026-03-28T11:16:52Z</time></trkpt><trkpt lat="14.793501649735559" lon="120.94698340991728"><ele>6.0</ele><time>2026-03-28T11:16:53Z</time></trkpt><trkpt lat="14.79367763907557" lon="120.94688833050863"><ele>5.666666666666667</ele><time>2026-03-28T11:16:54Z</time></trkpt><trkpt lat="14.793849309182594" lon="120.94679828727504"><ele>5.333333333333334</ele><time>2026-03-28T11:16:55Z</time></trkpt><trkpt lat="14.794020372825482" lon="120.94670425746753"><ele>5.0</ele><time>2026-03-28T11:16:56Z</time></trkpt><trkpt lat="14.794195418353086" lon="120.94661313101295"><ele>5.666666666666667</ele><time>2026-03-28T11:16:57Z</time></trkpt><trkpt lat="14.794375744873378" lon="120.9465117939466"><ele>6.333333333333334</ele><time>2026-03-28T11:16:58Z</time></trkpt><trkpt lat="14.794553882198151" lon="120.9464138565935"><ele>7.0</ele><time>2026-03-28T11:16:59Z</time></trkpt><trkpt lat="14.794727929209477" lon="120.94631938030895"><ele>7.0</ele><time>2026-03-28T11:17:00Z</time></trkpt><trkpt lat="14.794901946206263" lon="120.9462233775893"><ele>7.0</ele><time>2026-03-28T11:17:01Z</time></trkpt><trkpt lat="14.79507327756857" lon="120.94613318392625"><ele>7.0</ele><time>2026-03-28T11:17:02Z</time></trkpt><trkpt lat="14.795240412127274" lon="120.94604182004247"><ele>6.666666666666667</ele><time>2026-03-28T11:17:03Z</time></trkpt><trkpt lat="14.795409941908131" lon="120.94595084113647"><ele>6.333333333333334</ele><time>2026-03-28T11:17:04Z</time></trkpt><trkpt lat="14.79557946005947" lon="120.9458613695604"><ele>6.0</ele><time>2026-03-28T11:17:05Z</time></trkpt><trkpt lat="14.795749152680303" lon="120.9457711430169"><ele>6.666666666666666</ele><time>2026-03-28T11:17:06Z</time></trkpt><trkpt lat="14.795920301075391" lon="120.94567620339333"><ele>7.333333333333333</ele><time>2026-03-28T11:17:07Z</time></trkpt><trkpt lat="14.796096781855189" lon="120.94557770575717"><ele>8.0</ele><time>2026-03-28T11:17:08Z</time></trkpt><trkpt lat="14.796268704238544" lon="120.94547975207479"><ele>8.0</ele><time>2026-03-28T11:17:09Z</time></trkpt><trkpt lat="14.796446235246398" lon="120.9453828748443"><ele>8.0</ele><time>2026-03-28T11:17:10Z</time></trkpt><trkpt lat="14.79662866810678" lon="120.94528561625968"><ele>8.0</ele><time>2026-03-28T11:17:11Z</time></trkpt><trkpt lat="14.796803653256573" lon="120.94518728041616"><ele>7.333333333333333</ele><time>2026-03-28T11:17:12Z</time></trkpt><trkpt lat="14.796977041996232" lon="120.94509296442048"><ele>6.666666666666666</ele><time>2026-03-28T11:17:13Z</time></trkpt><trkpt lat="14.797159018197428" lon="120.94498987639376"><ele>6.0</ele><time>2026-03-28T11:17:14Z</time></trkpt><trkpt lat="14.797342378521483" lon="120.94488986298532"><ele>6.0</ele><time>2026-03-28T11:17:15Z</time></trkpt><trkpt lat="14.797535392003924" lon="120.94478864343246"><ele>6.0</ele><time>2026-03-28T11:17:16Z</time></trkpt><trkpt lat="14.797730249723957" lon="120.94468759888231"><ele>6.0</ele><time>2026-03-28T11:17:17Z</time></trkpt><trkpt lat="14.797929101239168" lon="120.94458457091773"><ele>7.0</ele><time>2026-03-28T11:17:18Z</time></trkpt><trkpt lat="14.798130420242268" lon="120.94447874324287"><ele>8.0</ele><time>2026-03-28T11:17:19Z</time></trkpt><trkpt lat="14.798332439005948" lon="120.94436957119417"><ele>8.0</ele><time>2026-03-28T11:17:20Z</time></trkpt><trkpt lat="14.798530380794391" lon="120.94426020943851"><ele>8.0</ele><time>2026-03-28T11:17:21Z</time></trkpt><trkpt lat="14.798725702746085" lon="120.94415833177591"><ele>8.0</ele><time>2026-03-28T11:17:22Z</time></trkpt><trkpt lat="14.798922569058103" lon="120.94405428144604"><ele>8.333333333333332</ele><time>2026-03-28T11:17:23Z</time></trkpt><trkpt lat="14.799116503725788" lon="120.94395944695499"><ele>8.666666666666666</ele><time>2026-03-28T11:17:24Z</time></trkpt><trkpt lat="14.79931949341061" lon="120.9438761070284"><ele>9.0</ele><time>2026-03-28T11:17:25Z</time></trkpt><trkpt lat="14.799524883728214" lon="120.94380617615647"><ele>9.0</ele><time>2026-03-28T11:17:26Z</time></trkpt><trkpt lat="14.799728245537487" lon="120.94374936953966"><ele>9.0</ele><time>2026-03-28T11:17:27Z</time></trkpt><trkpt lat="14.799940302119325" lon="120.94370019443403"><ele>9.0</ele><time>2026-03-28T11:17:28Z</time></trkpt><trkpt lat="14.800148767513274" lon="120.943665147067"><ele>8.333333333333334</ele><time>2026-03-28T11:17:29Z</time></trkpt><trkpt lat="14.800355331730895" lon="120.94364205335862"><ele>7.666666666666667</ele><time>2026-03-28T11:17:30Z</time></trkpt><trkpt lat="14.800563566853892" lon="120.94362191016957"><ele>7.0</ele><time>2026-03-28T11:17:31Z</time></trkpt><trkpt lat="14.800772413424328" lon="120.94360548831584"><ele>7.0</ele><time>2026-03-28T11:17:32Z</time></trkpt><trkpt lat="14.80098082955493" lon="120.94358584899594"><ele>7.0</ele><time>2026-03-28T11:17:33Z</time></trkpt><trkpt lat="14.801188755332733" lon="120.94356749987709"><ele>7.0</ele><time>2026-03-28T11:17:34Z</time></trkpt><trkpt lat="14.801391890346904" lon="120.94354990676514"><ele>7.333333333333334</ele><time>2026-03-28T11:17:35Z</time></trkpt><trkpt lat="14.801589944666116" lon="120.94352653807665"><ele>7.666666666666666</ele><time>2026-03-28T11:17:36Z</time></trkpt><trkpt lat="14.801790761689928" lon="120.94348989054258"><ele>8.0</ele><time>2026-03-28T11:17:37Z</time></trkpt><trkpt lat="14.801983134195169" lon="120.94344531548452"><ele>7.666666666666666</ele><time>2026-03-28T11:17:38Z</time></trkpt><trkpt lat="14.802179579003079" lon="120.94338801500491"><ele>7.333333333333334</ele><time>2026-03-28T11:17:39Z</time></trkpt><trkpt lat="14.80238433118368" lon="120.94332089366821"><ele>7.0</ele><time>2026-03-28T11:17:40Z</time></trkpt><trkpt lat="14.802579934293105" lon="120.9432414692937"><ele>6.666666666666667</ele><time>2026-03-28T11:17:41Z</time></trkpt><trkpt lat="14.802763642548607" lon="120.94314836204337"><ele>6.333333333333334</ele><time>2026-03-28T11:17:42Z</time></trkpt><trkpt lat="14.80294155205404" lon="120.94305124536507"><ele>6.0</ele><time>2026-03-28T11:17:43Z</time></trkpt><trkpt lat="14.803125924098737" lon="120.9429366714261"><ele>6.0</ele><time>2026-03-28T11:17:44Z</time></trkpt><trkpt lat="14.80329972782487" lon="120.94281454976198"><ele>6.0</ele><time>2026-03-28T11:17:45Z</time></trkpt><trkpt lat="14.803477883171562" lon="120.94268214081998"><ele>6.0</ele><time>2026-03-28T11:17:46Z</time></trkpt><trkpt lat="14.80364837150563" lon="120.942539610542"><ele>6.333333333333334</ele><time>2026-03-28T11:17:47Z</time></trkpt><trkpt lat="14.803813646242933" lon="120.9423908556967"><ele>6.666666666666667</ele><time>2026-03-28T11:17:48Z</time></trkpt><trkpt lat="14.803965402359736" lon="120.94223265491222"><ele>7.0</ele><time>2026-03-28T11:17:49Z</time></trkpt><trkpt lat="14.804114952431902" lon="120.94206100015042"><ele>7.0</ele><time>2026-03-28T11:17:50Z</time></trkpt><trkpt lat="14.804258218387075" lon="120.94188690322895"><ele>7.0</ele><time>2026-03-28T11:17:51Z</time></trkpt><trkpt lat="14.804400514220903" lon="120.94171214479931"><ele>7.0</ele><time>2026-03-28T11:17:52Z</time></trkpt><trkpt lat="14.804534190911026" lon="120.941540574652"><ele>7.333333333333334</ele><time>2026-03-28T11:17:53Z</time></trkpt><trkpt lat="14.804667857567786" lon="120.94137011705348"><ele>7.666666666666666</ele><time>2026-03-28T11:17:54Z</time></trkpt><trkpt lat="14.804806192034965" lon="120.94121057159332"><ele>8.0</ele><time>2026-03-28T11:17:55Z</time></trkpt><trkpt lat="14.804945051587119" lon="120.94105069926835"><ele>8.0</ele><time>2026-03-28T11:17:56Z</time></trkpt><trkpt lat="14.80508657264703" lon="120.94089765749514"><ele>8.0</ele><time>2026-03-28T11:17:57Z</time></trkpt><trkpt lat="14.805236366473684" lon="120.94075052007554"><ele>8.0</ele><time>2026-03-28T11:17:58Z</time></trkpt><trkpt lat="14.805391257540192" lon="120.9406119066723"><ele>8.0</ele><time>2026-03-28T11:17:59Z</time></trkpt><trkpt lat="14.805553457935755" lon="120.94048109271208"><ele>8.0</ele><time>2026-03-28T11:18:00Z</time></trkpt><trkpt lat="14.805718973973608" lon="120.94036080309836"><ele>8.0</ele><time>2026-03-28T11:18:01Z</time></trkpt><trkpt lat="14.805949944600066" lon="120.94036601857132"><ele>8.666666666666666</ele><time>2026-03-28T11:18:02Z</time></trkpt><trkpt lat="14.806128943174688" lon="120.94027071489094"><ele>9.333333333333334</ele><time>2026-03-28T11:18:03Z</time></trkpt><trkpt lat="14.806307915678945" lon="120.94017544669701"><ele>10.0</ele><time>2026-03-28T11:18:04Z</time></trkpt><trkpt lat="14.80649081317772" lon="120.94007808920425"><ele>11.0</ele><time>2026-03-28T11:18:05Z</time></trkpt><trkpt lat="14.806599994931332" lon="120.93983546976985"><ele>12.0</ele><time>2026-03-28T11:18:06Z</time></trkpt><trkpt lat="14.80678278081634" lon="120.93973448766741"><ele>11.666666666666666</ele><time>2026-03-28T11:18:07Z</time></trkpt><trkpt lat="14.806971237592824" lon="120.9396369358196"><ele>11.333333333333332</ele><time>2026-03-28T11:18:08Z</time></trkpt><trkpt lat="14.807160586459116" lon="120.93953651287761"><ele>11.0</ele><time>2026-03-28T11:18:09Z</time></trkpt><trkpt lat="14.807353686622882" lon="120.93943443911495"><ele>11.0</ele><time>2026-03-28T11:18:10Z</time></trkpt><trkpt lat="14.807548572480492" lon="120.93932848282199"><ele>11.0</ele><time>2026-03-28T11:18:11Z</time></trkpt><trkpt lat="14.807744866935785" lon="120.93922005502334"><ele>11.0</ele><time>2026-03-28T11:18:12Z</time></trkpt><trkpt lat="14.807938397630949" lon="120.93911586932198"><ele>10.0</ele><time>2026-03-28T11:18:13Z</time></trkpt><trkpt lat="14.808140625518908" lon="120.93900814424032"><ele>9.0</ele><time>2026-03-28T11:18:14Z</time></trkpt><trkpt lat="14.808338428803191" lon="120.93889931651663"><ele>9.333333333333334</ele><time>2026-03-28T11:18:15Z</time></trkpt><trkpt lat="14.80853742022279" lon="120.93879163452372"><ele>9.666666666666668</ele><time>2026-03-28T11:18:16Z</time></trkpt><trkpt lat="14.808737522018287" lon="120.93868688186677"><ele>10.0</ele><time>2026-03-28T11:18:17Z</time></trkpt><trkpt lat="14.808938192155203" lon="120.93857775367096"><ele>10.0</ele><time>2026-03-28T11:18:18Z</time></trkpt><trkpt lat="14.809133249531802" lon="120.93846753341208"><ele>10.0</ele><time>2026-03-28T11:18:19Z</time></trkpt><trkpt lat="14.809336098106202" lon="120.93835194053463"><ele>10.0</ele><time>2026-03-28T11:18:20Z</time></trkpt><trkpt lat="14.809542882332641" lon="120.93823543806482"><ele>10.0</ele><time>2026-03-28T11:18:21Z</time></trkpt><trkpt lat="14.809747708812395" lon="120.93812233820404"><ele>10.0</ele><time>2026-03-28T11:18:22Z</time></trkpt><trkpt lat="14.80995370991545" lon="120.93801017105886"><ele>10.0</ele><time>2026-03-28T11:18:23Z</time></trkpt><trkpt lat="14.810162401084266" lon="120.9378981688174"><ele>10.5</ele><time>2026-03-28T11:18:24Z</time></trkpt><trkpt lat="14.810375178195107" lon="120.93778658281416"><ele>11.0</ele><time>2026-03-28T11:18:25Z</time></trkpt><trkpt lat="14.810578427023058" lon="120.9376781248118"><ele>11.0</ele><time>2026-03-28T11:18:26Z</time></trkpt><trkpt lat="14.81079051188175" lon="120.93756411818785"><ele>11.0</ele><time>2026-03-28T11:18:27Z</time></trkpt><trkpt lat="14.811001004058921" lon="120.93745003554947"><ele>10.0</ele><time>2026-03-28T11:18:28Z</time></trkpt><trkpt lat="14.811216722395498" lon="120.93733419742433"><ele>9.0</ele><time>2026-03-28T11:18:29Z</time></trkpt><trkpt lat="14.811428466657206" lon="120.93722098308066"><ele>9.0</ele><time>2026-03-28T11:18:30Z</time></trkpt><trkpt lat="14.811646962985783" lon="120.93709963141403"><ele>9.0</ele><time>2026-03-28T11:18:31Z</time></trkpt><trkpt lat="14.811864018454031" lon="120.93698564692191"><ele>9.0</ele><time>2026-03-28T11:18:32Z</time></trkpt><trkpt lat="14.812082379726" lon="120.93687045807214"><ele>9.0</ele><time>2026-03-28T11:18:33Z</time></trkpt><trkpt lat="14.812297997300504" lon="120.93675168111425"><ele>9.0</ele><time>2026-03-28T11:18:34Z</time></trkpt><trkpt lat="14.812517171487297" lon="120.93663227463499"><ele>9.0</ele><time>2026-03-28T11:18:35Z</time></trkpt><trkpt lat="14.812730566705385" lon="120.93651083934482"><ele>9.0</ele><time>2026-03-28T11:18:36Z</time></trkpt><trkpt lat="14.81294422193922" lon="120.93639155574292"><ele>9.0</ele><time>2026-03-28T11:18:37Z</time></trkpt><trkpt lat="14.813158779227104" lon="120.93627333901672"><ele>9.0</ele><time>2026-03-28T11:18:38Z</time></trkpt><trkpt lat="14.813378221009353" lon="120.93615280333654"><ele>9.0</ele><time>2026-03-28T11:18:39Z</time></trkpt><trkpt lat="14.813591159801279" lon="120.93603925822588"><ele>8.5</ele><time>2026-03-28T11:18:40Z</time></trkpt><trkpt lat="14.81380357758288" lon="120.93592434028398"><ele>8.0</ele><time>2026-03-28T11:18:41Z</time></trkpt><trkpt lat="14.814007324135536" lon="120.93580818127953"><ele>9.5</ele><time>2026-03-28T11:18:42Z</time></trkpt><trkpt lat="14.814201757034477" lon="120.93569089329348"><ele>11.0</ele><time>2026-03-28T11:18:43Z</time></trkpt><trkpt lat="14.814393093296797" lon="120.9355678322284"><ele>11.666666666666666</ele><time>2026-03-28T11:18:44Z</time></trkpt><trkpt lat="14.814580198792292" lon="120.93543958982396"><ele>12.333333333333332</ele><time>2026-03-28T11:18:45Z</time></trkpt><trkpt lat="14.814764411868222" lon="120.93530607413463"><ele>13.0</ele><time>2026-03-28T11:18:46Z</time></trkpt><trkpt lat="14.814939550026182" lon="120.9351704570025"><ele>13.0</ele><time>2026-03-28T11:18:47Z</time></trkpt><trkpt lat="14.81512039266388" lon="120.93503112484456"><ele>13.0</ele><time>2026-03-28T11:18:48Z</time></trkpt><trkpt lat="14.815298795663642" lon="120.93488651507342"><ele>11.5</ele><time>2026-03-28T11:18:49Z</time></trkpt><trkpt lat="14.815472164425454" lon="120.93473820233113"><ele>10.0</ele><time>2026-03-28T11:18:50Z</time></trkpt><trkpt lat="14.81564434841175" lon="120.93458561885035"><ele>10.0</ele><time>2026-03-28T11:18:51Z</time></trkpt><trkpt lat="14.815812667818353" lon="120.9344295599838"><ele>10.0</ele><time>2026-03-28T11:18:52Z</time></trkpt><trkpt lat="14.815963412054746" lon="120.93428008058827"><ele>10.0</ele><time>2026-03-28T11:18:53Z</time></trkpt><trkpt lat="14.816116745044809" lon="120.93412343756683"><ele>9.333333333333334</ele><time>2026-03-28T11:18:54Z</time></trkpt><trkpt lat="14.816263153163435" lon="120.9339669191087"><ele>8.666666666666666</ele><time>2026-03-28T11:18:55Z</time></trkpt><trkpt lat="14.816409356064474" lon="120.93380575646752"><ele>8.0</ele><time>2026-03-28T11:18:56Z</time></trkpt><trkpt lat="14.816554722135304" lon="120.93364678509977"><ele>8.0</ele><time>2026-03-28T11:18:57Z</time></trkpt><trkpt lat="14.8166869122708" lon="120.93349048467749"><ele>8.0</ele><time>2026-03-28T11:18:58Z</time></trkpt><trkpt lat="14.816814223753143" lon="120.9333332426375"><ele>8.0</ele><time>2026-03-28T11:18:59Z</time></trkpt><trkpt lat="14.81694176346743" lon="120.93316856732906"><ele>8.0</ele><time>2026-03-28T11:19:00Z</time></trkpt><trkpt lat="14.817062129931294" lon="120.93300439002371"><ele>8.0</ele><time>2026-03-28T11:19:01Z</time></trkpt><trkpt lat="14.81717897720879" lon="120.93284008696186"><ele>8.0</ele><time>2026-03-28T11:19:02Z</time></trkpt><trkpt lat="14.817294236852359" lon="120.93267846931579"><ele>8.0</ele><time>2026-03-28T11:19:03Z</time></trkpt><trkpt lat="14.817406169951147" lon="120.93251099263797"><ele>8.0</ele><time>2026-03-28T11:19:04Z</time></trkpt><trkpt lat="14.817513527177613" lon="120.93234245497233"><ele>8.0</ele><time>2026-03-28T11:19:05Z</time></trkpt><trkpt lat="14.817617626898977" lon="120.93217233019087"><ele>7.333333333333333</ele><time>2026-03-28T11:19:06Z</time></trkpt><trkpt lat="14.817722717761908" lon="120.93199728794013"><ele>6.666666666666666</ele><time>2026-03-28T11:19:07Z</time></trkpt><trkpt lat="14.817824575213873" lon="120.93181915781992"><ele>6.0</ele><time>2026-03-28T11:19:08Z</time></trkpt><trkpt lat="14.817923616694188" lon="120.93163597323483"><ele>7.333333333333334</ele><time>2026-03-28T11:19:09Z</time></trkpt><trkpt lat="14.818020644622322" lon="120.93145098439085"><ele>8.666666666666668</ele><time>2026-03-28T11:19:10Z</time></trkpt><trkpt lat="14.818118951078768" lon="120.93126371324617"><ele>10.0</ele><time>2026-03-28T11:19:11Z</time></trkpt><trkpt lat="14.818215824969421" lon="120.93107924042282"><ele>10.0</ele><time>2026-03-28T11:19:12Z</time></trkpt><trkpt lat="14.818313148582922" lon="120.93089707151599"><ele>10.0</ele><time>2026-03-28T11:19:13Z</time></trkpt><trkpt lat="14.818408153665331" lon="120.93071593995934"><ele>10.0</ele><time>2026-03-28T11:19:14Z</time></trkpt><trkpt lat="14.818504114547897" lon="120.93054133653733"><ele>9.333333333333334</ele><time>2026-03-28T11:19:15Z</time></trkpt><trkpt lat="14.8185988834073" lon="120.93036320783001"><ele>8.666666666666666</ele><time>2026-03-28T11:19:16Z</time></trkpt><trkpt lat="14.818681747504952" lon="120.9302131235981"><ele>8.0</ele><time>2026-03-28T11:19:17Z</time></trkpt><trkpt lat="14.818754793147676" lon="120.93007036960952"><ele>8.25</ele><time>2026-03-28T11:19:18Z</time></trkpt><trkpt lat="14.818826946636062" lon="120.92993900527782"><ele>8.5</ele><time>2026-03-28T11:19:19Z</time></trkpt><trkpt lat="14.818891702402263" lon="120.92981879847541"><ele>8.75</ele><time>2026-03-28T11:19:20Z</time></trkpt><trkpt lat="14.818955368034736" lon="120.92969967614991"><ele>9.0</ele><time>2026-03-28T11:19:21Z</time></trkpt><trkpt lat="14.819017428764207" lon="120.92958145349557"><ele>9.0</ele><time>2026-03-28T11:19:22Z</time></trkpt><trkpt lat="14.819077881022068" lon="120.92945818711898"><ele>9.0</ele><time>2026-03-28T11:19:23Z</time></trkpt><trkpt lat="14.819140754905312" lon="120.92933121898987"><ele>9.0</ele><time>2026-03-28T11:19:24Z</time></trkpt><trkpt lat="14.819209317352515" lon="120.92920543816868"><ele>9.0</ele><time>2026-03-28T11:19:25Z</time></trkpt><trkpt lat="14.819279155407438" lon="120.92907277364108"><ele>8.5</ele><time>2026-03-28T11:19:26Z</time></trkpt><trkpt lat="14.819348579333397" lon="120.92894000918957"><ele>8.0</ele><time>2026-03-28T11:19:27Z</time></trkpt><trkpt lat="14.819420032953383" lon="120.92880567982304"><ele>7.5</ele><time>2026-03-28T11:19:28Z</time></trkpt><trkpt lat="14.819493308730877" lon="120.92867518027003"><ele>7.0</ele><time>2026-03-28T11:19:29Z</time></trkpt><trkpt lat="14.819569270946573" lon="120.92853328338822"><ele>7.333333333333334</ele><time>2026-03-28T11:19:30Z</time></trkpt><trkpt lat="14.819648050694331" lon="120.92839188714312"><ele>7.666666666666666</ele><time>2026-03-28T11:19:31Z</time></trkpt><trkpt lat="14.819724015321038" lon="120.92825135542165"><ele>8.0</ele><time>2026-03-28T11:19:32Z</time></trkpt><trkpt lat="14.819802167362212" lon="120.9281121759075"><ele>8.0</ele><time>2026-03-28T11:19:33Z</time></trkpt><trkpt lat="14.819880477552106" lon="120.92797041422892"><ele>8.0</ele><time>2026-03-28T11:19:34Z</time></trkpt><trkpt lat="14.819960796356526" lon="120.92782744458093"><ele>8.0</ele><time>2026-03-28T11:19:35Z</time></trkpt><trkpt lat="14.820040757206593" lon="120.92767605028274"><ele>7.333333333333333</ele><time>2026-03-28T11:19:36Z</time></trkpt><trkpt lat="14.820120926135308" lon="120.92751917745989"><ele>6.666666666666666</ele><time>2026-03-28T11:19:37Z</time></trkpt><trkpt lat="14.820200944644103" lon="120.92736301904553"><ele>6.0</ele><time>2026-03-28T11:19:38Z</time></trkpt><trkpt lat="14.820284990740083" lon="120.92720959044046"><ele>6.666666666666666</ele><time>2026-03-28T11:19:39Z</time></trkpt><trkpt lat="14.820371839544565" lon="120.9270445132217"><ele>7.333333333333333</ele><time>2026-03-28T11:19:40Z</time></trkpt><trkpt lat="14.82045440690702" lon="120.92688806901106"><ele>8.0</ele><time>2026-03-28T11:19:41Z</time></trkpt><trkpt lat="14.820542196714365" lon="120.92672305014946"><ele>8.0</ele><time>2026-03-28T11:19:42Z</time></trkpt><trkpt lat="14.82062903492327" lon="120.92654925732637"><ele>8.0</ele><time>2026-03-28T11:19:43Z</time></trkpt><trkpt lat="14.820718657529023" lon="120.92639174693079"><ele>8.0</ele><time>2026-03-28T11:19:44Z</time></trkpt><trkpt lat="14.82080789426909" lon="120.92622010430125"><ele>8.0</ele><time>2026-03-28T11:19:45Z</time></trkpt><trkpt lat="14.820900097424964" lon="120.9260493679084"><ele>8.0</ele><time>2026-03-28T11:19:46Z</time></trkpt><trkpt lat="14.820990056162785" lon="120.92587342589327"><ele>8.0</ele><time>2026-03-28T11:19:47Z</time></trkpt><trkpt lat="14.821080109318707" lon="120.92570213588509"><ele>7.333333333333333</ele><time>2026-03-28T11:19:48Z</time></trkpt><trkpt lat="14.821168272813267" lon="120.92553724468434"><ele>6.666666666666666</ele><time>2026-03-28T11:19:49Z</time></trkpt><trkpt lat="14.821258089197963" lon="120.9253703476514"><ele>6.0</ele><time>2026-03-28T11:19:50Z</time></trkpt><trkpt lat="14.821350980522906" lon="120.92520272510697"><ele>6.0</ele><time>2026-03-28T11:19:51Z</time></trkpt><trkpt lat="14.821434260614307" lon="120.92503728320746"><ele>6.0</ele><time>2026-03-28T11:19:52Z</time></trkpt><trkpt lat="14.821520707200394" lon="120.92487078142591"><ele>6.0</ele><time>2026-03-28T11:19:53Z</time></trkpt><trkpt lat="14.821606025468506" lon="120.92470927292496"><ele>6.0</ele><time>2026-03-28T11:19:54Z</time></trkpt><trkpt lat="14.82169319490881" lon="120.92455114601762"><ele>6.0</ele><time>2026-03-28T11:19:55Z</time></trkpt><trkpt lat="14.821778483558417" lon="120.9243877845072"><ele>6.0</ele><time>2026-03-28T11:19:56Z</time></trkpt><trkpt lat="14.821863471498798" lon="120.92422310739585"><ele>6.0</ele><time>2026-03-28T11:19:57Z</time></trkpt><trkpt lat="14.821951358092296" lon="120.92405827756978"><ele>6.0</ele><time>2026-03-28T11:19:58Z</time></trkpt><trkpt lat="14.822039549071095" lon="120.92388790887506"><ele>6.0</ele><time>2026-03-28T11:19:59Z</time></trkpt><trkpt lat="14.822131019398467" lon="120.9237168511121"><ele>6.0</ele><time>2026-03-28T11:20:00Z</time></trkpt><trkpt lat="14.822222645340672" lon="120.92354803049568"><ele>6.0</ele><time>2026-03-28T11:20:01Z</time></trkpt><trkpt lat="14.822315457725441" lon="120.92337866362219"><ele>6.0</ele><time>2026-03-28T11:20:02Z</time></trkpt><trkpt lat="14.822410334346076" lon="120.92320404590457"><ele>6.0</ele><time>2026-03-28T11:20:03Z</time></trkpt><trkpt lat="14.822503892637162" lon="120.9230286581457"><ele>6.0</ele><time>2026-03-28T11:20:04Z</time></trkpt><trkpt lat="14.822594671017129" lon="120.9228503177731"><ele>6.0</ele><time>2026-03-28T11:20:05Z</time></trkpt><trkpt lat="14.822693356460965" lon="120.92267102117218"><ele>6.0</ele><time>2026-03-28T11:20:06Z</time></trkpt><trkpt lat="14.822788261609475" lon="120.92249150743677"><ele>6.0</ele><time>2026-03-28T11:20:07Z</time></trkpt><trkpt lat="14.822886057077598" lon="120.92231484727864"><ele>6.0</ele><time>2026-03-28T11:20:08Z</time></trkpt><trkpt lat="14.822977815551585" lon="120.92214395954703"><ele>6.0</ele><time>2026-03-28T11:20:09Z</time></trkpt><trkpt lat="14.82306994502384" lon="120.92196606761388"><ele>6.0</ele><time>2026-03-28T11:20:10Z</time></trkpt><trkpt lat="14.823161618760855" lon="120.92178805315392"><ele>6.0</ele><time>2026-03-28T11:20:11Z</time></trkpt><trkpt lat="14.823255732941059" lon="120.92160554582898"><ele>6.333333333333334</ele><time>2026-03-28T11:20:12Z</time></trkpt><trkpt lat="14.823353144755528" lon="120.92142343105395"><ele>6.666666666666667</ele><time>2026-03-28T11:20:13Z</time></trkpt><trkpt lat="14.823450118403489" lon="120.92124173987274"><ele>7.0</ele><time>2026-03-28T11:20:14Z</time></trkpt><trkpt lat="14.823543398213294" lon="120.9210597812767"><ele>7.333333333333334</ele><time>2026-03-28T11:20:15Z</time></trkpt><trkpt lat="14.823641393847566" lon="120.92088245304957"><ele>7.666666666666666</ele><time>2026-03-28T11:20:16Z</time></trkpt><trkpt lat="14.823738362952911" lon="120.92069828667991"><ele>8.0</ele><time>2026-03-28T11:20:17Z</time></trkpt><trkpt lat="14.823832507078992" lon="120.92051981821713"><ele>8.0</ele><time>2026-03-28T11:20:18Z</time></trkpt><trkpt lat="14.82392820976231" lon="120.92033836466149"><ele>8.0</ele><time>2026-03-28T11:20:19Z</time></trkpt><trkpt lat="14.824024791099845" lon="120.92015511420645"><ele>8.0</ele><time>2026-03-28T11:20:20Z</time></trkpt><trkpt lat="14.824116857330397" lon="120.919985829435"><ele>8.0</ele><time>2026-03-28T11:20:21Z</time></trkpt><trkpt lat="14.824214320379973" lon="120.91980047621922"><ele>8.0</ele><time>2026-03-28T11:20:22Z</time></trkpt><trkpt lat="14.824316608417918" lon="120.91961934902014"><ele>8.0</ele><time>2026-03-28T11:20:23Z</time></trkpt><trkpt lat="14.824408553935422" lon="120.91943927131025"><ele>8.0</ele><time>2026-03-28T11:20:24Z</time></trkpt><trkpt lat="14.824502028391002" lon="120.91925830823936"><ele>8.0</ele><time>2026-03-28T11:20:25Z</time></trkpt><trkpt lat="14.824594349840664" lon="120.91907569307688"><ele>8.0</ele><time>2026-03-28T11:20:26Z</time></trkpt><trkpt lat="14.824692908127043" lon="120.91890476983774"><ele>8.0</ele><time>2026-03-28T11:20:27Z</time></trkpt><trkpt lat="14.82478332969662" lon="120.91872725678807"><ele>8.0</ele><time>2026-03-28T11:20:28Z</time></trkpt><trkpt lat="14.824880352216905" lon="120.91855066088502"><ele>8.0</ele><time>2026-03-28T11:20:29Z</time></trkpt><trkpt lat="14.8249714596239" lon="120.91837628705167"><ele>7.666666666666666</ele><time>2026-03-28T11:20:30Z</time></trkpt><trkpt lat="14.825062319653929" lon="120.91821053343362"><ele>7.333333333333334</ele><time>2026-03-28T11:20:31Z</time></trkpt><trkpt lat="14.825157905339948" lon="120.91803999821822"><ele>7.0</ele><time>2026-03-28T11:20:32Z</time></trkpt><trkpt lat="14.825250811429413" lon="120.91786443190857"><ele>7.0</ele><time>2026-03-28T11:20:33Z</time></trkpt><trkpt lat="14.825349791762823" lon="120.91767767384617"><ele>7.0</ele><time>2026-03-28T11:20:34Z</time></trkpt><trkpt lat="14.825445538100377" lon="120.91751342690853"><ele>7.0</ele><time>2026-03-28T11:20:35Z</time></trkpt><trkpt lat="14.825533762561479" lon="120.91735549005308"><ele>6.666666666666667</ele><time>2026-03-28T11:20:36Z</time></trkpt><trkpt lat="14.825628565302132" lon="120.91718413495953"><ele>6.333333333333334</ele><time>2026-03-28T11:20:37Z</time></trkpt><trkpt lat="14.82572495622251" lon="120.91701092653605"><ele>6.0</ele><time>2026-03-28T11:20:38Z</time></trkpt><trkpt lat="14.825824715664536" lon="120.91683815155795"><ele>6.333333333333334</ele><time>2026-03-28T11:20:39Z</time></trkpt><trkpt lat="14.825921958116329" lon="120.9166625359829"><ele>6.666666666666667</ele><time>2026-03-28T11:20:40Z</time></trkpt><trkpt lat="14.826017194701675" lon="120.91648891571563"><ele>7.0</ele><time>2026-03-28T11:20:41Z</time></trkpt><trkpt lat="14.826110190284641" lon="120.91631599224628"><ele>7.0</ele><time>2026-03-28T11:20:42Z</time></trkpt><trkpt lat="14.826204621828344" lon="120.91614303807556"><ele>7.0</ele><time>2026-03-28T11:20:43Z</time></trkpt><trkpt lat="14.826296168051435" lon="120.91596407507674"><ele>7.0</ele><time>2026-03-28T11:20:44Z</time></trkpt><trkpt lat="14.826388756888536" lon="120.91578794671501"><ele>7.333333333333334</ele><time>2026-03-28T11:20:45Z</time></trkpt><trkpt lat="14.826481916872659" lon="120.91561845268512"><ele>7.666666666666666</ele><time>2026-03-28T11:20:46Z</time></trkpt><trkpt lat="14.826573416298775" lon="120.91545009713865"><ele>8.0</ele><time>2026-03-28T11:20:47Z</time></trkpt><trkpt lat="14.826664304675647" lon="120.91527079968196"><ele>8.0</ele><time>2026-03-28T11:20:48Z</time></trkpt><trkpt lat="14.826752776593215" lon="120.91510014676408"><ele>8.0</ele><time>2026-03-28T11:20:49Z</time></trkpt><trkpt lat="14.826840111080998" lon="120.91493003728498"><ele>8.0</ele><time>2026-03-28T11:20:50Z</time></trkpt><trkpt lat="14.82692919213015" lon="120.91475571777238"><ele>7.333333333333333</ele><time>2026-03-28T11:20:51Z</time></trkpt><trkpt lat="14.827017937180374" lon="120.91458424131669"><ele>6.666666666666666</ele><time>2026-03-28T11:20:52Z</time></trkpt><trkpt lat="14.827106457761692" lon="120.9144152054541"><ele>6.0</ele><time>2026-03-28T11:20:53Z</time></trkpt><trkpt lat="14.82719622108278" lon="120.91424830113522"><ele>5.666666666666667</ele><time>2026-03-28T11:20:54Z</time></trkpt><trkpt lat="14.827287296460367" lon="120.91407661421704"><ele>5.333333333333334</ele><time>2026-03-28T11:20:55Z</time></trkpt><trkpt lat="14.827375695644967" lon="120.91390366435014"><ele>5.0</ele><time>2026-03-28T11:20:56Z</time></trkpt><trkpt lat="14.827463571844032" lon="120.91373544064325"><ele>5.0</ele><time>2026-03-28T11:20:57Z</time></trkpt><trkpt lat="14.827546659970546" lon="120.91357329408095"><ele>5.0</ele><time>2026-03-28T11:20:58Z</time></trkpt><trkpt lat="14.827629044028384" lon="120.91341494779819"><ele>5.0</ele><time>2026-03-28T11:20:59Z</time></trkpt><trkpt lat="14.827717447788629" lon="120.91325133865833"><ele>5.333333333333334</ele><time>2026-03-28T11:21:00Z</time></trkpt><trkpt lat="14.827799411400708" lon="120.91309134696732"><ele>5.666666666666667</ele><time>2026-03-28T11:21:01Z</time></trkpt><trkpt lat="14.827883149972715" lon="120.91293685165643"><ele>6.0</ele><time>2026-03-28T11:21:02Z</time></trkpt><trkpt lat="14.827963989913506" lon="120.91277957256834"><ele>6.0</ele><time>2026-03-28T11:21:03Z</time></trkpt><trkpt lat="14.828051542974206" lon="120.91262046023716"><ele>6.0</ele><time>2026-03-28T11:21:04Z</time></trkpt><trkpt lat="14.828133799359502" lon="120.91246602702354"><ele>6.0</ele><time>2026-03-28T11:21:05Z</time></trkpt><trkpt lat="14.828223750513274" lon="120.91230659002235"><ele>6.0</ele><time>2026-03-28T11:21:06Z</time></trkpt><trkpt lat="14.828305957159506" lon="120.91215687623077"><ele>6.0</ele><time>2026-03-28T11:21:07Z</time></trkpt><trkpt lat="14.828379237570605" lon="120.9120107512821"><ele>6.0</ele><time>2026-03-28T11:21:08Z</time></trkpt><trkpt lat="14.828458175686484" lon="120.91184697063731"><ele>5.666666666666667</ele><time>2026-03-28T11:21:09Z</time></trkpt><trkpt lat="14.828539037130067" lon="120.91169747173598"><ele>5.333333333333334</ele><time>2026-03-28T11:21:10Z</time></trkpt><trkpt lat="14.828622182922757" lon="120.91154740058346"><ele>5.0</ele><time>2026-03-28T11:21:11Z</time></trkpt><trkpt lat="14.828706721581076" lon="120.91139116647747"><ele>5.0</ele><time>2026-03-28T11:21:12Z</time></trkpt><trkpt lat="14.82878953537936" lon="120.91123784308128"><ele>5.0</ele><time>2026-03-28T11:21:13Z</time></trkpt><trkpt lat="14.828871373840856" lon="120.91108523495144"><ele>5.0</ele><time>2026-03-28T11:21:14Z</time></trkpt><trkpt lat="14.828953563497764" lon="120.91093354836018"><ele>5.0</ele><time>2026-03-28T11:21:15Z</time></trkpt><trkpt lat="14.829035734830775" lon="120.91078288633864"><ele>5.0</ele><time>2026-03-28T11:21:16Z</time></trkpt><trkpt lat="14.82911768735494" lon="120.91063201524867"><ele>5.0</ele><time>2026-03-28T11:21:17Z</time></trkpt><trkpt lat="14.829203080575724" lon="120.91048090817281"><ele>5.0</ele><time>2026-03-28T11:21:18Z</time></trkpt><trkpt lat="14.829285180260882" lon="120.9103302027745"><ele>5.0</ele><time>2026-03-28T11:21:19Z</time></trkpt><trkpt lat="14.829366160702289" lon="120.91017724203924"><ele>5.0</ele><time>2026-03-28T11:21:20Z</time></trkpt><trkpt lat="14.829451317161174" lon="120.9100205224633"><ele>5.333333333333334</ele><time>2026-03-28T11:21:21Z</time></trkpt><trkpt lat="14.829538596068696" lon="120.90986243721535"><ele>5.666666666666667</ele><time>2026-03-28T11:21:22Z</time></trkpt><trkpt lat="14.82962615831327" lon="120.9097050970943"><ele>6.0</ele><time>2026-03-28T11:21:23Z</time></trkpt><trkpt lat="14.829718251263943" lon="120.9095442626646"><ele>6.0</ele><time>2026-03-28T11:21:24Z</time></trkpt><trkpt lat="14.829817153781882" lon="120.90937570154138"><ele>6.0</ele><time>2026-03-28T11:21:25Z</time></trkpt><trkpt lat="14.829903271752356" lon="120.90921766555616"><ele>6.0</ele><time>2026-03-28T11:21:26Z</time></trkpt><trkpt lat="14.829992180949507" lon="120.90905374780115"><ele>6.0</ele><time>2026-03-28T11:21:27Z</time></trkpt><trkpt lat="14.830084489755585" lon="120.90888259937502"><ele>6.0</ele><time>2026-03-28T11:21:28Z</time></trkpt><trkpt lat="14.830174624536344" lon="120.90870890066644"><ele>6.0</ele><time>2026-03-28T11:21:29Z</time></trkpt><trkpt lat="14.830260513182997" lon="120.9085433846563"><ele>6.333333333333334</ele><time>2026-03-28T11:21:30Z</time></trkpt><trkpt lat="14.830342816018497" lon="120.90838458147608"><ele>6.666666666666667</ele><time>2026-03-28T11:21:31Z</time></trkpt><trkpt lat="14.830413917243881" lon="120.90821279108127"><ele>7.0</ele><time>2026-03-28T11:21:32Z</time></trkpt><trkpt lat="14.830503386007736" lon="120.90805988130215"><ele>7.0</ele><time>2026-03-28T11:21:33Z</time></trkpt><trkpt lat="14.830592725506227" lon="120.90790199999283"><ele>7.0</ele><time>2026-03-28T11:21:34Z</time></trkpt><trkpt lat="14.83067615534672" lon="120.90774307254445"><ele>7.0</ele><time>2026-03-28T11:21:35Z</time></trkpt><trkpt lat="14.830763280219264" lon="120.90758741300786"><ele>7.0</ele><time>2026-03-28T11:21:36Z</time></trkpt><trkpt lat="14.830843538168432" lon="120.9074288359223"><ele>7.0</ele><time>2026-03-28T11:21:37Z</time></trkpt><trkpt lat="14.830923431048513" lon="120.90726398149407"><ele>7.0</ele><time>2026-03-28T11:21:38Z</time></trkpt><trkpt lat="14.831011875695788" lon="120.90710536613221"><ele>7.0</ele><time>2026-03-28T11:21:39Z</time></trkpt><trkpt lat="14.831102334950435" lon="120.9069420091236"><ele>7.0</ele><time>2026-03-28T11:21:40Z</time></trkpt><trkpt lat="14.831190480031438" lon="120.90677484268458"><ele>7.0</ele><time>2026-03-28T11:21:41Z</time></trkpt><trkpt lat="14.831277879561048" lon="120.90660882561153"><ele>7.0</ele><time>2026-03-28T11:21:42Z</time></trkpt><trkpt lat="14.831367573457802" lon="120.90644545643973"><ele>7.0</ele><time>2026-03-28T11:21:43Z</time></trkpt><trkpt lat="14.831452382397336" lon="120.9062778154405"><ele>7.0</ele><time>2026-03-28T11:21:44Z</time></trkpt><trkpt lat="14.831543061400858" lon="120.90610746094676"><ele>7.0</ele><time>2026-03-28T11:21:45Z</time></trkpt><trkpt lat="14.831635979225933" lon="120.90594268743267"><ele>7.0</ele><time>2026-03-28T11:21:46Z</time></trkpt><trkpt lat="14.831725052781593" lon="120.90578096451365"><ele>7.0</ele><time>2026-03-28T11:21:47Z</time></trkpt><trkpt lat="14.831811031205515" lon="120.9056125756953"><ele>8.0</ele><time>2026-03-28T11:21:48Z</time></trkpt><trkpt lat="14.831897044560453" lon="120.90543941782694"><ele>9.0</ele><time>2026-03-28T11:21:49Z</time></trkpt><trkpt lat="14.831984964803487" lon="120.90527585795547"><ele>10.0</ele><time>2026-03-28T11:21:50Z</time></trkpt><trkpt lat="14.832076235427476" lon="120.90510678296806"><ele>10.0</ele><time>2026-03-28T11:21:51Z</time></trkpt><trkpt lat="14.832166032928141" lon="120.90493548176227"><ele>10.0</ele><time>2026-03-28T11:21:52Z</time></trkpt><trkpt lat="14.832261369228748" lon="120.90476281599788"><ele>10.0</ele><time>2026-03-28T11:21:53Z</time></trkpt><trkpt lat="14.832359313088398" lon="120.90459039309302"><ele>10.0</ele><time>2026-03-28T11:21:54Z</time></trkpt><trkpt lat="14.832455471647688" lon="120.90441193973805"><ele>10.0</ele><time>2026-03-28T11:21:55Z</time></trkpt><trkpt lat="14.832562795033416" lon="120.90422967394716"><ele>10.0</ele><time>2026-03-28T11:21:56Z</time></trkpt><trkpt lat="14.83266295423063" lon="120.90403332138521"><ele>9.333333333333334</ele><time>2026-03-28T11:21:57Z</time></trkpt><trkpt lat="14.832763766179767" lon="120.90384648678835"><ele>8.666666666666666</ele><time>2026-03-28T11:21:58Z</time></trkpt><trkpt lat="14.832870389290132" lon="120.90365660832924"><ele>8.0</ele><time>2026-03-28T11:21:59Z</time></trkpt><trkpt lat="14.832973018509922" lon="120.90345382648952"><ele>8.0</ele><time>2026-03-28T11:22:00Z</time></trkpt><trkpt lat="14.833079727156582" lon="120.90325379232414"><ele>8.0</ele><time>2026-03-28T11:22:01Z</time></trkpt><trkpt lat="14.833186332198519" lon="120.90304820286896"><ele>8.0</ele><time>2026-03-28T11:22:02Z</time></trkpt><trkpt lat="14.83329492044561" lon="120.90285077052684"><ele>8.0</ele><time>2026-03-28T11:22:03Z</time></trkpt><trkpt lat="14.833401297079256" lon="120.90265680876264"><ele>8.0</ele><time>2026-03-28T11:22:04Z</time></trkpt><trkpt lat="14.833508169402716" lon="120.9024598473182"><ele>8.0</ele><time>2026-03-28T11:22:05Z</time></trkpt><trkpt lat="14.833614854228738" lon="120.90226253244228"><ele>8.666666666666666</ele><time>2026-03-28T11:22:06Z</time></trkpt><trkpt lat="14.833721660910824" lon="120.90206711880745"><ele>9.333333333333334</ele><time>2026-03-28T11:22:07Z</time></trkpt><trkpt lat="14.833829415525846" lon="120.90186865734462"><ele>10.0</ele><time>2026-03-28T11:22:08Z</time></trkpt><trkpt lat="14.833933821920418" lon="120.9016773385785"><ele>10.0</ele><time>2026-03-28T11:22:09Z</time></trkpt><trkpt lat="14.834037357608638" lon="120.90148043414834"><ele>10.0</ele><time>2026-03-28T11:22:10Z</time></trkpt><trkpt lat="14.834139353322625" lon="120.90129546345635"><ele>10.0</ele><time>2026-03-28T11:22:11Z</time></trkpt><trkpt lat="14.83424317361001" lon="120.90110784177963"><ele>8.666666666666668</ele><time>2026-03-28T11:22:12Z</time></trkpt><trkpt lat="14.834352153423556" lon="120.9009073019351"><ele>7.333333333333334</ele><time>2026-03-28T11:22:13Z</time></trkpt><trkpt lat="14.834457363085583" lon="120.90072013500908"><ele>6.0</ele><time>2026-03-28T11:22:14Z</time></trkpt><trkpt lat="14.834567158769232" lon="120.90051964170159"><ele>6.0</ele><time>2026-03-28T11:22:15Z</time></trkpt><trkpt lat="14.834665114400963" lon="120.90032893134196"><ele>6.0</ele><time>2026-03-28T11:22:16Z</time></trkpt><trkpt lat="14.834772497257338" lon="120.90012828689113"><ele>6.0</ele><time>2026-03-28T11:22:17Z</time></trkpt><trkpt lat="14.834874164885804" lon="120.89993487817189"><ele>6.333333333333334</ele><time>2026-03-28T11:22:18Z</time></trkpt><trkpt lat="14.834980151562469" lon="120.89973962516211"><ele>6.666666666666667</ele><time>2026-03-28T11:22:19Z</time></trkpt><trkpt lat="14.835079991523505" lon="120.8995513291442"><ele>7.0</ele><time>2026-03-28T11:22:20Z</time></trkpt><trkpt lat="14.83518365335581" lon="120.89935858551797"><ele>6.666666666666667</ele><time>2026-03-28T11:22:21Z</time></trkpt><trkpt lat="14.835284946077623" lon="120.8991749104814"><ele>6.333333333333334</ele><time>2026-03-28T11:22:22Z</time></trkpt><trkpt lat="14.835383289646044" lon="120.89899469083818"><ele>6.0</ele><time>2026-03-28T11:22:23Z</time></trkpt><trkpt lat="14.835486512045811" lon="120.89880525068172"><ele>6.0</ele><time>2026-03-28T11:22:24Z</time></trkpt><trkpt lat="14.835591042414404" lon="120.89861430541312"><ele>6.0</ele><time>2026-03-28T11:22:25Z</time></trkpt><trkpt lat="14.835694913822282" lon="120.8984255238889"><ele>6.0</ele><time>2026-03-28T11:22:26Z</time></trkpt><trkpt lat="14.835797134392543" lon="120.89823278432397"><ele>6.333333333333334</ele><time>2026-03-28T11:22:27Z</time></trkpt><trkpt lat="14.835905810689098" lon="120.89804653863688"><ele>6.666666666666667</ele><time>2026-03-28T11:22:28Z</time></trkpt><trkpt lat="14.836009039224853" lon="120.89785988975645"><ele>7.0</ele><time>2026-03-28T11:22:29Z</time></trkpt><trkpt lat="14.836116972787824" lon="120.89767225040292"><ele>9.0</ele><time>2026-03-28T11:22:30Z</time></trkpt><trkpt lat="14.836224648230232" lon="120.89748434771123"><ele>11.0</ele><time>2026-03-28T11:22:31Z</time></trkpt><trkpt lat="14.836335255676405" lon="120.89728531943261"><ele>13.0</ele><time>2026-03-28T11:22:32Z</time></trkpt><trkpt lat="14.836449186013688" lon="120.89708757888059"><ele>13.0</ele><time>2026-03-28T11:22:33Z</time></trkpt><trkpt lat="14.836561448513622" lon="120.8968799435126"><ele>13.0</ele><time>2026-03-28T11:22:34Z</time></trkpt><trkpt lat="14.836673516157674" lon="120.89669182516477"><ele>13.0</ele><time>2026-03-28T11:22:35Z</time></trkpt><trkpt lat="14.836788408811303" lon="120.89650227705349"><ele>11.0</ele><time>2026-03-28T11:22:36Z</time></trkpt><trkpt lat="14.83690246574556" lon="120.89631262620051"><ele>9.0</ele><time>2026-03-28T11:22:37Z</time></trkpt><trkpt lat="14.837013886063463" lon="120.89612193541794"><ele>7.0</ele><time>2026-03-28T11:22:38Z</time></trkpt><trkpt lat="14.837127151831316" lon="120.89592835626229"><ele>7.666666666666667</ele><time>2026-03-28T11:22:39Z</time></trkpt><trkpt lat="14.837239963003233" lon="120.89573548754305"><ele>8.333333333333334</ele><time>2026-03-28T11:22:40Z</time></trkpt><trkpt lat="14.83735151839247" lon="120.89554845981436"><ele>9.0</ele><time>2026-03-28T11:22:41Z</time></trkpt><trkpt lat="14.837472568060415" lon="120.89534954869814"><ele>9.0</ele><time>2026-03-28T11:22:42Z</time></trkpt><trkpt lat="14.837587893033854" lon="120.89515360011248"><ele>9.0</ele><time>2026-03-28T11:22:43Z</time></trkpt><trkpt lat="14.837711282617496" lon="120.89496415011607"><ele>9.0</ele><time>2026-03-28T11:22:44Z</time></trkpt><trkpt lat="14.83783355171002" lon="120.89476119725411"><ele>10.0</ele><time>2026-03-28T11:22:45Z</time></trkpt><trkpt lat="14.837962222366048" lon="120.89455272299539"><ele>11.0</ele><time>2026-03-28T11:22:46Z</time></trkpt><trkpt lat="14.838086228680082" lon="120.89435576367048"><ele>12.0</ele><time>2026-03-28T11:22:47Z</time></trkpt><trkpt lat="14.838212971529046" lon="120.89416141599203"><ele>13.0</ele><time>2026-03-28T11:22:48Z</time></trkpt><trkpt lat="14.838335125977995" lon="120.89395467127204"><ele>13.0</ele><time>2026-03-28T11:22:49Z</time></trkpt><trkpt lat="14.838458571289605" lon="120.89375354163344"><ele>13.0</ele><time>2026-03-28T11:22:50Z</time></trkpt><trkpt lat="14.838582107725173" lon="120.89355137682992"><ele>13.0</ele><time>2026-03-28T11:22:51Z</time></trkpt><trkpt lat="14.838709212161412" lon="120.89335569531667"><ele>13.0</ele><time>2026-03-28T11:22:52Z</time></trkpt><trkpt lat="14.838831536699683" lon="120.89316417994227"><ele>13.0</ele><time>2026-03-28T11:22:53Z</time></trkpt><trkpt lat="14.83895159537252" lon="120.8929663203414"><ele>13.0</ele><time>2026-03-28T11:22:54Z</time></trkpt><trkpt lat="14.839078742095067" lon="120.89276463356985"><ele>13.0</ele><time>2026-03-28T11:22:55Z</time></trkpt><trkpt lat="14.83920627859995" lon="120.89256852917286"><ele>13.0</ele><time>2026-03-28T11:22:56Z</time></trkpt><trkpt lat="14.839329588202768" lon="120.89237371515839"><ele>13.0</ele><time>2026-03-28T11:22:57Z</time></trkpt><trkpt lat="14.8394589774882" lon="120.89218185054396"><ele>13.0</ele><time>2026-03-28T11:22:58Z</time></trkpt><trkpt lat="14.839586353609231" lon="120.89197726171653"><ele>13.0</ele><time>2026-03-28T11:22:59Z</time></trkpt><trkpt lat="14.83971244428634" lon="120.89177999482473"><ele>13.0</ele><time>2026-03-28T11:23:00Z</time></trkpt><trkpt lat="14.839843712907534" lon="120.891582363116"><ele>12.0</ele><time>2026-03-28T11:23:01Z</time></trkpt><trkpt lat="14.839971498909714" lon="120.89137931537289"><ele>11.0</ele><time>2026-03-28T11:23:02Z</time></trkpt><trkpt lat="14.840106761312814" lon="120.89117278279032"><ele>10.5</ele><time>2026-03-28T11:23:03Z</time></trkpt><trkpt lat="14.840240554417099" lon="120.89096968238124"><ele>10.0</ele><time>2026-03-28T11:23:04Z</time></trkpt><trkpt lat="14.840373665079996" lon="120.89076762768904"><ele>10.0</ele><time>2026-03-28T11:23:05Z</time></trkpt><trkpt lat="14.840506239193383" lon="120.89056438653223"><ele>10.0</ele><time>2026-03-28T11:23:06Z</time></trkpt><trkpt lat="14.840645578511525" lon="120.89035767578734"><ele>10.0</ele><time>2026-03-28T11:23:07Z</time></trkpt><trkpt lat="14.840785481039767" lon="120.89015287588722"><ele>10.0</ele><time>2026-03-28T11:23:08Z</time></trkpt><trkpt lat="14.84092637825055" lon="120.88995116669183"><ele>10.5</ele><time>2026-03-28T11:23:09Z</time></trkpt><trkpt lat="14.841068745795935" lon="120.88974161712777"><ele>11.0</ele><time>2026-03-28T11:23:10Z</time></trkpt><trkpt lat="14.84121119705924" lon="120.88954175547032"><ele>11.0</ele><time>2026-03-28T11:23:11Z</time></trkpt><trkpt lat="14.841357220109131" lon="120.88934192037672"><ele>11.0</ele><time>2026-03-28T11:23:12Z</time></trkpt><trkpt lat="14.841498705599367" lon="120.88913195108779"><ele>11.5</ele><time>2026-03-28T11:23:13Z</time></trkpt><trkpt lat="14.841641496358728" lon="120.88892676680364"><ele>12.0</ele><time>2026-03-28T11:23:14Z</time></trkpt><trkpt lat="14.841785790216209" lon="120.88872032744153"><ele>12.0</ele><time>2026-03-28T11:23:15Z</time></trkpt><trkpt lat="14.841933280023854" lon="120.88851751334356"><ele>12.0</ele><time>2026-03-28T11:23:16Z</time></trkpt><trkpt lat="14.842076968101306" lon="120.88830848599306"><ele>11.0</ele><time>2026-03-28T11:23:17Z</time></trkpt><trkpt lat="14.842228572874596" lon="120.88810475564401"><ele>10.0</ele><time>2026-03-28T11:23:18Z</time></trkpt><trkpt lat="14.842380256489884" lon="120.88789617666198"><ele>10.0</ele><time>2026-03-28T11:23:19Z</time></trkpt><trkpt lat="14.842530760179967" lon="120.88768450426728"><ele>10.0</ele><time>2026-03-28T11:23:20Z</time></trkpt><trkpt lat="14.842685786019217" lon="120.8874795431812"><ele>9.5</ele><time>2026-03-28T11:23:21Z</time></trkpt><trkpt lat="14.842838305760633" lon="120.88727064479136"><ele>9.0</ele><time>2026-03-28T11:23:22Z</time></trkpt><trkpt lat="14.842989841061389" lon="120.88705613359132"><ele>9.0</ele><time>2026-03-28T11:23:23Z</time></trkpt><trkpt lat="14.843144668104774" lon="120.88684419933745"><ele>9.0</ele><time>2026-03-28T11:23:24Z</time></trkpt><trkpt lat="14.843302114958744" lon="120.88663090385842"><ele>8.0</ele><time>2026-03-28T11:23:25Z</time></trkpt><trkpt lat="14.84346285952979" lon="120.8864201027479"><ele>7.0</ele><time>2026-03-28T11:23:26Z</time></trkpt><trkpt lat="14.843624407217296" lon="120.88620832866394"><ele>7.0</ele><time>2026-03-28T11:23:27Z</time></trkpt><trkpt lat="14.843775321630996" lon="120.88598872479035"><ele>7.0</ele><time>2026-03-28T11:23:28Z</time></trkpt><trkpt lat="14.84393941713664" lon="120.88578226789494"><ele>7.0</ele><time>2026-03-28T11:23:29Z</time></trkpt><trkpt lat="14.84410127992492" lon="120.8855683016452"><ele>7.0</ele><time>2026-03-28T11:23:30Z</time></trkpt><trkpt lat="14.844268517185991" lon="120.88535397264987"><ele>7.0</ele><time>2026-03-28T11:23:31Z</time></trkpt><trkpt lat="14.844426528178715" lon="120.88514624040553"><ele>7.0</ele><time>2026-03-28T11:23:32Z</time></trkpt><trkpt lat="14.844593807798734" lon="120.88493441102462"><ele>7.0</ele><time>2026-03-28T11:23:33Z</time></trkpt><trkpt lat="14.844754226760841" lon="120.88472718935886"><ele>7.0</ele><time>2026-03-28T11:23:34Z</time></trkpt><trkpt lat="14.844918043036333" lon="120.8845054270347"><ele>7.0</ele><time>2026-03-28T11:23:35Z</time></trkpt><trkpt lat="14.845085861673436" lon="120.88429316008074"><ele>7.0</ele><time>2026-03-28T11:23:36Z</time></trkpt><trkpt lat="14.845241852633567" lon="120.88408659395145"><ele>6.5</ele><time>2026-03-28T11:23:37Z</time></trkpt><trkpt lat="14.845400852001088" lon="120.88388015677884"><ele>6.0</ele><time>2026-03-28T11:23:38Z</time></trkpt><trkpt lat="14.845555965236848" lon="120.88367022152815"><ele>6.0</ele><time>2026-03-28T11:23:39Z</time></trkpt><trkpt lat="14.845714179441307" lon="120.88346616750847"><ele>6.0</ele><time>2026-03-28T11:23:40Z</time></trkpt><trkpt lat="14.84587519138901" lon="120.88326552785699"><ele>7.0</ele><time>2026-03-28T11:23:41Z</time></trkpt><trkpt lat="14.846035499042431" lon="120.88306980001325"><ele>8.0</ele><time>2026-03-28T11:23:42Z</time></trkpt><trkpt lat="14.8461937438477" lon="120.88287040386982"><ele>8.0</ele><time>2026-03-28T11:23:43Z</time></trkpt><trkpt lat="14.84635849168101" lon="120.8826704824982"><ele>8.0</ele><time>2026-03-28T11:23:44Z</time></trkpt><trkpt lat="14.846520528313755" lon="120.8824750031194"><ele>8.5</ele><time>2026-03-28T11:23:45Z</time></trkpt><trkpt lat="14.846682097085486" lon="120.88227740394987"><ele>9.0</ele><time>2026-03-28T11:23:46Z</time></trkpt><trkpt lat="14.846846923104321" lon="120.88207178594752"><ele>9.5</ele><time>2026-03-28T11:23:47Z</time></trkpt><trkpt lat="14.847011066991247" lon="120.88187395156743"><ele>10.0</ele><time>2026-03-28T11:23:48Z</time></trkpt><trkpt lat="14.84717936845063" lon="120.88167381838844"><ele>10.0</ele><time>2026-03-28T11:23:49Z</time></trkpt><trkpt lat="14.847343954819571" lon="120.88147454522014"><ele>10.0</ele><time>2026-03-28T11:23:50Z</time></trkpt><trkpt lat="14.847509418758628" lon="120.88127707983777"><ele>8.5</ele><time>2026-03-28T11:23:51Z</time></trkpt><trkpt lat="14.847676906832485" lon="120.88107940743873"><ele>7.0</ele><time>2026-03-28T11:23:52Z</time></trkpt><trkpt lat="14.847845898207572" lon="120.8808742458604"><ele>6.5</ele><time>2026-03-28T11:23:53Z</time></trkpt><trkpt lat="14.848011117668436" lon="120.88066830945382"><ele>6.0</ele><time>2026-03-28T11:23:54Z</time></trkpt><trkpt lat="14.84817627485886" lon="120.88046702801441"><ele>6.0</ele><time>2026-03-28T11:23:55Z</time></trkpt><trkpt lat="14.848340650658391" lon="120.88026444040646"><ele>6.0</ele><time>2026-03-28T11:23:56Z</time></trkpt><trkpt lat="14.848502408145723" lon="120.88006020663984"><ele>6.5</ele><time>2026-03-28T11:23:57Z</time></trkpt><trkpt lat="14.848674081926417" lon="120.8798603028146"><ele>7.0</ele><time>2026-03-28T11:23:58Z</time></trkpt><trkpt lat="14.848834843412003" lon="120.87965794929255"><ele>7.0</ele><time>2026-03-28T11:23:59Z</time></trkpt><trkpt lat="14.848994634652643" lon="120.87945718420205"><ele>7.0</ele><time>2026-03-28T11:24:00Z</time></trkpt><trkpt lat="14.849162410041192" lon="120.87924642243762"><ele>7.5</ele><time>2026-03-28T11:24:01Z</time></trkpt><trkpt lat="14.849315632111697" lon="120.87904222917699"><ele>8.0</ele><time>2026-03-28T11:24:02Z</time></trkpt><trkpt lat="14.849474701483894" lon="120.87884028154876"><ele>8.0</ele><time>2026-03-28T11:24:03Z</time></trkpt><trkpt lat="14.84963199304982" lon="120.8786396590146"><ele>8.0</ele><time>2026-03-28T11:24:04Z</time></trkpt><trkpt lat="14.849791521883489" lon="120.87843604456053"><ele>8.0</ele><time>2026-03-28T11:24:05Z</time></trkpt><trkpt lat="14.849948366594425" lon="120.87822992041038"><ele>8.0</ele><time>2026-03-28T11:24:06Z</time></trkpt><trkpt lat="14.85010125848006" lon="120.87801689571786"><ele>7.5</ele><time>2026-03-28T11:24:07Z</time></trkpt><trkpt lat="14.850249717540951" lon="120.87781771128046"><ele>7.0</ele><time>2026-03-28T11:24:08Z</time></trkpt><trkpt lat="14.850402228739725" lon="120.87761076549957"><ele>6.5</ele><time>2026-03-28T11:24:09Z</time></trkpt><trkpt lat="14.850553076886303" lon="120.87740486300764"><ele>6.0</ele><time>2026-03-28T11:24:10Z</time></trkpt><trkpt lat="14.85071859405615" lon="120.87720327970443"><ele>6.0</ele><time>2026-03-28T11:24:11Z</time></trkpt><trkpt lat="14.850871600496584" lon="120.87699758322447"><ele>6.0</ele><time>2026-03-28T11:24:12Z</time></trkpt><trkpt lat="14.851018576978003" lon="120.87679317416038"><ele>6.0</ele><time>2026-03-28T11:24:13Z</time></trkpt><trkpt lat="14.851169734594722" lon="120.87659104243843"><ele>6.0</ele><time>2026-03-28T11:24:14Z</time></trkpt><trkpt lat="14.851324918454702" lon="120.87638388898382"><ele>6.0</ele><time>2026-03-28T11:24:15Z</time></trkpt><trkpt lat="14.851481230960786" lon="120.87618057797205"><ele>6.0</ele><time>2026-03-28T11:24:16Z</time></trkpt><trkpt lat="14.851642622647727" lon="120.87596906115128"><ele>6.5</ele><time>2026-03-28T11:24:17Z</time></trkpt><trkpt lat="14.851799836443847" lon="120.87576330189579"><ele>7.0</ele><time>2026-03-28T11:24:18Z</time></trkpt><trkpt lat="14.851956119369452" lon="120.87555348920785"><ele>7.0</ele><time>2026-03-28T11:24:19Z</time></trkpt><trkpt lat="14.852108445998802" lon="120.87533891822184"><ele>7.0</ele><time>2026-03-28T11:24:20Z</time></trkpt><trkpt lat="14.852253111915852" lon="120.87512765949148"><ele>8.5</ele><time>2026-03-28T11:24:21Z</time></trkpt><trkpt lat="14.852405501509965" lon="120.87492507546318"><ele>10.0</ele><time>2026-03-28T11:24:22Z</time></trkpt><trkpt lat="14.852548980082704" lon="120.8747207264784"><ele>9.5</ele><time>2026-03-28T11:24:23Z</time></trkpt><trkpt lat="14.85269076240054" lon="120.8745195477122"><ele>9.0</ele><time>2026-03-28T11:24:24Z</time></trkpt><trkpt lat="14.852831299360515" lon="120.87432174347195"><ele>9.0</ele><time>2026-03-28T11:24:25Z</time></trkpt><trkpt lat="14.852963183623677" lon="120.87412300507185"><ele>9.0</ele><time>2026-03-28T11:24:26Z</time></trkpt><trkpt lat="14.853098314694648" lon="120.8739305174741"><ele>9.0</ele><time>2026-03-28T11:24:27Z</time></trkpt><trkpt lat="14.853230150840776" lon="120.87374099700033"><ele>9.0</ele><time>2026-03-28T11:24:28Z</time></trkpt><trkpt lat="14.853362829785837" lon="120.87354768079052"><ele>9.0</ele><time>2026-03-28T11:24:29Z</time></trkpt><trkpt lat="14.853489749682677" lon="120.87336386809541"><ele>9.0</ele><time>2026-03-28T11:24:30Z</time></trkpt><trkpt lat="14.853615109783203" lon="120.87317950579136"><ele>9.0</ele><time>2026-03-28T11:24:31Z</time></trkpt><trkpt lat="14.85372927351725" lon="120.87299911518991"><ele>9.0</ele><time>2026-03-28T11:24:32Z</time></trkpt><trkpt lat="14.853844438046398" lon="120.87281953333883"><ele>9.0</ele><time>2026-03-28T11:24:33Z</time></trkpt><trkpt lat="14.853953952350203" lon="120.87264892316277"><ele>9.0</ele><time>2026-03-28T11:24:34Z</time></trkpt><trkpt lat="14.854068617678012" lon="120.87248135991358"><ele>9.333333333333334</ele><time>2026-03-28T11:24:35Z</time></trkpt><trkpt lat="14.85418165373393" lon="120.87230932221338"><ele>9.666666666666668</ele><time>2026-03-28T11:24:36Z</time></trkpt><trkpt lat="14.85429547852006" lon="120.87213037061385"><ele>10.0</ele><time>2026-03-28T11:24:37Z</time></trkpt><trkpt lat="14.854405899275998" lon="120.8719552768055"><ele>10.0</ele><time>2026-03-28T11:24:38Z</time></trkpt><trkpt lat="14.854523214431987" lon="120.87178159943898"><ele>10.0</ele><time>2026-03-28T11:24:39Z</time></trkpt><trkpt lat="14.854632371837823" lon="120.87161058825892"><ele>10.0</ele><time>2026-03-28T11:24:40Z</time></trkpt><trkpt lat="14.854740128375177" lon="120.8714294675081"><ele>10.0</ele><time>2026-03-28T11:24:41Z</time></trkpt><trkpt lat="14.85484292930527" lon="120.87125135937528"><ele>10.0</ele><time>2026-03-28T11:24:42Z</time></trkpt><trkpt lat="14.854955656550079" lon="120.87107256538731"><ele>10.0</ele><time>2026-03-28T11:24:43Z</time></trkpt><trkpt lat="14.855065033563456" lon="120.87089248735047"><ele>9.0</ele><time>2026-03-28T11:24:44Z</time></trkpt><trkpt lat="14.855175021538198" lon="120.8707098126745"><ele>8.0</ele><time>2026-03-28T11:24:45Z</time></trkpt><trkpt lat="14.85527965357246" lon="120.87053012562181"><ele>7.0</ele><time>2026-03-28T11:24:46Z</time></trkpt><trkpt lat="14.855385863373524" lon="120.87035354269342"><ele>7.0</ele><time>2026-03-28T11:24:47Z</time></trkpt><trkpt lat="14.855490385205675" lon="120.87017542895863"><ele>7.0</ele><time>2026-03-28T11:24:48Z</time></trkpt><trkpt lat="14.855598084358965" lon="120.86999840827417"><ele>7.0</ele><time>2026-03-28T11:24:49Z</time></trkpt><trkpt lat="14.855706120976055" lon="120.86981876743714"><ele>7.0</ele><time>2026-03-28T11:24:50Z</time></trkpt><trkpt lat="14.855810918862078" lon="120.86963644038242"><ele>7.0</ele><time>2026-03-28T11:24:51Z</time></trkpt><trkpt lat="14.855919669195076" lon="120.86945808523834"><ele>7.0</ele><time>2026-03-28T11:24:52Z</time></trkpt><trkpt lat="14.856028776967523" lon="120.86928188824412"><ele>8.0</ele><time>2026-03-28T11:24:53Z</time></trkpt><trkpt lat="14.856136619012512" lon="120.86910720204116"><ele>9.0</ele><time>2026-03-28T11:24:54Z</time></trkpt><trkpt lat="14.85624013854777" lon="120.86893552738726"><ele>10.0</ele><time>2026-03-28T11:24:55Z</time></trkpt><trkpt lat="14.856339897457051" lon="120.86876610855998"><ele>10.0</ele><time>2026-03-28T11:24:56Z</time></trkpt><trkpt lat="14.8564401405281" lon="120.86859427977325"><ele>10.0</ele><time>2026-03-28T11:24:57Z</time></trkpt><trkpt lat="14.856546027671543" lon="120.86842237608404"><ele>10.0</ele><time>2026-03-28T11:24:58Z</time></trkpt><trkpt lat="14.856652090972624" lon="120.86824838332267"><ele>10.333333333333334</ele><time>2026-03-28T11:24:59Z</time></trkpt><trkpt lat="14.856760619777454" lon="120.86807166083283"><ele>10.666666666666666</ele><time>2026-03-28T11:25:00Z</time></trkpt><trkpt lat="14.856870261160518" lon="120.86789556702945"><ele>11.0</ele><time>2026-03-28T11:25:01Z</time></trkpt><trkpt lat="14.85698347655397" lon="120.86771609650931"><ele>10.666666666666666</ele><time>2026-03-28T11:25:02Z</time></trkpt><trkpt lat="14.857096958690693" lon="120.86753069591306"><ele>10.333333333333334</ele><time>2026-03-28T11:25:03Z</time></trkpt><trkpt lat="14.857214717468482" lon="120.8673467616957"><ele>10.0</ele><time>2026-03-28T11:25:04Z</time></trkpt><trkpt lat="14.857331066584347" lon="120.86716184353779"><ele>10.0</ele><time>2026-03-28T11:25:05Z</time></trkpt><trkpt lat="14.857443946938924" lon="120.86696691390931"><ele>10.0</ele><time>2026-03-28T11:25:06Z</time></trkpt><trkpt lat="14.857558342694166" lon="120.86677644188768"><ele>10.0</ele><time>2026-03-28T11:25:07Z</time></trkpt><trkpt lat="14.85767847204623" lon="120.86658937042293"><ele>9.666666666666668</ele><time>2026-03-28T11:25:08Z</time></trkpt><trkpt lat="14.857793409755967" lon="120.86639902583929"><ele>9.333333333333334</ele><time>2026-03-28T11:25:09Z</time></trkpt><trkpt lat="14.857907583568226" lon="120.86621405562182"><ele>9.0</ele><time>2026-03-28T11:25:10Z</time></trkpt><trkpt lat="14.858019367408055" lon="120.86602776701407"><ele>9.333333333333334</ele><time>2026-03-28T11:25:11Z</time></trkpt><trkpt lat="14.85813100051769" lon="120.86583883446573"><ele>9.666666666666668</ele><time>2026-03-28T11:25:12Z</time></trkpt><trkpt lat="14.858241677634886" lon="120.86565490859537"><ele>10.0</ele><time>2026-03-28T11:25:13Z</time></trkpt><trkpt lat="14.858353280593304" lon="120.86546821107252"><ele>9.333333333333334</ele><time>2026-03-28T11:25:14Z</time></trkpt><trkpt lat="14.858462138843624" lon="120.86528395543858"><ele>8.666666666666666</ele><time>2026-03-28T11:25:15Z</time></trkpt><trkpt lat="14.85857628541445" lon="120.86509830774318"><ele>8.0</ele><time>2026-03-28T11:25:16Z</time></trkpt><trkpt lat="14.858684852715674" lon="120.86491398772647"><ele>8.0</ele><time>2026-03-28T11:25:17Z</time></trkpt><trkpt lat="14.858796701412938" lon="120.86472723579068"><ele>8.0</ele><time>2026-03-28T11:25:18Z</time></trkpt><trkpt lat="14.85890489747141" lon="120.86454433473571"><ele>8.0</ele><time>2026-03-28T11:25:19Z</time></trkpt><trkpt lat="14.859010185455563" lon="120.8643641204702"><ele>8.333333333333332</ele><time>2026-03-28T11:25:20Z</time></trkpt><trkpt lat="14.85911902050052" lon="120.86418340461059"><ele>8.666666666666666</ele><time>2026-03-28T11:25:21Z</time></trkpt><trkpt lat="14.85922586449576" lon="120.864004474239"><ele>9.0</ele><time>2026-03-28T11:25:22Z</time></trkpt><trkpt lat="14.859334513898467" lon="120.86383229989539"><ele>9.0</ele><time>2026-03-28T11:25:23Z</time></trkpt><trkpt lat="14.859439314274564" lon="120.8636552974562"><ele>9.0</ele><time>2026-03-28T11:25:24Z</time></trkpt><trkpt lat="14.859543851907835" lon="120.86347248789704"><ele>9.0</ele><time>2026-03-28T11:25:25Z</time></trkpt><trkpt lat="14.859646449632889" lon="120.8633050690446"><ele>9.333333333333334</ele><time>2026-03-28T11:25:26Z</time></trkpt><trkpt lat="14.859746251245298" lon="120.86313806977003"><ele>9.666666666666668</ele><time>2026-03-28T11:25:27Z</time></trkpt><trkpt lat="14.859845456809392" lon="120.86297553278914"><ele>10.0</ele><time>2026-03-28T11:25:28Z</time></trkpt><trkpt lat="14.859949173204173" lon="120.86281333149702"><ele>10.0</ele><time>2026-03-28T11:25:29Z</time></trkpt><trkpt lat="14.860048920239068" lon="120.8626465148231"><ele>10.0</ele><time>2026-03-28T11:25:30Z</time></trkpt><trkpt lat="14.860138678974126" lon="120.8624862166172"><ele>10.0</ele><time>2026-03-28T11:25:31Z</time></trkpt><trkpt lat="14.860227505656319" lon="120.86232998098698"><ele>9.666666666666668</ele><time>2026-03-28T11:25:32Z</time></trkpt><trkpt lat="14.860319338950355" lon="120.86217661694079"><ele>9.333333333333334</ele><time>2026-03-28T11:25:33Z</time></trkpt><trkpt lat="14.860405258515108" lon="120.86202511890693"><ele>9.0</ele><time>2026-03-28T11:25:34Z</time></trkpt><trkpt lat="14.860496564734467" lon="120.86188481074824"><ele>10.0</ele><time>2026-03-28T11:25:35Z</time></trkpt><trkpt lat="14.860581593972078" lon="120.86173868047177"><ele>11.0</ele><time>2026-03-28T11:25:36Z</time></trkpt><trkpt lat="14.860669987529276" lon="120.8615967733327"><ele>12.0</ele><time>2026-03-28T11:25:37Z</time></trkpt><trkpt lat="14.860762482800716" lon="120.86145244069029"><ele>12.0</ele><time>2026-03-28T11:25:38Z</time></trkpt><trkpt lat="14.860852331687719" lon="120.8613032702988"><ele>12.0</ele><time>2026-03-28T11:25:39Z</time></trkpt><trkpt lat="14.860944658039505" lon="120.86115067473064"><ele>12.0</ele><time>2026-03-28T11:25:40Z</time></trkpt><trkpt lat="14.861066814967336" lon="120.86100511644881"><ele>11.666666666666666</ele><time>2026-03-28T11:25:41Z</time></trkpt><trkpt lat="14.8611634633405" lon="120.86084535018787"><ele>11.333333333333332</ele><time>2026-03-28T11:25:42Z</time></trkpt><trkpt lat="14.861253703638333" lon="120.8606864428824"><ele>11.0</ele><time>2026-03-28T11:25:43Z</time></trkpt><trkpt lat="14.86137682545235" lon="120.86051815508318"><ele>11.0</ele><time>2026-03-28T11:25:44Z</time></trkpt><trkpt lat="14.861459369194021" lon="120.86034694199094"><ele>11.0</ele><time>2026-03-28T11:25:45Z</time></trkpt><trkpt lat="14.861565952767466" lon="120.86017835908753"><ele>11.0</ele><time>2026-03-28T11:25:46Z</time></trkpt><trkpt lat="14.861672891075942" lon="120.86000825834513"><ele>11.666666666666666</ele><time>2026-03-28T11:25:47Z</time></trkpt><trkpt lat="14.861783935489278" lon="120.8598172795539"><ele>12.333333333333332</ele><time>2026-03-28T11:25:48Z</time></trkpt><trkpt lat="14.86189051604178" lon="120.85964440552864"><ele>13.0</ele><time>2026-03-28T11:25:49Z</time></trkpt><trkpt lat="14.861997700012628" lon="120.8594783500404"><ele>13.0</ele><time>2026-03-28T11:25:50Z</time></trkpt><trkpt lat="14.862101326013315" lon="120.85929872061152"><ele>13.0</ele><time>2026-03-28T11:25:51Z</time></trkpt><trkpt lat="14.862210528838787" lon="120.85912710718276"><ele>13.0</ele><time>2026-03-28T11:25:52Z</time></trkpt><trkpt lat="14.862318855104846" lon="120.85895378704164"><ele>13.0</ele><time>2026-03-28T11:25:53Z</time></trkpt><trkpt lat="14.862428021570098" lon="120.85877941111254"><ele>13.0</ele><time>2026-03-28T11:25:54Z</time></trkpt><trkpt lat="14.862545176799934" lon="120.85860343083932"><ele>13.0</ele><time>2026-03-28T11:25:55Z</time></trkpt><trkpt lat="14.86266147611529" lon="120.85842701287942"><ele>13.0</ele><time>2026-03-28T11:25:56Z</time></trkpt><trkpt lat="14.862779492341751" lon="120.85824644587537"><ele>13.0</ele><time>2026-03-28T11:25:57Z</time></trkpt><trkpt lat="14.86289073088682" lon="120.85806280933774"><ele>13.0</ele><time>2026-03-28T11:25:58Z</time></trkpt><trkpt lat="14.863001514225466" lon="120.8578856983237"><ele>13.0</ele><time>2026-03-28T11:25:59Z</time></trkpt><trkpt lat="14.863126715954463" lon="120.85769977337813"><ele>13.0</ele><time>2026-03-28T11:26:00Z</time></trkpt><trkpt lat="14.863249437628772" lon="120.85751157555971"><ele>13.0</ele><time>2026-03-28T11:26:01Z</time></trkpt><trkpt lat="14.863379229572189" lon="120.85732830793958"><ele>13.0</ele><time>2026-03-28T11:26:02Z</time></trkpt><trkpt lat="14.863498453871768" lon="120.85714274981153"><ele>13.0</ele><time>2026-03-28T11:26:03Z</time></trkpt><trkpt lat="14.86362305029241" lon="120.85695833027503"><ele>13.0</ele><time>2026-03-28T11:26:04Z</time></trkpt><trkpt lat="14.863748083524825" lon="120.85677660122911"><ele>13.0</ele><time>2026-03-28T11:26:05Z</time></trkpt><trkpt lat="14.863877330435539" lon="120.85659362011496"><ele>13.0</ele><time>2026-03-28T11:26:06Z</time></trkpt><trkpt lat="14.864006559896904" lon="120.8564093448887"><ele>13.0</ele><time>2026-03-28T11:26:07Z</time></trkpt><trkpt lat="14.864131027127218" lon="120.85622423388452"><ele>13.0</ele><time>2026-03-28T11:26:08Z</time></trkpt><trkpt lat="14.864256448847295" lon="120.85604308664543"><ele>13.0</ele><time>2026-03-28T11:26:09Z</time></trkpt><trkpt lat="14.864382368386938" lon="120.85585980347422"><ele>13.0</ele><time>2026-03-28T11:26:10Z</time></trkpt><trkpt lat="14.864514398502466" lon="120.85568189247381"><ele>13.0</ele><time>2026-03-28T11:26:11Z</time></trkpt><trkpt lat="14.864646118991866" lon="120.85550360188114"><ele>13.0</ele><time>2026-03-28T11:26:12Z</time></trkpt><trkpt lat="14.86477655355295" lon="120.85532394797144"><ele>13.0</ele><time>2026-03-28T11:26:13Z</time></trkpt><trkpt lat="14.864908728206814" lon="120.8551388276377"><ele>12.666666666666666</ele><time>2026-03-28T11:26:14Z</time></trkpt><trkpt lat="14.86503974314315" lon="120.85496004516699"><ele>12.333333333333332</ele><time>2026-03-28T11:26:15Z</time></trkpt><trkpt lat="14.865173317712555" lon="120.85477734227052"><ele>12.0</ele><time>2026-03-28T11:26:16Z</time></trkpt><trkpt lat="14.865313004212949" lon="120.85459424974958"><ele>12.0</ele><time>2026-03-28T11:26:17Z</time></trkpt><trkpt lat="14.86544818478097" lon="120.85440846119194"><ele>12.0</ele><time>2026-03-28T11:26:18Z</time></trkpt><trkpt lat="14.865588847237888" lon="120.85422892014502"><ele>12.0</ele><time>2026-03-28T11:26:19Z</time></trkpt><trkpt lat="14.865724047833819" lon="120.85404409999578"><ele>12.0</ele><time>2026-03-28T11:26:20Z</time></trkpt><trkpt lat="14.86587266442816" lon="120.85384397559095"><ele>12.0</ele><time>2026-03-28T11:26:21Z</time></trkpt><trkpt lat="14.866013545514884" lon="120.85366419097608"><ele>12.0</ele><time>2026-03-28T11:26:22Z</time></trkpt><trkpt lat="14.866159155270571" lon="120.85346906711257"><ele>12.0</ele><time>2026-03-28T11:26:23Z</time></trkpt><trkpt lat="14.866309667963545" lon="120.85327609208555"><ele>10.5</ele><time>2026-03-28T11:26:24Z</time></trkpt><trkpt lat="14.86645847223908" lon="120.8530772002809"><ele>9.0</ele><time>2026-03-28T11:26:25Z</time></trkpt><trkpt lat="14.866606041699415" lon="120.85288845991832"><ele>9.0</ele><time>2026-03-28T11:26:26Z</time></trkpt><trkpt lat="14.866763747995739" lon="120.85269172185177"><ele>9.0</ele><time>2026-03-28T11:26:27Z</time></trkpt><trkpt lat="14.866920543178137" lon="120.85249026931727"><ele>8.5</ele><time>2026-03-28T11:26:28Z</time></trkpt><trkpt lat="14.867080021143154" lon="120.85229103542608"><ele>8.0</ele><time>2026-03-28T11:26:29Z</time></trkpt><trkpt lat="14.867251867532245" lon="120.85207104082632"><ele>8.0</ele><time>2026-03-28T11:26:30Z</time></trkpt><trkpt lat="14.867415331181997" lon="120.85187180825598"><ele>8.0</ele><time>2026-03-28T11:26:31Z</time></trkpt><trkpt lat="14.86757383084035" lon="120.85167723720967"><ele>9.0</ele><time>2026-03-28T11:26:32Z</time></trkpt><trkpt lat="14.86773703736127" lon="120.85147894766584"><ele>10.0</ele><time>2026-03-28T11:26:33Z</time></trkpt><trkpt lat="14.867896036438694" lon="120.85128058404254"><ele>10.0</ele><time>2026-03-28T11:26:34Z</time></trkpt><trkpt lat="14.868062037569805" lon="120.8510818457469"><ele>10.0</ele><time>2026-03-28T11:26:35Z</time></trkpt><trkpt lat="14.868225043151993" lon="120.85089333717468"><ele>10.5</ele><time>2026-03-28T11:26:36Z</time></trkpt><trkpt lat="14.86838487809874" lon="120.85069818174799"><ele>11.0</ele><time>2026-03-28T11:26:37Z</time></trkpt><trkpt lat="14.868535116863283" lon="120.85052013939614"><ele>10.0</ele><time>2026-03-28T11:26:38Z</time></trkpt><trkpt lat="14.86868146268447" lon="120.85033451249647"><ele>9.0</ele><time>2026-03-28T11:26:39Z</time></trkpt><trkpt lat="14.8688224204041" lon="120.85016065177872"><ele>9.0</ele><time>2026-03-28T11:26:40Z</time></trkpt><trkpt lat="14.868958284696184" lon="120.84999324155686"><ele>9.0</ele><time>2026-03-28T11:26:41Z</time></trkpt><trkpt lat="14.869092413778175" lon="120.84982941379099"><ele>9.0</ele><time>2026-03-28T11:26:42Z</time></trkpt><trkpt lat="14.869227820605452" lon="120.8496641482185"><ele>9.333333333333334</ele><time>2026-03-28T11:26:43Z</time></trkpt><trkpt lat="14.869357603478324" lon="120.84950564870037"><ele>9.666666666666668</ele><time>2026-03-28T11:26:44Z</time></trkpt><trkpt lat="14.869496208903671" lon="120.8493418594523"><ele>10.0</ele><time>2026-03-28T11:26:45Z</time></trkpt><trkpt lat="14.86962391485383" lon="120.84918479948091"><ele>10.0</ele><time>2026-03-28T11:26:46Z</time></trkpt><trkpt lat="14.869761125112984" lon="120.84902880006763"><ele>10.0</ele><time>2026-03-28T11:26:47Z</time></trkpt><trkpt lat="14.86990018873641" lon="120.84886352049446"><ele>10.0</ele><time>2026-03-28T11:26:48Z</time></trkpt><trkpt lat="14.87003355739274" lon="120.84870525085667"><ele>9.666666666666668</ele><time>2026-03-28T11:26:49Z</time></trkpt><trkpt lat="14.870164769566614" lon="120.84854764943246"><ele>9.333333333333334</ele><time>2026-03-28T11:26:50Z</time></trkpt><trkpt lat="14.870296886558044" lon="120.8483911482221"><ele>9.0</ele><time>2026-03-28T11:26:51Z</time></trkpt><trkpt lat="14.870430802567654" lon="120.84824151522949"><ele>9.0</ele><time>2026-03-28T11:26:52Z</time></trkpt><trkpt lat="14.870568713913002" lon="120.84808829417099"><ele>9.0</ele><time>2026-03-28T11:26:53Z</time></trkpt><trkpt lat="14.870712940043868" lon="120.84792875198627"><ele>9.0</ele><time>2026-03-28T11:26:54Z</time></trkpt><trkpt lat="14.870853118391564" lon="120.84777588092723"><ele>9.0</ele><time>2026-03-28T11:26:55Z</time></trkpt><trkpt lat="14.871000001745132" lon="120.84761750688844"><ele>9.0</ele><time>2026-03-28T11:26:56Z</time></trkpt><trkpt lat="14.871149630306588" lon="120.84745717811744"><ele>9.0</ele><time>2026-03-28T11:26:57Z</time></trkpt><trkpt lat="14.871305943800866" lon="120.84729201009813"><ele>9.0</ele><time>2026-03-28T11:26:58Z</time></trkpt><trkpt lat="14.87145280636961" lon="120.84713138030278"><ele>9.0</ele><time>2026-03-28T11:26:59Z</time></trkpt><trkpt lat="14.871607936039654" lon="120.84696972812883"><ele>9.0</ele><time>2026-03-28T11:27:00Z</time></trkpt><trkpt lat="14.871762386860778" lon="120.84681038076384"><ele>9.0</ele><time>2026-03-28T11:27:01Z</time></trkpt><trkpt lat="14.871920972490912" lon="120.84664877133224"><ele>9.0</ele><time>2026-03-28T11:27:02Z</time></trkpt><trkpt lat="14.87208192084352" lon="120.84648297409667"><ele>9.0</ele><time>2026-03-28T11:27:03Z</time></trkpt><trkpt lat="14.872242356020436" lon="120.84631097653558"><ele>9.0</ele><time>2026-03-28T11:27:04Z</time></trkpt><trkpt lat="14.872404634108404" lon="120.84614648364348"><ele>9.0</ele><time>2026-03-28T11:27:05Z</time></trkpt><trkpt lat="14.872567542456506" lon="120.8459797661175"><ele>9.0</ele><time>2026-03-28T11:27:06Z</time></trkpt><trkpt lat="14.8727278015726" lon="120.84581188372655"><ele>9.5</ele><time>2026-03-28T11:27:07Z</time></trkpt><trkpt lat="14.872901621473208" lon="120.84564298112197"><ele>10.0</ele><time>2026-03-28T11:27:08Z</time></trkpt><trkpt lat="14.873068977675993" lon="120.84547454339676"><ele>10.0</ele><time>2026-03-28T11:27:09Z</time></trkpt><trkpt lat="14.873233631190674" lon="120.84530566257351"><ele>10.0</ele><time>2026-03-28T11:27:10Z</time></trkpt><trkpt lat="14.87339700176263" lon="120.84513563185705"><ele>10.5</ele><time>2026-03-28T11:27:11Z</time></trkpt><trkpt lat="14.873562602085526" lon="120.84496861091233"><ele>11.0</ele><time>2026-03-28T11:27:12Z</time></trkpt><trkpt lat="14.873727631623728" lon="120.84479932657736"><ele>11.0</ele><time>2026-03-28T11:27:13Z</time></trkpt><trkpt lat="14.87389765710053" lon="120.84463307478102"><ele>11.0</ele><time>2026-03-28T11:27:14Z</time></trkpt><trkpt lat="14.874061750944957" lon="120.8444634147249"><ele>11.0</ele><time>2026-03-28T11:27:15Z</time></trkpt><trkpt lat="14.874229641151357" lon="120.84430003939772"><ele>11.0</ele><time>2026-03-28T11:27:16Z</time></trkpt><trkpt lat="14.874398915918965" lon="120.84413534896815"><ele>9.5</ele><time>2026-03-28T11:27:17Z</time></trkpt><trkpt lat="14.874568882463995" lon="120.84398156836355"><ele>8.0</ele><time>2026-03-28T11:27:18Z</time></trkpt><trkpt lat="14.874737914193528" lon="120.84381857517721"><ele>8.0</ele><time>2026-03-28T11:27:19Z</time></trkpt><trkpt lat="14.874903986391809" lon="120.84365050775565"><ele>8.0</ele><time>2026-03-28T11:27:20Z</time></trkpt><trkpt lat="14.875055317705526" lon="120.84349179557617"><ele>8.0</ele><time>2026-03-28T11:27:21Z</time></trkpt><trkpt lat="14.875220625149003" lon="120.84333127801229"><ele>8.666666666666666</ele><time>2026-03-28T11:27:22Z</time></trkpt><trkpt lat="14.875384299675463" lon="120.84317185894035"><ele>9.333333333333334</ele><time>2026-03-28T11:27:23Z</time></trkpt><trkpt lat="14.875542910966676" lon="120.84301563496716"><ele>10.0</ele><time>2026-03-28T11:27:24Z</time></trkpt><trkpt lat="14.87570645201143" lon="120.84285497561886"><ele>10.0</ele><time>2026-03-28T11:27:25Z</time></trkpt><trkpt lat="14.875874652928818" lon="120.84270355651923"><ele>10.0</ele><time>2026-03-28T11:27:26Z</time></trkpt><trkpt lat="14.876043361212707" lon="120.84254293983886"><ele>10.5</ele><time>2026-03-28T11:27:27Z</time></trkpt><trkpt lat="14.876212914851902" lon="120.84238230915078"><ele>11.0</ele><time>2026-03-28T11:27:28Z</time></trkpt><trkpt lat="14.87639223651998" lon="120.84221900499612"><ele>11.0</ele><time>2026-03-28T11:27:29Z</time></trkpt><trkpt lat="14.876569685749493" lon="120.84205344705133"><ele>11.0</ele><time>2026-03-28T11:27:30Z</time></trkpt><trkpt lat="14.876753281397734" lon="120.8418933394719"><ele>11.5</ele><time>2026-03-28T11:27:31Z</time></trkpt><trkpt lat="14.876930565308744" lon="120.84172955177591"><ele>12.0</ele><time>2026-03-28T11:27:32Z</time></trkpt><trkpt lat="14.877104186190188" lon="120.84156819102544"><ele>12.0</ele><time>2026-03-28T11:27:33Z</time></trkpt><trkpt lat="14.87728136002621" lon="120.84141242925773"><ele>12.0</ele><time>2026-03-28T11:27:34Z</time></trkpt><trkpt lat="14.877460516050759" lon="120.84125715044367"><ele>12.5</ele><time>2026-03-28T11:27:35Z</time></trkpt><trkpt lat="14.877638224339307" lon="120.84110168865415"><ele>13.0</ele><time>2026-03-28T11:27:36Z</time></trkpt><trkpt lat="14.877816509091938" lon="120.84094867725678"><ele>13.0</ele><time>2026-03-28T11:27:37Z</time></trkpt><trkpt lat="14.877993157774478" lon="120.84079273125384"><ele>13.0</ele><time>2026-03-28T11:27:38Z</time></trkpt><trkpt lat="14.878174531356935" lon="120.84063740172951"><ele>13.0</ele><time>2026-03-28T11:27:39Z</time></trkpt><trkpt lat="14.878348972464057" lon="120.84048866090438"><ele>13.0</ele><time>2026-03-28T11:27:40Z</time></trkpt><trkpt lat="14.878531015593067" lon="120.84033340606494"><ele>12.5</ele><time>2026-03-28T11:27:41Z</time></trkpt><trkpt lat="14.87871434877962" lon="120.84017978897006"><ele>12.0</ele><time>2026-03-28T11:27:42Z</time></trkpt><trkpt lat="14.878897598493777" lon="120.84002604832342"><ele>12.0</ele><time>2026-03-28T11:27:43Z</time></trkpt><trkpt lat="14.87908360310644" lon="120.83987282552764"><ele>12.0</ele><time>2026-03-28T11:27:44Z</time></trkpt><trkpt lat="14.87926977052612" lon="120.83971662076749"><ele>12.0</ele><time>2026-03-28T11:27:45Z</time></trkpt><trkpt lat="14.879451379048728" lon="120.83956310623218"><ele>12.0</ele><time>2026-03-28T11:27:46Z</time></trkpt><trkpt lat="14.879639996951601" lon="120.83941126261655"><ele>11.0</ele><time>2026-03-28T11:27:47Z</time></trkpt><trkpt lat="14.879826123628204" lon="120.83926165408761"><ele>10.0</ele><time>2026-03-28T11:27:48Z</time></trkpt><trkpt lat="14.88001049185494" lon="120.839111872469"><ele>10.333333333333334</ele><time>2026-03-28T11:27:49Z</time></trkpt><trkpt lat="14.880181018620481" lon="120.83896948924736"><ele>10.666666666666666</ele><time>2026-03-28T11:27:50Z</time></trkpt><trkpt lat="14.880354146382574" lon="120.83882891941381"><ele>11.0</ele><time>2026-03-28T11:27:51Z</time></trkpt><trkpt lat="14.880522817039301" lon="120.83868660244366"><ele>11.0</ele><time>2026-03-28T11:27:52Z</time></trkpt><trkpt lat="14.880690841079435" lon="120.83854758668244"><ele>11.0</ele><time>2026-03-28T11:27:53Z</time></trkpt><trkpt lat="14.880862116187876" lon="120.83841471630278"><ele>11.0</ele><time>2026-03-28T11:27:54Z</time></trkpt><trkpt lat="14.881030858018855" lon="120.83828276529906"><ele>11.0</ele><time>2026-03-28T11:27:55Z</time></trkpt><trkpt lat="14.881204078608238" lon="120.83815160795062"><ele>11.0</ele><time>2026-03-28T11:27:56Z</time></trkpt><trkpt lat="14.88137264635471" lon="120.83803021663894"><ele>11.0</ele><time>2026-03-28T11:27:57Z</time></trkpt><trkpt lat="14.881546279644905" lon="120.83790194512137"><ele>11.0</ele><time>2026-03-28T11:27:58Z</time></trkpt><trkpt lat="14.88172009203521" lon="120.83777275860584"><ele>11.0</ele><time>2026-03-28T11:27:59Z</time></trkpt><trkpt lat="14.881900179669953" lon="120.83764043646299"><ele>11.0</ele><time>2026-03-28T11:28:00Z</time></trkpt><trkpt lat="14.882077794796345" lon="120.83751114317559"><ele>10.666666666666666</ele><time>2026-03-28T11:28:01Z</time></trkpt><trkpt lat="14.882246946565582" lon="120.83738743647189"><ele>10.333333333333334</ele><time>2026-03-28T11:28:02Z</time></trkpt><trkpt lat="14.88242213115681" lon="120.83725124385106"><ele>10.0</ele><time>2026-03-28T11:28:03Z</time></trkpt><trkpt lat="14.882600425853354" lon="120.8371227990888"><ele>10.0</ele><time>2026-03-28T11:28:04Z</time></trkpt><trkpt lat="14.88277195902028" lon="120.83699291969411"><ele>10.0</ele><time>2026-03-28T11:28:05Z</time></trkpt><trkpt lat="14.882936616803134" lon="120.83687011966445"><ele>10.0</ele><time>2026-03-28T11:28:06Z</time></trkpt><trkpt lat="14.88310654712846" lon="120.83674488419854"><ele>10.333333333333334</ele><time>2026-03-28T11:28:07Z</time></trkpt><trkpt lat="14.883274853758033" lon="120.83661877307708"><ele>10.666666666666666</ele><time>2026-03-28T11:28:08Z</time></trkpt><trkpt lat="14.883448024523213" lon="120.83649401136648"><ele>11.0</ele><time>2026-03-28T11:28:09Z</time></trkpt><trkpt lat="14.883619705958859" lon="120.83636791365113"><ele>10.333333333333332</ele><time>2026-03-28T11:28:10Z</time></trkpt><trkpt lat="14.883795475917392" lon="120.83624900021032"><ele>9.666666666666666</ele><time>2026-03-28T11:28:11Z</time></trkpt><trkpt lat="14.883970721075931" lon="120.83612652393673"><ele>9.0</ele><time>2026-03-28T11:28:12Z</time></trkpt><trkpt lat="14.884149187372838" lon="120.83600101516387"><ele>10.0</ele><time>2026-03-28T11:28:13Z</time></trkpt><trkpt lat="14.884328015120186" lon="120.83587152508787"><ele>11.0</ele><time>2026-03-28T11:28:14Z</time></trkpt><trkpt lat="14.884508715951936" lon="120.83574451304989"><ele>12.0</ele><time>2026-03-28T11:28:15Z</time></trkpt><trkpt lat="14.884687343507904" lon="120.83561964236779"><ele>12.0</ele><time>2026-03-28T11:28:16Z</time></trkpt><trkpt lat="14.884865189165698" lon="120.83550148243245"><ele>12.0</ele><time>2026-03-28T11:28:17Z</time></trkpt><trkpt lat="14.885048110412407" lon="120.83538208766558"><ele>12.0</ele><time>2026-03-28T11:28:18Z</time></trkpt><trkpt lat="14.885233846480343" lon="120.8352588481591"><ele>11.666666666666666</ele><time>2026-03-28T11:28:19Z</time></trkpt><trkpt lat="14.885416699285228" lon="120.83512972511109"><ele>11.333333333333332</ele><time>2026-03-28T11:28:20Z</time></trkpt><trkpt lat="14.885602425394076" lon="120.8350049885512"><ele>11.0</ele><time>2026-03-28T11:28:21Z</time></trkpt><trkpt lat="14.885789901950515" lon="120.8348790226276"><ele>11.0</ele><time>2026-03-28T11:28:22Z</time></trkpt><trkpt lat="14.88597175523321" lon="120.83475345892516"><ele>11.0</ele><time>2026-03-28T11:28:23Z</time></trkpt><trkpt lat="14.886153856160533" lon="120.83463158446452"><ele>11.0</ele><time>2026-03-28T11:28:24Z</time></trkpt><trkpt lat="14.886335934854218" lon="120.83451021612035"><ele>11.0</ele><time>2026-03-28T11:28:25Z</time></trkpt><trkpt lat="14.886516286874075" lon="120.8343907005523"><ele>11.0</ele><time>2026-03-28T11:28:26Z</time></trkpt><trkpt lat="14.886698263459962" lon="120.83427447060433"><ele>11.0</ele><time>2026-03-28T11:28:27Z</time></trkpt><trkpt lat="14.886871873258443" lon="120.8341604922818"><ele>10.333333333333332</ele><time>2026-03-28T11:28:28Z</time></trkpt><trkpt lat="14.887041730712308" lon="120.8340448038435"><ele>9.666666666666666</ele><time>2026-03-28T11:28:29Z</time></trkpt><trkpt lat="14.887213937748502" lon="120.83393138546141"><ele>9.0</ele><time>2026-03-28T11:28:30Z</time></trkpt><trkpt lat="14.887387279452966" lon="120.83382145386066"><ele>9.0</ele><time>2026-03-28T11:28:31Z</time></trkpt><trkpt lat="14.887557657200619" lon="120.83371183440082"><ele>9.0</ele><time>2026-03-28T11:28:32Z</time></trkpt><trkpt lat="14.887722416485474" lon="120.83360368907184"><ele>9.0</ele><time>2026-03-28T11:28:33Z</time></trkpt><trkpt lat="14.887891016212452" lon="120.8334998620449"><ele>9.0</ele><time>2026-03-28T11:28:34Z</time></trkpt><trkpt lat="14.888060136396472" lon="120.83339403475695"><ele>9.0</ele><time>2026-03-28T11:28:35Z</time></trkpt><trkpt lat="14.888231057654234" lon="120.83329163391211"><ele>9.0</ele><time>2026-03-28T11:28:36Z</time></trkpt><trkpt lat="14.888398412959786" lon="120.83318714068443"><ele>9.333333333333334</ele><time>2026-03-28T11:28:37Z</time></trkpt><trkpt lat="14.888563882833777" lon="120.83308052918355"><ele>9.666666666666668</ele><time>2026-03-28T11:28:38Z</time></trkpt><trkpt lat="14.888734385672018" lon="120.83296683799912"><ele>10.0</ele><time>2026-03-28T11:28:39Z</time></trkpt><trkpt lat="14.888902408493633" lon="120.8328571810684"><ele>10.0</ele><time>2026-03-28T11:28:40Z</time></trkpt><trkpt lat="14.889077543118166" lon="120.83274326179186"><ele>10.0</ele><time>2026-03-28T11:28:41Z</time></trkpt><trkpt lat="14.889249632852774" lon="120.83263080572917"><ele>10.0</ele><time>2026-03-28T11:28:42Z</time></trkpt><trkpt lat="14.889423569885345" lon="120.8325131322122"><ele>9.666666666666668</ele><time>2026-03-28T11:28:43Z</time></trkpt><trkpt lat="14.889599295627724" lon="120.83239544421517"><ele>9.333333333333334</ele><time>2026-03-28T11:28:44Z</time></trkpt><trkpt lat="14.889772842536146" lon="120.83227662117758"><ele>9.0</ele><time>2026-03-28T11:28:45Z</time></trkpt><trkpt lat="14.88995188469359" lon="120.8321576385227"><ele>9.333333333333334</ele><time>2026-03-28T11:28:46Z</time></trkpt><trkpt lat="14.890131928067166" lon="120.8320360906683"><ele>9.666666666666668</ele><time>2026-03-28T11:28:47Z</time></trkpt><trkpt lat="14.890311812898018" lon="120.83191969411808"><ele>10.0</ele><time>2026-03-28T11:28:48Z</time></trkpt><trkpt lat="14.890490540285455" lon="120.83179598560032"><ele>9.333333333333334</ele><time>2026-03-28T11:28:49Z</time></trkpt><trkpt lat="14.890674424320295" lon="120.83167173143113"><ele>8.666666666666666</ele><time>2026-03-28T11:28:50Z</time></trkpt><trkpt lat="14.89085599289307" lon="120.83155002229941"><ele>8.0</ele><time>2026-03-28T11:28:51Z</time></trkpt><trkpt lat="14.891034834033709" lon="120.83142687980165"><ele>8.0</ele><time>2026-03-28T11:28:52Z</time></trkpt><trkpt lat="14.89121312548617" lon="120.83130396639373"><ele>8.0</ele><time>2026-03-28T11:28:53Z</time></trkpt><trkpt lat="14.891387949285535" lon="120.83118477166084"><ele>8.0</ele><time>2026-03-28T11:28:54Z</time></trkpt><trkpt lat="14.891558191338564" lon="120.83106536874965"><ele>8.333333333333332</ele><time>2026-03-28T11:28:55Z</time></trkpt><trkpt lat="14.891731906923612" lon="120.83094278869224"><ele>8.666666666666666</ele><time>2026-03-28T11:28:56Z</time></trkpt><trkpt lat="14.89191518363261" lon="120.83083755147783"><ele>9.0</ele><time>2026-03-28T11:28:57Z</time></trkpt><trkpt lat="14.892091936614982" lon="120.83071983493276"><ele>9.333333333333334</ele><time>2026-03-28T11:28:58Z</time></trkpt><trkpt lat="14.892266775523934" lon="120.83060159236177"><ele>9.666666666666668</ele><time>2026-03-28T11:28:59Z</time></trkpt><trkpt lat="14.892423243139405" lon="120.83045699879038"><ele>10.0</ele><time>2026-03-28T11:29:00Z</time></trkpt><trkpt lat="14.892596960519432" lon="120.83033148348828"><ele>10.0</ele><time>2026-03-28T11:29:01Z</time></trkpt><trkpt lat="14.892771702283078" lon="120.8302077280619"><ele>10.0</ele><time>2026-03-28T11:29:02Z</time></trkpt><trkpt lat="14.892945466501446" lon="120.83008165098"><ele>10.0</ele><time>2026-03-28T11:29:03Z</time></trkpt><trkpt lat="14.89312180838137" lon="120.82995445663956"><ele>10.333333333333334</ele><time>2026-03-28T11:29:04Z</time></trkpt><trkpt lat="14.893302250824657" lon="120.82982529015813"><ele>10.666666666666666</ele><time>2026-03-28T11:29:05Z</time></trkpt><trkpt lat="14.893482436842657" lon="120.82969470398896"><ele>11.0</ele><time>2026-03-28T11:29:06Z</time></trkpt><trkpt lat="14.893656329136316" lon="120.8295654361834"><ele>11.0</ele><time>2026-03-28T11:29:07Z</time></trkpt><trkpt lat="14.893836423289468" lon="120.82943261695632"><ele>11.0</ele><time>2026-03-28T11:29:08Z</time></trkpt><trkpt lat="14.894016936393198" lon="120.8292997499672"><ele>11.0</ele><time>2026-03-28T11:29:09Z</time></trkpt><trkpt lat="14.89419905624491" lon="120.82916337536197"><ele>11.5</ele><time>2026-03-28T11:29:10Z</time></trkpt><trkpt lat="14.894383786208454" lon="120.82902548130141"><ele>12.0</ele><time>2026-03-28T11:29:11Z</time></trkpt><trkpt lat="14.894568057332554" lon="120.82888741362245"><ele>12.0</ele><time>2026-03-28T11:29:12Z</time></trkpt><trkpt lat="14.894751906685977" lon="120.82874567465574"><ele>12.0</ele><time>2026-03-28T11:29:13Z</time></trkpt><trkpt lat="14.894937932346073" lon="120.82859648167316"><ele>12.5</ele><time>2026-03-28T11:29:14Z</time></trkpt><trkpt lat="14.895122741437719" lon="120.8284491767885"><ele>13.0</ele><time>2026-03-28T11:29:15Z</time></trkpt><trkpt lat="14.895311801794907" lon="120.82830526712044"><ele>13.0</ele><time>2026-03-28T11:29:16Z</time></trkpt><trkpt lat="14.895499776144847" lon="120.82815834994265"><ele>13.0</ele><time>2026-03-28T11:29:17Z</time></trkpt><trkpt lat="14.895694762976632" lon="120.82801243861054"><ele>13.0</ele><time>2026-03-28T11:29:18Z</time></trkpt><trkpt lat="14.895885597490471" lon="120.8278618015037"><ele>13.0</ele><time>2026-03-28T11:29:19Z</time></trkpt><trkpt lat="14.896080004574472" lon="120.82771060447331"><ele>11.0</ele><time>2026-03-28T11:29:20Z</time></trkpt><trkpt lat="14.896272835136239" lon="120.82755383097523"><ele>9.0</ele><time>2026-03-28T11:29:21Z</time></trkpt><trkpt lat="14.896462936083928" lon="120.8273965190038"><ele>9.0</ele><time>2026-03-28T11:29:22Z</time></trkpt><trkpt lat="14.896660996221417" lon="120.82724160431424"><ele>9.0</ele><time>2026-03-28T11:29:23Z</time></trkpt><trkpt lat="14.896855649460846" lon="120.82708540734563"><ele>9.5</ele><time>2026-03-28T11:29:24Z</time></trkpt><trkpt lat="14.897048819614014" lon="120.82692573417359"><ele>10.0</ele><time>2026-03-28T11:29:25Z</time></trkpt><trkpt lat="14.897239461024935" lon="120.82676786698802"><ele>11.0</ele><time>2026-03-28T11:29:26Z</time></trkpt><trkpt lat="14.897432340242045" lon="120.82660509604703"><ele>12.0</ele><time>2026-03-28T11:29:27Z</time></trkpt><trkpt lat="14.89762566307795" lon="120.82644484306951"><ele>12.5</ele><time>2026-03-28T11:29:28Z</time></trkpt><trkpt lat="14.897813629950853" lon="120.82628133627172"><ele>13.0</ele><time>2026-03-28T11:29:29Z</time></trkpt><trkpt lat="14.897999101472026" lon="120.82612003284774"><ele>13.0</ele><time>2026-03-28T11:29:30Z</time></trkpt><trkpt lat="14.898190558490725" lon="120.82595059899725"><ele>13.0</ele><time>2026-03-28T11:29:31Z</time></trkpt><trkpt lat="14.898380966457628" lon="120.82578373978306"><ele>12.5</ele><time>2026-03-28T11:29:32Z</time></trkpt><trkpt lat="14.898567587438956" lon="120.82561725739875"><ele>12.0</ele><time>2026-03-28T11:29:33Z</time></trkpt><trkpt lat="14.89876132623068" lon="120.8254495843317"><ele>12.0</ele><time>2026-03-28T11:29:34Z</time></trkpt><trkpt lat="14.898951621107702" lon="120.82528111972361"><ele>12.0</ele><time>2026-03-28T11:29:35Z</time></trkpt><trkpt lat="14.899142760081734" lon="120.82511220660965"><ele>13.5</ele><time>2026-03-28T11:29:36Z</time></trkpt><trkpt lat="14.899325382886131" lon="120.82495171372942"><ele>15.0</ele><time>2026-03-28T11:29:37Z</time></trkpt><trkpt lat="14.899503694913692" lon="120.82479361823142"><ele>15.0</ele><time>2026-03-28T11:29:38Z</time></trkpt><trkpt lat="14.899685449459875" lon="120.82463126322767"><ele>15.0</ele><time>2026-03-28T11:29:39Z</time></trkpt><trkpt lat="14.8998641932209" lon="120.82446884117574"><ele>15.5</ele><time>2026-03-28T11:29:40Z</time></trkpt><trkpt lat="14.900046458880139" lon="120.82430844245121"><ele>16.0</ele><time>2026-03-28T11:29:41Z</time></trkpt><trkpt lat="14.900228956714946" lon="120.82415310608847"><ele>16.5</ele><time>2026-03-28T11:29:42Z</time></trkpt><trkpt lat="14.900405275313604" lon="120.82399200249935"><ele>17.0</ele><time>2026-03-28T11:29:43Z</time></trkpt><trkpt lat="14.90058390379488" lon="120.8238329541116"><ele>17.0</ele><time>2026-03-28T11:29:44Z</time></trkpt><trkpt lat="14.900764923537483" lon="120.82367218869962"><ele>17.0</ele><time>2026-03-28T11:29:45Z</time></trkpt><trkpt lat="14.90094514942733" lon="120.8235182253365"><ele>16.5</ele><time>2026-03-28T11:29:46Z</time></trkpt><trkpt lat="14.901124583296602" lon="120.82335557837919"><ele>16.0</ele><time>2026-03-28T11:29:47Z</time></trkpt><trkpt lat="14.901299851474187" lon="120.82320634290089"><ele>16.0</ele><time>2026-03-28T11:29:48Z</time></trkpt><trkpt lat="14.90147620471335" lon="120.82305198963378"><ele>16.0</ele><time>2026-03-28T11:29:49Z</time></trkpt><trkpt lat="14.901650300807727" lon="120.82290132335275"><ele>16.0</ele><time>2026-03-28T11:29:50Z</time></trkpt><trkpt lat="14.901831589908621" lon="120.8227528533685"><ele>16.0</ele><time>2026-03-28T11:29:51Z</time></trkpt><trkpt lat="14.902015886037544" lon="120.82260603760702"><ele>16.0</ele><time>2026-03-28T11:29:52Z</time></trkpt><trkpt lat="14.902195560019967" lon="120.82245540749219"><ele>16.0</ele><time>2026-03-28T11:29:53Z</time></trkpt><trkpt lat="14.902372876468903" lon="120.82230166167245"><ele>16.0</ele><time>2026-03-28T11:29:54Z</time></trkpt><trkpt lat="14.902554937759378" lon="120.8221421132491"><ele>16.0</ele><time>2026-03-28T11:29:55Z</time></trkpt><trkpt lat="14.902736000198237" lon="120.82199227914668"><ele>14.5</ele><time>2026-03-28T11:29:56Z</time></trkpt><trkpt lat="14.902904619189854" lon="120.82183371011503"><ele>13.0</ele><time>2026-03-28T11:29:57Z</time></trkpt><trkpt lat="14.903088453418153" lon="120.82168373274965"><ele>13.0</ele><time>2026-03-28T11:29:58Z</time></trkpt><trkpt lat="14.903247449233344" lon="120.82153914777582"><ele>13.0</ele><time>2026-03-28T11:29:59Z</time></trkpt><trkpt lat="14.9034177544093" lon="120.82139829855406"><ele>13.0</ele><time>2026-03-28T11:30:00Z</time></trkpt><trkpt lat="14.903589985702817" lon="120.82124932940968"><ele>13.0</ele><time>2026-03-28T11:30:01Z</time></trkpt><trkpt lat="14.903770570841916" lon="120.82110057320887"><ele>13.0</ele><time>2026-03-28T11:30:02Z</time></trkpt><trkpt lat="14.9039440626895" lon="120.82095173116865"><ele>13.0</ele><time>2026-03-28T11:30:03Z</time></trkpt><trkpt lat="14.904117179997929" lon="120.82080386750106"><ele>13.0</ele><time>2026-03-28T11:30:04Z</time></trkpt><trkpt lat="14.904284703604416" lon="120.8206563705641"><ele>13.0</ele><time>2026-03-28T11:30:05Z</time></trkpt><trkpt lat="14.904451432785006" lon="120.82051541455782"><ele>13.333333333333332</ele><time>2026-03-28T11:30:06Z</time></trkpt><trkpt lat="14.90461595616585" lon="120.82036988382673"><ele>13.666666666666668</ele><time>2026-03-28T11:30:07Z</time></trkpt><trkpt lat="14.904773756452675" lon="120.82021961076816"><ele>14.0</ele><time>2026-03-28T11:30:08Z</time></trkpt><trkpt lat="14.904937605403115" lon="120.82006715121204"><ele>12.0</ele><time>2026-03-28T11:30:09Z</time></trkpt><trkpt lat="14.905097342797948" lon="120.81991946009653"><ele>10.0</ele><time>2026-03-28T11:30:10Z</time></trkpt><trkpt lat="14.905262985653897" lon="120.81977231214158"><ele>8.0</ele><time>2026-03-28T11:30:11Z</time></trkpt><trkpt lat="14.905423539146582" lon="120.81962878787866"><ele>8.0</ele><time>2026-03-28T11:30:12Z</time></trkpt><trkpt lat="14.905590636611336" lon="120.81948619918971"><ele>8.0</ele><time>2026-03-28T11:30:13Z</time></trkpt><trkpt lat="14.905754948426097" lon="120.81934137745874"><ele>8.0</ele><time>2026-03-28T11:30:14Z</time></trkpt><trkpt lat="14.905919138987667" lon="120.81919986943218"><ele>8.666666666666666</ele><time>2026-03-28T11:30:15Z</time></trkpt><trkpt lat="14.906082163469017" lon="120.81905527135011"><ele>9.333333333333334</ele><time>2026-03-28T11:30:16Z</time></trkpt><trkpt lat="14.906240119928778" lon="120.81891442075258"><ele>10.0</ele><time>2026-03-28T11:30:17Z</time></trkpt><trkpt lat="14.906402555799632" lon="120.81877582749263"><ele>10.0</ele><time>2026-03-28T11:30:18Z</time></trkpt><trkpt lat="14.906564049805397" lon="120.81863325650654"><ele>10.0</ele><time>2026-03-28T11:30:19Z</time></trkpt><trkpt lat="14.906729391632012" lon="120.81849149236139"><ele>10.0</ele><time>2026-03-28T11:30:20Z</time></trkpt><trkpt lat="14.906896362415614" lon="120.81834719144511"><ele>10.666666666666668</ele><time>2026-03-28T11:30:21Z</time></trkpt><trkpt lat="14.90705629600199" lon="120.81820463864504"><ele>11.333333333333334</ele><time>2026-03-28T11:30:22Z</time></trkpt><trkpt lat="14.907220852444516" lon="120.8180607263839"><ele>12.0</ele><time>2026-03-28T11:30:23Z</time></trkpt><trkpt lat="14.907386547698163" lon="120.81791895832006"><ele>12.0</ele><time>2026-03-28T11:30:24Z</time></trkpt><trkpt lat="14.907549783973545" lon="120.81777681000617"><ele>12.0</ele><time>2026-03-28T11:30:25Z</time></trkpt><trkpt lat="14.90769755978878" lon="120.81764141727639"><ele>12.0</ele><time>2026-03-28T11:30:26Z</time></trkpt><trkpt lat="14.90785167931962" lon="120.8175020583349"><ele>12.333333333333332</ele><time>2026-03-28T11:30:27Z</time></trkpt><trkpt lat="14.908001889382849" lon="120.81736469410706"><ele>12.666666666666666</ele><time>2026-03-28T11:30:28Z</time></trkpt><trkpt lat="14.908157950367784" lon="120.81722375992967"><ele>13.0</ele><time>2026-03-28T11:30:29Z</time></trkpt><trkpt lat="14.908304242611566" lon="120.81709771933319"><ele>12.333333333333332</ele><time>2026-03-28T11:30:30Z</time></trkpt><trkpt lat="14.908453364381662" lon="120.81697403369883"><ele>11.666666666666666</ele><time>2026-03-28T11:30:31Z</time></trkpt><trkpt lat="14.908589946184145" lon="120.81685031752819"><ele>11.0</ele><time>2026-03-28T11:30:32Z</time></trkpt><trkpt lat="14.90872310669322" lon="120.81672317607976"><ele>11.0</ele><time>2026-03-28T11:30:33Z</time></trkpt><trkpt lat="14.908864457617232" lon="120.816595186239"><ele>11.0</ele><time>2026-03-28T11:30:34Z</time></trkpt><trkpt lat="14.909013231173077" lon="120.8164594463889"><ele>11.0</ele><time>2026-03-28T11:30:35Z</time></trkpt><trkpt lat="14.909155801731805" lon="120.81633089680017"><ele>11.0</ele><time>2026-03-28T11:30:36Z</time></trkpt><trkpt lat="14.909300134756235" lon="120.81619469812168"><ele>11.0</ele><time>2026-03-28T11:30:37Z</time></trkpt><trkpt lat="14.909453217679273" lon="120.81606141442542"><ele>11.0</ele><time>2026-03-28T11:30:38Z</time></trkpt><trkpt lat="14.909602490879493" lon="120.81592972096182"><ele>11.0</ele><time>2026-03-28T11:30:39Z</time></trkpt><trkpt lat="14.90975459975076" lon="120.81579672221461"><ele>11.0</ele><time>2026-03-28T11:30:40Z</time></trkpt><trkpt lat="14.909905286520345" lon="120.81567116743183"><ele>11.0</ele><time>2026-03-28T11:30:41Z</time></trkpt><trkpt lat="14.91005245431413" lon="120.81554187032734"><ele>10.666666666666666</ele><time>2026-03-28T11:30:42Z</time></trkpt><trkpt lat="14.910212101811089" lon="120.81541397386852"><ele>10.333333333333334</ele><time>2026-03-28T11:30:43Z</time></trkpt><trkpt lat="14.910362885741533" lon="120.8152822917155"><ele>10.0</ele><time>2026-03-28T11:30:44Z</time></trkpt><trkpt lat="14.910511357358946" lon="120.81515142349907"><ele>10.0</ele><time>2026-03-28T11:30:45Z</time></trkpt><trkpt lat="14.910654347694283" lon="120.81502454480689"><ele>10.0</ele><time>2026-03-28T11:30:46Z</time></trkpt><trkpt lat="14.910800998145588" lon="120.81489310735367"><ele>10.0</ele><time>2026-03-28T11:30:47Z</time></trkpt><trkpt lat="14.910949834091067" lon="120.81476493999098"><ele>9.333333333333334</ele><time>2026-03-28T11:30:48Z</time></trkpt><trkpt lat="14.911099975967824" lon="120.81463565163997"><ele>8.666666666666666</ele><time>2026-03-28T11:30:49Z</time></trkpt><trkpt lat="14.911248823731043" lon="120.81450557608852"><ele>8.0</ele><time>2026-03-28T11:30:50Z</time></trkpt><trkpt lat="14.911402441406247" lon="120.81436890035889"><ele>8.666666666666666</ele><time>2026-03-28T11:30:51Z</time></trkpt><trkpt lat="14.911551803784517" lon="120.81423420451482"><ele>9.333333333333334</ele><time>2026-03-28T11:30:52Z</time></trkpt><trkpt lat="14.911708711980049" lon="120.81409914767936"><ele>10.0</ele><time>2026-03-28T11:30:53Z</time></trkpt><trkpt lat="14.911860025261529" lon="120.81396266805562"><ele>8.666666666666668</ele><time>2026-03-28T11:30:54Z</time></trkpt><trkpt lat="14.912009975254703" lon="120.8138284500282"><ele>7.333333333333334</ele><time>2026-03-28T11:30:55Z</time></trkpt><trkpt lat="14.912157722936739" lon="120.81369691887619"><ele>6.0</ele><time>2026-03-28T11:30:56Z</time></trkpt><trkpt lat="14.912312282028054" lon="120.81356473111411"><ele>6.333333333333334</ele><time>2026-03-28T11:30:57Z</time></trkpt><trkpt lat="14.9124689233953" lon="120.81342517097491"><ele>6.666666666666667</ele><time>2026-03-28T11:30:58Z</time></trkpt><trkpt lat="14.912618894299714" lon="120.81328643974567"><ele>7.0</ele><time>2026-03-28T11:30:59Z</time></trkpt><trkpt lat="14.912775497249752" lon="120.81315647535665"><ele>7.0</ele><time>2026-03-28T11:31:00Z</time></trkpt><trkpt lat="14.912934345289916" lon="120.8130178294834"><ele>7.0</ele><time>2026-03-28T11:31:01Z</time></trkpt><trkpt lat="14.91309401593774" lon="120.81287589147213"><ele>7.0</ele><time>2026-03-28T11:31:02Z</time></trkpt><trkpt lat="14.913251082785141" lon="120.81273463065652"><ele>7.333333333333334</ele><time>2026-03-28T11:31:03Z</time></trkpt><trkpt lat="14.913409191034713" lon="120.81259255317327"><ele>7.666666666666666</ele><time>2026-03-28T11:31:04Z</time></trkpt><trkpt lat="14.913575896132457" lon="120.81244805164002"><ele>8.0</ele><time>2026-03-28T11:31:05Z</time></trkpt><trkpt lat="14.913735511080633" lon="120.81230877442151"><ele>8.0</ele><time>2026-03-28T11:31:06Z</time></trkpt><trkpt lat="14.913903607008548" lon="120.81216380691076"><ele>8.0</ele><time>2026-03-28T11:31:07Z</time></trkpt><trkpt lat="14.914067935541583" lon="120.81201861689536"><ele>8.0</ele><time>2026-03-28T11:31:08Z</time></trkpt><trkpt lat="14.914229443101112" lon="120.81187512114545"><ele>8.0</ele><time>2026-03-28T11:31:09Z</time></trkpt><trkpt lat="14.914389678750831" lon="120.81173319808293"><ele>8.0</ele><time>2026-03-28T11:31:10Z</time></trkpt><trkpt lat="14.914549251873483" lon="120.81159764542718"><ele>8.0</ele><time>2026-03-28T11:31:11Z</time></trkpt><trkpt lat="14.914709183788522" lon="120.81146141762186"><ele>8.0</ele><time>2026-03-28T11:31:12Z</time></trkpt><trkpt lat="14.914857650397153" lon="120.8113309762625"><ele>8.0</ele><time>2026-03-28T11:31:13Z</time></trkpt><trkpt lat="14.915007647334468" lon="120.81119527293018"><ele>8.0</ele><time>2026-03-28T11:31:14Z</time></trkpt><trkpt lat="14.915158060206993" lon="120.81106447175964"><ele>8.0</ele><time>2026-03-28T11:31:15Z</time></trkpt><trkpt lat="14.915307231003403" lon="120.8109417641169"><ele>8.0</ele><time>2026-03-28T11:31:16Z</time></trkpt><trkpt lat="14.91546501875041" lon="120.81080969507711"><ele>8.0</ele><time>2026-03-28T11:31:17Z</time></trkpt><trkpt lat="14.91561527344628" lon="120.81067331954254"><ele>8.0</ele><time>2026-03-28T11:31:18Z</time></trkpt><trkpt lat="14.91575672752637" lon="120.81054769648973"><ele>8.0</ele><time>2026-03-28T11:31:19Z</time></trkpt><trkpt lat="14.915902069166831" lon="120.81041888502732"><ele>8.0</ele><time>2026-03-28T11:31:20Z</time></trkpt><trkpt lat="14.916042223851171" lon="120.81028999506286"><ele>7.666666666666666</ele><time>2026-03-28T11:31:21Z</time></trkpt><trkpt lat="14.9161965713264" lon="120.8101612051633"><ele>7.333333333333334</ele><time>2026-03-28T11:31:22Z</time></trkpt><trkpt lat="14.91634872282736" lon="120.81002806142646"><ele>7.0</ele><time>2026-03-28T11:31:23Z</time></trkpt><trkpt lat="14.916494001419583" lon="120.80990303962143"><ele>7.0</ele><time>2026-03-28T11:31:24Z</time></trkpt><trkpt lat="14.916634460873558" lon="120.80978311087823"><ele>7.0</ele><time>2026-03-28T11:31:25Z</time></trkpt><trkpt lat="14.91677770819522" lon="120.8096524273641"><ele>7.0</ele><time>2026-03-28T11:31:26Z</time></trkpt><trkpt lat="14.916929076762777" lon="120.80951856359019"><ele>6.666666666666667</ele><time>2026-03-28T11:31:27Z</time></trkpt><trkpt lat="14.917071822070536" lon="120.80939158507518"><ele>6.333333333333334</ele><time>2026-03-28T11:31:28Z</time></trkpt><trkpt lat="14.91721951806553" lon="120.80926315165549"><ele>6.0</ele><time>2026-03-28T11:31:29Z</time></trkpt><trkpt lat="14.917365346625171" lon="120.80913647689128"><ele>6.0</ele><time>2026-03-28T11:31:30Z</time></trkpt><trkpt lat="14.917507092079479" lon="120.80900408552876"><ele>6.0</ele><time>2026-03-28T11:31:31Z</time></trkpt><trkpt lat="14.917653725939859" lon="120.80886546994945"><ele>6.0</ele><time>2026-03-28T11:31:32Z</time></trkpt><trkpt lat="14.917806941756949" lon="120.80872564979178"><ele>6.0</ele><time>2026-03-28T11:31:33Z</time></trkpt><trkpt lat="14.917980540243946" lon="120.80858358399264"><ele>6.0</ele><time>2026-03-28T11:31:34Z</time></trkpt><trkpt lat="14.91814158233896" lon="120.80844920897333"><ele>6.0</ele><time>2026-03-28T11:31:35Z</time></trkpt><trkpt lat="14.918294252732858" lon="120.8083083919974"><ele>7.0</ele><time>2026-03-28T11:31:36Z</time></trkpt><trkpt lat="14.918456244857625" lon="120.80817743945761"><ele>8.0</ele><time>2026-03-28T11:31:37Z</time></trkpt><trkpt lat="14.918610223563647" lon="120.80805250685852"><ele>9.0</ele><time>2026-03-28T11:31:38Z</time></trkpt><trkpt lat="14.918777989189925" lon="120.80792024294674"><ele>9.0</ele><time>2026-03-28T11:31:39Z</time></trkpt><trkpt lat="14.918927387206217" lon="120.8077928266501"><ele>9.0</ele><time>2026-03-28T11:31:40Z</time></trkpt><trkpt lat="14.91908648031481" lon="120.80766347908938"><ele>9.0</ele><time>2026-03-28T11:31:41Z</time></trkpt><trkpt lat="14.919241155938591" lon="120.80753552619322"><ele>8.666666666666666</ele><time>2026-03-28T11:31:42Z</time></trkpt><trkpt lat="14.919392647187932" lon="120.80740573829522"><ele>8.333333333333332</ele><time>2026-03-28T11:31:43Z</time></trkpt><trkpt lat="14.919551058758486" lon="120.80726337123085"><ele>8.0</ele><time>2026-03-28T11:31:44Z</time></trkpt><trkpt lat="14.919723527205887" lon="120.80711832350408"><ele>8.0</ele><time>2026-03-28T11:31:45Z</time></trkpt><trkpt lat="14.919897977576163" lon="120.80696748106637"><ele>8.0</ele><time>2026-03-28T11:31:46Z</time></trkpt><trkpt lat="14.920076664417348" lon="120.80681827982889"><ele>7.5</ele><time>2026-03-28T11:31:47Z</time></trkpt><trkpt lat="14.920276328308304" lon="120.80665725173104"><ele>7.0</ele><time>2026-03-28T11:31:48Z</time></trkpt><trkpt lat="14.920460452593154" lon="120.80648315545126"><ele>7.0</ele><time>2026-03-28T11:31:49Z</time></trkpt><trkpt lat="14.920649837241612" lon="120.80630549440157"><ele>7.0</ele><time>2026-03-28T11:31:50Z</time></trkpt><trkpt lat="14.920844004181149" lon="120.80611992898605"><ele>6.5</ele><time>2026-03-28T11:31:51Z</time></trkpt><trkpt lat="14.921031019788577" lon="120.805946533401"><ele>6.0</ele><time>2026-03-28T11:31:52Z</time></trkpt><trkpt lat="14.921205574077577" lon="120.80578176205431"><ele>6.0</ele><time>2026-03-28T11:31:53Z</time></trkpt><trkpt lat="14.921413817892072" lon="120.80560422558284"><ele>6.0</ele><time>2026-03-28T11:31:54Z</time></trkpt><trkpt lat="14.921609445492077" lon="120.80543105388696"><ele>6.5</ele><time>2026-03-28T11:31:55Z</time></trkpt><trkpt lat="14.921813429356442" lon="120.80526197997575"><ele>7.0</ele><time>2026-03-28T11:31:56Z</time></trkpt><trkpt lat="14.922009110197772" lon="120.80509362042245"><ele>6.0</ele><time>2026-03-28T11:31:57Z</time></trkpt><trkpt lat="14.922214582697675" lon="120.80492628531691"><ele>5.0</ele><time>2026-03-28T11:31:58Z</time></trkpt><trkpt lat="14.922406178505964" lon="120.80475535910759"><ele>5.5</ele><time>2026-03-28T11:31:59Z</time></trkpt><trkpt lat="14.922599925071177" lon="120.80458774455"><ele>6.0</ele><time>2026-03-28T11:32:00Z</time></trkpt><trkpt lat="14.922798966773744" lon="120.80441700563726"><ele>7.0</ele><time>2026-03-28T11:32:01Z</time></trkpt><trkpt lat="14.92299512512633" lon="120.80424421026464"><ele>8.0</ele><time>2026-03-28T11:32:02Z</time></trkpt><trkpt lat="14.923186352410548" lon="120.80408105658422"><ele>8.0</ele><time>2026-03-28T11:32:03Z</time></trkpt><trkpt lat="14.923372032716935" lon="120.80391699360165"><ele>8.0</ele><time>2026-03-28T11:32:04Z</time></trkpt><trkpt lat="14.923560291113127" lon="120.80375204763303"><ele>7.5</ele><time>2026-03-28T11:32:05Z</time></trkpt><trkpt lat="14.923744141035396" lon="120.80358866161642"><ele>7.0</ele><time>2026-03-28T11:32:06Z</time></trkpt><trkpt lat="14.923923697176788" lon="120.80343368367745"><ele>7.0</ele><time>2026-03-28T11:32:07Z</time></trkpt><trkpt lat="14.924112962959057" lon="120.80327039510132"><ele>7.0</ele><time>2026-03-28T11:32:08Z</time></trkpt><trkpt lat="14.92429841824749" lon="120.8031050003"><ele>7.0</ele><time>2026-03-28T11:32:09Z</time></trkpt><trkpt lat="14.924475629082837" lon="120.80293050610571"><ele>7.0</ele><time>2026-03-28T11:32:10Z</time></trkpt><trkpt lat="14.924656805827683" lon="120.80277227548042"><ele>7.5</ele><time>2026-03-28T11:32:11Z</time></trkpt><trkpt lat="14.924834916930454" lon="120.80260511942467"><ele>8.0</ele><time>2026-03-28T11:32:12Z</time></trkpt><trkpt lat="14.925016502277776" lon="120.80244658130928"><ele>7.0</ele><time>2026-03-28T11:32:13Z</time></trkpt><trkpt lat="14.92519532354497" lon="120.80228873587329"><ele>6.0</ele><time>2026-03-28T11:32:14Z</time></trkpt><trkpt lat="14.925367653596114" lon="120.80213977288852"><ele>6.0</ele><time>2026-03-28T11:32:15Z</time></trkpt><trkpt lat="14.925546349156367" lon="120.80198248371649"><ele>6.0</ele><time>2026-03-28T11:32:16Z</time></trkpt><trkpt lat="14.925728992626038" lon="120.80182049978497"><ele>5.5</ele><time>2026-03-28T11:32:17Z</time></trkpt><trkpt lat="14.925915942652521" lon="120.801665576321"><ele>5.0</ele><time>2026-03-28T11:32:18Z</time></trkpt><trkpt lat="14.926092864629528" lon="120.80150822078123"><ele>5.0</ele><time>2026-03-28T11:32:19Z</time></trkpt><trkpt lat="14.926275677278351" lon="120.80135080313605"><ele>5.0</ele><time>2026-03-28T11:32:20Z</time></trkpt><trkpt lat="14.926453477745811" lon="120.80118323571705"><ele>5.0</ele><time>2026-03-28T11:32:21Z</time></trkpt><trkpt lat="14.926636020871582" lon="120.80102604763138"><ele>5.0</ele><time>2026-03-28T11:32:22Z</time></trkpt><trkpt lat="14.926820838015514" lon="120.80087086037116"><ele>4.5</ele><time>2026-03-28T11:32:23Z</time></trkpt><trkpt lat="14.927008011707645" lon="120.80072012805108"><ele>4.0</ele><time>2026-03-28T11:32:24Z</time></trkpt><trkpt lat="14.927186165012726" lon="120.80056469106643"><ele>4.0</ele><time>2026-03-28T11:32:25Z</time></trkpt><trkpt lat="14.927354984692235" lon="120.80041292058692"><ele>4.0</ele><time>2026-03-28T11:32:26Z</time></trkpt><trkpt lat="14.927539842549356" lon="120.80025366534252"><ele>3.5</ele><time>2026-03-28T11:32:27Z</time></trkpt><trkpt lat="14.92772124928774" lon="120.80009567550957"><ele>3.0</ele><time>2026-03-28T11:32:28Z</time></trkpt><trkpt lat="14.927902979775348" lon="120.79993974420324"><ele>3.0</ele><time>2026-03-28T11:32:29Z</time></trkpt><trkpt lat="14.928088547493076" lon="120.79977784463118"><ele>3.0</ele><time>2026-03-28T11:32:30Z</time></trkpt><trkpt lat="14.928274389834927" lon="120.79961485424508"><ele>3.5</ele><time>2026-03-28T11:32:31Z</time></trkpt><trkpt lat="14.928463217573547" lon="120.79945387130918"><ele>4.0</ele><time>2026-03-28T11:32:32Z</time></trkpt><trkpt lat="14.92865901147013" lon="120.79928516324804"><ele>4.5</ele><time>2026-03-28T11:32:33Z</time></trkpt><trkpt lat="14.928837146033247" lon="120.79912338730259"><ele>5.0</ele><time>2026-03-28T11:32:34Z</time></trkpt><trkpt lat="14.929012267207384" lon="120.79896421444576"><ele>5.0</ele><time>2026-03-28T11:32:35Z</time></trkpt><trkpt lat="14.929193625366748" lon="120.7988094520092"><ele>5.0</ele><time>2026-03-28T11:32:36Z</time></trkpt><trkpt lat="14.92937556884697" lon="120.79865332902648"><ele>5.0</ele><time>2026-03-28T11:32:37Z</time></trkpt><trkpt lat="14.929547014210577" lon="120.79849488572803"><ele>5.0</ele><time>2026-03-28T11:32:38Z</time></trkpt><trkpt lat="14.929735349548428" lon="120.7983271522519"><ele>5.0</ele><time>2026-03-28T11:32:39Z</time></trkpt><trkpt lat="14.929919964176715" lon="120.79816512863971"><ele>5.0</ele><time>2026-03-28T11:32:40Z</time></trkpt><trkpt lat="14.93010454932712" lon="120.79801200073048"><ele>5.5</ele><time>2026-03-28T11:32:41Z</time></trkpt><trkpt lat="14.930282123088757" lon="120.7978383452914"><ele>6.0</ele><time>2026-03-28T11:32:42Z</time></trkpt><trkpt lat="14.930456275164229" lon="120.79768678071089"><ele>5.5</ele><time>2026-03-28T11:32:43Z</time></trkpt><trkpt lat="14.930637469032128" lon="120.79753065033117"><ele>5.0</ele><time>2026-03-28T11:32:44Z</time></trkpt><trkpt lat="14.930817555587465" lon="120.79737529193736"><ele>5.5</ele><time>2026-03-28T11:32:45Z</time></trkpt><trkpt lat="14.9309889473709" lon="120.79722811393798"><ele>6.0</ele><time>2026-03-28T11:32:46Z</time></trkpt><trkpt lat="14.931169445364514" lon="120.7970672135171"><ele>6.0</ele><time>2026-03-28T11:32:47Z</time></trkpt><trkpt lat="14.931345779165934" lon="120.79691666878772"><ele>6.0</ele><time>2026-03-28T11:32:48Z</time></trkpt><trkpt lat="14.931521257311351" lon="120.79676045968006"><ele>6.0</ele><time>2026-03-28T11:32:49Z</time></trkpt><trkpt lat="14.931697047948276" lon="120.79660181235953"><ele>6.0</ele><time>2026-03-28T11:32:50Z</time></trkpt><trkpt lat="14.931873667771699" lon="120.79644784972426"><ele>6.0</ele><time>2026-03-28T11:32:51Z</time></trkpt><trkpt lat="14.932041636433258" lon="120.79629745387747"><ele>6.0</ele><time>2026-03-28T11:32:52Z</time></trkpt><trkpt lat="14.93221484737949" lon="120.79614036299459"><ele>5.5</ele><time>2026-03-28T11:32:53Z</time></trkpt><trkpt lat="14.932394663584084" lon="120.79598148869643"><ele>5.0</ele><time>2026-03-28T11:32:54Z</time></trkpt><trkpt lat="14.932574404249953" lon="120.79582509002667"><ele>5.0</ele><time>2026-03-28T11:32:55Z</time></trkpt><trkpt lat="14.932759035812655" lon="120.7956652414505"><ele>5.0</ele><time>2026-03-28T11:32:56Z</time></trkpt><trkpt lat="14.932930248898051" lon="120.7955125063897"><ele>5.0</ele><time>2026-03-28T11:32:57Z</time></trkpt><trkpt lat="14.9331154674405" lon="120.79535024279441"><ele>5.0</ele><time>2026-03-28T11:32:58Z</time></trkpt><trkpt lat="14.933294741512919" lon="120.79518943344092"><ele>6.0</ele><time>2026-03-28T11:32:59Z</time></trkpt><trkpt lat="14.933482632889088" lon="120.79502872831847"><ele>7.0</ele><time>2026-03-28T11:33:00Z</time></trkpt><trkpt lat="14.933663348164485" lon="120.79487014173215"><ele>7.0</ele><time>2026-03-28T11:33:01Z</time></trkpt><trkpt lat="14.93384327584702" lon="120.79470488834421"><ele>7.0</ele><time>2026-03-28T11:33:02Z</time></trkpt><trkpt lat="14.934031838707284" lon="120.79454788859334"><ele>7.0</ele><time>2026-03-28T11:33:03Z</time></trkpt><trkpt lat="14.934217102077223" lon="120.79438627138951"><ele>7.0</ele><time>2026-03-28T11:33:04Z</time></trkpt><trkpt lat="14.93440473284641" lon="120.79422739093947"><ele>7.0</ele><time>2026-03-28T11:33:05Z</time></trkpt><trkpt lat="14.934593717977888" lon="120.79406700099332"><ele>7.0</ele><time>2026-03-28T11:33:06Z</time></trkpt><trkpt lat="14.934779975630944" lon="120.79390612771827"><ele>7.0</ele><time>2026-03-28T11:33:07Z</time></trkpt><trkpt lat="14.934962808425672" lon="120.79374787014925"><ele>7.0</ele><time>2026-03-28T11:33:08Z</time></trkpt><trkpt lat="14.93514541391434" lon="120.79359537647741"><ele>5.5</ele><time>2026-03-28T11:33:09Z</time></trkpt><trkpt lat="14.93533720801096" lon="120.79343286331417"><ele>4.0</ele><time>2026-03-28T11:33:10Z</time></trkpt><trkpt lat="14.935520222142372" lon="120.79327453498654"><ele>4.0</ele><time>2026-03-28T11:33:11Z</time></trkpt><trkpt lat="14.935694216342782" lon="120.79312335384017"><ele>4.0</ele><time>2026-03-28T11:33:12Z</time></trkpt><trkpt lat="14.935879679975418" lon="120.79296394182114"><ele>5.0</ele><time>2026-03-28T11:33:13Z</time></trkpt><trkpt lat="14.936065064569814" lon="120.79279863568196"><ele>6.0</ele><time>2026-03-28T11:33:14Z</time></trkpt><trkpt lat="14.936238342687188" lon="120.7926436154272"><ele>6.0</ele><time>2026-03-28T11:33:15Z</time></trkpt><trkpt lat="14.936409889369617" lon="120.79248969375666"><ele>6.0</ele><time>2026-03-28T11:33:16Z</time></trkpt><trkpt lat="14.936589553502136" lon="120.7923347577966"><ele>5.5</ele><time>2026-03-28T11:33:17Z</time></trkpt><trkpt lat="14.93676412210777" lon="120.79218176768575"><ele>5.0</ele><time>2026-03-28T11:33:18Z</time></trkpt><trkpt lat="14.936941218759056" lon="120.79202790218176"><ele>5.0</ele><time>2026-03-28T11:33:19Z</time></trkpt><trkpt lat="14.937118574490322" lon="120.79187442618847"><ele>5.0</ele><time>2026-03-28T11:33:20Z</time></trkpt><trkpt lat="14.937293670360487" lon="120.79171989861445"><ele>5.0</ele><time>2026-03-28T11:33:21Z</time></trkpt><trkpt lat="14.937476156962552" lon="120.7915701520517"><ele>5.0</ele><time>2026-03-28T11:33:22Z</time></trkpt><trkpt lat="14.937651902237338" lon="120.79140940663605"><ele>5.0</ele><time>2026-03-28T11:33:23Z</time></trkpt><trkpt lat="14.937831509197066" lon="120.791250622653"><ele>5.0</ele><time>2026-03-28T11:33:24Z</time></trkpt><trkpt lat="14.938007213367413" lon="120.7910916276014"><ele>4.5</ele><time>2026-03-28T11:33:25Z</time></trkpt><trkpt lat="14.938188260298412" lon="120.790929283715"><ele>4.0</ele><time>2026-03-28T11:33:26Z</time></trkpt><trkpt lat="14.93836753593392" lon="120.79077056151162"><ele>4.0</ele><time>2026-03-28T11:33:27Z</time></trkpt><trkpt lat="14.938553441963231" lon="120.79060719232399"><ele>4.0</ele><time>2026-03-28T11:33:28Z</time></trkpt><trkpt lat="14.938732500570843" lon="120.79044810257666"><ele>4.0</ele><time>2026-03-28T11:33:29Z</time></trkpt><trkpt lat="14.938906557905685" lon="120.790296791859"><ele>4.0</ele><time>2026-03-28T11:33:30Z</time></trkpt><trkpt lat="14.939087203720534" lon="120.79013714424492"><ele>5.0</ele><time>2026-03-28T11:33:31Z</time></trkpt><trkpt lat="14.939276186704005" lon="120.78997791680563"><ele>6.0</ele><time>2026-03-28T11:33:32Z</time></trkpt><trkpt lat="14.93945874232706" lon="120.78981280795037"><ele>6.0</ele><time>2026-03-28T11:33:33Z</time></trkpt><trkpt lat="14.939643176007403" lon="120.7896563662492"><ele>6.0</ele><time>2026-03-28T11:33:34Z</time></trkpt><trkpt lat="14.939811667318013" lon="120.78950181165176"><ele>6.5</ele><time>2026-03-28T11:33:35Z</time></trkpt><trkpt lat="14.93999707828306" lon="120.78933836747164"><ele>7.0</ele><time>2026-03-28T11:33:36Z</time></trkpt><trkpt lat="14.940176844962776" lon="120.7891759170653"><ele>7.0</ele><time>2026-03-28T11:33:37Z</time></trkpt><trkpt lat="14.9403646581477" lon="120.78901405741259"><ele>7.0</ele><time>2026-03-28T11:33:38Z</time></trkpt><trkpt lat="14.940546377843832" lon="120.78885619976641"><ele>7.0</ele><time>2026-03-28T11:33:39Z</time></trkpt><trkpt lat="14.940729123795865" lon="120.78869524485317"><ele>7.0</ele><time>2026-03-28T11:33:40Z</time></trkpt><trkpt lat="14.94090520097416" lon="120.78853202145362"><ele>7.0</ele><time>2026-03-28T11:33:41Z</time></trkpt><trkpt lat="14.941088981394696" lon="120.78836749358824"><ele>7.0</ele><time>2026-03-28T11:33:42Z</time></trkpt><trkpt lat="14.941274065580133" lon="120.78820583127025"><ele>7.0</ele><time>2026-03-28T11:33:43Z</time></trkpt><trkpt lat="14.941461071140376" lon="120.78804443174808"><ele>7.0</ele><time>2026-03-28T11:33:44Z</time></trkpt><trkpt lat="14.941648605149634" lon="120.78788597695294"><ele>6.0</ele><time>2026-03-28T11:33:45Z</time></trkpt><trkpt lat="14.94183392482159" lon="120.7877257284272"><ele>5.0</ele><time>2026-03-28T11:33:46Z</time></trkpt><trkpt lat="14.942017271070842" lon="120.78756052337451"><ele>4.5</ele><time>2026-03-28T11:33:47Z</time></trkpt><trkpt lat="14.942196556682324" lon="120.78740317915172"><ele>4.0</ele><time>2026-03-28T11:33:48Z</time></trkpt><trkpt lat="14.942369462379707" lon="120.7872479665352"><ele>4.0</ele><time>2026-03-28T11:33:49Z</time></trkpt><trkpt lat="14.942541479661864" lon="120.78710219051261"><ele>4.0</ele><time>2026-03-28T11:33:50Z</time></trkpt><trkpt lat="14.942710445472441" lon="120.78695711508635"><ele>4.0</ele><time>2026-03-28T11:33:51Z</time></trkpt><trkpt lat="14.942878405329411" lon="120.78681862904696"><ele>4.0</ele><time>2026-03-28T11:33:52Z</time></trkpt><trkpt lat="14.943046230459062" lon="120.78667771140005"><ele>4.0</ele><time>2026-03-28T11:33:53Z</time></trkpt><trkpt lat="14.943206264643798" lon="120.78653632066941"><ele>4.0</ele><time>2026-03-28T11:33:54Z</time></trkpt><trkpt lat="14.943365348399032" lon="120.78639804640228"><ele>4.333333333333333</ele><time>2026-03-28T11:33:55Z</time></trkpt><trkpt lat="14.94352499762194" lon="120.78626134217173"><ele>4.666666666666667</ele><time>2026-03-28T11:33:56Z</time></trkpt><trkpt lat="14.94367805674204" lon="120.786125317937"><ele>5.0</ele><time>2026-03-28T11:33:57Z</time></trkpt><trkpt lat="14.943833364311757" lon="120.78598964498721"><ele>5.0</ele><time>2026-03-28T11:33:58Z</time></trkpt><trkpt lat="14.943987866476583" lon="120.78585968894576"><ele>5.0</ele><time>2026-03-28T11:33:59Z</time></trkpt><trkpt lat="14.944143714924698" lon="120.78573204212317"><ele>5.0</ele><time>2026-03-28T11:34:00Z</time></trkpt><trkpt lat="14.944298563811872" lon="120.78560020168004"><ele>5.0</ele><time>2026-03-28T11:34:01Z</time></trkpt><trkpt lat="14.944456483277907" lon="120.78547335262923"><ele>5.0</ele><time>2026-03-28T11:34:02Z</time></trkpt><trkpt lat="14.944610043139225" lon="120.78533935506945"><ele>5.0</ele><time>2026-03-28T11:34:03Z</time></trkpt><trkpt lat="14.944762440514284" lon="120.78520723748089"><ele>5.333333333333334</ele><time>2026-03-28T11:34:04Z</time></trkpt><trkpt lat="14.944910286289032" lon="120.78507254529794"><ele>5.666666666666667</ele><time>2026-03-28T11:34:05Z</time></trkpt><trkpt lat="14.94505925514826" lon="120.78494354183071"><ele>6.0</ele><time>2026-03-28T11:34:06Z</time></trkpt><trkpt lat="14.945208743402" lon="120.78481398446573"><ele>6.0</ele><time>2026-03-28T11:34:07Z</time></trkpt><trkpt lat="14.945360070726123" lon="120.78468322257902"><ele>6.0</ele><time>2026-03-28T11:34:08Z</time></trkpt><trkpt lat="14.945504804244925" lon="120.78454910588427"><ele>6.0</ele><time>2026-03-28T11:34:09Z</time></trkpt><trkpt lat="14.94564763248075" lon="120.784419346389"><ele>6.333333333333334</ele><time>2026-03-28T11:34:10Z</time></trkpt><trkpt lat="14.945802115431007" lon="120.78428852859598"><ele>6.666666666666667</ele><time>2026-03-28T11:34:11Z</time></trkpt><trkpt lat="14.945955787196523" lon="120.78416022930838"><ele>7.0</ele><time>2026-03-28T11:34:12Z</time></trkpt><trkpt lat="14.946094390241868" lon="120.78403561619412"><ele>6.333333333333334</ele><time>2026-03-28T11:34:13Z</time></trkpt><trkpt lat="14.946232493498469" lon="120.78390998823157"><ele>5.666666666666667</ele><time>2026-03-28T11:34:14Z</time></trkpt><trkpt lat="14.946365030610773" lon="120.78379264692016"><ele>5.0</ele><time>2026-03-28T11:34:15Z</time></trkpt><trkpt lat="14.946497444676377" lon="120.78367446067311"><ele>5.0</ele><time>2026-03-28T11:34:16Z</time></trkpt><trkpt lat="14.94662418554895" lon="120.78356209353952"><ele>5.0</ele><time>2026-03-28T11:34:17Z</time></trkpt><trkpt lat="14.946744653495854" lon="120.78345522537722"><ele>5.0</ele><time>2026-03-28T11:34:18Z</time></trkpt><trkpt lat="14.946861027357192" lon="120.78334879061717"><ele>5.5</ele><time>2026-03-28T11:34:19Z</time></trkpt><trkpt lat="14.94697061956974" lon="120.78324883171042"><ele>6.0</ele><time>2026-03-28T11:34:20Z</time></trkpt><trkpt lat="14.947083574980917" lon="120.78314797831882"><ele>6.5</ele><time>2026-03-28T11:34:21Z</time></trkpt><trkpt lat="14.94717829249717" lon="120.78305257451453"><ele>7.0</ele><time>2026-03-28T11:34:22Z</time></trkpt><trkpt lat="14.947288435259678" lon="120.78295764746227"><ele>7.0</ele><time>2026-03-28T11:34:23Z</time></trkpt><trkpt lat="14.947390808706267" lon="120.7828706581152"><ele>7.0</ele><time>2026-03-28T11:34:24Z</time></trkpt><trkpt lat="14.947489726075814" lon="120.78278270574143"><ele>7.0</ele><time>2026-03-28T11:34:25Z</time></trkpt><trkpt lat="14.947580947914004" lon="120.78269874621164"><ele>7.0</ele><time>2026-03-28T11:34:26Z</time></trkpt><trkpt lat="14.947678162631068" lon="120.78261500632348"><ele>7.25</ele><time>2026-03-28T11:34:27Z</time></trkpt><trkpt lat="14.947776144706602" lon="120.78253102346733"><ele>7.5</ele><time>2026-03-28T11:34:28Z</time></trkpt><trkpt lat="14.947877956652947" lon="120.78244345001654"><ele>7.75</ele><time>2026-03-28T11:34:29Z</time></trkpt><trkpt lat="14.947972931103893" lon="120.78236128353062"><ele>8.0</ele><time>2026-03-28T11:34:30Z</time></trkpt><trkpt lat="14.948075256014775" lon="120.78227958230165"><ele>8.0</ele><time>2026-03-28T11:34:31Z</time></trkpt><trkpt lat="14.948177836932798" lon="120.78219515864713"><ele>8.0</ele><time>2026-03-28T11:34:32Z</time></trkpt><trkpt lat="14.948282134993491" lon="120.78210584363337"><ele>8.0</ele><time>2026-03-28T11:34:33Z</time></trkpt><trkpt lat="14.94837719955266" lon="120.78201744389904"><ele>8.0</ele><time>2026-03-28T11:34:34Z</time></trkpt><trkpt lat="14.94847890715152" lon="120.78193285457296"><ele>8.25</ele><time>2026-03-28T11:34:35Z</time></trkpt><trkpt lat="14.948580347230399" lon="120.7818399651144"><ele>8.5</ele><time>2026-03-28T11:34:36Z</time></trkpt><trkpt lat="14.948682378657178" lon="120.7817454870036"><ele>8.75</ele><time>2026-03-28T11:34:37Z</time></trkpt><trkpt lat="14.948784678913368" lon="120.78165621489407"><ele>9.0</ele><time>2026-03-28T11:34:38Z</time></trkpt><trkpt lat="14.948892299517313" lon="120.78156119783262"><ele>9.0</ele><time>2026-03-28T11:34:39Z</time></trkpt><trkpt lat="14.948997271038628" lon="120.78146285628463"><ele>9.0</ele><time>2026-03-28T11:34:40Z</time></trkpt><trkpt lat="14.949112575260111" lon="120.781366302216"><ele>9.0</ele><time>2026-03-28T11:34:41Z</time></trkpt><trkpt lat="14.949220210910125" lon="120.78126591144719"><ele>9.0</ele><time>2026-03-28T11:34:42Z</time></trkpt><trkpt lat="14.949333374286077" lon="120.7811633575826"><ele>8.666666666666666</ele><time>2026-03-28T11:34:43Z</time></trkpt><trkpt lat="14.949453886696574" lon="120.78105956214445"><ele>8.333333333333332</ele><time>2026-03-28T11:34:44Z</time></trkpt><trkpt lat="14.949574987737732" lon="120.78095637861662"><ele>8.0</ele><time>2026-03-28T11:34:45Z</time></trkpt><trkpt lat="14.949693968375062" lon="120.78085481221673"><ele>8.0</ele><time>2026-03-28T11:34:46Z</time></trkpt><trkpt lat="14.949813027942058" lon="120.78075236218845"><ele>8.0</ele><time>2026-03-28T11:34:47Z</time></trkpt><trkpt lat="14.949938877297498" lon="120.78064621248302"><ele>8.0</ele><time>2026-03-28T11:34:48Z</time></trkpt><trkpt lat="14.950059125915365" lon="120.7805402292189"><ele>8.0</ele><time>2026-03-28T11:34:49Z</time></trkpt><trkpt lat="14.950186616788624" lon="120.78043164204198"><ele>8.0</ele><time>2026-03-28T11:34:50Z</time></trkpt><trkpt lat="14.950312522900822" lon="120.78031975561484"><ele>8.0</ele><time>2026-03-28T11:34:51Z</time></trkpt><trkpt lat="14.95044255272798" lon="120.78020266726126"><ele>8.333333333333332</ele><time>2026-03-28T11:34:52Z</time></trkpt><trkpt lat="14.950574814989839" lon="120.7800896717939"><ele>8.666666666666666</ele><time>2026-03-28T11:34:53Z</time></trkpt><trkpt lat="14.950708599033323" lon="120.77996963923289"><ele>9.0</ele><time>2026-03-28T11:34:54Z</time></trkpt><trkpt lat="14.950845225752495" lon="120.77984982369244"><ele>9.333333333333334</ele><time>2026-03-28T11:34:55Z</time></trkpt><trkpt lat="14.95098409558875" lon="120.7797258382258"><ele>9.666666666666668</ele><time>2026-03-28T11:34:56Z</time></trkpt><trkpt lat="14.951123358268848" lon="120.77960241757377"><ele>10.0</ele><time>2026-03-28T11:34:57Z</time></trkpt><trkpt lat="14.951270069949397" lon="120.7794767496987"><ele>10.0</ele><time>2026-03-28T11:34:58Z</time></trkpt><trkpt lat="14.951414780542216" lon="120.77935187828575"><ele>10.0</ele><time>2026-03-28T11:34:59Z</time></trkpt><trkpt lat="14.95155551113233" lon="120.77922050159587"><ele>10.0</ele><time>2026-03-28T11:35:00Z</time></trkpt><trkpt lat="14.951701479815773" lon="120.77909279580278"><ele>10.0</ele><time>2026-03-28T11:35:01Z</time></trkpt><trkpt lat="14.95185369059539" lon="120.77896054104482"><ele>10.0</ele><time>2026-03-28T11:35:02Z</time></trkpt><trkpt lat="14.95200517849196" lon="120.77882753081981"><ele>10.0</ele><time>2026-03-28T11:35:03Z</time></trkpt><trkpt lat="14.952157291628621" lon="120.7786953275795"><ele>10.0</ele><time>2026-03-28T11:35:04Z</time></trkpt><trkpt lat="14.952313915006266" lon="120.77855777473825"><ele>10.0</ele><time>2026-03-28T11:35:05Z</time></trkpt><trkpt lat="14.95246901344048" lon="120.77841933838957"><ele>10.0</ele><time>2026-03-28T11:35:06Z</time></trkpt><trkpt lat="14.952623135513265" lon="120.77827790716844"><ele>9.666666666666668</ele><time>2026-03-28T11:35:07Z</time></trkpt><trkpt lat="14.952785588893445" lon="120.77814213623346"><ele>9.333333333333334</ele><time>2026-03-28T11:35:08Z</time></trkpt><trkpt lat="14.952941401513902" lon="120.77800383522184"><ele>9.0</ele><time>2026-03-28T11:35:09Z</time></trkpt><trkpt lat="14.953097792164794" lon="120.77786471261084"><ele>9.0</ele><time>2026-03-28T11:35:10Z</time></trkpt><trkpt lat="14.953250021656126" lon="120.77772794341037"><ele>9.0</ele><time>2026-03-28T11:35:11Z</time></trkpt><trkpt lat="14.95341276442145" lon="120.77758943607186"><ele>9.0</ele><time>2026-03-28T11:35:12Z</time></trkpt><trkpt lat="14.953572038665854" lon="120.77745129111466"><ele>9.333333333333334</ele><time>2026-03-28T11:35:13Z</time></trkpt><trkpt lat="14.953735245768428" lon="120.77731057490655"><ele>9.666666666666668</ele><time>2026-03-28T11:35:14Z</time></trkpt><trkpt lat="14.953896005103521" lon="120.77717156680556"><ele>10.0</ele><time>2026-03-28T11:35:15Z</time></trkpt><trkpt lat="14.954056175232225" lon="120.77703404724795"><ele>9.666666666666668</ele><time>2026-03-28T11:35:16Z</time></trkpt><trkpt lat="14.954213674390598" lon="120.77689162905435"><ele>9.333333333333334</ele><time>2026-03-28T11:35:17Z</time></trkpt><trkpt lat="14.954374742094297" lon="120.77675005538109"><ele>9.0</ele><time>2026-03-28T11:35:18Z</time></trkpt><trkpt lat="14.95453849089766" lon="120.77660785747868"><ele>9.0</ele><time>2026-03-28T11:35:19Z</time></trkpt><trkpt lat="14.954704928239078" lon="120.77646713770518"><ele>9.0</ele><time>2026-03-28T11:35:20Z</time></trkpt><trkpt lat="14.95486591250785" lon="120.77632626340224"><ele>9.0</ele><time>2026-03-28T11:35:21Z</time></trkpt><trkpt lat="14.95502354955576" lon="120.77618738916105"><ele>9.666666666666666</ele><time>2026-03-28T11:35:22Z</time></trkpt><trkpt lat="14.955179818255285" lon="120.77605158723958"><ele>10.333333333333332</ele><time>2026-03-28T11:35:23Z</time></trkpt><trkpt lat="14.955333842686883" lon="120.77591619971687"><ele>11.0</ele><time>2026-03-28T11:35:24Z</time></trkpt><trkpt lat="14.955488798389599" lon="120.77578369934216"><ele>11.0</ele><time>2026-03-28T11:35:25Z</time></trkpt><trkpt lat="14.955637375239725" lon="120.77565350773274"><ele>11.0</ele><time>2026-03-28T11:35:26Z</time></trkpt><trkpt lat="14.955787732100484" lon="120.7755201542793"><ele>11.0</ele><time>2026-03-28T11:35:27Z</time></trkpt><trkpt lat="14.955934897102637" lon="120.77538541212448"><ele>10.666666666666666</ele><time>2026-03-28T11:35:28Z</time></trkpt><trkpt lat="14.956081772644207" lon="120.77524952483904"><ele>10.333333333333334</ele><time>2026-03-28T11:35:29Z</time></trkpt><trkpt lat="14.956230594251716" lon="120.77511121277502"><ele>10.0</ele><time>2026-03-28T11:35:30Z</time></trkpt><trkpt lat="14.95638513628558" lon="120.77496982299368"><ele>10.0</ele><time>2026-03-28T11:35:31Z</time></trkpt><trkpt lat="14.95653980073107" lon="120.77482928362717"><ele>10.0</ele><time>2026-03-28T11:35:32Z</time></trkpt><trkpt lat="14.956694853242336" lon="120.77468668574626"><ele>10.0</ele><time>2026-03-28T11:35:33Z</time></trkpt><trkpt lat="14.956856319856978" lon="120.77454410274987"><ele>10.0</ele><time>2026-03-28T11:35:34Z</time></trkpt><trkpt lat="14.957021827692904" lon="120.77440117324984"><ele>10.0</ele><time>2026-03-28T11:35:35Z</time></trkpt><trkpt lat="14.957187696559615" lon="120.77425322531806"><ele>10.0</ele><time>2026-03-28T11:35:36Z</time></trkpt><trkpt lat="14.957357373668664" lon="120.77410336987394"><ele>9.0</ele><time>2026-03-28T11:35:37Z</time></trkpt><trkpt lat="14.957527934364942" lon="120.77395121579337"><ele>8.0</ele><time>2026-03-28T11:35:38Z</time></trkpt><trkpt lat="14.957702855217304" lon="120.77379500316103"><ele>7.5</ele><time>2026-03-28T11:35:39Z</time></trkpt><trkpt lat="14.957879342241789" lon="120.77363833486103"><ele>7.0</ele><time>2026-03-28T11:35:40Z</time></trkpt><trkpt lat="14.958056951531736" lon="120.77347783922073"><ele>7.0</ele><time>2026-03-28T11:35:41Z</time></trkpt><trkpt lat="14.958239826965972" lon="120.77331818064677"><ele>7.0</ele><time>2026-03-28T11:35:42Z</time></trkpt><trkpt lat="14.958419877948025" lon="120.77315908301809"><ele>6.0</ele><time>2026-03-28T11:35:43Z</time></trkpt><trkpt lat="14.958611451623977" lon="120.77299602734283"><ele>5.0</ele><time>2026-03-28T11:35:44Z</time></trkpt><trkpt lat="14.95880174929416" lon="120.77283010447994"><ele>6.0</ele><time>2026-03-28T11:35:45Z</time></trkpt><trkpt lat="14.958992316466476" lon="120.77266358292195"><ele>7.0</ele><time>2026-03-28T11:35:46Z</time></trkpt><trkpt lat="14.959178634302573" lon="120.77249524964185"><ele>7.0</ele><time>2026-03-28T11:35:47Z</time></trkpt><trkpt lat="14.959363211976102" lon="120.77232975575325"><ele>7.0</ele><time>2026-03-28T11:35:48Z</time></trkpt><trkpt lat="14.95955495826177" lon="120.77216270468978"><ele>7.0</ele><time>2026-03-28T11:35:49Z</time></trkpt><trkpt lat="14.95974678953552" lon="120.77199727634435"><ele>7.0</ele><time>2026-03-28T11:35:50Z</time></trkpt><trkpt lat="14.959942240666482" lon="120.77182606766641"><ele>6.0</ele><time>2026-03-28T11:35:51Z</time></trkpt><trkpt lat="14.960137991954875" lon="120.77165888464812"><ele>5.0</ele><time>2026-03-28T11:35:52Z</time></trkpt><trkpt lat="14.960330806597712" lon="120.77149092139047"><ele>5.0</ele><time>2026-03-28T11:35:53Z</time></trkpt><trkpt lat="14.960528119147039" lon="120.77132346972537"><ele>5.0</ele><time>2026-03-28T11:35:54Z</time></trkpt><trkpt lat="14.960723506060651" lon="120.77115348708809"><ele>6.0</ele><time>2026-03-28T11:35:55Z</time></trkpt><trkpt lat="14.960925450302959" lon="120.77098264775287"><ele>7.0</ele><time>2026-03-28T11:35:56Z</time></trkpt><trkpt lat="14.96111649751013" lon="120.7708113271102"><ele>7.0</ele><time>2026-03-28T11:35:57Z</time></trkpt><trkpt lat="14.961308971377829" lon="120.77063669323957"><ele>7.0</ele><time>2026-03-28T11:35:58Z</time></trkpt><trkpt lat="14.961505270201979" lon="120.77046103778727"><ele>6.5</ele><time>2026-03-28T11:35:59Z</time></trkpt><trkpt lat="14.961704136474427" lon="120.77028374754141"><ele>6.0</ele><time>2026-03-28T11:36:00Z</time></trkpt><trkpt lat="14.961903245668758" lon="120.77011039996282"><ele>6.0</ele><time>2026-03-28T11:36:01Z</time></trkpt><trkpt lat="14.962099709858629" lon="120.7699334109882"><ele>6.0</ele><time>2026-03-28T11:36:02Z</time></trkpt><trkpt lat="14.962295567117875" lon="120.76975730732951"><ele>6.0</ele><time>2026-03-28T11:36:03Z</time></trkpt><trkpt lat="14.962500103897769" lon="120.76958661898004"><ele>6.0</ele><time>2026-03-28T11:36:04Z</time></trkpt><trkpt lat="14.962695148104997" lon="120.76941675522617"><ele>5.5</ele><time>2026-03-28T11:36:05Z</time></trkpt><trkpt lat="14.962886841330786" lon="120.76925151472507"><ele>5.0</ele><time>2026-03-28T11:36:06Z</time></trkpt><trkpt lat="14.963091440971668" lon="120.76908062792245"><ele>5.0</ele><time>2026-03-28T11:36:07Z</time></trkpt><trkpt lat="14.963287952857904" lon="120.76889783231165"><ele>5.0</ele><time>2026-03-28T11:36:08Z</time></trkpt><trkpt lat="14.963493364667947" lon="120.76872206300077"><ele>5.0</ele><time>2026-03-28T11:36:09Z</time></trkpt><trkpt lat="14.9636939968476" lon="120.76854916846587"><ele>5.0</ele><time>2026-03-28T11:36:10Z</time></trkpt><trkpt lat="14.963894285210168" lon="120.76837208917756"><ele>5.0</ele><time>2026-03-28T11:36:11Z</time></trkpt><trkpt lat="14.964099512101479" lon="120.7682014190561"><ele>5.0</ele><time>2026-03-28T11:36:12Z</time></trkpt><trkpt lat="14.964298266068086" lon="120.76802317486948"><ele>5.0</ele><time>2026-03-28T11:36:13Z</time></trkpt><trkpt lat="14.964499754415668" lon="120.7678451747777"><ele>5.0</ele><time>2026-03-28T11:36:14Z</time></trkpt><trkpt lat="14.964705626743006" lon="120.76765816452686"><ele>5.0</ele><time>2026-03-28T11:36:15Z</time></trkpt><trkpt lat="14.96490614072364" lon="120.76748181610546"><ele>5.0</ele><time>2026-03-28T11:36:16Z</time></trkpt><trkpt lat="14.965117237173672" lon="120.76730015725714"><ele>5.0</ele><time>2026-03-28T11:36:17Z</time></trkpt><trkpt lat="14.965328492519207" lon="120.76712206350925"><ele>5.0</ele><time>2026-03-28T11:36:18Z</time></trkpt><trkpt lat="14.965538500158878" lon="120.76694629783925"><ele>5.0</ele><time>2026-03-28T11:36:19Z</time></trkpt><trkpt lat="14.965741330982949" lon="120.76676729067742"><ele>5.0</ele><time>2026-03-28T11:36:20Z</time></trkpt><trkpt lat="14.965949252844721" lon="120.7665889064926"><ele>3.5</ele><time>2026-03-28T11:36:21Z</time></trkpt><trkpt lat="14.966168155485965" lon="120.76640880289318"><ele>2.0</ele><time>2026-03-28T11:36:22Z</time></trkpt><trkpt lat="14.966375905108675" lon="120.76623250005093"><ele>2.0</ele><time>2026-03-28T11:36:23Z</time></trkpt><trkpt lat="14.966584329393365" lon="120.76605301823214"><ele>2.0</ele><time>2026-03-28T11:36:24Z</time></trkpt><trkpt lat="14.966787084670688" lon="120.7658741284571"><ele>3.0</ele><time>2026-03-28T11:36:25Z</time></trkpt><trkpt lat="14.967002230378979" lon="120.76569221937925"><ele>4.0</ele><time>2026-03-28T11:36:26Z</time></trkpt><trkpt lat="14.967212672237812" lon="120.76551727334761"><ele>4.0</ele><time>2026-03-28T11:36:27Z</time></trkpt><trkpt lat="14.967422681762462" lon="120.76533407577055"><ele>4.0</ele><time>2026-03-28T11:36:28Z</time></trkpt><trkpt lat="14.967627444389919" lon="120.76516258437245"><ele>4.0</ele><time>2026-03-28T11:36:29Z</time></trkpt><trkpt lat="14.967845569718277" lon="120.7649874142948"><ele>4.0</ele><time>2026-03-28T11:36:30Z</time></trkpt><trkpt lat="14.968058069589645" lon="120.76481235552957"><ele>4.0</ele><time>2026-03-28T11:36:31Z</time></trkpt><trkpt lat="14.96826471963649" lon="120.76463665398795"><ele>4.0</ele><time>2026-03-28T11:36:32Z</time></trkpt><trkpt lat="14.968475759507944" lon="120.76446680382675"><ele>7.0</ele><time>2026-03-28T11:36:33Z</time></trkpt><trkpt lat="14.968682204866667" lon="120.7642989203643"><ele>10.0</ele><time>2026-03-28T11:36:34Z</time></trkpt><trkpt lat="14.968890428529027" lon="120.76413405729434"><ele>10.0</ele><time>2026-03-28T11:36:35Z</time></trkpt><trkpt lat="14.96909263095687" lon="120.76397622725113"><ele>10.0</ele><time>2026-03-28T11:36:36Z</time></trkpt><trkpt lat="14.969288899545807" lon="120.76381508910376"><ele>9.5</ele><time>2026-03-28T11:36:37Z</time></trkpt><trkpt lat="14.969488584868415" lon="120.7636489373549"><ele>9.0</ele><time>2026-03-28T11:36:38Z</time></trkpt><trkpt lat="14.969690162747643" lon="120.76349043801505"><ele>9.0</ele><time>2026-03-28T11:36:39Z</time></trkpt><trkpt lat="14.969882467311098" lon="120.7633388493396"><ele>9.0</ele><time>2026-03-28T11:36:40Z</time></trkpt><trkpt lat="14.970070513656404" lon="120.7631904251518"><ele>8.0</ele><time>2026-03-28T11:36:41Z</time></trkpt><trkpt lat="14.970264070017734" lon="120.76303608524142"><ele>7.0</ele><time>2026-03-28T11:36:42Z</time></trkpt><trkpt lat="14.970449491274161" lon="120.7628840425387"><ele>7.0</ele><time>2026-03-28T11:36:43Z</time></trkpt><trkpt lat="14.970642964201243" lon="120.76273684349641"><ele>7.0</ele><time>2026-03-28T11:36:44Z</time></trkpt><trkpt lat="14.970831587268254" lon="120.76258307044338"><ele>6.0</ele><time>2026-03-28T11:36:45Z</time></trkpt><trkpt lat="14.971026984010452" lon="120.76243067421495"><ele>5.0</ele><time>2026-03-28T11:36:46Z</time></trkpt><trkpt lat="14.9712241248762" lon="120.76227620343192"><ele>5.0</ele><time>2026-03-28T11:36:47Z</time></trkpt><trkpt lat="14.971417754863264" lon="120.76213113515614"><ele>5.0</ele><time>2026-03-28T11:36:48Z</time></trkpt><trkpt lat="14.971597202579492" lon="120.76198977870047"><ele>5.0</ele><time>2026-03-28T11:36:49Z</time></trkpt><trkpt lat="14.971762470153399" lon="120.76186042570691"><ele>5.0</ele><time>2026-03-28T11:36:50Z</time></trkpt><trkpt lat="14.971933970633668" lon="120.7617388814923"><ele>5.0</ele><time>2026-03-28T11:36:51Z</time></trkpt><trkpt lat="14.972101261923456" lon="120.7616154704055"><ele>5.0</ele><time>2026-03-28T11:36:52Z</time></trkpt><trkpt lat="14.972262592586427" lon="120.76150042130963"><ele>5.0</ele><time>2026-03-28T11:36:53Z</time></trkpt><trkpt lat="14.972409115994703" lon="120.7613908927775"><ele>5.0</ele><time>2026-03-28T11:36:54Z</time></trkpt><trkpt lat="14.972555602278183" lon="120.76128000995156"><ele>4.666666666666667</ele><time>2026-03-28T11:36:55Z</time></trkpt><trkpt lat="14.972708335483313" lon="120.76117166564099"><ele>4.333333333333333</ele><time>2026-03-28T11:36:56Z</time></trkpt><trkpt lat="14.972854257148127" lon="120.76106352449581"><ele>4.0</ele><time>2026-03-28T11:36:57Z</time></trkpt><trkpt lat="14.973002447042393" lon="120.76095719408174"><ele>4.666666666666666</ele><time>2026-03-28T11:36:58Z</time></trkpt><trkpt lat="14.97314988099489" lon="120.76085109213706"><ele>5.333333333333333</ele><time>2026-03-28T11:36:59Z</time></trkpt><trkpt lat="14.973291638848412" lon="120.76074442463472"><ele>6.0</ele><time>2026-03-28T11:37:00Z</time></trkpt><trkpt lat="14.973432447007305" lon="120.76063962757685"><ele>6.333333333333334</ele><time>2026-03-28T11:37:01Z</time></trkpt><trkpt lat="14.973571468338474" lon="120.76053435177964"><ele>6.666666666666667</ele><time>2026-03-28T11:37:02Z</time></trkpt><trkpt lat="14.973706311657036" lon="120.76043556372743"><ele>7.0</ele><time>2026-03-28T11:37:03Z</time></trkpt><trkpt lat="14.973839131703649" lon="120.76032993311958"><ele>7.0</ele><time>2026-03-28T11:37:04Z</time></trkpt><trkpt lat="14.973978501061424" lon="120.76022364755792"><ele>7.0</ele><time>2026-03-28T11:37:05Z</time></trkpt><trkpt lat="14.974121996264142" lon="120.76012307871018"><ele>7.0</ele><time>2026-03-28T11:37:06Z</time></trkpt><trkpt lat="14.97426400305671" lon="120.76001785917866"><ele>6.333333333333334</ele><time>2026-03-28T11:37:07Z</time></trkpt><trkpt lat="14.974406528857587" lon="120.75991439839491"><ele>5.666666666666667</ele><time>2026-03-28T11:37:08Z</time></trkpt><trkpt lat="14.974545593006022" lon="120.75980821563601"><ele>5.0</ele><time>2026-03-28T11:37:09Z</time></trkpt><trkpt lat="14.974688040157439" lon="120.75970304157602"><ele>5.0</ele><time>2026-03-28T11:37:10Z</time></trkpt><trkpt lat="14.974827360461076" lon="120.75959814906871"><ele>5.0</ele><time>2026-03-28T11:37:11Z</time></trkpt><trkpt lat="14.97496242737524" lon="120.75950467347471"><ele>5.0</ele><time>2026-03-28T11:37:12Z</time></trkpt><trkpt lat="14.975094927381065" lon="120.75941631313978"><ele>5.25</ele><time>2026-03-28T11:37:13Z</time></trkpt><trkpt lat="14.975219662568191" lon="120.75933315342472"><ele>5.5</ele><time>2026-03-28T11:37:14Z</time></trkpt><trkpt lat="14.975341624099846" lon="120.75925699769668"><ele>5.75</ele><time>2026-03-28T11:37:15Z</time></trkpt><trkpt lat="14.975457129137721" lon="120.7591877147083"><ele>6.0</ele><time>2026-03-28T11:37:16Z</time></trkpt><trkpt lat="14.975570697491445" lon="120.759120069525"><ele>6.0</ele><time>2026-03-28T11:37:17Z</time></trkpt><trkpt lat="14.97567307984479" lon="120.7590576136651"><ele>6.0</ele><time>2026-03-28T11:37:18Z</time></trkpt><trkpt lat="14.975774894882685" lon="120.75899908350603"><ele>6.0</ele><time>2026-03-28T11:37:19Z</time></trkpt><trkpt lat="14.97586399438614" lon="120.75894929128468"><ele>6.0</ele><time>2026-03-28T11:37:20Z</time></trkpt><trkpt lat="14.975941924630657" lon="120.75890323411173"><ele>6.0</ele><time>2026-03-28T11:37:21Z</time></trkpt><trkpt lat="14.976015504882412" lon="120.7588661678369"><ele>5.8</ele><time>2026-03-28T11:37:22Z</time></trkpt><trkpt lat="14.97608874406803" lon="120.75882906964512"><ele>5.6</ele><time>2026-03-28T11:37:23Z</time></trkpt><trkpt lat="14.97620581273244" lon="120.75880232561849"><ele>5.4</ele><time>2026-03-28T11:37:25Z</time></trkpt><trkpt lat="14.976307243658194" lon="120.75880043180183"><ele>5.2</ele><time>2026-03-28T11:37:27Z</time></trkpt><trkpt lat="14.976399875878474" lon="120.75880159754077"><ele>5.0</ele><time>2026-03-28T11:37:29Z</time></trkpt><trkpt lat="14.976500042011326" lon="120.75880343688472"><ele>5.0</ele><time>2026-03-28T11:37:31Z</time></trkpt><trkpt lat="14.976604679005614" lon="120.75882021180716"><ele>5.0</ele><time>2026-03-28T11:37:33Z</time></trkpt><trkpt lat="14.976684782480081" lon="120.75887034504609"><ele>5.0</ele><time>2026-03-28T11:37:35Z</time></trkpt><trkpt lat="14.976743944880953" lon="120.75894066873578"><ele>5.0</ele><time>2026-03-28T11:37:37Z</time></trkpt><trkpt lat="14.976764487567621" lon="120.7590217961317"><ele>5.0</ele><time>2026-03-28T11:37:39Z</time></trkpt><trkpt lat="14.976801075738189" lon="120.75908958927985"><ele>5.0</ele><time>2026-03-28T11:37:43Z</time></trkpt><trkpt lat="14.976889301864556" lon="120.75904407300042"><ele>4.666666666666667</ele><time>2026-03-28T11:37:54Z</time></trkpt><trkpt lat="14.976849691193845" lon="120.7589296109237"><ele>4.333333333333334</ele><time>2026-03-28T11:39:45Z</time></trkpt><trkpt lat="14.97691144934051" lon="120.75888638349198"><ele>4.0</ele><time>2026-03-28T11:39:51Z</time></trkpt><trkpt lat="14.976973102865635" lon="120.75886281739182"><ele>3.666666666666667</ele><time>2026-03-28T11:39:58Z</time></trkpt><trkpt lat="14.977038599541096" lon="120.7588594927282"><ele>3.3333333333333335</ele><time>2026-03-28T11:40:07Z</time></trkpt><trkpt lat="14.9771332693241" lon="120.75884517372127"><ele>3.0</ele><time>2026-03-28T11:40:34Z</time></trkpt><trkpt lat="14.97730803264677" lon="120.7587954238521"><ele>3.0</ele><time>2026-03-28T11:42:03Z</time></trkpt><trkpt lat="14.97722215853167" lon="120.75870491492702"><ele>3.0</ele><time>2026-03-28T11:42:06Z</time></trkpt><trkpt lat="14.977176531398012" lon="120.7587565169147"><ele>3.0</ele><time>2026-03-28T11:43:56Z</time></trkpt><trkpt lat="14.977070353201858" lon="120.75883665249782"><ele>3.0</ele><time>2026-03-28T11:47:35Z</time></trkpt><trkpt lat="14.977147730748298" lon="120.75883469629434"><ele>3.0</ele><time>2026-03-28T11:48:15Z</time></trkpt><trkpt lat="14.977267247841386" lon="120.75886272464454"><ele>2.9999999999999996</ele><time>2026-03-28T11:55:10Z</time></trkpt><trkpt lat="14.977317882182092" lon="120.75890156291747"><ele>3.0</ele><time>2026-03-28T11:55:11Z</time></trkpt><trkpt lat="14.977349901270848" lon="120.75884243048301"><ele>3.0</ele><time>2026-03-28T11:55:13Z</time></trkpt><trkpt lat="14.977290892509806" lon="120.75881913283197"><ele>3.0</ele><time>2026-03-28T11:55:22Z</time></trkpt><trkpt lat="14.977205672846456" lon="120.75883497469985"><ele>3.0</ele><time>2026-03-28T12:14:28Z</time></trkpt><trkpt lat="14.977265704492744" lon="120.75887937434254"><ele>2.9999999999999996</ele><time>2026-03-28T12:14:35Z</time></trkpt><trkpt lat="14.977326972149571" lon="120.75891003811212"><ele>3.0</ele><time>2026-03-28T12:14:38Z</time></trkpt><trkpt lat="14.977417207551541" lon="120.7589686444278"><ele>3.0</ele><time>2026-03-28T12:14:42Z</time></trkpt><trkpt lat="14.977433991835074" lon="120.75905210692294"><ele>3.0</ele><time>2026-03-28T12:14:44Z</time></trkpt><trkpt lat="14.977435061436266" lon="120.75912674215725"><ele>3.0</ele><time>2026-03-28T12:14:48Z</time></trkpt><trkpt lat="14.9774007748466" lon="120.75918554433217"><ele>3.0</ele><time>2026-03-28T12:14:55Z</time></trkpt><trkpt lat="14.977337129681517" lon="120.75922323910127"><ele>3.0</ele><time>2026-03-28T12:15:18Z</time></trkpt><trkpt lat="14.97719295718099" lon="120.75924808303682"><ele>3.0</ele><time>2026-03-28T12:15:49Z</time></trkpt><trkpt lat="14.977275168532639" lon="120.75924484133883"><ele>3.0</ele><time>2026-03-28T12:16:06Z</time></trkpt><trkpt lat="14.977360275318457" lon="120.7593096446184"><ele>3.0</ele><time>2026-03-28T12:16:09Z</time></trkpt><trkpt lat="14.977394251890425" lon="120.75923136061203"><ele>3.0</ele><time>2026-03-28T12:16:17Z</time></trkpt><trkpt lat="14.97739226734712" lon="120.75915848508916"><ele>3.0</ele><time>2026-03-28T12:16:20Z</time></trkpt><trkpt lat="14.977407146469039" lon="120.75908850126498"><ele>3.0</ele><time>2026-03-28T12:16:34Z</time></trkpt><trkpt lat="14.97740451328929" lon="120.75897469643562"><ele>3.0</ele><time>2026-03-28T12:16:39Z</time></trkpt><trkpt lat="14.977373324267582" lon="120.75891278949229"><ele>2.9999999999999996</ele><time>2026-03-28T12:16:41Z</time></trkpt><trkpt lat="14.977328460317043" lon="120.75886061336686"><ele>3.0</ele><time>2026-03-28T12:16:45Z</time></trkpt><trkpt lat="14.97725824301212" lon="120.75884144648244"><ele>3.0</ele><time>2026-03-28T12:16:47Z</time></trkpt><trkpt lat="14.977213704814531" lon="120.75878940317713"><ele>3.0</ele><time>2026-03-28T12:16:52Z</time></trkpt><trkpt lat="14.977150180214013" lon="120.75880634063736"><ele>3.0</ele><time>2026-03-28T12:17:57Z</time></trkpt><trkpt lat="14.977126440963689" lon="120.75886724384983"><ele>2.9999999999999996</ele><time>2026-03-28T12:18:04Z</time></trkpt><trkpt lat="14.977050418778408" lon="120.75888178923222"><ele>3.0</ele><time>2026-03-28T12:19:53Z</time></trkpt><trkpt lat="14.976984680553812" lon="120.75889201791371"><ele>3.0</ele><time>2026-03-28T12:20:05Z</time></trkpt><trkpt lat="14.976929774427141" lon="120.75892420531378"><ele>3.0</ele><time>2026-03-28T12:20:13Z</time></trkpt><trkpt lat="14.97688800004125" lon="120.75898189239221"><ele>3.0</ele><time>2026-03-28T12:20:20Z</time></trkpt><trkpt lat="14.976860136859266" lon="120.7590929636362"><ele>3.0</ele><time>2026-03-28T12:22:14Z</time></trkpt><trkpt lat="14.97681076288343" lon="120.75905031024382"><ele>3.0</ele><time>2026-03-28T12:22:17Z</time></trkpt><trkpt lat="14.976752053424846" lon="120.75898460521849"><ele>3.0</ele><time>2026-03-28T12:22:20Z</time></trkpt><trkpt lat="14.97676289830057" lon="120.75890830811063"><ele>2.9999999999999996</ele><time>2026-03-28T12:22:23Z</time></trkpt><trkpt lat="14.976814904333319" lon="120.75885808047143"><ele>3.0</ele><time>2026-03-28T12:22:26Z</time></trkpt><trkpt lat="14.976885693517367" lon="120.75880438975942"><ele>3.0</ele><time>2026-03-28T12:22:29Z</time></trkpt><trkpt lat="14.976935279017663" lon="120.75876165479471"><ele>3.0</ele><time>2026-03-28T12:22:31Z</time></trkpt><trkpt lat="14.976991052632151" lon="120.75872025610241"><ele>3.0</ele><time>2026-03-28T12:22:33Z</time></trkpt><trkpt lat="14.977057694000669" lon="120.75866745342302"><ele>2.9999999999999996</ele><time>2026-03-28T12:22:35Z</time></trkpt><trkpt lat="14.977087317733314" lon="120.75859778042317"><ele>3.0</ele><time>2026-03-28T12:22:37Z</time></trkpt><trkpt lat="14.977091050977478" lon="120.7585236278881"><ele>3.3333333333333335</ele><time>2026-03-28T12:22:39Z</time></trkpt><trkpt lat="14.977079884934078" lon="120.75845703591101"><ele>3.666666666666667</ele><time>2026-03-28T12:22:41Z</time></trkpt><trkpt lat="14.977085185195516" lon="120.75837507460221"><ele>4.0</ele><time>2026-03-28T12:22:43Z</time></trkpt><trkpt lat="14.977099400479865" lon="120.75829767813312"><ele>4.333333333333334</ele><time>2026-03-28T12:22:45Z</time></trkpt><trkpt lat="14.977126887367989" lon="120.75821678325255"><ele>4.666666666666667</ele><time>2026-03-28T12:22:47Z</time></trkpt><trkpt lat="14.977177329650882" lon="120.7581428345203"><ele>5.0</ele><time>2026-03-28T12:22:49Z</time></trkpt><trkpt lat="14.977253355852245" lon="120.75806725237746"><ele>5.0</ele><time>2026-03-28T12:22:51Z</time></trkpt><trkpt lat="14.977302710886983" lon="120.75802387767742"><ele>5.0</ele><time>2026-03-28T12:22:52Z</time></trkpt><trkpt lat="14.977409368227041" lon="120.75793704043475"><ele>5.0</ele><time>2026-03-28T12:22:53Z</time></trkpt><trkpt lat="14.977485674027838" lon="120.75786758572556"><ele>5.0</ele><time>2026-03-28T12:22:54Z</time></trkpt><trkpt lat="14.977566489410346" lon="120.7578079574655"><ele>5.0</ele><time>2026-03-28T12:22:55Z</time></trkpt><trkpt lat="14.977651622340005" lon="120.75774997600516"><ele>5.5</ele><time>2026-03-28T12:22:56Z</time></trkpt><trkpt lat="14.977741547151641" lon="120.75768196261387"><ele>6.0</ele><time>2026-03-28T12:22:57Z</time></trkpt><trkpt lat="14.977843311986476" lon="120.75760006860115"><ele>6.5</ele><time>2026-03-28T12:22:58Z</time></trkpt><trkpt lat="14.977939681443827" lon="120.75752827230954"><ele>7.0</ele><time>2026-03-28T12:22:59Z</time></trkpt><trkpt lat="14.978034540357866" lon="120.75745212400543"><ele>7.0</ele><time>2026-03-28T12:23:00Z</time></trkpt><trkpt lat="14.978148671762815" lon="120.75737650335309"><ele>7.0</ele><time>2026-03-28T12:23:01Z</time></trkpt><trkpt lat="14.978268080191782" lon="120.75729034956275"><ele>7.0</ele><time>2026-03-28T12:23:02Z</time></trkpt><trkpt lat="14.97838990772092" lon="120.75720548733013"><ele>7.0</ele><time>2026-03-28T12:23:03Z</time></trkpt><trkpt lat="14.97851806891169" lon="120.75712100926171"><ele>7.0</ele><time>2026-03-28T12:23:04Z</time></trkpt><trkpt lat="14.978646126754505" lon="120.75703013730603"><ele>7.0</ele><time>2026-03-28T12:23:05Z</time></trkpt><trkpt lat="14.978775793678809" lon="120.75694143247034"><ele>7.0</ele><time>2026-03-28T12:23:06Z</time></trkpt><trkpt lat="14.978910850968527" lon="120.75685082843405"><ele>7.0</ele><time>2026-03-28T12:23:07Z</time></trkpt><trkpt lat="14.979048577924026" lon="120.75676468442072"><ele>7.0</ele><time>2026-03-28T12:23:08Z</time></trkpt><trkpt lat="14.979187724132315" lon="120.75667226689039"><ele>7.0</ele><time>2026-03-28T12:23:09Z</time></trkpt><trkpt lat="14.979337356206193" lon="120.7565687252425"><ele>7.0</ele><time>2026-03-28T12:23:10Z</time></trkpt><trkpt lat="14.979479823471793" lon="120.7564704898434"><ele>7.0</ele><time>2026-03-28T12:23:11Z</time></trkpt><trkpt lat="14.979622571532758" lon="120.75637078944013"><ele>7.0</ele><time>2026-03-28T12:23:12Z</time></trkpt><trkpt lat="14.9797691110893" lon="120.7562728567144"><ele>7.0</ele><time>2026-03-28T12:23:13Z</time></trkpt><trkpt lat="14.979916747351968" lon="120.75616367022853"><ele>7.0</ele><time>2026-03-28T12:23:14Z</time></trkpt><trkpt lat="14.980069370763308" lon="120.75606529871557"><ele>7.0</ele><time>2026-03-28T12:23:15Z</time></trkpt><trkpt lat="14.98021700945818" lon="120.75597035132836"><ele>7.333333333333334</ele><time>2026-03-28T12:23:16Z</time></trkpt><trkpt lat="14.9803673244287" lon="120.75587087346156"><ele>7.666666666666666</ele><time>2026-03-28T12:23:17Z</time></trkpt><trkpt lat="14.980512732819886" lon="120.75577268476779"><ele>8.0</ele><time>2026-03-28T12:23:18Z</time></trkpt><trkpt lat="14.980665699562708" lon="120.75567590967043"><ele>8.0</ele><time>2026-03-28T12:23:19Z</time></trkpt><trkpt lat="14.980827513861989" lon="120.75557732763772"><ele>8.0</ele><time>2026-03-28T12:23:20Z</time></trkpt><trkpt lat="14.98098303253738" lon="120.75546282816212"><ele>8.0</ele><time>2026-03-28T12:23:21Z</time></trkpt><trkpt lat="14.981151683361702" lon="120.75535459594501"><ele>8.0</ele><time>2026-03-28T12:23:22Z</time></trkpt><trkpt lat="14.98131151449078" lon="120.7552389750476"><ele>8.0</ele><time>2026-03-28T12:23:23Z</time></trkpt><trkpt lat="14.981476187720755" lon="120.7551194020658"><ele>8.0</ele><time>2026-03-28T12:23:24Z</time></trkpt><trkpt lat="14.981635557514311" lon="120.75500683032463"><ele>6.666666666666666</ele><time>2026-03-28T12:23:25Z</time></trkpt><trkpt lat="14.9818020862418" lon="120.75489857387605"><ele>5.333333333333333</ele><time>2026-03-28T12:23:26Z</time></trkpt><trkpt lat="14.981973355644397" lon="120.75479110384497"><ele>4.0</ele><time>2026-03-28T12:23:27Z</time></trkpt><trkpt lat="14.98214735578273" lon="120.75468729777732"><ele>4.0</ele><time>2026-03-28T12:23:28Z</time></trkpt><trkpt lat="14.982324243153693" lon="120.75457309104733"><ele>4.0</ele><time>2026-03-28T12:23:29Z</time></trkpt><trkpt lat="14.982520171113638" lon="120.75446575616931"><ele>4.0</ele><time>2026-03-28T12:23:30Z</time></trkpt><trkpt lat="14.982698385868835" lon="120.7543541670228"><ele>4.333333333333333</ele><time>2026-03-28T12:23:31Z</time></trkpt><trkpt lat="14.9828837141187" lon="120.75424457996736"><ele>4.666666666666667</ele><time>2026-03-28T12:23:32Z</time></trkpt><trkpt lat="14.983054177690951" lon="120.75413081432346"><ele>5.0</ele><time>2026-03-28T12:23:33Z</time></trkpt><trkpt lat="14.983231571033352" lon="120.75401462602963"><ele>5.666666666666667</ele><time>2026-03-28T12:23:34Z</time></trkpt><trkpt lat="14.983414138764628" lon="120.75390945388213"><ele>6.333333333333334</ele><time>2026-03-28T12:23:35Z</time></trkpt><trkpt lat="14.983584665159972" lon="120.75380102180021"><ele>7.0</ele><time>2026-03-28T12:23:36Z</time></trkpt><trkpt lat="14.983773818173754" lon="120.75369478598404"><ele>7.0</ele><time>2026-03-28T12:23:37Z</time></trkpt><trkpt lat="14.983956845634221" lon="120.7535834156894"><ele>7.0</ele><time>2026-03-28T12:23:38Z</time></trkpt><trkpt lat="14.984155371946283" lon="120.75347551282823"><ele>7.0</ele><time>2026-03-28T12:23:39Z</time></trkpt><trkpt lat="14.984352270422029" lon="120.75336374498762"><ele>6.333333333333334</ele><time>2026-03-28T12:23:40Z</time></trkpt><trkpt lat="14.984537271909787" lon="120.75325576115314"><ele>5.666666666666667</ele><time>2026-03-28T12:23:41Z</time></trkpt><trkpt lat="14.98472706251527" lon="120.75315015630287"><ele>5.0</ele><time>2026-03-28T12:23:42Z</time></trkpt><trkpt lat="14.9849081874996" lon="120.75304128933911"><ele>4.666666666666667</ele><time>2026-03-28T12:23:43Z</time></trkpt><trkpt lat="14.985091816906108" lon="120.75292784163929"><ele>4.333333333333333</ele><time>2026-03-28T12:23:44Z</time></trkpt><trkpt lat="14.985276104704312" lon="120.75281756004343"><ele>4.0</ele><time>2026-03-28T12:23:45Z</time></trkpt><trkpt lat="14.98546155576017" lon="120.75270036781994"><ele>4.666666666666666</ele><time>2026-03-28T12:23:46Z</time></trkpt><trkpt lat="14.985637970418193" lon="120.75258761915049"><ele>5.333333333333333</ele><time>2026-03-28T12:23:47Z</time></trkpt><trkpt lat="14.985822857052986" lon="120.75247676361353"><ele>6.0</ele><time>2026-03-28T12:23:48Z</time></trkpt><trkpt lat="14.986008984715108" lon="120.75236975002632"><ele>6.333333333333334</ele><time>2026-03-28T12:23:49Z</time></trkpt><trkpt lat="14.98618938939791" lon="120.7522623608246"><ele>6.666666666666667</ele><time>2026-03-28T12:23:50Z</time></trkpt><trkpt lat="14.986376018364941" lon="120.75215301561829"><ele>7.0</ele><time>2026-03-28T12:23:51Z</time></trkpt><trkpt lat="14.986556465055493" lon="120.75204751821836"><ele>7.0</ele><time>2026-03-28T12:23:52Z</time></trkpt><trkpt lat="14.98674019420416" lon="120.75194216445075"><ele>7.0</ele><time>2026-03-28T12:23:53Z</time></trkpt><trkpt lat="14.986932205690476" lon="120.75186082936983"><ele>7.0</ele><time>2026-03-28T12:23:54Z</time></trkpt><trkpt lat="14.987118492246976" lon="120.75176491917473"><ele>7.0</ele><time>2026-03-28T12:23:55Z</time></trkpt><trkpt lat="14.987316231418195" lon="120.75166310260764"><ele>7.0</ele><time>2026-03-28T12:23:56Z</time></trkpt><trkpt lat="14.98751105104688" lon="120.75156421826675"><ele>7.0</ele><time>2026-03-28T12:23:57Z</time></trkpt><trkpt lat="14.98768071679754" lon="120.75140982175996"><ele>6.333333333333334</ele><time>2026-03-28T12:23:58Z</time></trkpt><trkpt lat="14.987875956696383" lon="120.75130484853956"><ele>5.666666666666667</ele><time>2026-03-28T12:23:59Z</time></trkpt><trkpt lat="14.988076476854728" lon="120.75119830455854"><ele>5.0</ele><time>2026-03-28T12:24:00Z</time></trkpt><trkpt lat="14.9882723912155" lon="120.75108264957687"><ele>7.0</ele><time>2026-03-28T12:24:01Z</time></trkpt><trkpt lat="14.988477327028216" lon="120.750976003965"><ele>9.0</ele><time>2026-03-28T12:24:02Z</time></trkpt><trkpt lat="14.98867368076089" lon="120.75086832680283"><ele>9.0</ele><time>2026-03-28T12:24:03Z</time></trkpt><trkpt lat="14.988873334734153" lon="120.75075920630543"><ele>9.0</ele><time>2026-03-28T12:24:04Z</time></trkpt><trkpt lat="14.98906066246306" lon="120.7506577049746"><ele>9.0</ele><time>2026-03-28T12:24:05Z</time></trkpt><trkpt lat="14.989246199678087" lon="120.7505596820377"><ele>9.0</ele><time>2026-03-28T12:24:06Z</time></trkpt><trkpt lat="14.989430720756515" lon="120.75046106559145"><ele>9.0</ele><time>2026-03-28T12:24:07Z</time></trkpt><trkpt lat="14.989615605928284" lon="120.75035898576525"><ele>9.0</ele><time>2026-03-28T12:24:08Z</time></trkpt><trkpt lat="14.989799935947843" lon="120.75026156345122"><ele>9.333333333333334</ele><time>2026-03-28T12:24:08.999Z</time></trkpt><trkpt lat="14.98997311594973" lon="120.75015977936629"><ele>9.666666666666668</ele><time>2026-03-28T12:24:09.999Z</time></trkpt><trkpt lat="14.990162024714335" lon="120.75005872918963"><ele>10.0</ele><time>2026-03-28T12:24:10.999Z</time></trkpt><trkpt lat="14.990341295888458" lon="120.74995144959829"><ele>10.333333333333334</ele><time>2026-03-28T12:24:11.999Z</time></trkpt><trkpt lat="14.99052492030959" lon="120.74984747417743"><ele>10.666666666666666</ele><time>2026-03-28T12:24:12.999Z</time></trkpt><trkpt lat="14.990704025741358" lon="120.74974822627597"><ele>11.0</ele><time>2026-03-28T12:24:13.999Z</time></trkpt><trkpt lat="14.990879379058658" lon="120.74964915256766"><ele>10.666666666666666</ele><time>2026-03-28T12:24:14.999Z</time></trkpt><trkpt lat="14.991059867549527" lon="120.74955130873988"><ele>10.333333333333334</ele><time>2026-03-28T12:24:15.999Z</time></trkpt><trkpt lat="14.991242472817378" lon="120.74945382187117"><ele>10.0</ele><time>2026-03-28T12:24:16.999Z</time></trkpt><trkpt lat="14.991405895016339" lon="120.74935218112269"><ele>10.0</ele><time>2026-03-28T12:24:17.999Z</time></trkpt><trkpt lat="14.991585820723126" lon="120.74924444349372"><ele>10.0</ele><time>2026-03-28T12:24:18.999Z</time></trkpt><trkpt lat="14.99177010426259" lon="120.74914401070427"><ele>10.0</ele><time>2026-03-28T12:24:19.999Z</time></trkpt><trkpt lat="14.991953007071416" lon="120.74903019290171"><ele>10.333333333333334</ele><time>2026-03-28T12:24:21Z</time></trkpt><trkpt lat="14.992148526407266" lon="120.74892998467493"><ele>10.666666666666666</ele><time>2026-03-28T12:24:22Z</time></trkpt><trkpt lat="14.99233282699569" lon="120.74882111674826"><ele>11.0</ele><time>2026-03-28T12:24:23Z</time></trkpt><trkpt lat="14.992519506738892" lon="120.74871297181397"><ele>11.0</ele><time>2026-03-28T12:24:24Z</time></trkpt><trkpt lat="14.992704073246328" lon="120.74860401473981"><ele>11.0</ele><time>2026-03-28T12:24:25Z</time></trkpt><trkpt lat="14.992898702941046" lon="120.74849514505813"><ele>11.0</ele><time>2026-03-28T12:24:26Z</time></trkpt><trkpt lat="14.993085701207496" lon="120.74838090369998"><ele>11.666666666666666</ele><time>2026-03-28T12:24:27Z</time></trkpt><trkpt lat="14.993282134926444" lon="120.74827307573625"><ele>12.333333333333332</ele><time>2026-03-28T12:24:28Z</time></trkpt><trkpt lat="14.993474011190862" lon="120.74815975748417"><ele>13.0</ele><time>2026-03-28T12:24:29Z</time></trkpt><trkpt lat="14.993670316925368" lon="120.74804571437184"><ele>11.333333333333332</ele><time>2026-03-28T12:24:30Z</time></trkpt><trkpt lat="14.99386853240968" lon="120.747930919896"><ele>9.666666666666666</ele><time>2026-03-28T12:24:31Z</time></trkpt><trkpt lat="14.994059430406132" lon="120.74781316853057"><ele>8.0</ele><time>2026-03-28T12:24:32Z</time></trkpt><trkpt lat="14.99425942251224" lon="120.74769944808993"><ele>8.0</ele><time>2026-03-28T12:24:33Z</time></trkpt><trkpt lat="14.994462850061973" lon="120.74758093968488"><ele>8.0</ele><time>2026-03-28T12:24:34Z</time></trkpt><trkpt lat="14.994664284412005" lon="120.74746598551471"><ele>8.0</ele><time>2026-03-28T12:24:35Z</time></trkpt><trkpt lat="14.994860643965257" lon="120.74734413918115"><ele>8.0</ele><time>2026-03-28T12:24:36Z</time></trkpt><trkpt lat="14.995062879436752" lon="120.74722175405866"><ele>8.5</ele><time>2026-03-28T12:24:37Z</time></trkpt><trkpt lat="14.995268384575882" lon="120.74709462966764"><ele>9.0</ele><time>2026-03-28T12:24:38Z</time></trkpt><trkpt lat="14.995467034106206" lon="120.74697559686632"><ele>8.5</ele><time>2026-03-28T12:24:39Z</time></trkpt><trkpt lat="14.995674355543759" lon="120.74684722525261"><ele>8.0</ele><time>2026-03-28T12:24:40Z</time></trkpt><trkpt lat="14.995883677598624" lon="120.74672112734751"><ele>7.0</ele><time>2026-03-28T12:24:41Z</time></trkpt><trkpt lat="14.996099397652854" lon="120.74659162715363"><ele>6.0</ele><time>2026-03-28T12:24:42Z</time></trkpt><trkpt lat="14.996308801704442" lon="120.74646362373159"><ele>6.0</ele><time>2026-03-28T12:24:43Z</time></trkpt><trkpt lat="14.996512834357029" lon="120.74633601286372"><ele>6.0</ele><time>2026-03-28T12:24:44Z</time></trkpt><trkpt lat="14.996724563568069" lon="120.74620446526706"><ele>6.0</ele><time>2026-03-28T12:24:45Z</time></trkpt><trkpt lat="14.996945923504526" lon="120.74607465485565"><ele>6.0</ele><time>2026-03-28T12:24:46Z</time></trkpt><trkpt lat="14.997161793964809" lon="120.74594587293997"><ele>6.0</ele><time>2026-03-28T12:24:47Z</time></trkpt><trkpt lat="14.997372130446148" lon="120.74580454839874"><ele>6.0</ele><time>2026-03-28T12:24:48Z</time></trkpt><trkpt lat="14.997589740664797" lon="120.74566715671394"><ele>5.0</ele><time>2026-03-28T12:24:49Z</time></trkpt><trkpt lat="14.997810471510212" lon="120.7455382630156"><ele>4.0</ele><time>2026-03-28T12:24:50Z</time></trkpt><trkpt lat="14.998026567748678" lon="120.74539102563014"><ele>4.0</ele><time>2026-03-28T12:24:51Z</time></trkpt><trkpt lat="14.998250282228062" lon="120.74525102579805"><ele>4.0</ele><time>2026-03-28T12:24:52Z</time></trkpt><trkpt lat="14.998468747446893" lon="120.74511119409297"><ele>4.5</ele><time>2026-03-28T12:24:53Z</time></trkpt><trkpt lat="14.998687985077115" lon="120.74497492962453"><ele>5.0</ele><time>2026-03-28T12:24:54Z</time></trkpt><trkpt lat="14.998904250116935" lon="120.74483101520482"><ele>5.0</ele><time>2026-03-28T12:24:55Z</time></trkpt><trkpt lat="14.999127822881714" lon="120.74467928218418"><ele>5.0</ele><time>2026-03-28T12:24:56Z</time></trkpt><trkpt lat="14.999346641905309" lon="120.74453431599534"><ele>4.5</ele><time>2026-03-28T12:24:57Z</time></trkpt><trkpt lat="14.999571133961672" lon="120.74438710661546"><ele>4.0</ele><time>2026-03-28T12:24:58Z</time></trkpt><trkpt lat="14.99979875803399" lon="120.7442420326704"><ele>5.5</ele><time>2026-03-28T12:24:59Z</time></trkpt><trkpt lat="15.000027017814457" lon="120.744097659252"><ele>7.0</ele><time>2026-03-28T12:25:00Z</time></trkpt><trkpt lat="15.000259404569379" lon="120.74394929163138"><ele>7.0</ele><time>2026-03-28T12:25:01Z</time></trkpt><trkpt lat="15.00049369580553" lon="120.74380102966599"><ele>7.0</ele><time>2026-03-28T12:25:02Z</time></trkpt><trkpt lat="15.000722292555741" lon="120.74364933622557"><ele>6.5</ele><time>2026-03-28T12:25:03Z</time></trkpt><trkpt lat="15.000956434802951" lon="120.74349542964171"><ele>6.0</ele><time>2026-03-28T12:25:04Z</time></trkpt><trkpt lat="15.001187304203139" lon="120.74333966503622"><ele>6.0</ele><time>2026-03-28T12:25:05Z</time></trkpt><trkpt lat="15.001419520285333" lon="120.7431843018775"><ele>6.0</ele><time>2026-03-28T12:25:06Z</time></trkpt><trkpt lat="15.001640095516267" lon="120.74302908165129"><ele>7.0</ele><time>2026-03-28T12:25:07Z</time></trkpt><trkpt lat="15.001866194119243" lon="120.74287212535307"><ele>8.0</ele><time>2026-03-28T12:25:08Z</time></trkpt><trkpt lat="15.002087558539257" lon="120.74271449519627"><ele>8.0</ele><time>2026-03-28T12:25:09Z</time></trkpt><trkpt lat="15.002317496297973" lon="120.74254920636716"><ele>8.0</ele><time>2026-03-28T12:25:10Z</time></trkpt><trkpt lat="15.002540165608615" lon="120.74239714841634"><ele>9.0</ele><time>2026-03-28T12:25:11Z</time></trkpt><trkpt lat="15.00277441875302" lon="120.74224514841045"><ele>10.0</ele><time>2026-03-28T12:25:12Z</time></trkpt><trkpt lat="15.003001891290303" lon="120.74208170149393"><ele>10.0</ele><time>2026-03-28T12:25:13Z</time></trkpt><trkpt lat="15.00323426956013" lon="120.74192394165188"><ele>10.0</ele><time>2026-03-28T12:25:14Z</time></trkpt><trkpt lat="15.003463443240035" lon="120.74176101904307"><ele>8.0</ele><time>2026-03-28T12:25:15Z</time></trkpt><trkpt lat="15.00369419411969" lon="120.74160195004546"><ele>6.0</ele><time>2026-03-28T12:25:16Z</time></trkpt><trkpt lat="15.003922908918435" lon="120.74143597101738"><ele>6.0</ele><time>2026-03-28T12:25:17Z</time></trkpt><trkpt lat="15.004145372304531" lon="120.7412796584424"><ele>6.0</ele><time>2026-03-28T12:25:18Z</time></trkpt><trkpt lat="15.004370850177544" lon="120.74112576661334"><ele>6.0</ele><time>2026-03-28T12:25:19Z</time></trkpt><trkpt lat="15.004590051028936" lon="120.74096982316264"><ele>6.0</ele><time>2026-03-28T12:25:20Z</time></trkpt><trkpt lat="15.004807474151182" lon="120.74080805080378"><ele>5.5</ele><time>2026-03-28T12:25:21Z</time></trkpt><trkpt lat="15.005024534586035" lon="120.74065082316297"><ele>5.0</ele><time>2026-03-28T12:25:22Z</time></trkpt><trkpt lat="15.005223142464626" lon="120.74050064841494"><ele>5.0</ele><time>2026-03-28T12:25:23Z</time></trkpt><trkpt lat="15.005429943547592" lon="120.7403481281259"><ele>5.0</ele><time>2026-03-28T12:25:24Z</time></trkpt><trkpt lat="15.00562333512512" lon="120.74020311165886"><ele>5.0</ele><time>2026-03-28T12:25:25Z</time></trkpt><trkpt lat="15.005806968017318" lon="120.74005357628558"><ele>5.0</ele><time>2026-03-28T12:25:26Z</time></trkpt><trkpt lat="15.006019924347706" lon="120.73990706888793"><ele>5.0</ele><time>2026-03-28T12:25:27Z</time></trkpt><trkpt lat="15.006222324444282" lon="120.73975348317113"><ele>5.0</ele><time>2026-03-28T12:25:28Z</time></trkpt><trkpt lat="15.00641706553141" lon="120.7396135954243"><ele>5.0</ele><time>2026-03-28T12:25:29Z</time></trkpt><trkpt lat="15.006603930732158" lon="120.73947790425001"><ele>5.0</ele><time>2026-03-28T12:25:30Z</time></trkpt><trkpt lat="15.006793282786171" lon="120.73934027606467"><ele>6.0</ele><time>2026-03-28T12:25:31Z</time></trkpt><trkpt lat="15.00698879736156" lon="120.73919698444945"><ele>7.0</ele><time>2026-03-28T12:25:32Z</time></trkpt><trkpt lat="15.007178589008168" lon="120.73905153473748"><ele>7.0</ele><time>2026-03-28T12:25:33Z</time></trkpt><trkpt lat="15.007369089382825" lon="120.73890818525034"><ele>7.0</ele><time>2026-03-28T12:25:34Z</time></trkpt><trkpt lat="15.007561009129105" lon="120.73876643091137"><ele>7.0</ele><time>2026-03-28T12:25:35Z</time></trkpt><trkpt lat="15.007759388191078" lon="120.73862827032093"><ele>7.0</ele><time>2026-03-28T12:25:36Z</time></trkpt><trkpt lat="15.007955218763682" lon="120.73848536887871"><ele>6.0</ele><time>2026-03-28T12:25:37Z</time></trkpt><trkpt lat="15.008146500411033" lon="120.7383404613368"><ele>5.0</ele><time>2026-03-28T12:25:38Z</time></trkpt><trkpt lat="15.008340053636017" lon="120.73819720669285"><ele>5.0</ele><time>2026-03-28T12:25:39Z</time></trkpt><trkpt lat="15.008532945286102" lon="120.73805035306879"><ele>5.0</ele><time>2026-03-28T12:25:40Z</time></trkpt><trkpt lat="15.00872783074534" lon="120.73789992295153"><ele>5.0</ele><time>2026-03-28T12:25:41Z</time></trkpt><trkpt lat="15.00892683694702" lon="120.73775019506968"><ele>5.0</ele><time>2026-03-28T12:25:42Z</time></trkpt><trkpt lat="15.009118336198908" lon="120.73759933508815"><ele>6.0</ele><time>2026-03-28T12:25:43Z</time></trkpt><trkpt lat="15.009310808254613" lon="120.73744721873354"><ele>7.0</ele><time>2026-03-28T12:25:44Z</time></trkpt><trkpt lat="15.009513202780182" lon="120.7372916162089"><ele>7.0</ele><time>2026-03-28T12:25:45Z</time></trkpt><trkpt lat="15.009705497798503" lon="120.73714065249317"><ele>7.0</ele><time>2026-03-28T12:25:46Z</time></trkpt><trkpt lat="15.009891570529753" lon="120.73698950936421"><ele>6.0</ele><time>2026-03-28T12:25:47Z</time></trkpt><trkpt lat="15.010083407919378" lon="120.73683096612997"><ele>5.0</ele><time>2026-03-28T12:25:48Z</time></trkpt><trkpt lat="15.010278378304006" lon="120.73667644365698"><ele>5.0</ele><time>2026-03-28T12:25:49Z</time></trkpt><trkpt lat="15.010469573632932" lon="120.7365247834179"><ele>5.0</ele><time>2026-03-28T12:25:50Z</time></trkpt><trkpt lat="15.010654327534713" lon="120.73637867218166"><ele>5.5</ele><time>2026-03-28T12:25:51Z</time></trkpt><trkpt lat="15.010845954322082" lon="120.73621454583946"><ele>6.0</ele><time>2026-03-28T12:25:52Z</time></trkpt><trkpt lat="15.011032903665011" lon="120.73606646842524"><ele>6.0</ele><time>2026-03-28T12:25:53Z</time></trkpt><trkpt lat="15.011219282454782" lon="120.73592311348212"><ele>6.0</ele><time>2026-03-28T12:25:54Z</time></trkpt><trkpt lat="15.011414114265953" lon="120.73576958786552"><ele>6.0</ele><time>2026-03-28T12:25:55Z</time></trkpt><trkpt lat="15.011594079030774" lon="120.7356143301798"><ele>6.0</ele><time>2026-03-28T12:25:56Z</time></trkpt><trkpt lat="15.011775805751924" lon="120.73545970366995"><ele>6.5</ele><time>2026-03-28T12:25:57Z</time></trkpt><trkpt lat="15.011950713562918" lon="120.73530951736663"><ele>7.0</ele><time>2026-03-28T12:25:58Z</time></trkpt><trkpt lat="15.0121353803553" lon="120.73515306747032"><ele>7.5</ele><time>2026-03-28T12:25:59Z</time></trkpt><trkpt lat="15.01231982546866" lon="120.7350027540313"><ele>8.0</ele><time>2026-03-28T12:26:00Z</time></trkpt><trkpt lat="15.012505380098846" lon="120.73485170991901"><ele>8.0</ele><time>2026-03-28T12:26:01Z</time></trkpt><trkpt lat="15.012695867481447" lon="120.73469350198873"><ele>8.0</ele><time>2026-03-28T12:26:02Z</time></trkpt><trkpt lat="15.012876864586278" lon="120.73453940104835"><ele>8.0</ele><time>2026-03-28T12:26:03Z</time></trkpt><trkpt lat="15.013055549799052" lon="120.7343911316498"><ele>8.0</ele><time>2026-03-28T12:26:04Z</time></trkpt><trkpt lat="15.013248641602464" lon="120.73423499731767"><ele>7.0</ele><time>2026-03-28T12:26:05Z</time></trkpt><trkpt lat="15.013431380287901" lon="120.7340877464229"><ele>6.0</ele><time>2026-03-28T12:26:06Z</time></trkpt><trkpt lat="15.013618318668913" lon="120.73393933332757"><ele>6.0</ele><time>2026-03-28T12:26:07Z</time></trkpt><trkpt lat="15.013801127380995" lon="120.7337937847318"><ele>6.0</ele><time>2026-03-28T12:26:08Z</time></trkpt><trkpt lat="15.013967076073904" lon="120.7336413425926"><ele>6.0</ele><time>2026-03-28T12:26:09Z</time></trkpt><trkpt lat="15.014138003795027" lon="120.73348646396336"><ele>6.0</ele><time>2026-03-28T12:26:10Z</time></trkpt><trkpt lat="15.014299634835524" lon="120.73333660669847"><ele>6.0</ele><time>2026-03-28T12:26:11Z</time></trkpt><trkpt lat="15.014457891463175" lon="120.73318723747421"><ele>6.0</ele><time>2026-03-28T12:26:12Z</time></trkpt><trkpt lat="15.01460535104134" lon="120.73305550317185"><ele>6.0</ele><time>2026-03-28T12:26:13Z</time></trkpt><trkpt lat="15.01474993282262" lon="120.73292297585954"><ele>6.0</ele><time>2026-03-28T12:26:14Z</time></trkpt><trkpt lat="15.014890266504938" lon="120.73278462828144"><ele>6.0</ele><time>2026-03-28T12:26:15Z</time></trkpt><trkpt lat="15.015030924803533" lon="120.73266208291135"><ele>6.0</ele><time>2026-03-28T12:26:16Z</time></trkpt><trkpt lat="15.015163894390227" lon="120.7325350444501"><ele>6.0</ele><time>2026-03-28T12:26:17Z</time></trkpt><trkpt lat="15.015299534787802" lon="120.73240654239902"><ele>6.0</ele><time>2026-03-28T12:26:18Z</time></trkpt><trkpt lat="15.015441699057165" lon="120.73227069244531"><ele>6.0</ele><time>2026-03-28T12:26:19Z</time></trkpt><trkpt lat="15.015583731535347" lon="120.73213714597945"><ele>6.0</ele><time>2026-03-28T12:26:20Z</time></trkpt><trkpt lat="15.01572983273517" lon="120.7320048986078"><ele>6.333333333333334</ele><time>2026-03-28T12:26:21Z</time></trkpt><trkpt lat="15.015878005222493" lon="120.73187764914084"><ele>6.666666666666667</ele><time>2026-03-28T12:26:22Z</time></trkpt><trkpt lat="15.016016442645917" lon="120.73175096009103"><ele>7.0</ele><time>2026-03-28T12:26:23Z</time></trkpt><trkpt lat="15.016153227372033" lon="120.73163360453516"><ele>7.0</ele><time>2026-03-28T12:26:24Z</time></trkpt><trkpt lat="15.016298736620243" lon="120.73150235481253"><ele>7.0</ele><time>2026-03-28T12:26:25Z</time></trkpt><trkpt lat="15.016445947418132" lon="120.73136926039554"><ele>7.0</ele><time>2026-03-28T12:26:26Z</time></trkpt><trkpt lat="15.016592785177286" lon="120.73122287858848"><ele>7.0</ele><time>2026-03-28T12:26:27Z</time></trkpt><trkpt lat="15.016739606637703" lon="120.7310797813322"><ele>7.0</ele><time>2026-03-28T12:26:28Z</time></trkpt><trkpt lat="15.016893232069922" lon="120.73093239170169"><ele>7.0</ele><time>2026-03-28T12:26:29Z</time></trkpt><trkpt lat="15.017042657343133" lon="120.73079348972652"><ele>7.0</ele><time>2026-03-28T12:26:30Z</time></trkpt><trkpt lat="15.017198400367876" lon="120.73066354721962"><ele>7.0</ele><time>2026-03-28T12:26:31Z</time></trkpt><trkpt lat="15.017345440718838" lon="120.73052098033799"><ele>7.0</ele><time>2026-03-28T12:26:32Z</time></trkpt><trkpt lat="15.017497330013358" lon="120.73036178941955"><ele>7.333333333333334</ele><time>2026-03-28T12:26:33Z</time></trkpt><trkpt lat="15.01765393377105" lon="120.7302167672389"><ele>7.666666666666666</ele><time>2026-03-28T12:26:34Z</time></trkpt><trkpt lat="15.017814820563276" lon="120.73007176589051"><ele>8.0</ele><time>2026-03-28T12:26:35Z</time></trkpt><trkpt lat="15.017970101118724" lon="120.72992616679923"><ele>8.0</ele><time>2026-03-28T12:26:36Z</time></trkpt><trkpt lat="15.01813033551854" lon="120.72977898016356"><ele>8.0</ele><time>2026-03-28T12:26:37Z</time></trkpt><trkpt lat="15.018288293759793" lon="120.7296307293709"><ele>8.0</ele><time>2026-03-28T12:26:38Z</time></trkpt><trkpt lat="15.018448232835107" lon="120.72947891473393"><ele>6.666666666666666</ele><time>2026-03-28T12:26:39Z</time></trkpt><trkpt lat="15.018607525214035" lon="120.72933750632382"><ele>5.333333333333333</ele><time>2026-03-28T12:26:40Z</time></trkpt><trkpt lat="15.01877163636535" lon="120.72916988296899"><ele>4.0</ele><time>2026-03-28T12:26:41Z</time></trkpt><trkpt lat="15.018931851817126" lon="120.72902145606886"><ele>4.0</ele><time>2026-03-28T12:26:42Z</time></trkpt><trkpt lat="15.019090211278083" lon="120.7288710262591"><ele>4.0</ele><time>2026-03-28T12:26:43Z</time></trkpt><trkpt lat="15.019245619310883" lon="120.72872112192988"><ele>4.0</ele><time>2026-03-28T12:26:44Z</time></trkpt><trkpt lat="15.019396450213595" lon="120.72857528330128"><ele>3.333333333333333</ele><time>2026-03-28T12:26:45Z</time></trkpt><trkpt lat="15.019548056763147" lon="120.7284290231626"><ele>2.6666666666666665</ele><time>2026-03-28T12:26:46Z</time></trkpt><trkpt lat="15.019717212590557" lon="120.72827167870136"><ele>2.0</ele><time>2026-03-28T12:26:47Z</time></trkpt><trkpt lat="15.019888150399614" lon="120.72810682035899"><ele>1.6666666666666665</ele><time>2026-03-28T12:26:48Z</time></trkpt><trkpt lat="15.020037979585828" lon="120.72795748588007"><ele>1.3333333333333333</ele><time>2026-03-28T12:26:49Z</time></trkpt><trkpt lat="15.020197865612898" lon="120.72780304932805"><ele>1.0</ele><time>2026-03-28T12:26:50Z</time></trkpt><trkpt lat="15.020356680474713" lon="120.72765279416437"><ele>1.0</ele><time>2026-03-28T12:26:51Z</time></trkpt><trkpt lat="15.020510993664086" lon="120.72750658790527"><ele>1.0</ele><time>2026-03-28T12:26:52Z</time></trkpt><trkpt lat="15.020663984591634" lon="120.72735829999245"><ele>1.0</ele><time>2026-03-28T12:26:53Z</time></trkpt><trkpt lat="15.02082985750562" lon="120.72720380144384"><ele>2.0</ele><time>2026-03-28T12:26:54Z</time></trkpt><trkpt lat="15.020994563813035" lon="120.72703495352305"><ele>3.0</ele><time>2026-03-28T12:26:55Z</time></trkpt><trkpt lat="15.02114718750126" lon="120.72688933521106"><ele>4.0</ele><time>2026-03-28T12:26:56Z</time></trkpt><trkpt lat="15.021310469524051" lon="120.72673067883015"><ele>4.0</ele><time>2026-03-28T12:26:57Z</time></trkpt><trkpt lat="15.021483126772157" lon="120.7265679223097"><ele>4.0</ele><time>2026-03-28T12:26:58Z</time></trkpt><trkpt lat="15.02164496628918" lon="120.72639590036833"><ele>5.5</ele><time>2026-03-28T12:26:59Z</time></trkpt><trkpt lat="15.021804060393265" lon="120.72623775606164"><ele>7.0</ele><time>2026-03-28T12:27:00Z</time></trkpt><trkpt lat="15.021969962364548" lon="120.72607330452199"><ele>7.5</ele><time>2026-03-28T12:27:01Z</time></trkpt><trkpt lat="15.02213787249363" lon="120.72589934864614"><ele>8.0</ele><time>2026-03-28T12:27:02Z</time></trkpt><trkpt lat="15.022312271981596" lon="120.72573242440829"><ele>8.0</ele><time>2026-03-28T12:27:03Z</time></trkpt><trkpt lat="15.022470082205567" lon="120.72556888482592"><ele>8.0</ele><time>2026-03-28T12:27:04Z</time></trkpt><trkpt lat="15.02264563307582" lon="120.7253927143194"><ele>7.5</ele><time>2026-03-28T12:27:05Z</time></trkpt><trkpt lat="15.022819009419969" lon="120.72522148645258"><ele>7.0</ele><time>2026-03-28T12:27:06Z</time></trkpt><trkpt lat="15.02299092443044" lon="120.72506087725597"><ele>7.0</ele><time>2026-03-28T12:27:07Z</time></trkpt><trkpt lat="15.02316257765098" lon="120.72488769707823"><ele>7.0</ele><time>2026-03-28T12:27:08Z</time></trkpt><trkpt lat="15.02333856572873" lon="120.72471841984999"><ele>7.0</ele><time>2026-03-28T12:27:09Z</time></trkpt><trkpt lat="15.023509975378616" lon="120.72455375929088"><ele>7.0</ele><time>2026-03-28T12:27:10Z</time></trkpt><trkpt lat="15.023687881065015" lon="120.72436292635675"><ele>7.0</ele><time>2026-03-28T12:27:11Z</time></trkpt><trkpt lat="15.023860981193701" lon="120.72417426540167"><ele>7.0</ele><time>2026-03-28T12:27:12Z</time></trkpt><trkpt lat="15.024016630605438" lon="120.72399294266405"><ele>7.0</ele><time>2026-03-28T12:27:13Z</time></trkpt><trkpt lat="15.024168258203408" lon="120.72382670400164"><ele>7.0</ele><time>2026-03-28T12:27:14Z</time></trkpt><trkpt lat="15.02430593790921" lon="120.72366532651662"><ele>7.0</ele><time>2026-03-28T12:27:15Z</time></trkpt><trkpt lat="15.024447964899023" lon="120.72350678050242"><ele>7.0</ele><time>2026-03-28T12:27:16Z</time></trkpt><trkpt lat="15.024597296680227" lon="120.72334949635513"><ele>7.0</ele><time>2026-03-28T12:27:17Z</time></trkpt><trkpt lat="15.024743939878931" lon="120.72316912343899"><ele>7.0</ele><time>2026-03-28T12:27:18Z</time></trkpt><trkpt lat="15.024901935926588" lon="120.72299444998656"><ele>6.0</ele><time>2026-03-28T12:27:19Z</time></trkpt><trkpt lat="15.025063394777465" lon="120.72281357926423"><ele>5.0</ele><time>2026-03-28T12:27:20Z</time></trkpt><trkpt lat="15.025233308534903" lon="120.72263582206345"><ele>4.0</ele><time>2026-03-28T12:27:21Z</time></trkpt><trkpt lat="15.025400481364949" lon="120.72246686106755"><ele>3.0</ele><time>2026-03-28T12:27:22Z</time></trkpt><trkpt lat="15.02555514413815" lon="120.7222940218218"><ele>3.0</ele><time>2026-03-28T12:27:23Z</time></trkpt><trkpt lat="15.025714853624834" lon="120.72211176242602"><ele>3.0</ele><time>2026-03-28T12:27:24Z</time></trkpt><trkpt lat="15.025885383546742" lon="120.7219362983419"><ele>4.5</ele><time>2026-03-28T12:27:25Z</time></trkpt><trkpt lat="15.026054763006307" lon="120.72175628587183"><ele>6.0</ele><time>2026-03-28T12:27:26Z</time></trkpt><trkpt lat="15.026231556171771" lon="120.72156343051046"><ele>6.0</ele><time>2026-03-28T12:27:27Z</time></trkpt><trkpt lat="15.02640556094428" lon="120.72136674648772"><ele>6.0</ele><time>2026-03-28T12:27:28Z</time></trkpt><trkpt lat="15.02655739742057" lon="120.72119016442554"><ele>6.0</ele><time>2026-03-28T12:27:29Z</time></trkpt><trkpt lat="15.02672858958612" lon="120.72098987761838"><ele>6.0</ele><time>2026-03-28T12:27:30Z</time></trkpt><trkpt lat="15.026901537012481" lon="120.72080678798868"><ele>6.0</ele><time>2026-03-28T12:27:31Z</time></trkpt><trkpt lat="15.027069057870305" lon="120.72061453631714"><ele>6.0</ele><time>2026-03-28T12:27:32Z</time></trkpt><trkpt lat="15.027249016021322" lon="120.72041179989502"><ele>6.5</ele><time>2026-03-28T12:27:33Z</time></trkpt><trkpt lat="15.027427723284843" lon="120.72020369221906"><ele>7.0</ele><time>2026-03-28T12:27:34Z</time></trkpt><trkpt lat="15.02760300267824" lon="120.71999991502449"><ele>6.0</ele><time>2026-03-28T12:27:35Z</time></trkpt><trkpt lat="15.02777577277232" lon="120.71980692472428"><ele>5.0</ele><time>2026-03-28T12:27:36Z</time></trkpt><trkpt lat="15.027955973043394" lon="120.71960692866324"><ele>5.5</ele><time>2026-03-28T12:27:37Z</time></trkpt><trkpt lat="15.028125271547896" lon="120.71939192579242"><ele>6.0</ele><time>2026-03-28T12:27:38Z</time></trkpt><trkpt lat="15.028299053737973" lon="120.71918441293771"><ele>6.5</ele><time>2026-03-28T12:27:39Z</time></trkpt><trkpt lat="15.028477130138576" lon="120.71896810627563"><ele>7.0</ele><time>2026-03-28T12:27:40Z</time></trkpt><trkpt lat="15.028660511073154" lon="120.71876278960696"><ele>6.0</ele><time>2026-03-28T12:27:41Z</time></trkpt><trkpt lat="15.028841163826018" lon="120.71855640763954"><ele>5.0</ele><time>2026-03-28T12:27:42Z</time></trkpt><trkpt lat="15.02901140574959" lon="120.71834302458015"><ele>6.0</ele><time>2026-03-28T12:27:43Z</time></trkpt><trkpt lat="15.029198256201173" lon="120.71812120740834"><ele>7.0</ele><time>2026-03-28T12:27:44Z</time></trkpt><trkpt lat="15.029375946492875" lon="120.71791675083118"><ele>7.0</ele><time>2026-03-28T12:27:45Z</time></trkpt><trkpt lat="15.029556242855305" lon="120.71768869472913"><ele>7.0</ele><time>2026-03-28T12:27:46Z</time></trkpt><trkpt lat="15.029728468032346" lon="120.71748503998634"><ele>7.0</ele><time>2026-03-28T12:27:47Z</time></trkpt><trkpt lat="15.02989448566252" lon="120.71727543865842"><ele>7.0</ele><time>2026-03-28T12:27:48Z</time></trkpt><trkpt lat="15.030062006725906" lon="120.71706829682792"><ele>7.0</ele><time>2026-03-28T12:27:49Z</time></trkpt><trkpt lat="15.030226169968273" lon="120.71686531867107"><ele>7.0</ele><time>2026-03-28T12:27:50Z</time></trkpt><trkpt lat="15.03039564695867" lon="120.71665818178353"><ele>7.0</ele><time>2026-03-28T12:27:51Z</time></trkpt><trkpt lat="15.030566876496556" lon="120.71644631544758"><ele>7.0</ele><time>2026-03-28T12:27:52Z</time></trkpt><trkpt lat="15.030735463609027" lon="120.7162400574451"><ele>6.5</ele><time>2026-03-28T12:27:53Z</time></trkpt><trkpt lat="15.030908345057947" lon="120.7160409191696"><ele>6.0</ele><time>2026-03-28T12:27:54Z</time></trkpt><trkpt lat="15.031067864266507" lon="120.71585225341045"><ele>6.0</ele><time>2026-03-28T12:27:55Z</time></trkpt><trkpt lat="15.031219140136459" lon="120.7156606694436"><ele>6.0</ele><time>2026-03-28T12:27:56Z</time></trkpt><trkpt lat="15.031378982586826" lon="120.71546640058067"><ele>6.0</ele><time>2026-03-28T12:27:57Z</time></trkpt><trkpt lat="15.031524328026341" lon="120.71528684563238"><ele>6.0</ele><time>2026-03-28T12:27:58Z</time></trkpt><trkpt lat="15.03167471194221" lon="120.71510302800509"><ele>5.5</ele><time>2026-03-28T12:27:59Z</time></trkpt><trkpt lat="15.031820280983501" lon="120.7149194892703"><ele>5.0</ele><time>2026-03-28T12:28:00Z</time></trkpt><trkpt lat="15.031964273042464" lon="120.7147327029005"><ele>5.0</ele><time>2026-03-28T12:28:01Z</time></trkpt><trkpt lat="15.032115335247319" lon="120.71454420377799"><ele>5.0</ele><time>2026-03-28T12:28:02Z</time></trkpt><trkpt lat="15.032261810151953" lon="120.71436189347187"><ele>5.0</ele><time>2026-03-28T12:28:03Z</time></trkpt><trkpt lat="15.032398895373445" lon="120.71418320753806"><ele>5.0</ele><time>2026-03-28T12:28:04Z</time></trkpt><trkpt lat="15.032541111544747" lon="120.71400655295339"><ele>5.0</ele><time>2026-03-28T12:28:05Z</time></trkpt><trkpt lat="15.032680637475487" lon="120.71382708595888"><ele>5.333333333333334</ele><time>2026-03-28T12:28:06Z</time></trkpt><trkpt lat="15.032815080738558" lon="120.71365188073084"><ele>5.666666666666667</ele><time>2026-03-28T12:28:07Z</time></trkpt><trkpt lat="15.0329505795386" lon="120.7134706590206"><ele>6.0</ele><time>2026-03-28T12:28:08Z</time></trkpt><trkpt lat="15.033081119604018" lon="120.71330043499229"><ele>6.0</ele><time>2026-03-28T12:28:09Z</time></trkpt><trkpt lat="15.03320819145701" lon="120.7131329915155"><ele>6.0</ele><time>2026-03-28T12:28:10Z</time></trkpt><trkpt lat="15.033338175993649" lon="120.71296347855942"><ele>6.0</ele><time>2026-03-28T12:28:11Z</time></trkpt><trkpt lat="15.033465552614597" lon="120.7127856198461"><ele>6.0</ele><time>2026-03-28T12:28:12Z</time></trkpt><trkpt lat="15.033594876645175" lon="120.71261891733486"><ele>6.0</ele><time>2026-03-28T12:28:13Z</time></trkpt><trkpt lat="15.03372549737516" lon="120.71244435107026"><ele>6.0</ele><time>2026-03-28T12:28:14Z</time></trkpt><trkpt lat="15.03385629370876" lon="120.71226718593765"><ele>6.0</ele><time>2026-03-28T12:28:15Z</time></trkpt><trkpt lat="15.03398122516776" lon="120.71210122324739"><ele>6.0</ele><time>2026-03-28T12:28:16Z</time></trkpt><trkpt lat="15.034108906593397" lon="120.71192906616474"><ele>6.0</ele><time>2026-03-28T12:28:17Z</time></trkpt><trkpt lat="15.034237829091923" lon="120.71176905684196"><ele>7.333333333333334</ele><time>2026-03-28T12:28:18Z</time></trkpt><trkpt lat="15.034357228301177" lon="120.71160618292967"><ele>8.666666666666668</ele><time>2026-03-28T12:28:19Z</time></trkpt><trkpt lat="15.034475563914404" lon="120.71144871067652"><ele>10.0</ele><time>2026-03-28T12:28:20Z</time></trkpt><trkpt lat="15.034599893611638" lon="120.71129063471595"><ele>10.0</ele><time>2026-03-28T12:28:21Z</time></trkpt><trkpt lat="15.034716316743491" lon="120.71112458193178"><ele>10.0</ele><time>2026-03-28T12:28:22Z</time></trkpt><trkpt lat="15.034832374413513" lon="120.71097526257043"><ele>10.0</ele><time>2026-03-28T12:28:23Z</time></trkpt><trkpt lat="15.034953607866212" lon="120.71082729187226"><ele>9.0</ele><time>2026-03-28T12:28:24Z</time></trkpt><trkpt lat="15.035075464878698" lon="120.71066600371756"><ele>8.0</ele><time>2026-03-28T12:28:25Z</time></trkpt><trkpt lat="15.03519764073344" lon="120.71050778988538"><ele>7.0</ele><time>2026-03-28T12:28:26Z</time></trkpt><trkpt lat="15.035317372060693" lon="120.71034939520952"><ele>7.333333333333334</ele><time>2026-03-28T12:28:27Z</time></trkpt><trkpt lat="15.035438679462121" lon="120.71018785844778"><ele>7.666666666666666</ele><time>2026-03-28T12:28:28Z</time></trkpt><trkpt lat="15.035569072721517" lon="120.71001533021257"><ele>8.0</ele><time>2026-03-28T12:28:29Z</time></trkpt><trkpt lat="15.03570400454306" lon="120.70984375447026"><ele>7.666666666666666</ele><time>2026-03-28T12:28:30Z</time></trkpt><trkpt lat="15.035841353783884" lon="120.70967074131245"><ele>7.333333333333334</ele><time>2026-03-28T12:28:31Z</time></trkpt><trkpt lat="15.035979398621505" lon="120.70950618866819"><ele>7.0</ele><time>2026-03-28T12:28:32Z</time></trkpt><trkpt lat="15.036121982164339" lon="120.70933649224322"><ele>7.666666666666667</ele><time>2026-03-28T12:28:33Z</time></trkpt><trkpt lat="15.036263065766441" lon="120.70916291006057"><ele>8.333333333333334</ele><time>2026-03-28T12:28:34Z</time></trkpt><trkpt lat="15.03640627599862" lon="120.70898522521631"><ele>9.0</ele><time>2026-03-28T12:28:35Z</time></trkpt><trkpt lat="15.03655379612018" lon="120.70880543902454"><ele>9.0</ele><time>2026-03-28T12:28:36Z</time></trkpt><trkpt lat="15.03669043340601" lon="120.7086267465309"><ele>9.0</ele><time>2026-03-28T12:28:37Z</time></trkpt><trkpt lat="15.036837774885543" lon="120.7084420346934"><ele>9.0</ele><time>2026-03-28T12:28:38Z</time></trkpt><trkpt lat="15.036982368750863" lon="120.70825685428497"><ele>9.0</ele><time>2026-03-28T12:28:39Z</time></trkpt><trkpt lat="15.037141859716902" lon="120.70806693392943"><ele>9.0</ele><time>2026-03-28T12:28:40Z</time></trkpt><trkpt lat="15.037291942398292" lon="120.70787055372445"><ele>9.0</ele><time>2026-03-28T12:28:41Z</time></trkpt><trkpt lat="15.037442783498994" lon="120.70767068581051"><ele>9.0</ele><time>2026-03-28T12:28:42Z</time></trkpt><trkpt lat="15.037597525301361" lon="120.70747196699963"><ele>9.0</ele><time>2026-03-28T12:28:43Z</time></trkpt><trkpt lat="15.03774608394872" lon="120.7072757052531"><ele>9.0</ele><time>2026-03-28T12:28:44Z</time></trkpt><trkpt lat="15.037895793561402" lon="120.70708126201377"><ele>9.0</ele><time>2026-03-28T12:28:45Z</time></trkpt><trkpt lat="15.038052786140424" lon="120.70689889126022"><ele>9.0</ele><time>2026-03-28T12:28:46Z</time></trkpt><trkpt lat="15.038216961514141" lon="120.7066970431486"><ele>9.0</ele><time>2026-03-28T12:28:47Z</time></trkpt><trkpt lat="15.038379399401432" lon="120.70650037721366"><ele>9.0</ele><time>2026-03-28T12:28:48Z</time></trkpt><trkpt lat="15.038544654120802" lon="120.70630852819254"><ele>9.0</ele><time>2026-03-28T12:28:49Z</time></trkpt><trkpt lat="15.038708700533611" lon="120.70611364813976"><ele>9.0</ele><time>2026-03-28T12:28:50Z</time></trkpt><trkpt lat="15.038887249434747" lon="120.70590982211881"><ele>9.0</ele><time>2026-03-28T12:28:51Z</time></trkpt><trkpt lat="15.039063191412753" lon="120.70570276879576"><ele>8.0</ele><time>2026-03-28T12:28:52Z</time></trkpt><trkpt lat="15.039235389732461" lon="120.7055046731923"><ele>7.0</ele><time>2026-03-28T12:28:53Z</time></trkpt><trkpt lat="15.039410470827237" lon="120.7053011557038"><ele>6.0</ele><time>2026-03-28T12:28:54Z</time></trkpt><trkpt lat="15.03959440777995" lon="120.70507980000984"><ele>5.0</ele><time>2026-03-28T12:28:55Z</time></trkpt><trkpt lat="15.03977588622136" lon="120.70487387236093"><ele>5.0</ele><time>2026-03-28T12:28:56Z</time></trkpt><trkpt lat="15.039957533363296" lon="120.7046657416439"><ele>5.0</ele><time>2026-03-28T12:28:57Z</time></trkpt><trkpt lat="15.040136780130831" lon="120.70445772293313"><ele>6.0</ele><time>2026-03-28T12:28:58Z</time></trkpt><trkpt lat="15.04032535277522" lon="120.70425150653378"><ele>7.0</ele><time>2026-03-28T12:28:59Z</time></trkpt><trkpt lat="15.04051657375136" lon="120.70404086018284"><ele>7.0</ele><time>2026-03-28T12:29:00Z</time></trkpt><trkpt lat="15.040696179035647" lon="120.70383986741015"><ele>7.0</ele><time>2026-03-28T12:29:01Z</time></trkpt><trkpt lat="15.040896467381222" lon="120.70362752500351"><ele>7.5</ele><time>2026-03-28T12:29:02Z</time></trkpt><trkpt lat="15.041093149510441" lon="120.70342364050762"><ele>8.0</ele><time>2026-03-28T12:29:03Z</time></trkpt><trkpt lat="15.041282448538789" lon="120.7032201655207"><ele>8.0</ele><time>2026-03-28T12:29:04Z</time></trkpt><trkpt lat="15.041470689281788" lon="120.70301780737586"><ele>8.0</ele><time>2026-03-28T12:29:05Z</time></trkpt><trkpt lat="15.041666464460391" lon="120.70280907347396"><ele>8.5</ele><time>2026-03-28T12:29:06Z</time></trkpt><trkpt lat="15.041853643215719" lon="120.702600988434"><ele>9.0</ele><time>2026-03-28T12:29:07Z</time></trkpt><trkpt lat="15.04206770813546" lon="120.70235998957678"><ele>9.0</ele><time>2026-03-28T12:29:08Z</time></trkpt><trkpt lat="15.042256927320517" lon="120.70214969787598"><ele>9.0</ele><time>2026-03-28T12:29:09Z</time></trkpt><trkpt lat="15.042451465958154" lon="120.70193807218925"><ele>9.5</ele><time>2026-03-28T12:29:10Z</time></trkpt><trkpt lat="15.04264493666751" lon="120.70173429438974"><ele>10.0</ele><time>2026-03-28T12:29:11Z</time></trkpt><trkpt lat="15.042838103108396" lon="120.7015080017557"><ele>10.0</ele><time>2026-03-28T12:29:12Z</time></trkpt><trkpt lat="15.043021119346518" lon="120.7012827870132"><ele>10.0</ele><time>2026-03-28T12:29:13Z</time></trkpt><trkpt lat="15.043222698286552" lon="120.70107687133665"><ele>8.5</ele><time>2026-03-28T12:29:14Z</time></trkpt><trkpt lat="15.043426590611574" lon="120.70085712473158"><ele>7.0</ele><time>2026-03-28T12:29:15Z</time></trkpt><trkpt lat="15.0436194490328" lon="120.70064681678248"><ele>7.0</ele><time>2026-03-28T12:29:16Z</time></trkpt><trkpt lat="15.043814868691184" lon="120.70043913006512"><ele>7.0</ele><time>2026-03-28T12:29:17Z</time></trkpt><trkpt lat="15.044012628441946" lon="120.70023002576656"><ele>7.5</ele><time>2026-03-28T12:29:18Z</time></trkpt><trkpt lat="15.044208663231279" lon="120.70001589654682"><ele>8.0</ele><time>2026-03-28T12:29:19Z</time></trkpt><trkpt lat="15.0444242538836" lon="120.69980484481285"><ele>8.0</ele><time>2026-03-28T12:29:20Z</time></trkpt><trkpt lat="15.044634265799502" lon="120.6995869322453"><ele>8.0</ele><time>2026-03-28T12:29:21Z</time></trkpt><trkpt lat="15.044836799787944" lon="120.69938207662824"><ele>7.5</ele><time>2026-03-28T12:29:22Z</time></trkpt><trkpt lat="15.045025942369628" lon="120.69917743628643"><ele>7.0</ele><time>2026-03-28T12:29:23Z</time></trkpt><trkpt lat="15.04522084567179" lon="120.69898785665629"><ele>7.0</ele><time>2026-03-28T12:29:24Z</time></trkpt><trkpt lat="15.045422528605098" lon="120.69879122679161"><ele>7.0</ele><time>2026-03-28T12:29:25Z</time></trkpt><trkpt lat="15.04562208144254" lon="120.69860374620721"><ele>6.0</ele><time>2026-03-28T12:29:26Z</time></trkpt><trkpt lat="15.04582653875506" lon="120.69839590297761"><ele>5.0</ele><time>2026-03-28T12:29:27Z</time></trkpt><trkpt lat="15.046027953722144" lon="120.69821111005999"><ele>5.0</ele><time>2026-03-28T12:29:28Z</time></trkpt><trkpt lat="15.046241979119008" lon="120.69802084582749"><ele>5.0</ele><time>2026-03-28T12:29:29Z</time></trkpt><trkpt lat="15.046457641432118" lon="120.69781679786269"><ele>7.0</ele><time>2026-03-28T12:29:30Z</time></trkpt><trkpt lat="15.046660125875325" lon="120.69761944272987"><ele>9.0</ele><time>2026-03-28T12:29:31Z</time></trkpt><trkpt lat="15.046857948981787" lon="120.69742120305727"><ele>9.0</ele><time>2026-03-28T12:29:32Z</time></trkpt><trkpt lat="15.04705983845196" lon="120.69722365727642"><ele>9.0</ele><time>2026-03-28T12:29:33Z</time></trkpt><trkpt lat="15.047265669153093" lon="120.69702620900414"><ele>9.0</ele><time>2026-03-28T12:29:34Z</time></trkpt><trkpt lat="15.047472213767554" lon="120.69683436275173"><ele>9.0</ele><time>2026-03-28T12:29:35Z</time></trkpt><trkpt lat="15.04767990090219" lon="120.69663729837383"><ele>9.0</ele><time>2026-03-28T12:29:36Z</time></trkpt><trkpt lat="15.047888635692368" lon="120.69643597141969"><ele>9.0</ele><time>2026-03-28T12:29:37Z</time></trkpt><trkpt lat="15.048104795902221" lon="120.69623891691663"><ele>8.5</ele><time>2026-03-28T12:29:38Z</time></trkpt><trkpt lat="15.048313150453621" lon="120.6960484350525"><ele>8.0</ele><time>2026-03-28T12:29:39Z</time></trkpt><trkpt lat="15.048522741814734" lon="120.6958461711101"><ele>8.0</ele><time>2026-03-28T12:29:40Z</time></trkpt><trkpt lat="15.0487348194477" lon="120.6956533098156"><ele>8.0</ele><time>2026-03-28T12:29:41Z</time></trkpt><trkpt lat="15.048960450310533" lon="120.6954495446596"><ele>9.0</ele><time>2026-03-28T12:29:42Z</time></trkpt><trkpt lat="15.049173588086" lon="120.69525870490264"><ele>10.0</ele><time>2026-03-28T12:29:43Z</time></trkpt><trkpt lat="15.049379849048757" lon="120.69507232622968"><ele>10.5</ele><time>2026-03-28T12:29:44Z</time></trkpt><trkpt lat="15.049598689656547" lon="120.69488249053221"><ele>11.0</ele><time>2026-03-28T12:29:45Z</time></trkpt><trkpt lat="15.04981312743068" lon="120.69469394525673"><ele>10.5</ele><time>2026-03-28T12:29:46Z</time></trkpt><trkpt lat="15.050023145938896" lon="120.69451271625915"><ele>10.0</ele><time>2026-03-28T12:29:47Z</time></trkpt><trkpt lat="15.050248181186108" lon="120.69433212273188"><ele>9.5</ele><time>2026-03-28T12:29:48Z</time></trkpt><trkpt lat="15.05046664874495" lon="120.69415699554878"><ele>9.0</ele><time>2026-03-28T12:29:49Z</time></trkpt><trkpt lat="15.050685710702734" lon="120.69397117684362"><ele>10.0</ele><time>2026-03-28T12:29:50Z</time></trkpt><trkpt lat="15.050901505418" lon="120.69378570622611"><ele>11.0</ele><time>2026-03-28T12:29:51Z</time></trkpt><trkpt lat="15.05112017925611" lon="120.69360418283948"><ele>12.5</ele><time>2026-03-28T12:29:52Z</time></trkpt><trkpt lat="15.051320499021596" lon="120.69342988650035"><ele>14.0</ele><time>2026-03-28T12:29:53Z</time></trkpt><trkpt lat="15.051530587090484" lon="120.69325014764277"><ele>12.0</ele><time>2026-03-28T12:29:54Z</time></trkpt><trkpt lat="15.051738129332184" lon="120.69307534392274"><ele>10.0</ele><time>2026-03-28T12:29:55Z</time></trkpt><trkpt lat="15.051944989611417" lon="120.69289814555374"><ele>11.0</ele><time>2026-03-28T12:29:56Z</time></trkpt><trkpt lat="15.052156927861907" lon="120.69271609234987"><ele>12.0</ele><time>2026-03-28T12:29:57Z</time></trkpt><trkpt lat="15.052368585571017" lon="120.69253232599506"><ele>11.5</ele><time>2026-03-28T12:29:58Z</time></trkpt><trkpt lat="15.052582121779551" lon="120.69235712492407"><ele>11.0</ele><time>2026-03-28T12:29:59Z</time></trkpt><trkpt lat="15.052795141917429" lon="120.6921824663814"><ele>11.0</ele><time>2026-03-28T12:30:00Z</time></trkpt><trkpt lat="15.052994288443413" lon="120.69200351739018"><ele>11.0</ele><time>2026-03-28T12:30:01Z</time></trkpt><trkpt lat="15.053205742663794" lon="120.69182946280023"><ele>11.0</ele><time>2026-03-28T12:30:02Z</time></trkpt><trkpt lat="15.053413400043246" lon="120.69165754959717"><ele>11.0</ele><time>2026-03-28T12:30:03Z</time></trkpt><trkpt lat="15.053625736662504" lon="120.6914883050337"><ele>11.0</ele><time>2026-03-28T12:30:04Z</time></trkpt><trkpt lat="15.053837181934991" lon="120.69132258091183"><ele>11.0</ele><time>2026-03-28T12:30:05Z</time></trkpt><trkpt lat="15.054048960240818" lon="120.69115562509359"><ele>10.5</ele><time>2026-03-28T12:30:06Z</time></trkpt><trkpt lat="15.054261533118332" lon="120.69098380941892"><ele>10.0</ele><time>2026-03-28T12:30:07Z</time></trkpt><trkpt lat="15.054475107825294" lon="120.69082034651949"><ele>10.0</ele><time>2026-03-28T12:30:08Z</time></trkpt><trkpt lat="15.054687504630014" lon="120.69066158352717"><ele>10.0</ele><time>2026-03-28T12:30:09Z</time></trkpt><trkpt lat="15.054899154868574" lon="120.69050255201684"><ele>10.0</ele><time>2026-03-28T12:30:10Z</time></trkpt><trkpt lat="15.055107244988765" lon="120.69033951759162"><ele>10.0</ele><time>2026-03-28T12:30:11Z</time></trkpt><trkpt lat="15.05530578994458" lon="120.69018440731664"><ele>10.0</ele><time>2026-03-28T12:30:12Z</time></trkpt><trkpt lat="15.05550802129806" lon="120.69002967934338"><ele>10.0</ele><time>2026-03-28T12:30:13Z</time></trkpt><trkpt lat="15.055707994039237" lon="120.68987206219603"><ele>9.5</ele><time>2026-03-28T12:30:14Z</time></trkpt><trkpt lat="15.055892966947097" lon="120.68972639704718"><ele>9.0</ele><time>2026-03-28T12:30:15Z</time></trkpt><trkpt lat="15.05607746023197" lon="120.68958092860453"><ele>9.0</ele><time>2026-03-28T12:30:16Z</time></trkpt><trkpt lat="15.056264093308501" lon="120.68943556247932"><ele>9.0</ele><time>2026-03-28T12:30:17Z</time></trkpt><trkpt lat="15.056436326723748" lon="120.68930335495038"><ele>9.0</ele><time>2026-03-28T12:30:18Z</time></trkpt><trkpt lat="15.056620998915601" lon="120.68916472142766"><ele>9.333333333333334</ele><time>2026-03-28T12:30:19Z</time></trkpt><trkpt lat="15.056795333757231" lon="120.6890380919828"><ele>9.666666666666668</ele><time>2026-03-28T12:30:20Z</time></trkpt><trkpt lat="15.056972476439999" lon="120.6889095732461"><ele>10.0</ele><time>2026-03-28T12:30:21Z</time></trkpt><trkpt lat="15.057148734541155" lon="120.68878055724284"><ele>10.0</ele><time>2026-03-28T12:30:22Z</time></trkpt><trkpt lat="15.057327796898415" lon="120.68864728377424"><ele>10.0</ele><time>2026-03-28T12:30:23Z</time></trkpt><trkpt lat="15.057508056902297" lon="120.68851075725772"><ele>10.0</ele><time>2026-03-28T12:30:24Z</time></trkpt><trkpt lat="15.057688445446963" lon="120.6883818323426"><ele>11.333333333333334</ele><time>2026-03-28T12:30:25Z</time></trkpt><trkpt lat="15.057874069267632" lon="120.68826035034004"><ele>12.666666666666668</ele><time>2026-03-28T12:30:26Z</time></trkpt><trkpt lat="15.058052820863221" lon="120.6881287999189"><ele>14.0</ele><time>2026-03-28T12:30:27Z</time></trkpt><trkpt lat="15.058234540900116" lon="120.68799248534903"><ele>14.0</ele><time>2026-03-28T12:30:28Z</time></trkpt><trkpt lat="15.05842275252231" lon="120.68785750128794"><ele>14.0</ele><time>2026-03-28T12:30:29Z</time></trkpt><trkpt lat="15.058604293367946" lon="120.6877251749452"><ele>14.0</ele><time>2026-03-28T12:30:30Z</time></trkpt><trkpt lat="15.05879150850968" lon="120.68758906907242"><ele>14.0</ele><time>2026-03-28T12:30:31Z</time></trkpt><trkpt lat="15.05898179230774" lon="120.68745493744674"><ele>14.0</ele><time>2026-03-28T12:30:32Z</time></trkpt><trkpt lat="15.059174830009015" lon="120.68731345351314"><ele>14.0</ele><time>2026-03-28T12:30:33Z</time></trkpt><trkpt lat="15.059355390988799" lon="120.68717395290115"><ele>14.0</ele><time>2026-03-28T12:30:34Z</time></trkpt><trkpt lat="15.059547329040612" lon="120.687038628147"><ele>14.0</ele><time>2026-03-28T12:30:35Z</time></trkpt><trkpt lat="15.059744315418808" lon="120.68689417010495"><ele>14.5</ele><time>2026-03-28T12:30:36Z</time></trkpt><trkpt lat="15.059933332907477" lon="120.68675526229983"><ele>15.0</ele><time>2026-03-28T12:30:37Z</time></trkpt><trkpt lat="15.060124598880224" lon="120.68661043038844"><ele>15.0</ele><time>2026-03-28T12:30:38Z</time></trkpt><trkpt lat="15.06031859806828" lon="120.68647316468152"><ele>15.0</ele><time>2026-03-28T12:30:39Z</time></trkpt><trkpt lat="15.060512248189164" lon="120.68633527888616"><ele>15.0</ele><time>2026-03-28T12:30:40Z</time></trkpt><trkpt lat="15.06070253791266" lon="120.68619623969506"><ele>15.0</ele><time>2026-03-28T12:30:41Z</time></trkpt><trkpt lat="15.06090251060456" lon="120.68605914841605"><ele>14.5</ele><time>2026-03-28T12:30:42Z</time></trkpt><trkpt lat="15.061099351352262" lon="120.68593238803719"><ele>14.0</ele><time>2026-03-28T12:30:43Z</time></trkpt><trkpt lat="15.061298606179026" lon="120.68580128475597"><ele>14.0</ele><time>2026-03-28T12:30:44Z</time></trkpt><trkpt lat="15.061500419862307" lon="120.68567136583246"><ele>14.0</ele><time>2026-03-28T12:30:45Z</time></trkpt><trkpt lat="15.061706643968753" lon="120.6855347648796"><ele>14.0</ele><time>2026-03-28T12:30:46Z</time></trkpt><trkpt lat="15.061914459876556" lon="120.68540070822996"><ele>14.0</ele><time>2026-03-28T12:30:47Z</time></trkpt><trkpt lat="15.062126068534184" lon="120.68526389356116"><ele>14.0</ele><time>2026-03-28T12:30:48Z</time></trkpt><trkpt lat="15.062331953414612" lon="120.68512618783569"><ele>14.0</ele><time>2026-03-28T12:30:49Z</time></trkpt><trkpt lat="15.06254000614371" lon="120.68499055915493"><ele>15.0</ele><time>2026-03-28T12:30:50Z</time></trkpt><trkpt lat="15.062736427878338" lon="120.68485995511668"><ele>16.0</ele><time>2026-03-28T12:30:51Z</time></trkpt><trkpt lat="15.062949700912373" lon="120.68472498427596"><ele>16.0</ele><time>2026-03-28T12:30:52Z</time></trkpt><trkpt lat="15.06316121179682" lon="120.68458923280002"><ele>16.0</ele><time>2026-03-28T12:30:53Z</time></trkpt><trkpt lat="15.063379053389589" lon="120.68445440382"><ele>16.0</ele><time>2026-03-28T12:30:54Z</time></trkpt><trkpt lat="15.063586491640535" lon="120.68432286823506"><ele>16.0</ele><time>2026-03-28T12:30:55Z</time></trkpt><trkpt lat="15.063803819088731" lon="120.68418816486088"><ele>16.0</ele><time>2026-03-28T12:30:56Z</time></trkpt><trkpt lat="15.06402405190483" lon="120.68405113261078"><ele>16.0</ele><time>2026-03-28T12:30:57Z</time></trkpt><trkpt lat="15.064234791514432" lon="120.68391624667895"><ele>16.0</ele><time>2026-03-28T12:30:58Z</time></trkpt><trkpt lat="15.064445736524434" lon="120.68378016751487"><ele>16.0</ele><time>2026-03-28T12:30:59Z</time></trkpt><trkpt lat="15.064659689377624" lon="120.68364468429354"><ele>17.0</ele><time>2026-03-28T12:31:00Z</time></trkpt><trkpt lat="15.064875349726305" lon="120.68351370436856"><ele>18.0</ele><time>2026-03-28T12:31:01Z</time></trkpt><trkpt lat="15.06509475307907" lon="120.68337660279721"><ele>18.0</ele><time>2026-03-28T12:31:02Z</time></trkpt><trkpt lat="15.065317246080916" lon="120.68324050685705"><ele>18.0</ele><time>2026-03-28T12:31:03Z</time></trkpt><trkpt lat="15.06553250544374" lon="120.68310913124432"><ele>18.0</ele><time>2026-03-28T12:31:04Z</time></trkpt><trkpt lat="15.065757152078248" lon="120.68297638394222"><ele>18.0</ele><time>2026-03-28T12:31:05Z</time></trkpt><trkpt lat="15.065972863402488" lon="120.68284262526984"><ele>18.0</ele><time>2026-03-28T12:31:06Z</time></trkpt><trkpt lat="15.066188476685111" lon="120.68271209459803"><ele>18.0</ele><time>2026-03-28T12:31:07Z</time></trkpt><trkpt lat="15.06640919433835" lon="120.68258132776484"><ele>17.5</ele><time>2026-03-28T12:31:08Z</time></trkpt><trkpt lat="15.066628352126871" lon="120.68245395499414"><ele>17.0</ele><time>2026-03-28T12:31:09Z</time></trkpt><trkpt lat="15.066848025167312" lon="120.68232966416173"><ele>17.0</ele><time>2026-03-28T12:31:10Z</time></trkpt><trkpt lat="15.067069365025743" lon="120.68220478560784"><ele>17.0</ele><time>2026-03-28T12:31:11Z</time></trkpt><trkpt lat="15.067280740863518" lon="120.68208165895318"><ele>17.0</ele><time>2026-03-28T12:31:12Z</time></trkpt><trkpt lat="15.067495699517286" lon="120.681959630853"><ele>17.0</ele><time>2026-03-28T12:31:13Z</time></trkpt><trkpt lat="15.067710095925982" lon="120.68183642869649"><ele>18.5</ele><time>2026-03-28T12:31:14Z</time></trkpt><trkpt lat="15.067927212434645" lon="120.68171784410433"><ele>20.0</ele><time>2026-03-28T12:31:15Z</time></trkpt><trkpt lat="15.068146842062056" lon="120.68159609269578"><ele>21.5</ele><time>2026-03-28T12:31:16Z</time></trkpt><trkpt lat="15.068365556993454" lon="120.68147455911333"><ele>23.0</ele><time>2026-03-28T12:31:17Z</time></trkpt><trkpt lat="15.068570911417824" lon="120.68135507286853"><ele>23.0</ele><time>2026-03-28T12:31:18Z</time></trkpt><trkpt lat="15.068789490373092" lon="120.6812307828822"><ele>23.0</ele><time>2026-03-28T12:31:19Z</time></trkpt><trkpt lat="15.069011561294754" lon="120.68110752911848"><ele>22.0</ele><time>2026-03-28T12:31:20Z</time></trkpt><trkpt lat="15.069231998852324" lon="120.6809861866366"><ele>21.0</ele><time>2026-03-28T12:31:21Z</time></trkpt><trkpt lat="15.06945234790036" lon="120.68086118613722"><ele>21.0</ele><time>2026-03-28T12:31:22Z</time></trkpt><trkpt lat="15.06968011316664" lon="120.68074054404235"><ele>21.0</ele><time>2026-03-28T12:31:23Z</time></trkpt><trkpt lat="15.069892923205352" lon="120.6806248491854"><ele>21.0</ele><time>2026-03-28T12:31:24Z</time></trkpt><trkpt lat="15.070112501440862" lon="120.68051247529465"><ele>21.0</ele><time>2026-03-28T12:31:25Z</time></trkpt><trkpt lat="15.070324687036393" lon="120.6803970128417"><ele>21.0</ele><time>2026-03-28T12:31:26Z</time></trkpt><trkpt lat="15.070544071418887" lon="120.68028405885802"><ele>21.0</ele><time>2026-03-28T12:31:27Z</time></trkpt><trkpt lat="15.070761053281974" lon="120.68017057220258"><ele>22.5</ele><time>2026-03-28T12:31:28Z</time></trkpt><trkpt lat="15.070976432521842" lon="120.68005651896726"><ele>24.0</ele><time>2026-03-28T12:31:29Z</time></trkpt><trkpt lat="15.071201521895151" lon="120.67994547854087"><ele>24.0</ele><time>2026-03-28T12:31:30Z</time></trkpt><trkpt lat="15.071423339279097" lon="120.67982958781369"><ele>24.0</ele><time>2026-03-28T12:31:31Z</time></trkpt><trkpt lat="15.071642863995493" lon="120.67971738900142"><ele>22.5</ele><time>2026-03-28T12:31:32Z</time></trkpt><trkpt lat="15.07186456479656" lon="120.67960386328024"><ele>21.0</ele><time>2026-03-28T12:31:33Z</time></trkpt><trkpt lat="15.072083294403482" lon="120.67949074821053"><ele>21.5</ele><time>2026-03-28T12:31:34Z</time></trkpt><trkpt lat="15.072297487498272" lon="120.67937761320908"><ele>22.0</ele><time>2026-03-28T12:31:35Z</time></trkpt><trkpt lat="15.072513445721757" lon="120.67926463502606"><ele>23.0</ele><time>2026-03-28T12:31:36Z</time></trkpt><trkpt lat="15.072732655329297" lon="120.67915274878244"><ele>24.0</ele><time>2026-03-28T12:31:37Z</time></trkpt><trkpt lat="15.072945709045944" lon="120.67903946409824"><ele>24.0</ele><time>2026-03-28T12:31:38Z</time></trkpt><trkpt lat="15.073167396508246" lon="120.6789370321583"><ele>24.0</ele><time>2026-03-28T12:31:39Z</time></trkpt><trkpt lat="15.073391681303534" lon="120.67882927543334"><ele>24.0</ele><time>2026-03-28T12:31:40Z</time></trkpt><trkpt lat="15.073617310789446" lon="120.67872121856742"><ele>24.0</ele><time>2026-03-28T12:31:41Z</time></trkpt><trkpt lat="15.073835769418345" lon="120.67861398713183"><ele>23.5</ele><time>2026-03-28T12:31:42Z</time></trkpt><trkpt lat="15.074071363430308" lon="120.67850117187568"><ele>23.0</ele><time>2026-03-28T12:31:43Z</time></trkpt><trkpt lat="15.07429092176182" lon="120.67839468990093"><ele>24.5</ele><time>2026-03-28T12:31:44Z</time></trkpt><trkpt lat="15.074517619993111" lon="120.67828023469063"><ele>26.0</ele><time>2026-03-28T12:31:45Z</time></trkpt><trkpt lat="15.074730689483467" lon="120.67815371989988"><ele>26.5</ele><time>2026-03-28T12:31:46Z</time></trkpt><trkpt lat="15.074939204769324" lon="120.6780432605371"><ele>27.0</ele><time>2026-03-28T12:31:47Z</time></trkpt><trkpt lat="15.07516454153802" lon="120.67793536433221"><ele>27.0</ele><time>2026-03-28T12:31:48Z</time></trkpt><trkpt lat="15.075387389339628" lon="120.67783233117731"><ele>27.0</ele><time>2026-03-28T12:31:49Z</time></trkpt><trkpt lat="15.075613711141097" lon="120.67773644555994"><ele>25.5</ele><time>2026-03-28T12:31:50Z</time></trkpt><trkpt lat="15.075842162644848" lon="120.67763140798318"><ele>24.0</ele><time>2026-03-28T12:31:51Z</time></trkpt><trkpt lat="15.076070841391962" lon="120.67753129616489"><ele>24.0</ele><time>2026-03-28T12:31:52Z</time></trkpt><trkpt lat="15.076303003260113" lon="120.67742782846376"><ele>24.0</ele><time>2026-03-28T12:31:53Z</time></trkpt><trkpt lat="15.076517119295485" lon="120.67731532352991"><ele>24.5</ele><time>2026-03-28T12:31:54Z</time></trkpt><trkpt lat="15.076754395053086" lon="120.67721571315171"><ele>25.0</ele><time>2026-03-28T12:31:55Z</time></trkpt><trkpt lat="15.076992073298522" lon="120.67710894810133"><ele>25.0</ele><time>2026-03-28T12:31:56Z</time></trkpt><trkpt lat="15.077226393010164" lon="120.67701141738866"><ele>25.0</ele><time>2026-03-28T12:31:57Z</time></trkpt><trkpt lat="15.077462554324915" lon="120.67689866321646"><ele>25.0</ele><time>2026-03-28T12:31:58Z</time></trkpt><trkpt lat="15.077700498663877" lon="120.67679442223212"><ele>25.0</ele><time>2026-03-28T12:31:59Z</time></trkpt><trkpt lat="15.077929440892007" lon="120.67668701994398"><ele>25.0</ele><time>2026-03-28T12:32:00Z</time></trkpt><trkpt lat="15.078168315440761" lon="120.67658176072415"><ele>25.0</ele><time>2026-03-28T12:32:01Z</time></trkpt><trkpt lat="15.078407174821388" lon="120.67648628113535"><ele>26.0</ele><time>2026-03-28T12:32:02Z</time></trkpt><trkpt lat="15.078644798726435" lon="120.6763819973372"><ele>27.0</ele><time>2026-03-28T12:32:03Z</time></trkpt><trkpt lat="15.078880236391644" lon="120.6762824272857"><ele>26.5</ele><time>2026-03-28T12:32:04Z</time></trkpt><trkpt lat="15.079120232583007" lon="120.67618279181015"><ele>26.0</ele><time>2026-03-28T12:32:05Z</time></trkpt><trkpt lat="15.079361090602946" lon="120.6760845010625"><ele>26.0</ele><time>2026-03-28T12:32:06Z</time></trkpt><trkpt lat="15.07959641477387" lon="120.67598321893976"><ele>26.0</ele><time>2026-03-28T12:32:07Z</time></trkpt><trkpt lat="15.079842760913152" lon="120.67587649084368"><ele>25.5</ele><time>2026-03-28T12:32:08Z</time></trkpt><trkpt lat="15.080077645181722" lon="120.67577214751807"><ele>25.0</ele><time>2026-03-28T12:32:09Z</time></trkpt><trkpt lat="15.080306755565225" lon="120.6756744585158"><ele>25.0</ele><time>2026-03-28T12:32:10Z</time></trkpt><trkpt lat="15.080542353996897" lon="120.6755824281901"><ele>25.0</ele><time>2026-03-28T12:32:11Z</time></trkpt><trkpt lat="15.080781141240607" lon="120.67548407321134"><ele>26.5</ele><time>2026-03-28T12:32:12Z</time></trkpt><trkpt lat="15.081017477532622" lon="120.6753898691349"><ele>28.0</ele><time>2026-03-28T12:32:13Z</time></trkpt><trkpt lat="15.081252414809336" lon="120.67530150318545"><ele>28.5</ele><time>2026-03-28T12:32:14Z</time></trkpt><trkpt lat="15.081481858066429" lon="120.67520877792082"><ele>29.0</ele><time>2026-03-28T12:32:15Z</time></trkpt><trkpt lat="15.081699304790346" lon="120.67511279009696"><ele>26.5</ele><time>2026-03-28T12:32:16Z</time></trkpt><trkpt lat="15.081917451228824" lon="120.67502629889535"><ele>24.0</ele><time>2026-03-28T12:32:17Z</time></trkpt><trkpt lat="15.082116978292749" lon="120.67493984965873"><ele>24.0</ele><time>2026-03-28T12:32:18Z</time></trkpt><trkpt lat="15.082326579551665" lon="120.67485408794622"><ele>24.0</ele><time>2026-03-28T12:32:19Z</time></trkpt><trkpt lat="15.082542344933096" lon="120.67476416564261"><ele>24.0</ele><time>2026-03-28T12:32:20Z</time></trkpt><trkpt lat="15.08275338618936" lon="120.67468465299523"><ele>24.0</ele><time>2026-03-28T12:32:21Z</time></trkpt><trkpt lat="15.082975008430545" lon="120.67459947546384"><ele>24.0</ele><time>2026-03-28T12:32:22Z</time></trkpt><trkpt lat="15.083187106655148" lon="120.67450438900912"><ele>24.0</ele><time>2026-03-28T12:32:23Z</time></trkpt><trkpt lat="15.083402791021154" lon="120.67441839408838"><ele>25.0</ele><time>2026-03-28T12:32:24Z</time></trkpt><trkpt lat="15.083622487972436" lon="120.67433685539837"><ele>26.0</ele><time>2026-03-28T12:32:25Z</time></trkpt><trkpt lat="15.083843447677411" lon="120.67424657549617"><ele>26.0</ele><time>2026-03-28T12:32:26Z</time></trkpt><trkpt lat="15.084061380755697" lon="120.67416399645269"><ele>26.0</ele><time>2026-03-28T12:32:27Z</time></trkpt><trkpt lat="15.084290083310728" lon="120.67407491902667"><ele>25.0</ele><time>2026-03-28T12:32:28Z</time></trkpt><trkpt lat="15.084523540573972" lon="120.6739824068787"><ele>24.0</ele><time>2026-03-28T12:32:29Z</time></trkpt><trkpt lat="15.084755599685161" lon="120.67389047331977"><ele>24.5</ele><time>2026-03-28T12:32:30Z</time></trkpt><trkpt lat="15.084988300511437" lon="120.67379668978587"><ele>25.0</ele><time>2026-03-28T12:32:31Z</time></trkpt><trkpt lat="15.085209389203252" lon="120.6737088057655"><ele>25.0</ele><time>2026-03-28T12:32:32Z</time></trkpt><trkpt lat="15.085440043829086" lon="120.6736189637996"><ele>25.0</ele><time>2026-03-28T12:32:33Z</time></trkpt><trkpt lat="15.085672991853667" lon="120.67351840725017"><ele>26.0</ele><time>2026-03-28T12:32:34Z</time></trkpt><trkpt lat="15.08589884421219" lon="120.67342108252228"><ele>27.0</ele><time>2026-03-28T12:32:35Z</time></trkpt><trkpt lat="15.086134680508833" lon="120.67332429650763"><ele>27.0</ele><time>2026-03-28T12:32:36Z</time></trkpt><trkpt lat="15.086364820334467" lon="120.67323238220796"><ele>27.0</ele><time>2026-03-28T12:32:37Z</time></trkpt><trkpt lat="15.086592114593916" lon="120.67313155455108"><ele>26.5</ele><time>2026-03-28T12:32:38Z</time></trkpt><trkpt lat="15.086827921209835" lon="120.67303792957702"><ele>26.0</ele><time>2026-03-28T12:32:39Z</time></trkpt><trkpt lat="15.087063300070286" lon="120.67294255046913"><ele>26.0</ele><time>2026-03-28T12:32:40Z</time></trkpt><trkpt lat="15.087304306480664" lon="120.67284697879006"><ele>26.0</ele><time>2026-03-28T12:32:41Z</time></trkpt><trkpt lat="15.087543984965453" lon="120.67274223581444"><ele>27.5</ele><time>2026-03-28T12:32:42Z</time></trkpt><trkpt lat="15.08778316955124" lon="120.67264076826551"><ele>29.0</ele><time>2026-03-28T12:32:43Z</time></trkpt><trkpt lat="15.088019283721813" lon="120.67254152288807"><ele>29.0</ele><time>2026-03-28T12:32:44Z</time></trkpt><trkpt lat="15.088251536754584" lon="120.67244093815519"><ele>29.0</ele><time>2026-03-28T12:32:45Z</time></trkpt><trkpt lat="15.088481992851069" lon="120.67233410369369"><ele>28.5</ele><time>2026-03-28T12:32:46Z</time></trkpt><trkpt lat="15.088720365338274" lon="120.67223763647303"><ele>28.0</ele><time>2026-03-28T12:32:47Z</time></trkpt><trkpt lat="15.08893945345029" lon="120.67214259698983"><ele>28.0</ele><time>2026-03-28T12:32:48Z</time></trkpt><trkpt lat="15.089157631170083" lon="120.67204325608908"><ele>28.0</ele><time>2026-03-28T12:32:49Z</time></trkpt><trkpt lat="15.089378259128507" lon="120.67194247992224"><ele>28.0</ele><time>2026-03-28T12:32:50Z</time></trkpt><trkpt lat="15.089582003912032" lon="120.67184813523622"><ele>28.0</ele><time>2026-03-28T12:32:51Z</time></trkpt><trkpt lat="15.089783348566634" lon="120.67175670144321"><ele>28.0</ele><time>2026-03-28T12:32:52Z</time></trkpt><trkpt lat="15.089983133435766" lon="120.6716669570702"><ele>28.333333333333336</ele><time>2026-03-28T12:32:53Z</time></trkpt><trkpt lat="15.090197964452091" lon="120.67157110234211"><ele>28.666666666666664</ele><time>2026-03-28T12:32:54Z</time></trkpt><trkpt lat="15.090395292585182" lon="120.67148633603975"><ele>29.0</ele><time>2026-03-28T12:32:55Z</time></trkpt><trkpt lat="15.090595070320784" lon="120.67138637643222"><ele>29.333333333333332</ele><time>2026-03-28T12:32:56Z</time></trkpt><trkpt lat="15.09078319973742" lon="120.67131326018439"><ele>29.666666666666664</ele><time>2026-03-28T12:32:57Z</time></trkpt><trkpt lat="15.090975132286406" lon="120.6712329599336"><ele>30.0</ele><time>2026-03-28T12:32:58Z</time></trkpt><trkpt lat="15.091163954985547" lon="120.67115024173293"><ele>29.666666666666664</ele><time>2026-03-28T12:32:59Z</time></trkpt><trkpt lat="15.091345917982656" lon="120.67106958430607"><ele>29.333333333333332</ele><time>2026-03-28T12:33:00Z</time></trkpt><trkpt lat="15.091525281907964" lon="120.67098786917573"><ele>29.0</ele><time>2026-03-28T12:33:01Z</time></trkpt><trkpt lat="15.091704152623366" lon="120.67090813765698"><ele>29.0</ele><time>2026-03-28T12:33:02Z</time></trkpt><trkpt lat="15.091890441219658" lon="120.6708215558905"><ele>29.0</ele><time>2026-03-28T12:33:03Z</time></trkpt><trkpt lat="15.092076516963164" lon="120.67073276819723"><ele>29.0</ele><time>2026-03-28T12:33:04Z</time></trkpt><trkpt lat="15.092249221132482" lon="120.67063207609908"><ele>28.666666666666664</ele><time>2026-03-28T12:33:05Z</time></trkpt><trkpt lat="15.092434714593887" lon="120.67055350146846"><ele>28.333333333333336</ele><time>2026-03-28T12:33:06Z</time></trkpt><trkpt lat="15.09261413745316" lon="120.67045285981146"><ele>28.0</ele><time>2026-03-28T12:33:07Z</time></trkpt><trkpt lat="15.092799327860662" lon="120.67036760595157"><ele>28.0</ele><time>2026-03-28T12:33:08Z</time></trkpt><trkpt lat="15.0929813553042" lon="120.67028373403161"><ele>28.0</ele><time>2026-03-28T12:33:09Z</time></trkpt><trkpt lat="15.093161549691517" lon="120.6701932842007"><ele>28.0</ele><time>2026-03-28T12:33:10Z</time></trkpt><trkpt lat="15.093341801528892" lon="120.67010718696396"><ele>28.666666666666668</ele><time>2026-03-28T12:33:11Z</time></trkpt><trkpt lat="15.09352372031052" lon="120.67002058120151"><ele>29.333333333333336</ele><time>2026-03-28T12:33:12Z</time></trkpt><trkpt lat="15.093711594083361" lon="120.66992976425688"><ele>30.0</ele><time>2026-03-28T12:33:13Z</time></trkpt><trkpt lat="15.093894016147269" lon="120.66984268806577"><ele>30.0</ele><time>2026-03-28T12:33:14Z</time></trkpt><trkpt lat="15.094073611947866" lon="120.66976043322666"><ele>30.0</ele><time>2026-03-28T12:33:15Z</time></trkpt><trkpt lat="15.094250294437675" lon="120.66967880532093"><ele>30.0</ele><time>2026-03-28T12:33:16Z</time></trkpt><trkpt lat="15.09441774766295" lon="120.66959451799569"><ele>30.333333333333336</ele><time>2026-03-28T12:33:17Z</time></trkpt><trkpt lat="15.09459533961083" lon="120.66950770422504"><ele>30.666666666666668</ele><time>2026-03-28T12:33:18Z</time></trkpt><trkpt lat="15.094761454900254" lon="120.66941742650148"><ele>31.0</ele><time>2026-03-28T12:33:19Z</time></trkpt><trkpt lat="15.094933107594894" lon="120.669329917456"><ele>31.666666666666668</ele><time>2026-03-28T12:33:20Z</time></trkpt><trkpt lat="15.095118507656894" lon="120.66924184219347"><ele>32.333333333333336</ele><time>2026-03-28T12:33:21Z</time></trkpt><trkpt lat="15.095295272770583" lon="120.66915137112382"><ele>33.0</ele><time>2026-03-28T12:33:22Z</time></trkpt><trkpt lat="15.09547844002935" lon="120.66906429340725"><ele>33.0</ele><time>2026-03-28T12:33:23Z</time></trkpt><trkpt lat="15.09565629459486" lon="120.66897181796801"><ele>33.0</ele><time>2026-03-28T12:33:24Z</time></trkpt><trkpt lat="15.095831743833301" lon="120.6688805757735"><ele>33.0</ele><time>2026-03-28T12:33:25Z</time></trkpt><trkpt lat="15.096010141799205" lon="120.66879300162218"><ele>32.666666666666664</ele><time>2026-03-28T12:33:26Z</time></trkpt><trkpt lat="15.096188651481224" lon="120.66870459867967"><ele>32.33333333333333</ele><time>2026-03-28T12:33:27Z</time></trkpt><trkpt lat="15.09636655859884" lon="120.66861222138351"><ele>32.0</ele><time>2026-03-28T12:33:28Z</time></trkpt><trkpt lat="15.09654062804666" lon="120.66851845771659"><ele>32.33333333333333</ele><time>2026-03-28T12:33:29Z</time></trkpt><trkpt lat="15.096711507212907" lon="120.66843118473253"><ele>32.666666666666664</ele><time>2026-03-28T12:33:30Z</time></trkpt><trkpt lat="15.096883856000568" lon="120.66834705226078"><ele>33.0</ele><time>2026-03-28T12:33:31Z</time></trkpt><trkpt lat="15.097056342939352" lon="120.66825370921363"><ele>33.0</ele><time>2026-03-28T12:33:32Z</time></trkpt><trkpt lat="15.097238704989604" lon="120.6681549347426"><ele>33.0</ele><time>2026-03-28T12:33:33Z</time></trkpt><trkpt lat="15.097423022885955" lon="120.66805452932196"><ele>33.0</ele><time>2026-03-28T12:33:34Z</time></trkpt><trkpt lat="15.097604524242636" lon="120.6679476124829"><ele>33.0</ele><time>2026-03-28T12:33:35Z</time></trkpt><trkpt lat="15.097789365252762" lon="120.66784867348117"><ele>33.0</ele><time>2026-03-28T12:33:36Z</time></trkpt><trkpt lat="15.097977641204537" lon="120.66774887399161"><ele>33.0</ele><time>2026-03-28T12:33:37Z</time></trkpt><trkpt lat="15.09816471188456" lon="120.66764894902809"><ele>33.666666666666664</ele><time>2026-03-28T12:33:38Z</time></trkpt><trkpt lat="15.09835050223023" lon="120.66754748271663"><ele>34.33333333333333</ele><time>2026-03-28T12:33:39Z</time></trkpt><trkpt lat="15.098532811520409" lon="120.66744647037356"><ele>35.0</ele><time>2026-03-28T12:33:40Z</time></trkpt><trkpt lat="15.098726845840961" lon="120.66734617560638"><ele>35.0</ele><time>2026-03-28T12:33:41Z</time></trkpt><trkpt lat="15.098912669191813" lon="120.66723632751066"><ele>35.0</ele><time>2026-03-28T12:33:42Z</time></trkpt><trkpt lat="15.099100929641356" lon="120.66712819520095"><ele>35.0</ele><time>2026-03-28T12:33:43Z</time></trkpt><trkpt lat="15.099292564298647" lon="120.66702501090123"><ele>35.0</ele><time>2026-03-28T12:33:44Z</time></trkpt><trkpt lat="15.09948041386148" lon="120.66692726311311"><ele>35.0</ele><time>2026-03-28T12:33:45Z</time></trkpt><trkpt lat="15.099666481991363" lon="120.66681461901159"><ele>35.0</ele><time>2026-03-28T12:33:46Z</time></trkpt><trkpt lat="15.099858637249525" lon="120.66670501052187"><ele>36.0</ele><time>2026-03-28T12:33:47Z</time></trkpt><trkpt lat="15.1000566030933" lon="120.66659733827349"><ele>37.0</ele><time>2026-03-28T12:33:48Z</time></trkpt><trkpt lat="15.100257385910208" lon="120.66648019601253"><ele>37.0</ele><time>2026-03-28T12:33:49Z</time></trkpt><trkpt lat="15.10046303379135" lon="120.66636278144742"><ele>37.0</ele><time>2026-03-28T12:33:50Z</time></trkpt><trkpt lat="15.100672238540866" lon="120.66625449653438"><ele>36.0</ele><time>2026-03-28T12:33:51Z</time></trkpt><trkpt lat="15.100892149251127" lon="120.66613709244075"><ele>35.0</ele><time>2026-03-28T12:33:52Z</time></trkpt><trkpt lat="15.101118557424451" lon="120.66601468253552"><ele>35.0</ele><time>2026-03-28T12:33:53Z</time></trkpt><trkpt lat="15.101342656882608" lon="120.66589147714919"><ele>35.0</ele><time>2026-03-28T12:33:54Z</time></trkpt><trkpt lat="15.10157231939115" lon="120.66576225820158"><ele>35.0</ele><time>2026-03-28T12:33:55Z</time></trkpt><trkpt lat="15.101798171920237" lon="120.66563445727844"><ele>35.0</ele><time>2026-03-28T12:33:56Z</time></trkpt><trkpt lat="15.102030035651573" lon="120.66549760141537"><ele>35.0</ele><time>2026-03-28T12:33:57Z</time></trkpt><trkpt lat="15.102258219792628" lon="120.66537100563988"><ele>35.0</ele><time>2026-03-28T12:33:58Z</time></trkpt><trkpt lat="15.102496610247071" lon="120.6652415077884"><ele>36.0</ele><time>2026-03-28T12:33:59Z</time></trkpt><trkpt lat="15.102726622391971" lon="120.6651070266942"><ele>37.0</ele><time>2026-03-28T12:34:00Z</time></trkpt><trkpt lat="15.10295552574157" lon="120.66496962642483"><ele>37.0</ele><time>2026-03-28T12:34:01Z</time></trkpt><trkpt lat="15.103182408881349" lon="120.66483125039102"><ele>37.0</ele><time>2026-03-28T12:34:02Z</time></trkpt><trkpt lat="15.103422593316022" lon="120.66470036417864"><ele>36.0</ele><time>2026-03-28T12:34:03Z</time></trkpt><trkpt lat="15.103656802320153" lon="120.66456387818937"><ele>35.0</ele><time>2026-03-28T12:34:04Z</time></trkpt><trkpt lat="15.103891259875807" lon="120.66442525651725"><ele>35.0</ele><time>2026-03-28T12:34:05Z</time></trkpt><trkpt lat="15.10412279486172" lon="120.66428593177282"><ele>35.0</ele><time>2026-03-28T12:34:06Z</time></trkpt><trkpt lat="15.104356762821995" lon="120.6641418394905"><ele>35.0</ele><time>2026-03-28T12:34:07Z</time></trkpt><trkpt lat="15.104586775062602" lon="120.66400542676412"><ele>35.0</ele><time>2026-03-28T12:34:08Z</time></trkpt><trkpt lat="15.104803768200124" lon="120.66386873658514"><ele>34.5</ele><time>2026-03-28T12:34:09Z</time></trkpt><trkpt lat="15.105034503923502" lon="120.66372740894951"><ele>34.0</ele><time>2026-03-28T12:34:10Z</time></trkpt><trkpt lat="15.10525353185358" lon="120.66358420845444"><ele>35.0</ele><time>2026-03-28T12:34:11Z</time></trkpt><trkpt lat="15.105474953622911" lon="120.66344197760661"><ele>36.0</ele><time>2026-03-28T12:34:12Z</time></trkpt><trkpt lat="15.105707344007406" lon="120.66329884241435"><ele>36.0</ele><time>2026-03-28T12:34:13Z</time></trkpt><trkpt lat="15.105938268422873" lon="120.66315597529085"><ele>36.0</ele><time>2026-03-28T12:34:14Z</time></trkpt><trkpt lat="15.106174949643574" lon="120.66299733079482"><ele>36.0</ele><time>2026-03-28T12:34:15Z</time></trkpt><trkpt lat="15.106401865585909" lon="120.66286401309023"><ele>36.0</ele><time>2026-03-28T12:34:16Z</time></trkpt><trkpt lat="15.10663570446688" lon="120.66272053604536"><ele>37.5</ele><time>2026-03-28T12:34:17Z</time></trkpt><trkpt lat="15.106868199613478" lon="120.66257677586431"><ele>39.0</ele><time>2026-03-28T12:34:18Z</time></trkpt><trkpt lat="15.10709559751772" lon="120.66242774416794"><ele>39.0</ele><time>2026-03-28T12:34:19Z</time></trkpt><trkpt lat="15.107324898242844" lon="120.66228081050855"><ele>39.0</ele><time>2026-03-28T12:34:20Z</time></trkpt><trkpt lat="15.107551114432347" lon="120.66213119207717"><ele>39.0</ele><time>2026-03-28T12:34:21Z</time></trkpt><trkpt lat="15.107778340497845" lon="120.66198367497533"><ele>39.0</ele><time>2026-03-28T12:34:22Z</time></trkpt><trkpt lat="15.10801415818012" lon="120.66182790690699"><ele>39.0</ele><time>2026-03-28T12:34:23Z</time></trkpt><trkpt lat="15.108239337043797" lon="120.66167792918428"><ele>39.0</ele><time>2026-03-28T12:34:24Z</time></trkpt><trkpt lat="15.108461396571961" lon="120.66153484863602"><ele>39.0</ele><time>2026-03-28T12:34:25Z</time></trkpt><trkpt lat="15.108681111657258" lon="120.66138911785092"><ele>39.0</ele><time>2026-03-28T12:34:26Z</time></trkpt><trkpt lat="15.108897918375389" lon="120.66124951605657"><ele>40.5</ele><time>2026-03-28T12:34:27Z</time></trkpt><trkpt lat="15.109110728947423" lon="120.66111158153892"><ele>42.0</ele><time>2026-03-28T12:34:28Z</time></trkpt><trkpt lat="15.109321960643898" lon="120.66096722749002"><ele>42.0</ele><time>2026-03-28T12:34:29Z</time></trkpt><trkpt lat="15.109522152778416" lon="120.66083287728664"><ele>42.0</ele><time>2026-03-28T12:34:30Z</time></trkpt><trkpt lat="15.109722891742395" lon="120.66069733690131"><ele>42.5</ele><time>2026-03-28T12:34:31Z</time></trkpt><trkpt lat="15.1099176362209" lon="120.66056599595352"><ele>43.0</ele><time>2026-03-28T12:34:32Z</time></trkpt><trkpt lat="15.11011340526891" lon="120.66043255516432"><ele>43.0</ele><time>2026-03-28T12:34:33Z</time></trkpt><trkpt lat="15.110295187939915" lon="120.66030669577592"><ele>43.0</ele><time>2026-03-28T12:34:34Z</time></trkpt><trkpt lat="15.110484714602707" lon="120.66017570083058"><ele>43.0</ele><time>2026-03-28T12:34:35Z</time></trkpt><trkpt lat="15.110676224001578" lon="120.66004474205398"><ele>43.0</ele><time>2026-03-28T12:34:36Z</time></trkpt><trkpt lat="15.110858821905799" lon="120.65991806327183"><ele>43.0</ele><time>2026-03-28T12:34:37Z</time></trkpt><trkpt lat="15.111040754413988" lon="120.65978962010566"><ele>43.0</ele><time>2026-03-28T12:34:38Z</time></trkpt><trkpt lat="15.111229024184345" lon="120.65965924446567"><ele>43.0</ele><time>2026-03-28T12:34:39Z</time></trkpt><trkpt lat="15.111412142528073" lon="120.65953325437681"><ele>43.0</ele><time>2026-03-28T12:34:40Z</time></trkpt><trkpt lat="15.111601427835161" lon="120.65940125785487"><ele>43.0</ele><time>2026-03-28T12:34:41Z</time></trkpt><trkpt lat="15.111782185970963" lon="120.65927539673565"><ele>43.5</ele><time>2026-03-28T12:34:42Z</time></trkpt><trkpt lat="15.111969410290236" lon="120.65913635511707"><ele>44.0</ele><time>2026-03-28T12:34:43Z</time></trkpt><trkpt lat="15.112156279111954" lon="120.65900550711207"><ele>44.0</ele><time>2026-03-28T12:34:44Z</time></trkpt><trkpt lat="15.112342355060758" lon="120.65887709086637"><ele>44.0</ele><time>2026-03-28T12:34:45Z</time></trkpt><trkpt lat="15.112526857074164" lon="120.65875033990142"><ele>44.0</ele><time>2026-03-28T12:34:46Z</time></trkpt><trkpt lat="15.11271241919032" lon="120.65861561217385"><ele>44.0</ele><time>2026-03-28T12:34:47Z</time></trkpt><trkpt lat="15.112899993452825" lon="120.65848303797873"><ele>44.0</ele><time>2026-03-28T12:34:48Z</time></trkpt><trkpt lat="15.113096486672465" lon="120.65834737805903"><ele>44.0</ele><time>2026-03-28T12:34:49Z</time></trkpt><trkpt lat="15.113290411929434" lon="120.65819788304881"><ele>44.0</ele><time>2026-03-28T12:34:50Z</time></trkpt><trkpt lat="15.113485153487396" lon="120.65805951471587"><ele>44.0</ele><time>2026-03-28T12:34:51Z</time></trkpt><trkpt lat="15.113680143240444" lon="120.65792090096521"><ele>44.0</ele><time>2026-03-28T12:34:52Z</time></trkpt><trkpt lat="15.113880496020625" lon="120.65777658152288"><ele>42.5</ele><time>2026-03-28T12:34:53Z</time></trkpt><trkpt lat="15.114083517119978" lon="120.65762895196787"><ele>41.0</ele><time>2026-03-28T12:34:54Z</time></trkpt><trkpt lat="15.114286707889383" lon="120.65748480389733"><ele>41.0</ele><time>2026-03-28T12:34:55Z</time></trkpt><trkpt lat="15.114497671635732" lon="120.6573413801502"><ele>41.0</ele><time>2026-03-28T12:34:56Z</time></trkpt><trkpt lat="15.114706271783886" lon="120.65718953454059"><ele>42.5</ele><time>2026-03-28T12:34:57Z</time></trkpt><trkpt lat="15.114911724618072" lon="120.65703344019614"><ele>44.0</ele><time>2026-03-28T12:34:58Z</time></trkpt><trkpt lat="15.11511316535039" lon="120.65688039203802"><ele>44.5</ele><time>2026-03-28T12:34:59Z</time></trkpt><trkpt lat="15.115320935562634" lon="120.65672852883677"><ele>45.0</ele><time>2026-03-28T12:35:00Z</time></trkpt><trkpt lat="15.115539259836984" lon="120.6565733215678"><ele>45.0</ele><time>2026-03-28T12:35:01Z</time></trkpt><trkpt lat="15.115749656440357" lon="120.65641395130127"><ele>45.0</ele><time>2026-03-28T12:35:02Z</time></trkpt><trkpt lat="15.115947646823164" lon="120.65624875822732"><ele>43.5</ele><time>2026-03-28T12:35:03Z</time></trkpt><trkpt lat="15.116164695182874" lon="120.65609240097471"><ele>42.0</ele><time>2026-03-28T12:35:04Z</time></trkpt><trkpt lat="15.11638815597706" lon="120.65592616615484"><ele>42.5</ele><time>2026-03-28T12:35:05Z</time></trkpt><trkpt lat="15.116602879126795" lon="120.65575884910189"><ele>43.0</ele><time>2026-03-28T12:35:06Z</time></trkpt><trkpt lat="15.116817322274459" lon="120.6555984810295"><ele>43.0</ele><time>2026-03-28T12:35:07Z</time></trkpt><trkpt lat="15.11703150300451" lon="120.65542872743119"><ele>43.0</ele><time>2026-03-28T12:35:08Z</time></trkpt><trkpt lat="15.11723698510284" lon="120.65526009178983"><ele>42.0</ele><time>2026-03-28T12:35:09Z</time></trkpt><trkpt lat="15.117444451114151" lon="120.6550943417751"><ele>41.0</ele><time>2026-03-28T12:35:10Z</time></trkpt><trkpt lat="15.117653596035183" lon="120.65493305494445"><ele>41.0</ele><time>2026-03-28T12:35:11Z</time></trkpt><trkpt lat="15.11786542005275" lon="120.65477036394446"><ele>41.0</ele><time>2026-03-28T12:35:12Z</time></trkpt><trkpt lat="15.118083888160307" lon="120.65459669333268"><ele>43.0</ele><time>2026-03-28T12:35:13Z</time></trkpt><trkpt lat="15.118297527488394" lon="120.6544242008897"><ele>45.0</ele><time>2026-03-28T12:35:14Z</time></trkpt><trkpt lat="15.118515885329167" lon="120.65425153244917"><ele>45.0</ele><time>2026-03-28T12:35:15Z</time></trkpt><trkpt lat="15.118734518245" lon="120.65407665078094"><ele>45.0</ele><time>2026-03-28T12:35:16Z</time></trkpt><trkpt lat="15.11895637769426" lon="120.65389865524452"><ele>44.5</ele><time>2026-03-28T12:35:17Z</time></trkpt><trkpt lat="15.119179831363727" lon="120.6537231355819"><ele>44.0</ele><time>2026-03-28T12:35:18Z</time></trkpt><trkpt lat="15.119402239492294" lon="120.65354722155638"><ele>45.0</ele><time>2026-03-28T12:35:19Z</time></trkpt><trkpt lat="15.11961174579096" lon="120.65337314598345"><ele>46.0</ele><time>2026-03-28T12:35:20Z</time></trkpt><trkpt lat="15.119843757444722" lon="120.65319038777525"><ele>47.0</ele><time>2026-03-28T12:35:21Z</time></trkpt><trkpt lat="15.120052563480375" lon="120.6530114159707"><ele>48.0</ele><time>2026-03-28T12:35:22Z</time></trkpt><trkpt lat="15.120268641851883" lon="120.65282879188258"><ele>47.0</ele><time>2026-03-28T12:35:23Z</time></trkpt><trkpt lat="15.120479308685955" lon="120.65264892922853"><ele>46.0</ele><time>2026-03-28T12:35:24Z</time></trkpt><trkpt lat="15.120687891363215" lon="120.65246804439435"><ele>45.5</ele><time>2026-03-28T12:35:25Z</time></trkpt><trkpt lat="15.120913245276611" lon="120.65228289335495"><ele>45.0</ele><time>2026-03-28T12:35:26Z</time></trkpt><trkpt lat="15.121124183591716" lon="120.65210684723995"><ele>44.5</ele><time>2026-03-28T12:35:27Z</time></trkpt><trkpt lat="15.121343368757355" lon="120.65192868706934"><ele>44.0</ele><time>2026-03-28T12:35:28Z</time></trkpt><trkpt lat="15.12156152241559" lon="120.65174414721706"><ele>44.5</ele><time>2026-03-28T12:35:29Z</time></trkpt><trkpt lat="15.121775759627342" lon="120.651566337821"><ele>45.0</ele><time>2026-03-28T12:35:30Z</time></trkpt><trkpt lat="15.121976654591968" lon="120.65139158250669"><ele>45.0</ele><time>2026-03-28T12:35:31Z</time></trkpt><trkpt lat="15.122182143880345" lon="120.65121435081953"><ele>45.0</ele><time>2026-03-28T12:35:32Z</time></trkpt><trkpt lat="15.122386349143115" lon="120.65103491703871"><ele>46.0</ele><time>2026-03-28T12:35:33Z</time></trkpt><trkpt lat="15.122584105500085" lon="120.65085980098384"><ele>47.0</ele><time>2026-03-28T12:35:34Z</time></trkpt><trkpt lat="15.122792759637202" lon="120.65068244911689"><ele>47.0</ele><time>2026-03-28T12:35:35Z</time></trkpt><trkpt lat="15.122989677926363" lon="120.65051040121052"><ele>47.0</ele><time>2026-03-28T12:35:36Z</time></trkpt><trkpt lat="15.12318219856576" lon="120.65034406881755"><ele>48.0</ele><time>2026-03-28T12:35:37Z</time></trkpt><trkpt lat="15.123375302173521" lon="120.65017775205848"><ele>49.0</ele><time>2026-03-28T12:35:38Z</time></trkpt><trkpt lat="15.1235653761259" lon="120.65000661469145"><ele>49.0</ele><time>2026-03-28T12:35:39Z</time></trkpt><trkpt lat="15.12375594042666" lon="120.64983913333644"><ele>49.0</ele><time>2026-03-28T12:35:40Z</time></trkpt><trkpt lat="15.123940464202212" lon="120.64967472436113"><ele>49.0</ele><time>2026-03-28T12:35:41Z</time></trkpt><trkpt lat="15.124122027918714" lon="120.64951076658039"><ele>49.0</ele><time>2026-03-28T12:35:42Z</time></trkpt><trkpt lat="15.124290683821119" lon="120.64935005574903"><ele>49.0</ele><time>2026-03-28T12:35:43Z</time></trkpt><trkpt lat="15.124472852316973" lon="120.64919093268244"><ele>49.0</ele><time>2026-03-28T12:35:44Z</time></trkpt><trkpt lat="15.124652892672074" lon="120.64902618172562"><ele>49.0</ele><time>2026-03-28T12:35:45Z</time></trkpt><trkpt lat="15.124828696457952" lon="120.6488632172336"><ele>49.0</ele><time>2026-03-28T12:35:46Z</time></trkpt><trkpt lat="15.12501034121835" lon="120.64869318103585"><ele>49.5</ele><time>2026-03-28T12:35:47Z</time></trkpt><trkpt lat="15.125192067806067" lon="120.64853024785978"><ele>50.0</ele><time>2026-03-28T12:35:48Z</time></trkpt><trkpt lat="15.12538032572962" lon="120.64836380110904"><ele>50.0</ele><time>2026-03-28T12:35:49Z</time></trkpt><trkpt lat="15.125559029396372" lon="120.64820293187272"><ele>50.0</ele><time>2026-03-28T12:35:50Z</time></trkpt><trkpt lat="15.125739478601258" lon="120.64804204977303"><ele>49.5</ele><time>2026-03-28T12:35:51Z</time></trkpt><trkpt lat="15.125924396870186" lon="120.64787373977335"><ele>49.0</ele><time>2026-03-28T12:35:52Z</time></trkpt><trkpt lat="15.126111974315007" lon="120.64770406704035"><ele>48.5</ele><time>2026-03-28T12:35:53Z</time></trkpt><trkpt lat="15.126294560810196" lon="120.6475360264126"><ele>48.0</ele><time>2026-03-28T12:35:54Z</time></trkpt><trkpt lat="15.126470357231476" lon="120.64736681205237"><ele>48.0</ele><time>2026-03-28T12:35:55Z</time></trkpt><trkpt lat="15.126648569733396" lon="120.6472010474813"><ele>48.0</ele><time>2026-03-28T12:35:56Z</time></trkpt><trkpt lat="15.126829572132925" lon="120.64703781116634"><ele>47.0</ele><time>2026-03-28T12:35:57Z</time></trkpt><trkpt lat="15.127006668094442" lon="120.64686998416633"><ele>46.0</ele><time>2026-03-28T12:35:58Z</time></trkpt><trkpt lat="15.127171702439664" lon="120.64671390096665"><ele>46.0</ele><time>2026-03-28T12:35:59Z</time></trkpt><trkpt lat="15.12735265418923" lon="120.64654652848421"><ele>46.0</ele><time>2026-03-28T12:36:00Z</time></trkpt><trkpt lat="15.1275180504603" lon="120.64638647643461"><ele>47.0</ele><time>2026-03-28T12:36:01Z</time></trkpt><trkpt lat="15.127693597004379" lon="120.6462171518362"><ele>48.0</ele><time>2026-03-28T12:36:02Z</time></trkpt><trkpt lat="15.127866364623076" lon="120.64604895278286"><ele>48.5</ele><time>2026-03-28T12:36:03Z</time></trkpt><trkpt lat="15.128041847535652" lon="120.64588005115463"><ele>49.0</ele><time>2026-03-28T12:36:04Z</time></trkpt><trkpt lat="15.128228441946218" lon="120.64570985700668"><ele>49.0</ele><time>2026-03-28T12:36:05Z</time></trkpt><trkpt lat="15.128410527123561" lon="120.64554413271973"><ele>49.0</ele><time>2026-03-28T12:36:06Z</time></trkpt><trkpt lat="15.128578492757539" lon="120.64537249416276"><ele>49.0</ele><time>2026-03-28T12:36:07Z</time></trkpt><trkpt lat="15.12875593653681" lon="120.64520035084216"><ele>49.0</ele><time>2026-03-28T12:36:08Z</time></trkpt><trkpt lat="15.128931233978902" lon="120.64502972935547"><ele>49.5</ele><time>2026-03-28T12:36:09Z</time></trkpt><trkpt lat="15.129105245066112" lon="120.6448610651606"><ele>50.0</ele><time>2026-03-28T12:36:10Z</time></trkpt><trkpt lat="15.12927026623038" lon="120.64468976731453"><ele>50.0</ele><time>2026-03-28T12:36:11Z</time></trkpt><trkpt lat="15.129445190942876" lon="120.64451441068805"><ele>50.0</ele><time>2026-03-28T12:36:12Z</time></trkpt><trkpt lat="15.129612227752904" lon="120.64434504034135"><ele>51.5</ele><time>2026-03-28T12:36:13Z</time></trkpt><trkpt lat="15.12978244275346" lon="120.64417420946829"><ele>53.0</ele><time>2026-03-28T12:36:14Z</time></trkpt><trkpt lat="15.129947468010343" lon="120.64400666665566"><ele>53.0</ele><time>2026-03-28T12:36:15Z</time></trkpt><trkpt lat="15.130115061753218" lon="120.64383780878842"><ele>53.0</ele><time>2026-03-28T12:36:16Z</time></trkpt><trkpt lat="15.130284051220444" lon="120.64366961339077"><ele>53.0</ele><time>2026-03-28T12:36:17Z</time></trkpt><trkpt lat="15.130451335707294" lon="120.64350069090617"><ele>53.0</ele><time>2026-03-28T12:36:18Z</time></trkpt><trkpt lat="15.130623990929204" lon="120.64332334556256"><ele>51.5</ele><time>2026-03-28T12:36:19Z</time></trkpt><trkpt lat="15.130797453368448" lon="120.64314196198434"><ele>50.0</ele><time>2026-03-28T12:36:20Z</time></trkpt><trkpt lat="15.130972431453976" lon="120.64296558637935"><ele>50.5</ele><time>2026-03-28T12:36:21Z</time></trkpt><trkpt lat="15.131140041577808" lon="120.64278130677883"><ele>51.0</ele><time>2026-03-28T12:36:22Z</time></trkpt><trkpt lat="15.131322848796227" lon="120.64259906709653"><ele>51.0</ele><time>2026-03-28T12:36:23Z</time></trkpt><trkpt lat="15.131502683958505" lon="120.64241622423145"><ele>51.0</ele><time>2026-03-28T12:36:24Z</time></trkpt><trkpt lat="15.131686571905611" lon="120.64223199824296"><ele>51.0</ele><time>2026-03-28T12:36:25Z</time></trkpt><trkpt lat="15.131871129788271" lon="120.64204495091394"><ele>51.0</ele><time>2026-03-28T12:36:26Z</time></trkpt><trkpt lat="15.132071331347941" lon="120.64184223581519"><ele>51.5</ele><time>2026-03-28T12:36:27Z</time></trkpt><trkpt lat="15.132259898909338" lon="120.64164718238334"><ele>52.0</ele><time>2026-03-28T12:36:28Z</time></trkpt><trkpt lat="15.132443185827645" lon="120.64145409231601"><ele>52.0</ele><time>2026-03-28T12:36:29Z</time></trkpt><trkpt lat="15.132626390205218" lon="120.64125797090402"><ele>52.0</ele><time>2026-03-28T12:36:30Z</time></trkpt><trkpt lat="15.13282450216809" lon="120.64105274737912"><ele>53.0</ele><time>2026-03-28T12:36:31Z</time></trkpt><trkpt lat="15.133012047478314" lon="120.64085870259873"><ele>54.0</ele><time>2026-03-28T12:36:32Z</time></trkpt><trkpt lat="15.133195281207495" lon="120.64066436657355"><ele>54.0</ele><time>2026-03-28T12:36:33Z</time></trkpt><trkpt lat="15.133376847267265" lon="120.640472866222"><ele>54.0</ele><time>2026-03-28T12:36:34Z</time></trkpt><trkpt lat="15.133555939823838" lon="120.64028136397715"><ele>54.0</ele><time>2026-03-28T12:36:35Z</time></trkpt><trkpt lat="15.133731588070516" lon="120.64008933124934"><ele>54.0</ele><time>2026-03-28T12:36:36Z</time></trkpt><trkpt lat="15.133908083867261" lon="120.63989714872483"><ele>54.5</ele><time>2026-03-28T12:36:37Z</time></trkpt><trkpt lat="15.134086656946284" lon="120.63970079056156"><ele>55.0</ele><time>2026-03-28T12:36:38Z</time></trkpt><trkpt lat="15.134264181735327" lon="120.63950524209011"><ele>55.5</ele><time>2026-03-28T12:36:39Z</time></trkpt><trkpt lat="15.134436779050118" lon="120.63930763462244"><ele>56.0</ele><time>2026-03-28T12:36:40Z</time></trkpt><trkpt lat="15.134609860860266" lon="120.63911384413863"><ele>56.0</ele><time>2026-03-28T12:36:41Z</time></trkpt><trkpt lat="15.134785576041732" lon="120.63891994839533"><ele>56.0</ele><time>2026-03-28T12:36:42Z</time></trkpt><trkpt lat="15.134952778498983" lon="120.6387313158162"><ele>56.5</ele><time>2026-03-28T12:36:43Z</time></trkpt><trkpt lat="15.135129500891857" lon="120.63853610411186"><ele>57.0</ele><time>2026-03-28T12:36:44Z</time></trkpt><trkpt lat="15.135304111922686" lon="120.63834127382164"><ele>57.0</ele><time>2026-03-28T12:36:45Z</time></trkpt><trkpt lat="15.135478445365512" lon="120.63814624427802"><ele>57.0</ele><time>2026-03-28T12:36:46Z</time></trkpt><trkpt lat="15.135649111201094" lon="120.63795558620951"><ele>57.0</ele><time>2026-03-28T12:36:47Z</time></trkpt><trkpt lat="15.135818514788063" lon="120.63776809653343"><ele>57.0</ele><time>2026-03-28T12:36:48Z</time></trkpt><trkpt lat="15.135983370233632" lon="120.63757945780753"><ele>57.0</ele><time>2026-03-28T12:36:49Z</time></trkpt><trkpt lat="15.136150746446743" lon="120.63738673583671"><ele>57.0</ele><time>2026-03-28T12:36:50Z</time></trkpt><trkpt lat="15.136311480649841" lon="120.63719951699234"><ele>57.0</ele><time>2026-03-28T12:36:51Z</time></trkpt><trkpt lat="15.136472083327504" lon="120.63701432683281"><ele>57.0</ele><time>2026-03-28T12:36:52Z</time></trkpt><trkpt lat="15.136634060488706" lon="120.63682687004435"><ele>56.0</ele><time>2026-03-28T12:36:53Z</time></trkpt><trkpt lat="15.136800625786508" lon="120.63664067008223"><ele>55.0</ele><time>2026-03-28T12:36:54Z</time></trkpt><trkpt lat="15.13696897895978" lon="120.63645403780413"><ele>55.0</ele><time>2026-03-28T12:36:55Z</time></trkpt><trkpt lat="15.137132900309437" lon="120.6362718542395"><ele>55.0</ele><time>2026-03-28T12:36:56Z</time></trkpt><trkpt lat="15.137307674374915" lon="120.6360797551352"><ele>56.5</ele><time>2026-03-28T12:36:57Z</time></trkpt><trkpt lat="15.137478571108037" lon="120.63589400178178"><ele>58.0</ele><time>2026-03-28T12:36:58Z</time></trkpt><trkpt lat="15.137647977428793" lon="120.63570613836237"><ele>58.0</ele><time>2026-03-28T12:36:59Z</time></trkpt><trkpt lat="15.137824988504605" lon="120.63551822226896"><ele>58.0</ele><time>2026-03-28T12:37:00Z</time></trkpt><trkpt lat="15.137993891255052" lon="120.63533527003732"><ele>58.5</ele><time>2026-03-28T12:37:01Z</time></trkpt><trkpt lat="15.138173405695474" lon="120.63514307361842"><ele>59.0</ele><time>2026-03-28T12:37:02Z</time></trkpt><trkpt lat="15.138350247006898" lon="120.63495153641333"><ele>60.5</ele><time>2026-03-28T12:37:03Z</time></trkpt><trkpt lat="15.138526915369013" lon="120.63475805824986"><ele>62.0</ele><time>2026-03-28T12:37:04Z</time></trkpt><trkpt lat="15.138703715498607" lon="120.6345669805546"><ele>62.0</ele><time>2026-03-28T12:37:05Z</time></trkpt><trkpt lat="15.138877724425107" lon="120.63437461322165"><ele>62.0</ele><time>2026-03-28T12:37:06Z</time></trkpt><trkpt lat="15.139058308389798" lon="120.63417795478456"><ele>61.0</ele><time>2026-03-28T12:37:07Z</time></trkpt><trkpt lat="15.13923353386238" lon="120.63398421300379"><ele>60.0</ele><time>2026-03-28T12:37:08Z</time></trkpt><trkpt lat="15.139411719298492" lon="120.63379083995902"><ele>59.0</ele><time>2026-03-28T12:37:09Z</time></trkpt><trkpt lat="15.139592753849767" lon="120.63359110892955"><ele>58.0</ele><time>2026-03-28T12:37:10Z</time></trkpt><trkpt lat="15.139775207659586" lon="120.6333928138007"><ele>59.5</ele><time>2026-03-28T12:37:11Z</time></trkpt><trkpt lat="15.139962066325298" lon="120.63318991840852"><ele>61.0</ele><time>2026-03-28T12:37:12Z</time></trkpt><trkpt lat="15.140130299203731" lon="120.6330047645455"><ele>61.0</ele><time>2026-03-28T12:37:13Z</time></trkpt><trkpt lat="15.1403050128228" lon="120.6328157150742"><ele>61.0</ele><time>2026-03-28T12:37:14Z</time></trkpt><trkpt lat="15.140473714356627" lon="120.63263608282568"><ele>61.0</ele><time>2026-03-28T12:37:15Z</time></trkpt><trkpt lat="15.140640438959718" lon="120.63246113792917"><ele>61.0</ele><time>2026-03-28T12:37:16Z</time></trkpt><trkpt lat="15.140813768467778" lon="120.6322781169479"><ele>61.0</ele><time>2026-03-28T12:37:17Z</time></trkpt><trkpt lat="15.140993617862778" lon="120.63209548443238"><ele>61.0</ele><time>2026-03-28T12:37:18Z</time></trkpt><trkpt lat="15.141163422880116" lon="120.63191513348642"><ele>61.0</ele><time>2026-03-28T12:37:19Z</time></trkpt><trkpt lat="15.141335778757387" lon="120.63173279160671"><ele>61.0</ele><time>2026-03-28T12:37:20Z</time></trkpt><trkpt lat="15.14150292938511" lon="120.6315600368148"><ele>61.5</ele><time>2026-03-28T12:37:21Z</time></trkpt><trkpt lat="15.141685423877766" lon="120.63137176677665"><ele>62.0</ele><time>2026-03-28T12:37:22Z</time></trkpt><trkpt lat="15.141860897157349" lon="120.63119062630022"><ele>63.5</ele><time>2026-03-28T12:37:23Z</time></trkpt><trkpt lat="15.142039594864189" lon="120.63101214183759"><ele>65.0</ele><time>2026-03-28T12:37:24Z</time></trkpt><trkpt lat="15.142212024429845" lon="120.63083279366481"><ele>64.0</ele><time>2026-03-28T12:37:25Z</time></trkpt><trkpt lat="15.142381697669133" lon="120.63065982527401"><ele>63.0</ele><time>2026-03-28T12:37:26Z</time></trkpt><trkpt lat="15.142554027445755" lon="120.6304840283932"><ele>63.0</ele><time>2026-03-28T12:37:27Z</time></trkpt><trkpt lat="15.142732081809697" lon="120.63030935663986"><ele>63.0</ele><time>2026-03-28T12:37:28Z</time></trkpt><trkpt lat="15.14290596278182" lon="120.63013416153753"><ele>63.0</ele><time>2026-03-28T12:37:29Z</time></trkpt><trkpt lat="15.143082181437956" lon="120.62995765832672"><ele>63.0</ele><time>2026-03-28T12:37:30Z</time></trkpt><trkpt lat="15.143264219514265" lon="120.6297771351403"><ele>63.0</ele><time>2026-03-28T12:37:31Z</time></trkpt><trkpt lat="15.14344160627885" lon="120.62959851483949"><ele>63.0</ele><time>2026-03-28T12:37:32Z</time></trkpt><trkpt lat="15.143619596761614" lon="120.62942362633883"><ele>63.0</ele><time>2026-03-28T12:37:33Z</time></trkpt><trkpt lat="15.14379067447331" lon="120.62925436591816"><ele>63.0</ele><time>2026-03-28T12:37:34Z</time></trkpt><trkpt lat="15.143967794613912" lon="120.62908039751292"><ele>63.0</ele><time>2026-03-28T12:37:35Z</time></trkpt><trkpt lat="15.144142486768338" lon="120.62890764032508"><ele>63.0</ele><time>2026-03-28T12:37:36Z</time></trkpt><trkpt lat="15.144314141022264" lon="120.62873998567716"><ele>63.0</ele><time>2026-03-28T12:37:37Z</time></trkpt><trkpt lat="15.144489445397767" lon="120.62857083900978"><ele>63.0</ele><time>2026-03-28T12:37:38Z</time></trkpt><trkpt lat="15.1446757489753" lon="120.62839188970669"><ele>63.0</ele><time>2026-03-28T12:37:39Z</time></trkpt><trkpt lat="15.144854772371593" lon="120.62821867682159"><ele>63.0</ele><time>2026-03-28T12:37:40Z</time></trkpt><trkpt lat="15.145033407883536" lon="120.62804534492531"><ele>63.0</ele><time>2026-03-28T12:37:41Z</time></trkpt><trkpt lat="15.145214813081651" lon="120.627876397651"><ele>63.0</ele><time>2026-03-28T12:37:42Z</time></trkpt><trkpt lat="15.145387376094751" lon="120.62771402897047"><ele>63.0</ele><time>2026-03-28T12:37:43Z</time></trkpt><trkpt lat="15.145570068357246" lon="120.62754817701217"><ele>63.0</ele><time>2026-03-28T12:37:44Z</time></trkpt><trkpt lat="15.145747990244754" lon="120.62737906172293"><ele>63.0</ele><time>2026-03-28T12:37:45Z</time></trkpt><trkpt lat="15.145929405829406" lon="120.6272147411808"><ele>63.0</ele><time>2026-03-28T12:37:46Z</time></trkpt><trkpt lat="15.146105741908833" lon="120.62705158707917"><ele>62.0</ele><time>2026-03-28T12:37:47Z</time></trkpt><trkpt lat="15.146293838359032" lon="120.62687957506724"><ele>61.0</ele><time>2026-03-28T12:37:48Z</time></trkpt><trkpt lat="15.14647080287316" lon="120.62671872786582"><ele>61.5</ele><time>2026-03-28T12:37:49Z</time></trkpt><trkpt lat="15.146648371246123" lon="120.62655546248638"><ele>62.0</ele><time>2026-03-28T12:37:50Z</time></trkpt><trkpt lat="15.146827142858207" lon="120.62638903928433"><ele>62.0</ele><time>2026-03-28T12:37:51Z</time></trkpt><trkpt lat="15.147001064454388" lon="120.62622894830152"><ele>62.0</ele><time>2026-03-28T12:37:52Z</time></trkpt><trkpt lat="15.147170802275989" lon="120.62607109038974"><ele>62.5</ele><time>2026-03-28T12:37:53Z</time></trkpt><trkpt lat="15.147350132946729" lon="120.62591047730687"><ele>63.0</ele><time>2026-03-28T12:37:54Z</time></trkpt><trkpt lat="15.147519210256313" lon="120.62575520581927"><ele>63.5</ele><time>2026-03-28T12:37:55Z</time></trkpt><trkpt lat="15.147697304664998" lon="120.62559301115185"><ele>64.0</ele><time>2026-03-28T12:37:56Z</time></trkpt><trkpt lat="15.14787221115457" lon="120.62543349808274"><ele>63.0</ele><time>2026-03-28T12:37:57Z</time></trkpt><trkpt lat="15.148053973335037" lon="120.62527369470583"><ele>62.0</ele><time>2026-03-28T12:37:58Z</time></trkpt><trkpt lat="15.148230380047814" lon="120.62511575648061"><ele>62.0</ele><time>2026-03-28T12:37:59Z</time></trkpt><trkpt lat="15.148410021125743" lon="120.62495424607944"><ele>62.0</ele><time>2026-03-28T12:38:00Z</time></trkpt><trkpt lat="15.14858319697651" lon="120.62479344908277"><ele>62.0</ele><time>2026-03-28T12:38:01Z</time></trkpt><trkpt lat="15.148760585734557" lon="120.62463940273382"><ele>62.0</ele><time>2026-03-28T12:38:02Z</time></trkpt><trkpt lat="15.148941316578487" lon="120.62447594676068"><ele>60.5</ele><time>2026-03-28T12:38:03Z</time></trkpt><trkpt lat="15.149118577079095" lon="120.6243188316589"><ele>59.0</ele><time>2026-03-28T12:38:04Z</time></trkpt><trkpt lat="15.149294904819799" lon="120.62416892294323"><ele>59.0</ele><time>2026-03-28T12:38:05Z</time></trkpt><trkpt lat="15.149471629284575" lon="120.62401160562432"><ele>59.0</ele><time>2026-03-28T12:38:06Z</time></trkpt><trkpt lat="15.149649611474883" lon="120.62384907659539"><ele>59.0</ele><time>2026-03-28T12:38:07Z</time></trkpt><trkpt lat="15.149823415389216" lon="120.62370100880388"><ele>59.0</ele><time>2026-03-28T12:38:08Z</time></trkpt><trkpt lat="15.150011897689904" lon="120.6235413017261"><ele>62.0</ele><time>2026-03-28T12:38:09Z</time></trkpt><trkpt lat="15.150193255169814" lon="120.62338454104237"><ele>65.0</ele><time>2026-03-28T12:38:10Z</time></trkpt><trkpt lat="15.150372571092037" lon="120.62322702879358"><ele>65.0</ele><time>2026-03-28T12:38:11Z</time></trkpt><trkpt lat="15.150555584749933" lon="120.62307066867794"><ele>65.0</ele><time>2026-03-28T12:38:12Z</time></trkpt><trkpt lat="15.150739842003127" lon="120.62291059525867"><ele>67.0</ele><time>2026-03-28T12:38:13Z</time></trkpt><trkpt lat="15.15092397174407" lon="120.62275688604034"><ele>69.0</ele><time>2026-03-28T12:38:14Z</time></trkpt><trkpt lat="15.151101705451676" lon="120.62260124610698"><ele>69.0</ele><time>2026-03-28T12:38:15Z</time></trkpt><trkpt lat="15.15128850360664" lon="120.62245733235582"><ele>69.0</ele><time>2026-03-28T12:38:16Z</time></trkpt><trkpt lat="15.151470859105213" lon="120.62230154661931"><ele>68.0</ele><time>2026-03-28T12:38:17Z</time></trkpt><trkpt lat="15.151651011233252" lon="120.62214407028105"><ele>67.0</ele><time>2026-03-28T12:38:18Z</time></trkpt><trkpt lat="15.151837026927284" lon="120.62198866138861"><ele>67.5</ele><time>2026-03-28T12:38:19Z</time></trkpt><trkpt lat="15.152024628693933" lon="120.62183213514726"><ele>68.0</ele><time>2026-03-28T12:38:20Z</time></trkpt><trkpt lat="15.152210867176413" lon="120.62167585828351"><ele>68.5</ele><time>2026-03-28T12:38:21Z</time></trkpt><trkpt lat="15.152396728476278" lon="120.62152232385226"><ele>69.0</ele><time>2026-03-28T12:38:22Z</time></trkpt><trkpt lat="15.152581490266476" lon="120.6213721881113"><ele>69.0</ele><time>2026-03-28T12:38:23Z</time></trkpt><trkpt lat="15.152755862062728" lon="120.62122544774896"><ele>69.0</ele><time>2026-03-28T12:38:24Z</time></trkpt><trkpt lat="15.152945843026764" lon="120.62107200786883"><ele>69.0</ele><time>2026-03-28T12:38:25Z</time></trkpt><trkpt lat="15.153129162204458" lon="120.62091464346864"><ele>69.0</ele><time>2026-03-28T12:38:26Z</time></trkpt><trkpt lat="15.153308727298356" lon="120.62076875729848"><ele>70.0</ele><time>2026-03-28T12:38:27Z</time></trkpt><trkpt lat="15.15349064408085" lon="120.6206195212411"><ele>71.0</ele><time>2026-03-28T12:38:28Z</time></trkpt><trkpt lat="15.153667988861178" lon="120.62047624049924"><ele>71.0</ele><time>2026-03-28T12:38:29Z</time></trkpt><trkpt lat="15.153846962364714" lon="120.62032880559802"><ele>71.0</ele><time>2026-03-28T12:38:30Z</time></trkpt><trkpt lat="15.154026578332553" lon="120.62018037728572"><ele>71.0</ele><time>2026-03-28T12:38:31Z</time></trkpt><trkpt lat="15.15419650145995" lon="120.62003729611689"><ele>71.0</ele><time>2026-03-28T12:38:32Z</time></trkpt><trkpt lat="15.154372518021864" lon="120.61989492163708"><ele>71.0</ele><time>2026-03-28T12:38:33Z</time></trkpt><trkpt lat="15.154549883734049" lon="120.61975551325061"><ele>71.0</ele><time>2026-03-28T12:38:34Z</time></trkpt><trkpt lat="15.154722584869994" lon="120.61961872097307"><ele>71.0</ele><time>2026-03-28T12:38:35Z</time></trkpt><trkpt lat="15.154894508998929" lon="120.61947973989048"><ele>71.0</ele><time>2026-03-28T12:38:36Z</time></trkpt><trkpt lat="15.155069244383323" lon="120.61934510494683"><ele>72.0</ele><time>2026-03-28T12:38:37Z</time></trkpt><trkpt lat="15.155263592309357" lon="120.61918776831995"><ele>73.0</ele><time>2026-03-28T12:38:38Z</time></trkpt><trkpt lat="15.155445589540799" lon="120.61904788980483"><ele>73.0</ele><time>2026-03-28T12:38:39Z</time></trkpt><trkpt lat="15.15563388206859" lon="120.61890446165593"><ele>73.0</ele><time>2026-03-28T12:38:40Z</time></trkpt><trkpt lat="15.155823284344502" lon="120.618761165825"><ele>74.0</ele><time>2026-03-28T12:38:41Z</time></trkpt><trkpt lat="15.15601148537039" lon="120.6186148448256"><ele>75.0</ele><time>2026-03-28T12:38:42Z</time></trkpt><trkpt lat="15.156200792498707" lon="120.61847178974894"><ele>75.0</ele><time>2026-03-28T12:38:43Z</time></trkpt><trkpt lat="15.156385487473646" lon="120.618335839539"><ele>75.0</ele><time>2026-03-28T12:38:44Z</time></trkpt><trkpt lat="15.156578476447306" lon="120.61819541145685"><ele>74.0</ele><time>2026-03-28T12:38:45Z</time></trkpt><trkpt lat="15.156768876962277" lon="120.61805480441271"><ele>73.0</ele><time>2026-03-28T12:38:46Z</time></trkpt><trkpt lat="15.156958108954404" lon="120.6179126188593"><ele>74.5</ele><time>2026-03-28T12:38:47Z</time></trkpt><trkpt lat="15.157150247347044" lon="120.61776278776519"><ele>76.0</ele><time>2026-03-28T12:38:48Z</time></trkpt><trkpt lat="15.157336220189594" lon="120.61762220600815"><ele>74.5</ele><time>2026-03-28T12:38:49Z</time></trkpt><trkpt lat="15.157533602874466" lon="120.61747730382878"><ele>73.0</ele><time>2026-03-28T12:38:50Z</time></trkpt><trkpt lat="15.15772731601594" lon="120.61732479164638"><ele>73.0</ele><time>2026-03-28T12:38:51Z</time></trkpt><trkpt lat="15.157914258349143" lon="120.61719046588873"><ele>73.0</ele><time>2026-03-28T12:38:52Z</time></trkpt><trkpt lat="15.158109478051957" lon="120.6170426424"><ele>74.5</ele><time>2026-03-28T12:38:53Z</time></trkpt><trkpt lat="15.158303311570803" lon="120.61689763632113"><ele>76.0</ele><time>2026-03-28T12:38:54Z</time></trkpt><trkpt lat="15.158508163476158" lon="120.61674735205933"><ele>76.0</ele><time>2026-03-28T12:38:55Z</time></trkpt><trkpt lat="15.158703544941377" lon="120.61660325610559"><ele>76.0</ele><time>2026-03-28T12:38:56Z</time></trkpt><trkpt lat="15.158904827770913" lon="120.61645814414929"><ele>75.5</ele><time>2026-03-28T12:38:57Z</time></trkpt><trkpt lat="15.159104127003026" lon="120.61631142235825"><ele>75.0</ele><time>2026-03-28T12:38:58Z</time></trkpt><trkpt lat="15.159300317256957" lon="120.61616067687177"><ele>75.5</ele><time>2026-03-28T12:38:59Z</time></trkpt><trkpt lat="15.159503944289767" lon="120.6160063864303"><ele>76.0</ele><time>2026-03-28T12:39:00Z</time></trkpt><trkpt lat="15.159706737499627" lon="120.61585960202818"><ele>76.5</ele><time>2026-03-28T12:39:01Z</time></trkpt><trkpt lat="15.159904338186278" lon="120.61571671431675"><ele>77.0</ele><time>2026-03-28T12:39:02Z</time></trkpt><trkpt lat="15.160111127773497" lon="120.61557454974286"><ele>77.0</ele><time>2026-03-28T12:39:03Z</time></trkpt><trkpt lat="15.160310767755554" lon="120.61543750901112"><ele>77.0</ele><time>2026-03-28T12:39:04Z</time></trkpt><trkpt lat="15.160511106137227" lon="120.61529753777486"><ele>77.5</ele><time>2026-03-28T12:39:05Z</time></trkpt><trkpt lat="15.160710919228139" lon="120.61515504004603"><ele>78.0</ele><time>2026-03-28T12:39:06Z</time></trkpt><trkpt lat="15.160906959599119" lon="120.61501978833219"><ele>78.0</ele><time>2026-03-28T12:39:07Z</time></trkpt><trkpt lat="15.161106226641277" lon="120.61488452837598"><ele>78.0</ele><time>2026-03-28T12:39:08Z</time></trkpt><trkpt lat="15.16129771120152" lon="120.6147372898627"><ele>78.0</ele><time>2026-03-28T12:39:09Z</time></trkpt><trkpt lat="15.16149204331922" lon="120.61460002572387"><ele>78.0</ele><time>2026-03-28T12:39:10Z</time></trkpt><trkpt lat="15.161687135207844" lon="120.6144577335375"><ele>77.0</ele><time>2026-03-28T12:39:11Z</time></trkpt><trkpt lat="15.161879040378492" lon="120.6143246778675"><ele>76.0</ele><time>2026-03-28T12:39:12Z</time></trkpt><trkpt lat="15.162079802195933" lon="120.6141914883839"><ele>76.0</ele><time>2026-03-28T12:39:13Z</time></trkpt><trkpt lat="15.162280283235154" lon="120.61405480343211"><ele>76.0</ele><time>2026-03-28T12:39:14Z</time></trkpt><trkpt lat="15.162484691735544" lon="120.61392635046423"><ele>76.0</ele><time>2026-03-28T12:39:15Z</time></trkpt><trkpt lat="15.162682481207964" lon="120.61378993304284"><ele>76.0</ele><time>2026-03-28T12:39:16Z</time></trkpt><trkpt lat="15.162880467628504" lon="120.61365776676857"><ele>76.5</ele><time>2026-03-28T12:39:17Z</time></trkpt><trkpt lat="15.163080724363178" lon="120.61351371722976"><ele>77.0</ele><time>2026-03-28T12:39:18Z</time></trkpt><trkpt lat="15.163282935590132" lon="120.61337699109261"><ele>77.5</ele><time>2026-03-28T12:39:19Z</time></trkpt><trkpt lat="15.16348198246529" lon="120.61324223761771"><ele>78.0</ele><time>2026-03-28T12:39:20Z</time></trkpt><trkpt lat="15.163688089118848" lon="120.61310511361141"><ele>78.0</ele><time>2026-03-28T12:39:21Z</time></trkpt><trkpt lat="15.16389486289912" lon="120.61296707510354"><ele>78.0</ele><time>2026-03-28T12:39:22Z</time></trkpt><trkpt lat="15.16409601514804" lon="120.6128351694601"><ele>78.5</ele><time>2026-03-28T12:39:23Z</time></trkpt><trkpt lat="15.164316817967114" lon="120.61269207085748"><ele>79.0</ele><time>2026-03-28T12:39:24Z</time></trkpt><trkpt lat="15.164533811915765" lon="120.61254972890669"><ele>79.0</ele><time>2026-03-28T12:39:25Z</time></trkpt><trkpt lat="15.164737158696688" lon="120.61241347259921"><ele>79.0</ele><time>2026-03-28T12:39:26Z</time></trkpt><trkpt lat="15.164950311206447" lon="120.61227727567254"><ele>77.0</ele><time>2026-03-28T12:39:27Z</time></trkpt><trkpt lat="15.165161262201021" lon="120.6121378767355"><ele>75.0</ele><time>2026-03-28T12:39:28Z</time></trkpt><trkpt lat="15.165371056657264" lon="120.6120108468072"><ele>76.0</ele><time>2026-03-28T12:39:29Z</time></trkpt><trkpt lat="15.165576058288208" lon="120.61187695575586"><ele>77.0</ele><time>2026-03-28T12:39:30Z</time></trkpt><trkpt lat="15.165784953135747" lon="120.61173845572917"><ele>77.0</ele><time>2026-03-28T12:39:31Z</time></trkpt><trkpt lat="15.165990117303723" lon="120.61160478551714"><ele>77.0</ele><time>2026-03-28T12:39:32Z</time></trkpt><trkpt lat="15.16619177912869" lon="120.6114786406235"><ele>77.0</ele><time>2026-03-28T12:39:33Z</time></trkpt><trkpt lat="15.166398377714298" lon="120.61134900090974"><ele>77.0</ele><time>2026-03-28T12:39:34Z</time></trkpt><trkpt lat="15.166599127419477" lon="120.61122256673792"><ele>77.5</ele><time>2026-03-28T12:39:35Z</time></trkpt><trkpt lat="15.166808190297864" lon="120.61109508624078"><ele>78.0</ele><time>2026-03-28T12:39:36Z</time></trkpt><trkpt lat="15.16701238479395" lon="120.61097044576529"><ele>78.0</ele><time>2026-03-28T12:39:37Z</time></trkpt><trkpt lat="15.167223144664474" lon="120.6108416913259"><ele>78.0</ele><time>2026-03-28T12:39:38Z</time></trkpt><trkpt lat="15.16742836838961" lon="120.61071404020758"><ele>78.5</ele><time>2026-03-28T12:39:39Z</time></trkpt><trkpt lat="15.16763031934875" lon="120.61059041453285"><ele>79.0</ele><time>2026-03-28T12:39:40Z</time></trkpt><trkpt lat="15.16784016037957" lon="120.61047857768925"><ele>79.0</ele><time>2026-03-28T12:39:41Z</time></trkpt><trkpt lat="15.16804260149564" lon="120.6103517727499"><ele>79.0</ele><time>2026-03-28T12:39:42Z</time></trkpt><trkpt lat="15.168243900592525" lon="120.6102194397168"><ele>79.0</ele><time>2026-03-28T12:39:43Z</time></trkpt><trkpt lat="15.168442516675967" lon="120.61008921591839"><ele>79.0</ele><time>2026-03-28T12:39:44Z</time></trkpt><trkpt lat="15.168644473837766" lon="120.60996852937073"><ele>79.0</ele><time>2026-03-28T12:39:45Z</time></trkpt><trkpt lat="15.168847929061743" lon="120.60984670894733"><ele>79.0</ele><time>2026-03-28T12:39:46Z</time></trkpt><trkpt lat="15.16905073385622" lon="120.60972410963251"><ele>80.5</ele><time>2026-03-28T12:39:47Z</time></trkpt><trkpt lat="15.169251202580922" lon="120.60960309972727"><ele>82.0</ele><time>2026-03-28T12:39:48Z</time></trkpt><trkpt lat="15.16944892715585" lon="120.60947808114801"><ele>82.0</ele><time>2026-03-28T12:39:49Z</time></trkpt><trkpt lat="15.16964117198616" lon="120.60935891423412"><ele>82.0</ele><time>2026-03-28T12:39:50Z</time></trkpt><trkpt lat="15.16983749751421" lon="120.60923489950262"><ele>84.0</ele><time>2026-03-28T12:39:51Z</time></trkpt><trkpt lat="15.170039116534433" lon="120.60911779333637"><ele>86.0</ele><time>2026-03-28T12:39:52Z</time></trkpt><trkpt lat="15.170230256187176" lon="120.60900745799934"><ele>86.0</ele><time>2026-03-28T12:39:53Z</time></trkpt><trkpt lat="15.170427872872995" lon="120.60888695799318"><ele>86.0</ele><time>2026-03-28T12:39:54Z</time></trkpt><trkpt lat="15.170633045336956" lon="120.60877040918966"><ele>85.66666666666667</ele><time>2026-03-28T12:39:55Z</time></trkpt><trkpt lat="15.170824073092858" lon="120.60866050066063"><ele>85.33333333333333</ele><time>2026-03-28T12:39:56Z</time></trkpt><trkpt lat="15.171025377791942" lon="120.60854700971299"><ele>85.0</ele><time>2026-03-28T12:39:57Z</time></trkpt><trkpt lat="15.171218334641207" lon="120.60843526034718"><ele>85.0</ele><time>2026-03-28T12:39:58Z</time></trkpt><trkpt lat="15.171415048986587" lon="120.60832523289999"><ele>85.0</ele><time>2026-03-28T12:39:59Z</time></trkpt><trkpt lat="15.171614151298995" lon="120.60821075116561"><ele>85.0</ele><time>2026-03-28T12:40:00Z</time></trkpt><trkpt lat="15.171804948806686" lon="120.60809706568908"><ele>85.0</ele><time>2026-03-28T12:40:01Z</time></trkpt><trkpt lat="15.171995161905908" lon="120.60798708057331"><ele>85.0</ele><time>2026-03-28T12:40:02Z</time></trkpt><trkpt lat="15.172192444876815" lon="120.60787939099532"><ele>86.0</ele><time>2026-03-28T12:40:03Z</time></trkpt><trkpt lat="15.17238499437359" lon="120.60777335167988"><ele>87.0</ele><time>2026-03-28T12:40:04Z</time></trkpt><trkpt lat="15.17257761091638" lon="120.6076673026671"><ele>88.0</ele><time>2026-03-28T12:40:05Z</time></trkpt><trkpt lat="15.172768098403113" lon="120.60756236780539"><ele>88.0</ele><time>2026-03-28T12:40:06Z</time></trkpt><trkpt lat="15.172951924658786" lon="120.6074553996759"><ele>88.0</ele><time>2026-03-28T12:40:07Z</time></trkpt><trkpt lat="15.173129632660032" lon="120.6073585938623"><ele>88.0</ele><time>2026-03-28T12:40:08Z</time></trkpt><trkpt lat="15.173321250065282" lon="120.60725358378197"><ele>87.33333333333333</ele><time>2026-03-28T12:40:09Z</time></trkpt><trkpt lat="15.173511477581703" lon="120.60714733933136"><ele>86.66666666666667</ele><time>2026-03-28T12:40:10Z</time></trkpt><trkpt lat="15.17370235312444" lon="120.60704732084925"><ele>86.0</ele><time>2026-03-28T12:40:11Z</time></trkpt><trkpt lat="15.17389773990512" lon="120.60694222281299"><ele>85.0</ele><time>2026-03-28T12:40:12Z</time></trkpt><trkpt lat="15.174095118509388" lon="120.60683701388304"><ele>84.0</ele><time>2026-03-28T12:40:13Z</time></trkpt><trkpt lat="15.174298474597364" lon="120.606728030077"><ele>84.0</ele><time>2026-03-28T12:40:14Z</time></trkpt><trkpt lat="15.174498377120372" lon="120.60662334751818"><ele>84.0</ele><time>2026-03-28T12:40:15Z</time></trkpt><trkpt lat="15.174696836112565" lon="120.60651567688981"><ele>84.0</ele><time>2026-03-28T12:40:16Z</time></trkpt><trkpt lat="15.174897815160346" lon="120.60640828821055"><ele>84.33333333333333</ele><time>2026-03-28T12:40:17Z</time></trkpt><trkpt lat="15.175094363998387" lon="120.60630668625772"><ele>84.66666666666666</ele><time>2026-03-28T12:40:18Z</time></trkpt><trkpt lat="15.175295955682238" lon="120.60620068346516"><ele>85.0</ele><time>2026-03-28T12:40:19Z</time></trkpt><trkpt lat="15.175488346223727" lon="120.6060966654262"><ele>85.33333333333333</ele><time>2026-03-28T12:40:20Z</time></trkpt><trkpt lat="15.175684110971138" lon="120.60599191287444"><ele>85.66666666666667</ele><time>2026-03-28T12:40:21Z</time></trkpt><trkpt lat="15.175873601240971" lon="120.60588836112258"><ele>86.0</ele><time>2026-03-28T12:40:22Z</time></trkpt><trkpt lat="15.176062775731989" lon="120.60578164682491"><ele>86.33333333333334</ele><time>2026-03-28T12:40:23Z</time></trkpt><trkpt lat="15.176262297669869" lon="120.60567924069579"><ele>86.66666666666667</ele><time>2026-03-28T12:40:24Z</time></trkpt><trkpt lat="15.176461751663215" lon="120.60557839596254"><ele>87.0</ele><time>2026-03-28T12:40:25Z</time></trkpt><trkpt lat="15.176656957143718" lon="120.60547116476823"><ele>87.0</ele><time>2026-03-28T12:40:26Z</time></trkpt><trkpt lat="15.176857340174916" lon="120.60537165641693"><ele>87.0</ele><time>2026-03-28T12:40:27Z</time></trkpt><trkpt lat="15.177061579146217" lon="120.60527118915797"><ele>87.0</ele><time>2026-03-28T12:40:28Z</time></trkpt><trkpt lat="15.177273258835092" lon="120.6051711668572"><ele>89.0</ele><time>2026-03-28T12:40:29Z</time></trkpt><trkpt lat="15.177480105948407" lon="120.60507194588892"><ele>91.0</ele><time>2026-03-28T12:40:30Z</time></trkpt><trkpt lat="15.177688019469542" lon="120.60496869013177"><ele>91.0</ele><time>2026-03-28T12:40:31Z</time></trkpt><trkpt lat="15.17788698355917" lon="120.60486430538272"><ele>91.0</ele><time>2026-03-28T12:40:32Z</time></trkpt><trkpt lat="15.178100074021826" lon="120.60476303155646"><ele>89.0</ele><time>2026-03-28T12:40:33Z</time></trkpt><trkpt lat="15.178307806623495" lon="120.60466485059958"><ele>87.0</ele><time>2026-03-28T12:40:34Z</time></trkpt><trkpt lat="15.178524827232847" lon="120.60456307213377"><ele>88.5</ele><time>2026-03-28T12:40:35Z</time></trkpt><trkpt lat="15.178733104035027" lon="120.60445981096183"><ele>90.0</ele><time>2026-03-28T12:40:36Z</time></trkpt><trkpt lat="15.178944360179168" lon="120.60435630164628"><ele>90.5</ele><time>2026-03-28T12:40:37Z</time></trkpt><trkpt lat="15.179150654871474" lon="120.60425152914407"><ele>91.0</ele><time>2026-03-28T12:40:38Z</time></trkpt><trkpt lat="15.179361724111295" lon="120.60414676108196"><ele>91.0</ele><time>2026-03-28T12:40:39Z</time></trkpt><trkpt lat="15.179573172674614" lon="120.60404711875312"><ele>91.0</ele><time>2026-03-28T12:40:40Z</time></trkpt><trkpt lat="15.179780150885465" lon="120.6039508448013"><ele>90.66666666666666</ele><time>2026-03-28T12:40:41Z</time></trkpt><trkpt lat="15.179981924520662" lon="120.60385743838098"><ele>90.33333333333333</ele><time>2026-03-28T12:40:42Z</time></trkpt><trkpt lat="15.180188256446053" lon="120.60377103973615"><ele>90.0</ele><time>2026-03-28T12:40:43Z</time></trkpt><trkpt lat="15.180383371837802" lon="120.60368950807454"><ele>90.33333333333333</ele><time>2026-03-28T12:40:44Z</time></trkpt><trkpt lat="15.180571169291785" lon="120.60360656176633"><ele>90.66666666666666</ele><time>2026-03-28T12:40:45Z</time></trkpt><trkpt lat="15.180747490226832" lon="120.60352140874515"><ele>91.0</ele><time>2026-03-28T12:40:46Z</time></trkpt><trkpt lat="15.180924774021483" lon="120.60343122922431"><ele>91.0</ele><time>2026-03-28T12:40:47Z</time></trkpt><trkpt lat="15.181102245105873" lon="120.60334395578438"><ele>91.0</ele><time>2026-03-28T12:40:48Z</time></trkpt><trkpt lat="15.18127443908979" lon="120.60325787364934"><ele>91.0</ele><time>2026-03-28T12:40:49Z</time></trkpt><trkpt lat="15.181443219611229" lon="120.60317219985491"><ele>90.66666666666666</ele><time>2026-03-28T12:40:50Z</time></trkpt><trkpt lat="15.18161502098883" lon="120.60308841527538"><ele>90.33333333333333</ele><time>2026-03-28T12:40:51Z</time></trkpt><trkpt lat="15.181792914910048" lon="120.60300354898168"><ele>90.0</ele><time>2026-03-28T12:40:52Z</time></trkpt><trkpt lat="15.181981490431735" lon="120.60291926776466"><ele>90.0</ele><time>2026-03-28T12:40:53Z</time></trkpt><trkpt lat="15.18217158851574" lon="120.602833937908"><ele>90.0</ele><time>2026-03-28T12:40:54Z</time></trkpt><trkpt lat="15.182367338583374" lon="120.60274764870665"><ele>90.0</ele><time>2026-03-28T12:40:55Z</time></trkpt><trkpt lat="15.182560142730562" lon="120.60265857520747"><ele>89.66666666666667</ele><time>2026-03-28T12:40:56Z</time></trkpt><trkpt lat="15.182761686464582" lon="120.60256546076616"><ele>89.33333333333334</ele><time>2026-03-28T12:40:57Z</time></trkpt><trkpt lat="15.182966612435589" lon="120.60246606247175"><ele>89.0</ele><time>2026-03-28T12:40:58Z</time></trkpt><trkpt lat="15.183175615213722" lon="120.60236756876361"><ele>88.0</ele><time>2026-03-28T12:40:59Z</time></trkpt><trkpt lat="15.183387309093323" lon="120.60227498137421"><ele>87.0</ele><time>2026-03-28T12:41:00Z</time></trkpt><trkpt lat="15.183604371582259" lon="120.60217847851564"><ele>87.0</ele><time>2026-03-28T12:41:01Z</time></trkpt><trkpt lat="15.18382530721822" lon="120.6020771964448"><ele>87.0</ele><time>2026-03-28T12:41:02Z</time></trkpt><trkpt lat="15.184045206080176" lon="120.6019800915907"><ele>88.0</ele><time>2026-03-28T12:41:03Z</time></trkpt><trkpt lat="15.184272537986512" lon="120.60188185006083"><ele>89.0</ele><time>2026-03-28T12:41:04Z</time></trkpt><trkpt lat="15.18450616040298" lon="120.60178639332013"><ele>89.0</ele><time>2026-03-28T12:41:05Z</time></trkpt><trkpt lat="15.184735990907678" lon="120.60168643508808"><ele>89.0</ele><time>2026-03-28T12:41:06Z</time></trkpt><trkpt lat="15.184970355890064" lon="120.60158993277972"><ele>87.5</ele><time>2026-03-28T12:41:07Z</time></trkpt><trkpt lat="15.185202387306767" lon="120.60149140340641"><ele>86.0</ele><time>2026-03-28T12:41:08Z</time></trkpt><trkpt lat="15.185436614415858" lon="120.60138910817192"><ele>86.0</ele><time>2026-03-28T12:41:09Z</time></trkpt><trkpt lat="15.185667974529853" lon="120.60129500881271"><ele>86.0</ele><time>2026-03-28T12:41:10Z</time></trkpt><trkpt lat="15.185909864377917" lon="120.60119441867198"><ele>87.5</ele><time>2026-03-28T12:41:11Z</time></trkpt><trkpt lat="15.186148354246924" lon="120.60109145413583"><ele>89.0</ele><time>2026-03-28T12:41:12Z</time></trkpt><trkpt lat="15.186386357773918" lon="120.60099113731751"><ele>88.5</ele><time>2026-03-28T12:41:13Z</time></trkpt><trkpt lat="15.18662805921755" lon="120.60088773710696"><ele>88.0</ele><time>2026-03-28T12:41:14Z</time></trkpt><trkpt lat="15.186875301217796" lon="120.60078650310669"><ele>88.0</ele><time>2026-03-28T12:41:15Z</time></trkpt><trkpt lat="15.187121376415732" lon="120.6006879146548"><ele>88.0</ele><time>2026-03-28T12:41:16Z</time></trkpt><trkpt lat="15.187371184447553" lon="120.60058789607338"><ele>89.0</ele><time>2026-03-28T12:41:17Z</time></trkpt><trkpt lat="15.187615821501309" lon="120.60048841652193"><ele>90.0</ele><time>2026-03-28T12:41:18Z</time></trkpt><trkpt lat="15.187860328259656" lon="120.60038790006553"><ele>90.0</ele><time>2026-03-28T12:41:19Z</time></trkpt><trkpt lat="15.188108039316287" lon="120.60028748183515"><ele>90.0</ele><time>2026-03-28T12:41:20Z</time></trkpt><trkpt lat="15.188356975653052" lon="120.60018005184715"><ele>90.0</ele><time>2026-03-28T12:41:21Z</time></trkpt><trkpt lat="15.188608961774957" lon="120.60008372051546"><ele>90.0</ele><time>2026-03-28T12:41:22Z</time></trkpt><trkpt lat="15.188865896213711" lon="120.59998462943418"><ele>91.0</ele><time>2026-03-28T12:41:23Z</time></trkpt><trkpt lat="15.189118503729299" lon="120.59988546889534"><ele>92.0</ele><time>2026-03-28T12:41:24Z</time></trkpt><trkpt lat="15.189371604372951" lon="120.59978523372921"><ele>92.0</ele><time>2026-03-28T12:41:25Z</time></trkpt><trkpt lat="15.189628094202703" lon="120.5996899411949"><ele>92.0</ele><time>2026-03-28T12:41:26Z</time></trkpt><trkpt lat="15.189876656267831" lon="120.59959121203768"><ele>92.0</ele><time>2026-03-28T12:41:27Z</time></trkpt><trkpt lat="15.190121665806545" lon="120.59949106286143"><ele>92.0</ele><time>2026-03-28T12:41:28Z</time></trkpt><trkpt lat="15.190371642737725" lon="120.59939317640496"><ele>92.0</ele><time>2026-03-28T12:41:29Z</time></trkpt><trkpt lat="15.190622396342128" lon="120.59929567475452"><ele>92.0</ele><time>2026-03-28T12:41:30Z</time></trkpt><trkpt lat="15.190872586692906" lon="120.59920641607216"><ele>92.5</ele><time>2026-03-28T12:41:31Z</time></trkpt><trkpt lat="15.191118357035117" lon="120.59911466356843"><ele>93.0</ele><time>2026-03-28T12:41:32Z</time></trkpt><trkpt lat="15.191355487182257" lon="120.59902635503224"><ele>92.5</ele><time>2026-03-28T12:41:33Z</time></trkpt><trkpt lat="15.191597495043563" lon="120.59893429915131"><ele>92.0</ele><time>2026-03-28T12:41:34Z</time></trkpt><trkpt lat="15.19182897067939" lon="120.59885475862667"><ele>92.0</ele><time>2026-03-28T12:41:35Z</time></trkpt><trkpt lat="15.19205077490115" lon="120.59876817880256"><ele>92.0</ele><time>2026-03-28T12:41:36Z</time></trkpt><trkpt lat="15.192282200854759" lon="120.59868161835146"><ele>92.5</ele><time>2026-03-28T12:41:37Z</time></trkpt><trkpt lat="15.192511065583046" lon="120.59859549204452"><ele>93.0</ele><time>2026-03-28T12:41:38Z</time></trkpt><trkpt lat="15.192738010133278" lon="120.59851600673821"><ele>93.0</ele><time>2026-03-28T12:41:39Z</time></trkpt><trkpt lat="15.192965061293846" lon="120.59843856219801"><ele>93.0</ele><time>2026-03-28T12:41:40Z</time></trkpt><trkpt lat="15.193183168431728" lon="120.59836850211637"><ele>93.5</ele><time>2026-03-28T12:41:41Z</time></trkpt><trkpt lat="15.193404555177475" lon="120.59829120192366"><ele>94.0</ele><time>2026-03-28T12:41:42Z</time></trkpt><trkpt lat="15.19362602715795" lon="120.59821574043768"><ele>94.0</ele><time>2026-03-28T12:41:43Z</time></trkpt><trkpt lat="15.193838211660506" lon="120.59814098540274"><ele>94.0</ele><time>2026-03-28T12:41:44Z</time></trkpt><trkpt lat="15.194039137121663" lon="120.5980735333941"><ele>94.0</ele><time>2026-03-28T12:41:45Z</time></trkpt><trkpt lat="15.194238128806063" lon="120.5980109167055"><ele>94.0</ele><time>2026-03-28T12:41:46Z</time></trkpt><trkpt lat="15.19441977951746" lon="120.59795397295544"><ele>94.0</ele><time>2026-03-28T12:41:47Z</time></trkpt><trkpt lat="15.194586527282107" lon="120.59790334771432"><ele>94.0</ele><time>2026-03-28T12:41:48Z</time></trkpt><trkpt lat="15.194743638200267" lon="120.5978610263316"><ele>93.66666666666666</ele><time>2026-03-28T12:41:49Z</time></trkpt><trkpt lat="15.194895935518137" lon="120.59782349519666"><ele>93.33333333333333</ele><time>2026-03-28T12:41:50Z</time></trkpt><trkpt lat="15.195036890139805" lon="120.5977804795674"><ele>93.0</ele><time>2026-03-28T12:41:51Z</time></trkpt><trkpt lat="15.195185033428803" lon="120.59773940076849"><ele>93.0</ele><time>2026-03-28T12:41:52Z</time></trkpt><trkpt lat="15.195310265915097" lon="120.59770944808487"><ele>93.0</ele><time>2026-03-28T12:41:53Z</time></trkpt><trkpt lat="15.19544840280421" lon="120.59767545967091"><ele>93.0</ele><time>2026-03-28T12:41:54Z</time></trkpt><trkpt lat="15.195565384468752" lon="120.59764464080531"><ele>93.0</ele><time>2026-03-28T12:41:55Z</time></trkpt><trkpt lat="15.195676512325667" lon="120.59763088251142"><ele>92.75</ele><time>2026-03-28T12:41:56Z</time></trkpt><trkpt lat="15.195802181382867" lon="120.59762436994103"><ele>92.5</ele><time>2026-03-28T12:41:57Z</time></trkpt><trkpt lat="15.195927617548024" lon="120.59762121163759"><ele>92.25</ele><time>2026-03-28T12:41:58Z</time></trkpt><trkpt lat="15.196053577420761" lon="120.59763812644222"><ele>92.0</ele><time>2026-03-28T12:41:59Z</time></trkpt><trkpt lat="15.196184984861992" lon="120.59766537703868"><ele>92.0</ele><time>2026-03-28T12:42:00Z</time></trkpt><trkpt lat="15.196305250565917" lon="120.597720686435"><ele>92.0</ele><time>2026-03-28T12:42:01Z</time></trkpt><trkpt lat="15.196407107298283" lon="120.59778831544219"><ele>92.0</ele><time>2026-03-28T12:42:02Z</time></trkpt><trkpt lat="15.196521001657816" lon="120.59786474372137"><ele>92.0</ele><time>2026-03-28T12:42:03Z</time></trkpt><trkpt lat="15.196625919130486" lon="120.59794966634166"><ele>91.5</ele><time>2026-03-28T12:42:04Z</time></trkpt><trkpt lat="15.196723782751961" lon="120.59803358096951"><ele>91.0</ele><time>2026-03-28T12:42:05Z</time></trkpt><trkpt lat="15.196832690283802" lon="120.59812009294187"><ele>90.5</ele><time>2026-03-28T12:42:06Z</time></trkpt><trkpt lat="15.196928192334349" lon="120.59818943928462"><ele>90.0</ele><time>2026-03-28T12:42:07Z</time></trkpt><trkpt lat="15.197025512199854" lon="120.59824450702892"><ele>90.0</ele><time>2026-03-28T12:42:08Z</time></trkpt><trkpt lat="15.197129775182521" lon="120.59828598102992"><ele>90.0</ele><time>2026-03-28T12:42:09Z</time></trkpt><trkpt lat="15.197246956298754" lon="120.59831281665001"><ele>90.0</ele><time>2026-03-28T12:42:10Z</time></trkpt><trkpt lat="15.197364707642723" lon="120.59831329651769"><ele>90.0</ele><time>2026-03-28T12:42:11Z</time></trkpt><trkpt lat="15.197488603386457" lon="120.59829689882797"><ele>89.75</ele><time>2026-03-28T12:42:12Z</time></trkpt><trkpt lat="15.197612363544554" lon="120.59825921613023"><ele>89.5</ele><time>2026-03-28T12:42:13Z</time></trkpt><trkpt lat="15.197720332018463" lon="120.59819545385342"><ele>89.25</ele><time>2026-03-28T12:42:14Z</time></trkpt><trkpt lat="15.197829467985054" lon="120.59812449552952"><ele>89.0</ele><time>2026-03-28T12:42:15Z</time></trkpt><trkpt lat="15.19789663615293" lon="120.5980218253196"><ele>89.0</ele><time>2026-03-28T12:42:16Z</time></trkpt><trkpt lat="15.197956378706536" lon="120.59791570789369"><ele>89.0</ele><time>2026-03-28T12:42:17Z</time></trkpt><trkpt lat="15.197994023993122" lon="120.59780254068508"><ele>89.0</ele><time>2026-03-28T12:42:18Z</time></trkpt><trkpt lat="15.19802500189849" lon="120.59768897198369"><ele>89.0</ele><time>2026-03-28T12:42:19Z</time></trkpt><trkpt lat="15.198036944987546" lon="120.59758657140708"><ele>89.0</ele><time>2026-03-28T12:42:20Z</time></trkpt><trkpt lat="15.198035647719204" lon="120.59747998253312"><ele>88.75</ele><time>2026-03-28T12:42:21Z</time></trkpt><trkpt lat="15.198023954383611" lon="120.59737021765254"><ele>88.5</ele><time>2026-03-28T12:42:22Z</time></trkpt><trkpt lat="15.198002507089896" lon="120.59725647518161"><ele>88.25</ele><time>2026-03-28T12:42:23Z</time></trkpt><trkpt lat="15.197971374880707" lon="120.59713656392441"><ele>88.0</ele><time>2026-03-28T12:42:24Z</time></trkpt><trkpt lat="15.197947999799961" lon="120.59701920543905"><ele>88.75</ele><time>2026-03-28T12:42:25Z</time></trkpt><trkpt lat="15.197920622084782" lon="120.59688459678704"><ele>89.5</ele><time>2026-03-28T12:42:26Z</time></trkpt><trkpt lat="15.1978944329533" lon="120.59674866874141"><ele>90.25</ele><time>2026-03-28T12:42:27Z</time></trkpt><trkpt lat="15.19786288488707" lon="120.59660089657291"><ele>91.0</ele><time>2026-03-28T12:42:28Z</time></trkpt><trkpt lat="15.197834497963779" lon="120.5964602690402"><ele>91.0</ele><time>2026-03-28T12:42:29Z</time></trkpt><trkpt lat="15.197803765317374" lon="120.59631131453301"><ele>91.0</ele><time>2026-03-28T12:42:30Z</time></trkpt><trkpt lat="15.197768072377297" lon="120.59615774192437"><ele>91.0</ele><time>2026-03-28T12:42:31Z</time></trkpt><trkpt lat="15.197736152513386" lon="120.59599647227051"><ele>92.0</ele><time>2026-03-28T12:42:32Z</time></trkpt><trkpt lat="15.197702409001323" lon="120.59583152977159"><ele>93.0</ele><time>2026-03-28T12:42:33Z</time></trkpt><trkpt lat="15.197678468848679" lon="120.59565994384913"><ele>94.0</ele><time>2026-03-28T12:42:34Z</time></trkpt><trkpt lat="15.197659509722088" lon="120.5954811145137"><ele>94.0</ele><time>2026-03-28T12:42:35Z</time></trkpt><trkpt lat="15.197637149627782" lon="120.59529774939053"><ele>94.0</ele><time>2026-03-28T12:42:36Z</time></trkpt><trkpt lat="15.197612363458777" lon="120.59511262560204"><ele>94.0</ele><time>2026-03-28T12:42:37Z</time></trkpt><trkpt lat="15.197595666885858" lon="120.59491021013852"><ele>94.0</ele><time>2026-03-28T12:42:38Z</time></trkpt><trkpt lat="15.197579843438103" lon="120.59472111795783"><ele>94.0</ele><time>2026-03-28T12:42:39Z</time></trkpt><trkpt lat="15.197575002621111" lon="120.59451818326164"><ele>94.0</ele><time>2026-03-28T12:42:40Z</time></trkpt><trkpt lat="15.197575939230424" lon="120.59431147162229"><ele>94.33333333333333</ele><time>2026-03-28T12:42:41Z</time></trkpt><trkpt lat="15.197578957387243" lon="120.59410117404708"><ele>94.66666666666667</ele><time>2026-03-28T12:42:42Z</time></trkpt><trkpt lat="15.197587638038973" lon="120.59388051123939"><ele>95.0</ele><time>2026-03-28T12:42:43Z</time></trkpt><trkpt lat="15.197595737337737" lon="120.59366389517479"><ele>95.0</ele><time>2026-03-28T12:42:44Z</time></trkpt><trkpt lat="15.1976032902289" lon="120.5934500538821"><ele>95.0</ele><time>2026-03-28T12:42:45Z</time></trkpt><trkpt lat="15.197606601661208" lon="120.5932387575846"><ele>95.0</ele><time>2026-03-28T12:42:46Z</time></trkpt><trkpt lat="15.197614645570276" lon="120.59303002743763"><ele>95.0</ele><time>2026-03-28T12:42:47Z</time></trkpt><trkpt lat="15.197611088154943" lon="120.59282965098957"><ele>95.0</ele><time>2026-03-28T12:42:48Z</time></trkpt><trkpt lat="15.197607065915259" lon="120.59263013412928"><ele>95.0</ele><time>2026-03-28T12:42:49Z</time></trkpt><trkpt lat="15.197600364524238" lon="120.59242968179446"><ele>95.0</ele><time>2026-03-28T12:42:50Z</time></trkpt><trkpt lat="15.197593680903074" lon="120.59222737202498"><ele>95.0</ele><time>2026-03-28T12:42:51Z</time></trkpt><trkpt lat="15.197580088268758" lon="120.59201835226818"><ele>95.0</ele><time>2026-03-28T12:42:52Z</time></trkpt><trkpt lat="15.197563987411362" lon="120.59181348885375"><ele>95.0</ele><time>2026-03-28T12:42:53Z</time></trkpt><trkpt lat="15.197544925042417" lon="120.59159710948694"><ele>95.0</ele><time>2026-03-28T12:42:54Z</time></trkpt><trkpt lat="15.19752150759406" lon="120.59138450905986"><ele>95.0</ele><time>2026-03-28T12:42:55Z</time></trkpt><trkpt lat="15.19749694183712" lon="120.59118042608954"><ele>94.33333333333334</ele><time>2026-03-28T12:42:56Z</time></trkpt><trkpt lat="15.197470721741384" lon="120.59096584011665"><ele>93.66666666666667</ele><time>2026-03-28T12:42:57Z</time></trkpt><trkpt lat="15.197443398648115" lon="120.59075452122796"><ele>93.0</ele><time>2026-03-28T12:42:58Z</time></trkpt><trkpt lat="15.197411677655323" lon="120.59054341373479"><ele>94.0</ele><time>2026-03-28T12:42:59Z</time></trkpt><trkpt lat="15.197381492466578" lon="120.59032616414677"><ele>95.0</ele><time>2026-03-28T12:43:00Z</time></trkpt><trkpt lat="15.197341282028693" lon="120.59011665522831"><ele>96.0</ele><time>2026-03-28T12:43:01Z</time></trkpt><trkpt lat="15.197327422530188" lon="120.5898935261518"><ele>96.66666666666666</ele><time>2026-03-28T12:43:02Z</time></trkpt><trkpt lat="15.197315249950979" lon="120.5896816506652"><ele>97.33333333333333</ele><time>2026-03-28T12:43:03Z</time></trkpt><trkpt lat="15.197305643093397" lon="120.58946907977813"><ele>98.0</ele><time>2026-03-28T12:43:04Z</time></trkpt><trkpt lat="15.197300278447674" lon="120.58922530649743"><ele>98.33333333333333</ele><time>2026-03-28T12:43:05Z</time></trkpt><trkpt lat="15.197302329212423" lon="120.58900569335717"><ele>98.66666666666666</ele><time>2026-03-28T12:43:06Z</time></trkpt><trkpt lat="15.197304831165757" lon="120.58878304127408"><ele>99.0</ele><time>2026-03-28T12:43:07Z</time></trkpt><trkpt lat="15.197309240772864" lon="120.58855991996155"><ele>99.33333333333334</ele><time>2026-03-28T12:43:08Z</time></trkpt><trkpt lat="15.197314202632212" lon="120.58834696854402"><ele>99.66666666666667</ele><time>2026-03-28T12:43:09Z</time></trkpt><trkpt lat="15.197324859404073" lon="120.58812171889566"><ele>100.0</ele><time>2026-03-28T12:43:10Z</time></trkpt><trkpt lat="15.197335839286314" lon="120.58789933533005"><ele>100.33333333333334</ele><time>2026-03-28T12:43:11Z</time></trkpt><trkpt lat="15.197351660708925" lon="120.58766577976938"><ele>100.66666666666666</ele><time>2026-03-28T12:43:12Z</time></trkpt><trkpt lat="15.197364409689808" lon="120.58743761074484"><ele>101.0</ele><time>2026-03-28T12:43:13Z</time></trkpt><trkpt lat="15.197376228169203" lon="120.58722051370363"><ele>101.33333333333333</ele><time>2026-03-28T12:43:14Z</time></trkpt><trkpt lat="15.19739228616873" lon="120.5869981569664"><ele>101.66666666666666</ele><time>2026-03-28T12:43:15Z</time></trkpt><trkpt lat="15.197415883669814" lon="120.58676831244183"><ele>102.0</ele><time>2026-03-28T12:43:16Z</time></trkpt><trkpt lat="15.1974337932134" lon="120.5865393104409"><ele>102.0</ele><time>2026-03-28T12:43:17Z</time></trkpt><trkpt lat="15.19745543805793" lon="120.58631395894135"><ele>102.0</ele><time>2026-03-28T12:43:18Z</time></trkpt><trkpt lat="15.197478440942707" lon="120.58609159352753"><ele>102.0</ele><time>2026-03-28T12:43:19Z</time></trkpt><trkpt lat="15.19749826165199" lon="120.58585195387637"><ele>101.0</ele><time>2026-03-28T12:43:20Z</time></trkpt><trkpt lat="15.197521044925073" lon="120.58561798725265"><ele>100.0</ele><time>2026-03-28T12:43:21Z</time></trkpt><trkpt lat="15.197539884755527" lon="120.58538495519255"><ele>102.0</ele><time>2026-03-28T12:43:22Z</time></trkpt><trkpt lat="15.197555109853214" lon="120.58515044628952"><ele>104.0</ele><time>2026-03-28T12:43:23Z</time></trkpt><trkpt lat="15.197574118897371" lon="120.58491357369647"><ele>104.0</ele><time>2026-03-28T12:43:24Z</time></trkpt><trkpt lat="15.19759024519346" lon="120.58468498301212"><ele>104.0</ele><time>2026-03-28T12:43:25Z</time></trkpt><trkpt lat="15.19760752588615" lon="120.58444201123989"><ele>105.33333333333333</ele><time>2026-03-28T12:43:26Z</time></trkpt><trkpt lat="15.19762805532666" lon="120.58421772422489"><ele>106.66666666666666</ele><time>2026-03-28T12:43:27Z</time></trkpt><trkpt lat="15.197644486961934" lon="120.583979060744"><ele>108.0</ele><time>2026-03-28T12:43:28Z</time></trkpt><trkpt lat="15.19765586294443" lon="120.58375485926689"><ele>108.66666666666666</ele><time>2026-03-28T12:43:29Z</time></trkpt><trkpt lat="15.197669034946605" lon="120.58352685460238"><ele>109.33333333333333</ele><time>2026-03-28T12:43:30Z</time></trkpt><trkpt lat="15.19767523217083" lon="120.58331278722471"><ele>110.0</ele><time>2026-03-28T12:43:31Z</time></trkpt><trkpt lat="15.197684295176465" lon="120.58310767594016"><ele>110.0</ele><time>2026-03-28T12:43:32Z</time></trkpt><trkpt lat="15.197689840098414" lon="120.58291052203842"><ele>110.0</ele><time>2026-03-28T12:43:33Z</time></trkpt><trkpt lat="15.197693519689642" lon="120.58272071523572"><ele>110.0</ele><time>2026-03-28T12:43:34Z</time></trkpt><trkpt lat="15.197697050071131" lon="120.58252995601228"><ele>110.0</ele><time>2026-03-28T12:43:35Z</time></trkpt><trkpt lat="15.197695414874877" lon="120.58234690511115"><ele>110.0</ele><time>2026-03-28T12:43:36Z</time></trkpt><trkpt lat="15.197686663447072" lon="120.58216519872525"><ele>110.0</ele><time>2026-03-28T12:43:37Z</time></trkpt><trkpt lat="15.197686160060561" lon="120.58198362898548"><ele>109.0</ele><time>2026-03-28T12:43:38Z</time></trkpt><trkpt lat="15.197685363620243" lon="120.58180539124199"><ele>108.0</ele><time>2026-03-28T12:43:39Z</time></trkpt><trkpt lat="15.197681056249824" lon="120.58163018636235"><ele>107.0</ele><time>2026-03-28T12:43:40Z</time></trkpt><trkpt lat="15.197673022391744" lon="120.58144603723846"><ele>107.0</ele><time>2026-03-28T12:43:41Z</time></trkpt><trkpt lat="15.197668239335709" lon="120.58125802429123"><ele>107.0</ele><time>2026-03-28T12:43:42Z</time></trkpt><trkpt lat="15.197660224089459" lon="120.58107373351234"><ele>107.0</ele><time>2026-03-28T12:43:43Z</time></trkpt><trkpt lat="15.197653156614669" lon="120.5808974061685"><ele>107.0</ele><time>2026-03-28T12:43:44Z</time></trkpt><trkpt lat="15.197646994648833" lon="120.58071167323642"><ele>107.0</ele><time>2026-03-28T12:43:45Z</time></trkpt><trkpt lat="15.19763872832938" lon="120.5805312796482"><ele>107.0</ele><time>2026-03-28T12:43:46Z</time></trkpt><trkpt lat="15.197631173564462" lon="120.58035408450304"><ele>107.0</ele><time>2026-03-28T12:43:47Z</time></trkpt><trkpt lat="15.197621996326493" lon="120.58018384353612"><ele>107.0</ele><time>2026-03-28T12:43:48Z</time></trkpt><trkpt lat="15.197613094522428" lon="120.58001760782427"><ele>107.0</ele><time>2026-03-28T12:43:49Z</time></trkpt><trkpt lat="15.197605636972005" lon="120.57985049664606"><ele>107.0</ele><time>2026-03-28T12:43:50Z</time></trkpt><trkpt lat="15.19759296509843" lon="120.57969600371534"><ele>107.0</ele><time>2026-03-28T12:43:51Z</time></trkpt><trkpt lat="15.197587503997228" lon="120.5795375458611"><ele>107.0</ele><time>2026-03-28T12:43:52Z</time></trkpt><trkpt lat="15.19758664730874" lon="120.5793778525107"><ele>107.5</ele><time>2026-03-28T12:43:53Z</time></trkpt><trkpt lat="15.197582105680636" lon="120.57921905795634"><ele>108.0</ele><time>2026-03-28T12:43:54Z</time></trkpt><trkpt lat="15.197571835595761" lon="120.57907162946118"><ele>108.5</ele><time>2026-03-28T12:43:55Z</time></trkpt><trkpt lat="15.197560882627176" lon="120.57893341173366"><ele>109.0</ele><time>2026-03-28T12:43:56Z</time></trkpt><trkpt lat="15.197548437969022" lon="120.57879276519557"><ele>109.25</ele><time>2026-03-28T12:43:57Z</time></trkpt><trkpt lat="15.19754117173731" lon="120.5786524187605"><ele>109.5</ele><time>2026-03-28T12:43:58Z</time></trkpt><trkpt lat="15.197533926678995" lon="120.57850439791108"><ele>109.75</ele><time>2026-03-28T12:43:59Z</time></trkpt><trkpt lat="15.19753362230424" lon="120.57836437327313"><ele>110.0</ele><time>2026-03-28T12:44:00Z</time></trkpt><trkpt lat="15.197525362977936" lon="120.57822234989847"><ele>110.0</ele><time>2026-03-28T12:44:01Z</time></trkpt><trkpt lat="15.197515508229138" lon="120.57809394142036"><ele>110.0</ele><time>2026-03-28T12:44:02Z</time></trkpt><trkpt lat="15.19750376764125" lon="120.57799694390125"><ele>110.0</ele><time>2026-03-28T12:44:03Z</time></trkpt><trkpt lat="15.197499623754753" lon="120.57789651704711"><ele>110.0</ele><time>2026-03-28T12:44:04Z</time></trkpt><trkpt lat="15.197501501591136" lon="120.57779651497576"><ele>110.0</ele><time>2026-03-28T12:44:05Z</time></trkpt><trkpt lat="15.197497393719923" lon="120.57770042493568"><ele>110.49999999999999</ele><time>2026-03-28T12:44:06Z</time></trkpt><trkpt lat="15.197493072185383" lon="120.5776058011391"><ele>111.0</ele><time>2026-03-28T12:44:07Z</time></trkpt><trkpt lat="15.197491774858712" lon="120.57750962931998"><ele>111.5</ele><time>2026-03-28T12:44:08Z</time></trkpt><trkpt lat="15.197489957778561" lon="120.57741559741365"><ele>112.0</ele><time>2026-03-28T12:44:09Z</time></trkpt><trkpt lat="15.197491571474288" lon="120.57732851193033"><ele>112.49999999999999</ele><time>2026-03-28T12:44:10Z</time></trkpt><trkpt lat="15.19749874686746" lon="120.57723701528904"><ele>113.0</ele><time>2026-03-28T12:44:11Z</time></trkpt><trkpt lat="15.197509593675766" lon="120.57713920755172"><ele>113.0</ele><time>2026-03-28T12:44:12Z</time></trkpt><trkpt lat="15.197515308556278" lon="120.57705011722328"><ele>113.00000000000001</ele><time>2026-03-28T12:44:13Z</time></trkpt><trkpt lat="15.197523892068515" lon="120.57696423320591"><ele>113.00000000000001</ele><time>2026-03-28T12:44:14Z</time></trkpt><trkpt lat="15.197551802327611" lon="120.57686789361662"><ele>113.0</ele><time>2026-03-28T12:44:15Z</time></trkpt><trkpt lat="15.197589308056124" lon="120.5767729766066"><ele>113.0</ele><time>2026-03-28T12:44:16Z</time></trkpt><trkpt lat="15.19762994261373" lon="120.57668008047227"><ele>112.80000000000001</ele><time>2026-03-28T12:44:17Z</time></trkpt><trkpt lat="15.197675033227462" lon="120.57660042834931"><ele>112.60000000000001</ele><time>2026-03-28T12:44:18Z</time></trkpt><trkpt lat="15.197730901218355" lon="120.5765154281254"><ele>112.39999999999999</ele><time>2026-03-28T12:44:19Z</time></trkpt><trkpt lat="15.197795327798266" lon="120.57643435515061"><ele>112.19999999999999</ele><time>2026-03-28T12:44:20Z</time></trkpt><trkpt lat="15.197873159862176" lon="120.57635641535772"><ele>112.0</ele><time>2026-03-28T12:44:21Z</time></trkpt><trkpt lat="15.197962100015898" lon="120.5762769136359"><ele>112.0</ele><time>2026-03-28T12:44:22Z</time></trkpt><trkpt lat="15.1980563294377" lon="120.57620515143878"><ele>112.0</ele><time>2026-03-28T12:44:23Z</time></trkpt><trkpt lat="15.198158192302088" lon="120.57613862287283"><ele>112.0</ele><time>2026-03-28T12:44:24Z</time></trkpt><trkpt lat="15.198270896491403" lon="120.57608033922445"><ele>112.0</ele><time>2026-03-28T12:44:25Z</time></trkpt><trkpt lat="15.198387692619331" lon="120.5760357222743"><ele>112.0</ele><time>2026-03-28T12:44:26Z</time></trkpt><trkpt lat="15.198512690567817" lon="120.57600005366287"><ele>112.0</ele><time>2026-03-28T12:44:27Z</time></trkpt><trkpt lat="15.198646015063083" lon="120.57596995724441"><ele>112.0</ele><time>2026-03-28T12:44:28Z</time></trkpt><trkpt lat="15.198780620402838" lon="120.57595038259574"><ele>112.0</ele><time>2026-03-28T12:44:29Z</time></trkpt><trkpt lat="15.1989145496545" lon="120.5759376006948"><ele>112.25</ele><time>2026-03-28T12:44:30Z</time></trkpt><trkpt lat="15.199054655627172" lon="120.57593027496424"><ele>112.5</ele><time>2026-03-28T12:44:31Z</time></trkpt><trkpt lat="15.199196755320852" lon="120.57592272641219"><ele>112.75</ele><time>2026-03-28T12:44:32Z</time></trkpt><trkpt lat="15.19933918588414" lon="120.57592499938791"><ele>113.0</ele><time>2026-03-28T12:44:33Z</time></trkpt><trkpt lat="15.199479628147985" lon="120.57592486653179"><ele>113.0</ele><time>2026-03-28T12:44:34Z</time></trkpt><trkpt lat="15.199627507037917" lon="120.5759137133544"><ele>113.0</ele><time>2026-03-28T12:44:35Z</time></trkpt><trkpt lat="15.199775251274195" lon="120.57591126421282"><ele>113.0</ele><time>2026-03-28T12:44:36Z</time></trkpt><trkpt lat="15.19992561430438" lon="120.57589968629182"><ele>113.0</ele><time>2026-03-28T12:44:37Z</time></trkpt><trkpt lat="15.200083925888608" lon="120.57589462582813"><ele>114.33333333333333</ele><time>2026-03-28T12:44:38Z</time></trkpt><trkpt lat="15.200236238848047" lon="120.5758884741786"><ele>115.66666666666666</ele><time>2026-03-28T12:44:39Z</time></trkpt><trkpt lat="15.200398119304436" lon="120.57588351483166"><ele>117.0</ele><time>2026-03-28T12:44:40Z</time></trkpt><trkpt lat="15.200563955920348" lon="120.57587385081852"><ele>116.33333333333334</ele><time>2026-03-28T12:44:41Z</time></trkpt><trkpt lat="15.200746081875144" lon="120.57586811629251"><ele>115.66666666666667</ele><time>2026-03-28T12:44:42Z</time></trkpt><trkpt lat="15.200927921096627" lon="120.57585049425704"><ele>115.0</ele><time>2026-03-28T12:44:43Z</time></trkpt><trkpt lat="15.201104402037828" lon="120.57583991711653"><ele>115.0</ele><time>2026-03-28T12:44:44Z</time></trkpt><trkpt lat="15.201284658121592" lon="120.57582964956171"><ele>115.0</ele><time>2026-03-28T12:44:45Z</time></trkpt><trkpt lat="15.20146668477641" lon="120.5758144543259"><ele>115.0</ele><time>2026-03-28T12:44:46Z</time></trkpt><trkpt lat="15.201651068422278" lon="120.57579751848206"><ele>115.0</ele><time>2026-03-28T12:44:47Z</time></trkpt><trkpt lat="15.201831239308248" lon="120.57577439608833"><ele>115.0</ele><time>2026-03-28T12:44:48Z</time></trkpt><trkpt lat="15.202024867923342" lon="120.57575489682606"><ele>115.0</ele><time>2026-03-28T12:44:49Z</time></trkpt><trkpt lat="15.202229120645244" lon="120.5757438672724"><ele>115.0</ele><time>2026-03-28T12:44:50Z</time></trkpt><trkpt lat="15.202440237881804" lon="120.57572278054975"><ele>115.0</ele><time>2026-03-28T12:44:51Z</time></trkpt><trkpt lat="15.202651875119928" lon="120.57569914845503"><ele>115.0</ele><time>2026-03-28T12:44:52Z</time></trkpt><trkpt lat="15.202863433458164" lon="120.57567382056479"><ele>115.0</ele><time>2026-03-28T12:44:53Z</time></trkpt><trkpt lat="15.20307749853481" lon="120.57564635177786"><ele>115.0</ele><time>2026-03-28T12:44:54Z</time></trkpt><trkpt lat="15.20329906870292" lon="120.57562150004257"><ele>115.0</ele><time>2026-03-28T12:44:55Z</time></trkpt><trkpt lat="15.203515486870772" lon="120.5755885999889"><ele>114.33333333333334</ele><time>2026-03-28T12:44:56Z</time></trkpt><trkpt lat="15.203738023674486" lon="120.57555555062639"><ele>113.66666666666666</ele><time>2026-03-28T12:44:57Z</time></trkpt><trkpt lat="15.203959177566286" lon="120.57552252405914"><ele>113.0</ele><time>2026-03-28T12:44:58Z</time></trkpt><trkpt lat="15.204189727647915" lon="120.57549165959878"><ele>112.0</ele><time>2026-03-28T12:44:59Z</time></trkpt><trkpt lat="15.204423709310102" lon="120.57545600560007"><ele>111.0</ele><time>2026-03-28T12:45:00Z</time></trkpt><trkpt lat="15.204657522892637" lon="120.5754175595869"><ele>111.0</ele><time>2026-03-28T12:45:01Z</time></trkpt><trkpt lat="15.204892635732426" lon="120.57537916121696"><ele>111.0</ele><time>2026-03-28T12:45:02Z</time></trkpt><trkpt lat="15.205130371326156" lon="120.57533078104758"><ele>111.0</ele><time>2026-03-28T12:45:03Z</time></trkpt><trkpt lat="15.20537462364719" lon="120.57528421508209"><ele>111.0</ele><time>2026-03-28T12:45:04Z</time></trkpt><trkpt lat="15.205617194403459" lon="120.57523838918253"><ele>111.5</ele><time>2026-03-28T12:45:05Z</time></trkpt><trkpt lat="15.205861535633534" lon="120.57519369798993"><ele>112.0</ele><time>2026-03-28T12:45:06Z</time></trkpt><trkpt lat="15.20610643663091" lon="120.57514717608049"><ele>112.0</ele><time>2026-03-28T12:45:07Z</time></trkpt><trkpt lat="15.206355872730906" lon="120.57509334995316"><ele>112.0</ele><time>2026-03-28T12:45:08Z</time></trkpt><trkpt lat="15.206611844733487" lon="120.57503542414561"><ele>111.5</ele><time>2026-03-28T12:45:09Z</time></trkpt><trkpt lat="15.206862742328182" lon="120.57497189696704"><ele>111.0</ele><time>2026-03-28T12:45:10Z</time></trkpt><trkpt lat="15.207118615904646" lon="120.5749098770104"><ele>110.5</ele><time>2026-03-28T12:45:11Z</time></trkpt><trkpt lat="15.207376843699585" lon="120.5748454221133"><ele>110.0</ele><time>2026-03-28T12:45:12Z</time></trkpt><trkpt lat="15.207639554142007" lon="120.5747778387761"><ele>110.0</ele><time>2026-03-28T12:45:13Z</time></trkpt><trkpt lat="15.207891251345323" lon="120.57470450479074"><ele>110.0</ele><time>2026-03-28T12:45:14Z</time></trkpt><trkpt lat="15.20815314655934" lon="120.57463496187465"><ele>110.5</ele><time>2026-03-28T12:45:15Z</time></trkpt><trkpt lat="15.208421129896715" lon="120.57455834821891"><ele>111.0</ele><time>2026-03-28T12:45:16Z</time></trkpt><trkpt lat="15.208684873528153" lon="120.57448539765473"><ele>111.0</ele><time>2026-03-28T12:45:17Z</time></trkpt><trkpt lat="15.208954395987961" lon="120.57441062916185"><ele>111.0</ele><time>2026-03-28T12:45:18Z</time></trkpt><trkpt lat="15.20922244116491" lon="120.57433303172783"><ele>110.5</ele><time>2026-03-28T12:45:19Z</time></trkpt><trkpt lat="15.209493910394759" lon="120.57425453860124"><ele>110.0</ele><time>2026-03-28T12:45:20Z</time></trkpt><trkpt lat="15.20976466432468" lon="120.57417549366593"><ele>110.5</ele><time>2026-03-28T12:45:21Z</time></trkpt><trkpt lat="15.210035697302" lon="120.57409908747597"><ele>111.0</ele><time>2026-03-28T12:45:22Z</time></trkpt><trkpt lat="15.210306725750156" lon="120.57401656835991"><ele>111.0</ele><time>2026-03-28T12:45:23Z</time></trkpt><trkpt lat="15.210575248701048" lon="120.57393659042654"><ele>111.0</ele><time>2026-03-28T12:45:24Z</time></trkpt><trkpt lat="15.210845571318973" lon="120.57385627956747"><ele>110.5</ele><time>2026-03-28T12:45:25Z</time></trkpt><trkpt lat="15.21111685792585" lon="120.57377811011297"><ele>110.0</ele><time>2026-03-28T12:45:26Z</time></trkpt><trkpt lat="15.211392477624177" lon="120.57369967099226"><ele>108.0</ele><time>2026-03-28T12:45:27Z</time></trkpt><trkpt lat="15.211661653073087" lon="120.57361856236933"><ele>106.0</ele><time>2026-03-28T12:45:28Z</time></trkpt><trkpt lat="15.211933557871943" lon="120.57353951759747"><ele>106.0</ele><time>2026-03-28T12:45:29Z</time></trkpt><trkpt lat="15.21220169152755" lon="120.57346390172268"><ele>106.0</ele><time>2026-03-28T12:45:30Z</time></trkpt><trkpt lat="15.212469043454723" lon="120.57338470884946"><ele>105.0</ele><time>2026-03-28T12:45:31Z</time></trkpt><trkpt lat="15.212740306632668" lon="120.57330688987103"><ele>104.0</ele><time>2026-03-28T12:45:32Z</time></trkpt><trkpt lat="15.213010016474552" lon="120.57323299374666"><ele>105.0</ele><time>2026-03-28T12:45:33Z</time></trkpt><trkpt lat="15.213281278522642" lon="120.57315513855718"><ele>106.0</ele><time>2026-03-28T12:45:34Z</time></trkpt><trkpt lat="15.213556165319998" lon="120.5730773864071"><ele>106.0</ele><time>2026-03-28T12:45:35Z</time></trkpt><trkpt lat="15.21382924686356" lon="120.57299851281404"><ele>106.0</ele><time>2026-03-28T12:45:36Z</time></trkpt><trkpt lat="15.21409900756017" lon="120.57292147418809"><ele>108.5</ele><time>2026-03-28T12:45:37Z</time></trkpt><trkpt lat="15.214371312877063" lon="120.57284135361844"><ele>111.0</ele><time>2026-03-28T12:45:38Z</time></trkpt><trkpt lat="15.214645789666568" lon="120.5727683019364"><ele>111.0</ele><time>2026-03-28T12:45:39Z</time></trkpt><trkpt lat="15.214916830969708" lon="120.57268651764427"><ele>111.0</ele><time>2026-03-28T12:45:40Z</time></trkpt><trkpt lat="15.215188988700612" lon="120.5726098332845"><ele>111.0</ele><time>2026-03-28T12:45:41Z</time></trkpt><trkpt lat="15.215456543728505" lon="120.57253336798087"><ele>111.0</ele><time>2026-03-28T12:45:42Z</time></trkpt><trkpt lat="15.215721658089784" lon="120.5724613426327"><ele>111.0</ele><time>2026-03-28T12:45:43Z</time></trkpt><trkpt lat="15.215985192919218" lon="120.57238557381616"><ele>111.0</ele><time>2026-03-28T12:45:44Z</time></trkpt><trkpt lat="15.21623954918214" lon="120.57231375111803"><ele>110.0</ele><time>2026-03-28T12:45:45Z</time></trkpt><trkpt lat="15.216502489188676" lon="120.57224306003675"><ele>109.0</ele><time>2026-03-28T12:45:46Z</time></trkpt><trkpt lat="15.21676215384277" lon="120.57217592927974"><ele>109.0</ele><time>2026-03-28T12:45:47Z</time></trkpt><trkpt lat="15.217014892914452" lon="120.57210690173093"><ele>109.0</ele><time>2026-03-28T12:45:48Z</time></trkpt><trkpt lat="15.217264778263585" lon="120.57203321919928"><ele>109.5</ele><time>2026-03-28T12:45:49Z</time></trkpt><trkpt lat="15.21751714210291" lon="120.57196184456457"><ele>110.0</ele><time>2026-03-28T12:45:50Z</time></trkpt><trkpt lat="15.21776353089128" lon="120.57188856869223"><ele>110.0</ele><time>2026-03-28T12:45:51Z</time></trkpt><trkpt lat="15.218000906806575" lon="120.57181818275686"><ele>110.0</ele><time>2026-03-28T12:45:52Z</time></trkpt><trkpt lat="15.218238141262226" lon="120.5717521603991"><ele>110.0</ele><time>2026-03-28T12:45:53Z</time></trkpt><trkpt lat="15.218464605710233" lon="120.57168168773474"><ele>110.0</ele><time>2026-03-28T12:45:54Z</time></trkpt><trkpt lat="15.218686054899532" lon="120.57161682997837"><ele>110.0</ele><time>2026-03-28T12:45:55Z</time></trkpt><trkpt lat="15.218899706862434" lon="120.57155438770755"><ele>110.0</ele><time>2026-03-28T12:45:56Z</time></trkpt><trkpt lat="15.219117348370618" lon="120.57149485907401"><ele>110.0</ele><time>2026-03-28T12:45:57Z</time></trkpt><trkpt lat="15.219325994909747" lon="120.57143487773631"><ele>110.0</ele><time>2026-03-28T12:45:58Z</time></trkpt><trkpt lat="15.219534525980661" lon="120.57137723881036"><ele>110.0</ele><time>2026-03-28T12:45:59Z</time></trkpt><trkpt lat="15.219743761295357" lon="120.57131884394886"><ele>110.0</ele><time>2026-03-28T12:46:00Z</time></trkpt><trkpt lat="15.21994675762432" lon="120.57126314730216"><ele>111.0</ele><time>2026-03-28T12:46:01Z</time></trkpt><trkpt lat="15.22014656099667" lon="120.57120327549603"><ele>112.0</ele><time>2026-03-28T12:46:02Z</time></trkpt><trkpt lat="15.220346277794551" lon="120.57114410153702"><ele>113.0</ele><time>2026-03-28T12:46:03Z</time></trkpt><trkpt lat="15.220542506681998" lon="120.57108707804463"><ele>113.33333333333333</ele><time>2026-03-28T12:46:04Z</time></trkpt><trkpt lat="15.220737882331063" lon="120.57103374919957"><ele>113.66666666666666</ele><time>2026-03-28T12:46:05Z</time></trkpt><trkpt lat="15.220922352368893" lon="120.57097829124966"><ele>114.0</ele><time>2026-03-28T12:46:06Z</time></trkpt><trkpt lat="15.221115893699427" lon="120.5709262890452"><ele>114.0</ele><time>2026-03-28T12:46:07Z</time></trkpt><trkpt lat="15.221307879280742" lon="120.57086832410265"><ele>114.0</ele><time>2026-03-28T12:46:08Z</time></trkpt><trkpt lat="15.221497673705008" lon="120.57082038249416"><ele>114.0</ele><time>2026-03-28T12:46:09Z</time></trkpt><trkpt lat="15.221687000796889" lon="120.57077116021121"><ele>112.33333333333334</ele><time>2026-03-28T12:46:10Z</time></trkpt><trkpt lat="15.221878532567526" lon="120.5707208099712"><ele>110.66666666666667</ele><time>2026-03-28T12:46:11Z</time></trkpt><trkpt lat="15.22206682362681" lon="120.57066300648236"><ele>109.0</ele><time>2026-03-28T12:46:12Z</time></trkpt><trkpt lat="15.222263207798067" lon="120.57060290182704"><ele>107.66666666666667</ele><time>2026-03-28T12:46:13Z</time></trkpt><trkpt lat="15.22245755922247" lon="120.57054037046669"><ele>106.33333333333334</ele><time>2026-03-28T12:46:14Z</time></trkpt><trkpt lat="15.222653441657728" lon="120.57048898650231"><ele>105.0</ele><time>2026-03-28T12:46:15Z</time></trkpt><trkpt lat="15.222851281806173" lon="120.57043287759284"><ele>105.0</ele><time>2026-03-28T12:46:16Z</time></trkpt><trkpt lat="15.22304648804854" lon="120.57037355751865"><ele>105.0</ele><time>2026-03-28T12:46:17Z</time></trkpt><trkpt lat="15.223248816474593" lon="120.57031575868385"><ele>105.0</ele><time>2026-03-28T12:46:18Z</time></trkpt><trkpt lat="15.223447383177295" lon="120.57025924309009"><ele>105.66666666666666</ele><time>2026-03-28T12:46:19Z</time></trkpt><trkpt lat="15.223648042849604" lon="120.57020608933543"><ele>106.33333333333333</ele><time>2026-03-28T12:46:20Z</time></trkpt><trkpt lat="15.223842546185523" lon="120.57014693495078"><ele>107.0</ele><time>2026-03-28T12:46:21Z</time></trkpt><trkpt lat="15.224038900775831" lon="120.57009077217785"><ele>107.33333333333333</ele><time>2026-03-28T12:46:22Z</time></trkpt><trkpt lat="15.224237838164965" lon="120.57003533095917"><ele>107.66666666666666</ele><time>2026-03-28T12:46:23Z</time></trkpt><trkpt lat="15.224444110279515" lon="120.56998011072216"><ele>108.0</ele><time>2026-03-28T12:46:24Z</time></trkpt><trkpt lat="15.224648400729494" lon="120.56992093751813"><ele>108.33333333333334</ele><time>2026-03-28T12:46:25Z</time></trkpt><trkpt lat="15.224854424315728" lon="120.56985940538074"><ele>108.66666666666667</ele><time>2026-03-28T12:46:26Z</time></trkpt><trkpt lat="15.225057860217527" lon="120.56980391220351"><ele>109.0</ele><time>2026-03-28T12:46:27Z</time></trkpt><trkpt lat="15.2252669315807" lon="120.56974758470567"><ele>109.0</ele><time>2026-03-28T12:46:28Z</time></trkpt><trkpt lat="15.225476609600966" lon="120.56969275377004"><ele>109.0</ele><time>2026-03-28T12:46:29Z</time></trkpt><trkpt lat="15.225688317759916" lon="120.5696395734636"><ele>109.0</ele><time>2026-03-28T12:46:30Z</time></trkpt><trkpt lat="15.225903451350488" lon="120.56958219544262"><ele>110.0</ele><time>2026-03-28T12:46:31Z</time></trkpt><trkpt lat="15.226117382602498" lon="120.56952225617574"><ele>111.0</ele><time>2026-03-28T12:46:32Z</time></trkpt><trkpt lat="15.226342212807786" lon="120.56945918678078"><ele>109.5</ele><time>2026-03-28T12:46:33Z</time></trkpt><trkpt lat="15.22656548545515" lon="120.56939821327133"><ele>108.0</ele><time>2026-03-28T12:46:34Z</time></trkpt><trkpt lat="15.226791827626812" lon="120.56934012011605"><ele>108.0</ele><time>2026-03-28T12:46:35Z</time></trkpt><trkpt lat="15.227025516556013" lon="120.56927057391304"><ele>108.0</ele><time>2026-03-28T12:46:36Z</time></trkpt><trkpt lat="15.227264642800055" lon="120.5692013643966"><ele>108.5</ele><time>2026-03-28T12:46:37Z</time></trkpt><trkpt lat="15.22750343764252" lon="120.56913335243055"><ele>109.0</ele><time>2026-03-28T12:46:38Z</time></trkpt><trkpt lat="15.227742053508258" lon="120.56907068878745"><ele>109.0</ele><time>2026-03-28T12:46:39Z</time></trkpt><trkpt lat="15.22798092020955" lon="120.56900264627363"><ele>109.0</ele><time>2026-03-28T12:46:40Z</time></trkpt><trkpt lat="15.228220759208352" lon="120.56893434226632"><ele>108.5</ele><time>2026-03-28T12:46:41Z</time></trkpt><trkpt lat="15.228465933753201" lon="120.56886452615498"><ele>108.0</ele><time>2026-03-28T12:46:42Z</time></trkpt><trkpt lat="15.228711418929986" lon="120.56879371853559"><ele>108.0</ele><time>2026-03-28T12:46:43Z</time></trkpt><trkpt lat="15.2289599532215" lon="120.56872790319149"><ele>108.0</ele><time>2026-03-28T12:46:44Z</time></trkpt><trkpt lat="15.229205579125122" lon="120.56865920681902"><ele>107.0</ele><time>2026-03-28T12:46:45Z</time></trkpt><trkpt lat="15.229457339730342" lon="120.56858451080225"><ele>106.0</ele><time>2026-03-28T12:46:46Z</time></trkpt><trkpt lat="15.229707535219164" lon="120.56850930863837"><ele>106.5</ele><time>2026-03-28T12:46:47Z</time></trkpt><trkpt lat="15.229962273584501" lon="120.56843336460825"><ele>107.0</ele><time>2026-03-28T12:46:48Z</time></trkpt><trkpt lat="15.23021142255532" lon="120.56836047349142"><ele>107.0</ele><time>2026-03-28T12:46:49Z</time></trkpt><trkpt lat="15.230469367715656" lon="120.56828619497999"><ele>107.0</ele><time>2026-03-28T12:46:50Z</time></trkpt><trkpt lat="15.23072677695653" lon="120.56821066149647"><ele>108.0</ele><time>2026-03-28T12:46:51Z</time></trkpt><trkpt lat="15.23098199950418" lon="120.56813823345716"><ele>109.0</ele><time>2026-03-28T12:46:52Z</time></trkpt><trkpt lat="15.231245009042095" lon="120.56807348682928"><ele>107.5</ele><time>2026-03-28T12:46:53Z</time></trkpt><trkpt lat="15.23150169864222" lon="120.56799892887616"><ele>106.0</ele><time>2026-03-28T12:46:54Z</time></trkpt><trkpt lat="15.23176159499584" lon="120.56793090315931"><ele>106.0</ele><time>2026-03-28T12:46:55Z</time></trkpt><trkpt lat="15.23201678455432" lon="120.5678599828366"><ele>106.0</ele><time>2026-03-28T12:46:56Z</time></trkpt><trkpt lat="15.232267226526075" lon="120.56778319704378"><ele>104.5</ele><time>2026-03-28T12:46:57Z</time></trkpt><trkpt lat="15.232529924797605" lon="120.56771326813636"><ele>103.0</ele><time>2026-03-28T12:46:58Z</time></trkpt><trkpt lat="15.232785492597946" lon="120.56764428622512"><ele>103.0</ele><time>2026-03-28T12:46:59Z</time></trkpt><trkpt lat="15.233048988608397" lon="120.56757455199771"><ele>103.0</ele><time>2026-03-28T12:47:00Z</time></trkpt><trkpt lat="15.233315740677732" lon="120.56750488357919"><ele>106.0</ele><time>2026-03-28T12:47:01Z</time></trkpt><trkpt lat="15.2335781960157" lon="120.56743802279796"><ele>109.0</ele><time>2026-03-28T12:47:02Z</time></trkpt><trkpt lat="15.233843269339776" lon="120.56737682112195"><ele>108.5</ele><time>2026-03-28T12:47:03Z</time></trkpt><trkpt lat="15.234109425613267" lon="120.56732025617357"><ele>108.0</ele><time>2026-03-28T12:47:04Z</time></trkpt><trkpt lat="15.234372783921463" lon="120.56727211737342"><ele>108.0</ele><time>2026-03-28T12:47:05Z</time></trkpt><trkpt lat="15.234641490024808" lon="120.56724024618967"><ele>108.0</ele><time>2026-03-28T12:47:06Z</time></trkpt><trkpt lat="15.234912163732448" lon="120.5672174773929"><ele>107.5</ele><time>2026-03-28T12:47:07Z</time></trkpt><trkpt lat="15.235174564941497" lon="120.56719725507757"><ele>107.0</ele><time>2026-03-28T12:47:08Z</time></trkpt><trkpt lat="15.23543831022837" lon="120.5671879279364"><ele>107.0</ele><time>2026-03-28T12:47:09Z</time></trkpt><trkpt lat="15.23570194542851" lon="120.56718973847764"><ele>107.0</ele><time>2026-03-28T12:47:10Z</time></trkpt><trkpt lat="15.235954763534329" lon="120.56720075565667"><ele>107.0</ele><time>2026-03-28T12:47:11Z</time></trkpt><trkpt lat="15.236214610274853" lon="120.5672259450549"><ele>107.0</ele><time>2026-03-28T12:47:12Z</time></trkpt><trkpt lat="15.23646539422072" lon="120.56725579764978"><ele>106.5</ele><time>2026-03-28T12:47:13Z</time></trkpt><trkpt lat="15.236719832787545" lon="120.56730568692237"><ele>106.0</ele><time>2026-03-28T12:47:14Z</time></trkpt><trkpt lat="15.236973835048092" lon="120.5673629961839"><ele>106.0</ele><time>2026-03-28T12:47:15Z</time></trkpt><trkpt lat="15.237229159925382" lon="120.56743181799152"><ele>106.0</ele><time>2026-03-28T12:47:16Z</time></trkpt><trkpt lat="15.23746984117738" lon="120.5675028526089"><ele>106.5</ele><time>2026-03-28T12:47:17Z</time></trkpt><trkpt lat="15.237705097224337" lon="120.56758397156648"><ele>107.0</ele><time>2026-03-28T12:47:18Z</time></trkpt><trkpt lat="15.237944177704183" lon="120.5676771564552"><ele>107.0</ele><time>2026-03-28T12:47:19Z</time></trkpt><trkpt lat="15.238174195776852" lon="120.5677749648119"><ele>107.0</ele><time>2026-03-28T12:47:20Z</time></trkpt><trkpt lat="15.238399770935253" lon="120.56788247293518"><ele>106.0</ele><time>2026-03-28T12:47:21Z</time></trkpt><trkpt lat="15.238618679117177" lon="120.56799728460508"><ele>105.0</ele><time>2026-03-28T12:47:22Z</time></trkpt><trkpt lat="15.23882923937512" lon="120.56810731469821"><ele>106.0</ele><time>2026-03-28T12:47:23Z</time></trkpt><trkpt lat="15.239038163895607" lon="120.56823089771297"><ele>107.0</ele><time>2026-03-28T12:47:24Z</time></trkpt><trkpt lat="15.239254013040648" lon="120.56836771203852"><ele>107.0</ele><time>2026-03-28T12:47:25Z</time></trkpt><trkpt lat="15.23945916747795" lon="120.56850829547288"><ele>107.0</ele><time>2026-03-28T12:47:26Z</time></trkpt><trkpt lat="15.239662670104936" lon="120.56866578208778"><ele>104.5</ele><time>2026-03-28T12:47:27Z</time></trkpt><trkpt lat="15.2398540874619" lon="120.56882513846692"><ele>102.0</ele><time>2026-03-28T12:47:28Z</time></trkpt><trkpt lat="15.24004226327556" lon="120.56898869315704"><ele>102.0</ele><time>2026-03-28T12:47:29Z</time></trkpt><trkpt lat="15.24022088338574" lon="120.56915037478706"><ele>102.0</ele><time>2026-03-28T12:47:30Z</time></trkpt><trkpt lat="15.240398289958742" lon="120.56931633136128"><ele>102.0</ele><time>2026-03-28T12:47:31Z</time></trkpt><trkpt lat="15.240575077973482" lon="120.56950035659528"><ele>102.0</ele><time>2026-03-28T12:47:32Z</time></trkpt><trkpt lat="15.240748756487017" lon="120.5696891669593"><ele>101.5</ele><time>2026-03-28T12:47:33Z</time></trkpt><trkpt lat="15.240908062563994" lon="120.56988029098281"><ele>101.0</ele><time>2026-03-28T12:47:34Z</time></trkpt><trkpt lat="15.241063125236343" lon="120.57007775367383"><ele>101.0</ele><time>2026-03-28T12:47:35Z</time></trkpt><trkpt lat="15.241212477547661" lon="120.57028822361625"><ele>101.0</ele><time>2026-03-28T12:47:36Z</time></trkpt><trkpt lat="15.241352939200047" lon="120.57049270933251"><ele>101.0</ele><time>2026-03-28T12:47:37Z</time></trkpt><trkpt lat="15.241487489466087" lon="120.57070669541152"><ele>101.0</ele><time>2026-03-28T12:47:38Z</time></trkpt><trkpt lat="15.241618274013216" lon="120.57093288430954"><ele>101.0</ele><time>2026-03-28T12:47:39Z</time></trkpt><trkpt lat="15.241742538117043" lon="120.57116213986947"><ele>101.0</ele><time>2026-03-28T12:47:40Z</time></trkpt><trkpt lat="15.241855623732185" lon="120.57139980474776"><ele>99.5</ele><time>2026-03-28T12:47:41Z</time></trkpt><trkpt lat="15.241967064545888" lon="120.57164717222012"><ele>98.0</ele><time>2026-03-28T12:47:42Z</time></trkpt><trkpt lat="15.242071684253395" lon="120.57189599342831"><ele>97.5</ele><time>2026-03-28T12:47:43Z</time></trkpt><trkpt lat="15.242171226692257" lon="120.57214810404693"><ele>97.0</ele><time>2026-03-28T12:47:44Z</time></trkpt><trkpt lat="15.242269352811535" lon="120.57240093603569"><ele>98.0</ele><time>2026-03-28T12:47:45Z</time></trkpt><trkpt lat="15.242360893913487" lon="120.57266195728569"><ele>99.0</ele><time>2026-03-28T12:47:46Z</time></trkpt><trkpt lat="15.242454204201593" lon="120.5729182289647"><ele>99.0</ele><time>2026-03-28T12:47:47Z</time></trkpt><trkpt lat="15.242548403536524" lon="120.57317962614847"><ele>99.0</ele><time>2026-03-28T12:47:48Z</time></trkpt><trkpt lat="15.242641876613193" lon="120.57343904028994"><ele>97.5</ele><time>2026-03-28T12:47:49Z</time></trkpt><trkpt lat="15.242735129669299" lon="120.57370116526843"><ele>96.0</ele><time>2026-03-28T12:47:50Z</time></trkpt><trkpt lat="15.242831678243654" lon="120.57396443219825"><ele>96.0</ele><time>2026-03-28T12:47:51Z</time></trkpt><trkpt lat="15.242921385600232" lon="120.57422943226136"><ele>96.0</ele><time>2026-03-28T12:47:52Z</time></trkpt><trkpt lat="15.243016654062394" lon="120.57449682909022"><ele>95.5</ele><time>2026-03-28T12:47:53Z</time></trkpt><trkpt lat="15.243113850231437" lon="120.57476175334051"><ele>95.0</ele><time>2026-03-28T12:47:54Z</time></trkpt><trkpt lat="15.243210262319932" lon="120.57502471885533"><ele>95.0</ele><time>2026-03-28T12:47:55Z</time></trkpt><trkpt lat="15.243306180595393" lon="120.57529327524884"><ele>95.0</ele><time>2026-03-28T12:47:56Z</time></trkpt><trkpt lat="15.243404223785321" lon="120.57555703329496"><ele>93.0</ele><time>2026-03-28T12:47:57Z</time></trkpt><trkpt lat="15.243503796441702" lon="120.57583049764575"><ele>91.0</ele><time>2026-03-28T12:47:58Z</time></trkpt><trkpt lat="15.243599494271429" lon="120.57609794241075"><ele>90.0</ele><time>2026-03-28T12:47:59Z</time></trkpt><trkpt lat="15.243694412166212" lon="120.57637242298297"><ele>89.0</ele><time>2026-03-28T12:48:00Z</time></trkpt><trkpt lat="15.243793835758728" lon="120.57663746928117"><ele>89.0</ele><time>2026-03-28T12:48:01Z</time></trkpt><trkpt lat="15.243892829377302" lon="120.57691377283852"><ele>89.0</ele><time>2026-03-28T12:48:02Z</time></trkpt><trkpt lat="15.243989277606707" lon="120.57718625942634"><ele>88.5</ele><time>2026-03-28T12:48:03Z</time></trkpt><trkpt lat="15.244087803317925" lon="120.57745717888676"><ele>88.0</ele><time>2026-03-28T12:48:04Z</time></trkpt><trkpt lat="15.244184984843976" lon="120.57772570838837"><ele>88.0</ele><time>2026-03-28T12:48:05Z</time></trkpt><trkpt lat="15.24428472155064" lon="120.57799718882193"><ele>88.0</ele><time>2026-03-28T12:48:06Z</time></trkpt><trkpt lat="15.244375175244747" lon="120.57826060097833"><ele>88.0</ele><time>2026-03-28T12:48:07Z</time></trkpt><trkpt lat="15.244472056798891" lon="120.57851901083379"><ele>88.0</ele><time>2026-03-28T12:48:08Z</time></trkpt><trkpt lat="15.244569675697665" lon="120.57877452184299"><ele>88.0</ele><time>2026-03-28T12:48:09Z</time></trkpt><trkpt lat="15.244664390014625" lon="120.57902874168131"><ele>88.0</ele><time>2026-03-28T12:48:10Z</time></trkpt><trkpt lat="15.244755400171714" lon="120.57928107670504"><ele>87.5</ele><time>2026-03-28T12:48:11Z</time></trkpt><trkpt lat="15.244847255875897" lon="120.57953119953078"><ele>87.0</ele><time>2026-03-28T12:48:12Z</time></trkpt><trkpt lat="15.24493514836333" lon="120.57978763926819"><ele>87.0</ele><time>2026-03-28T12:48:13Z</time></trkpt><trkpt lat="15.245026725086165" lon="120.58002968268957"><ele>87.0</ele><time>2026-03-28T12:48:14Z</time></trkpt><trkpt lat="15.245116612657384" lon="120.58028006778623"><ele>86.5</ele><time>2026-03-28T12:48:15Z</time></trkpt><trkpt lat="15.24521285184577" lon="120.58052931421243"><ele>86.0</ele><time>2026-03-28T12:48:16Z</time></trkpt><trkpt lat="15.245302886578534" lon="120.58078478101277"><ele>86.0</ele><time>2026-03-28T12:48:17Z</time></trkpt><trkpt lat="15.245399735181477" lon="120.58104823695344"><ele>86.0</ele><time>2026-03-28T12:48:18Z</time></trkpt><trkpt lat="15.245493180055494" lon="120.58130844772901"><ele>86.0</ele><time>2026-03-28T12:48:19Z</time></trkpt><trkpt lat="15.245585920060977" lon="120.58156732475857"><ele>86.0</ele><time>2026-03-28T12:48:20Z</time></trkpt><trkpt lat="15.245682123524047" lon="120.58183524833976"><ele>84.5</ele><time>2026-03-28T12:48:21Z</time></trkpt><trkpt lat="15.245777284874999" lon="120.58209317896983"><ele>83.0</ele><time>2026-03-28T12:48:22Z</time></trkpt><trkpt lat="15.245870917353168" lon="120.58235163528815"><ele>83.0</ele><time>2026-03-28T12:48:23Z</time></trkpt><trkpt lat="15.245965212768553" lon="120.58261463489768"><ele>83.0</ele><time>2026-03-28T12:48:24Z</time></trkpt><trkpt lat="15.246057080444695" lon="120.58288936625647"><ele>83.0</ele><time>2026-03-28T12:48:25Z</time></trkpt><trkpt lat="15.246147220366181" lon="120.58314829687566"><ele>83.0</ele><time>2026-03-28T12:48:26Z</time></trkpt><trkpt lat="15.246242725813799" lon="120.58342008881922"><ele>83.5</ele><time>2026-03-28T12:48:27Z</time></trkpt><trkpt lat="15.246341708106742" lon="120.58369020701723"><ele>84.0</ele><time>2026-03-28T12:48:28Z</time></trkpt><trkpt lat="15.246440202463363" lon="120.5839550020082"><ele>83.0</ele><time>2026-03-28T12:48:29Z</time></trkpt><trkpt lat="15.246540335165598" lon="120.58421797937221"><ele>82.0</ele><time>2026-03-28T12:48:30Z</time></trkpt><trkpt lat="15.246642360945364" lon="120.58447414965266"><ele>82.5</ele><time>2026-03-28T12:48:31Z</time></trkpt><trkpt lat="15.24675129005962" lon="120.58473019728225"><ele>83.0</ele><time>2026-03-28T12:48:32Z</time></trkpt><trkpt lat="15.24686536309469" lon="120.5849846167401"><ele>83.0</ele><time>2026-03-28T12:48:33Z</time></trkpt><trkpt lat="15.246981520719102" lon="120.58522696286205"><ele>83.0</ele><time>2026-03-28T12:48:34Z</time></trkpt><trkpt lat="15.24710486820192" lon="120.58547200879053"><ele>83.0</ele><time>2026-03-28T12:48:35Z</time></trkpt><trkpt lat="15.247234050743314" lon="120.58572147495954"><ele>83.0</ele><time>2026-03-28T12:48:36Z</time></trkpt><trkpt lat="15.247371588833834" lon="120.5859637486895"><ele>83.0</ele><time>2026-03-28T12:48:37Z</time></trkpt><trkpt lat="15.247504780765324" lon="120.58619829842453"><ele>83.0</ele><time>2026-03-28T12:48:38Z</time></trkpt><trkpt lat="15.247652927316574" lon="120.5864476285579"><ele>83.0</ele><time>2026-03-28T12:48:39Z</time></trkpt><trkpt lat="15.247801706480152" lon="120.58667968775111"><ele>83.0</ele><time>2026-03-28T12:48:40Z</time></trkpt><trkpt lat="15.24795332887852" lon="120.58688915184202"><ele>82.5</ele><time>2026-03-28T12:48:41Z</time></trkpt><trkpt lat="15.248107143943038" lon="120.58710885469513"><ele>82.0</ele><time>2026-03-28T12:48:42Z</time></trkpt><trkpt lat="15.248263212437857" lon="120.58730994608571"><ele>81.5</ele><time>2026-03-28T12:48:43Z</time></trkpt><trkpt lat="15.248418139699558" lon="120.587501719903"><ele>81.0</ele><time>2026-03-28T12:48:44Z</time></trkpt><trkpt lat="15.248577302348629" lon="120.58769450620404"><ele>81.0</ele><time>2026-03-28T12:48:45Z</time></trkpt><trkpt lat="15.248741727341292" lon="120.58787978340969"><ele>81.0</ele><time>2026-03-28T12:48:46Z</time></trkpt><trkpt lat="15.248903438631247" lon="120.58805800068701"><ele>80.5</ele><time>2026-03-28T12:48:47Z</time></trkpt><trkpt lat="15.249064004206309" lon="120.58823107344172"><ele>80.0</ele><time>2026-03-28T12:48:48Z</time></trkpt><trkpt lat="15.249224210255907" lon="120.5883980835216"><ele>80.0</ele><time>2026-03-28T12:48:49Z</time></trkpt><trkpt lat="15.249390027253229" lon="120.58857188041776"><ele>80.0</ele><time>2026-03-28T12:48:50Z</time></trkpt><trkpt lat="15.24955931047447" lon="120.58873533492705"><ele>80.0</ele><time>2026-03-28T12:48:51Z</time></trkpt><trkpt lat="15.249741351657894" lon="120.58890068752108"><ele>80.0</ele><time>2026-03-28T12:48:52Z</time></trkpt><trkpt lat="15.249921306466184" lon="120.5890596411604"><ele>81.0</ele><time>2026-03-28T12:48:53Z</time></trkpt><trkpt lat="15.250118634693836" lon="120.5892183581061"><ele>82.0</ele><time>2026-03-28T12:48:54Z</time></trkpt><trkpt lat="15.25032018495791" lon="120.58937178546415"><ele>82.0</ele><time>2026-03-28T12:48:55Z</time></trkpt><trkpt lat="15.250534554243165" lon="120.5895233836021"><ele>82.0</ele><time>2026-03-28T12:48:56Z</time></trkpt><trkpt lat="15.25075153531604" lon="120.58967051863328"><ele>82.0</ele><time>2026-03-28T12:48:57Z</time></trkpt><trkpt lat="15.250978635871675" lon="120.58981419818487"><ele>82.0</ele><time>2026-03-28T12:48:58Z</time></trkpt><trkpt lat="15.251204005768777" lon="120.58994818762851"><ele>82.0</ele><time>2026-03-28T12:48:59Z</time></trkpt><trkpt lat="15.251433584781548" lon="120.59008378148458"><ele>82.0</ele><time>2026-03-28T12:49:00Z</time></trkpt><trkpt lat="15.251665190270566" lon="120.59021045625761"><ele>81.5</ele><time>2026-03-28T12:49:01Z</time></trkpt><trkpt lat="15.251895165249925" lon="120.59033302080755"><ele>81.0</ele><time>2026-03-28T12:49:02Z</time></trkpt><trkpt lat="15.25212585245618" lon="120.5904507342148"><ele>81.0</ele><time>2026-03-28T12:49:03Z</time></trkpt><trkpt lat="15.252353844274026" lon="120.59056237430059"><ele>81.0</ele><time>2026-03-28T12:49:04Z</time></trkpt><trkpt lat="15.252582772862768" lon="120.59067124396202"><ele>81.0</ele><time>2026-03-28T12:49:05Z</time></trkpt><trkpt lat="15.252808293191402" lon="120.5907771051376"><ele>81.0</ele><time>2026-03-28T12:49:06Z</time></trkpt><trkpt lat="15.253025151050297" lon="120.5908723893296"><ele>80.0</ele><time>2026-03-28T12:49:07Z</time></trkpt><trkpt lat="15.253246199070896" lon="120.59097445548385"><ele>79.0</ele><time>2026-03-28T12:49:08Z</time></trkpt><trkpt lat="15.253461413788658" lon="120.59106911564315"><ele>79.0</ele><time>2026-03-28T12:49:09Z</time></trkpt><trkpt lat="15.253676879520613" lon="120.59116635884456"><ele>79.0</ele><time>2026-03-28T12:49:10Z</time></trkpt><trkpt lat="15.253887135078788" lon="120.5912600609255"><ele>79.0</ele><time>2026-03-28T12:49:11Z</time></trkpt><trkpt lat="15.254090248936924" lon="120.59134882820284"><ele>79.0</ele><time>2026-03-28T12:49:12Z</time></trkpt><trkpt lat="15.25428103147259" lon="120.59142963812634"><ele>79.0</ele><time>2026-03-28T12:49:13Z</time></trkpt><trkpt lat="15.254477978056164" lon="120.59151724555778"><ele>79.0</ele><time>2026-03-28T12:49:14Z</time></trkpt><trkpt lat="15.254678493519473" lon="120.59160159611618"><ele>79.0</ele><time>2026-03-28T12:49:15Z</time></trkpt><trkpt lat="15.254862683147495" lon="120.59168720816358"><ele>79.0</ele><time>2026-03-28T12:49:16Z</time></trkpt><trkpt lat="15.255048727419004" lon="120.59177153329479"><ele>79.0</ele><time>2026-03-28T12:49:17Z</time></trkpt><trkpt lat="15.25524351160175" lon="120.59185518831505"><ele>79.0</ele><time>2026-03-28T12:49:18Z</time></trkpt><trkpt lat="15.255434573579082" lon="120.59194539186885"><ele>79.0</ele><time>2026-03-28T12:49:19Z</time></trkpt><trkpt lat="15.25563200655097" lon="120.59203600984894"><ele>79.0</ele><time>2026-03-28T12:49:20Z</time></trkpt><trkpt lat="15.255831447587981" lon="120.59213499168862"><ele>79.0</ele><time>2026-03-28T12:49:21Z</time></trkpt><trkpt lat="15.256038827615807" lon="120.5922347106559"><ele>79.0</ele><time>2026-03-28T12:49:22Z</time></trkpt><trkpt lat="15.256251740571058" lon="120.59233626054935"><ele>79.0</ele><time>2026-03-28T12:49:23Z</time></trkpt><trkpt lat="15.256465914928778" lon="120.59243212492983"><ele>78.5</ele><time>2026-03-28T12:49:24Z</time></trkpt><trkpt lat="15.256693861750266" lon="120.59254034314397"><ele>78.0</ele><time>2026-03-28T12:49:25Z</time></trkpt><trkpt lat="15.256914553028754" lon="120.59263858485419"><ele>78.0</ele><time>2026-03-28T12:49:26Z</time></trkpt><trkpt lat="15.257148950113917" lon="120.59274046133949"><ele>78.0</ele><time>2026-03-28T12:49:27Z</time></trkpt><trkpt lat="15.257388094533246" lon="120.5928509898434"><ele>79.0</ele><time>2026-03-28T12:49:28Z</time></trkpt><trkpt lat="15.257629034926326" lon="120.5929577676119"><ele>80.0</ele><time>2026-03-28T12:49:29Z</time></trkpt><trkpt lat="15.257875598033918" lon="120.59306734412601"><ele>79.5</ele><time>2026-03-28T12:49:30Z</time></trkpt><trkpt lat="15.258124400723343" lon="120.5931720086533"><ele>79.0</ele><time>2026-03-28T12:49:31Z</time></trkpt><trkpt lat="15.258373540759488" lon="120.59327959634845"><ele>79.0</ele><time>2026-03-28T12:49:32Z</time></trkpt><trkpt lat="15.258629841329698" lon="120.59339887097482"><ele>79.0</ele><time>2026-03-28T12:49:33Z</time></trkpt><trkpt lat="15.258874975580687" lon="120.59350520402425"><ele>79.5</ele><time>2026-03-28T12:49:34Z</time></trkpt><trkpt lat="15.259132566692502" lon="120.5936191608271"><ele>80.0</ele><time>2026-03-28T12:49:35Z</time></trkpt><trkpt lat="15.259387951906685" lon="120.59373774480375"><ele>79.0</ele><time>2026-03-28T12:49:36Z</time></trkpt><trkpt lat="15.259645180725835" lon="120.59384797578004"><ele>78.0</ele><time>2026-03-28T12:49:37Z</time></trkpt><trkpt lat="15.259900819175433" lon="120.59396341079956"><ele>77.5</ele><time>2026-03-28T12:49:38Z</time></trkpt><trkpt lat="15.260157516691867" lon="120.59407536448043"><ele>77.0</ele><time>2026-03-28T12:49:39Z</time></trkpt><trkpt lat="15.260416971936408" lon="120.59419808547419"><ele>77.0</ele><time>2026-03-28T12:49:40Z</time></trkpt><trkpt lat="15.260666574982395" lon="120.59430955909397"><ele>77.0</ele><time>2026-03-28T12:49:41Z</time></trkpt><trkpt lat="15.260918404549141" lon="120.59441425176072"><ele>77.5</ele><time>2026-03-28T12:49:42Z</time></trkpt><trkpt lat="15.261172135158109" lon="120.59452475640857"><ele>78.0</ele><time>2026-03-28T12:49:43Z</time></trkpt><trkpt lat="15.261435589208595" lon="120.59464204349611"><ele>76.0</ele><time>2026-03-28T12:49:44Z</time></trkpt><trkpt lat="15.261699221799873" lon="120.59475695128098"><ele>74.0</ele><time>2026-03-28T12:49:45Z</time></trkpt><trkpt lat="15.261959878761575" lon="120.5948684629682"><ele>74.0</ele><time>2026-03-28T12:49:46Z</time></trkpt><trkpt lat="15.262224877839085" lon="120.5949853309555"><ele>74.0</ele><time>2026-03-28T12:49:47Z</time></trkpt><trkpt lat="15.262484546077097" lon="120.59509416462531"><ele>75.0</ele><time>2026-03-28T12:49:48Z</time></trkpt><trkpt lat="15.262742499527503" lon="120.59520619694726"><ele>76.0</ele><time>2026-03-28T12:49:49Z</time></trkpt><trkpt lat="15.262996802712204" lon="120.59531702308786"><ele>76.0</ele><time>2026-03-28T12:49:50Z</time></trkpt><trkpt lat="15.26325360748941" lon="120.59543352412204"><ele>76.0</ele><time>2026-03-28T12:49:51Z</time></trkpt><trkpt lat="15.263515448085231" lon="120.59554691078318"><ele>76.0</ele><time>2026-03-28T12:49:52Z</time></trkpt><trkpt lat="15.263775357535117" lon="120.59566068152488"><ele>76.0</ele><time>2026-03-28T12:49:53Z</time></trkpt><trkpt lat="15.264033694955366" lon="120.59577380455505"><ele>77.5</ele><time>2026-03-28T12:49:54Z</time></trkpt><trkpt lat="15.264287782903065" lon="120.5958838057726"><ele>79.0</ele><time>2026-03-28T12:49:55Z</time></trkpt><trkpt lat="15.264544227103698" lon="120.59599970022472"><ele>76.5</ele><time>2026-03-28T12:49:56Z</time></trkpt><trkpt lat="15.264795729332077" lon="120.59611453630282"><ele>74.0</ele><time>2026-03-28T12:49:57Z</time></trkpt><trkpt lat="15.265052174190176" lon="120.59622860882541"><ele>73.0</ele><time>2026-03-28T12:49:58Z</time></trkpt><trkpt lat="15.265309947964642" lon="120.5963430949254"><ele>72.0</ele><time>2026-03-28T12:49:59Z</time></trkpt><trkpt lat="15.26556729454431" lon="120.59645533287839"><ele>73.5</ele><time>2026-03-28T12:50:00Z</time></trkpt><trkpt lat="15.265827082808952" lon="120.5965732302078"><ele>75.0</ele><time>2026-03-28T12:50:01Z</time></trkpt><trkpt lat="15.26608387769682" lon="120.5966874673386"><ele>75.0</ele><time>2026-03-28T12:50:02Z</time></trkpt><trkpt lat="15.26634123693826" lon="120.59679977270278"><ele>75.0</ele><time>2026-03-28T12:50:03Z</time></trkpt><trkpt lat="15.266597893377938" lon="120.59691668839879"><ele>74.5</ele><time>2026-03-28T12:50:04Z</time></trkpt><trkpt lat="15.26685396860533" lon="120.59702592326383"><ele>74.0</ele><time>2026-03-28T12:50:05Z</time></trkpt><trkpt lat="15.267115993705698" lon="120.5971350729359"><ele>73.0</ele><time>2026-03-28T12:50:06Z</time></trkpt><trkpt lat="15.267376799935768" lon="120.59725052501464"><ele>72.0</ele><time>2026-03-28T12:50:07Z</time></trkpt><trkpt lat="15.267625838392165" lon="120.59735498403673"><ele>72.0</ele><time>2026-03-28T12:50:08Z</time></trkpt><trkpt lat="15.267877881375899" lon="120.59746770020593"><ele>72.0</ele><time>2026-03-28T12:50:09Z</time></trkpt><trkpt lat="15.268128308611308" lon="120.59757883433946"><ele>73.0</ele><time>2026-03-28T12:50:10Z</time></trkpt><trkpt lat="15.268383149610294" lon="120.59769885937057"><ele>74.0</ele><time>2026-03-28T12:50:11Z</time></trkpt><trkpt lat="15.268625802383449" lon="120.59780546911375"><ele>73.5</ele><time>2026-03-28T12:50:12Z</time></trkpt><trkpt lat="15.268870334360713" lon="120.59791567543567"><ele>73.0</ele><time>2026-03-28T12:50:13Z</time></trkpt><trkpt lat="15.269110631464184" lon="120.5980234169327"><ele>72.0</ele><time>2026-03-28T12:50:14Z</time></trkpt><trkpt lat="15.269348492950355" lon="120.5981318105602"><ele>71.0</ele><time>2026-03-28T12:50:15Z</time></trkpt><trkpt lat="15.269579574639714" lon="120.5982289327279"><ele>70.5</ele><time>2026-03-28T12:50:16Z</time></trkpt><trkpt lat="15.269816911197218" lon="120.59833358005021"><ele>70.0</ele><time>2026-03-28T12:50:17Z</time></trkpt><trkpt lat="15.27005281724001" lon="120.598440618789"><ele>70.0</ele><time>2026-03-28T12:50:18Z</time></trkpt><trkpt lat="15.270287715825669" lon="120.5985443503431"><ele>70.0</ele><time>2026-03-28T12:50:19Z</time></trkpt><trkpt lat="15.270521255529673" lon="120.5986454376322"><ele>69.0</ele><time>2026-03-28T12:50:20Z</time></trkpt><trkpt lat="15.270749138738797" lon="120.59874152320218"><ele>68.0</ele><time>2026-03-28T12:50:21Z</time></trkpt><trkpt lat="15.270967484818144" lon="120.59882491235271"><ele>68.0</ele><time>2026-03-28T12:50:22Z</time></trkpt><trkpt lat="15.271189597370801" lon="120.59892690750567"><ele>68.0</ele><time>2026-03-28T12:50:23Z</time></trkpt><trkpt lat="15.271395518470843" lon="120.59901806789524"><ele>67.5</ele><time>2026-03-28T12:50:24Z</time></trkpt><trkpt lat="15.271621873818372" lon="120.59911320954765"><ele>67.0</ele><time>2026-03-28T12:50:25Z</time></trkpt><trkpt lat="15.271832355474519" lon="120.59920750169947"><ele>67.0</ele><time>2026-03-28T12:50:26Z</time></trkpt><trkpt lat="15.272062200296645" lon="120.59931141160382"><ele>67.0</ele><time>2026-03-28T12:50:27Z</time></trkpt><trkpt lat="15.272265107369916" lon="120.59940103824637"><ele>67.0</ele><time>2026-03-28T12:50:28Z</time></trkpt><trkpt lat="15.272469340413465" lon="120.5994964810148"><ele>67.0</ele><time>2026-03-28T12:50:29Z</time></trkpt><trkpt lat="15.272690816004879" lon="120.59960963225512"><ele>67.0</ele><time>2026-03-28T12:50:30Z</time></trkpt><trkpt lat="15.27288911176063" lon="120.59969266432068"><ele>67.0</ele><time>2026-03-28T12:50:31Z</time></trkpt><trkpt lat="15.273097654010076" lon="120.59979028729036"><ele>67.0</ele><time>2026-03-28T12:50:32Z</time></trkpt><trkpt lat="15.273302672887656" lon="120.59988294219156"><ele>67.0</ele><time>2026-03-28T12:50:33Z</time></trkpt><trkpt lat="15.273502914849475" lon="120.599972241871"><ele>67.0</ele><time>2026-03-28T12:50:34Z</time></trkpt><trkpt lat="15.27370391848008" lon="120.60005644805598"><ele>67.0</ele><time>2026-03-28T12:50:35Z</time></trkpt><trkpt lat="15.273906109310047" lon="120.60014686983283"><ele>66.66666666666666</ele><time>2026-03-28T12:50:36Z</time></trkpt><trkpt lat="15.274092795511665" lon="120.60023084909008"><ele>66.33333333333333</ele><time>2026-03-28T12:50:37Z</time></trkpt><trkpt lat="15.274286155478192" lon="120.60031298476748"><ele>66.0</ele><time>2026-03-28T12:50:38Z</time></trkpt><trkpt lat="15.274491137067088" lon="120.60040139189223"><ele>66.0</ele><time>2026-03-28T12:50:39Z</time></trkpt><trkpt lat="15.274699646157053" lon="120.60049820267155"><ele>66.0</ele><time>2026-03-28T12:50:40Z</time></trkpt><trkpt lat="15.274906622077417" lon="120.60059073951743"><ele>65.66666666666667</ele><time>2026-03-28T12:50:41Z</time></trkpt><trkpt lat="15.275115527546557" lon="120.60068556180266"><ele>65.33333333333334</ele><time>2026-03-28T12:50:42Z</time></trkpt><trkpt lat="15.275314719379093" lon="120.60076603090894"><ele>65.0</ele><time>2026-03-28T12:50:43Z</time></trkpt><trkpt lat="15.275524033833" lon="120.60085781187091"><ele>65.0</ele><time>2026-03-28T12:50:44Z</time></trkpt><trkpt lat="15.275727889888636" lon="120.60095164003698"><ele>65.0</ele><time>2026-03-28T12:50:45Z</time></trkpt><trkpt lat="15.275930164009893" lon="120.60103638844745"><ele>65.0</ele><time>2026-03-28T12:50:46Z</time></trkpt><trkpt lat="15.276129427528446" lon="120.60112246523539"><ele>65.0</ele><time>2026-03-28T12:50:47Z</time></trkpt><trkpt lat="15.276333900585783" lon="120.60121223614343"><ele>65.0</ele><time>2026-03-28T12:50:48Z</time></trkpt><trkpt lat="15.276531061442457" lon="120.60129498735502"><ele>65.0</ele><time>2026-03-28T12:50:49Z</time></trkpt><trkpt lat="15.276739911349354" lon="120.60138570219671"><ele>64.33333333333334</ele><time>2026-03-28T12:50:50Z</time></trkpt><trkpt lat="15.276943800846162" lon="120.6014775110533"><ele>63.66666666666667</ele><time>2026-03-28T12:50:51Z</time></trkpt><trkpt lat="15.277144448467954" lon="120.60156648109316"><ele>63.0</ele><time>2026-03-28T12:50:52Z</time></trkpt><trkpt lat="15.27734739076651" lon="120.60166346303835"><ele>62.33333333333333</ele><time>2026-03-28T12:50:53Z</time></trkpt><trkpt lat="15.277535850610752" lon="120.6017447252406"><ele>61.666666666666664</ele><time>2026-03-28T12:50:54Z</time></trkpt><trkpt lat="15.277735775172943" lon="120.6018348006762"><ele>61.0</ele><time>2026-03-28T12:50:55Z</time></trkpt><trkpt lat="15.277933324521792" lon="120.6019213225045"><ele>61.33333333333333</ele><time>2026-03-28T12:50:56Z</time></trkpt><trkpt lat="15.278125491963596" lon="120.6020077744811"><ele>61.66666666666667</ele><time>2026-03-28T12:50:57Z</time></trkpt><trkpt lat="15.278312049966846" lon="120.60208837634946"><ele>62.0</ele><time>2026-03-28T12:50:58Z</time></trkpt><trkpt lat="15.278504152826459" lon="120.60217162316785"><ele>62.0</ele><time>2026-03-28T12:50:59Z</time></trkpt><trkpt lat="15.278703383464974" lon="120.60225779623033"><ele>62.0</ele><time>2026-03-28T12:51:00Z</time></trkpt><trkpt lat="15.278899901409945" lon="120.6023476848658"><ele>62.0</ele><time>2026-03-28T12:51:01Z</time></trkpt><trkpt lat="15.279095581179309" lon="120.60243113152818"><ele>62.0</ele><time>2026-03-28T12:51:02Z</time></trkpt><trkpt lat="15.279295342924167" lon="120.60251917610898"><ele>62.0</ele><time>2026-03-28T12:51:03Z</time></trkpt><trkpt lat="15.27949653615318" lon="120.60260822619414"><ele>62.0</ele><time>2026-03-28T12:51:04Z</time></trkpt><trkpt lat="15.279704461558731" lon="120.60270059700464"><ele>62.0</ele><time>2026-03-28T12:51:05Z</time></trkpt><trkpt lat="15.279906259298707" lon="120.6027896023096"><ele>62.0</ele><time>2026-03-28T12:51:06Z</time></trkpt><trkpt lat="15.280106163998429" lon="120.60287620132362"><ele>62.0</ele><time>2026-03-28T12:51:07Z</time></trkpt><trkpt lat="15.280314572279575" lon="120.60296942810778"><ele>62.0</ele><time>2026-03-28T12:51:08Z</time></trkpt><trkpt lat="15.280516367138915" lon="120.60305553805257"><ele>62.0</ele><time>2026-03-28T12:51:09Z</time></trkpt><trkpt lat="15.280723816359526" lon="120.6031449459633"><ele>62.0</ele><time>2026-03-28T12:51:10Z</time></trkpt><trkpt lat="15.280930704846146" lon="120.60323051398304"><ele>62.0</ele><time>2026-03-28T12:51:11Z</time></trkpt><trkpt lat="15.281141585122455" lon="120.60332166353297"><ele>62.0</ele><time>2026-03-28T12:51:12Z</time></trkpt><trkpt lat="15.281347763934207" lon="120.6034134078118"><ele>61.0</ele><time>2026-03-28T12:51:13Z</time></trkpt><trkpt lat="15.281557877292352" lon="120.60351096255474"><ele>60.0</ele><time>2026-03-28T12:51:14Z</time></trkpt><trkpt lat="15.281769389824246" lon="120.60360471391273"><ele>60.0</ele><time>2026-03-28T12:51:15Z</time></trkpt><trkpt lat="15.281979110757643" lon="120.60369543843593"><ele>60.0</ele><time>2026-03-28T12:51:16Z</time></trkpt><trkpt lat="15.28218328526226" lon="120.60377797329973"><ele>60.0</ele><time>2026-03-28T12:51:17Z</time></trkpt><trkpt lat="15.282399365536005" lon="120.60387433396738"><ele>60.0</ele><time>2026-03-28T12:51:18Z</time></trkpt><trkpt lat="15.28262233550469" lon="120.60397698535353"><ele>60.0</ele><time>2026-03-28T12:51:19Z</time></trkpt><trkpt lat="15.282843944438202" lon="120.60408031856541"><ele>60.0</ele><time>2026-03-28T12:51:20Z</time></trkpt><trkpt lat="15.283065854106502" lon="120.6041802368978"><ele>60.0</ele><time>2026-03-28T12:51:21Z</time></trkpt><trkpt lat="15.28328777392169" lon="120.60428373207094"><ele>60.0</ele><time>2026-03-28T12:51:22Z</time></trkpt><trkpt lat="15.283506260548293" lon="120.6043808890578"><ele>60.0</ele><time>2026-03-28T12:51:23Z</time></trkpt><trkpt lat="15.283729995822513" lon="120.60447707123257"><ele>59.5</ele><time>2026-03-28T12:51:24Z</time></trkpt><trkpt lat="15.283947802690541" lon="120.60456687308157"><ele>59.0</ele><time>2026-03-28T12:51:25Z</time></trkpt><trkpt lat="15.284176689506577" lon="120.60466883475657"><ele>59.0</ele><time>2026-03-28T12:51:26Z</time></trkpt><trkpt lat="15.28440433114914" lon="120.60477022060995"><ele>59.0</ele><time>2026-03-28T12:51:27Z</time></trkpt><trkpt lat="15.284626503978995" lon="120.60486875024131"><ele>58.0</ele><time>2026-03-28T12:51:28Z</time></trkpt><trkpt lat="15.28485098935279" lon="120.6049698148224"><ele>57.0</ele><time>2026-03-28T12:51:29Z</time></trkpt><trkpt lat="15.285073203233903" lon="120.6050821516839"><ele>57.0</ele><time>2026-03-28T12:51:30Z</time></trkpt><trkpt lat="15.285296450308346" lon="120.605186693945"><ele>57.0</ele><time>2026-03-28T12:51:31Z</time></trkpt><trkpt lat="15.285517008307968" lon="120.60528855026415"><ele>57.5</ele><time>2026-03-28T12:51:32Z</time></trkpt><trkpt lat="15.285739254205138" lon="120.60539727897901"><ele>58.0</ele><time>2026-03-28T12:51:33Z</time></trkpt><trkpt lat="15.28596531305982" lon="120.60550913273497"><ele>58.0</ele><time>2026-03-28T12:51:34Z</time></trkpt><trkpt lat="15.286195901069645" lon="120.605622923282"><ele>58.0</ele><time>2026-03-28T12:51:35Z</time></trkpt><trkpt lat="15.286422192502656" lon="120.60573759392369"><ele>57.5</ele><time>2026-03-28T12:51:36Z</time></trkpt><trkpt lat="15.286652480765756" lon="120.60585191536194"><ele>57.0</ele><time>2026-03-28T12:51:37Z</time></trkpt><trkpt lat="15.286877755549819" lon="120.6059587606317"><ele>57.0</ele><time>2026-03-28T12:51:38Z</time></trkpt><trkpt lat="15.287103992421105" lon="120.60606664794483"><ele>57.0</ele><time>2026-03-28T12:51:39Z</time></trkpt><trkpt lat="15.287331214939767" lon="120.60617965906755"><ele>57.0</ele><time>2026-03-28T12:51:40Z</time></trkpt><trkpt lat="15.28755659736067" lon="120.6062895113825"><ele>57.0</ele><time>2026-03-28T12:51:41Z</time></trkpt><trkpt lat="15.287779186915254" lon="120.60639042880106"><ele>57.0</ele><time>2026-03-28T12:51:42Z</time></trkpt><trkpt lat="15.288012285292105" lon="120.60651008821286"><ele>57.0</ele><time>2026-03-28T12:51:43Z</time></trkpt><trkpt lat="15.288239873680931" lon="120.60662289511346"><ele>57.5</ele><time>2026-03-28T12:51:44Z</time></trkpt><trkpt lat="15.28846349660893" lon="120.60673230227226"><ele>58.0</ele><time>2026-03-28T12:51:45Z</time></trkpt><trkpt lat="15.288689390792703" lon="120.60684488941119"><ele>58.0</ele><time>2026-03-28T12:51:46Z</time></trkpt><trkpt lat="15.288920057204978" lon="120.60696066392488"><ele>58.0</ele><time>2026-03-28T12:51:47Z</time></trkpt><trkpt lat="15.289146474284461" lon="120.60707567039663"><ele>57.5</ele><time>2026-03-28T12:51:48Z</time></trkpt><trkpt lat="15.289371257478187" lon="120.6071887229925"><ele>57.0</ele><time>2026-03-28T12:51:49Z</time></trkpt><trkpt lat="15.289603849208385" lon="120.60730156333287"><ele>56.0</ele><time>2026-03-28T12:51:50Z</time></trkpt><trkpt lat="15.289836430198006" lon="120.60742496805423"><ele>55.0</ele><time>2026-03-28T12:51:51Z</time></trkpt><trkpt lat="15.290061340112736" lon="120.6075400318129"><ele>55.0</ele><time>2026-03-28T12:51:52Z</time></trkpt><trkpt lat="15.290284463658246" lon="120.60765384510619"><ele>55.0</ele><time>2026-03-28T12:51:53Z</time></trkpt><trkpt lat="15.290514734863871" lon="120.60777123287914"><ele>54.0</ele><time>2026-03-28T12:51:54Z</time></trkpt><trkpt lat="15.290743840771455" lon="120.60788671031317"><ele>53.0</ele><time>2026-03-28T12:51:55Z</time></trkpt><trkpt lat="15.290976711284934" lon="120.60800532856125"><ele>53.0</ele><time>2026-03-28T12:51:56Z</time></trkpt><trkpt lat="15.291205774137849" lon="120.60812584405447"><ele>53.0</ele><time>2026-03-28T12:51:57Z</time></trkpt><trkpt lat="15.291435184911448" lon="120.60824292621396"><ele>54.0</ele><time>2026-03-28T12:51:58Z</time></trkpt><trkpt lat="15.291659992852882" lon="120.60835523783948"><ele>55.0</ele><time>2026-03-28T12:51:59Z</time></trkpt><trkpt lat="15.291890763521899" lon="120.60847661609073"><ele>55.0</ele><time>2026-03-28T12:52:00Z</time></trkpt><trkpt lat="15.29211181866462" lon="120.60858558575966"><ele>55.0</ele><time>2026-03-28T12:52:01Z</time></trkpt><trkpt lat="15.292337123313509" lon="120.60870519810011"><ele>54.5</ele><time>2026-03-28T12:52:02Z</time></trkpt><trkpt lat="15.29256616198475" lon="120.60882347865636"><ele>54.0</ele><time>2026-03-28T12:52:03Z</time></trkpt><trkpt lat="15.29279676693317" lon="120.60894483498146"><ele>54.0</ele><time>2026-03-28T12:52:04Z</time></trkpt><trkpt lat="15.293028823179807" lon="120.60906279138659"><ele>54.0</ele><time>2026-03-28T12:52:05Z</time></trkpt><trkpt lat="15.293258413207584" lon="120.60918243337305"><ele>54.0</ele><time>2026-03-28T12:52:06Z</time></trkpt><trkpt lat="15.293485589953" lon="120.60930661067826"><ele>54.0</ele><time>2026-03-28T12:52:07Z</time></trkpt><trkpt lat="15.293713372139626" lon="120.60943023593848"><ele>53.5</ele><time>2026-03-28T12:52:08Z</time></trkpt><trkpt lat="15.293945505632797" lon="120.60956036634516"><ele>53.0</ele><time>2026-03-28T12:52:09Z</time></trkpt><trkpt lat="15.294171045472998" lon="120.60967692623927"><ele>53.0</ele><time>2026-03-28T12:52:10Z</time></trkpt><trkpt lat="15.29440504099493" lon="120.60980572591181"><ele>53.0</ele><time>2026-03-28T12:52:11Z</time></trkpt><trkpt lat="15.294640650551841" lon="120.60993325706342"><ele>53.0</ele><time>2026-03-28T12:52:12Z</time></trkpt><trkpt lat="15.294873033221972" lon="120.61006318845509"><ele>53.0</ele><time>2026-03-28T12:52:13Z</time></trkpt><trkpt lat="15.295109130056323" lon="120.61019282622188"><ele>53.0</ele><time>2026-03-28T12:52:14Z</time></trkpt><trkpt lat="15.295340818433102" lon="120.61032114433415"><ele>53.0</ele><time>2026-03-28T12:52:15Z</time></trkpt><trkpt lat="15.295576688827065" lon="120.6104547325123"><ele>53.5</ele><time>2026-03-28T12:52:16Z</time></trkpt><trkpt lat="15.295810273246227" lon="120.61058392929662"><ele>54.0</ele><time>2026-03-28T12:52:17Z</time></trkpt><trkpt lat="15.296043512854496" lon="120.61071289346198"><ele>54.0</ele><time>2026-03-28T12:52:18Z</time></trkpt><trkpt lat="15.296278549703533" lon="120.61084439195416"><ele>54.0</ele><time>2026-03-28T12:52:19Z</time></trkpt><trkpt lat="15.29651032842788" lon="120.61097240144585"><ele>54.0</ele><time>2026-03-28T12:52:20Z</time></trkpt><trkpt lat="15.296742210596909" lon="120.61110285960933"><ele>54.0</ele><time>2026-03-28T12:52:21Z</time></trkpt><trkpt lat="15.296973565881018" lon="120.61123396803599"><ele>52.5</ele><time>2026-03-28T12:52:22Z</time></trkpt><trkpt lat="15.297204714059255" lon="120.61136745897377"><ele>51.0</ele><time>2026-03-28T12:52:23Z</time></trkpt><trkpt lat="15.29742963077563" lon="120.61149303486323"><ele>51.0</ele><time>2026-03-28T12:52:24Z</time></trkpt><trkpt lat="15.297650467864235" lon="120.61161625828642"><ele>51.0</ele><time>2026-03-28T12:52:25Z</time></trkpt><trkpt lat="15.29786589587216" lon="120.6117358101675"><ele>51.0</ele><time>2026-03-28T12:52:26Z</time></trkpt><trkpt lat="15.298082611012019" lon="120.61185796902427"><ele>51.0</ele><time>2026-03-28T12:52:27Z</time></trkpt><trkpt lat="15.298298628740119" lon="120.61198056112495"><ele>51.0</ele><time>2026-03-28T12:52:28Z</time></trkpt><trkpt lat="15.298514502889992" lon="120.61210584703045"><ele>51.0</ele><time>2026-03-28T12:52:29Z</time></trkpt><trkpt lat="15.298728382633268" lon="120.61223142827728"><ele>50.5</ele><time>2026-03-28T12:52:30Z</time></trkpt><trkpt lat="15.298945606349548" lon="120.61235782387863"><ele>50.0</ele><time>2026-03-28T12:52:31Z</time></trkpt><trkpt lat="15.299163105345745" lon="120.61248417120375"><ele>50.0</ele><time>2026-03-28T12:52:32Z</time></trkpt><trkpt lat="15.29937747414918" lon="120.61260827533462"><ele>50.0</ele><time>2026-03-28T12:52:33Z</time></trkpt><trkpt lat="15.299596304841096" lon="120.61273788227817"><ele>50.5</ele><time>2026-03-28T12:52:34Z</time></trkpt><trkpt lat="15.299809790594848" lon="120.61286066420998"><ele>51.0</ele><time>2026-03-28T12:52:35Z</time></trkpt><trkpt lat="15.300024643884182" lon="120.61298859327832"><ele>51.0</ele><time>2026-03-28T12:52:36Z</time></trkpt><trkpt lat="15.300246173603371" lon="120.6131193621665"><ele>51.0</ele><time>2026-03-28T12:52:37Z</time></trkpt><trkpt lat="15.300465135135425" lon="120.61324481947022"><ele>51.0</ele><time>2026-03-28T12:52:38Z</time></trkpt><trkpt lat="15.300679072619438" lon="120.61337095576215"><ele>51.0</ele><time>2026-03-28T12:52:39Z</time></trkpt><trkpt lat="15.300899658444315" lon="120.6135013173903"><ele>51.0</ele><time>2026-03-28T12:52:40Z</time></trkpt><trkpt lat="15.301117302850978" lon="120.61362574580194"><ele>51.0</ele><time>2026-03-28T12:52:41Z</time></trkpt><trkpt lat="15.301338365823542" lon="120.61375795762127"><ele>50.0</ele><time>2026-03-28T12:52:42Z</time></trkpt><trkpt lat="15.301557266702183" lon="120.61388643023454"><ele>49.0</ele><time>2026-03-28T12:52:43Z</time></trkpt><trkpt lat="15.301777159055332" lon="120.61401572321526"><ele>49.0</ele><time>2026-03-28T12:52:44Z</time></trkpt><trkpt lat="15.301990790845085" lon="120.61414123635747"><ele>49.0</ele><time>2026-03-28T12:52:45Z</time></trkpt><trkpt lat="15.302206955629226" lon="120.61427531697213"><ele>49.0</ele><time>2026-03-28T12:52:46Z</time></trkpt><trkpt lat="15.302413493720596" lon="120.61440423588473"><ele>49.0</ele><time>2026-03-28T12:52:47Z</time></trkpt><trkpt lat="15.302621564894208" lon="120.61453698610192"><ele>49.0</ele><time>2026-03-28T12:52:48Z</time></trkpt><trkpt lat="15.302826522900087" lon="120.61466527401713"><ele>49.0</ele><time>2026-03-28T12:52:49Z</time></trkpt><trkpt lat="15.303032188820982" lon="120.61479582483949"><ele>48.5</ele><time>2026-03-28T12:52:50Z</time></trkpt><trkpt lat="15.303233564670636" lon="120.6149188334115"><ele>48.0</ele><time>2026-03-28T12:52:51Z</time></trkpt><trkpt lat="15.303433729145238" lon="120.61504247277087"><ele>48.0</ele><time>2026-03-28T12:52:52Z</time></trkpt><trkpt lat="15.303631634149264" lon="120.61516192045734"><ele>48.0</ele><time>2026-03-28T12:52:53Z</time></trkpt><trkpt lat="15.303832703293251" lon="120.61528580603188"><ele>48.0</ele><time>2026-03-28T12:52:54Z</time></trkpt><trkpt lat="15.304033540459882" lon="120.61541063676191"><ele>48.0</ele><time>2026-03-28T12:52:55Z</time></trkpt><trkpt lat="15.30423438023079" lon="120.61553496570215"><ele>48.0</ele><time>2026-03-28T12:52:56Z</time></trkpt><trkpt lat="15.304432516566635" lon="120.61565564447717"><ele>48.0</ele><time>2026-03-28T12:52:57Z</time></trkpt><trkpt lat="15.304631811378353" lon="120.61577937950155"><ele>48.0</ele><time>2026-03-28T12:52:58Z</time></trkpt><trkpt lat="15.304828790704354" lon="120.61590492502928"><ele>48.0</ele><time>2026-03-28T12:52:59Z</time></trkpt><trkpt lat="15.305027279365131" lon="120.61603348481077"><ele>48.5</ele><time>2026-03-28T12:53:00Z</time></trkpt><trkpt lat="15.305225698876946" lon="120.61615895595037"><ele>49.0</ele><time>2026-03-28T12:53:01Z</time></trkpt><trkpt lat="15.305423569067244" lon="120.61628353477624"><ele>48.5</ele><time>2026-03-28T12:53:02Z</time></trkpt><trkpt lat="15.30561738866241" lon="120.61640895406964"><ele>48.0</ele><time>2026-03-28T12:53:03Z</time></trkpt><trkpt lat="15.305817783643795" lon="120.61653943618283"><ele>48.0</ele><time>2026-03-28T12:53:04Z</time></trkpt><trkpt lat="15.306018614600664" lon="120.61666903244279"><ele>48.0</ele><time>2026-03-28T12:53:05Z</time></trkpt><trkpt lat="15.30622249516162" lon="120.61679663889419"><ele>48.0</ele><time>2026-03-28T12:53:06Z</time></trkpt><trkpt lat="15.306429268867777" lon="120.61692619357137"><ele>48.0</ele><time>2026-03-28T12:53:07Z</time></trkpt><trkpt lat="15.306639684142644" lon="120.61706080121895"><ele>48.0</ele><time>2026-03-28T12:53:08Z</time></trkpt><trkpt lat="15.306851394593032" lon="120.61719591035279"><ele>48.0</ele><time>2026-03-28T12:53:09Z</time></trkpt><trkpt lat="15.307060157299318" lon="120.61732686095675"><ele>48.0</ele><time>2026-03-28T12:53:10Z</time></trkpt><trkpt lat="15.307264212179915" lon="120.61746064884886"><ele>48.0</ele><time>2026-03-28T12:53:11Z</time></trkpt><trkpt lat="15.307473578808638" lon="120.61759780104256"><ele>48.0</ele><time>2026-03-28T12:53:12Z</time></trkpt><trkpt lat="15.307688607507513" lon="120.61773929641011"><ele>48.0</ele><time>2026-03-28T12:53:13Z</time></trkpt><trkpt lat="15.307901751124101" lon="120.61787761893427"><ele>47.5</ele><time>2026-03-28T12:53:14Z</time></trkpt><trkpt lat="15.308115869627494" lon="120.61801565782892"><ele>47.0</ele><time>2026-03-28T12:53:15Z</time></trkpt><trkpt lat="15.30832669020329" lon="120.61815181560826"><ele>47.0</ele><time>2026-03-28T12:53:16Z</time></trkpt><trkpt lat="15.308539102819875" lon="120.618289285002"><ele>47.0</ele><time>2026-03-28T12:53:17Z</time></trkpt><trkpt lat="15.308751200064863" lon="120.61842787481295"><ele>47.0</ele><time>2026-03-28T12:53:18Z</time></trkpt><trkpt lat="15.308964100301282" lon="120.6185685958361"><ele>47.0</ele><time>2026-03-28T12:53:19Z</time></trkpt><trkpt lat="15.309164105713503" lon="120.61869773067572"><ele>47.5</ele><time>2026-03-28T12:53:20Z</time></trkpt><trkpt lat="15.309358469635846" lon="120.61882873148967"><ele>48.0</ele><time>2026-03-28T12:53:21Z</time></trkpt><trkpt lat="15.309548415226587" lon="120.6189508288801"><ele>48.0</ele><time>2026-03-28T12:53:22Z</time></trkpt><trkpt lat="15.309734666611412" lon="120.61907269654499"><ele>48.0</ele><time>2026-03-28T12:53:23Z</time></trkpt><trkpt lat="15.30991736789035" lon="120.61918758697475"><ele>48.0</ele><time>2026-03-28T12:53:24Z</time></trkpt><trkpt lat="15.310100930567712" lon="120.61930772947407"><ele>48.0</ele><time>2026-03-28T12:53:25Z</time></trkpt><trkpt lat="15.310282180119726" lon="120.6194205817021"><ele>48.0</ele><time>2026-03-28T12:53:26Z</time></trkpt><trkpt lat="15.31046071411712" lon="120.619536183552"><ele>48.0</ele><time>2026-03-28T12:53:27Z</time></trkpt><trkpt lat="15.310636668849707" lon="120.61964819013184"><ele>47.333333333333336</ele><time>2026-03-28T12:53:28Z</time></trkpt><trkpt lat="15.310811441753206" lon="120.61976140911602"><ele>46.66666666666667</ele><time>2026-03-28T12:53:29Z</time></trkpt><trkpt lat="15.31098668011208" lon="120.61987090566753"><ele>46.0</ele><time>2026-03-28T12:53:30Z</time></trkpt><trkpt lat="15.311157407072313" lon="120.61997776225957"><ele>46.0</ele><time>2026-03-28T12:53:31Z</time></trkpt><trkpt lat="15.311329504618758" lon="120.62008726675772"><ele>46.0</ele><time>2026-03-28T12:53:32Z</time></trkpt><trkpt lat="15.311495187063494" lon="120.6201945603632"><ele>46.0</ele><time>2026-03-28T12:53:33Z</time></trkpt><trkpt lat="15.311661957920151" lon="120.6203022663044"><ele>46.0</ele><time>2026-03-28T12:53:34Z</time></trkpt><trkpt lat="15.311824235249492" lon="120.62040590623866"><ele>46.0</ele><time>2026-03-28T12:53:35Z</time></trkpt><trkpt lat="15.311987112144617" lon="120.62050909541202"><ele>46.0</ele><time>2026-03-28T12:53:36Z</time></trkpt><trkpt lat="15.312149252300767" lon="120.62061608632213"><ele>45.0</ele><time>2026-03-28T12:53:37Z</time></trkpt><trkpt lat="15.312309410623522" lon="120.62071885942103"><ele>44.0</ele><time>2026-03-28T12:53:38Z</time></trkpt><trkpt lat="15.312467716053051" lon="120.62082031996059"><ele>43.0</ele><time>2026-03-28T12:53:39Z</time></trkpt><trkpt lat="15.31262626003054" lon="120.62092164982982"><ele>43.0</ele><time>2026-03-28T12:53:40Z</time></trkpt><trkpt lat="15.312785030020558" lon="120.62102629258662"><ele>43.0</ele><time>2026-03-28T12:53:41Z</time></trkpt><trkpt lat="15.31294772398602" lon="120.62112859947477"><ele>43.0</ele><time>2026-03-28T12:53:42Z</time></trkpt><trkpt lat="15.313111499692274" lon="120.62123771235665"><ele>44.0</ele><time>2026-03-28T12:53:43Z</time></trkpt><trkpt lat="15.313276022372916" lon="120.62134222921476"><ele>45.0</ele><time>2026-03-28T12:53:44Z</time></trkpt><trkpt lat="15.31343768495657" lon="120.62144712883119"><ele>46.0</ele><time>2026-03-28T12:53:45Z</time></trkpt><trkpt lat="15.313600182426375" lon="120.62154944050751"><ele>46.0</ele><time>2026-03-28T12:53:46Z</time></trkpt><trkpt lat="15.313766047916632" lon="120.62165580753938"><ele>46.0</ele><time>2026-03-28T12:53:47Z</time></trkpt><trkpt lat="15.313931684029178" lon="120.62176384762887"><ele>46.0</ele><time>2026-03-28T12:53:48Z</time></trkpt><trkpt lat="15.314093337216665" lon="120.6218652671517"><ele>46.0</ele><time>2026-03-28T12:53:49Z</time></trkpt><trkpt lat="15.314250879648343" lon="120.62196461022909"><ele>46.0</ele><time>2026-03-28T12:53:50Z</time></trkpt><trkpt lat="15.314409753931175" lon="120.62206462468495"><ele>46.0</ele><time>2026-03-28T12:53:51Z</time></trkpt><trkpt lat="15.314564782843242" lon="120.62216533983597"><ele>46.0</ele><time>2026-03-28T12:53:52Z</time></trkpt><trkpt lat="15.314723900748422" lon="120.62226303824426"><ele>46.0</ele><time>2026-03-28T12:53:53Z</time></trkpt><trkpt lat="15.31488792257623" lon="120.62236783967133"><ele>46.0</ele><time>2026-03-28T12:53:54Z</time></trkpt><trkpt lat="15.315052142996235" lon="120.6224748084057"><ele>46.0</ele><time>2026-03-28T12:53:55Z</time></trkpt><trkpt lat="15.315211530644598" lon="120.62257560219982"><ele>46.0</ele><time>2026-03-28T12:53:56Z</time></trkpt><trkpt lat="15.315373455317271" lon="120.6226788256706"><ele>46.0</ele><time>2026-03-28T12:53:57Z</time></trkpt><trkpt lat="15.315537369527569" lon="120.62278270581913"><ele>45.333333333333336</ele><time>2026-03-28T12:53:58Z</time></trkpt><trkpt lat="15.315701670092587" lon="120.62288752362367"><ele>44.666666666666664</ele><time>2026-03-28T12:53:59Z</time></trkpt><trkpt lat="15.315865957747803" lon="120.62299026813676"><ele>44.0</ele><time>2026-03-28T12:54:00Z</time></trkpt><trkpt lat="15.316029942638792" lon="120.62309702380296"><ele>44.0</ele><time>2026-03-28T12:54:01Z</time></trkpt><trkpt lat="15.31619786017354" lon="120.62320559357049"><ele>44.0</ele><time>2026-03-28T12:54:02Z</time></trkpt><trkpt lat="15.316365559642467" lon="120.62331531433031"><ele>44.0</ele><time>2026-03-28T12:54:03Z</time></trkpt><trkpt lat="15.316534048160282" lon="120.62342438736965"><ele>44.33333333333333</ele><time>2026-03-28T12:54:04Z</time></trkpt><trkpt lat="15.316703757547614" lon="120.62353508285982"><ele>44.666666666666664</ele><time>2026-03-28T12:54:05Z</time></trkpt><trkpt lat="15.316873826980316" lon="120.62364587349386"><ele>45.0</ele><time>2026-03-28T12:54:06Z</time></trkpt><trkpt lat="15.31703866719924" lon="120.62375083461157"><ele>45.0</ele><time>2026-03-28T12:54:07Z</time></trkpt><trkpt lat="15.317210330059247" lon="120.62386292205919"><ele>45.0</ele><time>2026-03-28T12:54:08Z</time></trkpt><trkpt lat="15.317381211081313" lon="120.62397991784991"><ele>45.0</ele><time>2026-03-28T12:54:09Z</time></trkpt><trkpt lat="15.317553344372591" lon="120.62409399366159"><ele>45.0</ele><time>2026-03-28T12:54:10Z</time></trkpt><trkpt lat="15.31772338884786" lon="120.62420444139255"><ele>45.0</ele><time>2026-03-28T12:54:11Z</time></trkpt><trkpt lat="15.317898071820265" lon="120.62432208539262"><ele>45.0</ele><time>2026-03-28T12:54:12Z</time></trkpt><trkpt lat="15.3180679825981" lon="120.62443050220634"><ele>44.333333333333336</ele><time>2026-03-28T12:54:13Z</time></trkpt><trkpt lat="15.318241717953544" lon="120.62454735642997"><ele>43.66666666666667</ele><time>2026-03-28T12:54:14Z</time></trkpt><trkpt lat="15.318417752031186" lon="120.6246683558901"><ele>43.0</ele><time>2026-03-28T12:54:15Z</time></trkpt><trkpt lat="15.318598022477449" lon="120.6247853004031"><ele>43.0</ele><time>2026-03-28T12:54:16Z</time></trkpt><trkpt lat="15.3187763582317" lon="120.62490454687524"><ele>43.0</ele><time>2026-03-28T12:54:17Z</time></trkpt><trkpt lat="15.318953310748773" lon="120.62501625630512"><ele>43.0</ele><time>2026-03-28T12:54:18Z</time></trkpt><trkpt lat="15.31913752282113" lon="120.6251342530748"><ele>43.0</ele><time>2026-03-28T12:54:19Z</time></trkpt><trkpt lat="15.319320425549648" lon="120.62525119903749"><ele>43.0</ele><time>2026-03-28T12:54:20Z</time></trkpt><trkpt lat="15.31950649130686" lon="120.62536914356797"><ele>43.0</ele><time>2026-03-28T12:54:21Z</time></trkpt><trkpt lat="15.319692286557911" lon="120.62549018610149"><ele>43.333333333333336</ele><time>2026-03-28T12:54:22Z</time></trkpt><trkpt lat="15.319879150249575" lon="120.62561327515544"><ele>43.666666666666664</ele><time>2026-03-28T12:54:23Z</time></trkpt><trkpt lat="15.32006276817274" lon="120.62572904651915"><ele>44.0</ele><time>2026-03-28T12:54:24Z</time></trkpt><trkpt lat="15.320255297337997" lon="120.62585106206605"><ele>44.0</ele><time>2026-03-28T12:54:25Z</time></trkpt><trkpt lat="15.320451308850087" lon="120.62597813598393"><ele>44.0</ele><time>2026-03-28T12:54:26Z</time></trkpt><trkpt lat="15.320648222916612" lon="120.62610572901636"><ele>43.0</ele><time>2026-03-28T12:54:27Z</time></trkpt><trkpt lat="15.320844282495885" lon="120.62623012237964"><ele>42.0</ele><time>2026-03-28T12:54:28Z</time></trkpt><trkpt lat="15.321037923997032" lon="120.62635426923443"><ele>42.0</ele><time>2026-03-28T12:54:29Z</time></trkpt><trkpt lat="15.321232313966753" lon="120.62648075106995"><ele>42.0</ele><time>2026-03-28T12:54:30Z</time></trkpt><trkpt lat="15.321427969401695" lon="120.62660900620511"><ele>41.5</ele><time>2026-03-28T12:54:31Z</time></trkpt><trkpt lat="15.321624457558528" lon="120.62673617554731"><ele>41.0</ele><time>2026-03-28T12:54:32Z</time></trkpt><trkpt lat="15.321825128291566" lon="120.62686787118938"><ele>42.0</ele><time>2026-03-28T12:54:33Z</time></trkpt><trkpt lat="15.322027261781079" lon="120.62699773130144"><ele>43.0</ele><time>2026-03-28T12:54:34Z</time></trkpt><trkpt lat="15.322228140429788" lon="120.62712595740918"><ele>44.0</ele><time>2026-03-28T12:54:35Z</time></trkpt><trkpt lat="15.322429058226492" lon="120.62725488724635"><ele>45.0</ele><time>2026-03-28T12:54:36Z</time></trkpt><trkpt lat="15.32262899108491" lon="120.62738227678287"><ele>45.0</ele><time>2026-03-28T12:54:37Z</time></trkpt><trkpt lat="15.322833954813165" lon="120.62751651968635"><ele>45.0</ele><time>2026-03-28T12:54:38Z</time></trkpt><trkpt lat="15.323034442013284" lon="120.62764811954706"><ele>44.0</ele><time>2026-03-28T12:54:39Z</time></trkpt><trkpt lat="15.32323785106386" lon="120.62777963446254"><ele>43.0</ele><time>2026-03-28T12:54:40Z</time></trkpt><trkpt lat="15.32344083922463" lon="120.62791067577292"><ele>42.5</ele><time>2026-03-28T12:54:41Z</time></trkpt><trkpt lat="15.32364462636948" lon="120.62804310203097"><ele>42.0</ele><time>2026-03-28T12:54:42Z</time></trkpt><trkpt lat="15.32384797862624" lon="120.62817372931556"><ele>43.0</ele><time>2026-03-28T12:54:43Z</time></trkpt><trkpt lat="15.32405028837133" lon="120.6283029387526"><ele>44.0</ele><time>2026-03-28T12:54:44Z</time></trkpt><trkpt lat="15.324250603032983" lon="120.62843150144606"><ele>44.0</ele><time>2026-03-28T12:54:45Z</time></trkpt><trkpt lat="15.324452574303253" lon="120.62855972886958"><ele>44.0</ele><time>2026-03-28T12:54:46Z</time></trkpt><trkpt lat="15.324654905303941" lon="120.62868496615505"><ele>42.5</ele><time>2026-03-28T12:54:47Z</time></trkpt><trkpt lat="15.324856986294504" lon="120.62881414247356"><ele>41.0</ele><time>2026-03-28T12:54:48Z</time></trkpt><trkpt lat="15.32505587765511" lon="120.62894440984714"><ele>41.0</ele><time>2026-03-28T12:54:49Z</time></trkpt><trkpt lat="15.325252293714392" lon="120.62907225554716"><ele>41.0</ele><time>2026-03-28T12:54:50Z</time></trkpt><trkpt lat="15.325452598585866" lon="120.6292007938427"><ele>41.0</ele><time>2026-03-28T12:54:51Z</time></trkpt><trkpt lat="15.325650198580556" lon="120.62932549269006"><ele>41.0</ele><time>2026-03-28T12:54:52Z</time></trkpt><trkpt lat="15.325854803964855" lon="120.62946452390267"><ele>41.0</ele><time>2026-03-28T12:54:53Z</time></trkpt><trkpt lat="15.326056980554055" lon="120.62959976323681"><ele>41.0</ele><time>2026-03-28T12:54:54Z</time></trkpt><trkpt lat="15.326259767236772" lon="120.62973129237868"><ele>42.0</ele><time>2026-03-28T12:54:55Z</time></trkpt><trkpt lat="15.326467845347047" lon="120.62986508955832"><ele>43.0</ele><time>2026-03-28T12:54:56Z</time></trkpt><trkpt lat="15.32667146821055" lon="120.62998893104258"><ele>43.0</ele><time>2026-03-28T12:54:57Z</time></trkpt><trkpt lat="15.326882616494629" lon="120.6301238920587"><ele>43.0</ele><time>2026-03-28T12:54:58Z</time></trkpt><trkpt lat="15.327100655744609" lon="120.63026140565593"><ele>42.0</ele><time>2026-03-28T12:54:59Z</time></trkpt><trkpt lat="15.327319050336998" lon="120.63040380159964"><ele>41.0</ele><time>2026-03-28T12:55:00Z</time></trkpt><trkpt lat="15.32753551622931" lon="120.63054390555588"><ele>41.0</ele><time>2026-03-28T12:55:01Z</time></trkpt><trkpt lat="15.327755375550518" lon="120.63068616988664"><ele>41.0</ele><time>2026-03-28T12:55:02Z</time></trkpt><trkpt lat="15.32797273294223" lon="120.63083330028361"><ele>40.5</ele><time>2026-03-28T12:55:03Z</time></trkpt><trkpt lat="15.328196075143355" lon="120.63097438397492"><ele>40.0</ele><time>2026-03-28T12:55:04Z</time></trkpt><trkpt lat="15.328420423451592" lon="120.63111561879819"><ele>41.0</ele><time>2026-03-28T12:55:05Z</time></trkpt><trkpt lat="15.328640889284529" lon="120.63125715930163"><ele>42.0</ele><time>2026-03-28T12:55:06Z</time></trkpt><trkpt lat="15.328865555428862" lon="120.63140421049204"><ele>40.0</ele><time>2026-03-28T12:55:07Z</time></trkpt><trkpt lat="15.329088444813127" lon="120.63154162931899"><ele>38.0</ele><time>2026-03-28T12:55:08Z</time></trkpt><trkpt lat="15.329309429617924" lon="120.63168503718569"><ele>38.0</ele><time>2026-03-28T12:55:09Z</time></trkpt><trkpt lat="15.329531961408241" lon="120.63183018481205"><ele>38.0</ele><time>2026-03-28T12:55:10Z</time></trkpt><trkpt lat="15.329756948766082" lon="120.63198175263412"><ele>39.0</ele><time>2026-03-28T12:55:11Z</time></trkpt><trkpt lat="15.329981647652465" lon="120.63212559229974"><ele>40.0</ele><time>2026-03-28T12:55:12Z</time></trkpt><trkpt lat="15.330205843826796" lon="120.63226918278367"><ele>40.0</ele><time>2026-03-28T12:55:13Z</time></trkpt><trkpt lat="15.330430970663562" lon="120.6324182565038"><ele>40.0</ele><time>2026-03-28T12:55:14Z</time></trkpt><trkpt lat="15.33065828708595" lon="120.6325636194543"><ele>41.0</ele><time>2026-03-28T12:55:15Z</time></trkpt><trkpt lat="15.330881955776682" lon="120.63270729127417"><ele>42.0</ele><time>2026-03-28T12:55:16Z</time></trkpt><trkpt lat="15.331111010436956" lon="120.63285308993915"><ele>42.0</ele><time>2026-03-28T12:55:17Z</time></trkpt><trkpt lat="15.331341458121328" lon="120.6330000224703"><ele>42.0</ele><time>2026-03-28T12:55:18Z</time></trkpt><trkpt lat="15.331572180879778" lon="120.63314734665744"><ele>41.5</ele><time>2026-03-28T12:55:19Z</time></trkpt><trkpt lat="15.331802244878606" lon="120.63329972708195"><ele>41.0</ele><time>2026-03-28T12:55:20Z</time></trkpt><trkpt lat="15.332032920600943" lon="120.63345488201402"><ele>41.0</ele><time>2026-03-28T12:55:21Z</time></trkpt><trkpt lat="15.33226672497253" lon="120.63361064050436"><ele>41.0</ele><time>2026-03-28T12:55:22Z</time></trkpt><trkpt lat="15.332500979396862" lon="120.63376506946612"><ele>42.5</ele><time>2026-03-28T12:55:23Z</time></trkpt><trkpt lat="15.332740475813052" lon="120.63392302884284"><ele>44.0</ele><time>2026-03-28T12:55:24Z</time></trkpt><trkpt lat="15.332979208209203" lon="120.63407590305727"><ele>43.5</ele><time>2026-03-28T12:55:25Z</time></trkpt><trkpt lat="15.333216164952017" lon="120.63422835315852"><ele>43.0</ele><time>2026-03-28T12:55:26Z</time></trkpt><trkpt lat="15.333454873785715" lon="120.634383269845"><ele>43.0</ele><time>2026-03-28T12:55:27Z</time></trkpt><trkpt lat="15.33369322625122" lon="120.63453668794733"><ele>43.0</ele><time>2026-03-28T12:55:28Z</time></trkpt><trkpt lat="15.33393426899858" lon="120.63469724479994"><ele>43.0</ele><time>2026-03-28T12:55:29Z</time></trkpt><trkpt lat="15.334173817770028" lon="120.63485276955831"><ele>43.0</ele><time>2026-03-28T12:55:30Z</time></trkpt><trkpt lat="15.334409342563793" lon="120.63500725012508"><ele>43.0</ele><time>2026-03-28T12:55:31Z</time></trkpt><trkpt lat="15.33465551253694" lon="120.63516736182304"><ele>43.0</ele><time>2026-03-28T12:55:32Z</time></trkpt><trkpt lat="15.334891494183266" lon="120.63531472169788"><ele>42.5</ele><time>2026-03-28T12:55:33Z</time></trkpt><trkpt lat="15.335128502748288" lon="120.63546870961908"><ele>42.0</ele><time>2026-03-28T12:55:34Z</time></trkpt><trkpt lat="15.335373309879326" lon="120.63563052314547"><ele>41.5</ele><time>2026-03-28T12:55:35Z</time></trkpt><trkpt lat="15.335615681909154" lon="120.63579041938004"><ele>41.0</ele><time>2026-03-28T12:55:36Z</time></trkpt><trkpt lat="15.335863194178957" lon="120.63595331517364"><ele>41.0</ele><time>2026-03-28T12:55:37Z</time></trkpt><trkpt lat="15.33609946162407" lon="120.63610253337684"><ele>41.0</ele><time>2026-03-28T12:55:38Z</time></trkpt><trkpt lat="15.33634006264399" lon="120.6362582249852"><ele>40.0</ele><time>2026-03-28T12:55:39Z</time></trkpt><trkpt lat="15.336585820892108" lon="120.63641452780686"><ele>39.0</ele><time>2026-03-28T12:55:40Z</time></trkpt><trkpt lat="15.33683355664849" lon="120.63657244747823"><ele>39.0</ele><time>2026-03-28T12:55:41Z</time></trkpt><trkpt lat="15.337082967394842" lon="120.63672648446543"><ele>39.0</ele><time>2026-03-28T12:55:42Z</time></trkpt><trkpt lat="15.337330983224568" lon="120.63688088129571"><ele>39.0</ele><time>2026-03-28T12:55:43Z</time></trkpt><trkpt lat="15.33758195911791" lon="120.63703673838725"><ele>39.0</ele><time>2026-03-28T12:55:44Z</time></trkpt><trkpt lat="15.337822250381048" lon="120.63719223022233"><ele>38.5</ele><time>2026-03-28T12:55:45Z</time></trkpt><trkpt lat="15.33806201066417" lon="120.63734010584389"><ele>38.0</ele><time>2026-03-28T12:55:46Z</time></trkpt><trkpt lat="15.3383078094024" lon="120.63749831467155"><ele>38.0</ele><time>2026-03-28T12:55:47Z</time></trkpt><trkpt lat="15.338557367580801" lon="120.63765682583181"><ele>38.0</ele><time>2026-03-28T12:55:48Z</time></trkpt><trkpt lat="15.338801885381752" lon="120.63781397007216"><ele>38.5</ele><time>2026-03-28T12:55:49Z</time></trkpt><trkpt lat="15.339045029677813" lon="120.637969116987"><ele>39.0</ele><time>2026-03-28T12:55:50Z</time></trkpt><trkpt lat="15.33928562682018" lon="120.6381301031736"><ele>39.0</ele><time>2026-03-28T12:55:51Z</time></trkpt><trkpt lat="15.339524715472797" lon="120.63828416698364"><ele>39.0</ele><time>2026-03-28T12:55:52Z</time></trkpt><trkpt lat="15.339759885877639" lon="120.63843900480975"><ele>39.0</ele><time>2026-03-28T12:55:53Z</time></trkpt><trkpt lat="15.339995188600048" lon="120.63859437731092"><ele>39.0</ele><time>2026-03-28T12:55:54Z</time></trkpt><trkpt lat="15.340232978437333" lon="120.63874807894891"><ele>39.0</ele><time>2026-03-28T12:55:55Z</time></trkpt><trkpt lat="15.340461770105652" lon="120.63888827008353"><ele>39.0</ele><time>2026-03-28T12:55:56Z</time></trkpt><trkpt lat="15.340688515950193" lon="120.63903162470316"><ele>39.0</ele><time>2026-03-28T12:55:57Z</time></trkpt><trkpt lat="15.340916745158438" lon="120.63917821246274"><ele>39.0</ele><time>2026-03-28T12:55:58Z</time></trkpt><trkpt lat="15.341152473092043" lon="120.63933103482657"><ele>38.5</ele><time>2026-03-28T12:55:59Z</time></trkpt><trkpt lat="15.341372077508984" lon="120.63946775426301"><ele>38.0</ele><time>2026-03-28T12:56:00Z</time></trkpt><trkpt lat="15.341595293458616" lon="120.63962089468973"><ele>38.0</ele><time>2026-03-28T12:56:01Z</time></trkpt><trkpt lat="15.341821010053017" lon="120.63976162514001"><ele>38.0</ele><time>2026-03-28T12:56:02Z</time></trkpt><trkpt lat="15.342039633893007" lon="120.63990406225946"><ele>39.0</ele><time>2026-03-28T12:56:03Z</time></trkpt><trkpt lat="15.342259368660244" lon="120.64004502963773"><ele>40.0</ele><time>2026-03-28T12:56:04Z</time></trkpt><trkpt lat="15.342481700015506" lon="120.64018562275832"><ele>38.5</ele><time>2026-03-28T12:56:05Z</time></trkpt><trkpt lat="15.342712077746022" lon="120.6403315657483"><ele>37.0</ele><time>2026-03-28T12:56:06Z</time></trkpt><trkpt lat="15.342937331838504" lon="120.640476266383"><ele>37.5</ele><time>2026-03-28T12:56:07Z</time></trkpt><trkpt lat="15.343167683945131" lon="120.64062218916952"><ele>38.0</ele><time>2026-03-28T12:56:08Z</time></trkpt><trkpt lat="15.343387216823777" lon="120.64076015937442"><ele>38.0</ele><time>2026-03-28T12:56:09Z</time></trkpt><trkpt lat="15.343614765600982" lon="120.64090733275546"><ele>38.0</ele><time>2026-03-28T12:56:10Z</time></trkpt><trkpt lat="15.343839970823957" lon="120.64105027181301"><ele>38.5</ele><time>2026-03-28T12:56:11Z</time></trkpt><trkpt lat="15.344065338653008" lon="120.64120311496"><ele>39.0</ele><time>2026-03-28T12:56:12Z</time></trkpt><trkpt lat="15.344286469713998" lon="120.64134821404724"><ele>39.0</ele><time>2026-03-28T12:56:13Z</time></trkpt><trkpt lat="15.344511735339863" lon="120.64148961571804"><ele>39.0</ele><time>2026-03-28T12:56:14Z</time></trkpt><trkpt lat="15.344735316414589" lon="120.64163141953759"><ele>39.5</ele><time>2026-03-28T12:56:15Z</time></trkpt><trkpt lat="15.344959696251266" lon="120.6417784638758"><ele>40.0</ele><time>2026-03-28T12:56:16Z</time></trkpt><trkpt lat="15.345181341979243" lon="120.6419194927855"><ele>39.5</ele><time>2026-03-28T12:56:17Z</time></trkpt><trkpt lat="15.345407059409915" lon="120.64206519439315"><ele>39.0</ele><time>2026-03-28T12:56:18Z</time></trkpt><trkpt lat="15.345628366545968" lon="120.64220083725463"><ele>38.0</ele><time>2026-03-28T12:56:19Z</time></trkpt><trkpt lat="15.345853964660687" lon="120.64234847258305"><ele>37.0</ele><time>2026-03-28T12:56:20Z</time></trkpt><trkpt lat="15.346079930584548" lon="120.64249113226177"><ele>37.0</ele><time>2026-03-28T12:56:21Z</time></trkpt><trkpt lat="15.346309543110774" lon="120.6426363518998"><ele>37.0</ele><time>2026-03-28T12:56:22Z</time></trkpt><trkpt lat="15.346531730613941" lon="120.64277795672028"><ele>37.5</ele><time>2026-03-28T12:56:23Z</time></trkpt><trkpt lat="15.346756274020121" lon="120.64292317268904"><ele>38.0</ele><time>2026-03-28T12:56:24Z</time></trkpt><trkpt lat="15.346982095301907" lon="120.6430714276064"><ele>37.5</ele><time>2026-03-28T12:56:25Z</time></trkpt><trkpt lat="15.347210793915059" lon="120.6432199410813"><ele>37.0</ele><time>2026-03-28T12:56:26Z</time></trkpt><trkpt lat="15.34743929386879" lon="120.64336874010048"><ele>37.0</ele><time>2026-03-28T12:56:27Z</time></trkpt><trkpt lat="15.347667181144441" lon="120.64351490734666"><ele>37.0</ele><time>2026-03-28T12:56:28Z</time></trkpt><trkpt lat="15.347893884142461" lon="120.64366451336251"><ele>36.0</ele><time>2026-03-28T12:56:29Z</time></trkpt><trkpt lat="15.348120815478987" lon="120.64381054800232"><ele>35.0</ele><time>2026-03-28T12:56:30Z</time></trkpt><trkpt lat="15.348341742526586" lon="120.64395307330419"><ele>35.0</ele><time>2026-03-28T12:56:31Z</time></trkpt><trkpt lat="15.348564137624175" lon="120.6440964655543"><ele>35.0</ele><time>2026-03-28T12:56:32Z</time></trkpt><trkpt lat="15.348785733065398" lon="120.64423920126379"><ele>35.0</ele><time>2026-03-28T12:56:33Z</time></trkpt><trkpt lat="15.349004763274962" lon="120.64438204451861"><ele>35.0</ele><time>2026-03-28T12:56:34Z</time></trkpt><trkpt lat="15.349226972719892" lon="120.64452556805982"><ele>36.0</ele><time>2026-03-28T12:56:35Z</time></trkpt><trkpt lat="15.349451067313858" lon="120.6446692608824"><ele>37.0</ele><time>2026-03-28T12:56:36Z</time></trkpt><trkpt lat="15.349678356860014" lon="120.64481258207822"><ele>37.5</ele><time>2026-03-28T12:56:37Z</time></trkpt><trkpt lat="15.349903512357145" lon="120.64495415316877"><ele>38.0</ele><time>2026-03-28T12:56:38Z</time></trkpt><trkpt lat="15.350134687184028" lon="120.64510419045274"><ele>38.0</ele><time>2026-03-28T12:56:39Z</time></trkpt><trkpt lat="15.35037062291101" lon="120.64525616959818"><ele>38.0</ele><time>2026-03-28T12:56:40Z</time></trkpt><trkpt lat="15.350599441660819" lon="120.64540269529978"><ele>37.5</ele><time>2026-03-28T12:56:41Z</time></trkpt><trkpt lat="15.350833674173956" lon="120.64555041223745"><ele>37.0</ele><time>2026-03-28T12:56:42Z</time></trkpt><trkpt lat="15.35107018904382" lon="120.64570685960553"><ele>37.0</ele><time>2026-03-28T12:56:43Z</time></trkpt><trkpt lat="15.351307656447965" lon="120.64586224394401"><ele>37.0</ele><time>2026-03-28T12:56:44Z</time></trkpt><trkpt lat="15.351541579732553" lon="120.64601324306754"><ele>37.0</ele><time>2026-03-28T12:56:45Z</time></trkpt><trkpt lat="15.351779705785546" lon="120.64616687612133"><ele>37.0</ele><time>2026-03-28T12:56:46Z</time></trkpt><trkpt lat="15.352016027825401" lon="120.64631771473701"><ele>37.0</ele><time>2026-03-28T12:56:47Z</time></trkpt><trkpt lat="15.352255822613104" lon="120.64647034977243"><ele>37.0</ele><time>2026-03-28T12:56:48Z</time></trkpt><trkpt lat="15.35249666976837" lon="120.64662405851605"><ele>37.0</ele><time>2026-03-28T12:56:49Z</time></trkpt><trkpt lat="15.352739540350564" lon="120.64678009865128"><ele>37.0</ele><time>2026-03-28T12:56:50Z</time></trkpt><trkpt lat="15.352980307233105" lon="120.64693341985809"><ele>36.5</ele><time>2026-03-28T12:56:51Z</time></trkpt><trkpt lat="15.353217831922313" lon="120.64708519956945"><ele>36.0</ele><time>2026-03-28T12:56:52Z</time></trkpt><trkpt lat="15.353456672613145" lon="120.64724077451942"><ele>36.0</ele><time>2026-03-28T12:56:53Z</time></trkpt><trkpt lat="15.35369545626132" lon="120.64739440100301"><ele>36.0</ele><time>2026-03-28T12:56:54Z</time></trkpt><trkpt lat="15.35393814552582" lon="120.64755002336696"><ele>35.5</ele><time>2026-03-28T12:56:55Z</time></trkpt><trkpt lat="15.354182953840642" lon="120.6477092886638"><ele>35.0</ele><time>2026-03-28T12:56:56Z</time></trkpt><trkpt lat="15.3544232272025" lon="120.64786330330578"><ele>36.0</ele><time>2026-03-28T12:56:57Z</time></trkpt><trkpt lat="15.354670487164713" lon="120.64802580565639"><ele>37.0</ele><time>2026-03-28T12:56:58Z</time></trkpt><trkpt lat="15.354920987327619" lon="120.64819089505984"><ele>37.0</ele><time>2026-03-28T12:56:59Z</time></trkpt><trkpt lat="15.355166230844258" lon="120.64834968277015"><ele>37.0</ele><time>2026-03-28T12:57:00Z</time></trkpt><trkpt lat="15.355413649754908" lon="120.64851339848742"><ele>34.5</ele><time>2026-03-28T12:57:01Z</time></trkpt><trkpt lat="15.355665214334518" lon="120.6486785975705"><ele>32.0</ele><time>2026-03-28T12:57:02Z</time></trkpt><trkpt lat="15.35591834603773" lon="120.64884691404473"><ele>32.0</ele><time>2026-03-28T12:57:03Z</time></trkpt><trkpt lat="15.35616923763165" lon="120.64901049976112"><ele>32.0</ele><time>2026-03-28T12:57:04Z</time></trkpt><trkpt lat="15.356421026058458" lon="120.6491736660007"><ele>32.5</ele><time>2026-03-28T12:57:05Z</time></trkpt><trkpt lat="15.35667203265799" lon="120.64933214474371"><ele>33.0</ele><time>2026-03-28T12:57:06Z</time></trkpt><trkpt lat="15.356919456861291" lon="120.64949256139253"><ele>33.0</ele><time>2026-03-28T12:57:07Z</time></trkpt><trkpt lat="15.357167435180013" lon="120.64964568823115"><ele>33.0</ele><time>2026-03-28T12:57:08Z</time></trkpt><trkpt lat="15.357415493860119" lon="120.64980729039436"><ele>33.0</ele><time>2026-03-28T12:57:09Z</time></trkpt><trkpt lat="15.357664605744757" lon="120.64996628491161"><ele>33.0</ele><time>2026-03-28T12:57:10Z</time></trkpt><trkpt lat="15.357910547769304" lon="120.65012701185763"><ele>33.5</ele><time>2026-03-28T12:57:11Z</time></trkpt><trkpt lat="15.358158761657787" lon="120.65028179600851"><ele>34.0</ele><time>2026-03-28T12:57:12Z</time></trkpt><trkpt lat="15.358406838547113" lon="120.6504447131073"><ele>34.0</ele><time>2026-03-28T12:57:13Z</time></trkpt><trkpt lat="15.358656167071674" lon="120.65061001277914"><ele>34.0</ele><time>2026-03-28T12:57:14Z</time></trkpt><trkpt lat="15.358900264320509" lon="120.65076956034902"><ele>33.5</ele><time>2026-03-28T12:57:15Z</time></trkpt><trkpt lat="15.359146306832999" lon="120.65092969360049"><ele>33.0</ele><time>2026-03-28T12:57:16Z</time></trkpt><trkpt lat="15.35939019810971" lon="120.65108736862756"><ele>33.5</ele><time>2026-03-28T12:57:17Z</time></trkpt><trkpt lat="15.359638401385881" lon="120.65124613019027"><ele>34.0</ele><time>2026-03-28T12:57:18Z</time></trkpt><trkpt lat="15.359879297327046" lon="120.65140377662392"><ele>34.0</ele><time>2026-03-28T12:57:19Z</time></trkpt><trkpt lat="15.36012370041522" lon="120.65156468035335"><ele>34.0</ele><time>2026-03-28T12:57:20Z</time></trkpt><trkpt lat="15.360365154124144" lon="120.65171806256738"><ele>33.5</ele><time>2026-03-28T12:57:21Z</time></trkpt><trkpt lat="15.360605862943633" lon="120.65187201312014"><ele>33.0</ele><time>2026-03-28T12:57:22Z</time></trkpt><trkpt lat="15.360846103023711" lon="120.65202539264926"><ele>32.0</ele><time>2026-03-28T12:57:23Z</time></trkpt><trkpt lat="15.361084253169889" lon="120.65217977604449"><ele>31.0</ele><time>2026-03-28T12:57:24Z</time></trkpt><trkpt lat="15.361318103523452" lon="120.65232747113075"><ele>31.0</ele><time>2026-03-28T12:57:25Z</time></trkpt><trkpt lat="15.36155366031432" lon="120.65247837721496"><ele>31.0</ele><time>2026-03-28T12:57:26Z</time></trkpt><trkpt lat="15.361783773677674" lon="120.65262199254978"><ele>31.0</ele><time>2026-03-28T12:57:27Z</time></trkpt><trkpt lat="15.3620159771358" lon="120.65276645709125"><ele>31.0</ele><time>2026-03-28T12:57:28Z</time></trkpt><trkpt lat="15.362243747798665" lon="120.65290961979808"><ele>31.5</ele><time>2026-03-28T12:57:29Z</time></trkpt><trkpt lat="15.362475040479397" lon="120.65305164633655"><ele>32.0</ele><time>2026-03-28T12:57:30Z</time></trkpt><trkpt lat="15.36270446498886" lon="120.65319424360027"><ele>32.0</ele><time>2026-03-28T12:57:31Z</time></trkpt><trkpt lat="15.362936175226237" lon="120.65334091238671"><ele>32.0</ele><time>2026-03-28T12:57:32Z</time></trkpt><trkpt lat="15.36316509365402" lon="120.65348791506285"><ele>32.0</ele><time>2026-03-28T12:57:33Z</time></trkpt><trkpt lat="15.363390244032562" lon="120.65363032433679"><ele>32.0</ele><time>2026-03-28T12:57:34Z</time></trkpt><trkpt lat="15.363615460353849" lon="120.65376967699525"><ele>32.0</ele><time>2026-03-28T12:57:35Z</time></trkpt><trkpt lat="15.36384316138975" lon="120.65390651414539"><ele>32.0</ele><time>2026-03-28T12:57:36Z</time></trkpt><trkpt lat="15.364072031719852" lon="120.65404928725613"><ele>32.0</ele><time>2026-03-28T12:57:37Z</time></trkpt><trkpt lat="15.364295902627134" lon="120.65418640110997"><ele>32.0</ele><time>2026-03-28T12:57:38Z</time></trkpt><trkpt lat="15.36452434568409" lon="120.65432937998995"><ele>33.0</ele><time>2026-03-28T12:57:39Z</time></trkpt><trkpt lat="15.364751346938556" lon="120.65446940329359"><ele>34.0</ele><time>2026-03-28T12:57:40Z</time></trkpt><trkpt lat="15.364976417388391" lon="120.65460476836165"><ele>34.0</ele><time>2026-03-28T12:57:41Z</time></trkpt><trkpt lat="15.365204862037743" lon="120.65473848939165"><ele>34.0</ele><time>2026-03-28T12:57:42Z</time></trkpt><trkpt lat="15.365430242859793" lon="120.65487099349274"><ele>33.5</ele><time>2026-03-28T12:57:43Z</time></trkpt><trkpt lat="15.365654978706004" lon="120.65499328486534"><ele>33.0</ele><time>2026-03-28T12:57:44Z</time></trkpt><trkpt lat="15.365884591809403" lon="120.65512546292385"><ele>33.0</ele><time>2026-03-28T12:57:45Z</time></trkpt><trkpt lat="15.366114078716748" lon="120.65525416298424"><ele>33.0</ele><time>2026-03-28T12:57:46Z</time></trkpt><trkpt lat="15.366349967716685" lon="120.65538781191404"><ele>34.5</ele><time>2026-03-28T12:57:47Z</time></trkpt><trkpt lat="15.366584065745903" lon="120.65551866680646"><ele>36.0</ele><time>2026-03-28T12:57:48Z</time></trkpt><trkpt lat="15.366814219488967" lon="120.65564429588945"><ele>36.0</ele><time>2026-03-28T12:57:49Z</time></trkpt><trkpt lat="15.367044925381247" lon="120.65576651198198"><ele>36.0</ele><time>2026-03-28T12:57:50Z</time></trkpt><trkpt lat="15.367280014014641" lon="120.6558864248995"><ele>36.0</ele><time>2026-03-28T12:57:51Z</time></trkpt><trkpt lat="15.367506340555297" lon="120.65600112433073"><ele>36.0</ele><time>2026-03-28T12:57:52Z</time></trkpt><trkpt lat="15.36773704295724" lon="120.65611757457224"><ele>35.5</ele><time>2026-03-28T12:57:53Z</time></trkpt><trkpt lat="15.367965331278038" lon="120.65623056716257"><ele>35.0</ele><time>2026-03-28T12:57:54Z</time></trkpt><trkpt lat="15.368192151139278" lon="120.65634253822758"><ele>34.5</ele><time>2026-03-28T12:57:55Z</time></trkpt><trkpt lat="15.368422878333787" lon="120.6564549912736"><ele>34.0</ele><time>2026-03-28T12:57:56Z</time></trkpt><trkpt lat="15.36865453052451" lon="120.65656736054316"><ele>34.5</ele><time>2026-03-28T12:57:57Z</time></trkpt><trkpt lat="15.368889627939545" lon="120.65668069011498"><ele>35.0</ele><time>2026-03-28T12:57:58Z</time></trkpt><trkpt lat="15.369118560978947" lon="120.6567785263284"><ele>35.0</ele><time>2026-03-28T12:57:59Z</time></trkpt><trkpt lat="15.36935099214319" lon="120.65688158366896"><ele>35.0</ele><time>2026-03-28T12:58:00Z</time></trkpt><trkpt lat="15.369580886057253" lon="120.656981721235"><ele>34.5</ele><time>2026-03-28T12:58:01Z</time></trkpt><trkpt lat="15.369815239893592" lon="120.65708272294852"><ele>34.0</ele><time>2026-03-28T12:58:02Z</time></trkpt><trkpt lat="15.370049819971742" lon="120.65718472789753"><ele>34.0</ele><time>2026-03-28T12:58:03Z</time></trkpt><trkpt lat="15.370287136640622" lon="120.65728296547759"><ele>34.0</ele><time>2026-03-28T12:58:04Z</time></trkpt><trkpt lat="15.370514814590111" lon="120.65736754644176"><ele>33.5</ele><time>2026-03-28T12:58:05Z</time></trkpt><trkpt lat="15.370750558908648" lon="120.65746083346413"><ele>33.0</ele><time>2026-03-28T12:58:06Z</time></trkpt><trkpt lat="15.370984877146038" lon="120.65755520174365"><ele>33.0</ele><time>2026-03-28T12:58:07Z</time></trkpt><trkpt lat="15.37121752247103" lon="120.65765487629237"><ele>33.0</ele><time>2026-03-28T12:58:08Z</time></trkpt><trkpt lat="15.371445092209635" lon="120.65773007914659"><ele>34.0</ele><time>2026-03-28T12:58:09Z</time></trkpt><trkpt lat="15.371689222005022" lon="120.65781934726479"><ele>35.0</ele><time>2026-03-28T12:58:10Z</time></trkpt><trkpt lat="15.371928230054616" lon="120.65791001307099"><ele>35.0</ele><time>2026-03-28T12:58:11Z</time></trkpt><trkpt lat="15.372171868857023" lon="120.65798804104074"><ele>35.0</ele><time>2026-03-28T12:58:12Z</time></trkpt><trkpt lat="15.372414684239546" lon="120.6580731083512"><ele>35.0</ele><time>2026-03-28T12:58:13Z</time></trkpt><trkpt lat="15.372651485587147" lon="120.65815353763783"><ele>35.0</ele><time>2026-03-28T12:58:14Z</time></trkpt><trkpt lat="15.372892322020773" lon="120.65822981232526"><ele>34.5</ele><time>2026-03-28T12:58:15Z</time></trkpt><trkpt lat="15.37313470098435" lon="120.65830188372516"><ele>34.0</ele><time>2026-03-28T12:58:16Z</time></trkpt><trkpt lat="15.373382123806694" lon="120.65837985113114"><ele>34.0</ele><time>2026-03-28T12:58:17Z</time></trkpt><trkpt lat="15.373621048768927" lon="120.65845063936523"><ele>34.0</ele><time>2026-03-28T12:58:18Z</time></trkpt><trkpt lat="15.373866389157714" lon="120.65851765896237"><ele>34.0</ele><time>2026-03-28T12:58:19Z</time></trkpt><trkpt lat="15.374112646488639" lon="120.65858161567981"><ele>34.0</ele><time>2026-03-28T12:58:20Z</time></trkpt><trkpt lat="15.374348918962854" lon="120.65864670337452"><ele>34.0</ele><time>2026-03-28T12:58:21Z</time></trkpt><trkpt lat="15.37458395017957" lon="120.65869946705625"><ele>34.0</ele><time>2026-03-28T12:58:22Z</time></trkpt><trkpt lat="15.374825630160522" lon="120.65876144066388"><ele>33.5</ele><time>2026-03-28T12:58:23Z</time></trkpt><trkpt lat="15.375061784721906" lon="120.65881473051027"><ele>33.0</ele><time>2026-03-28T12:58:24Z</time></trkpt><trkpt lat="15.375292770372878" lon="120.65886685670425"><ele>33.5</ele><time>2026-03-28T12:58:25Z</time></trkpt><trkpt lat="15.375527571257615" lon="120.65891823949767"><ele>34.0</ele><time>2026-03-28T12:58:26Z</time></trkpt><trkpt lat="15.375762047947847" lon="120.65896107705125"><ele>34.0</ele><time>2026-03-28T12:58:27Z</time></trkpt><trkpt lat="15.37599591829394" lon="120.6590148542308"><ele>34.0</ele><time>2026-03-28T12:58:28Z</time></trkpt><trkpt lat="15.376242648255147" lon="120.65908500530162"><ele>33.5</ele><time>2026-03-28T12:58:29Z</time></trkpt><trkpt lat="15.376481283937732" lon="120.65913895407513"><ele>33.0</ele><time>2026-03-28T12:58:30Z</time></trkpt><trkpt lat="15.376725548906064" lon="120.65919254905978"><ele>33.0</ele><time>2026-03-28T12:58:31Z</time></trkpt><trkpt lat="15.376960369693501" lon="120.65924716816562"><ele>33.0</ele><time>2026-03-28T12:58:32Z</time></trkpt><trkpt lat="15.377200197069335" lon="120.6592996387408"><ele>34.0</ele><time>2026-03-28T12:58:33Z</time></trkpt><trkpt lat="15.377439088015015" lon="120.65934792049417"><ele>35.0</ele><time>2026-03-28T12:58:34Z</time></trkpt><trkpt lat="15.377679212645935" lon="120.65939408927404"><ele>35.0</ele><time>2026-03-28T12:58:35Z</time></trkpt><trkpt lat="15.377921855751664" lon="120.65943260414231"><ele>35.0</ele><time>2026-03-28T12:58:36Z</time></trkpt><trkpt lat="15.37815931375999" lon="120.65946171402733"><ele>35.0</ele><time>2026-03-28T12:58:37Z</time></trkpt><trkpt lat="15.378407544191779" lon="120.65949813781378"><ele>35.0</ele><time>2026-03-28T12:58:38Z</time></trkpt><trkpt lat="15.378647711903959" lon="120.65954047644446"><ele>35.0</ele><time>2026-03-28T12:58:39Z</time></trkpt><trkpt lat="15.378868103334767" lon="120.65956114160758"><ele>35.0</ele><time>2026-03-28T12:58:40Z</time></trkpt><trkpt lat="15.379097726042032" lon="120.65959008192029"><ele>35.0</ele><time>2026-03-28T12:58:41Z</time></trkpt><trkpt lat="15.37933338844204" lon="120.65963072406777"><ele>35.0</ele><time>2026-03-28T12:58:42Z</time></trkpt><trkpt lat="15.379561620518418" lon="120.65965699805258"><ele>34.33333333333333</ele><time>2026-03-28T12:58:43Z</time></trkpt><trkpt lat="15.3797839824512" lon="120.65967822401137"><ele>33.666666666666664</ele><time>2026-03-28T12:58:44Z</time></trkpt><trkpt lat="15.380003461991896" lon="120.65969985149948"><ele>33.0</ele><time>2026-03-28T12:58:45Z</time></trkpt><trkpt lat="15.380214156590283" lon="120.65972275488231"><ele>33.0</ele><time>2026-03-28T12:58:46Z</time></trkpt><trkpt lat="15.38043282624452" lon="120.65974116572363"><ele>33.0</ele><time>2026-03-28T12:58:47Z</time></trkpt><trkpt lat="15.380651774929596" lon="120.6597595688607"><ele>33.0</ele><time>2026-03-28T12:58:48Z</time></trkpt><trkpt lat="15.380865657483884" lon="120.65977877199099"><ele>33.0</ele><time>2026-03-28T12:58:49Z</time></trkpt><trkpt lat="15.381085660273941" lon="120.65979704451755"><ele>33.0</ele><time>2026-03-28T12:58:50Z</time></trkpt><trkpt lat="15.381301749523363" lon="120.65981615164054"><ele>33.0</ele><time>2026-03-28T12:58:51Z</time></trkpt><trkpt lat="15.381523855080745" lon="120.65982858361846"><ele>33.666666666666664</ele><time>2026-03-28T12:58:52Z</time></trkpt><trkpt lat="15.381739368411814" lon="120.65984286571175"><ele>34.33333333333333</ele><time>2026-03-28T12:58:53Z</time></trkpt><trkpt lat="15.381958048592283" lon="120.65985290364938"><ele>35.0</ele><time>2026-03-28T12:58:54Z</time></trkpt><trkpt lat="15.382178351529916" lon="120.65986413770595"><ele>35.33333333333333</ele><time>2026-03-28T12:58:55Z</time></trkpt><trkpt lat="15.382399125709645" lon="120.65987215039604"><ele>35.666666666666664</ele><time>2026-03-28T12:58:56Z</time></trkpt><trkpt lat="15.38261678486863" lon="120.6598777808105"><ele>36.0</ele><time>2026-03-28T12:58:57Z</time></trkpt><trkpt lat="15.3828375987698" lon="120.6598880524937"><ele>36.0</ele><time>2026-03-28T12:58:58Z</time></trkpt><trkpt lat="15.383062052369528" lon="120.65989638560849"><ele>36.0</ele><time>2026-03-28T12:58:59Z</time></trkpt><trkpt lat="15.383283017203587" lon="120.65989085203849"><ele>36.0</ele><time>2026-03-28T12:59:00Z</time></trkpt><trkpt lat="15.383500584282388" lon="120.65989522568823"><ele>36.0</ele><time>2026-03-28T12:59:01Z</time></trkpt><trkpt lat="15.383719769905827" lon="120.65989189501948"><ele>36.0</ele><time>2026-03-28T12:59:02Z</time></trkpt><trkpt lat="15.383941428649383" lon="120.65989490497276"><ele>36.0</ele><time>2026-03-28T12:59:03Z</time></trkpt><trkpt lat="15.384167945455538" lon="120.65989017362546"><ele>36.5</ele><time>2026-03-28T12:59:04Z</time></trkpt><trkpt lat="15.384400168360191" lon="120.659893469215"><ele>37.0</ele><time>2026-03-28T12:59:05Z</time></trkpt><trkpt lat="15.384630569950419" lon="120.6598961865289"><ele>36.5</ele><time>2026-03-28T12:59:06Z</time></trkpt><trkpt lat="15.384867081766119" lon="120.65989768627648"><ele>36.0</ele><time>2026-03-28T12:59:07Z</time></trkpt><trkpt lat="15.385105132841291" lon="120.65989715071872"><ele>36.0</ele><time>2026-03-28T12:59:08Z</time></trkpt><trkpt lat="15.385347919993203" lon="120.65988681649898"><ele>36.0</ele><time>2026-03-28T12:59:09Z</time></trkpt><trkpt lat="15.385589980372119" lon="120.65987852375883"><ele>34.5</ele><time>2026-03-28T12:59:10Z</time></trkpt><trkpt lat="15.385830410165099" lon="120.6598747763128"><ele>33.0</ele><time>2026-03-28T12:59:11Z</time></trkpt><trkpt lat="15.386079244035404" lon="120.65986624170392"><ele>33.0</ele><time>2026-03-28T12:59:12Z</time></trkpt><trkpt lat="15.386327527116839" lon="120.65986163519185"><ele>33.0</ele><time>2026-03-28T12:59:13Z</time></trkpt><trkpt lat="15.386576596496727" lon="120.65985775362256"><ele>33.5</ele><time>2026-03-28T12:59:14Z</time></trkpt><trkpt lat="15.386828957797354" lon="120.65984618008558"><ele>34.0</ele><time>2026-03-28T12:59:15Z</time></trkpt><trkpt lat="15.387084474445658" lon="120.6598444927058"><ele>33.5</ele><time>2026-03-28T12:59:16Z</time></trkpt><trkpt lat="15.387341945957184" lon="120.65984626753475"><ele>33.0</ele><time>2026-03-28T12:59:17Z</time></trkpt><trkpt lat="15.387594096682383" lon="120.65983034796697"><ele>33.0</ele><time>2026-03-28T12:59:18Z</time></trkpt><trkpt lat="15.387848878780897" lon="120.65981654482877"><ele>33.0</ele><time>2026-03-28T12:59:19Z</time></trkpt><trkpt lat="15.388096929237191" lon="120.65979862674384"><ele>32.0</ele><time>2026-03-28T12:59:20Z</time></trkpt><trkpt lat="15.388356472172147" lon="120.6597871216094"><ele>31.0</ele><time>2026-03-28T12:59:21Z</time></trkpt><trkpt lat="15.388611657559503" lon="120.65977681231774"><ele>31.0</ele><time>2026-03-28T12:59:22Z</time></trkpt><trkpt lat="15.388861091167216" lon="120.65976565289166"><ele>31.0</ele><time>2026-03-28T12:59:23Z</time></trkpt><trkpt lat="15.389122105449276" lon="120.65975107701762"><ele>31.0</ele><time>2026-03-28T12:59:24Z</time></trkpt><trkpt lat="15.389378236936746" lon="120.65973009898097"><ele>31.0</ele><time>2026-03-28T12:59:25Z</time></trkpt><trkpt lat="15.389640899871758" lon="120.65971888778529"><ele>32.5</ele><time>2026-03-28T12:59:26Z</time></trkpt><trkpt lat="15.389907057381937" lon="120.65970588432428"><ele>34.0</ele><time>2026-03-28T12:59:27Z</time></trkpt><trkpt lat="15.390177770336003" lon="120.65969181033404"><ele>34.0</ele><time>2026-03-28T12:59:28Z</time></trkpt><trkpt lat="15.390448608645498" lon="120.65967445485775"><ele>34.0</ele><time>2026-03-28T12:59:29Z</time></trkpt><trkpt lat="15.390729202777884" lon="120.65965813361726"><ele>34.0</ele><time>2026-03-28T12:59:30Z</time></trkpt><trkpt lat="15.391002894939206" lon="120.6596462502817"><ele>34.0</ele><time>2026-03-28T12:59:31Z</time></trkpt><trkpt lat="15.391286702629294" lon="120.659644490453"><ele>33.5</ele><time>2026-03-28T12:59:32Z</time></trkpt><trkpt lat="15.391569305963898" lon="120.65963087182708"><ele>33.0</ele><time>2026-03-28T12:59:33Z</time></trkpt><trkpt lat="15.39185085328513" lon="120.65961889124256"><ele>33.0</ele><time>2026-03-28T12:59:34Z</time></trkpt><trkpt lat="15.392137906186989" lon="120.65960612320491"><ele>33.0</ele><time>2026-03-28T12:59:35Z</time></trkpt><trkpt lat="15.392418198836015" lon="120.65959296862133"><ele>33.0</ele><time>2026-03-28T12:59:36Z</time></trkpt><trkpt lat="15.392708000054169" lon="120.65958095585367"><ele>33.0</ele><time>2026-03-28T12:59:37Z</time></trkpt><trkpt lat="15.392986743426093" lon="120.65956549993389"><ele>33.5</ele><time>2026-03-28T12:59:38Z</time></trkpt><trkpt lat="15.393276401508464" lon="120.65955636793446"><ele>34.0</ele><time>2026-03-28T12:59:39Z</time></trkpt><trkpt lat="15.393559160657219" lon="120.65953597821083"><ele>34.0</ele><time>2026-03-28T12:59:40Z</time></trkpt><trkpt lat="15.393840249995703" lon="120.65951703576005"><ele>34.0</ele><time>2026-03-28T12:59:41Z</time></trkpt><trkpt lat="15.394124788918756" lon="120.65949574657823"><ele>34.0</ele><time>2026-03-28T12:59:42Z</time></trkpt><trkpt lat="15.39440399911472" lon="120.65947185610679"><ele>34.0</ele><time>2026-03-28T12:59:43Z</time></trkpt><trkpt lat="15.394692582972617" lon="120.65945768948473"><ele>33.5</ele><time>2026-03-28T12:59:44Z</time></trkpt><trkpt lat="15.394970684541963" lon="120.65944714699606"><ele>33.0</ele><time>2026-03-28T12:59:45Z</time></trkpt><trkpt lat="15.395259083416484" lon="120.6594438680119"><ele>34.0</ele><time>2026-03-28T12:59:46Z</time></trkpt><trkpt lat="15.395534874481095" lon="120.65942928658617"><ele>35.0</ele><time>2026-03-28T12:59:47Z</time></trkpt><trkpt lat="15.395809199204248" lon="120.65941573298959"><ele>35.0</ele><time>2026-03-28T12:59:48Z</time></trkpt><trkpt lat="15.396088850013596" lon="120.65939825248417"><ele>35.0</ele><time>2026-03-28T12:59:49Z</time></trkpt><trkpt lat="15.396369323446107" lon="120.65938397633258"><ele>35.5</ele><time>2026-03-28T12:59:50Z</time></trkpt><trkpt lat="15.396647181579782" lon="120.6593719706084"><ele>36.0</ele><time>2026-03-28T12:59:51Z</time></trkpt><trkpt lat="15.396921203938632" lon="120.65936393828302"><ele>35.5</ele><time>2026-03-28T12:59:52Z</time></trkpt><trkpt lat="15.397194954130033" lon="120.65935154675029"><ele>35.0</ele><time>2026-03-28T12:59:53Z</time></trkpt><trkpt lat="15.397469558159692" lon="120.65934238577022"><ele>35.0</ele><time>2026-03-28T12:59:54Z</time></trkpt><trkpt lat="15.39774131400394" lon="120.65933178338751"><ele>35.0</ele><time>2026-03-28T12:59:55Z</time></trkpt><trkpt lat="15.398012007369932" lon="120.65931372769639"><ele>34.5</ele><time>2026-03-28T12:59:56Z</time></trkpt><trkpt lat="15.398290395092097" lon="120.6592981168063"><ele>34.0</ele><time>2026-03-28T12:59:57Z</time></trkpt><trkpt lat="15.398565185674704" lon="120.65928476100773"><ele>33.5</ele><time>2026-03-28T12:59:58Z</time></trkpt><trkpt lat="15.398841265115495" lon="120.65927312015955"><ele>33.0</ele><time>2026-03-28T12:59:59Z</time></trkpt><trkpt lat="15.399120419115802" lon="120.6592516072354"><ele>33.0</ele><time>2026-03-28T13:00:00Z</time></trkpt><trkpt lat="15.399401545806258" lon="120.65923814375697"><ele>33.0</ele><time>2026-03-28T13:00:01Z</time></trkpt><trkpt lat="15.399696669364296" lon="120.6592384669942"><ele>32.5</ele><time>2026-03-28T13:00:02Z</time></trkpt><trkpt lat="15.39998111453035" lon="120.6592254255938"><ele>32.0</ele><time>2026-03-28T13:00:03Z</time></trkpt><trkpt lat="15.400264462356661" lon="120.65920258361778"><ele>33.0</ele><time>2026-03-28T13:00:04Z</time></trkpt><trkpt lat="15.400544659134594" lon="120.65919049746267"><ele>34.0</ele><time>2026-03-28T13:00:05Z</time></trkpt><trkpt lat="15.400829075323644" lon="120.6591818867318"><ele>34.0</ele><time>2026-03-28T13:00:06Z</time></trkpt><trkpt lat="15.401109497989555" lon="120.65917375399256"><ele>34.0</ele><time>2026-03-28T13:00:07Z</time></trkpt><trkpt lat="15.401389448450066" lon="120.65917075312146"><ele>33.0</ele><time>2026-03-28T13:00:08Z</time></trkpt><trkpt lat="15.401672168019306" lon="120.65917185961277"><ele>32.0</ele><time>2026-03-28T13:00:09Z</time></trkpt><trkpt lat="15.401958313289544" lon="120.65917195758395"><ele>32.0</ele><time>2026-03-28T13:00:10Z</time></trkpt><trkpt lat="15.402244675352737" lon="120.65917644504387"><ele>32.0</ele><time>2026-03-28T13:00:11Z</time></trkpt><trkpt lat="15.402534088497351" lon="120.65917584908281"><ele>32.0</ele><time>2026-03-28T13:00:12Z</time></trkpt><trkpt lat="15.402822418948503" lon="120.6591760492573"><ele>32.0</ele><time>2026-03-28T13:00:13Z</time></trkpt><trkpt lat="15.403103923803146" lon="120.65917803503015"><ele>31.0</ele><time>2026-03-28T13:00:14Z</time></trkpt><trkpt lat="15.403382926263921" lon="120.65917122495142"><ele>30.0</ele><time>2026-03-28T13:00:15Z</time></trkpt><trkpt lat="15.403655048394056" lon="120.65918188676162"><ele>29.5</ele><time>2026-03-28T13:00:16Z</time></trkpt><trkpt lat="15.403933475762736" lon="120.65919645805837"><ele>29.0</ele><time>2026-03-28T13:00:17Z</time></trkpt><trkpt lat="15.404191327959241" lon="120.65919930580269"><ele>29.0</ele><time>2026-03-28T13:00:18Z</time></trkpt><trkpt lat="15.404452152642772" lon="120.65920426587161"><ele>29.0</ele><time>2026-03-28T13:00:19Z</time></trkpt><trkpt lat="15.404706600540017" lon="120.6592091242413"><ele>29.5</ele><time>2026-03-28T13:00:20Z</time></trkpt><trkpt lat="15.404959303629063" lon="120.65922069654677"><ele>30.0</ele><time>2026-03-28T13:00:21Z</time></trkpt><trkpt lat="15.40520538392598" lon="120.65922969737466"><ele>30.0</ele><time>2026-03-28T13:00:22Z</time></trkpt><trkpt lat="15.4054534025597" lon="120.65923931360265"><ele>30.0</ele><time>2026-03-28T13:00:23Z</time></trkpt><trkpt lat="15.405697719913833" lon="120.65925355566374"><ele>30.0</ele><time>2026-03-28T13:00:24Z</time></trkpt><trkpt lat="15.40594563337588" lon="120.65926508213873"><ele>30.0</ele><time>2026-03-28T13:00:25Z</time></trkpt><trkpt lat="15.406185510634412" lon="120.65927896560993"><ele>31.0</ele><time>2026-03-28T13:00:26Z</time></trkpt><trkpt lat="15.40642977006007" lon="120.65930088123004"><ele>32.0</ele><time>2026-03-28T13:00:27Z</time></trkpt><trkpt lat="15.40667406598595" lon="120.65932205076422"><ele>32.0</ele><time>2026-03-28T13:00:28Z</time></trkpt><trkpt lat="15.406921432482115" lon="120.65933545487084"><ele>32.0</ele><time>2026-03-28T13:00:29Z</time></trkpt><trkpt lat="15.407158180609224" lon="120.65935435553692"><ele>30.5</ele><time>2026-03-28T13:00:30Z</time></trkpt><trkpt lat="15.40739299823349" lon="120.65936707605873"><ele>29.0</ele><time>2026-03-28T13:00:31Z</time></trkpt><trkpt lat="15.407625300269673" lon="120.65938695311745"><ele>29.0</ele><time>2026-03-28T13:00:32Z</time></trkpt><trkpt lat="15.407852901344764" lon="120.6593987874798"><ele>29.0</ele><time>2026-03-28T13:00:33Z</time></trkpt><trkpt lat="15.408080320544903" lon="120.65941832014343"><ele>30.0</ele><time>2026-03-28T13:00:34Z</time></trkpt><trkpt lat="15.408310666462533" lon="120.6594399737591"><ele>31.0</ele><time>2026-03-28T13:00:35Z</time></trkpt><trkpt lat="15.408534637199956" lon="120.6594549728669"><ele>31.0</ele><time>2026-03-28T13:00:36Z</time></trkpt><trkpt lat="15.40876302138367" lon="120.65947322355"><ele>31.0</ele><time>2026-03-28T13:00:37Z</time></trkpt><trkpt lat="15.4089825033645" lon="120.65947917868804"><ele>31.0</ele><time>2026-03-28T13:00:38Z</time></trkpt><trkpt lat="15.409212192724162" lon="120.6594979164148"><ele>31.0</ele><time>2026-03-28T13:00:39Z</time></trkpt><trkpt lat="15.409438628906054" lon="120.65951534507603"><ele>31.0</ele><time>2026-03-28T13:00:40Z</time></trkpt><trkpt lat="15.409669372027938" lon="120.6595352413883"><ele>31.5</ele><time>2026-03-28T13:00:41Z</time></trkpt><trkpt lat="15.409890574104661" lon="120.659538029227"><ele>32.0</ele><time>2026-03-28T13:00:42Z</time></trkpt><trkpt lat="15.410128132352018" lon="120.65957123806463"><ele>32.0</ele><time>2026-03-28T13:00:43Z</time></trkpt><trkpt lat="15.410368377424854" lon="120.6596009490592"><ele>32.0</ele><time>2026-03-28T13:00:44Z</time></trkpt><trkpt lat="15.410614041551883" lon="120.65963033183331"><ele>31.0</ele><time>2026-03-28T13:00:45Z</time></trkpt><trkpt lat="15.410855492046673" lon="120.6596650394427"><ele>30.0</ele><time>2026-03-28T13:00:46Z</time></trkpt><trkpt lat="15.411098344510577" lon="120.65971082342635"><ele>30.5</ele><time>2026-03-28T13:00:47Z</time></trkpt><trkpt lat="15.411344802232199" lon="120.65974582082639"><ele>31.0</ele><time>2026-03-28T13:00:48Z</time></trkpt><trkpt lat="15.411592434519193" lon="120.65976968801601"><ele>31.0</ele><time>2026-03-28T13:00:49Z</time></trkpt><trkpt lat="15.411847932869371" lon="120.65980499846722"><ele>31.0</ele><time>2026-03-28T13:00:50Z</time></trkpt><trkpt lat="15.412100819227904" lon="120.65984612141696"><ele>31.5</ele><time>2026-03-28T13:00:51Z</time></trkpt><trkpt lat="15.412353570403564" lon="120.659890344989"><ele>32.0</ele><time>2026-03-28T13:00:52Z</time></trkpt><trkpt lat="15.412612678303006" lon="120.65991361726367"><ele>32.0</ele><time>2026-03-28T13:00:53Z</time></trkpt><trkpt lat="15.412867211063897" lon="120.65995360653528"><ele>32.0</ele><time>2026-03-28T13:00:54Z</time></trkpt><trkpt lat="15.413125748739576" lon="120.65999706275358"><ele>33.0</ele><time>2026-03-28T13:00:55Z</time></trkpt><trkpt lat="15.413385828413187" lon="120.66003183797267"><ele>34.0</ele><time>2026-03-28T13:00:56Z</time></trkpt><trkpt lat="15.41364615203525" lon="120.66007837433187"><ele>36.0</ele><time>2026-03-28T13:00:57Z</time></trkpt><trkpt lat="15.413906591914312" lon="120.66011572522476"><ele>38.0</ele><time>2026-03-28T13:00:58Z</time></trkpt><trkpt lat="15.414166926847834" lon="120.66015704619811"><ele>38.0</ele><time>2026-03-28T13:00:59Z</time></trkpt><trkpt lat="15.41442385825043" lon="120.66020211363345"><ele>38.0</ele><time>2026-03-28T13:01:00Z</time></trkpt><trkpt lat="15.41468234174896" lon="120.66024997746149"><ele>36.5</ele><time>2026-03-28T13:01:01Z</time></trkpt><trkpt lat="15.414943043466048" lon="120.66029118673116"><ele>35.0</ele><time>2026-03-28T13:01:02Z</time></trkpt><trkpt lat="15.415211126804529" lon="120.66034053584214"><ele>35.0</ele><time>2026-03-28T13:01:03Z</time></trkpt><trkpt lat="15.41547093013647" lon="120.6603881893688"><ele>35.0</ele><time>2026-03-28T13:01:04Z</time></trkpt><trkpt lat="15.415731477981334" lon="120.6604442315558"><ele>34.5</ele><time>2026-03-28T13:01:05Z</time></trkpt><trkpt lat="15.415996185363877" lon="120.660501047404"><ele>34.0</ele><time>2026-03-28T13:01:06Z</time></trkpt><trkpt lat="15.416259610504257" lon="120.66055242919361"><ele>34.0</ele><time>2026-03-28T13:01:07Z</time></trkpt><trkpt lat="15.416523727203034" lon="120.66060305824908"><ele>34.0</ele><time>2026-03-28T13:01:08Z</time></trkpt><trkpt lat="15.41678907476535" lon="120.66063901713783"><ele>34.0</ele><time>2026-03-28T13:01:09Z</time></trkpt><trkpt lat="15.417050739834005" lon="120.66068888927789"><ele>34.0</ele><time>2026-03-28T13:01:10Z</time></trkpt><trkpt lat="15.417309731320625" lon="120.6607474951924"><ele>32.5</ele><time>2026-03-28T13:01:11Z</time></trkpt><trkpt lat="15.417573231434812" lon="120.66081569449757"><ele>31.0</ele><time>2026-03-28T13:01:12Z</time></trkpt><trkpt lat="15.417830850120245" lon="120.66088726277694"><ele>31.5</ele><time>2026-03-28T13:01:13Z</time></trkpt><trkpt lat="15.418092469823097" lon="120.66094317597354"><ele>32.0</ele><time>2026-03-28T13:01:14Z</time></trkpt><trkpt lat="15.41835654894981" lon="120.66101315755306"><ele>32.0</ele><time>2026-03-28T13:01:15Z</time></trkpt><trkpt lat="15.418627907650116" lon="120.66108065374073"><ele>32.0</ele><time>2026-03-28T13:01:16Z</time></trkpt><trkpt lat="15.418906131122213" lon="120.66115268818827"><ele>31.5</ele><time>2026-03-28T13:01:17Z</time></trkpt><trkpt lat="15.419182541005053" lon="120.66122024141524"><ele>31.0</ele><time>2026-03-28T13:01:18Z</time></trkpt><trkpt lat="15.41946241157685" lon="120.66129825447668"><ele>32.5</ele><time>2026-03-28T13:01:19Z</time></trkpt><trkpt lat="15.419747904806062" lon="120.66137004050192"><ele>34.0</ele><time>2026-03-28T13:01:20Z</time></trkpt><trkpt lat="15.420037382952293" lon="120.66144129545488"><ele>34.0</ele><time>2026-03-28T13:01:21Z</time></trkpt><trkpt lat="15.42031835688663" lon="120.66151788122019"><ele>34.0</ele><time>2026-03-28T13:01:22Z</time></trkpt><trkpt lat="15.42059793347483" lon="120.66158707313024"><ele>34.0</ele><time>2026-03-28T13:01:23Z</time></trkpt><trkpt lat="15.42087620318397" lon="120.66166371919549"><ele>34.0</ele><time>2026-03-28T13:01:24Z</time></trkpt><trkpt lat="15.421144568931533" lon="120.66172192220978"><ele>34.0</ele><time>2026-03-28T13:01:25Z</time></trkpt><trkpt lat="15.421414770869863" lon="120.66179861248406"><ele>34.0</ele><time>2026-03-28T13:01:26Z</time></trkpt><trkpt lat="15.421663640797826" lon="120.66187162332892"><ele>34.0</ele><time>2026-03-28T13:01:27Z</time></trkpt><trkpt lat="15.42191835126435" lon="120.66194423426006"><ele>34.0</ele><time>2026-03-28T13:01:28Z</time></trkpt><trkpt lat="15.422163029528173" lon="120.66200892548277"><ele>34.0</ele><time>2026-03-28T13:01:29Z</time></trkpt><trkpt lat="15.422412308460931" lon="120.66208139627427"><ele>34.0</ele><time>2026-03-28T13:01:30Z</time></trkpt><trkpt lat="15.422666475707802" lon="120.66214937098185"><ele>34.0</ele><time>2026-03-28T13:01:31Z</time></trkpt><trkpt lat="15.422916884943053" lon="120.6622200653218"><ele>34.0</ele><time>2026-03-28T13:01:32Z</time></trkpt><trkpt lat="15.423165677484365" lon="120.66229996042007"><ele>33.0</ele><time>2026-03-28T13:01:33Z</time></trkpt><trkpt lat="15.423407516178523" lon="120.66237561391006"><ele>32.0</ele><time>2026-03-28T13:01:34Z</time></trkpt><trkpt lat="15.4236486629813" lon="120.662451642069"><ele>31.5</ele><time>2026-03-28T13:01:35Z</time></trkpt><trkpt lat="15.423894782685286" lon="120.66251775574933"><ele>31.0</ele><time>2026-03-28T13:01:36Z</time></trkpt><trkpt lat="15.424137653163013" lon="120.66260221451908"><ele>31.0</ele><time>2026-03-28T13:01:37Z</time></trkpt><trkpt lat="15.424379136811602" lon="120.66267927582562"><ele>31.0</ele><time>2026-03-28T13:01:38Z</time></trkpt><trkpt lat="15.424625090701904" lon="120.66276114682418"><ele>31.5</ele><time>2026-03-28T13:01:39Z</time></trkpt><trkpt lat="15.424872858680352" lon="120.6628430055273"><ele>32.0</ele><time>2026-03-28T13:01:40Z</time></trkpt><trkpt lat="15.425121307076743" lon="120.66292524112951"><ele>32.0</ele><time>2026-03-28T13:01:41Z</time></trkpt><trkpt lat="15.42536551105076" lon="120.66301329244949"><ele>32.0</ele><time>2026-03-28T13:01:42Z</time></trkpt><trkpt lat="15.425610175753603" lon="120.66310260561245"><ele>32.0</ele><time>2026-03-28T13:01:43Z</time></trkpt><trkpt lat="15.425860049596416" lon="120.66318810082016"><ele>32.0</ele><time>2026-03-28T13:01:44Z</time></trkpt><trkpt lat="15.426112577864986" lon="120.66327764370789"><ele>31.5</ele><time>2026-03-28T13:01:45Z</time></trkpt><trkpt lat="15.426363769698112" lon="120.66337154849943"><ele>31.0</ele><time>2026-03-28T13:01:46Z</time></trkpt><trkpt lat="15.426619690709886" lon="120.66347358361998"><ele>31.0</ele><time>2026-03-28T13:01:47Z</time></trkpt><trkpt lat="15.426870363259761" lon="120.66356590765815"><ele>31.0</ele><time>2026-03-28T13:01:48Z</time></trkpt><trkpt lat="15.427129627677695" lon="120.66365825516125"><ele>31.0</ele><time>2026-03-28T13:01:49Z</time></trkpt><trkpt lat="15.427390276213966" lon="120.66375184330211"><ele>31.0</ele><time>2026-03-28T13:01:50Z</time></trkpt><trkpt lat="15.427645040699522" lon="120.66384120263356"><ele>31.0</ele><time>2026-03-28T13:01:51Z</time></trkpt><trkpt lat="15.427902544782476" lon="120.66392664607244"><ele>31.0</ele><time>2026-03-28T13:01:52Z</time></trkpt><trkpt lat="15.428171475151466" lon="120.66402281402075"><ele>31.0</ele><time>2026-03-28T13:01:53Z</time></trkpt><trkpt lat="15.428439330634145" lon="120.66411177500468"><ele>31.0</ele><time>2026-03-28T13:01:54Z</time></trkpt><trkpt lat="15.428713535109628" lon="120.66420062286745"><ele>31.5</ele><time>2026-03-28T13:01:55Z</time></trkpt><trkpt lat="15.428992319396352" lon="120.66430729800477"><ele>32.0</ele><time>2026-03-28T13:01:56Z</time></trkpt><trkpt lat="15.429265601785463" lon="120.66440695629073"><ele>32.0</ele><time>2026-03-28T13:01:57Z</time></trkpt><trkpt lat="15.429540536077557" lon="120.66450073947973"><ele>32.0</ele><time>2026-03-28T13:01:58Z</time></trkpt><trkpt lat="15.429816762676506" lon="120.66460722765494"><ele>31.5</ele><time>2026-03-28T13:01:59Z</time></trkpt><trkpt lat="15.430093148422495" lon="120.66470101116172"><ele>31.0</ele><time>2026-03-28T13:02:00Z</time></trkpt><trkpt lat="15.43036899282713" lon="120.66479204401419"><ele>32.0</ele><time>2026-03-28T13:02:01Z</time></trkpt><trkpt lat="15.430648538877229" lon="120.66489897587186"><ele>33.0</ele><time>2026-03-28T13:02:02Z</time></trkpt><trkpt lat="15.430930032302838" lon="120.66500047000899"><ele>33.0</ele><time>2026-03-28T13:02:03Z</time></trkpt><trkpt lat="15.431206871765932" lon="120.66509577266562"><ele>33.0</ele><time>2026-03-28T13:02:04Z</time></trkpt><trkpt lat="15.43148749211931" lon="120.66518961081582"><ele>32.0</ele><time>2026-03-28T13:02:05Z</time></trkpt><trkpt lat="15.431771793177056" lon="120.66528893835016"><ele>31.0</ele><time>2026-03-28T13:02:06Z</time></trkpt><trkpt lat="15.432057940751118" lon="120.66539046681801"><ele>31.5</ele><time>2026-03-28T13:02:07Z</time></trkpt><trkpt lat="15.432335923579844" lon="120.66548347714114"><ele>32.0</ele><time>2026-03-28T13:02:08Z</time></trkpt><trkpt lat="15.432618163697366" lon="120.66558144307675"><ele>32.0</ele><time>2026-03-28T13:02:09Z</time></trkpt><trkpt lat="15.432899644806582" lon="120.665673267668"><ele>32.0</ele><time>2026-03-28T13:02:10Z</time></trkpt><trkpt lat="15.433189183246478" lon="120.66577778937861"><ele>32.5</ele><time>2026-03-28T13:02:11Z</time></trkpt><trkpt lat="15.4334676063811" lon="120.66587237221097"><ele>33.0</ele><time>2026-03-28T13:02:12Z</time></trkpt><trkpt lat="15.433756191882399" lon="120.66597853100015"><ele>32.5</ele><time>2026-03-28T13:02:13Z</time></trkpt><trkpt lat="15.434044493560908" lon="120.66607469842566"><ele>32.0</ele><time>2026-03-28T13:02:14Z</time></trkpt><trkpt lat="15.4343313311535" lon="120.66617871867457"><ele>32.0</ele><time>2026-03-28T13:02:15Z</time></trkpt><trkpt lat="15.434625239321292" lon="120.66627993276778"><ele>32.0</ele><time>2026-03-28T13:02:16Z</time></trkpt><trkpt lat="15.434910743004094" lon="120.666380231722"><ele>32.0</ele><time>2026-03-28T13:02:17Z</time></trkpt><trkpt lat="15.435189361700983" lon="120.6664867842799"><ele>32.0</ele><time>2026-03-28T13:02:18Z</time></trkpt><trkpt lat="15.435487176836586" lon="120.66659695610295"><ele>32.0</ele><time>2026-03-28T13:02:19Z</time></trkpt><trkpt lat="15.435787596851792" lon="120.66670529804331"><ele>32.0</ele><time>2026-03-28T13:02:20Z</time></trkpt><trkpt lat="15.436096056426589" lon="120.66681827170717"><ele>32.0</ele><time>2026-03-28T13:02:21Z</time></trkpt><trkpt lat="15.436403633458966" lon="120.66692614997748"><ele>32.0</ele><time>2026-03-28T13:02:22Z</time></trkpt><trkpt lat="15.436716069032265" lon="120.66702082864332"><ele>32.0</ele><time>2026-03-28T13:02:23Z</time></trkpt><trkpt lat="15.437024174675079" lon="120.6671705387953"><ele>32.0</ele><time>2026-03-28T13:02:24Z</time></trkpt><trkpt lat="15.43734433364996" lon="120.66728026081684"><ele>32.0</ele><time>2026-03-28T13:02:25Z</time></trkpt><trkpt lat="15.437655856514603" lon="120.66739266709416"><ele>32.0</ele><time>2026-03-28T13:02:26Z</time></trkpt><trkpt lat="15.437976266889947" lon="120.66748499319479"><ele>31.5</ele><time>2026-03-28T13:02:27Z</time></trkpt><trkpt lat="15.438288552163225" lon="120.66759644372752"><ele>31.0</ele><time>2026-03-28T13:02:28Z</time></trkpt><trkpt lat="15.438603618824667" lon="120.66770496441"><ele>31.5</ele><time>2026-03-28T13:02:29Z</time></trkpt><trkpt lat="15.43891615571458" lon="120.66780179074198"><ele>32.0</ele><time>2026-03-28T13:02:30Z</time></trkpt><trkpt lat="15.439233329441677" lon="120.66789875840287"><ele>32.0</ele><time>2026-03-28T13:02:31Z</time></trkpt><trkpt lat="15.439539997244415" lon="120.66800547464028"><ele>32.0</ele><time>2026-03-28T13:02:32Z</time></trkpt><trkpt lat="15.439854733348204" lon="120.6681176635608"><ele>32.0</ele><time>2026-03-28T13:02:33Z</time></trkpt><trkpt lat="15.440164195234049" lon="120.66821357786102"><ele>32.0</ele><time>2026-03-28T13:02:34Z</time></trkpt><trkpt lat="15.440475257026621" lon="120.66832161938117"><ele>31.0</ele><time>2026-03-28T13:02:35Z</time></trkpt><trkpt lat="15.440778753971143" lon="120.66843296415901"><ele>30.0</ele><time>2026-03-28T13:02:36Z</time></trkpt><trkpt lat="15.441083593346729" lon="120.66853609764482"><ele>29.5</ele><time>2026-03-28T13:02:37Z</time></trkpt><trkpt lat="15.4413883461083" lon="120.66865116227301"><ele>29.0</ele><time>2026-03-28T13:02:38Z</time></trkpt><trkpt lat="15.441692410587185" lon="120.66876379437142"><ele>29.0</ele><time>2026-03-28T13:02:39Z</time></trkpt><trkpt lat="15.441995403300956" lon="120.6688696546751"><ele>29.0</ele><time>2026-03-28T13:02:40Z</time></trkpt><trkpt lat="15.442303979747797" lon="120.6689814320356"><ele>28.5</ele><time>2026-03-28T13:02:41Z</time></trkpt><trkpt lat="15.442601916064852" lon="120.66908775916703"><ele>28.0</ele><time>2026-03-28T13:02:42Z</time></trkpt><trkpt lat="15.442904094094647" lon="120.6691904973167"><ele>30.0</ele><time>2026-03-28T13:02:43Z</time></trkpt><trkpt lat="15.443203787705304" lon="120.66929121023138"><ele>32.0</ele><time>2026-03-28T13:02:44Z</time></trkpt><trkpt lat="15.44350340490281" lon="120.66939060322564"><ele>31.0</ele><time>2026-03-28T13:02:45Z</time></trkpt><trkpt lat="15.443803087051428" lon="120.66949685205662"><ele>30.0</ele><time>2026-03-28T13:02:46Z</time></trkpt><trkpt lat="15.444101589151705" lon="120.66961995503866"><ele>30.0</ele><time>2026-03-28T13:02:47Z</time></trkpt><trkpt lat="15.444401124710492" lon="120.66972194898997"><ele>30.0</ele><time>2026-03-28T13:02:48Z</time></trkpt><trkpt lat="15.444690917142395" lon="120.66981282853153"><ele>29.5</ele><time>2026-03-28T13:02:49Z</time></trkpt><trkpt lat="15.444977484501983" lon="120.66991156462869"><ele>29.0</ele><time>2026-03-28T13:02:50Z</time></trkpt><trkpt lat="15.445257518919558" lon="120.67001043222317"><ele>28.5</ele><time>2026-03-28T13:02:51Z</time></trkpt><trkpt lat="15.445533723101542" lon="120.67010351958818"><ele>28.0</ele><time>2026-03-28T13:02:52Z</time></trkpt><trkpt lat="15.445818583896587" lon="120.6702007582152"><ele>28.5</ele><time>2026-03-28T13:02:53Z</time></trkpt><trkpt lat="15.446094066614634" lon="120.6702989981641"><ele>29.0</ele><time>2026-03-28T13:02:54Z</time></trkpt><trkpt lat="15.446364404327584" lon="120.67038115308637"><ele>29.5</ele><time>2026-03-28T13:02:55Z</time></trkpt><trkpt lat="15.446638701957243" lon="120.67047446381015"><ele>30.0</ele><time>2026-03-28T13:02:56Z</time></trkpt><trkpt lat="15.446909601176879" lon="120.67057146378575"><ele>30.0</ele><time>2026-03-28T13:02:57Z</time></trkpt><trkpt lat="15.447180663971706" lon="120.67066501216962"><ele>30.0</ele><time>2026-03-28T13:02:58Z</time></trkpt><trkpt lat="15.447447940057005" lon="120.67075999336579"><ele>30.0</ele><time>2026-03-28T13:02:59Z</time></trkpt><trkpt lat="15.447715037632708" lon="120.67085467179726"><ele>30.0</ele><time>2026-03-28T13:03:00Z</time></trkpt><trkpt lat="15.447987776898861" lon="120.6709526118118"><ele>29.5</ele><time>2026-03-28T13:03:01Z</time></trkpt><trkpt lat="15.44825280360371" lon="120.67104712975248"><ele>29.0</ele><time>2026-03-28T13:03:02Z</time></trkpt><trkpt lat="15.448524012469253" lon="120.67113399420504"><ele>29.0</ele><time>2026-03-28T13:03:03Z</time></trkpt><trkpt lat="15.448786509187284" lon="120.6712243798034"><ele>29.0</ele><time>2026-03-28T13:03:04Z</time></trkpt><trkpt lat="15.449048146125625" lon="120.67131676417517"><ele>28.5</ele><time>2026-03-28T13:03:05Z</time></trkpt><trkpt lat="15.44931327747302" lon="120.67140371271623"><ele>28.0</ele><time>2026-03-28T13:03:06Z</time></trkpt><trkpt lat="15.449575447844769" lon="120.67149344987709"><ele>28.5</ele><time>2026-03-28T13:03:07Z</time></trkpt><trkpt lat="15.449842167565823" lon="120.67158549573429"><ele>29.0</ele><time>2026-03-28T13:03:08Z</time></trkpt><trkpt lat="15.45010827022379" lon="120.67167640948368"><ele>29.0</ele><time>2026-03-28T13:03:09Z</time></trkpt><trkpt lat="15.45037043415309" lon="120.67177244431174"><ele>29.0</ele><time>2026-03-28T13:03:10Z</time></trkpt><trkpt lat="15.450629732317127" lon="120.67186027796784"><ele>29.5</ele><time>2026-03-28T13:03:11Z</time></trkpt><trkpt lat="15.450892005451438" lon="120.67194303193536"><ele>30.0</ele><time>2026-03-28T13:03:12Z</time></trkpt><trkpt lat="15.451145987987234" lon="120.67202816493874"><ele>29.0</ele><time>2026-03-28T13:03:13Z</time></trkpt><trkpt lat="15.4513962290885" lon="120.67210945203307"><ele>28.0</ele><time>2026-03-28T13:03:14Z</time></trkpt><trkpt lat="15.451655387411" lon="120.6721981036395"><ele>28.0</ele><time>2026-03-28T13:03:15Z</time></trkpt><trkpt lat="15.45191531968668" lon="120.67229472656557"><ele>28.0</ele><time>2026-03-28T13:03:16Z</time></trkpt><trkpt lat="15.452166527885609" lon="120.67238125510461"><ele>29.0</ele><time>2026-03-28T13:03:17Z</time></trkpt><trkpt lat="15.452414287738852" lon="120.6724641823799"><ele>30.0</ele><time>2026-03-28T13:03:18Z</time></trkpt><trkpt lat="15.452668248628765" lon="120.67255603622064"><ele>30.0</ele><time>2026-03-28T13:03:19Z</time></trkpt><trkpt lat="15.452915628857054" lon="120.67264384541387"><ele>30.0</ele><time>2026-03-28T13:03:20Z</time></trkpt><trkpt lat="15.453162235923262" lon="120.67273335911854"><ele>29.0</ele><time>2026-03-28T13:03:21Z</time></trkpt><trkpt lat="15.453407752447708" lon="120.67281977962062"><ele>28.0</ele><time>2026-03-28T13:03:22Z</time></trkpt><trkpt lat="15.453654108616128" lon="120.67290576324963"><ele>28.0</ele><time>2026-03-28T13:03:23Z</time></trkpt><trkpt lat="15.453900755820305" lon="120.67298867630862"><ele>28.0</ele><time>2026-03-28T13:03:24Z</time></trkpt><trkpt lat="15.454144014974718" lon="120.6730757239787"><ele>28.0</ele><time>2026-03-28T13:03:25Z</time></trkpt><trkpt lat="15.454388659670055" lon="120.67316354194033"><ele>28.0</ele><time>2026-03-28T13:03:26Z</time></trkpt><trkpt lat="15.454631241304632" lon="120.67325609015194"><ele>28.0</ele><time>2026-03-28T13:03:27Z</time></trkpt><trkpt lat="15.454874351744978" lon="120.67333507214268"><ele>28.0</ele><time>2026-03-28T13:03:28Z</time></trkpt><trkpt lat="15.45511556539888" lon="120.67342328616718"><ele>28.0</ele><time>2026-03-28T13:03:29Z</time></trkpt><trkpt lat="15.455355887226661" lon="120.67350188946156"><ele>28.0</ele><time>2026-03-28T13:03:30Z</time></trkpt><trkpt lat="15.45560260128955" lon="120.67358483514204"><ele>29.5</ele><time>2026-03-28T13:03:31Z</time></trkpt><trkpt lat="15.455844246561973" lon="120.67367037842976"><ele>31.0</ele><time>2026-03-28T13:03:32Z</time></trkpt><trkpt lat="15.456086746246989" lon="120.67375415184439"><ele>30.0</ele><time>2026-03-28T13:03:33Z</time></trkpt><trkpt lat="15.456326850164668" lon="120.67383305518828"><ele>29.0</ele><time>2026-03-28T13:03:34Z</time></trkpt><trkpt lat="15.456568075129743" lon="120.67392198865589"><ele>29.0</ele><time>2026-03-28T13:03:35Z</time></trkpt><trkpt lat="15.456808622209856" lon="120.67400079156089"><ele>29.0</ele><time>2026-03-28T13:03:36Z</time></trkpt><trkpt lat="15.457046777072662" lon="120.67407982249358"><ele>29.0</ele><time>2026-03-28T13:03:37Z</time></trkpt><trkpt lat="15.45727492593657" lon="120.67416254609485"><ele>29.0</ele><time>2026-03-28T13:03:38Z</time></trkpt><trkpt lat="15.45749877011843" lon="120.67424326763654"><ele>29.0</ele><time>2026-03-28T13:03:39Z</time></trkpt><trkpt lat="15.457720947863994" lon="120.67432299147465"><ele>29.0</ele><time>2026-03-28T13:03:40Z</time></trkpt><trkpt lat="15.457938331523385" lon="120.67440022917758"><ele>28.0</ele><time>2026-03-28T13:03:41Z</time></trkpt><trkpt lat="15.458154531588121" lon="120.67446878732821"><ele>27.0</ele><time>2026-03-28T13:03:42Z</time></trkpt><trkpt lat="15.458368530729093" lon="120.67454450351816"><ele>27.0</ele><time>2026-03-28T13:03:43Z</time></trkpt><trkpt lat="15.458578476154582" lon="120.67461121923648"><ele>27.0</ele><time>2026-03-28T13:03:44Z</time></trkpt><trkpt lat="15.458786788031729" lon="120.67467843857287"><ele>27.0</ele><time>2026-03-28T13:03:45Z</time></trkpt><trkpt lat="15.458994214957343" lon="120.67473833883959"><ele>26.666666666666664</ele><time>2026-03-28T13:03:46Z</time></trkpt><trkpt lat="15.459197081161564" lon="120.67480321565019"><ele>26.333333333333332</ele><time>2026-03-28T13:03:47Z</time></trkpt><trkpt lat="15.459395461130086" lon="120.67486523729946"><ele>26.0</ele><time>2026-03-28T13:03:48Z</time></trkpt><trkpt lat="15.459593370057355" lon="120.67493258476603"><ele>25.333333333333332</ele><time>2026-03-28T13:03:49Z</time></trkpt><trkpt lat="15.459786890165168" lon="120.67499255923538"><ele>24.666666666666664</ele><time>2026-03-28T13:03:50Z</time></trkpt><trkpt lat="15.459975930476656" lon="120.67504959066383"><ele>24.0</ele><time>2026-03-28T13:03:51Z</time></trkpt><trkpt lat="15.46016413138453" lon="120.67510587844443"><ele>24.0</ele><time>2026-03-28T13:03:52Z</time></trkpt><trkpt lat="15.460346426950759" lon="120.67515666230108"><ele>24.0</ele><time>2026-03-28T13:03:53Z</time></trkpt><trkpt lat="15.460526098266804" lon="120.67520442456127"><ele>24.0</ele><time>2026-03-28T13:03:54Z</time></trkpt><trkpt lat="15.460705267664036" lon="120.67525443860188"><ele>24.333333333333336</ele><time>2026-03-28T13:03:55Z</time></trkpt><trkpt lat="15.460874266166002" lon="120.67530856375535"><ele>24.666666666666668</ele><time>2026-03-28T13:03:56Z</time></trkpt><trkpt lat="15.46103383989991" lon="120.67535277510495"><ele>25.0</ele><time>2026-03-28T13:03:57Z</time></trkpt><trkpt lat="15.461188766562273" lon="120.67538922877765"><ele>26.666666666666668</ele><time>2026-03-28T13:03:58Z</time></trkpt><trkpt lat="15.461340618187233" lon="120.67542718208236"><ele>28.333333333333336</ele><time>2026-03-28T13:03:59Z</time></trkpt><trkpt lat="15.461486028736815" lon="120.675462917157"><ele>30.0</ele><time>2026-03-28T13:04:00Z</time></trkpt><trkpt lat="15.461630640095745" lon="120.67550051208647"><ele>30.0</ele><time>2026-03-28T13:04:01Z</time></trkpt><trkpt lat="15.461767363098291" lon="120.67553440563763"><ele>30.0</ele><time>2026-03-28T13:04:02Z</time></trkpt><trkpt lat="15.46189887432157" lon="120.67556189197848"><ele>30.0</ele><time>2026-03-28T13:04:03Z</time></trkpt><trkpt lat="15.462022066969901" lon="120.67557879800727"><ele>30.0</ele><time>2026-03-28T13:04:04Z</time></trkpt><trkpt lat="15.46213902069294" lon="120.67560454075591"><ele>29.666666666666668</ele><time>2026-03-28T13:04:05Z</time></trkpt><trkpt lat="15.462227355599179" lon="120.67560619911143"><ele>29.333333333333336</ele><time>2026-03-28T13:04:06Z</time></trkpt><trkpt lat="15.46231310624122" lon="120.67562415697249"><ele>29.0</ele><time>2026-03-28T13:04:07Z</time></trkpt><trkpt lat="15.462387800034989" lon="120.6756348160432"><ele>28.666666666666668</ele><time>2026-03-28T13:04:08Z</time></trkpt><trkpt lat="15.46245630834299" lon="120.67564941177434"><ele>28.333333333333336</ele><time>2026-03-28T13:04:09Z</time></trkpt><trkpt lat="15.462572492640717" lon="120.67567909058191"><ele>28.0</ele><time>2026-03-28T13:04:11Z</time></trkpt><trkpt lat="15.46266288393741" lon="120.67570079693064"><ele>28.000000000000004</ele><time>2026-03-28T13:04:13Z</time></trkpt><trkpt lat="15.462724641078152" lon="120.67571990208477"><ele>28.0</ele><time>2026-03-28T13:04:15Z</time></trkpt><trkpt lat="15.462746380308198" lon="120.67578267513717"><ele>28.0</ele><time>2026-03-28T13:04:30Z</time></trkpt><trkpt lat="15.462815011607026" lon="120.67577445543442"><ele>28.0</ele><time>2026-03-28T13:04:32Z</time></trkpt><trkpt lat="15.46287660605918" lon="120.67580342991509"><ele>28.000000000000004</ele><time>2026-03-28T13:04:33Z</time></trkpt><trkpt lat="15.462990608325814" lon="120.67583486186952"><ele>28.0</ele><time>2026-03-28T13:04:35Z</time></trkpt><trkpt lat="15.463058049115812" lon="120.67585845145003"><ele>27.4</ele><time>2026-03-28T13:04:36Z</time></trkpt><trkpt lat="15.46313770174993" lon="120.67589378536314"><ele>26.799999999999997</ele><time>2026-03-28T13:04:37Z</time></trkpt><trkpt lat="15.463215019496646" lon="120.67592522773826"><ele>26.2</ele><time>2026-03-28T13:04:38Z</time></trkpt><trkpt lat="15.46330144400234" lon="120.67596475502742"><ele>25.6</ele><time>2026-03-28T13:04:39Z</time></trkpt><trkpt lat="15.463394779493138" lon="120.67599890709451"><ele>25.0</ele><time>2026-03-28T13:04:40Z</time></trkpt><trkpt lat="15.463484777148123" lon="120.67602601588678"><ele>25.0</ele><time>2026-03-28T13:04:41Z</time></trkpt><trkpt lat="15.463592122801908" lon="120.67605696805322"><ele>25.0</ele><time>2026-03-28T13:04:42Z</time></trkpt><trkpt lat="15.46369790971109" lon="120.67609109633598"><ele>25.0</ele><time>2026-03-28T13:04:43Z</time></trkpt><trkpt lat="15.463802953889799" lon="120.6761142624254"><ele>25.0</ele><time>2026-03-28T13:04:44Z</time></trkpt><trkpt lat="15.46393004087813" lon="120.6761502027345"><ele>26.0</ele><time>2026-03-28T13:04:45Z</time></trkpt><trkpt lat="15.46405771196839" lon="120.67618091376438"><ele>27.0</ele><time>2026-03-28T13:04:46Z</time></trkpt><trkpt lat="15.464187319303079" lon="120.67622030580353"><ele>28.0</ele><time>2026-03-28T13:04:47Z</time></trkpt><trkpt lat="15.46432068284774" lon="120.67625107564713"><ele>29.0</ele><time>2026-03-28T13:04:48Z</time></trkpt><trkpt lat="15.464455562387526" lon="120.67628154553566"><ele>29.0</ele><time>2026-03-28T13:04:49Z</time></trkpt><trkpt lat="15.464608091831844" lon="120.6763199856959"><ele>29.0</ele><time>2026-03-28T13:04:50Z</time></trkpt><trkpt lat="15.464757985318364" lon="120.67634919234352"><ele>29.0</ele><time>2026-03-28T13:04:51Z</time></trkpt><trkpt lat="15.464906205766637" lon="120.67638592989744"><ele>29.0</ele><time>2026-03-28T13:04:52Z</time></trkpt><trkpt lat="15.465067555549314" lon="120.6764134286725"><ele>29.0</ele><time>2026-03-28T13:04:53Z</time></trkpt><trkpt lat="15.465228650194245" lon="120.67644624068727"><ele>29.0</ele><time>2026-03-28T13:04:54Z</time></trkpt><trkpt lat="15.465405096158124" lon="120.6764746021277"><ele>28.666666666666664</ele><time>2026-03-28T13:04:55Z</time></trkpt><trkpt lat="15.465570627223627" lon="120.67651629895137"><ele>28.333333333333336</ele><time>2026-03-28T13:04:56Z</time></trkpt><trkpt lat="15.46575966404724" lon="120.67657057238901"><ele>28.0</ele><time>2026-03-28T13:04:57Z</time></trkpt><trkpt lat="15.46594900958225" lon="120.67660187971526"><ele>28.0</ele><time>2026-03-28T13:04:58Z</time></trkpt><trkpt lat="15.466130996087884" lon="120.67663250215307"><ele>28.0</ele><time>2026-03-28T13:04:59Z</time></trkpt><trkpt lat="15.466323358739762" lon="120.67667565089752"><ele>28.0</ele><time>2026-03-28T13:05:00Z</time></trkpt><trkpt lat="15.466517825066976" lon="120.6767170068161"><ele>28.666666666666668</ele><time>2026-03-28T13:05:01Z</time></trkpt><trkpt lat="15.466711196625047" lon="120.67675739752761"><ele>29.333333333333336</ele><time>2026-03-28T13:05:02Z</time></trkpt><trkpt lat="15.466900575014188" lon="120.67679975816957"><ele>30.0</ele><time>2026-03-28T13:05:03Z</time></trkpt><trkpt lat="15.46709761456462" lon="120.67684150309154"><ele>30.0</ele><time>2026-03-28T13:05:04Z</time></trkpt><trkpt lat="15.46729847075668" lon="120.67687889107218"><ele>30.0</ele><time>2026-03-28T13:05:05Z</time></trkpt><trkpt lat="15.467497322856893" lon="120.67691032926894"><ele>30.0</ele><time>2026-03-28T13:05:06Z</time></trkpt><trkpt lat="15.467702095971687" lon="120.6769586989669"><ele>30.0</ele><time>2026-03-28T13:05:07Z</time></trkpt><trkpt lat="15.467912707432427" lon="120.6769953883796"><ele>30.0</ele><time>2026-03-28T13:05:08Z</time></trkpt><trkpt lat="15.468121089055678" lon="120.67704068780945"><ele>30.0</ele><time>2026-03-28T13:05:09Z</time></trkpt><trkpt lat="15.468332856101599" lon="120.67707781737761"><ele>30.0</ele><time>2026-03-28T13:05:10Z</time></trkpt><trkpt lat="15.468543577282048" lon="120.67711968193251"><ele>30.0</ele><time>2026-03-28T13:05:11Z</time></trkpt><trkpt lat="15.468759979881442" lon="120.67716015270759"><ele>30.0</ele><time>2026-03-28T13:05:12Z</time></trkpt><trkpt lat="15.46897349209444" lon="120.67719411788309"><ele>30.0</ele><time>2026-03-28T13:05:13Z</time></trkpt><trkpt lat="15.469196010645799" lon="120.677231235716"><ele>30.0</ele><time>2026-03-28T13:05:14Z</time></trkpt><trkpt lat="15.46942208230668" lon="120.67727084329883"><ele>29.0</ele><time>2026-03-28T13:05:15Z</time></trkpt><trkpt lat="15.469644810758657" lon="120.677306166047"><ele>28.0</ele><time>2026-03-28T13:05:16Z</time></trkpt><trkpt lat="15.469872951208737" lon="120.67733795557047"><ele>28.0</ele><time>2026-03-28T13:05:17Z</time></trkpt><trkpt lat="15.470101988142883" lon="120.67738531477362"><ele>28.0</ele><time>2026-03-28T13:05:18Z</time></trkpt><trkpt lat="15.470331256956975" lon="120.67742114501996"><ele>28.0</ele><time>2026-03-28T13:05:19Z</time></trkpt><trkpt lat="15.470557338069936" lon="120.67745210192886"><ele>28.0</ele><time>2026-03-28T13:05:20Z</time></trkpt><trkpt lat="15.47079090562269" lon="120.67747818213488"><ele>28.0</ele><time>2026-03-28T13:05:21Z</time></trkpt><trkpt lat="15.471027323611278" lon="120.67750532642077"><ele>28.0</ele><time>2026-03-28T13:05:22Z</time></trkpt><trkpt lat="15.471263508057673" lon="120.67753222678354"><ele>28.5</ele><time>2026-03-28T13:05:23Z</time></trkpt><trkpt lat="15.471507362605593" lon="120.67756727210408"><ele>29.0</ele><time>2026-03-28T13:05:24Z</time></trkpt><trkpt lat="15.47174918895656" lon="120.67759689628956"><ele>29.0</ele><time>2026-03-28T13:05:25Z</time></trkpt><trkpt lat="15.471994565202388" lon="120.67762797234082"><ele>29.0</ele><time>2026-03-28T13:05:26Z</time></trkpt><trkpt lat="15.472244746483414" lon="120.67766071916645"><ele>28.5</ele><time>2026-03-28T13:05:27Z</time></trkpt><trkpt lat="15.47249116607626" lon="120.67769136491603"><ele>28.0</ele><time>2026-03-28T13:05:28Z</time></trkpt><trkpt lat="15.472741356918004" lon="120.67772365060036"><ele>28.0</ele><time>2026-03-28T13:05:29Z</time></trkpt><trkpt lat="15.472984583845184" lon="120.67775454520213"><ele>28.0</ele><time>2026-03-28T13:05:30Z</time></trkpt><trkpt lat="15.473234093479228" lon="120.67777859546652"><ele>27.5</ele><time>2026-03-28T13:05:31Z</time></trkpt><trkpt lat="15.473474882743115" lon="120.67780565434238"><ele>27.0</ele><time>2026-03-28T13:05:32Z</time></trkpt><trkpt lat="15.473722574688102" lon="120.6778270688298"><ele>27.0</ele><time>2026-03-28T13:05:33Z</time></trkpt><trkpt lat="15.473974018853443" lon="120.67784930740766"><ele>27.0</ele><time>2026-03-28T13:05:34Z</time></trkpt><trkpt lat="15.474222449968462" lon="120.67786509785682"><ele>27.0</ele><time>2026-03-28T13:05:35Z</time></trkpt><trkpt lat="15.47447180203337" lon="120.67787736854748"><ele>27.0</ele><time>2026-03-28T13:05:36Z</time></trkpt><trkpt lat="15.474728378073369" lon="120.67790378243856"><ele>28.0</ele><time>2026-03-28T13:05:37Z</time></trkpt><trkpt lat="15.474983332345388" lon="120.67791980358949"><ele>29.0</ele><time>2026-03-28T13:05:38Z</time></trkpt><trkpt lat="15.475240453648194" lon="120.67794464090095"><ele>30.0</ele><time>2026-03-28T13:05:39Z</time></trkpt><trkpt lat="15.475496819194891" lon="120.67796534338375"><ele>31.0</ele><time>2026-03-28T13:05:40Z</time></trkpt><trkpt lat="15.475748805353742" lon="120.677988028728"><ele>31.0</ele><time>2026-03-28T13:05:41Z</time></trkpt><trkpt lat="15.476005283347623" lon="120.67801708167315"><ele>31.0</ele><time>2026-03-28T13:05:42Z</time></trkpt><trkpt lat="15.476264593323945" lon="120.6780375402681"><ele>31.0</ele><time>2026-03-28T13:05:43Z</time></trkpt><trkpt lat="15.476523965170804" lon="120.67806011399512"><ele>31.0</ele><time>2026-03-28T13:05:44Z</time></trkpt><trkpt lat="15.476776106666234" lon="120.67808544804879"><ele>31.0</ele><time>2026-03-28T13:05:45Z</time></trkpt><trkpt lat="15.477035225412711" lon="120.67809765727354"><ele>31.0</ele><time>2026-03-28T13:05:46Z</time></trkpt><trkpt lat="15.477293577649666" lon="120.6781296926253"><ele>31.0</ele><time>2026-03-28T13:05:47Z</time></trkpt><trkpt lat="15.477564547341991" lon="120.6781610714393"><ele>31.0</ele><time>2026-03-28T13:05:48Z</time></trkpt><trkpt lat="15.477826618340165" lon="120.67818203328679"><ele>30.0</ele><time>2026-03-28T13:05:49Z</time></trkpt><trkpt lat="15.478081755041286" lon="120.67820335539652"><ele>29.0</ele><time>2026-03-28T13:05:50Z</time></trkpt><trkpt lat="15.478340382863365" lon="120.67822724896938"><ele>29.0</ele><time>2026-03-28T13:05:51Z</time></trkpt><trkpt lat="15.478605870428064" lon="120.67824997265163"><ele>29.0</ele><time>2026-03-28T13:05:52Z</time></trkpt><trkpt lat="15.478868369330947" lon="120.67827133688978"><ele>29.5</ele><time>2026-03-28T13:05:53Z</time></trkpt><trkpt lat="15.479131892860032" lon="120.67829854018832"><ele>30.0</ele><time>2026-03-28T13:05:54Z</time></trkpt><trkpt lat="15.479393527194743" lon="120.67831804912588"><ele>30.0</ele><time>2026-03-28T13:05:55Z</time></trkpt><trkpt lat="15.479659060841799" lon="120.67833122247434"><ele>30.0</ele><time>2026-03-28T13:05:56Z</time></trkpt><trkpt lat="15.479927249957342" lon="120.67834233148142"><ele>30.0</ele><time>2026-03-28T13:05:57Z</time></trkpt><trkpt lat="15.480192793142885" lon="120.67834858318588"><ele>30.0</ele><time>2026-03-28T13:05:58Z</time></trkpt><trkpt lat="15.480460020880198" lon="120.67835556511672"><ele>29.5</ele><time>2026-03-28T13:05:59Z</time></trkpt><trkpt lat="15.480733095283984" lon="120.67836784418348"><ele>29.0</ele><time>2026-03-28T13:06:00Z</time></trkpt><trkpt lat="15.48099112048898" lon="120.67836600891573"><ele>29.0</ele><time>2026-03-28T13:06:01Z</time></trkpt><trkpt lat="15.481253123881917" lon="120.67837190042042"><ele>29.0</ele><time>2026-03-28T13:06:02Z</time></trkpt><trkpt lat="15.481508936286566" lon="120.67836783467294"><ele>27.5</ele><time>2026-03-28T13:06:03Z</time></trkpt><trkpt lat="15.481770855984236" lon="120.67837052054908"><ele>26.0</ele><time>2026-03-28T13:06:04Z</time></trkpt><trkpt lat="15.48203130865059" lon="120.67836838022052"><ele>27.5</ele><time>2026-03-28T13:06:05Z</time></trkpt><trkpt lat="15.482282884190372" lon="120.67835798440119"><ele>29.0</ele><time>2026-03-28T13:06:06Z</time></trkpt><trkpt lat="15.482546960420544" lon="120.67835111037506"><ele>29.0</ele><time>2026-03-28T13:06:07Z</time></trkpt><trkpt lat="15.482810189586871" lon="120.67834264816057"><ele>29.0</ele><time>2026-03-28T13:06:08Z</time></trkpt><trkpt lat="15.48308077855659" lon="120.67833705899851"><ele>29.5</ele><time>2026-03-28T13:06:09Z</time></trkpt><trkpt lat="15.483343251357125" lon="120.67832300200725"><ele>30.0</ele><time>2026-03-28T13:06:10Z</time></trkpt><trkpt lat="15.483608580822084" lon="120.6783128704556"><ele>30.5</ele><time>2026-03-28T13:06:11Z</time></trkpt><trkpt lat="15.483871067709769" lon="120.67829913787581"><ele>31.0</ele><time>2026-03-28T13:06:12Z</time></trkpt><trkpt lat="15.484142717544776" lon="120.67829084021214"><ele>31.0</ele><time>2026-03-28T13:06:13Z</time></trkpt><trkpt lat="15.484401511927945" lon="120.67826726389754"><ele>31.0</ele><time>2026-03-28T13:06:14Z</time></trkpt><trkpt lat="15.484662769792903" lon="120.67825190946687"><ele>32.0</ele><time>2026-03-28T13:06:15Z</time></trkpt><trkpt lat="15.484922859450002" lon="120.6782321561201"><ele>33.0</ele><time>2026-03-28T13:06:16Z</time></trkpt><trkpt lat="15.485185142789858" lon="120.67820834039684"><ele>32.0</ele><time>2026-03-28T13:06:17Z</time></trkpt><trkpt lat="15.48544741044133" lon="120.67818390921086"><ele>31.0</ele><time>2026-03-28T13:06:18Z</time></trkpt><trkpt lat="15.485707473485878" lon="120.6781577997467"><ele>31.0</ele><time>2026-03-28T13:06:19Z</time></trkpt><trkpt lat="15.485962238235452" lon="120.67813024033414"><ele>31.0</ele><time>2026-03-28T13:06:20Z</time></trkpt><trkpt lat="15.486216362182528" lon="120.67809224151146"><ele>30.5</ele><time>2026-03-28T13:06:21Z</time></trkpt><trkpt lat="15.486475070520498" lon="120.67806149102856"><ele>30.0</ele><time>2026-03-28T13:06:22Z</time></trkpt><trkpt lat="15.48673720616582" lon="120.67802928038184"><ele>30.0</ele><time>2026-03-28T13:06:23Z</time></trkpt><trkpt lat="15.486998686922314" lon="120.67799369461135"><ele>30.0</ele><time>2026-03-28T13:06:24Z</time></trkpt><trkpt lat="15.487259732249056" lon="120.67796064376643"><ele>29.5</ele><time>2026-03-28T13:06:25Z</time></trkpt><trkpt lat="15.48752095770664" lon="120.67792555924015"><ele>29.0</ele><time>2026-03-28T13:06:26Z</time></trkpt><trkpt lat="15.487779650442599" lon="120.67788258164688"><ele>28.0</ele><time>2026-03-28T13:06:27Z</time></trkpt><trkpt lat="15.488039080514659" lon="120.67784610813597"><ele>27.0</ele><time>2026-03-28T13:06:28Z</time></trkpt><trkpt lat="15.488301717560276" lon="120.67780589081667"><ele>28.0</ele><time>2026-03-28T13:06:29Z</time></trkpt><trkpt lat="15.488567597172956" lon="120.67776515504313"><ele>29.0</ele><time>2026-03-28T13:06:30Z</time></trkpt><trkpt lat="15.488836211059134" lon="120.67771990322363"><ele>29.0</ele><time>2026-03-28T13:06:31Z</time></trkpt><trkpt lat="15.489101682902263" lon="120.67768243545991"><ele>29.0</ele><time>2026-03-28T13:06:32Z</time></trkpt><trkpt lat="15.489366227908345" lon="120.67763560524534"><ele>28.5</ele><time>2026-03-28T13:06:33Z</time></trkpt><trkpt lat="15.489623896191796" lon="120.67758453974676"><ele>28.0</ele><time>2026-03-28T13:06:34Z</time></trkpt><trkpt lat="15.48988636208205" lon="120.67752762645466"><ele>28.0</ele><time>2026-03-28T13:06:35Z</time></trkpt><trkpt lat="15.490148783107323" lon="120.67747945228524"><ele>28.0</ele><time>2026-03-28T13:06:36Z</time></trkpt><trkpt lat="15.490414236324712" lon="120.67742575559379"><ele>28.0</ele><time>2026-03-28T13:06:37Z</time></trkpt><trkpt lat="15.490677627324999" lon="120.67737018031815"><ele>28.0</ele><time>2026-03-28T13:06:38Z</time></trkpt><trkpt lat="15.490942449116442" lon="120.67731811887917"><ele>28.0</ele><time>2026-03-28T13:06:39Z</time></trkpt><trkpt lat="15.491198310215532" lon="120.67726400350385"><ele>28.0</ele><time>2026-03-28T13:06:40Z</time></trkpt><trkpt lat="15.491454646067828" lon="120.67720231431883"><ele>27.5</ele><time>2026-03-28T13:06:41Z</time></trkpt><trkpt lat="15.491706830511413" lon="120.67713915310209"><ele>27.0</ele><time>2026-03-28T13:06:42Z</time></trkpt><trkpt lat="15.491965017404096" lon="120.67707605157696"><ele>28.5</ele><time>2026-03-28T13:06:43Z</time></trkpt><trkpt lat="15.492219212358224" lon="120.67701368195196"><ele>30.0</ele><time>2026-03-28T13:06:44Z</time></trkpt><trkpt lat="15.492480154931298" lon="120.67694648711637"><ele>29.5</ele><time>2026-03-28T13:06:45Z</time></trkpt><trkpt lat="15.492742752201043" lon="120.67688338043456"><ele>29.0</ele><time>2026-03-28T13:06:46Z</time></trkpt><trkpt lat="15.49299498769488" lon="120.67680303559128"><ele>29.0</ele><time>2026-03-28T13:06:47Z</time></trkpt><trkpt lat="15.493255308694811" lon="120.67673208621667"><ele>29.0</ele><time>2026-03-28T13:06:48Z</time></trkpt><trkpt lat="15.493514935914348" lon="120.67664983686312"><ele>28.5</ele><time>2026-03-28T13:06:49Z</time></trkpt><trkpt lat="15.493775173278136" lon="120.67657075818161"><ele>28.0</ele><time>2026-03-28T13:06:50Z</time></trkpt><trkpt lat="15.494045018441279" lon="120.67648720711777"><ele>28.0</ele><time>2026-03-28T13:06:51Z</time></trkpt><trkpt lat="15.494309480962883" lon="120.67640858959214"><ele>28.0</ele><time>2026-03-28T13:06:52Z</time></trkpt><trkpt lat="15.494576199233945" lon="120.67632985105818"><ele>28.5</ele><time>2026-03-28T13:06:53Z</time></trkpt><trkpt lat="15.494832063819889" lon="120.67624221560575"><ele>29.0</ele><time>2026-03-28T13:06:54Z</time></trkpt><trkpt lat="15.495096809077996" lon="120.67615792398027"><ele>29.5</ele><time>2026-03-28T13:06:55Z</time></trkpt><trkpt lat="15.495359156300518" lon="120.67607227098974"><ele>30.0</ele><time>2026-03-28T13:06:56Z</time></trkpt><trkpt lat="15.495619685490544" lon="120.67597844147633"><ele>31.5</ele><time>2026-03-28T13:06:57Z</time></trkpt><trkpt lat="15.49588556942818" lon="120.67588864431005"><ele>33.0</ele><time>2026-03-28T13:06:58Z</time></trkpt><trkpt lat="15.496158503645361" lon="120.67579897761361"><ele>32.0</ele><time>2026-03-28T13:06:59Z</time></trkpt><trkpt lat="15.496432042803397" lon="120.67570146060999"><ele>31.0</ele><time>2026-03-28T13:07:00Z</time></trkpt><trkpt lat="15.496700644030655" lon="120.67560822092727"><ele>31.0</ele><time>2026-03-28T13:07:01Z</time></trkpt><trkpt lat="15.496965950346253" lon="120.67551334838801"><ele>31.0</ele><time>2026-03-28T13:07:02Z</time></trkpt><trkpt lat="15.497223419470576" lon="120.67541348911385"><ele>30.5</ele><time>2026-03-28T13:07:03Z</time></trkpt><trkpt lat="15.497485829128184" lon="120.67531318601914"><ele>30.0</ele><time>2026-03-28T13:07:04Z</time></trkpt><trkpt lat="15.497751276745017" lon="120.67522035682997"><ele>31.0</ele><time>2026-03-28T13:07:05Z</time></trkpt><trkpt lat="15.498009557294866" lon="120.67511274804606"><ele>32.0</ele><time>2026-03-28T13:07:06Z</time></trkpt><trkpt lat="15.498267957723668" lon="120.67500720128298"><ele>32.0</ele><time>2026-03-28T13:07:07Z</time></trkpt><trkpt lat="15.498526754683569" lon="120.67489884485425"><ele>32.0</ele><time>2026-03-28T13:07:08Z</time></trkpt><trkpt lat="15.498785542597892" lon="120.67478900399685"><ele>31.0</ele><time>2026-03-28T13:07:09Z</time></trkpt><trkpt lat="15.499045191388884" lon="120.67467700033335"><ele>30.0</ele><time>2026-03-28T13:07:10Z</time></trkpt><trkpt lat="15.499304261030854" lon="120.67455968865282"><ele>30.0</ele><time>2026-03-28T13:07:11Z</time></trkpt><trkpt lat="15.49956529614116" lon="120.67444339823912"><ele>30.0</ele><time>2026-03-28T13:07:12Z</time></trkpt><trkpt lat="15.499828115778376" lon="120.67432275296387"><ele>29.0</ele><time>2026-03-28T13:07:13Z</time></trkpt><trkpt lat="15.50008343949229" lon="120.67419893663039"><ele>28.0</ele><time>2026-03-28T13:07:14Z</time></trkpt><trkpt lat="15.500336586082502" lon="120.67407656125792"><ele>28.5</ele><time>2026-03-28T13:07:15Z</time></trkpt><trkpt lat="15.500594263551436" lon="120.67395085106902"><ele>29.0</ele><time>2026-03-28T13:07:16Z</time></trkpt><trkpt lat="15.500850668412989" lon="120.67382840915573"><ele>29.0</ele><time>2026-03-28T13:07:17Z</time></trkpt><trkpt lat="15.501106720854938" lon="120.67370169871505"><ele>29.0</ele><time>2026-03-28T13:07:18Z</time></trkpt><trkpt lat="15.501357248278751" lon="120.67357600169393"><ele>29.5</ele><time>2026-03-28T13:07:19Z</time></trkpt><trkpt lat="15.50161176065291" lon="120.67345040185953"><ele>30.0</ele><time>2026-03-28T13:07:20Z</time></trkpt><trkpt lat="15.501867809372138" lon="120.6733150603123"><ele>29.5</ele><time>2026-03-28T13:07:21Z</time></trkpt><trkpt lat="15.502123129380891" lon="120.67318257392174"><ele>29.0</ele><time>2026-03-28T13:07:22Z</time></trkpt><trkpt lat="15.502379336424454" lon="120.67304361268977"><ele>29.0</ele><time>2026-03-28T13:07:23Z</time></trkpt><trkpt lat="15.502626152872166" lon="120.67290904990435"><ele>29.0</ele><time>2026-03-28T13:07:24Z</time></trkpt><trkpt lat="15.502869636318149" lon="120.67277017606872"><ele>30.0</ele><time>2026-03-28T13:07:25Z</time></trkpt><trkpt lat="15.503110868314955" lon="120.672636969634"><ele>31.0</ele><time>2026-03-28T13:07:26Z</time></trkpt><trkpt lat="15.503360632519616" lon="120.67249771472787"><ele>31.0</ele><time>2026-03-28T13:07:27Z</time></trkpt><trkpt lat="15.5036086656146" lon="120.67235285974549"><ele>31.0</ele><time>2026-03-28T13:07:28Z</time></trkpt><trkpt lat="15.503849036063936" lon="120.67220716871483"><ele>31.0</ele><time>2026-03-28T13:07:29Z</time></trkpt><trkpt lat="15.504092391540686" lon="120.67206252424387"><ele>31.0</ele><time>2026-03-28T13:07:30Z</time></trkpt><trkpt lat="15.504336251309589" lon="120.67191078129942"><ele>30.5</ele><time>2026-03-28T13:07:31Z</time></trkpt><trkpt lat="15.504582671033411" lon="120.67176061051578"><ele>30.0</ele><time>2026-03-28T13:07:32Z</time></trkpt><trkpt lat="15.50483219514376" lon="120.67160746035154"><ele>30.0</ele><time>2026-03-28T13:07:33Z</time></trkpt><trkpt lat="15.505076446365107" lon="120.67145212112622"><ele>30.0</ele><time>2026-03-28T13:07:34Z</time></trkpt><trkpt lat="15.505327071686905" lon="120.67130099203155"><ele>30.0</ele><time>2026-03-28T13:07:35Z</time></trkpt><trkpt lat="15.505567488251064" lon="120.67114836459618"><ele>30.0</ele><time>2026-03-28T13:07:36Z</time></trkpt><trkpt lat="15.505807738491796" lon="120.67099156626254"><ele>30.0</ele><time>2026-03-28T13:07:37Z</time></trkpt><trkpt lat="15.506039572017345" lon="120.67083373670144"><ele>30.0</ele><time>2026-03-28T13:07:38Z</time></trkpt><trkpt lat="15.506274231586426" lon="120.67067721339286"><ele>29.5</ele><time>2026-03-28T13:07:39Z</time></trkpt><trkpt lat="15.506503479131961" lon="120.67051875104805"><ele>29.0</ele><time>2026-03-28T13:07:40Z</time></trkpt><trkpt lat="15.506730661921047" lon="120.67036218370862"><ele>29.5</ele><time>2026-03-28T13:07:41Z</time></trkpt><trkpt lat="15.506957961930217" lon="120.67019918269159"><ele>30.0</ele><time>2026-03-28T13:07:42Z</time></trkpt><trkpt lat="15.507182934517482" lon="120.67004110508994"><ele>30.5</ele><time>2026-03-28T13:07:43Z</time></trkpt><trkpt lat="15.507403854426888" lon="120.6698784698273"><ele>31.0</ele><time>2026-03-28T13:07:44Z</time></trkpt><trkpt lat="15.507616456135882" lon="120.6697260757499"><ele>31.0</ele><time>2026-03-28T13:07:45Z</time></trkpt><trkpt lat="15.507835728922817" lon="120.66956844966475"><ele>31.0</ele><time>2026-03-28T13:07:46Z</time></trkpt><trkpt lat="15.508044021749788" lon="120.66941309240936"><ele>31.0</ele><time>2026-03-28T13:07:47Z</time></trkpt><trkpt lat="15.508247870792996" lon="120.66926363432022"><ele>31.0</ele><time>2026-03-28T13:07:48Z</time></trkpt><trkpt lat="15.508451987813292" lon="120.66911423915158"><ele>31.0</ele><time>2026-03-28T13:07:49Z</time></trkpt><trkpt lat="15.508658339455295" lon="120.66896633796283"><ele>31.0</ele><time>2026-03-28T13:07:50Z</time></trkpt><trkpt lat="15.50885737513464" lon="120.66882349945874"><ele>32.0</ele><time>2026-03-28T13:07:51Z</time></trkpt><trkpt lat="15.509050969937464" lon="120.6686805866929"><ele>33.0</ele><time>2026-03-28T13:07:52Z</time></trkpt><trkpt lat="15.509245294033075" lon="120.66854107586487"><ele>33.0</ele><time>2026-03-28T13:07:53Z</time></trkpt><trkpt lat="15.509435695559944" lon="120.6684060141341"><ele>33.0</ele><time>2026-03-28T13:07:54Z</time></trkpt><trkpt lat="15.509618877009995" lon="120.66827010450973"><ele>33.333333333333336</ele><time>2026-03-28T13:07:55Z</time></trkpt><trkpt lat="15.509798724810087" lon="120.66813830477568"><ele>33.66666666666667</ele><time>2026-03-28T13:07:56Z</time></trkpt><trkpt lat="15.509965219431356" lon="120.66801406080371"><ele>34.0</ele><time>2026-03-28T13:07:57Z</time></trkpt><trkpt lat="15.510129801412441" lon="120.66789615027561"><ele>34.0</ele><time>2026-03-28T13:07:58Z</time></trkpt><trkpt lat="15.510290178792122" lon="120.6677774556029"><ele>34.0</ele><time>2026-03-28T13:07:59Z</time></trkpt><trkpt lat="15.510444310786978" lon="120.66767157464837"><ele>34.0</ele><time>2026-03-28T13:08:00Z</time></trkpt><trkpt lat="15.510595724236731" lon="120.66756278265406"><ele>34.0</ele><time>2026-03-28T13:08:01Z</time></trkpt><trkpt lat="15.51073669972594" lon="120.66745514309831"><ele>34.0</ele><time>2026-03-28T13:08:02Z</time></trkpt><trkpt lat="15.510867098791786" lon="120.66735834115569"><ele>34.0</ele><time>2026-03-28T13:08:03Z</time></trkpt><trkpt lat="15.510993428987964" lon="120.66726783327513"><ele>34.0</ele><time>2026-03-28T13:08:04Z</time></trkpt><trkpt lat="15.511114755109139" lon="120.66718169498763"><ele>34.0</ele><time>2026-03-28T13:08:05Z</time></trkpt><trkpt lat="15.511233488915682" lon="120.66710121777244"><ele>34.0</ele><time>2026-03-28T13:08:06Z</time></trkpt><trkpt lat="15.511351625324158" lon="120.66702114540979"><ele>34.0</ele><time>2026-03-28T13:08:07Z</time></trkpt><trkpt lat="15.511459657853687" lon="120.66694467127974"><ele>33.25</ele><time>2026-03-28T13:08:08Z</time></trkpt><trkpt lat="15.51156817734319" lon="120.6668750026559"><ele>32.5</ele><time>2026-03-28T13:08:09Z</time></trkpt><trkpt lat="15.511668908248543" lon="120.66680978640088"><ele>31.75</ele><time>2026-03-28T13:08:10Z</time></trkpt><trkpt lat="15.511768130258812" lon="120.6667450912443"><ele>31.0</ele><time>2026-03-28T13:08:11Z</time></trkpt><trkpt lat="15.511858769051956" lon="120.66668828585243"><ele>31.000000000000004</ele><time>2026-03-28T13:08:12Z</time></trkpt><trkpt lat="15.511951894962412" lon="120.66663758437207"><ele>31.0</ele><time>2026-03-28T13:08:13Z</time></trkpt><trkpt lat="15.512035847483558" lon="120.66658935611268"><ele>31.0</ele><time>2026-03-28T13:08:14Z</time></trkpt><trkpt lat="15.512126307967371" lon="120.6665394840814"><ele>31.0</ele><time>2026-03-28T13:08:15Z</time></trkpt><trkpt lat="15.512194946446632" lon="120.6664961133272"><ele>31.000000000000004</ele><time>2026-03-28T13:08:16Z</time></trkpt><trkpt lat="15.51225125961563" lon="120.66646149337235"><ele>31.0</ele><time>2026-03-28T13:08:17Z</time></trkpt><trkpt lat="15.51231290518493" lon="120.66642197868819"><ele>31.4</ele><time>2026-03-28T13:08:18Z</time></trkpt><trkpt lat="15.512422303767556" lon="120.66635730882086"><ele>31.8</ele><time>2026-03-28T13:08:20Z</time></trkpt><trkpt lat="15.512518245191435" lon="120.6662901621445"><ele>32.199999999999996</ele><time>2026-03-28T13:08:22Z</time></trkpt><trkpt lat="15.512571578006748" lon="120.66625486351644"><ele>32.6</ele><time>2026-03-28T13:08:23Z</time></trkpt><trkpt lat="15.51264309014061" lon="120.66620405307064"><ele>33.0</ele><time>2026-03-28T13:08:25Z</time></trkpt><trkpt lat="15.512711272926174" lon="120.66614408312769"><ele>32.8</ele><time>2026-03-28T13:08:27Z</time></trkpt><trkpt lat="15.512793486777227" lon="120.66608318262189"><ele>32.599999999999994</ele><time>2026-03-28T13:08:29Z</time></trkpt><trkpt lat="15.51286428216263" lon="120.66603013606063"><ele>32.400000000000006</ele><time>2026-03-28T13:08:31Z</time></trkpt><trkpt lat="15.51295857249088" lon="120.66596097383321"><ele>32.2</ele><time>2026-03-28T13:08:33Z</time></trkpt><trkpt lat="15.513053638860914" lon="120.66589096732605"><ele>32.0</ele><time>2026-03-28T13:08:35Z</time></trkpt><trkpt lat="15.513166629114851" lon="120.66581508400371"><ele>32.33333333333333</ele><time>2026-03-28T13:08:37Z</time></trkpt><trkpt lat="15.513233086030231" lon="120.66576179061838"><ele>32.666666666666664</ele><time>2026-03-28T13:08:38Z</time></trkpt><trkpt lat="15.51329961937327" lon="120.66571531083203"><ele>33.0</ele><time>2026-03-28T13:08:39Z</time></trkpt><trkpt lat="15.513369733632716" lon="120.66566231709594"><ele>33.333333333333336</ele><time>2026-03-28T13:08:40Z</time></trkpt><trkpt lat="15.513451750721241" lon="120.66560453507479"><ele>33.66666666666667</ele><time>2026-03-28T13:08:41Z</time></trkpt><trkpt lat="15.513528778877186" lon="120.6655435571161"><ele>34.0</ele><time>2026-03-28T13:08:42Z</time></trkpt><trkpt lat="15.51361205857773" lon="120.6654763204624"><ele>34.0</ele><time>2026-03-28T13:08:43Z</time></trkpt><trkpt lat="15.513694991380376" lon="120.66540088409026"><ele>34.0</ele><time>2026-03-28T13:08:44Z</time></trkpt><trkpt lat="15.513781649393932" lon="120.66533247148766"><ele>34.0</ele><time>2026-03-28T13:08:45Z</time></trkpt><trkpt lat="15.513872543685125" lon="120.66525950823053"><ele>34.0</ele><time>2026-03-28T13:08:46Z</time></trkpt><trkpt lat="15.513985703821533" lon="120.66516268526688"><ele>33.66666666666667</ele><time>2026-03-28T13:08:47Z</time></trkpt><trkpt lat="15.514116320621033" lon="120.66505455098432"><ele>33.333333333333336</ele><time>2026-03-28T13:08:48Z</time></trkpt><trkpt lat="15.51424100150833" lon="120.66495475985909"><ele>33.0</ele><time>2026-03-28T13:08:49Z</time></trkpt><trkpt lat="15.514366413295335" lon="120.66485992985506"><ele>33.0</ele><time>2026-03-28T13:08:50Z</time></trkpt><trkpt lat="15.514489490669563" lon="120.66477475712821"><ele>33.0</ele><time>2026-03-28T13:08:51Z</time></trkpt><trkpt lat="15.514616058987459" lon="120.66468822164208"><ele>33.0</ele><time>2026-03-28T13:08:52Z</time></trkpt><trkpt lat="15.51473582304058" lon="120.66460126171194"><ele>33.0</ele><time>2026-03-28T13:08:53Z</time></trkpt><trkpt lat="15.51486033569418" lon="120.66450968863342"><ele>32.666666666666664</ele><time>2026-03-28T13:08:54Z</time></trkpt><trkpt lat="15.515003064871863" lon="120.66440022385217"><ele>32.33333333333333</ele><time>2026-03-28T13:08:55Z</time></trkpt><trkpt lat="15.515149796661115" lon="120.66429490313897"><ele>32.0</ele><time>2026-03-28T13:08:56Z</time></trkpt><trkpt lat="15.515295177887797" lon="120.66419269415447"><ele>32.0</ele><time>2026-03-28T13:08:57Z</time></trkpt><trkpt lat="15.515442971540061" lon="120.6640822850924"><ele>32.0</ele><time>2026-03-28T13:08:58Z</time></trkpt><trkpt lat="15.515589409307301" lon="120.66397108701375"><ele>32.0</ele><time>2026-03-28T13:08:59Z</time></trkpt><trkpt lat="15.515737302119238" lon="120.6638575638221"><ele>32.0</ele><time>2026-03-28T13:09:00Z</time></trkpt><trkpt lat="15.515895662093579" lon="120.66374514009235"><ele>32.0</ele><time>2026-03-28T13:09:01Z</time></trkpt><trkpt lat="15.516051384667978" lon="120.66363001922579"><ele>32.0</ele><time>2026-03-28T13:09:02Z</time></trkpt><trkpt lat="15.516210998889576" lon="120.66351565124113"><ele>32.0</ele><time>2026-03-28T13:09:03Z</time></trkpt><trkpt lat="15.516378696881441" lon="120.66339232136419"><ele>32.0</ele><time>2026-03-28T13:09:04Z</time></trkpt><trkpt lat="15.516555258824933" lon="120.66326502743917"><ele>32.0</ele><time>2026-03-28T13:09:05Z</time></trkpt><trkpt lat="15.51671622772338" lon="120.66314391085649"><ele>32.0</ele><time>2026-03-28T13:09:06Z</time></trkpt><trkpt lat="15.516887160644707" lon="120.66301668123587"><ele>32.0</ele><time>2026-03-28T13:09:07Z</time></trkpt><trkpt lat="15.517063025268559" lon="120.66288846171929"><ele>32.0</ele><time>2026-03-28T13:09:08Z</time></trkpt><trkpt lat="15.517239647616325" lon="120.66276226169536"><ele>33.0</ele><time>2026-03-28T13:09:09Z</time></trkpt><trkpt lat="15.517420014482656" lon="120.66263693056554"><ele>34.0</ele><time>2026-03-28T13:09:10Z</time></trkpt><trkpt lat="15.517607726179198" lon="120.66250129894648"><ele>35.0</ele><time>2026-03-28T13:09:11Z</time></trkpt><trkpt lat="15.517781359918393" lon="120.66237285566754"><ele>34.666666666666664</ele><time>2026-03-28T13:09:12Z</time></trkpt><trkpt lat="15.51796436852198" lon="120.6622461345864"><ele>34.333333333333336</ele><time>2026-03-28T13:09:13Z</time></trkpt><trkpt lat="15.518145913593443" lon="120.66211428896167"><ele>34.0</ele><time>2026-03-28T13:09:14Z</time></trkpt><trkpt lat="15.5183386682229" lon="120.66198124614854"><ele>34.333333333333336</ele><time>2026-03-28T13:09:15Z</time></trkpt><trkpt lat="15.51852054537082" lon="120.66184974342207"><ele>34.666666666666664</ele><time>2026-03-28T13:09:16Z</time></trkpt><trkpt lat="15.518705378720826" lon="120.6617134979374"><ele>35.0</ele><time>2026-03-28T13:09:17Z</time></trkpt><trkpt lat="15.518887338254894" lon="120.66158379016761"><ele>34.33333333333333</ele><time>2026-03-28T13:09:18Z</time></trkpt><trkpt lat="15.519068597343654" lon="120.66145449402215"><ele>33.666666666666664</ele><time>2026-03-28T13:09:19Z</time></trkpt><trkpt lat="15.519255532029584" lon="120.66132153684387"><ele>33.0</ele><time>2026-03-28T13:09:20Z</time></trkpt><trkpt lat="15.519439026328644" lon="120.66118832198528"><ele>34.0</ele><time>2026-03-28T13:09:21Z</time></trkpt><trkpt lat="15.519625006767935" lon="120.66106083547614"><ele>35.0</ele><time>2026-03-28T13:09:22Z</time></trkpt><trkpt lat="15.51981585944218" lon="120.66092724587527"><ele>35.0</ele><time>2026-03-28T13:09:23Z</time></trkpt><trkpt lat="15.520007915231833" lon="120.66079372768093"><ele>35.0</ele><time>2026-03-28T13:09:24Z</time></trkpt><trkpt lat="15.520197567286285" lon="120.66064870847424"><ele>35.0</ele><time>2026-03-28T13:09:25Z</time></trkpt><trkpt lat="15.52039886683246" lon="120.66051399221331"><ele>35.0</ele><time>2026-03-28T13:09:26Z</time></trkpt><trkpt lat="15.520596904430835" lon="120.66038039866496"><ele>33.5</ele><time>2026-03-28T13:09:27Z</time></trkpt><trkpt lat="15.520798648666918" lon="120.66024630956095"><ele>32.0</ele><time>2026-03-28T13:09:28Z</time></trkpt><trkpt lat="15.521008226676516" lon="120.66010693878636"><ele>32.0</ele><time>2026-03-28T13:09:29Z</time></trkpt><trkpt lat="15.52122308171379" lon="120.65997650564105"><ele>32.0</ele><time>2026-03-28T13:09:30Z</time></trkpt><trkpt lat="15.521431879976769" lon="120.65984059143676"><ele>31.5</ele><time>2026-03-28T13:09:31Z</time></trkpt><trkpt lat="15.521645227309827" lon="120.65970545959289"><ele>31.0</ele><time>2026-03-28T13:09:32Z</time></trkpt><trkpt lat="15.52184978402031" lon="120.65956976256743"><ele>32.0</ele><time>2026-03-28T13:09:33Z</time></trkpt><trkpt lat="15.52206130902343" lon="120.65943479626678"><ele>33.0</ele><time>2026-03-28T13:09:34Z</time></trkpt><trkpt lat="15.522267871057878" lon="120.6593016514354"><ele>33.0</ele><time>2026-03-28T13:09:35Z</time></trkpt><trkpt lat="15.522469360630502" lon="120.65917476781854"><ele>33.0</ele><time>2026-03-28T13:09:36Z</time></trkpt><trkpt lat="15.522672368457494" lon="120.65904859863599"><ele>33.0</ele><time>2026-03-28T13:09:37Z</time></trkpt><trkpt lat="15.522876471296911" lon="120.65892575000403"><ele>33.0</ele><time>2026-03-28T13:09:38Z</time></trkpt><trkpt lat="15.523081910957" lon="120.6588018967153"><ele>33.0</ele><time>2026-03-28T13:09:39Z</time></trkpt><trkpt lat="15.523297238519223" lon="120.65866907974292"><ele>33.0</ele><time>2026-03-28T13:09:40Z</time></trkpt><trkpt lat="15.52350348345874" lon="120.65854728264792"><ele>33.0</ele><time>2026-03-28T13:09:41Z</time></trkpt><trkpt lat="15.523710249379528" lon="120.65842952700373"><ele>33.0</ele><time>2026-03-28T13:09:42Z</time></trkpt><trkpt lat="15.523923413452263" lon="120.65830591095032"><ele>33.0</ele><time>2026-03-28T13:09:43Z</time></trkpt><trkpt lat="15.524129043948232" lon="120.65818467580202"><ele>33.0</ele><time>2026-03-28T13:09:44Z</time></trkpt><trkpt lat="15.524339304193443" lon="120.65806108853523"><ele>33.0</ele><time>2026-03-28T13:09:45Z</time></trkpt><trkpt lat="15.524546561276377" lon="120.65793591395686"><ele>33.0</ele><time>2026-03-28T13:09:46Z</time></trkpt><trkpt lat="15.524757864455085" lon="120.65781993254812"><ele>32.5</ele><time>2026-03-28T13:09:47Z</time></trkpt><trkpt lat="15.52496216857364" lon="120.65770599390783"><ele>32.0</ele><time>2026-03-28T13:09:48Z</time></trkpt><trkpt lat="15.525175703135824" lon="120.65759145600666"><ele>32.0</ele><time>2026-03-28T13:09:49Z</time></trkpt><trkpt lat="15.52538679205767" lon="120.65747689631895"><ele>32.0</ele><time>2026-03-28T13:09:50Z</time></trkpt><trkpt lat="15.5255920305891" lon="120.65736240840333"><ele>32.0</ele><time>2026-03-28T13:09:51Z</time></trkpt><trkpt lat="15.525808310509685" lon="120.65725111993869"><ele>32.0</ele><time>2026-03-28T13:09:52Z</time></trkpt><trkpt lat="15.526021965828445" lon="120.6571414183683"><ele>32.0</ele><time>2026-03-28T13:09:53Z</time></trkpt><trkpt lat="15.526240842581426" lon="120.65702287137128"><ele>32.0</ele><time>2026-03-28T13:09:54Z</time></trkpt><trkpt lat="15.526463517118728" lon="120.65690726442006"><ele>32.0</ele><time>2026-03-28T13:09:55Z</time></trkpt><trkpt lat="15.526685548100717" lon="120.65678853030882"><ele>32.0</ele><time>2026-03-28T13:09:56Z</time></trkpt><trkpt lat="15.526909053297421" lon="120.65666890440048"><ele>32.5</ele><time>2026-03-28T13:09:57Z</time></trkpt><trkpt lat="15.527132224443983" lon="120.65655453992584"><ele>33.0</ele><time>2026-03-28T13:09:58Z</time></trkpt><trkpt lat="15.527357575017994" lon="120.65644164696235"><ele>33.0</ele><time>2026-03-28T13:09:59Z</time></trkpt><trkpt lat="15.527586840618618" lon="120.65632991772787"><ele>33.0</ele><time>2026-03-28T13:10:00Z</time></trkpt><trkpt lat="15.527815604821306" lon="120.65621662003066"><ele>33.0</ele><time>2026-03-28T13:10:01Z</time></trkpt><trkpt lat="15.528036885234554" lon="120.65610461456372"><ele>33.0</ele><time>2026-03-28T13:10:02Z</time></trkpt><trkpt lat="15.528263265918" lon="120.65599488354363"><ele>33.0</ele><time>2026-03-28T13:10:03Z</time></trkpt><trkpt lat="15.52848962327659" lon="120.65588413205066"><ele>33.0</ele><time>2026-03-28T13:10:04Z</time></trkpt><trkpt lat="15.52870956579047" lon="120.65577472904958"><ele>32.0</ele><time>2026-03-28T13:10:05Z</time></trkpt><trkpt lat="15.5289334678237" lon="120.65567061888804"><ele>31.0</ele><time>2026-03-28T13:10:06Z</time></trkpt><trkpt lat="15.529151948468831" lon="120.65556762792185"><ele>31.0</ele><time>2026-03-28T13:10:07Z</time></trkpt><trkpt lat="15.529369022636729" lon="120.65546737025277"><ele>31.0</ele><time>2026-03-28T13:10:08Z</time></trkpt><trkpt lat="15.529586511882231" lon="120.65536524142532"><ele>31.0</ele><time>2026-03-28T13:10:09Z</time></trkpt><trkpt lat="15.529800965332857" lon="120.65526182692906"><ele>31.0</ele><time>2026-03-28T13:10:10Z</time></trkpt><trkpt lat="15.530019168710137" lon="120.65516190889315"><ele>31.0</ele><time>2026-03-28T13:10:11Z</time></trkpt><trkpt lat="15.530236979846809" lon="120.6550601612051"><ele>31.0</ele><time>2026-03-28T13:10:12Z</time></trkpt><trkpt lat="15.530458259362014" lon="120.65495406659008"><ele>31.0</ele><time>2026-03-28T13:10:13Z</time></trkpt><trkpt lat="15.530679620877697" lon="120.65484550846047"><ele>31.0</ele><time>2026-03-28T13:10:14Z</time></trkpt><trkpt lat="15.530907730780804" lon="120.65474006663582"><ele>31.0</ele><time>2026-03-28T13:10:15Z</time></trkpt><trkpt lat="15.531143621463466" lon="120.654627236907"><ele>31.0</ele><time>2026-03-28T13:10:16Z</time></trkpt><trkpt lat="15.531373990073487" lon="120.65450648827256"><ele>32.0</ele><time>2026-03-28T13:10:17Z</time></trkpt><trkpt lat="15.531607669654784" lon="120.65438724819133"><ele>33.0</ele><time>2026-03-28T13:10:18Z</time></trkpt><trkpt lat="15.531845819778088" lon="120.65426334830579"><ele>32.0</ele><time>2026-03-28T13:10:19Z</time></trkpt><trkpt lat="15.532087387414492" lon="120.65413984895227"><ele>31.0</ele><time>2026-03-28T13:10:20Z</time></trkpt><trkpt lat="15.532330779738501" lon="120.65401332809245"><ele>31.0</ele><time>2026-03-28T13:10:21Z</time></trkpt><trkpt lat="15.532572285218677" lon="120.65388450231491"><ele>31.0</ele><time>2026-03-28T13:10:22Z</time></trkpt><trkpt lat="15.532814973781656" lon="120.65375638277293"><ele>30.5</ele><time>2026-03-28T13:10:23Z</time></trkpt><trkpt lat="15.533059545880379" lon="120.65362615185514"><ele>30.0</ele><time>2026-03-28T13:10:24Z</time></trkpt><trkpt lat="15.533307517784536" lon="120.65349132438968"><ele>30.0</ele><time>2026-03-28T13:10:25Z</time></trkpt><trkpt lat="15.533562265233721" lon="120.65335118626052"><ele>30.0</ele><time>2026-03-28T13:10:26Z</time></trkpt><trkpt lat="15.533814176083567" lon="120.6532126683307"><ele>31.0</ele><time>2026-03-28T13:10:27Z</time></trkpt><trkpt lat="15.534051953781155" lon="120.65307907623564"><ele>32.0</ele><time>2026-03-28T13:10:28Z</time></trkpt><trkpt lat="15.534289907354646" lon="120.65294666733355"><ele>32.0</ele><time>2026-03-28T13:10:29Z</time></trkpt><trkpt lat="15.534533361400705" lon="120.65281176437972"><ele>32.0</ele><time>2026-03-28T13:10:30Z</time></trkpt><trkpt lat="15.534769223468489" lon="120.65267434631842"><ele>31.0</ele><time>2026-03-28T13:10:31Z</time></trkpt><trkpt lat="15.535005938822074" lon="120.65254011763459"><ele>30.0</ele><time>2026-03-28T13:10:32Z</time></trkpt><trkpt lat="15.535246696063375" lon="120.65240330180276"><ele>30.5</ele><time>2026-03-28T13:10:33Z</time></trkpt><trkpt lat="15.535485159413387" lon="120.65226478340244"><ele>31.0</ele><time>2026-03-28T13:10:34Z</time></trkpt><trkpt lat="15.535721702364532" lon="120.65212444111856"><ele>31.0</ele><time>2026-03-28T13:10:35Z</time></trkpt><trkpt lat="15.535970191662758" lon="120.65198067315836"><ele>31.0</ele><time>2026-03-28T13:10:36Z</time></trkpt><trkpt lat="15.53621421963885" lon="120.65183553581235"><ele>30.5</ele><time>2026-03-28T13:10:37Z</time></trkpt><trkpt lat="15.536446112316062" lon="120.65168907186322"><ele>30.0</ele><time>2026-03-28T13:10:38Z</time></trkpt><trkpt lat="15.536686134137948" lon="120.65154060387793"><ele>30.0</ele><time>2026-03-28T13:10:39Z</time></trkpt><trkpt lat="15.536926220294875" lon="120.65138872069636"><ele>30.0</ele><time>2026-03-28T13:10:40Z</time></trkpt><trkpt lat="15.53716052073634" lon="120.65123989431738"><ele>30.5</ele><time>2026-03-28T13:10:41Z</time></trkpt><trkpt lat="15.537405420603415" lon="120.6510940819602"><ele>31.0</ele><time>2026-03-28T13:10:42Z</time></trkpt><trkpt lat="15.537639764197968" lon="120.65094500820364"><ele>31.0</ele><time>2026-03-28T13:10:43Z</time></trkpt><trkpt lat="15.537867050408392" lon="120.65078420310236"><ele>31.0</ele><time>2026-03-28T13:10:44Z</time></trkpt><trkpt lat="15.538102559642661" lon="120.65063406533828"><ele>31.0</ele><time>2026-03-28T13:10:45Z</time></trkpt><trkpt lat="15.538336507688781" lon="120.65047483186193"><ele>31.0</ele><time>2026-03-28T13:10:46Z</time></trkpt><trkpt lat="15.538548643036918" lon="120.65031785315536"><ele>31.0</ele><time>2026-03-28T13:10:47Z</time></trkpt><trkpt lat="15.538771506764556" lon="120.6501654001209"><ele>31.0</ele><time>2026-03-28T13:10:48Z</time></trkpt><trkpt lat="15.53900399451751" lon="120.65000266941148"><ele>31.0</ele><time>2026-03-28T13:10:49Z</time></trkpt><trkpt lat="15.539229344182925" lon="120.64985678234831"><ele>31.0</ele><time>2026-03-28T13:10:50Z</time></trkpt><trkpt lat="15.53945415215392" lon="120.64970053551889"><ele>31.5</ele><time>2026-03-28T13:10:51Z</time></trkpt><trkpt lat="15.539660438405257" lon="120.6495518776683"><ele>32.0</ele><time>2026-03-28T13:10:52Z</time></trkpt><trkpt lat="15.539878004028171" lon="120.64939229922355"><ele>32.0</ele><time>2026-03-28T13:10:53Z</time></trkpt><trkpt lat="15.540094033139251" lon="120.64923619053648"><ele>32.0</ele><time>2026-03-28T13:10:54Z</time></trkpt><trkpt lat="15.540302052194088" lon="120.64908288229412"><ele>31.5</ele><time>2026-03-28T13:10:55Z</time></trkpt><trkpt lat="15.540511274353364" lon="120.6489339443199"><ele>31.0</ele><time>2026-03-28T13:10:56Z</time></trkpt><trkpt lat="15.540710115408741" lon="120.64878809080778"><ele>31.0</ele><time>2026-03-28T13:10:57Z</time></trkpt><trkpt lat="15.540907742233495" lon="120.64864332256721"><ele>31.0</ele><time>2026-03-28T13:10:58Z</time></trkpt><trkpt lat="15.5410962931824" lon="120.64849973104467"><ele>31.0</ele><time>2026-03-28T13:10:59Z</time></trkpt><trkpt lat="15.54129669698121" lon="120.64834856141651"><ele>31.0</ele><time>2026-03-28T13:11:00Z</time></trkpt><trkpt lat="15.54148079202116" lon="120.64820873322364"><ele>31.0</ele><time>2026-03-28T13:11:01Z</time></trkpt><trkpt lat="15.541673865214397" lon="120.64806195028027"><ele>31.0</ele><time>2026-03-28T13:11:02Z</time></trkpt><trkpt lat="15.541869478325395" lon="120.64791062928371"><ele>31.0</ele><time>2026-03-28T13:11:03Z</time></trkpt><trkpt lat="15.542059856781828" lon="120.64775862168882"><ele>31.0</ele><time>2026-03-28T13:11:04Z</time></trkpt><trkpt lat="15.542243049819517" lon="120.64760859141954"><ele>31.0</ele><time>2026-03-28T13:11:05Z</time></trkpt><trkpt lat="15.54244068476832" lon="120.64745178858975"><ele>31.0</ele><time>2026-03-28T13:11:06Z</time></trkpt><trkpt lat="15.542631235166342" lon="120.6472898913881"><ele>31.0</ele><time>2026-03-28T13:11:07Z</time></trkpt><trkpt lat="15.54282451425549" lon="120.64713450631761"><ele>31.0</ele><time>2026-03-28T13:11:08Z</time></trkpt><trkpt lat="15.54302635786468" lon="120.64697767283533"><ele>32.0</ele><time>2026-03-28T13:11:09Z</time></trkpt><trkpt lat="15.543219123253609" lon="120.64681590389962"><ele>33.0</ele><time>2026-03-28T13:11:10Z</time></trkpt><trkpt lat="15.543406167345195" lon="120.64665816303639"><ele>33.0</ele><time>2026-03-28T13:11:11Z</time></trkpt><trkpt lat="15.543594716192393" lon="120.64649484737572"><ele>33.0</ele><time>2026-03-28T13:11:12Z</time></trkpt><trkpt lat="15.543794325667934" lon="120.64633761154708"><ele>33.0</ele><time>2026-03-28T13:11:13Z</time></trkpt><trkpt lat="15.543992192527314" lon="120.6461788389411"><ele>33.0</ele><time>2026-03-28T13:11:14Z</time></trkpt><trkpt lat="15.544184778184105" lon="120.64601649883008"><ele>33.0</ele><time>2026-03-28T13:11:15Z</time></trkpt><trkpt lat="15.544373157895809" lon="120.64585226322949"><ele>33.0</ele><time>2026-03-28T13:11:16Z</time></trkpt><trkpt lat="15.544569989221356" lon="120.64568416854236"><ele>32.5</ele><time>2026-03-28T13:11:17Z</time></trkpt><trkpt lat="15.544768759217915" lon="120.64551644984181"><ele>32.0</ele><time>2026-03-28T13:11:18Z</time></trkpt><trkpt lat="15.544973296225406" lon="120.64535088546702"><ele>32.0</ele><time>2026-03-28T13:11:19Z</time></trkpt><trkpt lat="15.545176724540461" lon="120.64518076650124"><ele>32.0</ele><time>2026-03-28T13:11:20Z</time></trkpt><trkpt lat="15.545392709703982" lon="120.64500075741195"><ele>32.0</ele><time>2026-03-28T13:11:21Z</time></trkpt><trkpt lat="15.545607075522222" lon="120.64483190591491"><ele>32.0</ele><time>2026-03-28T13:11:22Z</time></trkpt><trkpt lat="15.54583367415991" lon="120.64465102700245"><ele>32.0</ele><time>2026-03-28T13:11:23Z</time></trkpt><trkpt lat="15.546051226448524" lon="120.64448883051894"><ele>32.0</ele><time>2026-03-28T13:11:24Z</time></trkpt><trkpt lat="15.546270779171818" lon="120.64432861738968"><ele>31.5</ele><time>2026-03-28T13:11:25Z</time></trkpt><trkpt lat="15.546492049503266" lon="120.64416101116598"><ele>31.0</ele><time>2026-03-28T13:11:26Z</time></trkpt><trkpt lat="15.546715890539183" lon="120.64398446960911"><ele>31.0</ele><time>2026-03-28T13:11:27Z</time></trkpt><trkpt lat="15.54693938201036" lon="120.64381211129718"><ele>31.0</ele><time>2026-03-28T13:11:28Z</time></trkpt><trkpt lat="15.547170053923256" lon="120.64363784323851"><ele>33.0</ele><time>2026-03-28T13:11:29Z</time></trkpt><trkpt lat="15.547403664752071" lon="120.64346093042471"><ele>35.0</ele><time>2026-03-28T13:11:30Z</time></trkpt><trkpt lat="15.54764215063862" lon="120.64328964988101"><ele>33.5</ele><time>2026-03-28T13:11:31Z</time></trkpt><trkpt lat="15.54788834367026" lon="120.64311164882673"><ele>32.0</ele><time>2026-03-28T13:11:32Z</time></trkpt><trkpt lat="15.548129600641285" lon="120.64293835487781"><ele>33.0</ele><time>2026-03-28T13:11:33Z</time></trkpt><trkpt lat="15.548369245618552" lon="120.64275718230884"><ele>34.0</ele><time>2026-03-28T13:11:34Z</time></trkpt><trkpt lat="15.548600144051896" lon="120.64259316140587"><ele>33.5</ele><time>2026-03-28T13:11:35Z</time></trkpt><trkpt lat="15.54882846740195" lon="120.64242325975881"><ele>33.0</ele><time>2026-03-28T13:11:36Z</time></trkpt><trkpt lat="15.549057742909326" lon="120.6422641409646"><ele>33.0</ele><time>2026-03-28T13:11:37Z</time></trkpt><trkpt lat="15.549294849867268" lon="120.64210602399393"><ele>33.0</ele><time>2026-03-28T13:11:38Z</time></trkpt><trkpt lat="15.549519229373042" lon="120.64195720208629"><ele>34.5</ele><time>2026-03-28T13:11:39Z</time></trkpt><trkpt lat="15.549739787282203" lon="120.6418086635295"><ele>36.0</ele><time>2026-03-28T13:11:40Z</time></trkpt><trkpt lat="15.549975831718715" lon="120.64164837642066"><ele>36.0</ele><time>2026-03-28T13:11:41Z</time></trkpt><trkpt lat="15.550194932757188" lon="120.64149197034527"><ele>36.0</ele><time>2026-03-28T13:11:42Z</time></trkpt><trkpt lat="15.550420356429203" lon="120.64134028591933"><ele>35.5</ele><time>2026-03-28T13:11:43Z</time></trkpt><trkpt lat="15.550644288097015" lon="120.64119259567718"><ele>35.0</ele><time>2026-03-28T13:11:44Z</time></trkpt><trkpt lat="15.550862991827078" lon="120.64104616792855"><ele>34.5</ele><time>2026-03-28T13:11:45Z</time></trkpt><trkpt lat="15.551081752253399" lon="120.64090218477631"><ele>34.0</ele><time>2026-03-28T13:11:46Z</time></trkpt><trkpt lat="15.551287343156446" lon="120.64075938854192"><ele>33.5</ele><time>2026-03-28T13:11:47Z</time></trkpt><trkpt lat="15.551500121603453" lon="120.64062212170333"><ele>33.0</ele><time>2026-03-28T13:11:48Z</time></trkpt><trkpt lat="15.551718634921519" lon="120.64048162822412"><ele>33.0</ele><time>2026-03-28T13:11:49Z</time></trkpt><trkpt lat="15.55193925552406" lon="120.6403493554013"><ele>33.0</ele><time>2026-03-28T13:11:50Z</time></trkpt><trkpt lat="15.55215962666529" lon="120.64021479400017"><ele>34.0</ele><time>2026-03-28T13:11:51Z</time></trkpt><trkpt lat="15.552381587966021" lon="120.64008301234979"><ele>35.0</ele><time>2026-03-28T13:11:52Z</time></trkpt><trkpt lat="15.552603089765253" lon="120.63994639620202"><ele>35.0</ele><time>2026-03-28T13:11:53Z</time></trkpt><trkpt lat="15.5528257287533" lon="120.63981248789082"><ele>35.0</ele><time>2026-03-28T13:11:54Z</time></trkpt><trkpt lat="15.553051088297845" lon="120.63968343194698"><ele>35.0</ele><time>2026-03-28T13:11:55Z</time></trkpt><trkpt lat="15.55327974912345" lon="120.63955443784718"><ele>35.0</ele><time>2026-03-28T13:11:56Z</time></trkpt><trkpt lat="15.55351066692081" lon="120.63942124426279"><ele>33.5</ele><time>2026-03-28T13:11:57Z</time></trkpt><trkpt lat="15.553746509793795" lon="120.63928744672809"><ele>32.0</ele><time>2026-03-28T13:11:58Z</time></trkpt><trkpt lat="15.553976617253488" lon="120.63915629151742"><ele>32.0</ele><time>2026-03-28T13:11:59Z</time></trkpt><trkpt lat="15.554207055441507" lon="120.63902813842896"><ele>32.0</ele><time>2026-03-28T13:12:00Z</time></trkpt><trkpt lat="15.554423350535489" lon="120.63890364138706"><ele>33.0</ele><time>2026-03-28T13:12:01Z</time></trkpt><trkpt lat="15.554638848790661" lon="120.63877977135878"><ele>34.0</ele><time>2026-03-28T13:12:02Z</time></trkpt><trkpt lat="15.554863278726156" lon="120.63866190224392"><ele>33.5</ele><time>2026-03-28T13:12:03Z</time></trkpt><trkpt lat="15.555075753830765" lon="120.6385519446716"><ele>33.0</ele><time>2026-03-28T13:12:04Z</time></trkpt><trkpt lat="15.555284532073633" lon="120.63845164925254"><ele>33.0</ele><time>2026-03-28T13:12:05Z</time></trkpt><trkpt lat="15.55547905667113" lon="120.63835104320977"><ele>33.0</ele><time>2026-03-28T13:12:06Z</time></trkpt><trkpt lat="15.555671406198368" lon="120.63825659488995"><ele>33.0</ele><time>2026-03-28T13:12:07Z</time></trkpt><trkpt lat="15.555846205533422" lon="120.63816402249077"><ele>33.0</ele><time>2026-03-28T13:12:08Z</time></trkpt><trkpt lat="15.556014889733818" lon="120.63807157638048"><ele>33.0</ele><time>2026-03-28T13:12:09Z</time></trkpt><trkpt lat="15.556196801905518" lon="120.63798790429264"><ele>33.0</ele><time>2026-03-28T13:12:10Z</time></trkpt><trkpt lat="15.556374282177659" lon="120.63790354546977"><ele>33.333333333333336</ele><time>2026-03-28T13:12:11Z</time></trkpt><trkpt lat="15.5565238985938" lon="120.6378068341175"><ele>33.66666666666667</ele><time>2026-03-28T13:12:12Z</time></trkpt><trkpt lat="15.556698310938089" lon="120.63771627683009"><ele>34.0</ele><time>2026-03-28T13:12:13Z</time></trkpt><trkpt lat="15.55687087496912" lon="120.63762577879966"><ele>34.333333333333336</ele><time>2026-03-28T13:12:14Z</time></trkpt><trkpt lat="15.557047734875862" lon="120.63753977289942"><ele>34.666666666666664</ele><time>2026-03-28T13:12:15Z</time></trkpt><trkpt lat="15.557227173871542" lon="120.63744326724778"><ele>35.0</ele><time>2026-03-28T13:12:16Z</time></trkpt><trkpt lat="15.557417412711917" lon="120.63735555308114"><ele>35.0</ele><time>2026-03-28T13:12:17Z</time></trkpt><trkpt lat="15.557597222513982" lon="120.63726654983732"><ele>35.0</ele><time>2026-03-28T13:12:18Z</time></trkpt><trkpt lat="15.557773100250325" lon="120.63717692492246"><ele>35.0</ele><time>2026-03-28T13:12:19Z</time></trkpt><trkpt lat="15.557973985878341" lon="120.63707905686735"><ele>34.666666666666664</ele><time>2026-03-28T13:12:20Z</time></trkpt><trkpt lat="15.558150995191523" lon="120.636996560644"><ele>34.333333333333336</ele><time>2026-03-28T13:12:21Z</time></trkpt><trkpt lat="15.558342243300272" lon="120.6369041719499"><ele>34.0</ele><time>2026-03-28T13:12:22Z</time></trkpt><trkpt lat="15.558524153952257" lon="120.6368113040471"><ele>33.66666666666667</ele><time>2026-03-28T13:12:23Z</time></trkpt><trkpt lat="15.558711833670646" lon="120.63672236954702"><ele>33.333333333333336</ele><time>2026-03-28T13:12:24Z</time></trkpt><trkpt lat="15.5589000825363" lon="120.63663763730116"><ele>33.0</ele><time>2026-03-28T13:12:25Z</time></trkpt><trkpt lat="15.559088596224484" lon="120.63655184138561"><ele>33.0</ele><time>2026-03-28T13:12:26Z</time></trkpt><trkpt lat="15.559280115539249" lon="120.63646215231888"><ele>33.0</ele><time>2026-03-28T13:12:27Z</time></trkpt><trkpt lat="15.55946788330687" lon="120.63637641724188"><ele>33.0</ele><time>2026-03-28T13:12:28Z</time></trkpt><trkpt lat="15.559663085299404" lon="120.63629157646548"><ele>33.0</ele><time>2026-03-28T13:12:29Z</time></trkpt><trkpt lat="15.559854718963763" lon="120.63620603001893"><ele>33.0</ele><time>2026-03-28T13:12:30Z</time></trkpt><trkpt lat="15.560043493683866" lon="120.63612170203697"><ele>33.0</ele><time>2026-03-28T13:12:31Z</time></trkpt><trkpt lat="15.560233844624282" lon="120.63603818895035"><ele>33.0</ele><time>2026-03-28T13:12:32Z</time></trkpt><trkpt lat="15.560426767234832" lon="120.63595344301768"><ele>33.0</ele><time>2026-03-28T13:12:33Z</time></trkpt><trkpt lat="15.5606202750313" lon="120.63587067341506"><ele>33.0</ele><time>2026-03-28T13:12:34Z</time></trkpt><trkpt lat="15.560820977150556" lon="120.63578906922841"><ele>33.0</ele><time>2026-03-28T13:12:35Z</time></trkpt><trkpt lat="15.561025523933697" lon="120.63570450608171"><ele>33.0</ele><time>2026-03-28T13:12:36Z</time></trkpt><trkpt lat="15.561239563791188" lon="120.63561213780716"><ele>32.0</ele><time>2026-03-28T13:12:37Z</time></trkpt><trkpt lat="15.56145021838498" lon="120.63552766612415"><ele>31.0</ele><time>2026-03-28T13:12:38Z</time></trkpt><trkpt lat="15.561667437094258" lon="120.63543816958881"><ele>31.0</ele><time>2026-03-28T13:12:39Z</time></trkpt><trkpt lat="15.561883889679516" lon="120.63535292463747"><ele>31.0</ele><time>2026-03-28T13:12:40Z</time></trkpt><trkpt lat="15.56210066992499" lon="120.63527307932796"><ele>31.0</ele><time>2026-03-28T13:12:41Z</time></trkpt><trkpt lat="15.562318953274938" lon="120.63519144783525"><ele>31.0</ele><time>2026-03-28T13:12:42Z</time></trkpt><trkpt lat="15.562530711451476" lon="120.63511533728335"><ele>31.0</ele><time>2026-03-28T13:12:43Z</time></trkpt><trkpt lat="15.562746872839668" lon="120.63503466163576"><ele>31.0</ele><time>2026-03-28T13:12:44Z</time></trkpt><trkpt lat="15.562967209200371" lon="120.63495393465475"><ele>31.5</ele><time>2026-03-28T13:12:45Z</time></trkpt><trkpt lat="15.563190518126236" lon="120.63488035831807"><ele>32.0</ele><time>2026-03-28T13:12:46Z</time></trkpt><trkpt lat="15.563412476886693" lon="120.63480265949553"><ele>32.0</ele><time>2026-03-28T13:12:47Z</time></trkpt><trkpt lat="15.563631197390823" lon="120.6347292010982"><ele>32.0</ele><time>2026-03-28T13:12:48Z</time></trkpt><trkpt lat="15.563847161923809" lon="120.63465572758813"><ele>31.0</ele><time>2026-03-28T13:12:49Z</time></trkpt><trkpt lat="15.564084283254504" lon="120.63455744456384"><ele>30.0</ele><time>2026-03-28T13:12:50Z</time></trkpt><trkpt lat="15.564298792007579" lon="120.63448156337672"><ele>31.0</ele><time>2026-03-28T13:12:51Z</time></trkpt><trkpt lat="15.564508750187592" lon="120.6344077167012"><ele>32.0</ele><time>2026-03-28T13:12:52Z</time></trkpt><trkpt lat="15.56472693107745" lon="120.63433207761872"><ele>32.0</ele><time>2026-03-28T13:12:53Z</time></trkpt><trkpt lat="15.564937747151168" lon="120.63425642269482"><ele>32.0</ele><time>2026-03-28T13:12:54Z</time></trkpt><trkpt lat="15.565139340049289" lon="120.63419160310539"><ele>32.0</ele><time>2026-03-28T13:12:55Z</time></trkpt><trkpt lat="15.565342662851414" lon="120.63412973988011"><ele>30.5</ele><time>2026-03-28T13:12:56Z</time></trkpt><trkpt lat="15.56555950130868" lon="120.6340577670559"><ele>29.0</ele><time>2026-03-28T13:12:57Z</time></trkpt><trkpt lat="15.56577597696849" lon="120.63398863985945"><ele>29.0</ele><time>2026-03-28T13:12:58Z</time></trkpt><trkpt lat="15.565995250043777" lon="120.63391537753478"><ele>29.0</ele><time>2026-03-28T13:12:59Z</time></trkpt><trkpt lat="15.566204641882212" lon="120.63384614836542"><ele>29.333333333333332</ele><time>2026-03-28T13:13:00Z</time></trkpt><trkpt lat="15.566411583857628" lon="120.63378152659408"><ele>29.666666666666664</ele><time>2026-03-28T13:13:01Z</time></trkpt><trkpt lat="15.566626446836054" lon="120.63371738810491"><ele>30.0</ele><time>2026-03-28T13:13:02Z</time></trkpt><trkpt lat="15.56683632199672" lon="120.63364965327958"><ele>30.0</ele><time>2026-03-28T13:13:03Z</time></trkpt><trkpt lat="15.567045939831965" lon="120.63359146149462"><ele>30.0</ele><time>2026-03-28T13:13:04Z</time></trkpt><trkpt lat="15.567254201282939" lon="120.63352861599883"><ele>30.0</ele><time>2026-03-28T13:13:05Z</time></trkpt><trkpt lat="15.567460429213119" lon="120.63347246388786"><ele>30.0</ele><time>2026-03-28T13:13:06Z</time></trkpt><trkpt lat="15.567675924978792" lon="120.63341163079681"><ele>30.0</ele><time>2026-03-28T13:13:07Z</time></trkpt><trkpt lat="15.567886359982044" lon="120.63335406152784"><ele>30.0</ele><time>2026-03-28T13:13:08Z</time></trkpt><trkpt lat="15.568109042752054" lon="120.63329202712089"><ele>30.0</ele><time>2026-03-28T13:13:09Z</time></trkpt><trkpt lat="15.568340054336183" lon="120.63323444822537"><ele>30.0</ele><time>2026-03-28T13:13:10Z</time></trkpt><trkpt lat="15.568562820389175" lon="120.63317876060263"><ele>30.5</ele><time>2026-03-28T13:13:11Z</time></trkpt><trkpt lat="15.568784452331803" lon="120.63311017191052"><ele>31.0</ele><time>2026-03-28T13:13:12Z</time></trkpt><trkpt lat="15.569011573976853" lon="120.6330371941448"><ele>31.0</ele><time>2026-03-28T13:13:13Z</time></trkpt><trkpt lat="15.569246017767787" lon="120.63297761182424"><ele>31.0</ele><time>2026-03-28T13:13:14Z</time></trkpt><trkpt lat="15.569474267847378" lon="120.63292007101185"><ele>30.5</ele><time>2026-03-28T13:13:15Z</time></trkpt><trkpt lat="15.569706891492464" lon="120.63286664976178"><ele>30.0</ele><time>2026-03-28T13:13:16Z</time></trkpt><trkpt lat="15.56993118881869" lon="120.63280688812061"><ele>29.5</ele><time>2026-03-28T13:13:17Z</time></trkpt><trkpt lat="15.570154883515125" lon="120.63275138308488"><ele>29.0</ele><time>2026-03-28T13:13:18Z</time></trkpt><trkpt lat="15.570382366960038" lon="120.63269510137802"><ele>30.0</ele><time>2026-03-28T13:13:19Z</time></trkpt><trkpt lat="15.570613246713107" lon="120.63264619596039"><ele>31.0</ele><time>2026-03-28T13:13:20Z</time></trkpt><trkpt lat="15.570839756475022" lon="120.63259689906646"><ele>31.0</ele><time>2026-03-28T13:13:21Z</time></trkpt><trkpt lat="15.571073610765472" lon="120.63254718549341"><ele>31.0</ele><time>2026-03-28T13:13:22Z</time></trkpt><trkpt lat="15.571301680767919" lon="120.63249670503811"><ele>31.0</ele><time>2026-03-28T13:13:23Z</time></trkpt><trkpt lat="15.571517017056985" lon="120.63244691270793"><ele>31.0</ele><time>2026-03-28T13:13:24Z</time></trkpt><trkpt lat="15.57174894303122" lon="120.63239467177473"><ele>31.0</ele><time>2026-03-28T13:13:25Z</time></trkpt><trkpt lat="15.571978269369549" lon="120.6323467208922"><ele>31.0</ele><time>2026-03-28T13:13:26Z</time></trkpt><trkpt lat="15.572199863554514" lon="120.63229948000675"><ele>30.5</ele><time>2026-03-28T13:13:27Z</time></trkpt><trkpt lat="15.572417886480903" lon="120.63225078701515"><ele>30.0</ele><time>2026-03-28T13:13:28Z</time></trkpt><trkpt lat="15.572659192308336" lon="120.63220268152386"><ele>31.0</ele><time>2026-03-28T13:13:29Z</time></trkpt><trkpt lat="15.572898628613936" lon="120.63216392991349"><ele>32.0</ele><time>2026-03-28T13:13:30Z</time></trkpt><trkpt lat="15.573138981376601" lon="120.63212133890268"><ele>32.0</ele><time>2026-03-28T13:13:31Z</time></trkpt><trkpt lat="15.573366695681836" lon="120.63207819663306"><ele>32.0</ele><time>2026-03-28T13:13:32Z</time></trkpt><trkpt lat="15.573610191361798" lon="120.63204093281094"><ele>31.5</ele><time>2026-03-28T13:13:33Z</time></trkpt><trkpt lat="15.573847552682238" lon="120.63199989648365"><ele>31.0</ele><time>2026-03-28T13:13:34Z</time></trkpt><trkpt lat="15.574084013536627" lon="120.6319663428859"><ele>31.5</ele><time>2026-03-28T13:13:35Z</time></trkpt><trkpt lat="15.574329185735289" lon="120.63193256911053"><ele>32.0</ele><time>2026-03-28T13:13:36Z</time></trkpt><trkpt lat="15.57457472544541" lon="120.63189472606082"><ele>32.0</ele><time>2026-03-28T13:13:37Z</time></trkpt><trkpt lat="15.574821136027772" lon="120.63185825900193"><ele>32.0</ele><time>2026-03-28T13:13:38Z</time></trkpt><trkpt lat="15.575068111967227" lon="120.63182187344948"><ele>32.0</ele><time>2026-03-28T13:13:39Z</time></trkpt><trkpt lat="15.575317912104055" lon="120.63178348544987"><ele>32.0</ele><time>2026-03-28T13:13:40Z</time></trkpt><trkpt lat="15.57556642371026" lon="120.63174786181601"><ele>31.5</ele><time>2026-03-28T13:13:41Z</time></trkpt><trkpt lat="15.575815278956135" lon="120.63171233437373"><ele>31.0</ele><time>2026-03-28T13:13:42Z</time></trkpt><trkpt lat="15.576065768324636" lon="120.63167903753923"><ele>30.5</ele><time>2026-03-28T13:13:43Z</time></trkpt><trkpt lat="15.576312559434024" lon="120.63164894287834"><ele>30.0</ele><time>2026-03-28T13:13:44Z</time></trkpt><trkpt lat="15.576563162528842" lon="120.63161726392083"><ele>30.0</ele><time>2026-03-28T13:13:45Z</time></trkpt><trkpt lat="15.576814402184535" lon="120.63158225400737"><ele>30.0</ele><time>2026-03-28T13:13:46Z</time></trkpt><trkpt lat="15.577067787510835" lon="120.63155158150232"><ele>30.5</ele><time>2026-03-28T13:13:47Z</time></trkpt><trkpt lat="15.577319630988006" lon="120.63150681584848"><ele>31.0</ele><time>2026-03-28T13:13:48Z</time></trkpt><trkpt lat="15.577574583460464" lon="120.63147499770128"><ele>31.0</ele><time>2026-03-28T13:13:49Z</time></trkpt><trkpt lat="15.577826823257187" lon="120.63143887614517"><ele>31.0</ele><time>2026-03-28T13:13:50Z</time></trkpt><trkpt lat="15.578074162908008" lon="120.6314034227295"><ele>31.5</ele><time>2026-03-28T13:13:51Z</time></trkpt><trkpt lat="15.578322460263937" lon="120.63137079910568"><ele>32.0</ele><time>2026-03-28T13:13:52Z</time></trkpt><trkpt lat="15.57857331202226" lon="120.63134592611404"><ele>31.0</ele><time>2026-03-28T13:13:53Z</time></trkpt><trkpt lat="15.578823925987603" lon="120.63131708936064"><ele>30.0</ele><time>2026-03-28T13:13:54Z</time></trkpt><trkpt lat="15.579067048625644" lon="120.63129690527948"><ele>30.0</ele><time>2026-03-28T13:13:55Z</time></trkpt><trkpt lat="15.579314194554405" lon="120.6312754566538"><ele>30.0</ele><time>2026-03-28T13:13:56Z</time></trkpt><trkpt lat="15.579556508689052" lon="120.63125688228705"><ele>32.0</ele><time>2026-03-28T13:13:57Z</time></trkpt><trkpt lat="15.579804003450025" lon="120.63123875797552"><ele>34.0</ele><time>2026-03-28T13:13:58Z</time></trkpt><trkpt lat="15.580049973171313" lon="120.63121769967361"><ele>34.0</ele><time>2026-03-28T13:13:59Z</time></trkpt><trkpt lat="15.580296804654987" lon="120.63119851109283"><ele>34.0</ele><time>2026-03-28T13:14:00Z</time></trkpt><trkpt lat="15.58053967319895" lon="120.63118151873901"><ele>33.0</ele><time>2026-03-28T13:14:01Z</time></trkpt><trkpt lat="15.580794252712199" lon="120.63116896972083"><ele>32.0</ele><time>2026-03-28T13:14:02Z</time></trkpt><trkpt lat="15.581041804337959" lon="120.63114801760636"><ele>31.5</ele><time>2026-03-28T13:14:03Z</time></trkpt><trkpt lat="15.581287368737627" lon="120.63113573955478"><ele>31.0</ele><time>2026-03-28T13:14:04Z</time></trkpt><trkpt lat="15.581536193277126" lon="120.63112573158455"><ele>31.0</ele><time>2026-03-28T13:14:05Z</time></trkpt><trkpt lat="15.581782857069395" lon="120.63111397430247"><ele>31.0</ele><time>2026-03-28T13:14:06Z</time></trkpt><trkpt lat="15.582035664686332" lon="120.6311019342684"><ele>30.5</ele><time>2026-03-28T13:14:07Z</time></trkpt><trkpt lat="15.582296759791854" lon="120.63109364657527"><ele>30.0</ele><time>2026-03-28T13:14:08Z</time></trkpt><trkpt lat="15.58256219698368" lon="120.63108663528448"><ele>30.0</ele><time>2026-03-28T13:14:09Z</time></trkpt><trkpt lat="15.582823128017644" lon="120.63108078157946"><ele>30.0</ele><time>2026-03-28T13:14:10Z</time></trkpt><trkpt lat="15.583079814125856" lon="120.6310741809546"><ele>31.0</ele><time>2026-03-28T13:14:11Z</time></trkpt><trkpt lat="15.5833437857956" lon="120.63107532548769"><ele>32.0</ele><time>2026-03-28T13:14:12Z</time></trkpt><trkpt lat="15.583606382601372" lon="120.63107940679049"><ele>30.5</ele><time>2026-03-28T13:14:13Z</time></trkpt><trkpt lat="15.583861856417137" lon="120.63107451073996"><ele>29.0</ele><time>2026-03-28T13:14:14Z</time></trkpt><trkpt lat="15.584106224319465" lon="120.6310718466838"><ele>29.0</ele><time>2026-03-28T13:14:15Z</time></trkpt><trkpt lat="15.584353047016323" lon="120.63106439066298"><ele>29.0</ele><time>2026-03-28T13:14:16Z</time></trkpt><trkpt lat="15.584608121893279" lon="120.63106473558621"><ele>30.0</ele><time>2026-03-28T13:14:17Z</time></trkpt><trkpt lat="15.584864745714457" lon="120.63107016171122"><ele>31.0</ele><time>2026-03-28T13:14:18Z</time></trkpt><trkpt lat="15.585121666080774" lon="120.63107223041648"><ele>31.5</ele><time>2026-03-28T13:14:19Z</time></trkpt><trkpt lat="15.585374735780643" lon="120.63107247868129"><ele>32.0</ele><time>2026-03-28T13:14:20Z</time></trkpt><trkpt lat="15.5856300794767" lon="120.63107378103054"><ele>32.0</ele><time>2026-03-28T13:14:21Z</time></trkpt><trkpt lat="15.585886086687715" lon="120.63107804797703"><ele>32.0</ele><time>2026-03-28T13:14:22Z</time></trkpt><trkpt lat="15.586134449319845" lon="120.6310760467982"><ele>31.0</ele><time>2026-03-28T13:14:23Z</time></trkpt><trkpt lat="15.586382376077152" lon="120.63107703467294"><ele>30.0</ele><time>2026-03-28T13:14:24Z</time></trkpt><trkpt lat="15.586630919244651" lon="120.63107691830896"><ele>30.0</ele><time>2026-03-28T13:14:25Z</time></trkpt><trkpt lat="15.58687825923592" lon="120.63107001257553"><ele>30.0</ele><time>2026-03-28T13:14:26Z</time></trkpt><trkpt lat="15.58712729322183" lon="120.63107103150634"><ele>30.0</ele><time>2026-03-28T13:14:27Z</time></trkpt><trkpt lat="15.587367826285348" lon="120.63106510393929"><ele>30.0</ele><time>2026-03-28T13:14:28Z</time></trkpt><trkpt lat="15.58761163138864" lon="120.63106361745332"><ele>29.5</ele><time>2026-03-28T13:14:29Z</time></trkpt><trkpt lat="15.587860984225898" lon="120.63106573612136"><ele>29.0</ele><time>2026-03-28T13:14:30Z</time></trkpt><trkpt lat="15.58810497760357" lon="120.63106616134958"><ele>29.0</ele><time>2026-03-28T13:14:31Z</time></trkpt><trkpt lat="15.588347385224273" lon="120.6310658271701"><ele>29.0</ele><time>2026-03-28T13:14:32Z</time></trkpt><trkpt lat="15.588588160842917" lon="120.63106471453071"><ele>28.5</ele><time>2026-03-28T13:14:33Z</time></trkpt><trkpt lat="15.588823621870585" lon="120.63106708521228"><ele>28.0</ele><time>2026-03-28T13:14:34Z</time></trkpt><trkpt lat="15.589057469331815" lon="120.63106185484173"><ele>28.0</ele><time>2026-03-28T13:14:35Z</time></trkpt><trkpt lat="15.58927963297197" lon="120.63106056268101"><ele>28.0</ele><time>2026-03-28T13:14:36Z</time></trkpt><trkpt lat="15.589509316655358" lon="120.63105956495032"><ele>28.0</ele><time>2026-03-28T13:14:37Z</time></trkpt><trkpt lat="15.58973476757508" lon="120.6310526397258"><ele>28.0</ele><time>2026-03-28T13:14:38Z</time></trkpt><trkpt lat="15.589958589494907" lon="120.6310524494073"><ele>28.0</ele><time>2026-03-28T13:14:39Z</time></trkpt><trkpt lat="15.59017831871795" lon="120.631047999282"><ele>28.333333333333336</ele><time>2026-03-28T13:14:40Z</time></trkpt><trkpt lat="15.590403145902753" lon="120.63105114108684"><ele>28.666666666666664</ele><time>2026-03-28T13:14:41Z</time></trkpt><trkpt lat="15.590625957612327" lon="120.63105567730571"><ele>29.0</ele><time>2026-03-28T13:14:42Z</time></trkpt><trkpt lat="15.590844171732611" lon="120.63106195000891"><ele>29.0</ele><time>2026-03-28T13:14:43Z</time></trkpt><trkpt lat="15.591064699397831" lon="120.63106585215438"><ele>29.0</ele><time>2026-03-28T13:14:44Z</time></trkpt><trkpt lat="15.591289101031542" lon="120.6310718935936"><ele>29.0</ele><time>2026-03-28T13:14:45Z</time></trkpt><trkpt lat="15.591515576400308" lon="120.63107483760827"><ele>28.0</ele><time>2026-03-28T13:14:46Z</time></trkpt><trkpt lat="15.59174586310119" lon="120.63107566279058"><ele>27.0</ele><time>2026-03-28T13:14:47Z</time></trkpt><trkpt lat="15.591981835486516" lon="120.63107645588384"><ele>26.5</ele><time>2026-03-28T13:14:48Z</time></trkpt><trkpt lat="15.592218937666802" lon="120.63107532894159"><ele>26.0</ele><time>2026-03-28T13:14:49Z</time></trkpt><trkpt lat="15.592449766701753" lon="120.63107627053931"><ele>26.0</ele><time>2026-03-28T13:14:50Z</time></trkpt><trkpt lat="15.59269021864212" lon="120.6310789159878"><ele>26.0</ele><time>2026-03-28T13:14:51Z</time></trkpt><trkpt lat="15.592925409618708" lon="120.63107327354162"><ele>26.0</ele><time>2026-03-28T13:14:52Z</time></trkpt><trkpt lat="15.593163027041095" lon="120.6310747859523"><ele>26.0</ele><time>2026-03-28T13:14:53Z</time></trkpt><trkpt lat="15.593404255221431" lon="120.63106981642682"><ele>26.0</ele><time>2026-03-28T13:14:54Z</time></trkpt><trkpt lat="15.593645675652306" lon="120.63107221821564"><ele>26.0</ele><time>2026-03-28T13:14:55Z</time></trkpt><trkpt lat="15.593891636530907" lon="120.63107699552113"><ele>27.0</ele><time>2026-03-28T13:14:56Z</time></trkpt><trkpt lat="15.594137558702027" lon="120.6310808581365"><ele>28.0</ele><time>2026-03-28T13:14:57Z</time></trkpt><trkpt lat="15.594380513848064" lon="120.63108093970973"><ele>27.5</ele><time>2026-03-28T13:14:58Z</time></trkpt><trkpt lat="15.594621849989082" lon="120.6310757904797"><ele>27.0</ele><time>2026-03-28T13:14:59Z</time></trkpt><trkpt lat="15.594866185823534" lon="120.63107812135276"><ele>27.0</ele><time>2026-03-28T13:15:00Z</time></trkpt><trkpt lat="15.59513017312543" lon="120.6310684034584"><ele>27.0</ele><time>2026-03-28T13:15:01Z</time></trkpt><trkpt lat="15.595380769887528" lon="120.63106317797838"><ele>27.0</ele><time>2026-03-28T13:15:02Z</time></trkpt><trkpt lat="15.5956269978081" lon="120.63106291349851"><ele>27.0</ele><time>2026-03-28T13:15:03Z</time></trkpt><trkpt lat="15.595870550802772" lon="120.63106708158993"><ele>27.0</ele><time>2026-03-28T13:15:04Z</time></trkpt><trkpt lat="15.596116734291599" lon="120.63105967607015"><ele>27.0</ele><time>2026-03-28T13:15:05Z</time></trkpt><trkpt lat="15.596364230615805" lon="120.63105599172206"><ele>27.0</ele><time>2026-03-28T13:15:06Z</time></trkpt><trkpt lat="15.59660195413287" lon="120.63105717712233"><ele>27.0</ele><time>2026-03-28T13:15:07Z</time></trkpt><trkpt lat="15.596845129358988" lon="120.63106171795111"><ele>27.0</ele><time>2026-03-28T13:15:08Z</time></trkpt><trkpt lat="15.597082573195049" lon="120.63106256736968"><ele>27.0</ele><time>2026-03-28T13:15:09Z</time></trkpt><trkpt lat="15.59732619883497" lon="120.63106372981967"><ele>27.0</ele><time>2026-03-28T13:15:10Z</time></trkpt><trkpt lat="15.597576565692435" lon="120.63106725135086"><ele>27.0</ele><time>2026-03-28T13:15:11Z</time></trkpt><trkpt lat="15.597829164682818" lon="120.6310694041682"><ele>26.5</ele><time>2026-03-28T13:15:12Z</time></trkpt><trkpt lat="15.59807709709071" lon="120.63107411402785"><ele>26.0</ele><time>2026-03-28T13:15:13Z</time></trkpt><trkpt lat="15.59832336056332" lon="120.63107485486037"><ele>26.0</ele><time>2026-03-28T13:15:14Z</time></trkpt><trkpt lat="15.598578221863466" lon="120.63107555093316"><ele>26.0</ele><time>2026-03-28T13:15:15Z</time></trkpt><trkpt lat="15.598833530763173" lon="120.63107965341851"><ele>26.0</ele><time>2026-03-28T13:15:16Z</time></trkpt><trkpt lat="15.599086163348248" lon="120.63107759616247"><ele>26.0</ele><time>2026-03-28T13:15:17Z</time></trkpt><trkpt lat="15.599344191973652" lon="120.63107396395012"><ele>27.0</ele><time>2026-03-28T13:15:18Z</time></trkpt><trkpt lat="15.599605963377996" lon="120.63107801162326"><ele>28.0</ele><time>2026-03-28T13:15:19Z</time></trkpt><trkpt lat="15.599865953667525" lon="120.63107696032831"><ele>28.0</ele><time>2026-03-28T13:15:20Z</time></trkpt><trkpt lat="15.600129833039821" lon="120.63107919054181"><ele>28.0</ele><time>2026-03-28T13:15:21Z</time></trkpt><trkpt lat="15.60038926057397" lon="120.6310758517058"><ele>26.5</ele><time>2026-03-28T13:15:22Z</time></trkpt><trkpt lat="15.600655612876649" lon="120.63107555918259"><ele>25.0</ele><time>2026-03-28T13:15:23Z</time></trkpt><trkpt lat="15.600917376622187" lon="120.63106962762517"><ele>25.5</ele><time>2026-03-28T13:15:24Z</time></trkpt><trkpt lat="15.60118223291517" lon="120.63106848123134"><ele>26.0</ele><time>2026-03-28T13:15:25Z</time></trkpt><trkpt lat="15.601447481495512" lon="120.63106685719502"><ele>26.0</ele><time>2026-03-28T13:15:26Z</time></trkpt><trkpt lat="15.601713061141506" lon="120.6310645581872"><ele>26.0</ele><time>2026-03-28T13:15:27Z</time></trkpt><trkpt lat="15.601980745364393" lon="120.63106220152254"><ele>26.5</ele><time>2026-03-28T13:15:28Z</time></trkpt><trkpt lat="15.60225104792035" lon="120.63106023985165"><ele>27.0</ele><time>2026-03-28T13:15:29Z</time></trkpt><trkpt lat="15.602523153115476" lon="120.63106122841573"><ele>27.0</ele><time>2026-03-28T13:15:30Z</time></trkpt><trkpt lat="15.602792580216269" lon="120.63105679993772"><ele>27.0</ele><time>2026-03-28T13:15:31Z</time></trkpt><trkpt lat="15.603066886440248" lon="120.63105983712114"><ele>27.0</ele><time>2026-03-28T13:15:32Z</time></trkpt><trkpt lat="15.603339307384621" lon="120.63106576522829"><ele>27.0</ele><time>2026-03-28T13:15:33Z</time></trkpt><trkpt lat="15.603606188530428" lon="120.63106862106409"><ele>26.5</ele><time>2026-03-28T13:15:34Z</time></trkpt><trkpt lat="15.603876291806836" lon="120.63107531294096"><ele>26.0</ele><time>2026-03-28T13:15:35Z</time></trkpt><trkpt lat="15.604140891271676" lon="120.6310732065367"><ele>26.0</ele><time>2026-03-28T13:15:36Z</time></trkpt><trkpt lat="15.604403291818468" lon="120.63107119651903"><ele>26.0</ele><time>2026-03-28T13:15:37Z</time></trkpt><trkpt lat="15.604666576911029" lon="120.63106885350598"><ele>27.0</ele><time>2026-03-28T13:15:38Z</time></trkpt><trkpt lat="15.604930895289945" lon="120.63106936374577"><ele>28.0</ele><time>2026-03-28T13:15:39Z</time></trkpt><trkpt lat="15.605189795012036" lon="120.63106896152428"><ele>27.5</ele><time>2026-03-28T13:15:40Z</time></trkpt><trkpt lat="15.605441402499562" lon="120.63105986687508"><ele>27.0</ele><time>2026-03-28T13:15:41Z</time></trkpt><trkpt lat="15.605702345849961" lon="120.63106117318736"><ele>27.0</ele><time>2026-03-28T13:15:42Z</time></trkpt><trkpt lat="15.605963050308587" lon="120.63106964342057"><ele>27.0</ele><time>2026-03-28T13:15:43Z</time></trkpt><trkpt lat="15.606222697509823" lon="120.6310682242417"><ele>25.5</ele><time>2026-03-28T13:15:44Z</time></trkpt><trkpt lat="15.606484815310925" lon="120.63107330545134"><ele>24.0</ele><time>2026-03-28T13:15:45Z</time></trkpt><trkpt lat="15.606748604960066" lon="120.63108053076583"><ele>25.5</ele><time>2026-03-28T13:15:46Z</time></trkpt><trkpt lat="15.607002894802438" lon="120.63108400452307"><ele>27.0</ele><time>2026-03-28T13:15:47Z</time></trkpt><trkpt lat="15.607254378591751" lon="120.63108380369427"><ele>27.0</ele><time>2026-03-28T13:15:48Z</time></trkpt><trkpt lat="15.60750174942829" lon="120.63108087017538"><ele>27.0</ele><time>2026-03-28T13:15:49Z</time></trkpt><trkpt lat="15.607748342593762" lon="120.63108046412063"><ele>26.5</ele><time>2026-03-28T13:15:50Z</time></trkpt><trkpt lat="15.607992054116583" lon="120.63108160813763"><ele>26.0</ele><time>2026-03-28T13:15:51Z</time></trkpt><trkpt lat="15.608237742730555" lon="120.63108043474233"><ele>26.0</ele><time>2026-03-28T13:15:52Z</time></trkpt><trkpt lat="15.608478713091449" lon="120.63108022811286"><ele>26.0</ele><time>2026-03-28T13:15:53Z</time></trkpt><trkpt lat="15.608717282795574" lon="120.63107823623267"><ele>25.0</ele><time>2026-03-28T13:15:54Z</time></trkpt><trkpt lat="15.608949012341068" lon="120.63107492267004"><ele>24.0</ele><time>2026-03-28T13:15:55Z</time></trkpt><trkpt lat="15.609179979562876" lon="120.63107093038803"><ele>24.0</ele><time>2026-03-28T13:15:56Z</time></trkpt><trkpt lat="15.609412129688764" lon="120.6310645047761"><ele>24.0</ele><time>2026-03-28T13:15:57Z</time></trkpt><trkpt lat="15.6096395305969" lon="120.6310610906353"><ele>24.0</ele><time>2026-03-28T13:15:58Z</time></trkpt><trkpt lat="15.609862750379024" lon="120.63106580382544"><ele>24.0</ele><time>2026-03-28T13:15:59Z</time></trkpt><trkpt lat="15.610087336757655" lon="120.63107123327332"><ele>24.0</ele><time>2026-03-28T13:16:00Z</time></trkpt><trkpt lat="15.610300310386402" lon="120.63106948936966"><ele>24.333333333333336</ele><time>2026-03-28T13:16:01Z</time></trkpt><trkpt lat="15.610506303590094" lon="120.63107116473886"><ele>24.666666666666668</ele><time>2026-03-28T13:16:02Z</time></trkpt><trkpt lat="15.610716453619295" lon="120.63107357068056"><ele>25.0</ele><time>2026-03-28T13:16:03Z</time></trkpt><trkpt lat="15.610923763610582" lon="120.63107930016369"><ele>25.0</ele><time>2026-03-28T13:16:04Z</time></trkpt><trkpt lat="15.611124246368533" lon="120.63108592715128"><ele>25.0</ele><time>2026-03-28T13:16:05Z</time></trkpt><trkpt lat="15.61131747472255" lon="120.63108496026443"><ele>25.0</ele><time>2026-03-28T13:16:06Z</time></trkpt><trkpt lat="15.611505947135383" lon="120.6310848107548"><ele>25.0</ele><time>2026-03-28T13:16:07Z</time></trkpt><trkpt lat="15.611680378480715" lon="120.63108502121422"><ele>25.0</ele><time>2026-03-28T13:16:08Z</time></trkpt><trkpt lat="15.611848973510863" lon="120.63108220710727"><ele>25.0</ele><time>2026-03-28T13:16:09Z</time></trkpt><trkpt lat="15.61200968736722" lon="120.63109052150577"><ele>25.0</ele><time>2026-03-28T13:16:10Z</time></trkpt><trkpt lat="15.612160841752212" lon="120.6310873111048"><ele>25.0</ele><time>2026-03-28T13:16:11Z</time></trkpt><trkpt lat="15.612301973908869" lon="120.6310806983518"><ele>25.0</ele><time>2026-03-28T13:16:12Z</time></trkpt><trkpt lat="15.61244255331382" lon="120.63108456481368"><ele>25.0</ele><time>2026-03-28T13:16:13Z</time></trkpt><trkpt lat="15.612583933822638" lon="120.63110246200029"><ele>25.0</ele><time>2026-03-28T13:16:14Z</time></trkpt><trkpt lat="15.612721026694404" lon="120.63113699385735"><ele>25.0</ele><time>2026-03-28T13:16:15Z</time></trkpt><trkpt lat="15.612848770038235" lon="120.63117860390403"><ele>25.0</ele><time>2026-03-28T13:16:16Z</time></trkpt><trkpt lat="15.612979064524938" lon="120.63124550384764"><ele>25.0</ele><time>2026-03-28T13:16:17Z</time></trkpt><trkpt lat="15.61310381353555" lon="120.6313195375902"><ele>24.75</ele><time>2026-03-28T13:16:18Z</time></trkpt><trkpt lat="15.613211375827758" lon="120.6314105266485"><ele>24.5</ele><time>2026-03-28T13:16:19Z</time></trkpt><trkpt lat="15.613312775220733" lon="120.63150749511807"><ele>24.25</ele><time>2026-03-28T13:16:20Z</time></trkpt><trkpt lat="15.613416719228567" lon="120.63161105231332"><ele>24.0</ele><time>2026-03-28T13:16:21Z</time></trkpt><trkpt lat="15.61351563237658" lon="120.63171396198574"><ele>24.0</ele><time>2026-03-28T13:16:22Z</time></trkpt><trkpt lat="15.613614546315677" lon="120.63182420768838"><ele>24.0</ele><time>2026-03-28T13:16:23Z</time></trkpt><trkpt lat="15.613710371688512" lon="120.63193514369048"><ele>24.0</ele><time>2026-03-28T13:16:24Z</time></trkpt><trkpt lat="15.613807285964446" lon="120.63204551266116"><ele>24.0</ele><time>2026-03-28T13:16:25Z</time></trkpt><trkpt lat="15.613908434736588" lon="120.63216380984986"><ele>24.0</ele><time>2026-03-28T13:16:26Z</time></trkpt><trkpt lat="15.614007736189775" lon="120.6322802533446"><ele>24.0</ele><time>2026-03-28T13:16:27Z</time></trkpt><trkpt lat="15.614110554149066" lon="120.63239652051794"><ele>24.0</ele><time>2026-03-28T13:16:28Z</time></trkpt><trkpt lat="15.614212479010412" lon="120.63250590886504"><ele>24.0</ele><time>2026-03-28T13:16:29Z</time></trkpt><trkpt lat="15.614315730468169" lon="120.63261846547947"><ele>24.0</ele><time>2026-03-28T13:16:30Z</time></trkpt><trkpt lat="15.614415426876128" lon="120.63272676377312"><ele>24.0</ele><time>2026-03-28T13:16:31Z</time></trkpt><trkpt lat="15.614511592188608" lon="120.63283621170591"><ele>24.0</ele><time>2026-03-28T13:16:32Z</time></trkpt><trkpt lat="15.614602366003346" lon="120.63294148854796"><ele>24.0</ele><time>2026-03-28T13:16:33Z</time></trkpt><trkpt lat="15.614694933754576" lon="120.63304748238278"><ele>24.0</ele><time>2026-03-28T13:16:34Z</time></trkpt><trkpt lat="15.614780619238793" lon="120.6331441579753"><ele>24.0</ele><time>2026-03-28T13:16:35Z</time></trkpt><trkpt lat="15.614860865846039" lon="120.63322981145835"><ele>24.0</ele><time>2026-03-28T13:16:36Z</time></trkpt><trkpt lat="15.614937711054504" lon="120.63331517641245"><ele>24.0</ele><time>2026-03-28T13:16:37Z</time></trkpt><trkpt lat="15.615004437483435" lon="120.63339291563463"><ele>24.0</ele><time>2026-03-28T13:16:38Z</time></trkpt><trkpt lat="15.615066429360311" lon="120.6334637357972"><ele>24.0</ele><time>2026-03-28T13:16:39Z</time></trkpt><trkpt lat="15.615118134917353" lon="120.63352366449267"><ele>24.0</ele><time>2026-03-28T13:16:40Z</time></trkpt><trkpt lat="15.615181534962598" lon="120.63354778911639"><ele>24.0</ele><time>2026-03-28T13:16:41Z</time></trkpt><trkpt lat="15.615241759436104" lon="120.63362314174552"><ele>24.0</ele><time>2026-03-28T13:16:43Z</time></trkpt><trkpt lat="15.615295327183054" lon="120.63368747853082"><ele>24.0</ele><time>2026-03-28T13:16:45Z</time></trkpt><trkpt lat="15.615338566935892" lon="120.63374822396307"><ele>24.142857142857142</ele><time>2026-03-28T13:16:47Z</time></trkpt><trkpt lat="15.61538997255115" lon="120.63379853081868"><ele>24.285714285714285</ele><time>2026-03-28T13:16:51Z</time></trkpt><trkpt lat="15.615439212587843" lon="120.6338544967214"><ele>24.42857142857143</ele><time>2026-03-28T13:17:07Z</time></trkpt><trkpt lat="15.615486335081027" lon="120.63390017880411"><ele>24.57142857142857</ele><time>2026-03-28T13:18:05Z</time></trkpt><trkpt lat="15.615541266678145" lon="120.63395879263072"><ele>24.714285714285715</ele><time>2026-03-28T13:18:09Z</time></trkpt><trkpt lat="15.615584941565235" lon="120.63400707584637"><ele>24.857142857142858</ele><time>2026-03-28T13:18:12Z</time></trkpt><trkpt lat="15.615638530530596" lon="120.63406466361"><ele>25.0</ele><time>2026-03-28T13:18:16Z</time></trkpt><trkpt lat="15.61568498305935" lon="120.63411574513229"><ele>25.000000000000004</ele><time>2026-03-28T13:18:22Z</time></trkpt><trkpt lat="15.615733622551364" lon="120.63416945127607"><ele>25.0</ele><time>2026-03-28T13:18:26Z</time></trkpt><trkpt lat="15.615785648663596" lon="120.63422910970093"><ele>25.0</ele><time>2026-03-28T13:18:28Z</time></trkpt><trkpt lat="15.615832603271834" lon="120.63428436942951"><ele>25.0</ele><time>2026-03-28T13:18:29Z</time></trkpt><trkpt lat="15.615868164539739" lon="120.63435041322738"><ele>25.0</ele><time>2026-03-28T13:18:30Z</time></trkpt><trkpt lat="15.61593252143574" lon="120.634399014424"><ele>25.000000000000004</ele><time>2026-03-28T13:18:31Z</time></trkpt><trkpt lat="15.615991299124802" lon="120.63444483104654"><ele>25.0</ele><time>2026-03-28T13:18:32Z</time></trkpt><trkpt lat="15.61605624565642" lon="120.63448818067597"><ele>25.0</ele><time>2026-03-28T13:18:33Z</time></trkpt><trkpt lat="15.616128139530444" lon="120.63453012986757"><ele>25.0</ele><time>2026-03-28T13:18:34Z</time></trkpt><trkpt lat="15.61620561674116" lon="120.63456668144019"><ele>25.0</ele><time>2026-03-28T13:18:35Z</time></trkpt><trkpt lat="15.616280870998885" lon="120.63462041910391"><ele>25.0</ele><time>2026-03-28T13:18:36Z</time></trkpt><trkpt lat="15.61636521779406" lon="120.63466227583092"><ele>25.0</ele><time>2026-03-28T13:18:37Z</time></trkpt><trkpt lat="15.616463758765407" lon="120.63468620870677"><ele>25.0</ele><time>2026-03-28T13:18:38Z</time></trkpt><trkpt lat="15.616560678172354" lon="120.63471135083189"><ele>25.0</ele><time>2026-03-28T13:18:39Z</time></trkpt><trkpt lat="15.616673278168774" lon="120.63470907014155"><ele>25.0</ele><time>2026-03-28T13:18:40Z</time></trkpt><trkpt lat="15.616787613310365" lon="120.63470962260344"><ele>25.0</ele><time>2026-03-28T13:18:41Z</time></trkpt><trkpt lat="15.616904986845636" lon="120.63469831562779"><ele>25.0</ele><time>2026-03-28T13:18:42Z</time></trkpt><trkpt lat="15.617021012478865" lon="120.63468770438064"><ele>25.5</ele><time>2026-03-28T13:18:43Z</time></trkpt><trkpt lat="15.617146360984133" lon="120.6346772117041"><ele>26.0</ele><time>2026-03-28T13:18:44Z</time></trkpt><trkpt lat="15.61726365953406" lon="120.63466804641301"><ele>26.5</ele><time>2026-03-28T13:18:45Z</time></trkpt><trkpt lat="15.617383521627929" lon="120.6346586808268"><ele>27.0</ele><time>2026-03-28T13:18:46Z</time></trkpt><trkpt lat="15.617500357707682" lon="120.63464864616813"><ele>27.0</ele><time>2026-03-28T13:18:47Z</time></trkpt><trkpt lat="15.617597946414712" lon="120.6346352670628"><ele>27.0</ele><time>2026-03-28T13:18:48Z</time></trkpt><trkpt lat="15.617684744644958" lon="120.63462356353998"><ele>27.0</ele><time>2026-03-28T13:18:49Z</time></trkpt><trkpt lat="15.617759896719772" lon="120.63461429281053"><ele>27.0</ele><time>2026-03-28T13:18:50Z</time></trkpt><trkpt lat="15.617823307390976" lon="120.63458931255904"><ele>27.0</ele><time>2026-03-28T13:18:51Z</time></trkpt><trkpt lat="15.617890835905492" lon="120.63458636957482"><ele>27.0</ele><time>2026-03-28T13:18:53Z</time></trkpt><trkpt lat="15.617978038505528" lon="120.63457734195421"><ele>27.166666666666668</ele><time>2026-03-28T13:18:59Z</time></trkpt><trkpt lat="15.61804139018323" lon="120.63456624913157"><ele>27.333333333333336</ele><time>2026-03-28T13:19:02Z</time></trkpt><trkpt lat="15.618108641031663" lon="120.63455917603062"><ele>27.5</ele><time>2026-03-28T13:19:05Z</time></trkpt><trkpt lat="15.618181250846085" lon="120.63455345554914"><ele>27.666666666666668</ele><time>2026-03-28T13:19:11Z</time></trkpt><trkpt lat="15.618207086694357" lon="120.6344393104223"><ele>27.833333333333336</ele><time>2026-03-28T13:19:13Z</time></trkpt><trkpt lat="15.618198664355045" lon="120.63434620390049"><ele>28.0</ele><time>2026-03-28T13:19:15Z</time></trkpt><trkpt lat="15.618180046148208" lon="120.63428041880624"><ele>28.000000000000004</ele><time>2026-03-28T13:19:16Z</time></trkpt><trkpt lat="15.618158923669283" lon="120.63420968276186"><ele>28.0</ele><time>2026-03-28T13:19:17Z</time></trkpt><trkpt lat="15.618138280625733" lon="120.63413071966895"><ele>28.0</ele><time>2026-03-28T13:19:18Z</time></trkpt><trkpt lat="15.618115396920045" lon="120.63404250834185"><ele>28.0</ele><time>2026-03-28T13:19:19Z</time></trkpt><trkpt lat="15.618090115904161" lon="120.63395129476524"><ele>28.000000000000004</ele><time>2026-03-28T13:19:20Z</time></trkpt><trkpt lat="15.618060792361819" lon="120.63385394740635"><ele>28.0</ele><time>2026-03-28T13:19:21Z</time></trkpt><trkpt lat="15.618030754016266" lon="120.63375291784821"><ele>28.0</ele><time>2026-03-28T13:19:22Z</time></trkpt><trkpt lat="15.617998447440028" lon="120.63365011873576"><ele>27.999999999999996</ele><time>2026-03-28T13:19:23Z</time></trkpt><trkpt lat="15.617964021542926" lon="120.63353889160553"><ele>27.999999999999996</ele><time>2026-03-28T13:19:24Z</time></trkpt><trkpt lat="15.617932906041856" lon="120.63342549997435"><ele>28.0</ele><time>2026-03-28T13:19:25Z</time></trkpt><trkpt lat="15.617896224454068" lon="120.6333137782123"><ele>28.0</ele><time>2026-03-28T13:19:26Z</time></trkpt><trkpt lat="15.617879513807399" lon="120.63318973079642"><ele>28.0</ele><time>2026-03-28T13:19:27Z</time></trkpt><trkpt lat="15.61784775155906" lon="120.63307137133654"><ele>28.0</ele><time>2026-03-28T13:19:28Z</time></trkpt><trkpt lat="15.617815351692514" lon="120.63295063583888"><ele>28.0</ele><time>2026-03-28T13:19:29Z</time></trkpt><trkpt lat="15.617781710759274" lon="120.6328252756007"><ele>28.0</ele><time>2026-03-28T13:19:30Z</time></trkpt><trkpt lat="15.617731588594218" lon="120.63270103175603"><ele>27.5</ele><time>2026-03-28T13:19:31Z</time></trkpt><trkpt lat="15.617700543476484" lon="120.63257436693597"><ele>27.0</ele><time>2026-03-28T13:19:32Z</time></trkpt><trkpt lat="15.617667993599664" lon="120.63244191325698"><ele>26.5</ele><time>2026-03-28T13:19:33Z</time></trkpt><trkpt lat="15.617633158229145" lon="120.63231330377396"><ele>26.0</ele><time>2026-03-28T13:19:34Z</time></trkpt><trkpt lat="15.61759699148473" lon="120.63218744059944"><ele>26.0</ele><time>2026-03-28T13:19:35Z</time></trkpt><trkpt lat="15.61755899904501" lon="120.63205594565999"><ele>26.0</ele><time>2026-03-28T13:19:36Z</time></trkpt><trkpt lat="15.61751862828067" lon="120.63192250077357"><ele>26.0</ele><time>2026-03-28T13:19:37Z</time></trkpt><trkpt lat="15.617478475332247" lon="120.63178723926225"><ele>26.0</ele><time>2026-03-28T13:19:38Z</time></trkpt><trkpt lat="15.617438644652832" lon="120.63164973416946"><ele>26.0</ele><time>2026-03-28T13:19:39Z</time></trkpt><trkpt lat="15.617397745650182" lon="120.63151230428838"><ele>26.0</ele><time>2026-03-28T13:19:40Z</time></trkpt><trkpt lat="15.61737461568288" lon="120.63136668803203"><ele>26.0</ele><time>2026-03-28T13:19:41Z</time></trkpt><trkpt lat="15.617334865747424" lon="120.63122618222539"><ele>26.0</ele><time>2026-03-28T13:19:42Z</time></trkpt><trkpt lat="15.6172954944459" lon="120.63108677921731"><ele>26.0</ele><time>2026-03-28T13:19:43Z</time></trkpt><trkpt lat="15.61723872781149" lon="120.63095435594123"><ele>26.0</ele><time>2026-03-28T13:19:44Z</time></trkpt><trkpt lat="15.617215301265873" lon="120.63081037234048"><ele>26.0</ele><time>2026-03-28T13:19:45Z</time></trkpt><trkpt lat="15.617166318930561" lon="120.6306671002708"><ele>26.0</ele><time>2026-03-28T13:19:46Z</time></trkpt><trkpt lat="15.617124861587763" lon="120.63052377987593"><ele>26.0</ele><time>2026-03-28T13:19:47Z</time></trkpt><trkpt lat="15.617083273743985" lon="120.63037876927528"><ele>26.0</ele><time>2026-03-28T13:19:48Z</time></trkpt><trkpt lat="15.61704116509307" lon="120.63022523972316"><ele>26.0</ele><time>2026-03-28T13:19:49Z</time></trkpt><trkpt lat="15.616996301018583" lon="120.63007154993394"><ele>25.666666666666664</ele><time>2026-03-28T13:19:50Z</time></trkpt><trkpt lat="15.616950473889613" lon="120.62991727628562"><ele>25.333333333333336</ele><time>2026-03-28T13:19:51Z</time></trkpt><trkpt lat="15.616903369181305" lon="120.62976397526226"><ele>25.0</ele><time>2026-03-28T13:19:52Z</time></trkpt><trkpt lat="15.616858445511717" lon="120.62960894109459"><ele>25.75</ele><time>2026-03-28T13:19:53Z</time></trkpt><trkpt lat="15.616814649001629" lon="120.62946262054895"><ele>26.5</ele><time>2026-03-28T13:19:54Z</time></trkpt><trkpt lat="15.616772111593766" lon="120.629314093994"><ele>27.25</ele><time>2026-03-28T13:19:55Z</time></trkpt><trkpt lat="15.616737256538977" lon="120.62916303487977"><ele>28.0</ele><time>2026-03-28T13:19:56Z</time></trkpt><trkpt lat="15.61669611658599" lon="120.62902038222471"><ele>28.0</ele><time>2026-03-28T13:19:57Z</time></trkpt><trkpt lat="15.616655767533864" lon="120.62887845473985"><ele>28.0</ele><time>2026-03-28T13:19:58Z</time></trkpt><trkpt lat="15.616612605040634" lon="120.62873969506829"><ele>28.0</ele><time>2026-03-28T13:19:59Z</time></trkpt><trkpt lat="15.616571274966216" lon="120.628608510986"><ele>28.0</ele><time>2026-03-28T13:20:00Z</time></trkpt><trkpt lat="15.616532302711887" lon="120.62849363750792"><ele>28.2</ele><time>2026-03-28T13:20:01Z</time></trkpt><trkpt lat="15.616495824539388" lon="120.62838142329215"><ele>28.4</ele><time>2026-03-28T13:20:02Z</time></trkpt><trkpt lat="15.616464499812004" lon="120.62826911259582"><ele>28.599999999999998</ele><time>2026-03-28T13:20:03Z</time></trkpt><trkpt lat="15.616428775094672" lon="120.62816558027953"><ele>28.799999999999997</ele><time>2026-03-28T13:20:04Z</time></trkpt><trkpt lat="15.616407540179738" lon="120.62804937773883"><ele>29.0</ele><time>2026-03-28T13:20:05Z</time></trkpt><trkpt lat="15.616373021372231" lon="120.62793069171076"><ele>28.25</ele><time>2026-03-28T13:20:06Z</time></trkpt><trkpt lat="15.616336084235858" lon="120.62780819735892"><ele>27.5</ele><time>2026-03-28T13:20:07Z</time></trkpt><trkpt lat="15.616303355959738" lon="120.6276990382016"><ele>26.75</ele><time>2026-03-28T13:20:08Z</time></trkpt><trkpt lat="15.616256090893284" lon="120.62758898259285"><ele>26.0</ele><time>2026-03-28T13:20:09Z</time></trkpt><trkpt lat="15.616236344200379" lon="120.62747082638109"><ele>25.999999999999996</ele><time>2026-03-28T13:20:10Z</time></trkpt><trkpt lat="15.616208082096428" lon="120.62738277688675"><ele>26.0</ele><time>2026-03-28T13:20:11Z</time></trkpt><trkpt lat="15.616187608270415" lon="120.62730884153052"><ele>26.0</ele><time>2026-03-28T13:20:12Z</time></trkpt><trkpt lat="15.616164940455201" lon="120.62723133830652"><ele>26.0</ele><time>2026-03-28T13:20:13Z</time></trkpt><trkpt lat="15.616139225279536" lon="120.62713874431238"><ele>25.999999999999996</ele><time>2026-03-28T13:20:14Z</time></trkpt><trkpt lat="15.616105871106614" lon="120.62703913746154"><ele>26.0</ele><time>2026-03-28T13:20:15Z</time></trkpt><trkpt lat="15.616076506327932" lon="120.6269344679179"><ele>26.25</ele><time>2026-03-28T13:20:16Z</time></trkpt><trkpt lat="15.616047740605403" lon="120.62682159921775"><ele>26.5</ele><time>2026-03-28T13:20:17Z</time></trkpt><trkpt lat="15.616018483063343" lon="120.6267019353836"><ele>26.75</ele><time>2026-03-28T13:20:18Z</time></trkpt><trkpt lat="15.615990286556665" lon="120.62657875492843"><ele>27.0</ele><time>2026-03-28T13:20:19Z</time></trkpt><trkpt lat="15.615964076382944" lon="120.62644787108266"><ele>27.0</ele><time>2026-03-28T13:20:20Z</time></trkpt><trkpt lat="15.615936879759786" lon="120.62631643879531"><ele>27.0</ele><time>2026-03-28T13:20:21Z</time></trkpt><trkpt lat="15.615913424131174" lon="120.62618151810268"><ele>27.0</ele><time>2026-03-28T13:20:22Z</time></trkpt><trkpt lat="15.615894793913155" lon="120.62604624267264"><ele>27.0</ele><time>2026-03-28T13:20:23Z</time></trkpt><trkpt lat="15.615875252641732" lon="120.62590552928916"><ele>27.0</ele><time>2026-03-28T13:20:24Z</time></trkpt><trkpt lat="15.615854739048984" lon="120.6257641175861"><ele>27.0</ele><time>2026-03-28T13:20:25Z</time></trkpt><trkpt lat="15.615835832354575" lon="120.6256190238536"><ele>27.0</ele><time>2026-03-28T13:20:26Z</time></trkpt><trkpt lat="15.615816704750001" lon="120.62546909400322"><ele>27.0</ele><time>2026-03-28T13:20:27Z</time></trkpt><trkpt lat="15.61579574656111" lon="120.62532120443086"><ele>26.75</ele><time>2026-03-28T13:20:28Z</time></trkpt><trkpt lat="15.615783273745656" lon="120.6251818925133"><ele>26.5</ele><time>2026-03-28T13:20:29Z</time></trkpt><trkpt lat="15.61577255104393" lon="120.6250313534759"><ele>26.25</ele><time>2026-03-28T13:20:30Z</time></trkpt><trkpt lat="15.615759204014843" lon="120.62488326689603"><ele>26.0</ele><time>2026-03-28T13:20:31Z</time></trkpt><trkpt lat="15.615743993975185" lon="120.62473727110937"><ele>26.0</ele><time>2026-03-28T13:20:32Z</time></trkpt><trkpt lat="15.61572770326002" lon="120.62458976060742"><ele>26.0</ele><time>2026-03-28T13:20:33Z</time></trkpt><trkpt lat="15.615708481653257" lon="120.62444515422996"><ele>26.0</ele><time>2026-03-28T13:20:34Z</time></trkpt><trkpt lat="15.615691822358862" lon="120.62429840173604"><ele>26.0</ele><time>2026-03-28T13:20:35Z</time></trkpt><trkpt lat="15.615676307773088" lon="120.62415891522161"><ele>26.0</ele><time>2026-03-28T13:20:36Z</time></trkpt><trkpt lat="15.615657223653127" lon="120.62401440802718"><ele>26.0</ele><time>2026-03-28T13:20:37Z</time></trkpt><trkpt lat="15.61564831780702" lon="120.62387187861675"><ele>26.0</ele><time>2026-03-28T13:20:38Z</time></trkpt><trkpt lat="15.615649447428053" lon="120.62373535717406"><ele>26.0</ele><time>2026-03-28T13:20:39Z</time></trkpt><trkpt lat="15.615636487532838" lon="120.6235572623553"><ele>26.0</ele><time>2026-03-28T13:20:40Z</time></trkpt><trkpt lat="15.615621003007728" lon="120.623392766925"><ele>26.0</ele><time>2026-03-28T13:20:41Z</time></trkpt><trkpt lat="15.615590221117728" lon="120.62323442987366"><ele>26.0</ele><time>2026-03-28T13:20:42Z</time></trkpt><trkpt lat="15.615577419886842" lon="120.62307232151376"><ele>26.0</ele><time>2026-03-28T13:20:43Z</time></trkpt><trkpt lat="15.615564399209623" lon="120.62291123711543"><ele>26.0</ele><time>2026-03-28T13:20:44Z</time></trkpt><trkpt lat="15.615551436588852" lon="120.62274321431957"><ele>26.0</ele><time>2026-03-28T13:20:45Z</time></trkpt><trkpt lat="15.615539541827685" lon="120.62258413109863"><ele>25.666666666666664</ele><time>2026-03-28T13:20:46Z</time></trkpt><trkpt lat="15.615526490573163" lon="120.62241912626244"><ele>25.333333333333336</ele><time>2026-03-28T13:20:47Z</time></trkpt><trkpt lat="15.615505792494654" lon="120.62226823912086"><ele>25.0</ele><time>2026-03-28T13:20:48Z</time></trkpt><trkpt lat="15.61548966883479" lon="120.62210641854602"><ele>25.0</ele><time>2026-03-28T13:20:49Z</time></trkpt><trkpt lat="15.61547228486689" lon="120.62194432457785"><ele>25.0</ele><time>2026-03-28T13:20:50Z</time></trkpt><trkpt lat="15.615460481196182" lon="120.62179003471314"><ele>25.0</ele><time>2026-03-28T13:20:51Z</time></trkpt><trkpt lat="15.615441656222064" lon="120.6216380398283"><ele>25.0</ele><time>2026-03-28T13:20:52Z</time></trkpt><trkpt lat="15.615440586736314" lon="120.62149745503612"><ele>25.0</ele><time>2026-03-28T13:20:53Z</time></trkpt><trkpt lat="15.61542571196493" lon="120.62135537957134"><ele>25.0</ele><time>2026-03-28T13:20:54Z</time></trkpt><trkpt lat="15.61541035724055" lon="120.62120871976481"><ele>25.0</ele><time>2026-03-28T13:20:55Z</time></trkpt><trkpt lat="15.61538077110964" lon="120.62106650737505"><ele>25.0</ele><time>2026-03-28T13:20:56Z</time></trkpt><trkpt lat="15.615369446216718" lon="120.62091839181831"><ele>25.0</ele><time>2026-03-28T13:20:57Z</time></trkpt><trkpt lat="15.615353207397224" lon="120.62077981133861"><ele>25.0</ele><time>2026-03-28T13:20:58Z</time></trkpt><trkpt lat="15.615341525614982" lon="120.6206415212968"><ele>25.0</ele><time>2026-03-28T13:20:59Z</time></trkpt><trkpt lat="15.615329461556634" lon="120.620503576873"><ele>25.0</ele><time>2026-03-28T13:21:00Z</time></trkpt><trkpt lat="15.61531145632363" lon="120.62038488765022"><ele>25.0</ele><time>2026-03-28T13:21:01Z</time></trkpt><trkpt lat="15.615312326615236" lon="120.62024847926084"><ele>25.0</ele><time>2026-03-28T13:21:02Z</time></trkpt><trkpt lat="15.615298432941254" lon="120.62012531289497"><ele>25.0</ele><time>2026-03-28T13:21:03Z</time></trkpt><trkpt lat="15.61528387189488" lon="120.62000529316228"><ele>25.0</ele><time>2026-03-28T13:21:04Z</time></trkpt><trkpt lat="15.615260746655157" lon="120.61987450835404"><ele>25.0</ele><time>2026-03-28T13:21:05Z</time></trkpt><trkpt lat="15.615234156921446" lon="120.61974943061558"><ele>25.0</ele><time>2026-03-28T13:21:06Z</time></trkpt><trkpt lat="15.615201890517314" lon="120.61962906171819"><ele>25.0</ele><time>2026-03-28T13:21:07Z</time></trkpt><trkpt lat="15.615165768823148" lon="120.61950850763441"><ele>25.0</ele><time>2026-03-28T13:21:08Z</time></trkpt><trkpt lat="15.615126043185919" lon="120.61938436533993"><ele>25.0</ele><time>2026-03-28T13:21:09Z</time></trkpt><trkpt lat="15.615090839473158" lon="120.61925459352562"><ele>25.0</ele><time>2026-03-28T13:21:10Z</time></trkpt><trkpt lat="15.615047007574256" lon="120.61912317726328"><ele>25.0</ele><time>2026-03-28T13:21:11Z</time></trkpt><trkpt lat="15.61500172107662" lon="120.61899758520991"><ele>25.0</ele><time>2026-03-28T13:21:12Z</time></trkpt><trkpt lat="15.614954322315205" lon="120.61887305275135"><ele>25.0</ele><time>2026-03-28T13:21:13Z</time></trkpt><trkpt lat="15.61490498482589" lon="120.61875136265542"><ele>25.0</ele><time>2026-03-28T13:21:14Z</time></trkpt><trkpt lat="15.614851060482984" lon="120.61863050869901"><ele>25.0</ele><time>2026-03-28T13:21:15Z</time></trkpt><trkpt lat="15.614795432983618" lon="120.61850107858069"><ele>25.25</ele><time>2026-03-28T13:21:16Z</time></trkpt><trkpt lat="15.614736841214057" lon="120.61837307294554"><ele>25.5</ele><time>2026-03-28T13:21:17Z</time></trkpt><trkpt lat="15.614680677355224" lon="120.61824113995235"><ele>25.75</ele><time>2026-03-28T13:21:18Z</time></trkpt><trkpt lat="15.614625325246545" lon="120.61811503121787"><ele>26.0</ele><time>2026-03-28T13:21:19Z</time></trkpt><trkpt lat="15.61456419859524" lon="120.61798376918442"><ele>26.0</ele><time>2026-03-28T13:21:20Z</time></trkpt><trkpt lat="15.614503135577158" lon="120.61785967332736"><ele>26.0</ele><time>2026-03-28T13:21:21Z</time></trkpt><trkpt lat="15.614442898710106" lon="120.61773637215893"><ele>26.0</ele><time>2026-03-28T13:21:22Z</time></trkpt><trkpt lat="15.614382393510914" lon="120.61761885914598"><ele>26.0</ele><time>2026-03-28T13:21:23Z</time></trkpt><trkpt lat="15.614318156270764" lon="120.61749997441576"><ele>26.5</ele><time>2026-03-28T13:21:24Z</time></trkpt><trkpt lat="15.614258657334803" lon="120.61739168842536"><ele>27.0</ele><time>2026-03-28T13:21:25Z</time></trkpt><trkpt lat="15.61420001208551" lon="120.617285212054"><ele>27.5</ele><time>2026-03-28T13:21:26Z</time></trkpt><trkpt lat="15.61414540287372" lon="120.6171685354864"><ele>28.0</ele><time>2026-03-28T13:21:27Z</time></trkpt><trkpt lat="15.614090961874789" lon="120.61706210002721"><ele>27.5</ele><time>2026-03-28T13:21:28Z</time></trkpt><trkpt lat="15.614045010625828" lon="120.61694920536243"><ele>27.0</ele><time>2026-03-28T13:21:29Z</time></trkpt><trkpt lat="15.6139945935115" lon="120.61683793108936"><ele>26.5</ele><time>2026-03-28T13:21:30Z</time></trkpt><trkpt lat="15.613936663325008" lon="120.61673337992859"><ele>26.0</ele><time>2026-03-28T13:21:31Z</time></trkpt><trkpt lat="15.613877797328735" lon="120.6166254802268"><ele>26.0</ele><time>2026-03-28T13:21:32Z</time></trkpt><trkpt lat="15.613813968374954" lon="120.61651177377074"><ele>26.0</ele><time>2026-03-28T13:21:33Z</time></trkpt><trkpt lat="15.613753015940915" lon="120.61638671990134"><ele>26.0</ele><time>2026-03-28T13:21:34Z</time></trkpt><trkpt lat="15.613697884869465" lon="120.61626428647858"><ele>26.0</ele><time>2026-03-28T13:21:35Z</time></trkpt><trkpt lat="15.613643931292023" lon="120.61614540833551"><ele>26.25</ele><time>2026-03-28T13:21:36Z</time></trkpt><trkpt lat="15.613585952374144" lon="120.61602518560304"><ele>26.5</ele><time>2026-03-28T13:21:37Z</time></trkpt><trkpt lat="15.613523817330945" lon="120.61589886659904"><ele>26.75</ele><time>2026-03-28T13:21:38Z</time></trkpt><trkpt lat="15.6134596159669" lon="120.61577171804815"><ele>27.0</ele><time>2026-03-28T13:21:39Z</time></trkpt><trkpt lat="15.61339799035014" lon="120.61565107982132"><ele>27.0</ele><time>2026-03-28T13:21:40Z</time></trkpt><trkpt lat="15.613338551307939" lon="120.6155212953392"><ele>27.0</ele><time>2026-03-28T13:21:41Z</time></trkpt><trkpt lat="15.613279436516612" lon="120.61539901588868"><ele>27.0</ele><time>2026-03-28T13:21:42Z</time></trkpt><trkpt lat="15.613219227682343" lon="120.6152842105884"><ele>27.0</ele><time>2026-03-28T13:21:43Z</time></trkpt><trkpt lat="15.613162293622938" lon="120.61516642485545"><ele>27.25</ele><time>2026-03-28T13:21:44Z</time></trkpt><trkpt lat="15.613103511904367" lon="120.61505640847278"><ele>27.5</ele><time>2026-03-28T13:21:45Z</time></trkpt><trkpt lat="15.613055279425007" lon="120.61494809193579"><ele>27.75</ele><time>2026-03-28T13:21:46Z</time></trkpt><trkpt lat="15.613006958346102" lon="120.61484506008365"><ele>28.0</ele><time>2026-03-28T13:21:47Z</time></trkpt><trkpt lat="15.61295513492302" lon="120.61474402539936"><ele>28.0</ele><time>2026-03-28T13:21:48Z</time></trkpt><trkpt lat="15.61290593296557" lon="120.61464592092597"><ele>27.999999999999996</ele><time>2026-03-28T13:21:49Z</time></trkpt><trkpt lat="15.612859495217707" lon="120.61454647376455"><ele>27.999999999999996</ele><time>2026-03-28T13:21:50Z</time></trkpt><trkpt lat="15.612816088862228" lon="120.61446002510013"><ele>28.0</ele><time>2026-03-28T13:21:51Z</time></trkpt><trkpt lat="15.612776703258424" lon="120.61435989269148"><ele>28.0</ele><time>2026-03-28T13:21:52Z</time></trkpt><trkpt lat="15.612735212379356" lon="120.61427650381219"><ele>27.799999999999997</ele><time>2026-03-28T13:21:53Z</time></trkpt><trkpt lat="15.612692869439416" lon="120.61418548973518"><ele>27.599999999999998</ele><time>2026-03-28T13:21:54Z</time></trkpt><trkpt lat="15.612643192310399" lon="120.6140855321238"><ele>27.400000000000002</ele><time>2026-03-28T13:21:55Z</time></trkpt><trkpt lat="15.612598446937888" lon="120.61399458080245"><ele>27.200000000000003</ele><time>2026-03-28T13:21:56Z</time></trkpt><trkpt lat="15.61255431722789" lon="120.61390326484684"><ele>27.0</ele><time>2026-03-28T13:21:57Z</time></trkpt><trkpt lat="15.612509114182405" lon="120.61381123295145"><ele>27.0</ele><time>2026-03-28T13:21:58Z</time></trkpt><trkpt lat="15.612459747320381" lon="120.61371821288317"><ele>27.000000000000004</ele><time>2026-03-28T13:21:59Z</time></trkpt><trkpt lat="15.612408931902417" lon="120.61361657713616"><ele>27.000000000000004</ele><time>2026-03-28T13:22:00Z</time></trkpt><trkpt lat="15.612365849074907" lon="120.61350933303048"><ele>27.0</ele><time>2026-03-28T13:22:01Z</time></trkpt><trkpt lat="15.612307146051853" lon="120.61340512736646"><ele>27.0</ele><time>2026-03-28T13:22:02Z</time></trkpt><trkpt lat="15.612258228639735" lon="120.61329499722356"><ele>27.25</ele><time>2026-03-28T13:22:03Z</time></trkpt><trkpt lat="15.612204145148715" lon="120.61319248617873"><ele>27.5</ele><time>2026-03-28T13:22:04Z</time></trkpt><trkpt lat="15.612159044946234" lon="120.6130731312791"><ele>27.75</ele><time>2026-03-28T13:22:05Z</time></trkpt><trkpt lat="15.612098540672509" lon="120.6129432594711"><ele>28.0</ele><time>2026-03-28T13:22:06Z</time></trkpt><trkpt lat="15.612034299348519" lon="120.61282196815304"><ele>28.25</ele><time>2026-03-28T13:22:07Z</time></trkpt><trkpt lat="15.611971981596698" lon="120.61269650087452"><ele>28.5</ele><time>2026-03-28T13:22:08Z</time></trkpt><trkpt lat="15.611917582347914" lon="120.61258337628719"><ele>28.75</ele><time>2026-03-28T13:22:09Z</time></trkpt><trkpt lat="15.611861791237361" lon="120.61246465297648"><ele>29.0</ele><time>2026-03-28T13:22:10Z</time></trkpt><trkpt lat="15.611802054228924" lon="120.61234655102582"><ele>29.0</ele><time>2026-03-28T13:22:11Z</time></trkpt><trkpt lat="15.611743232894405" lon="120.61223542709678"><ele>29.0</ele><time>2026-03-28T13:22:12Z</time></trkpt><trkpt lat="15.61168922023898" lon="120.61212645864926"><ele>29.0</ele><time>2026-03-28T13:22:13Z</time></trkpt><trkpt lat="15.611636934570535" lon="120.61202062664795"><ele>29.0</ele><time>2026-03-28T13:22:14Z</time></trkpt><trkpt lat="15.611590181791124" lon="120.61192018685425"><ele>28.799999999999997</ele><time>2026-03-28T13:22:15Z</time></trkpt><trkpt lat="15.611542952426758" lon="120.61182092959729"><ele>28.599999999999998</ele><time>2026-03-28T13:22:16Z</time></trkpt><trkpt lat="15.611491064924579" lon="120.6117191736624"><ele>28.4</ele><time>2026-03-28T13:22:17Z</time></trkpt><trkpt lat="15.611441499055692" lon="120.6116197233024"><ele>28.2</ele><time>2026-03-28T13:22:18Z</time></trkpt><trkpt lat="15.611395633189291" lon="120.61151862028908"><ele>28.0</ele><time>2026-03-28T13:22:19Z</time></trkpt><trkpt lat="15.611342435224135" lon="120.6114166343312"><ele>28.0</ele><time>2026-03-28T13:22:20Z</time></trkpt><trkpt lat="15.611296742750863" lon="120.61131015469945"><ele>27.999999999999996</ele><time>2026-03-28T13:22:21Z</time></trkpt><trkpt lat="15.611247781319765" lon="120.61120522883785"><ele>27.999999999999996</ele><time>2026-03-28T13:22:22Z</time></trkpt><trkpt lat="15.611196897508899" lon="120.61110808062963"><ele>28.0</ele><time>2026-03-28T13:22:23Z</time></trkpt><trkpt lat="15.611154035987742" lon="120.61101060138704"><ele>28.0</ele><time>2026-03-28T13:22:24Z</time></trkpt><trkpt lat="15.611106778212141" lon="120.61089841923435"><ele>28.2</ele><time>2026-03-28T13:22:25Z</time></trkpt><trkpt lat="15.611062668950707" lon="120.61079789220568"><ele>28.4</ele><time>2026-03-28T13:22:26Z</time></trkpt><trkpt lat="15.611013149135564" lon="120.61069282016955"><ele>28.599999999999998</ele><time>2026-03-28T13:22:27Z</time></trkpt><trkpt lat="15.610964177207805" lon="120.6105930713602"><ele>28.799999999999997</ele><time>2026-03-28T13:22:28Z</time></trkpt><trkpt lat="15.610921398068013" lon="120.61050145053565"><ele>29.0</ele><time>2026-03-28T13:22:29Z</time></trkpt><trkpt lat="15.61087948807292" lon="120.61041358228276"><ele>28.999999999999996</ele><time>2026-03-28T13:22:30Z</time></trkpt><trkpt lat="15.610833276956074" lon="120.6103318807712"><ele>29.0</ele><time>2026-03-28T13:22:31Z</time></trkpt><trkpt lat="15.610792841101162" lon="120.6102466258707"><ele>29.0</ele><time>2026-03-28T13:22:32Z</time></trkpt><trkpt lat="15.610754563724116" lon="120.61015952430617"><ele>29.0</ele><time>2026-03-28T13:22:33Z</time></trkpt><trkpt lat="15.610714624714898" lon="120.61008526042146"><ele>28.999999999999996</ele><time>2026-03-28T13:22:34Z</time></trkpt><trkpt lat="15.610676648130712" lon="120.6100027476284"><ele>29.0</ele><time>2026-03-28T13:22:35Z</time></trkpt><trkpt lat="15.610633178197302" lon="120.60992640917817"><ele>28.999999999999996</ele><time>2026-03-28T13:22:36Z</time></trkpt><trkpt lat="15.610593941358088" lon="120.60984928811436"><ele>29.0</ele><time>2026-03-28T13:22:37Z</time></trkpt><trkpt lat="15.61055668444185" lon="120.6097760000986"><ele>29.0</ele><time>2026-03-28T13:22:38Z</time></trkpt><trkpt lat="15.610523454645177" lon="120.6097085236066"><ele>29.0</ele><time>2026-03-28T13:22:39Z</time></trkpt><trkpt lat="15.610486271140235" lon="120.60963241394856"><ele>28.999999999999996</ele><time>2026-03-28T13:22:40Z</time></trkpt><trkpt lat="15.610446777528383" lon="120.60956120223854"><ele>29.0</ele><time>2026-03-28T13:22:41Z</time></trkpt><trkpt lat="15.610408707982527" lon="120.60948758165132"><ele>29.166666666666664</ele><time>2026-03-28T13:22:42Z</time></trkpt><trkpt lat="15.610370426815686" lon="120.60941886516446"><ele>29.333333333333332</ele><time>2026-03-28T13:22:43Z</time></trkpt><trkpt lat="15.61034207494797" lon="120.60935130621654"><ele>29.5</ele><time>2026-03-28T13:22:44Z</time></trkpt><trkpt lat="15.610308582494538" lon="120.60929077097431"><ele>29.666666666666664</ele><time>2026-03-28T13:22:45Z</time></trkpt><trkpt lat="15.610266465000143" lon="120.60921642875434"><ele>29.833333333333332</ele><time>2026-03-28T13:22:46Z</time></trkpt><trkpt lat="15.610225497938345" lon="120.60913891006119"><ele>30.0</ele><time>2026-03-28T13:22:47Z</time></trkpt><trkpt lat="15.610182870663097" lon="120.60905634393372"><ele>30.4</ele><time>2026-03-28T13:22:48Z</time></trkpt><trkpt lat="15.610135270929959" lon="120.60896681332109"><ele>30.8</ele><time>2026-03-28T13:22:49Z</time></trkpt><trkpt lat="15.610086430100143" lon="120.60888008733177"><ele>31.200000000000003</ele><time>2026-03-28T13:22:50Z</time></trkpt><trkpt lat="15.610041412638969" lon="120.6088026017842"><ele>31.6</ele><time>2026-03-28T13:22:51Z</time></trkpt><trkpt lat="15.609978131060707" lon="120.6087268718277"><ele>32.0</ele><time>2026-03-28T13:22:52Z</time></trkpt><trkpt lat="15.609929751672995" lon="120.60863574275186"><ele>32.2</ele><time>2026-03-28T13:22:53Z</time></trkpt><trkpt lat="15.609883844470499" lon="120.60853153397838"><ele>32.400000000000006</ele><time>2026-03-28T13:22:54Z</time></trkpt><trkpt lat="15.60983130441689" lon="120.60844114826025"><ele>32.599999999999994</ele><time>2026-03-28T13:22:55Z</time></trkpt><trkpt lat="15.609777985260617" lon="120.60834942221875"><ele>32.8</ele><time>2026-03-28T13:22:56Z</time></trkpt><trkpt lat="15.609727305430397" lon="120.60826195324971"><ele>33.0</ele><time>2026-03-28T13:22:57Z</time></trkpt><trkpt lat="15.609668312819235" lon="120.60816318555091"><ele>33.0</ele><time>2026-03-28T13:22:58Z</time></trkpt><trkpt lat="15.609610593301094" lon="120.60806294722585"><ele>33.0</ele><time>2026-03-28T13:22:59Z</time></trkpt><trkpt lat="15.609553604573371" lon="120.60796432625841"><ele>33.0</ele><time>2026-03-28T13:23:00Z</time></trkpt><trkpt lat="15.609489060342003" lon="120.60786909088145"><ele>33.0</ele><time>2026-03-28T13:23:01Z</time></trkpt><trkpt lat="15.609428803291678" lon="120.60777336137048"><ele>33.0</ele><time>2026-03-28T13:23:02Z</time></trkpt><trkpt lat="15.609364325303568" lon="120.60766864159515"><ele>32.75</ele><time>2026-03-28T13:23:03Z</time></trkpt><trkpt lat="15.609296989243347" lon="120.60756555170667"><ele>32.5</ele><time>2026-03-28T13:23:04Z</time></trkpt><trkpt lat="15.60922687931835" lon="120.60745432943945"><ele>32.25</ele><time>2026-03-28T13:23:05Z</time></trkpt><trkpt lat="15.609156895628933" lon="120.60735255896756"><ele>32.0</ele><time>2026-03-28T13:23:06Z</time></trkpt><trkpt lat="15.609088376436954" lon="120.60724546162176"><ele>32.0</ele><time>2026-03-28T13:23:07Z</time></trkpt><trkpt lat="15.609020678449426" lon="120.60713672570343"><ele>32.0</ele><time>2026-03-28T13:23:08Z</time></trkpt><trkpt lat="15.608955753852365" lon="120.60703845502913"><ele>32.0</ele><time>2026-03-28T13:23:09Z</time></trkpt><trkpt lat="15.60888911307558" lon="120.60692660499625"><ele>32.0</ele><time>2026-03-28T13:23:10Z</time></trkpt><trkpt lat="15.608817521173107" lon="120.60681049872953"><ele>32.0</ele><time>2026-03-28T13:23:11Z</time></trkpt><trkpt lat="15.608749318885748" lon="120.60669845752669"><ele>32.0</ele><time>2026-03-28T13:23:12Z</time></trkpt><trkpt lat="15.608702606830825" lon="120.60659233994674"><ele>32.0</ele><time>2026-03-28T13:23:13Z</time></trkpt><trkpt lat="15.608643297333675" lon="120.60649225061017"><ele>32.0</ele><time>2026-03-28T13:23:14Z</time></trkpt><trkpt lat="15.60857480084991" lon="120.60640133835817"><ele>32.0</ele><time>2026-03-28T13:23:15Z</time></trkpt><trkpt lat="15.608520009838985" lon="120.60630127730255"><ele>32.0</ele><time>2026-03-28T13:23:16Z</time></trkpt><trkpt lat="15.608469100959397" lon="120.6061991400332"><ele>32.0</ele><time>2026-03-28T13:23:17Z</time></trkpt><trkpt lat="15.608413744959956" lon="120.60610650590544"><ele>32.0</ele><time>2026-03-28T13:23:18Z</time></trkpt><trkpt lat="15.608363892340842" lon="120.6060061086017"><ele>32.0</ele><time>2026-03-28T13:23:19Z</time></trkpt><trkpt lat="15.608319721218985" lon="120.60591155271717"><ele>32.2</ele><time>2026-03-28T13:23:20Z</time></trkpt><trkpt lat="15.608286756476433" lon="120.60581874860237"><ele>32.400000000000006</ele><time>2026-03-28T13:23:21Z</time></trkpt><trkpt lat="15.6082420049238" lon="120.60572084709777"><ele>32.599999999999994</ele><time>2026-03-28T13:23:22Z</time></trkpt><trkpt lat="15.608195102399332" lon="120.60562689610555"><ele>32.8</ele><time>2026-03-28T13:23:23Z</time></trkpt><trkpt lat="15.608163598237239" lon="120.60552367207478"><ele>33.0</ele><time>2026-03-28T13:23:24Z</time></trkpt><trkpt lat="15.60813079371251" lon="120.60542182393456"><ele>32.6</ele><time>2026-03-28T13:23:25Z</time></trkpt><trkpt lat="15.608103321777532" lon="120.60532219612776"><ele>32.199999999999996</ele><time>2026-03-28T13:23:26Z</time></trkpt><trkpt lat="15.608075518759946" lon="120.60521224715137"><ele>31.8</ele><time>2026-03-28T13:23:27Z</time></trkpt><trkpt lat="15.60805150946655" lon="120.60511601575742"><ele>31.4</ele><time>2026-03-28T13:23:28Z</time></trkpt><trkpt lat="15.608032993692783" lon="120.60501394239247"><ele>31.0</ele><time>2026-03-28T13:23:29Z</time></trkpt><trkpt lat="15.608016112166819" lon="120.60492176478091"><ele>31.0</ele><time>2026-03-28T13:23:30Z</time></trkpt><trkpt lat="15.608001045657103" lon="120.60483583045617"><ele>31.000000000000004</ele><time>2026-03-28T13:23:31Z</time></trkpt><trkpt lat="15.608006000614614" lon="120.60475488579311"><ele>31.0</ele><time>2026-03-28T13:23:32Z</time></trkpt><trkpt lat="15.60798585955424" lon="120.6046775455649"><ele>31.0</ele><time>2026-03-28T13:23:33Z</time></trkpt><trkpt lat="15.607976929275525" lon="120.60460289171469"><ele>31.000000000000004</ele><time>2026-03-28T13:23:34Z</time></trkpt><trkpt lat="15.607969201702241" lon="120.60453708326182"><ele>31.0</ele><time>2026-03-28T13:23:35Z</time></trkpt><trkpt lat="15.607960744362204" lon="120.60447221143203"><ele>31.0</ele><time>2026-03-28T13:23:36Z</time></trkpt><trkpt lat="15.607941724502348" lon="120.60436126074225"><ele>30.500000000000004</ele><time>2026-03-28T13:23:38Z</time></trkpt><trkpt lat="15.607926834175117" lon="120.60425230420715"><ele>30.0</ele><time>2026-03-28T13:23:40Z</time></trkpt><trkpt lat="15.60791186373271" lon="120.60413802652393"><ele>29.5</ele><time>2026-03-28T13:23:42Z</time></trkpt><trkpt lat="15.607927530948361" lon="120.60407360445342"><ele>29.0</ele><time>2026-03-28T13:23:43Z</time></trkpt><trkpt lat="15.607923635214487" lon="120.60400414478045"><ele>28.500000000000004</ele><time>2026-03-28T13:23:44Z</time></trkpt><trkpt lat="15.607917636464945" lon="120.60392545629223"><ele>28.0</ele><time>2026-03-28T13:23:45Z</time></trkpt><trkpt lat="15.607905262548499" lon="120.603848833125"><ele>28.000000000000004</ele><time>2026-03-28T13:23:46Z</time></trkpt><trkpt lat="15.607892941860568" lon="120.60377034711044"><ele>28.0</ele><time>2026-03-28T13:23:47Z</time></trkpt><trkpt lat="15.607875892573755" lon="120.60369203192984"><ele>28.0</ele><time>2026-03-28T13:23:48Z</time></trkpt><trkpt lat="15.607855994768384" lon="120.60361586359836"><ele>28.0</ele><time>2026-03-28T13:23:49Z</time></trkpt><trkpt lat="15.60783555583609" lon="120.60353762382319"><ele>28.000000000000004</ele><time>2026-03-28T13:23:50Z</time></trkpt><trkpt lat="15.607811018156497" lon="120.60345040199486"><ele>28.0</ele><time>2026-03-28T13:23:51Z</time></trkpt><trkpt lat="15.60778062763166" lon="120.60336979982036"><ele>28.333333333333336</ele><time>2026-03-28T13:23:52Z</time></trkpt><trkpt lat="15.607725983567157" lon="120.60330096804907"><ele>28.666666666666668</ele><time>2026-03-28T13:23:53Z</time></trkpt><trkpt lat="15.607689959224768" lon="120.6032218234292"><ele>29.0</ele><time>2026-03-28T13:23:54Z</time></trkpt><trkpt lat="15.607644229718707" lon="120.6031416814928"><ele>29.333333333333336</ele><time>2026-03-28T13:23:55Z</time></trkpt><trkpt lat="15.607593998373174" lon="120.60307607672415"><ele>29.666666666666668</ele><time>2026-03-28T13:23:56Z</time></trkpt><trkpt lat="15.607540723321904" lon="120.60299993374713"><ele>30.0</ele><time>2026-03-28T13:23:57Z</time></trkpt><trkpt lat="15.607486127050102" lon="120.60292031332196"><ele>30.0</ele><time>2026-03-28T13:23:58Z</time></trkpt><trkpt lat="15.607436642821396" lon="120.60284661176208"><ele>30.0</ele><time>2026-03-28T13:23:59Z</time></trkpt><trkpt lat="15.607385798868812" lon="120.60276474509737"><ele>30.0</ele><time>2026-03-28T13:24:00Z</time></trkpt><trkpt lat="15.607333936745155" lon="120.60269176926667"><ele>30.0</ele><time>2026-03-28T13:24:01Z</time></trkpt><trkpt lat="15.60728204176285" lon="120.60261388792381"><ele>30.0</ele><time>2026-03-28T13:24:02Z</time></trkpt><trkpt lat="15.607229761293707" lon="120.60252234599211"><ele>30.6</ele><time>2026-03-28T13:24:03Z</time></trkpt><trkpt lat="15.607185538133836" lon="120.60242732870194"><ele>31.2</ele><time>2026-03-28T13:24:04Z</time></trkpt><trkpt lat="15.60714573461729" lon="120.60232872316404"><ele>31.799999999999997</ele><time>2026-03-28T13:24:05Z</time></trkpt><trkpt lat="15.607101348709087" lon="120.602225597422"><ele>32.4</ele><time>2026-03-28T13:24:06Z</time></trkpt><trkpt lat="15.60706087125245" lon="120.60212447606243"><ele>33.0</ele><time>2026-03-28T13:24:07Z</time></trkpt><trkpt lat="15.607015467529694" lon="120.60201635785465"><ele>32.6</ele><time>2026-03-28T13:24:08Z</time></trkpt><trkpt lat="15.606975284200717" lon="120.60191659431936"><ele>32.199999999999996</ele><time>2026-03-28T13:24:09Z</time></trkpt><trkpt lat="15.606931142999388" lon="120.6018073892164"><ele>31.8</ele><time>2026-03-28T13:24:10Z</time></trkpt><trkpt lat="15.606893393285548" lon="120.60170766791835"><ele>31.4</ele><time>2026-03-28T13:24:11Z</time></trkpt><trkpt lat="15.606852570120026" lon="120.60160051392162"><ele>31.0</ele><time>2026-03-28T13:24:12Z</time></trkpt><trkpt lat="15.606817344885284" lon="120.60149856528487"><ele>31.0</ele><time>2026-03-28T13:24:13Z</time></trkpt><trkpt lat="15.60678163794083" lon="120.60140459624948"><ele>31.0</ele><time>2026-03-28T13:24:14Z</time></trkpt><trkpt lat="15.606746050310196" lon="120.60131407549984"><ele>31.0</ele><time>2026-03-28T13:24:15Z</time></trkpt><trkpt lat="15.606710041382874" lon="120.60122800970477"><ele>31.0</ele><time>2026-03-28T13:24:16Z</time></trkpt><trkpt lat="15.60667297454007" lon="120.60113979295257"><ele>31.0</ele><time>2026-03-28T13:24:17Z</time></trkpt><trkpt lat="15.606634349739897" lon="120.60105030534086"><ele>31.0</ele><time>2026-03-28T13:24:18Z</time></trkpt><trkpt lat="15.606593256771117" lon="120.60096036750399"><ele>31.0</ele><time>2026-03-28T13:24:19Z</time></trkpt><trkpt lat="15.606550139688357" lon="120.60086987884632"><ele>31.0</ele><time>2026-03-28T13:24:20Z</time></trkpt><trkpt lat="15.606508614600388" lon="120.60078604615023"><ele>31.0</ele><time>2026-03-28T13:24:21Z</time></trkpt><trkpt lat="15.606462686551927" lon="120.60069791655913"><ele>31.0</ele><time>2026-03-28T13:24:22Z</time></trkpt><trkpt lat="15.606412297710875" lon="120.60060052168006"><ele>31.0</ele><time>2026-03-28T13:24:23Z</time></trkpt><trkpt lat="15.606363652757215" lon="120.60051360279063"><ele>31.0</ele><time>2026-03-28T13:24:24Z</time></trkpt><trkpt lat="15.60632040674021" lon="120.60042916954471"><ele>31.0</ele><time>2026-03-28T13:24:25Z</time></trkpt><trkpt lat="15.606278168709713" lon="120.6003445321505"><ele>31.0</ele><time>2026-03-28T13:24:26Z</time></trkpt><trkpt lat="15.606232215222896" lon="120.60025660441772"><ele>31.0</ele><time>2026-03-28T13:24:27Z</time></trkpt><trkpt lat="15.606188215898952" lon="120.60017014763085"><ele>31.333333333333336</ele><time>2026-03-28T13:24:28Z</time></trkpt><trkpt lat="15.606149374122715" lon="120.60009230603171"><ele>31.666666666666668</ele><time>2026-03-28T13:24:29Z</time></trkpt><trkpt lat="15.606109679476463" lon="120.60001274283925"><ele>32.0</ele><time>2026-03-28T13:24:30Z</time></trkpt><trkpt lat="15.606074229199422" lon="120.59993936645536"><ele>32.333333333333336</ele><time>2026-03-28T13:24:31Z</time></trkpt><trkpt lat="15.606039813497587" lon="120.59986531797108"><ele>32.666666666666664</ele><time>2026-03-28T13:24:32Z</time></trkpt><trkpt lat="15.606006070472706" lon="120.59979847652245"><ele>33.0</ele><time>2026-03-28T13:24:33Z</time></trkpt><trkpt lat="15.605977308838591" lon="120.59972864730041"><ele>33.0</ele><time>2026-03-28T13:24:34Z</time></trkpt><trkpt lat="15.605948186479315" lon="120.59966309298993"><ele>33.0</ele><time>2026-03-28T13:24:35Z</time></trkpt><trkpt lat="15.605896810326309" lon="120.59954906314796"><ele>33.0</ele><time>2026-03-28T13:24:37Z</time></trkpt><trkpt lat="15.605847476752093" lon="120.599433033046"><ele>33.0</ele><time>2026-03-28T13:24:39Z</time></trkpt><trkpt lat="15.605816888522495" lon="120.59937452006434"><ele>33.0</ele><time>2026-03-28T13:24:40Z</time></trkpt><trkpt lat="15.605765299804453" lon="120.59928165398262"><ele>32.833333333333336</ele><time>2026-03-28T13:24:42Z</time></trkpt><trkpt lat="15.605742031633262" lon="120.5992182611353"><ele>32.666666666666664</ele><time>2026-03-28T13:24:44Z</time></trkpt><trkpt lat="15.605748547738695" lon="120.59914951392766"><ele>32.5</ele><time>2026-03-28T13:24:46Z</time></trkpt><trkpt lat="15.605800445079836" lon="120.59919106686598"><ele>32.33333333333333</ele><time>2026-03-28T13:24:47Z</time></trkpt><trkpt lat="15.605886362092624" lon="120.59915305933453"><ele>32.166666666666664</ele><time>2026-03-28T13:24:49Z</time></trkpt><trkpt lat="15.605993771939241" lon="120.5991055439095"><ele>32.0</ele><time>2026-03-28T13:24:51Z</time></trkpt><trkpt lat="15.60605396609692" lon="120.59907891552645"><ele>31.999999999999996</ele><time>2026-03-28T13:24:52Z</time></trkpt><trkpt lat="15.606113490406436" lon="120.59905258346681"><ele>32.0</ele><time>2026-03-28T13:24:53Z</time></trkpt><trkpt lat="15.606176504051518" lon="120.59902470782951"><ele>32.0</ele><time>2026-03-28T13:24:54Z</time></trkpt><trkpt lat="15.606235294278582" lon="120.59899870050617"><ele>32.0</ele><time>2026-03-28T13:24:55Z</time></trkpt><trkpt lat="15.606293137686306" lon="120.59896941686725"><ele>31.999999999999996</ele><time>2026-03-28T13:24:56Z</time></trkpt><trkpt lat="15.606388457752663" lon="120.59891383693204"><ele>32.0</ele><time>2026-03-28T13:24:58Z</time></trkpt><trkpt lat="15.606438864872139" lon="120.59879855362216"><ele>32.4</ele><time>2026-03-28T13:25:00Z</time></trkpt><trkpt lat="15.606445482368391" lon="120.59867246593831"><ele>32.800000000000004</ele><time>2026-03-28T13:25:02Z</time></trkpt><trkpt lat="15.606429674107988" lon="120.59860618477524"><ele>33.2</ele><time>2026-03-28T13:25:03Z</time></trkpt><trkpt lat="15.606406488952707" lon="120.59854035415246"><ele>33.6</ele><time>2026-03-28T13:25:04Z</time></trkpt><trkpt lat="15.606376945199898" lon="120.59842425881797"><ele>34.0</ele><time>2026-03-28T13:25:06Z</time></trkpt><trkpt lat="15.606391360220258" lon="120.59832494243"><ele>34.2</ele><time>2026-03-28T13:25:08Z</time></trkpt><trkpt lat="15.60644235107218" lon="120.59824828443533"><ele>34.4</ele><time>2026-03-28T13:25:10Z</time></trkpt><trkpt lat="15.606517615998346" lon="120.59822711468138"><ele>34.6</ele><time>2026-03-28T13:25:12Z</time></trkpt><trkpt lat="15.606604466712387" lon="120.59819214798286"><ele>34.8</ele><time>2026-03-28T13:25:14Z</time></trkpt><trkpt lat="15.606695530369262" lon="120.59815621877578"><ele>35.0</ele><time>2026-03-28T13:25:16Z</time></trkpt><trkpt lat="15.606784725276313" lon="120.59812071580701"><ele>35.0</ele><time>2026-03-28T13:25:18Z</time></trkpt><trkpt lat="15.60687761151788" lon="120.59808368844688"><ele>35.0</ele><time>2026-03-28T13:25:20Z</time></trkpt><trkpt lat="15.606983048449832" lon="120.59804165798641"><ele>35.0</ele><time>2026-03-28T13:25:22Z</time></trkpt><trkpt lat="15.607087713092039" lon="120.59799993537699"><ele>35.0</ele><time>2026-03-28T13:25:24Z</time></trkpt><trkpt lat="15.607175803896366" lon="120.59796481963332"><ele>35.0</ele><time>2026-03-28T13:25:26Z</time></trkpt><trkpt lat="15.60724941238867" lon="120.59793861471346"><ele>35.0</ele><time>2026-03-28T13:25:29Z</time></trkpt><trkpt lat="15.607325615741162" lon="120.59791148763279"><ele>35.0</ele><time>2026-03-28T13:25:31Z</time></trkpt><trkpt lat="15.607425218836191" lon="120.59787603065814"><ele>35.0</ele><time>2026-03-28T13:25:33Z</time></trkpt><trkpt lat="15.607499847331141" lon="120.59784946421384"><ele>35.0</ele><time>2026-03-28T13:25:35Z</time></trkpt><trkpt lat="15.607585531288795" lon="120.59781896241215"><ele>35.0</ele><time>2026-03-28T13:25:38Z</time></trkpt><trkpt lat="15.607595799584145" lon="120.59769865875215"><ele>34.5</ele><time>2026-03-28T13:25:40Z</time></trkpt><trkpt lat="15.60759313968126" lon="120.59761027884278"><ele>34.0</ele><time>2026-03-28T13:25:42Z</time></trkpt><trkpt lat="15.607579486209648" lon="120.59749961310368"><ele>33.5</ele><time>2026-03-28T13:25:44Z</time></trkpt><trkpt lat="15.607571490455701" lon="120.59737773714845"><ele>33.0</ele><time>2026-03-28T13:25:46Z</time></trkpt><trkpt lat="15.607565846135607" lon="120.59730677501521"><ele>32.5</ele><time>2026-03-28T13:25:47Z</time></trkpt><trkpt lat="15.607562156217428" lon="120.5972359382186"><ele>32.0</ele><time>2026-03-28T13:25:48Z</time></trkpt><trkpt lat="15.607554524212484" lon="120.59716253000879"><ele>31.999999999999996</ele><time>2026-03-28T13:25:49Z</time></trkpt><trkpt lat="15.607549255021386" lon="120.59709648774688"><ele>32.0</ele><time>2026-03-28T13:25:50Z</time></trkpt><trkpt lat="15.607541654247028" lon="120.59702656394516"><ele>32.0</ele><time>2026-03-28T13:25:51Z</time></trkpt><trkpt lat="15.607534165214549" lon="120.59695499563261"><ele>32.0</ele><time>2026-03-28T13:25:52Z</time></trkpt><trkpt lat="15.60752279695131" lon="120.59682400279799"><ele>31.999999999999996</ele><time>2026-03-28T13:25:54Z</time></trkpt><trkpt lat="15.607516111329174" lon="120.59675410709796"><ele>32.0</ele><time>2026-03-28T13:25:55Z</time></trkpt><trkpt lat="15.607510005661728" lon="120.5966801893096"><ele>32.166666666666664</ele><time>2026-03-28T13:25:56Z</time></trkpt><trkpt lat="15.607501374415278" lon="120.596600828348"><ele>32.33333333333333</ele><time>2026-03-28T13:25:57Z</time></trkpt><trkpt lat="15.607492072657593" lon="120.59652520272051"><ele>32.5</ele><time>2026-03-28T13:25:58Z</time></trkpt><trkpt lat="15.607482368680591" lon="120.5964460846761"><ele>32.666666666666664</ele><time>2026-03-28T13:25:59Z</time></trkpt><trkpt lat="15.607475781944096" lon="120.59636061251472"><ele>32.833333333333336</ele><time>2026-03-28T13:26:00Z</time></trkpt><trkpt lat="15.607469260181603" lon="120.59627675198573"><ele>33.0</ele><time>2026-03-28T13:26:01Z</time></trkpt><trkpt lat="15.607463465823132" lon="120.59619100296442"><ele>32.833333333333336</ele><time>2026-03-28T13:26:02Z</time></trkpt><trkpt lat="15.607457215102597" lon="120.59610835641882"><ele>32.666666666666664</ele><time>2026-03-28T13:26:03Z</time></trkpt><trkpt lat="15.60745354370051" lon="120.59602802038764"><ele>32.5</ele><time>2026-03-28T13:26:04Z</time></trkpt><trkpt lat="15.607446299362422" lon="120.5959489030755"><ele>32.33333333333333</ele><time>2026-03-28T13:26:05Z</time></trkpt><trkpt lat="15.607439215429656" lon="120.59586659933156"><ele>32.166666666666664</ele><time>2026-03-28T13:26:06Z</time></trkpt><trkpt lat="15.60743251974887" lon="120.59578378900173"><ele>32.0</ele><time>2026-03-28T13:26:07Z</time></trkpt><trkpt lat="15.607425224639732" lon="120.59569455287216"><ele>31.999999999999996</ele><time>2026-03-28T13:26:08Z</time></trkpt><trkpt lat="15.607417813785622" lon="120.59560722025236"><ele>32.0</ele><time>2026-03-28T13:26:09Z</time></trkpt><trkpt lat="15.607412916018575" lon="120.59551887608924"><ele>32.0</ele><time>2026-03-28T13:26:10Z</time></trkpt><trkpt lat="15.60740481652927" lon="120.59544001926655"><ele>32.0</ele><time>2026-03-28T13:26:11Z</time></trkpt><trkpt lat="15.607398498428477" lon="120.59536237957059"><ele>31.999999999999996</ele><time>2026-03-28T13:26:12Z</time></trkpt><trkpt lat="15.607393168443485" lon="120.59528427424102"><ele>32.0</ele><time>2026-03-28T13:26:13Z</time></trkpt><trkpt lat="15.607384882655595" lon="120.59520266467959"><ele>31.999999999999996</ele><time>2026-03-28T13:26:14Z</time></trkpt><trkpt lat="15.607378864704433" lon="120.59512186295471"><ele>32.0</ele><time>2026-03-28T13:26:15Z</time></trkpt><trkpt lat="15.607370926051125" lon="120.59503773443043"><ele>32.0</ele><time>2026-03-28T13:26:16Z</time></trkpt><trkpt lat="15.607362972041319" lon="120.59495440136725"><ele>32.0</ele><time>2026-03-28T13:26:17Z</time></trkpt><trkpt lat="15.607356068727935" lon="120.5948716519388"><ele>31.999999999999996</ele><time>2026-03-28T13:26:18Z</time></trkpt><trkpt lat="15.60735238199481" lon="120.59478895885168"><ele>32.0</ele><time>2026-03-28T13:26:19Z</time></trkpt><trkpt lat="15.60735077671465" lon="120.59470867114166"><ele>31.999999999999996</ele><time>2026-03-28T13:26:20Z</time></trkpt><trkpt lat="15.607354746887504" lon="120.59461483902334"><ele>32.0</ele><time>2026-03-28T13:26:21Z</time></trkpt><trkpt lat="15.607365716851756" lon="120.59453000493335"><ele>32.0</ele><time>2026-03-28T13:26:22Z</time></trkpt><trkpt lat="15.607377611068546" lon="120.59445677963298"><ele>32.0</ele><time>2026-03-28T13:26:23Z</time></trkpt><trkpt lat="15.60739018729521" lon="120.59437298720871"><ele>31.999999999999996</ele><time>2026-03-28T13:26:24Z</time></trkpt><trkpt lat="15.60740222108297" lon="120.59428840668326"><ele>32.0</ele><time>2026-03-28T13:26:25Z</time></trkpt><trkpt lat="15.60741667476287" lon="120.59420438927158"><ele>32.5</ele><time>2026-03-28T13:26:26Z</time></trkpt><trkpt lat="15.607432724009646" lon="120.5941245142227"><ele>33.0</ele><time>2026-03-28T13:26:27Z</time></trkpt><trkpt lat="15.607447707055911" lon="120.59404081100116"><ele>33.5</ele><time>2026-03-28T13:26:28Z</time></trkpt><trkpt lat="15.607465880841433" lon="120.5939581048185"><ele>34.0</ele><time>2026-03-28T13:26:29Z</time></trkpt><trkpt lat="15.607485678062465" lon="120.59387493309997"><ele>34.5</ele><time>2026-03-28T13:26:30Z</time></trkpt><trkpt lat="15.60750710044882" lon="120.59379484890076"><ele>35.0</ele><time>2026-03-28T13:26:31Z</time></trkpt><trkpt lat="15.607561759944605" lon="120.59372430076708"><ele>34.33333333333333</ele><time>2026-03-28T13:26:32Z</time></trkpt><trkpt lat="15.607601120438266" lon="120.59364504998409"><ele>33.666666666666664</ele><time>2026-03-28T13:26:33Z</time></trkpt><trkpt lat="15.607641886928834" lon="120.59356566518082"><ele>33.0</ele><time>2026-03-28T13:26:34Z</time></trkpt><trkpt lat="15.607682276299172" lon="120.59349038684307"><ele>32.333333333333336</ele><time>2026-03-28T13:26:35Z</time></trkpt><trkpt lat="15.607727372681987" lon="120.59341463698169"><ele>31.666666666666668</ele><time>2026-03-28T13:26:36Z</time></trkpt><trkpt lat="15.60777253005785" lon="120.593338784674"><ele>31.0</ele><time>2026-03-28T13:26:37Z</time></trkpt><trkpt lat="15.607817226888315" lon="120.59326266251229"><ele>31.166666666666668</ele><time>2026-03-28T13:26:38Z</time></trkpt><trkpt lat="15.607847996502546" lon="120.59317937607017"><ele>31.333333333333336</ele><time>2026-03-28T13:26:39Z</time></trkpt><trkpt lat="15.607901420732139" lon="120.59311659574485"><ele>31.5</ele><time>2026-03-28T13:26:40Z</time></trkpt><trkpt lat="15.6079525715934" lon="120.59303591379691"><ele>31.666666666666664</ele><time>2026-03-28T13:26:41Z</time></trkpt><trkpt lat="15.60799595345672" lon="120.59296018215744"><ele>31.833333333333332</ele><time>2026-03-28T13:26:42Z</time></trkpt><trkpt lat="15.608033148854986" lon="120.59290115358853"><ele>32.0</ele><time>2026-03-28T13:26:43Z</time></trkpt><trkpt lat="15.608095845298932" lon="120.59279170619023"><ele>31.6</ele><time>2026-03-28T13:26:45Z</time></trkpt><trkpt lat="15.608150152374385" lon="120.59269194379043"><ele>31.200000000000003</ele><time>2026-03-28T13:26:47Z</time></trkpt><trkpt lat="15.608202329728961" lon="120.59261113627593"><ele>30.8</ele><time>2026-03-28T13:26:49Z</time></trkpt><trkpt lat="15.6082483890338" lon="120.592518856239"><ele>30.4</ele><time>2026-03-28T13:26:51Z</time></trkpt><trkpt lat="15.60830901264088" lon="120.59240511163482"><ele>30.0</ele><time>2026-03-28T13:26:53Z</time></trkpt><trkpt lat="15.608340995285907" lon="120.59234503935235"><ele>30.0</ele><time>2026-03-28T13:26:54Z</time></trkpt><trkpt lat="15.608376320103574" lon="120.59228717174425"><ele>30.0</ele><time>2026-03-28T13:26:55Z</time></trkpt><trkpt lat="15.60840645810402" lon="120.5922210600258"><ele>30.0</ele><time>2026-03-28T13:26:56Z</time></trkpt><trkpt lat="15.608440410218176" lon="120.59215408784786"><ele>30.0</ele><time>2026-03-28T13:26:57Z</time></trkpt><trkpt lat="15.608474073976376" lon="120.59208992419201"><ele>30.0</ele><time>2026-03-28T13:26:58Z</time></trkpt><trkpt lat="15.608525304158034" lon="120.5919859835047"><ele>30.0</ele><time>2026-03-28T13:27:00Z</time></trkpt><trkpt lat="15.60856782782682" lon="120.59190530001987"><ele>30.2</ele><time>2026-03-28T13:27:02Z</time></trkpt><trkpt lat="15.608614047889537" lon="120.59183005354623"><ele>30.4</ele><time>2026-03-28T13:27:05Z</time></trkpt><trkpt lat="15.60865110390299" lon="120.59176343799174"><ele>30.6</ele><time>2026-03-28T13:27:07Z</time></trkpt><trkpt lat="15.608694404172507" lon="120.59166712278761"><ele>30.8</ele><time>2026-03-28T13:27:09Z</time></trkpt><trkpt lat="15.60874941079463" lon="120.59155272977114"><ele>31.0</ele><time>2026-03-28T13:27:11Z</time></trkpt><trkpt lat="15.60877919571896" lon="120.5914900098531"><ele>31.000000000000004</ele><time>2026-03-28T13:27:12Z</time></trkpt><trkpt lat="15.608813592465435" lon="120.59142921562821"><ele>31.0</ele><time>2026-03-28T13:27:13Z</time></trkpt><trkpt lat="15.608866470991128" lon="120.59137546172259"><ele>31.0</ele><time>2026-03-28T13:27:14Z</time></trkpt><trkpt lat="15.608910239728962" lon="120.59131267375736"><ele>31.0</ele><time>2026-03-28T13:27:15Z</time></trkpt><trkpt lat="15.608954955701368" lon="120.5912485269356"><ele>31.000000000000004</ele><time>2026-03-28T13:27:16Z</time></trkpt><trkpt lat="15.609000601386235" lon="120.59118304643138"><ele>31.0</ele><time>2026-03-28T13:27:17Z</time></trkpt><trkpt lat="15.609035338039876" lon="120.5911034238746"><ele>31.000000000000004</ele><time>2026-03-28T13:27:18Z</time></trkpt><trkpt lat="15.60909349114441" lon="120.59104145264077"><ele>31.0</ele><time>2026-03-28T13:27:19Z</time></trkpt><trkpt lat="15.609147567882575" lon="120.59096859264824"><ele>31.0</ele><time>2026-03-28T13:27:20Z</time></trkpt><trkpt lat="15.609202274356251" lon="120.59089574437122"><ele>31.0</ele><time>2026-03-28T13:27:21Z</time></trkpt><trkpt lat="15.60925562169747" lon="120.59082359897168"><ele>31.000000000000004</ele><time>2026-03-28T13:27:22Z</time></trkpt><trkpt lat="15.609309666618117" lon="120.59074853439137"><ele>31.0</ele><time>2026-03-28T13:27:23Z</time></trkpt><trkpt lat="15.609359432791837" lon="120.5906724736997"><ele>31.0</ele><time>2026-03-28T13:27:24Z</time></trkpt><trkpt lat="15.609407364282784" lon="120.5905908726861"><ele>31.0</ele><time>2026-03-28T13:27:25Z</time></trkpt><trkpt lat="15.609453046880406" lon="120.59050674037007"><ele>31.0</ele><time>2026-03-28T13:27:26Z</time></trkpt><trkpt lat="15.609491262491057" lon="120.59042033960014"><ele>31.0</ele><time>2026-03-28T13:27:27Z</time></trkpt><trkpt lat="15.609536201258436" lon="120.59032854216584"><ele>31.0</ele><time>2026-03-28T13:27:28Z</time></trkpt><trkpt lat="15.609578010830171" lon="120.59023530420629"><ele>30.6</ele><time>2026-03-28T13:27:29Z</time></trkpt><trkpt lat="15.609616860180786" lon="120.59013993491946"><ele>30.200000000000003</ele><time>2026-03-28T13:27:30Z</time></trkpt><trkpt lat="15.609656782582045" lon="120.59004812007812"><ele>29.799999999999997</ele><time>2026-03-28T13:27:31Z</time></trkpt><trkpt lat="15.609696566799327" lon="120.58996148547325"><ele>29.4</ele><time>2026-03-28T13:27:32Z</time></trkpt><trkpt lat="15.609737391930386" lon="120.58987388175309"><ele>29.0</ele><time>2026-03-28T13:27:33Z</time></trkpt><trkpt lat="15.609777018882227" lon="120.58978592990562"><ele>29.0</ele><time>2026-03-28T13:27:34Z</time></trkpt><trkpt lat="15.609817350705555" lon="120.58969689496844"><ele>29.0</ele><time>2026-03-28T13:27:35Z</time></trkpt><trkpt lat="15.60987130252065" lon="120.58961733229391"><ele>29.0</ele><time>2026-03-28T13:27:36Z</time></trkpt><trkpt lat="15.609910346786782" lon="120.58953028508614"><ele>29.0</ele><time>2026-03-28T13:27:37Z</time></trkpt><trkpt lat="15.609949457666925" lon="120.58944176724285"><ele>29.0</ele><time>2026-03-28T13:27:38Z</time></trkpt><trkpt lat="15.609989033146277" lon="120.58935143283314"><ele>28.833333333333332</ele><time>2026-03-28T13:27:39Z</time></trkpt><trkpt lat="15.610029519571885" lon="120.58925914152441"><ele>28.666666666666664</ele><time>2026-03-28T13:27:40Z</time></trkpt><trkpt lat="15.610065507705267" lon="120.58917332621674"><ele>28.5</ele><time>2026-03-28T13:27:41Z</time></trkpt><trkpt lat="15.610102778585443" lon="120.58908571116666"><ele>28.333333333333336</ele><time>2026-03-28T13:27:42Z</time></trkpt><trkpt lat="15.610137690651394" lon="120.5890036039221"><ele>28.166666666666668</ele><time>2026-03-28T13:27:43Z</time></trkpt><trkpt lat="15.61016924848466" lon="120.58892470361882"><ele>28.0</ele><time>2026-03-28T13:27:44Z</time></trkpt><trkpt lat="15.61020529344715" lon="120.58884775083965"><ele>28.0</ele><time>2026-03-28T13:27:45Z</time></trkpt><trkpt lat="15.610249441204383" lon="120.58874722955925"><ele>27.999999999999996</ele><time>2026-03-28T13:27:47Z</time></trkpt><trkpt lat="15.61027686647166" lon="120.58866066811316"><ele>27.999999999999996</ele><time>2026-03-28T13:27:49Z</time></trkpt><trkpt lat="15.610295620824864" lon="120.58854394548392"><ele>28.0</ele><time>2026-03-28T13:27:51Z</time></trkpt><trkpt lat="15.610311504708331" lon="120.58842244871957"><ele>28.0</ele><time>2026-03-28T13:27:53Z</time></trkpt><trkpt lat="15.610334367280977" lon="120.58832089884797"><ele>28.166666666666668</ele><time>2026-03-28T13:27:55Z</time></trkpt><trkpt lat="15.610400732465267" lon="120.58826479728243"><ele>28.333333333333336</ele><time>2026-03-28T13:27:57Z</time></trkpt><trkpt lat="15.610454594756401" lon="120.58817783154038"><ele>28.5</ele><time>2026-03-28T13:27:59Z</time></trkpt><trkpt lat="15.610499834766248" lon="120.58813233081881"><ele>28.666666666666664</ele><time>2026-03-28T13:28:00Z</time></trkpt><trkpt lat="15.610566053394722" lon="120.58809054209627"><ele>28.833333333333332</ele><time>2026-03-28T13:28:01Z</time></trkpt><trkpt lat="15.610621931057766" lon="120.5880371061545"><ele>29.0</ele><time>2026-03-28T13:28:02Z</time></trkpt><trkpt lat="15.610677321547742" lon="120.58798412396224"><ele>28.999999999999996</ele><time>2026-03-28T13:28:03Z</time></trkpt><trkpt lat="15.610731170920557" lon="120.58792797375827"><ele>29.0</ele><time>2026-03-28T13:28:04Z</time></trkpt><trkpt lat="15.610790619564087" lon="120.58787413915908"><ele>29.0</ele><time>2026-03-28T13:28:05Z</time></trkpt><trkpt lat="15.610846405729562" lon="120.58782461373892"><ele>29.0</ele><time>2026-03-28T13:28:06Z</time></trkpt><trkpt lat="15.610899714030097" lon="120.58777991842119"><ele>28.999999999999996</ele><time>2026-03-28T13:28:07Z</time></trkpt><trkpt lat="15.61100264731316" lon="120.58770477803509"><ele>29.0</ele><time>2026-03-28T13:28:09Z</time></trkpt><trkpt lat="15.61112098353926" lon="120.58764745394613"><ele>28.999999999999996</ele><time>2026-03-28T13:28:11Z</time></trkpt><trkpt lat="15.611187796674036" lon="120.58762514248208"><ele>29.0</ele><time>2026-03-28T13:28:12Z</time></trkpt><trkpt lat="15.611261187944308" lon="120.58762535253484"><ele>29.0</ele><time>2026-03-28T13:28:13Z</time></trkpt><trkpt lat="15.611335047437818" lon="120.58761453941953"><ele>29.0</ele><time>2026-03-28T13:28:14Z</time></trkpt><trkpt lat="15.611411313997174" lon="120.58760968693164"><ele>28.999999999999996</ele><time>2026-03-28T13:28:15Z</time></trkpt><trkpt lat="15.611500216926176" lon="120.58761302992369"><ele>29.0</ele><time>2026-03-28T13:28:16Z</time></trkpt><trkpt lat="15.611593947026199" lon="120.5876168444262"><ele>29.0</ele><time>2026-03-28T13:28:17Z</time></trkpt><trkpt lat="15.611693731903815" lon="120.58760464686874"><ele>29.0</ele><time>2026-03-28T13:28:18Z</time></trkpt><trkpt lat="15.611791511015998" lon="120.58763382446256"><ele>29.0</ele><time>2026-03-28T13:28:19Z</time></trkpt><trkpt lat="15.611889773256605" lon="120.58764747935847"><ele>29.0</ele><time>2026-03-28T13:28:20Z</time></trkpt><trkpt lat="15.611993040602215" lon="120.58766222613247"><ele>29.0</ele><time>2026-03-28T13:28:21Z</time></trkpt><trkpt lat="15.612098928177433" lon="120.58767764779874"><ele>29.4</ele><time>2026-03-28T13:28:22Z</time></trkpt><trkpt lat="15.612200802718302" lon="120.58769248499914"><ele>29.799999999999997</ele><time>2026-03-28T13:28:23Z</time></trkpt><trkpt lat="15.612302617123216" lon="120.58770731344485"><ele>30.200000000000003</ele><time>2026-03-28T13:28:24Z</time></trkpt><trkpt lat="15.61240190049843" lon="120.58772165141191"><ele>30.6</ele><time>2026-03-28T13:28:25Z</time></trkpt><trkpt lat="15.612496837519693" lon="120.58773557389377"><ele>31.0</ele><time>2026-03-28T13:28:26Z</time></trkpt><trkpt lat="15.61258498313998" lon="120.58774859903153"><ele>31.000000000000004</ele><time>2026-03-28T13:28:27Z</time></trkpt><trkpt lat="15.612661619499763" lon="120.58775954708348"><ele>31.0</ele><time>2026-03-28T13:28:28Z</time></trkpt><trkpt lat="15.612731195227948" lon="120.58776461428222"><ele>31.0</ele><time>2026-03-28T13:28:29Z</time></trkpt><trkpt lat="15.612826633198353" lon="120.5877567031648"><ele>31.0</ele><time>2026-03-28T13:28:31Z</time></trkpt><trkpt lat="15.612894576393625" lon="120.58773674957085"><ele>31.000000000000004</ele><time>2026-03-28T13:28:33Z</time></trkpt><trkpt lat="15.61296721465086" lon="120.58767902220795"><ele>31.0</ele><time>2026-03-28T13:28:35Z</time></trkpt><trkpt lat="15.613019259953639" lon="120.58758633662241"><ele>31.200000000000003</ele><time>2026-03-28T13:28:37Z</time></trkpt><trkpt lat="15.613077320517627" lon="120.58750457039878"><ele>31.400000000000002</ele><time>2026-03-28T13:28:39Z</time></trkpt><trkpt lat="15.613130750803709" lon="120.58745065376965"><ele>31.6</ele><time>2026-03-28T13:28:41Z</time></trkpt><trkpt lat="15.613207550249657" lon="120.58743491293026"><ele>31.8</ele><time>2026-03-28T13:28:44Z</time></trkpt><trkpt lat="15.613283406953013" lon="120.58739704074031"><ele>32.0</ele><time>2026-03-28T13:28:49Z</time></trkpt><trkpt lat="15.612981616465415" lon="120.5872636360711"><ele>32.0</ele><time>2026-03-28T13:28:52Z</time></trkpt><trkpt lat="15.61298636738918" lon="120.58719697633315"><ele>32.0</ele><time>2026-03-28T13:28:57Z</time></trkpt><trkpt lat="15.61330109478706" lon="120.58722124541578"><ele>32.0</ele><time>2026-03-28T13:30:03Z</time></trkpt><trkpt lat="15.613236824355722" lon="120.58723780980108"><ele>32.0</ele><time>2026-03-28T13:49:48Z</time></trkpt><trkpt lat="15.613302372967954" lon="120.5872704397083"><ele>32.0</ele><time>2026-03-28T13:50:14Z</time></trkpt></trkseg></trk></gpx>